<?xml version='1.0' encoding='UTF-8'?><gpx version="1.1" creator="JPX - https://github.com/jenetics/jpx" xmlns="http://www.topografix.com/GPX/1/1"><trk><trkseg><trkpt lat="44.5259139" lon="10.8665152"><ele>132.0</ele><time>2026-04-26T06:49:44.539Z</time></trkpt><trkpt lat="44.5259522" lon="10.8664441"><ele>132.0</ele><time>2026-04-26T06:52:39.555Z</time></trkpt><trkpt lat="44.525888" lon="10.8663907"><ele>132.0</ele><time>2026-04-26T07:02:25.571Z</time></trkpt><trkpt lat="44.5255287" lon="10.8662426"><ele>132.0</ele><time>2026-04-26T07:02:28.48Z</time></trkpt><trkpt lat="44.5254222" lon="10.8661878"><ele>132.0</ele><time>2026-04-26T07:02:29.48Z</time></trkpt><trkpt lat="44.5253343" lon="10.8661282"><ele>132.0</ele><time>2026-04-26T07:02:30.48Z</time></trkpt><trkpt lat="44.5252551" lon="10.866067"><ele>132.0</ele><time>2026-04-26T07:02:31.48Z</time></trkpt><trkpt lat="44.5251757" lon="10.8660093"><ele>132.0</ele><time>2026-04-26T07:02:32.48Z</time></trkpt><trkpt lat="44.5250968" lon="10.8659546"><ele>132.79999999999998</ele><time>2026-04-26T07:02:33.481Z</time></trkpt><trkpt lat="44.5250145" lon="10.8659011"><ele>133.6</ele><time>2026-04-26T07:02:34.48Z</time></trkpt><trkpt lat="44.5249376" lon="10.8658403"><ele>134.39999999999998</ele><time>2026-04-26T07:02:35.48Z</time></trkpt><trkpt lat="44.5248794" lon="10.8657491"><ele>135.2</ele><time>2026-04-26T07:02:36.48Z</time></trkpt><trkpt lat="44.5248346" lon="10.8656253"><ele>136.0</ele><time>2026-04-26T07:02:37.48Z</time></trkpt><trkpt lat="44.5248042" lon="10.8654607"><ele>136.0</ele><time>2026-04-26T07:02:38.48Z</time></trkpt><trkpt lat="44.5247861" lon="10.8652625"><ele>136.0</ele><time>2026-04-26T07:02:39.48Z</time></trkpt><trkpt lat="44.5247738" lon="10.8650258"><ele>136.0</ele><time>2026-04-26T07:02:40.48Z</time></trkpt><trkpt lat="44.5247643" lon="10.8647615"><ele>136.66666666666669</ele><time>2026-04-26T07:02:41.48Z</time></trkpt><trkpt lat="44.5247438" lon="10.8645177"><ele>137.33333333333334</ele><time>2026-04-26T07:02:42.48Z</time></trkpt><trkpt lat="44.5247326" lon="10.8643082"><ele>138.0</ele><time>2026-04-26T07:02:43.48Z</time></trkpt><trkpt lat="44.5247156" lon="10.8641056"><ele>139.0</ele><time>2026-04-26T07:02:44.48Z</time></trkpt><trkpt lat="44.5246715" lon="10.863908"><ele>140.0</ele><time>2026-04-26T07:02:45.48Z</time></trkpt><trkpt lat="44.5245878" lon="10.8637108"><ele>141.0</ele><time>2026-04-26T07:02:46.48Z</time></trkpt><trkpt lat="44.5244816" lon="10.8634973"><ele>143.33333333333334</ele><time>2026-04-26T07:02:47.48Z</time></trkpt><trkpt lat="44.5243485" lon="10.8632856"><ele>145.66666666666669</ele><time>2026-04-26T07:02:48.48Z</time></trkpt><trkpt lat="44.5242114" lon="10.8630547"><ele>148.0</ele><time>2026-04-26T07:02:49.48Z</time></trkpt><trkpt lat="44.5240861" lon="10.8628379"><ele>148.0</ele><time>2026-04-26T07:02:50.48Z</time></trkpt><trkpt lat="44.5239788" lon="10.8626419"><ele>148.0</ele><time>2026-04-26T07:02:51.48Z</time></trkpt><trkpt lat="44.5238826" lon="10.8624574"><ele>148.0</ele><time>2026-04-26T07:02:52.48Z</time></trkpt><trkpt lat="44.5237928" lon="10.8622873"><ele>148.0</ele><time>2026-04-26T07:02:53.481Z</time></trkpt><trkpt lat="44.523716" lon="10.8621271"><ele>148.0</ele><time>2026-04-26T07:02:54.48Z</time></trkpt><trkpt lat="44.5236386" lon="10.8619646"><ele>148.0</ele><time>2026-04-26T07:02:55.481Z</time></trkpt><trkpt lat="44.5235583" lon="10.861807"><ele>148.0</ele><time>2026-04-26T07:02:56.48Z</time></trkpt><trkpt lat="44.5234807" lon="10.8616437"><ele>149.75</ele><time>2026-04-26T07:02:57.48Z</time></trkpt><trkpt lat="44.5234019" lon="10.8614813"><ele>151.5</ele><time>2026-04-26T07:02:58.48Z</time></trkpt><trkpt lat="44.5233128" lon="10.861326"><ele>153.25</ele><time>2026-04-26T07:02:59.48Z</time></trkpt><trkpt lat="44.5232261" lon="10.8611854"><ele>155.0</ele><time>2026-04-26T07:03:00.48Z</time></trkpt><trkpt lat="44.5231411" lon="10.8610576"><ele>155.0</ele><time>2026-04-26T07:03:01.48Z</time></trkpt><trkpt lat="44.5230663" lon="10.8609543"><ele>155.0</ele><time>2026-04-26T07:03:02.48Z</time></trkpt><trkpt lat="44.5230028" lon="10.8608629"><ele>155.0</ele><time>2026-04-26T07:03:03.48Z</time></trkpt><trkpt lat="44.5229384" lon="10.8607648"><ele>155.0</ele><time>2026-04-26T07:03:04.48Z</time></trkpt><trkpt lat="44.5228869" lon="10.860656"><ele>155.0</ele><time>2026-04-26T07:03:05.48Z</time></trkpt><trkpt lat="44.5228577" lon="10.8605375"><ele>155.2</ele><time>2026-04-26T07:03:06.48Z</time></trkpt><trkpt lat="44.5228538" lon="10.8604014"><ele>155.4</ele><time>2026-04-26T07:03:07.48Z</time></trkpt><trkpt lat="44.5228772" lon="10.8602599"><ele>155.6</ele><time>2026-04-26T07:03:08.48Z</time></trkpt><trkpt lat="44.5229268" lon="10.8601269"><ele>155.8</ele><time>2026-04-26T07:03:09.48Z</time></trkpt><trkpt lat="44.5229986" lon="10.860011"><ele>156.0</ele><time>2026-04-26T07:03:10.481Z</time></trkpt><trkpt lat="44.5230936" lon="10.8599011"><ele>155.5</ele><time>2026-04-26T07:03:11.48Z</time></trkpt><trkpt lat="44.5232029" lon="10.8598019"><ele>155.0</ele><time>2026-04-26T07:03:12.48Z</time></trkpt><trkpt lat="44.5233242" lon="10.859711"><ele>154.5</ele><time>2026-04-26T07:03:13.48Z</time></trkpt><trkpt lat="44.5234384" lon="10.8596373"><ele>154.0</ele><time>2026-04-26T07:03:14.48Z</time></trkpt><trkpt lat="44.5235452" lon="10.859565"><ele>154.0</ele><time>2026-04-26T07:03:15.48Z</time></trkpt><trkpt lat="44.5236476" lon="10.8595034"><ele>154.0</ele><time>2026-04-26T07:03:16.48Z</time></trkpt><trkpt lat="44.523743" lon="10.8594457"><ele>154.0</ele><time>2026-04-26T07:03:17.481Z</time></trkpt><trkpt lat="44.5238219" lon="10.8593871"><ele>154.0</ele><time>2026-04-26T07:03:18.48Z</time></trkpt><trkpt lat="44.523885" lon="10.8593228"><ele>154.0</ele><time>2026-04-26T07:03:19.48Z</time></trkpt><trkpt lat="44.5239313" lon="10.8592537"><ele>153.33333333333334</ele><time>2026-04-26T07:03:20.48Z</time></trkpt><trkpt lat="44.5239437" lon="10.8591064"><ele>152.66666666666669</ele><time>2026-04-26T07:03:22.48Z</time></trkpt><trkpt lat="44.5238741" lon="10.8590043"><ele>152.0</ele><time>2026-04-26T07:03:24.48Z</time></trkpt><trkpt lat="44.523811" lon="10.8589904"><ele>151.33333333333334</ele><time>2026-04-26T07:03:25.481Z</time></trkpt><trkpt lat="44.5237263" lon="10.8589796"><ele>150.66666666666666</ele><time>2026-04-26T07:03:26.48Z</time></trkpt><trkpt lat="44.5236373" lon="10.8589574"><ele>150.0</ele><time>2026-04-26T07:03:27.48Z</time></trkpt><trkpt lat="44.5235437" lon="10.858916"><ele>150.0</ele><time>2026-04-26T07:03:28.48Z</time></trkpt><trkpt lat="44.5234515" lon="10.8588489"><ele>150.0</ele><time>2026-04-26T07:03:29.48Z</time></trkpt><trkpt lat="44.5233674" lon="10.8587522"><ele>150.0</ele><time>2026-04-26T07:03:30.48Z</time></trkpt><trkpt lat="44.5232945" lon="10.8586397"><ele>150.0</ele><time>2026-04-26T07:03:31.48Z</time></trkpt><trkpt lat="44.5232341" lon="10.8585205"><ele>150.0</ele><time>2026-04-26T07:03:32.48Z</time></trkpt><trkpt lat="44.5231958" lon="10.8583811"><ele>149.25</ele><time>2026-04-26T07:03:33.48Z</time></trkpt><trkpt lat="44.5231833" lon="10.8582155"><ele>148.5</ele><time>2026-04-26T07:03:34.481Z</time></trkpt><trkpt lat="44.5231852" lon="10.858044"><ele>147.75</ele><time>2026-04-26T07:03:35.48Z</time></trkpt><trkpt lat="44.5231991" lon="10.8578667"><ele>147.0</ele><time>2026-04-26T07:03:36.48Z</time></trkpt><trkpt lat="44.523215" lon="10.8577024"><ele>146.0</ele><time>2026-04-26T07:03:37.481Z</time></trkpt><trkpt lat="44.5232277" lon="10.857559"><ele>145.0</ele><time>2026-04-26T07:03:38.48Z</time></trkpt><trkpt lat="44.5232357" lon="10.8574442"><ele>144.0</ele><time>2026-04-26T07:03:39.48Z</time></trkpt><trkpt lat="44.5232598" lon="10.8573612"><ele>143.0</ele><time>2026-04-26T07:03:40.48Z</time></trkpt><trkpt lat="44.52337" lon="10.8572678"><ele>142.0</ele><time>2026-04-26T07:03:42.48Z</time></trkpt><trkpt lat="44.523453" lon="10.8572554"><ele>142.0</ele><time>2026-04-26T07:03:43.48Z</time></trkpt><trkpt lat="44.5235578" lon="10.8572512"><ele>142.0</ele><time>2026-04-26T07:03:44.48Z</time></trkpt><trkpt lat="44.5236804" lon="10.8572441"><ele>142.0</ele><time>2026-04-26T07:03:45.48Z</time></trkpt><trkpt lat="44.5238194" lon="10.8572332"><ele>142.0</ele><time>2026-04-26T07:03:46.48Z</time></trkpt><trkpt lat="44.5239661" lon="10.8572085"><ele>142.66666666666669</ele><time>2026-04-26T07:03:47.48Z</time></trkpt><trkpt lat="44.5241137" lon="10.8571836"><ele>143.33333333333334</ele><time>2026-04-26T07:03:48.48Z</time></trkpt><trkpt lat="44.5242721" lon="10.8571535"><ele>144.0</ele><time>2026-04-26T07:03:49.48Z</time></trkpt><trkpt lat="44.5244379" lon="10.8571228"><ele>143.0</ele><time>2026-04-26T07:03:50.48Z</time></trkpt><trkpt lat="44.5246089" lon="10.8570905"><ele>142.0</ele><time>2026-04-26T07:03:51.48Z</time></trkpt><trkpt lat="44.5247832" lon="10.8570567"><ele>141.0</ele><time>2026-04-26T07:03:52.48Z</time></trkpt><trkpt lat="44.524959" lon="10.8570229"><ele>141.0</ele><time>2026-04-26T07:03:53.48Z</time></trkpt><trkpt lat="44.5251361" lon="10.8569982"><ele>141.0</ele><time>2026-04-26T07:03:54.48Z</time></trkpt><trkpt lat="44.5253119" lon="10.8569878"><ele>141.0</ele><time>2026-04-26T07:03:55.481Z</time></trkpt><trkpt lat="44.5254887" lon="10.856995"><ele>141.0</ele><time>2026-04-26T07:03:56.48Z</time></trkpt><trkpt lat="44.5256686" lon="10.8570156"><ele>141.0</ele><time>2026-04-26T07:03:57.48Z</time></trkpt><trkpt lat="44.5258468" lon="10.8570481"><ele>141.0</ele><time>2026-04-26T07:03:58.48Z</time></trkpt><trkpt lat="44.5260289" lon="10.8570826"><ele>141.0</ele><time>2026-04-26T07:03:59.48Z</time></trkpt><trkpt lat="44.5262092" lon="10.857121"><ele>141.0</ele><time>2026-04-26T07:04:00.48Z</time></trkpt><trkpt lat="44.5263843" lon="10.8571632"><ele>141.0</ele><time>2026-04-26T07:04:01.48Z</time></trkpt><trkpt lat="44.5265606" lon="10.8571997"><ele>140.33333333333334</ele><time>2026-04-26T07:04:02.48Z</time></trkpt><trkpt lat="44.5267431" lon="10.857241"><ele>139.66666666666669</ele><time>2026-04-26T07:04:03.48Z</time></trkpt><trkpt lat="44.5269179" lon="10.8572791"><ele>139.0</ele><time>2026-04-26T07:04:04.48Z</time></trkpt><trkpt lat="44.5270857" lon="10.8573188"><ele>138.33333333333334</ele><time>2026-04-26T07:04:05.48Z</time></trkpt><trkpt lat="44.527248" lon="10.8573611"><ele>137.66666666666666</ele><time>2026-04-26T07:04:06.481Z</time></trkpt><trkpt lat="44.5274024" lon="10.8573978"><ele>137.0</ele><time>2026-04-26T07:04:07.48Z</time></trkpt><trkpt lat="44.5275532" lon="10.8574378"><ele>137.0</ele><time>2026-04-26T07:04:08.48Z</time></trkpt><trkpt lat="44.5276929" lon="10.8574699"><ele>137.0</ele><time>2026-04-26T07:04:09.48Z</time></trkpt><trkpt lat="44.5278223" lon="10.8574971"><ele>137.0</ele><time>2026-04-26T07:04:10.48Z</time></trkpt><trkpt lat="44.5279472" lon="10.8575218"><ele>137.0</ele><time>2026-04-26T07:04:11.48Z</time></trkpt><trkpt lat="44.5280637" lon="10.8575485"><ele>137.0</ele><time>2026-04-26T07:04:12.48Z</time></trkpt><trkpt lat="44.5281654" lon="10.8575753"><ele>137.0</ele><time>2026-04-26T07:04:13.48Z</time></trkpt><trkpt lat="44.5282515" lon="10.8576051"><ele>137.0</ele><time>2026-04-26T07:04:14.48Z</time></trkpt><trkpt lat="44.5283223" lon="10.8576449"><ele>137.0</ele><time>2026-04-26T07:04:15.48Z</time></trkpt><trkpt lat="44.5283862" lon="10.8576779"><ele>137.0</ele><time>2026-04-26T07:04:16.48Z</time></trkpt><trkpt lat="44.5284916" lon="10.8576745"><ele>137.0</ele><time>2026-04-26T07:04:18.481Z</time></trkpt><trkpt lat="44.5285425" lon="10.8574959"><ele>137.0</ele><time>2026-04-26T07:04:20.48Z</time></trkpt><trkpt lat="44.5285598" lon="10.857344"><ele>137.0</ele><time>2026-04-26T07:04:21.48Z</time></trkpt><trkpt lat="44.5285851" lon="10.8571696"><ele>137.0</ele><time>2026-04-26T07:04:22.48Z</time></trkpt><trkpt lat="44.5286144" lon="10.8569665"><ele>137.0</ele><time>2026-04-26T07:04:23.48Z</time></trkpt><trkpt lat="44.5286436" lon="10.8567576"><ele>137.0</ele><time>2026-04-26T07:04:24.48Z</time></trkpt><trkpt lat="44.5286708" lon="10.8565469"><ele>137.0</ele><time>2026-04-26T07:04:25.48Z</time></trkpt><trkpt lat="44.528703" lon="10.8563424"><ele>137.0</ele><time>2026-04-26T07:04:26.48Z</time></trkpt><trkpt lat="44.528738" lon="10.8561398"><ele>135.0</ele><time>2026-04-26T07:04:27.48Z</time></trkpt><trkpt lat="44.52878" lon="10.8559371"><ele>133.0</ele><time>2026-04-26T07:04:28.48Z</time></trkpt><trkpt lat="44.5288276" lon="10.8557314"><ele>131.0</ele><time>2026-04-26T07:04:29.48Z</time></trkpt><trkpt lat="44.5288792" lon="10.855533"><ele>131.0</ele><time>2026-04-26T07:04:30.48Z</time></trkpt><trkpt lat="44.5289331" lon="10.8553522"><ele>131.0</ele><time>2026-04-26T07:04:31.48Z</time></trkpt><trkpt lat="44.5289893" lon="10.8551899"><ele>131.0</ele><time>2026-04-26T07:04:32.48Z</time></trkpt><trkpt lat="44.5290452" lon="10.8550497"><ele>131.0</ele><time>2026-04-26T07:04:33.48Z</time></trkpt><trkpt lat="44.5291012" lon="10.8549412"><ele>131.6</ele><time>2026-04-26T07:04:34.48Z</time></trkpt><trkpt lat="44.5291732" lon="10.8548633"><ele>132.2</ele><time>2026-04-26T07:04:35.48Z</time></trkpt><trkpt lat="44.5292525" lon="10.8548034"><ele>132.8</ele><time>2026-04-26T07:04:36.48Z</time></trkpt><trkpt lat="44.5293288" lon="10.8547346"><ele>133.4</ele><time>2026-04-26T07:04:37.48Z</time></trkpt><trkpt lat="44.5293887" lon="10.8546342"><ele>134.0</ele><time>2026-04-26T07:04:38.48Z</time></trkpt><trkpt lat="44.5294348" lon="10.8544986"><ele>134.0</ele><time>2026-04-26T07:04:39.48Z</time></trkpt><trkpt lat="44.5294839" lon="10.8543495"><ele>134.0</ele><time>2026-04-26T07:04:40.48Z</time></trkpt><trkpt lat="44.5295417" lon="10.8542058"><ele>134.0</ele><time>2026-04-26T07:04:41.48Z</time></trkpt><trkpt lat="44.5296178" lon="10.85408"><ele>134.0</ele><time>2026-04-26T07:04:42.48Z</time></trkpt><trkpt lat="44.5297118" lon="10.8539838"><ele>133.4</ele><time>2026-04-26T07:04:43.48Z</time></trkpt><trkpt lat="44.5298112" lon="10.8539112"><ele>132.8</ele><time>2026-04-26T07:04:44.48Z</time></trkpt><trkpt lat="44.5299081" lon="10.8538514"><ele>132.2</ele><time>2026-04-26T07:04:45.48Z</time></trkpt><trkpt lat="44.5299864" lon="10.853778"><ele>131.6</ele><time>2026-04-26T07:04:46.479Z</time></trkpt><trkpt lat="44.5300419" lon="10.853682"><ele>131.0</ele><time>2026-04-26T07:04:47.479Z</time></trkpt><trkpt lat="44.5300464" lon="10.8535699"><ele>131.0</ele><time>2026-04-26T07:04:48.479Z</time></trkpt><trkpt lat="44.5300049" lon="10.8534684"><ele>131.0</ele><time>2026-04-26T07:04:49.479Z</time></trkpt><trkpt lat="44.52994" lon="10.8534098"><ele>131.0</ele><time>2026-04-26T07:04:50.479Z</time></trkpt><trkpt lat="44.5298505" lon="10.8533885"><ele>131.0</ele><time>2026-04-26T07:04:51.479Z</time></trkpt><trkpt lat="44.5297364" lon="10.8534022"><ele>131.0</ele><time>2026-04-26T07:04:52.479Z</time></trkpt><trkpt lat="44.5296207" lon="10.8533967"><ele>131.6</ele><time>2026-04-26T07:04:53.479Z</time></trkpt><trkpt lat="44.5295143" lon="10.8533643"><ele>132.2</ele><time>2026-04-26T07:04:54.479Z</time></trkpt><trkpt lat="44.5294238" lon="10.8533141"><ele>132.8</ele><time>2026-04-26T07:04:55.479Z</time></trkpt><trkpt lat="44.5293492" lon="10.8532657"><ele>133.4</ele><time>2026-04-26T07:04:56.479Z</time></trkpt><trkpt lat="44.5292819" lon="10.8532237"><ele>134.0</ele><time>2026-04-26T07:04:57.479Z</time></trkpt><trkpt lat="44.5291874" lon="10.8531748"><ele>134.0</ele><time>2026-04-26T07:04:59.479Z</time></trkpt><trkpt lat="44.5291237" lon="10.8531425"><ele>134.0</ele><time>2026-04-26T07:05:01.479Z</time></trkpt><trkpt lat="44.5290399" lon="10.8530867"><ele>134.0</ele><time>2026-04-26T07:05:04.479Z</time></trkpt><trkpt lat="44.528942" lon="10.8530434"><ele>134.0</ele><time>2026-04-26T07:05:07.549Z</time></trkpt><trkpt lat="44.5288797" lon="10.8530089"><ele>134.0</ele><time>2026-04-26T07:05:08.479Z</time></trkpt><trkpt lat="44.5287826" lon="10.8529404"><ele>134.0</ele><time>2026-04-26T07:05:10.479Z</time></trkpt><trkpt lat="44.5287077" lon="10.8528882"><ele>134.2</ele><time>2026-04-26T07:05:12.479Z</time></trkpt><trkpt lat="44.528582" lon="10.8528647"><ele>134.4</ele><time>2026-04-26T07:05:14.479Z</time></trkpt><trkpt lat="44.5285006" lon="10.8528293"><ele>134.6</ele><time>2026-04-26T07:05:15.479Z</time></trkpt><trkpt lat="44.5284162" lon="10.8527618"><ele>134.8</ele><time>2026-04-26T07:05:16.479Z</time></trkpt><trkpt lat="44.5283265" lon="10.8526509"><ele>135.0</ele><time>2026-04-26T07:05:17.479Z</time></trkpt><trkpt lat="44.5282283" lon="10.8525146"><ele>135.0</ele><time>2026-04-26T07:05:18.479Z</time></trkpt><trkpt lat="44.5281332" lon="10.8523691"><ele>135.0</ele><time>2026-04-26T07:05:19.479Z</time></trkpt><trkpt lat="44.5280545" lon="10.8522066"><ele>135.0</ele><time>2026-04-26T07:05:20.479Z</time></trkpt><trkpt lat="44.5280002" lon="10.8520218"><ele>135.0</ele><time>2026-04-26T07:05:21.479Z</time></trkpt><trkpt lat="44.527968" lon="10.8518269"><ele>135.0</ele><time>2026-04-26T07:05:22.48Z</time></trkpt><trkpt lat="44.5279345" lon="10.8516425"><ele>135.0</ele><time>2026-04-26T07:05:23.479Z</time></trkpt><trkpt lat="44.5279019" lon="10.8514719"><ele>135.0</ele><time>2026-04-26T07:05:24.479Z</time></trkpt><trkpt lat="44.5278691" lon="10.8513009"><ele>135.0</ele><time>2026-04-26T07:05:25.479Z</time></trkpt><trkpt lat="44.5278371" lon="10.8511256"><ele>136.0</ele><time>2026-04-26T07:05:26.479Z</time></trkpt><trkpt lat="44.5278083" lon="10.8509473"><ele>137.0</ele><time>2026-04-26T07:05:27.479Z</time></trkpt><trkpt lat="44.5277861" lon="10.8507797"><ele>138.0</ele><time>2026-04-26T07:05:28.479Z</time></trkpt><trkpt lat="44.5277813" lon="10.8506063"><ele>139.0</ele><time>2026-04-26T07:05:29.479Z</time></trkpt><trkpt lat="44.5278018" lon="10.8504275"><ele>139.0</ele><time>2026-04-26T07:05:30.479Z</time></trkpt><trkpt lat="44.5278449" lon="10.8502499"><ele>139.0</ele><time>2026-04-26T07:05:31.479Z</time></trkpt><trkpt lat="44.5278997" lon="10.8500756"><ele>139.0</ele><time>2026-04-26T07:05:32.479Z</time></trkpt><trkpt lat="44.527951" lon="10.8499045"><ele>139.0</ele><time>2026-04-26T07:05:33.479Z</time></trkpt><trkpt lat="44.5279981" lon="10.8497365"><ele>138.75</ele><time>2026-04-26T07:05:34.479Z</time></trkpt><trkpt lat="44.5280408" lon="10.8495619"><ele>138.5</ele><time>2026-04-26T07:05:35.479Z</time></trkpt><trkpt lat="44.5280834" lon="10.8493868"><ele>138.25</ele><time>2026-04-26T07:05:36.479Z</time></trkpt><trkpt lat="44.5281281" lon="10.8492173"><ele>138.0</ele><time>2026-04-26T07:05:37.479Z</time></trkpt><trkpt lat="44.5281607" lon="10.8490475"><ele>137.75</ele><time>2026-04-26T07:05:38.479Z</time></trkpt><trkpt lat="44.5281757" lon="10.8488665"><ele>137.5</ele><time>2026-04-26T07:05:39.479Z</time></trkpt><trkpt lat="44.5281808" lon="10.8486859"><ele>137.25</ele><time>2026-04-26T07:05:40.479Z</time></trkpt><trkpt lat="44.528185" lon="10.8485061"><ele>137.0</ele><time>2026-04-26T07:05:41.48Z</time></trkpt><trkpt lat="44.5281822" lon="10.848324"><ele>137.0</ele><time>2026-04-26T07:05:42.479Z</time></trkpt><trkpt lat="44.5281816" lon="10.8481378"><ele>137.0</ele><time>2026-04-26T07:05:43.479Z</time></trkpt><trkpt lat="44.5281799" lon="10.8479498"><ele>137.0</ele><time>2026-04-26T07:05:44.479Z</time></trkpt><trkpt lat="44.5281756" lon="10.8477548"><ele>137.0</ele><time>2026-04-26T07:05:45.479Z</time></trkpt><trkpt lat="44.5281727" lon="10.8475576"><ele>136.75</ele><time>2026-04-26T07:05:46.479Z</time></trkpt><trkpt lat="44.5281694" lon="10.8473688"><ele>136.5</ele><time>2026-04-26T07:05:47.479Z</time></trkpt><trkpt lat="44.5281667" lon="10.8471987"><ele>136.25</ele><time>2026-04-26T07:05:48.479Z</time></trkpt><trkpt lat="44.5281544" lon="10.8470517"><ele>136.0</ele><time>2026-04-26T07:05:49.479Z</time></trkpt><trkpt lat="44.5281396" lon="10.8469214"><ele>136.0</ele><time>2026-04-26T07:05:50.479Z</time></trkpt><trkpt lat="44.528117" lon="10.8468131"><ele>136.0</ele><time>2026-04-26T07:05:51.479Z</time></trkpt><trkpt lat="44.5280852" lon="10.8467211"><ele>136.0</ele><time>2026-04-26T07:05:52.479Z</time></trkpt><trkpt lat="44.5280068" lon="10.8466251"><ele>136.0</ele><time>2026-04-26T07:05:54.479Z</time></trkpt><trkpt lat="44.5278708" lon="10.8466392"><ele>136.0</ele><time>2026-04-26T07:05:56.479Z</time></trkpt><trkpt lat="44.5277653" lon="10.8466974"><ele>136.25</ele><time>2026-04-26T07:05:57.479Z</time></trkpt><trkpt lat="44.5276425" lon="10.8467467"><ele>136.5</ele><time>2026-04-26T07:05:58.479Z</time></trkpt><trkpt lat="44.5275124" lon="10.8467703"><ele>136.75</ele><time>2026-04-26T07:05:59.479Z</time></trkpt><trkpt lat="44.5273786" lon="10.8467471"><ele>137.0</ele><time>2026-04-26T07:06:00.479Z</time></trkpt><trkpt lat="44.5272358" lon="10.8466796"><ele>137.0</ele><time>2026-04-26T07:06:01.479Z</time></trkpt><trkpt lat="44.5270927" lon="10.8465896"><ele>137.0</ele><time>2026-04-26T07:06:02.479Z</time></trkpt><trkpt lat="44.5269572" lon="10.8465082"><ele>137.0</ele><time>2026-04-26T07:06:03.479Z</time></trkpt><trkpt lat="44.5268394" lon="10.8464471"><ele>137.0</ele><time>2026-04-26T07:06:04.479Z</time></trkpt><trkpt lat="44.5267397" lon="10.8463914"><ele>137.2</ele><time>2026-04-26T07:06:05.48Z</time></trkpt><trkpt lat="44.5266539" lon="10.8463116"><ele>137.39999999999998</ele><time>2026-04-26T07:06:06.479Z</time></trkpt><trkpt lat="44.5265738" lon="10.8461979"><ele>137.60000000000002</ele><time>2026-04-26T07:06:07.479Z</time></trkpt><trkpt lat="44.5264994" lon="10.8460898"><ele>137.8</ele><time>2026-04-26T07:06:08.48Z</time></trkpt><trkpt lat="44.5264011" lon="10.8460096"><ele>138.0</ele><time>2026-04-26T07:06:09.479Z</time></trkpt><trkpt lat="44.5262754" lon="10.8459474"><ele>138.75</ele><time>2026-04-26T07:06:10.479Z</time></trkpt><trkpt lat="44.5261486" lon="10.8458801"><ele>139.5</ele><time>2026-04-26T07:06:11.479Z</time></trkpt><trkpt lat="44.5260384" lon="10.8458124"><ele>140.25</ele><time>2026-04-26T07:06:12.479Z</time></trkpt><trkpt lat="44.5259421" lon="10.845747"><ele>141.0</ele><time>2026-04-26T07:06:13.479Z</time></trkpt><trkpt lat="44.5258458" lon="10.8456918"><ele>141.0</ele><time>2026-04-26T07:06:14.479Z</time></trkpt><trkpt lat="44.5257536" lon="10.8456328"><ele>141.0</ele><time>2026-04-26T07:06:15.479Z</time></trkpt><trkpt lat="44.5256688" lon="10.8455866"><ele>141.0</ele><time>2026-04-26T07:06:16.479Z</time></trkpt><trkpt lat="44.5255956" lon="10.8455384"><ele>141.0</ele><time>2026-04-26T07:06:17.479Z</time></trkpt><trkpt lat="44.5255313" lon="10.8454707"><ele>141.0</ele><time>2026-04-26T07:06:18.479Z</time></trkpt><trkpt lat="44.5254692" lon="10.8454183"><ele>141.0</ele><time>2026-04-26T07:06:19.479Z</time></trkpt><trkpt lat="44.5254085" lon="10.8453896"><ele>141.0</ele><time>2026-04-26T07:06:20.479Z</time></trkpt><trkpt lat="44.5252902" lon="10.8454412"><ele>141.0</ele><time>2026-04-26T07:06:22.479Z</time></trkpt><trkpt lat="44.5252323" lon="10.8455243"><ele>141.0</ele><time>2026-04-26T07:06:23.479Z</time></trkpt><trkpt lat="44.5251836" lon="10.8456303"><ele>141.0</ele><time>2026-04-26T07:06:24.479Z</time></trkpt><trkpt lat="44.5251447" lon="10.8457301"><ele>141.0</ele><time>2026-04-26T07:06:25.479Z</time></trkpt><trkpt lat="44.5250994" lon="10.8458022"><ele>141.0</ele><time>2026-04-26T07:06:26.48Z</time></trkpt><trkpt lat="44.5250273" lon="10.8458481"><ele>141.0</ele><time>2026-04-26T07:06:27.479Z</time></trkpt><trkpt lat="44.5249409" lon="10.8458624"><ele>141.0</ele><time>2026-04-26T07:06:28.479Z</time></trkpt><trkpt lat="44.5248489" lon="10.8458289"><ele>141.0</ele><time>2026-04-26T07:06:29.48Z</time></trkpt><trkpt lat="44.5247467" lon="10.8457548"><ele>141.0</ele><time>2026-04-26T07:06:30.479Z</time></trkpt><trkpt lat="44.5246375" lon="10.8456706"><ele>141.0</ele><time>2026-04-26T07:06:31.479Z</time></trkpt><trkpt lat="44.5245309" lon="10.845597"><ele>141.2</ele><time>2026-04-26T07:06:32.479Z</time></trkpt><trkpt lat="44.524426" lon="10.8455366"><ele>141.39999999999998</ele><time>2026-04-26T07:06:33.479Z</time></trkpt><trkpt lat="44.5243208" lon="10.8454828"><ele>141.6</ele><time>2026-04-26T07:06:34.479Z</time></trkpt><trkpt lat="44.5242198" lon="10.8454346"><ele>141.79999999999998</ele><time>2026-04-26T07:06:35.479Z</time></trkpt><trkpt lat="44.5241215" lon="10.8453911"><ele>142.0</ele><time>2026-04-26T07:06:36.479Z</time></trkpt><trkpt lat="44.5240293" lon="10.8453566"><ele>142.0</ele><time>2026-04-26T07:06:37.479Z</time></trkpt><trkpt lat="44.52395" lon="10.8453177"><ele>142.0</ele><time>2026-04-26T07:06:38.479Z</time></trkpt><trkpt lat="44.5238884" lon="10.84528"><ele>142.0</ele><time>2026-04-26T07:06:39.479Z</time></trkpt><trkpt lat="44.5238184" lon="10.8451638"><ele>142.0</ele><time>2026-04-26T07:06:41.48Z</time></trkpt><trkpt lat="44.5238279" lon="10.8450074"><ele>142.0</ele><time>2026-04-26T07:06:43.479Z</time></trkpt><trkpt lat="44.5238601" lon="10.8449217"><ele>142.0</ele><time>2026-04-26T07:06:44.479Z</time></trkpt><trkpt lat="44.5239157" lon="10.8448168"><ele>142.2</ele><time>2026-04-26T07:06:45.479Z</time></trkpt><trkpt lat="44.5239729" lon="10.8446926"><ele>142.39999999999998</ele><time>2026-04-26T07:06:46.479Z</time></trkpt><trkpt lat="44.5240235" lon="10.8445619"><ele>142.60000000000002</ele><time>2026-04-26T07:06:47.479Z</time></trkpt><trkpt lat="44.5240704" lon="10.8444355"><ele>142.8</ele><time>2026-04-26T07:06:48.479Z</time></trkpt><trkpt lat="44.5241158" lon="10.8443037"><ele>143.0</ele><time>2026-04-26T07:06:49.479Z</time></trkpt><trkpt lat="44.5241647" lon="10.8441671"><ele>143.0</ele><time>2026-04-26T07:06:50.479Z</time></trkpt><trkpt lat="44.5242219" lon="10.8440317"><ele>143.0</ele><time>2026-04-26T07:06:51.479Z</time></trkpt><trkpt lat="44.5242797" lon="10.8439026"><ele>143.0</ele><time>2026-04-26T07:06:52.479Z</time></trkpt><trkpt lat="44.524344" lon="10.843784"><ele>143.0</ele><time>2026-04-26T07:06:53.479Z</time></trkpt><trkpt lat="44.5244055" lon="10.8436668"><ele>143.0</ele><time>2026-04-26T07:06:54.479Z</time></trkpt><trkpt lat="44.5244618" lon="10.8435581"><ele>142.66666666666666</ele><time>2026-04-26T07:06:55.479Z</time></trkpt><trkpt lat="44.5245149" lon="10.843456"><ele>142.33333333333331</ele><time>2026-04-26T07:06:56.479Z</time></trkpt><trkpt lat="44.5245615" lon="10.8433757"><ele>142.0</ele><time>2026-04-26T07:06:57.479Z</time></trkpt><trkpt lat="44.5246183" lon="10.8432691"><ele>141.66666666666666</ele><time>2026-04-26T07:06:59.479Z</time></trkpt><trkpt lat="44.5246586" lon="10.8432012"><ele>141.33333333333334</ele><time>2026-04-26T07:07:01.525Z</time></trkpt><trkpt lat="44.5246192" lon="10.8430656"><ele>141.0</ele><time>2026-04-26T07:07:06.479Z</time></trkpt><trkpt lat="44.5245698" lon="10.8429922"><ele>141.0</ele><time>2026-04-26T07:07:07.48Z</time></trkpt><trkpt lat="44.5245155" lon="10.8429195"><ele>141.0</ele><time>2026-04-26T07:07:08.479Z</time></trkpt><trkpt lat="44.5244511" lon="10.8428464"><ele>141.0</ele><time>2026-04-26T07:07:09.479Z</time></trkpt><trkpt lat="44.5243758" lon="10.8427728"><ele>141.0</ele><time>2026-04-26T07:07:10.479Z</time></trkpt><trkpt lat="44.5242987" lon="10.8426971"><ele>141.0</ele><time>2026-04-26T07:07:11.479Z</time></trkpt><trkpt lat="44.5242167" lon="10.8426123"><ele>141.0</ele><time>2026-04-26T07:07:12.479Z</time></trkpt><trkpt lat="44.5241322" lon="10.8425228"><ele>140.75</ele><time>2026-04-26T07:07:13.479Z</time></trkpt><trkpt lat="44.5240352" lon="10.8424303"><ele>140.5</ele><time>2026-04-26T07:07:14.479Z</time></trkpt><trkpt lat="44.5239259" lon="10.8423483"><ele>140.25</ele><time>2026-04-26T07:07:15.479Z</time></trkpt><trkpt lat="44.5238059" lon="10.8422945"><ele>140.0</ele><time>2026-04-26T07:07:16.479Z</time></trkpt><trkpt lat="44.5236707" lon="10.8422822"><ele>140.0</ele><time>2026-04-26T07:07:17.479Z</time></trkpt><trkpt lat="44.5235243" lon="10.8423232"><ele>140.0</ele><time>2026-04-26T07:07:18.479Z</time></trkpt><trkpt lat="44.5233691" lon="10.8424132"><ele>140.0</ele><time>2026-04-26T07:07:19.479Z</time></trkpt><trkpt lat="44.5232037" lon="10.8425344"><ele>140.33333333333331</ele><time>2026-04-26T07:07:20.479Z</time></trkpt><trkpt lat="44.523023" lon="10.8426709"><ele>140.66666666666666</ele><time>2026-04-26T07:07:21.479Z</time></trkpt><trkpt lat="44.5228343" lon="10.8428091"><ele>141.0</ele><time>2026-04-26T07:07:22.479Z</time></trkpt><trkpt lat="44.5226416" lon="10.8429223"><ele>141.66666666666666</ele><time>2026-04-26T07:07:23.479Z</time></trkpt><trkpt lat="44.5224368" lon="10.8429972"><ele>142.33333333333331</ele><time>2026-04-26T07:07:24.479Z</time></trkpt><trkpt lat="44.5222332" lon="10.8430229"><ele>143.0</ele><time>2026-04-26T07:07:25.479Z</time></trkpt><trkpt lat="44.5220318" lon="10.8430085"><ele>143.33333333333331</ele><time>2026-04-26T07:07:26.479Z</time></trkpt><trkpt lat="44.5218351" lon="10.8429508"><ele>143.66666666666666</ele><time>2026-04-26T07:07:27.479Z</time></trkpt><trkpt lat="44.5216446" lon="10.842877"><ele>144.0</ele><time>2026-04-26T07:07:28.479Z</time></trkpt><trkpt lat="44.5214477" lon="10.8428082"><ele>144.0</ele><time>2026-04-26T07:07:29.479Z</time></trkpt><trkpt lat="44.5212443" lon="10.8427583"><ele>144.0</ele><time>2026-04-26T07:07:30.479Z</time></trkpt><trkpt lat="44.5210409" lon="10.8427136"><ele>144.0</ele><time>2026-04-26T07:07:31.479Z</time></trkpt><trkpt lat="44.5208429" lon="10.8426723"><ele>143.66666666666666</ele><time>2026-04-26T07:07:32.48Z</time></trkpt><trkpt lat="44.5206466" lon="10.8426266"><ele>143.33333333333331</ele><time>2026-04-26T07:07:33.479Z</time></trkpt><trkpt lat="44.5204541" lon="10.8425662"><ele>143.0</ele><time>2026-04-26T07:07:34.48Z</time></trkpt><trkpt lat="44.5202651" lon="10.8424924"><ele>143.0</ele><time>2026-04-26T07:07:35.479Z</time></trkpt><trkpt lat="44.5200798" lon="10.8424077"><ele>143.0</ele><time>2026-04-26T07:07:36.479Z</time></trkpt><trkpt lat="44.5198941" lon="10.8423239"><ele>143.0</ele><time>2026-04-26T07:07:37.479Z</time></trkpt><trkpt lat="44.5197104" lon="10.8422424"><ele>145.33333333333331</ele><time>2026-04-26T07:07:38.479Z</time></trkpt><trkpt lat="44.5195273" lon="10.8421608"><ele>147.66666666666666</ele><time>2026-04-26T07:07:39.479Z</time></trkpt><trkpt lat="44.519343" lon="10.8420781"><ele>150.0</ele><time>2026-04-26T07:07:40.479Z</time></trkpt><trkpt lat="44.5191619" lon="10.8419961"><ele>150.0</ele><time>2026-04-26T07:07:41.479Z</time></trkpt><trkpt lat="44.518977" lon="10.8419213"><ele>150.0</ele><time>2026-04-26T07:07:42.479Z</time></trkpt><trkpt lat="44.5188004" lon="10.8418517"><ele>150.0</ele><time>2026-04-26T07:07:43.479Z</time></trkpt><trkpt lat="44.5186163" lon="10.8418066"><ele>149.0</ele><time>2026-04-26T07:07:44.479Z</time></trkpt><trkpt lat="44.5184261" lon="10.8417631"><ele>148.0</ele><time>2026-04-26T07:07:45.479Z</time></trkpt><trkpt lat="44.5182317" lon="10.8417159"><ele>147.0</ele><time>2026-04-26T07:07:46.479Z</time></trkpt><trkpt lat="44.5180389" lon="10.8416676"><ele>148.0</ele><time>2026-04-26T07:07:47.479Z</time></trkpt><trkpt lat="44.5178506" lon="10.8416211"><ele>149.0</ele><time>2026-04-26T07:07:48.479Z</time></trkpt><trkpt lat="44.5176625" lon="10.841565"><ele>150.0</ele><time>2026-04-26T07:07:49.479Z</time></trkpt><trkpt lat="44.5174748" lon="10.8414957"><ele>150.0</ele><time>2026-04-26T07:07:50.479Z</time></trkpt><trkpt lat="44.5172922" lon="10.8414083"><ele>150.0</ele><time>2026-04-26T07:07:51.479Z</time></trkpt><trkpt lat="44.5171088" lon="10.8413001"><ele>150.0</ele><time>2026-04-26T07:07:52.479Z</time></trkpt><trkpt lat="44.5169309" lon="10.8411774"><ele>150.0</ele><time>2026-04-26T07:07:53.479Z</time></trkpt><trkpt lat="44.5167559" lon="10.8410508"><ele>150.0</ele><time>2026-04-26T07:07:54.479Z</time></trkpt><trkpt lat="44.5165972" lon="10.8409264"><ele>150.0</ele><time>2026-04-26T07:07:55.479Z</time></trkpt><trkpt lat="44.5164425" lon="10.8408069"><ele>150.0</ele><time>2026-04-26T07:07:56.479Z</time></trkpt><trkpt lat="44.5163075" lon="10.8406967"><ele>150.0</ele><time>2026-04-26T07:07:57.479Z</time></trkpt><trkpt lat="44.5161754" lon="10.840596"><ele>150.0</ele><time>2026-04-26T07:07:58.479Z</time></trkpt><trkpt lat="44.5160353" lon="10.840495"><ele>149.66666666666666</ele><time>2026-04-26T07:07:59.479Z</time></trkpt><trkpt lat="44.5158925" lon="10.8403824"><ele>149.33333333333331</ele><time>2026-04-26T07:08:00.48Z</time></trkpt><trkpt lat="44.515741" lon="10.8402463"><ele>149.0</ele><time>2026-04-26T07:08:01.479Z</time></trkpt><trkpt lat="44.5155976" lon="10.8400874"><ele>149.0</ele><time>2026-04-26T07:08:02.479Z</time></trkpt><trkpt lat="44.5154642" lon="10.8398951"><ele>149.0</ele><time>2026-04-26T07:08:03.479Z</time></trkpt><trkpt lat="44.5153359" lon="10.8396941"><ele>149.0</ele><time>2026-04-26T07:08:04.479Z</time></trkpt><trkpt lat="44.5152094" lon="10.8394869"><ele>149.66666666666666</ele><time>2026-04-26T07:08:05.479Z</time></trkpt><trkpt lat="44.5150797" lon="10.8392733"><ele>150.33333333333334</ele><time>2026-04-26T07:08:06.479Z</time></trkpt><trkpt lat="44.5149453" lon="10.8390569"><ele>151.0</ele><time>2026-04-26T07:08:07.479Z</time></trkpt><trkpt lat="44.5148098" lon="10.8388509"><ele>151.0</ele><time>2026-04-26T07:08:08.479Z</time></trkpt><trkpt lat="44.5146759" lon="10.8386605"><ele>151.0</ele><time>2026-04-26T07:08:09.479Z</time></trkpt><trkpt lat="44.5145477" lon="10.8384779"><ele>151.0</ele><time>2026-04-26T07:08:10.479Z</time></trkpt><trkpt lat="44.5144138" lon="10.8383045"><ele>152.33333333333334</ele><time>2026-04-26T07:08:11.479Z</time></trkpt><trkpt lat="44.5142777" lon="10.8381373"><ele>153.66666666666666</ele><time>2026-04-26T07:08:12.479Z</time></trkpt><trkpt lat="44.5141459" lon="10.8379727"><ele>155.0</ele><time>2026-04-26T07:08:13.479Z</time></trkpt><trkpt lat="44.5140214" lon="10.837817"><ele>155.0</ele><time>2026-04-26T07:08:14.479Z</time></trkpt><trkpt lat="44.5139123" lon="10.8376771"><ele>155.0</ele><time>2026-04-26T07:08:15.479Z</time></trkpt><trkpt lat="44.5138029" lon="10.8375546"><ele>155.0</ele><time>2026-04-26T07:08:16.479Z</time></trkpt><trkpt lat="44.5136908" lon="10.8374345"><ele>155.0</ele><time>2026-04-26T07:08:17.479Z</time></trkpt><trkpt lat="44.5135773" lon="10.8373252"><ele>155.5</ele><time>2026-04-26T07:08:18.479Z</time></trkpt><trkpt lat="44.5134637" lon="10.8372121"><ele>156.0</ele><time>2026-04-26T07:08:19.48Z</time></trkpt><trkpt lat="44.5133545" lon="10.8371087"><ele>156.5</ele><time>2026-04-26T07:08:20.479Z</time></trkpt><trkpt lat="44.5132476" lon="10.8370081"><ele>157.0</ele><time>2026-04-26T07:08:21.479Z</time></trkpt><trkpt lat="44.5131472" lon="10.8369198"><ele>157.0</ele><time>2026-04-26T07:08:22.479Z</time></trkpt><trkpt lat="44.5130638" lon="10.8368517"><ele>157.0</ele><time>2026-04-26T07:08:23.479Z</time></trkpt><trkpt lat="44.5129998" lon="10.8367867"><ele>157.0</ele><time>2026-04-26T07:08:24.479Z</time></trkpt><trkpt lat="44.5129647" lon="10.8367131"><ele>157.0</ele><time>2026-04-26T07:08:25.479Z</time></trkpt><trkpt lat="44.5129865" lon="10.8365573"><ele>157.0</ele><time>2026-04-26T07:08:27.479Z</time></trkpt><trkpt lat="44.5130267" lon="10.8364626"><ele>157.0</ele><time>2026-04-26T07:08:28.479Z</time></trkpt><trkpt lat="44.5130707" lon="10.8363504"><ele>157.16666666666669</ele><time>2026-04-26T07:08:29.479Z</time></trkpt><trkpt lat="44.513105" lon="10.8362465"><ele>157.33333333333334</ele><time>2026-04-26T07:08:30.479Z</time></trkpt><trkpt lat="44.5131401" lon="10.8361116"><ele>157.5</ele><time>2026-04-26T07:08:32.479Z</time></trkpt><trkpt lat="44.5131025" lon="10.8359915"><ele>157.66666666666666</ele><time>2026-04-26T07:08:34.48Z</time></trkpt><trkpt lat="44.5130498" lon="10.8359372"><ele>157.83333333333331</ele><time>2026-04-26T07:08:35.479Z</time></trkpt><trkpt lat="44.5129777" lon="10.8358882"><ele>158.0</ele><time>2026-04-26T07:08:36.479Z</time></trkpt><trkpt lat="44.5128915" lon="10.835833"><ele>158.0</ele><time>2026-04-26T07:08:37.479Z</time></trkpt><trkpt lat="44.512789" lon="10.8357632"><ele>158.0</ele><time>2026-04-26T07:08:38.48Z</time></trkpt><trkpt lat="44.5126801" lon="10.8356776"><ele>158.0</ele><time>2026-04-26T07:08:39.479Z</time></trkpt><trkpt lat="44.5125661" lon="10.8355773"><ele>158.0</ele><time>2026-04-26T07:08:40.479Z</time></trkpt><trkpt lat="44.5124563" lon="10.8354595"><ele>158.0</ele><time>2026-04-26T07:08:41.48Z</time></trkpt><trkpt lat="44.5123502" lon="10.8353337"><ele>158.0</ele><time>2026-04-26T07:08:42.479Z</time></trkpt><trkpt lat="44.512255" lon="10.8351955"><ele>158.0</ele><time>2026-04-26T07:08:43.479Z</time></trkpt><trkpt lat="44.5121728" lon="10.8350463"><ele>158.0</ele><time>2026-04-26T07:08:44.479Z</time></trkpt><trkpt lat="44.5120975" lon="10.8349054"><ele>158.0</ele><time>2026-04-26T07:08:45.48Z</time></trkpt><trkpt lat="44.5120239" lon="10.8347675"><ele>158.0</ele><time>2026-04-26T07:08:46.479Z</time></trkpt><trkpt lat="44.5119633" lon="10.8346352"><ele>158.0</ele><time>2026-04-26T07:08:47.479Z</time></trkpt><trkpt lat="44.5119148" lon="10.8345174"><ele>158.0</ele><time>2026-04-26T07:08:48.479Z</time></trkpt><trkpt lat="44.511882" lon="10.8343943"><ele>158.0</ele><time>2026-04-26T07:08:49.479Z</time></trkpt><trkpt lat="44.5118706" lon="10.8342649"><ele>158.60000000000002</ele><time>2026-04-26T07:08:50.479Z</time></trkpt><trkpt lat="44.5118799" lon="10.8341229"><ele>159.20000000000002</ele><time>2026-04-26T07:08:51.479Z</time></trkpt><trkpt lat="44.5119015" lon="10.83398"><ele>159.8</ele><time>2026-04-26T07:08:52.48Z</time></trkpt><trkpt lat="44.5119324" lon="10.8338397"><ele>160.4</ele><time>2026-04-26T07:08:53.479Z</time></trkpt><trkpt lat="44.5119653" lon="10.8337"><ele>161.0</ele><time>2026-04-26T07:08:54.479Z</time></trkpt><trkpt lat="44.5120036" lon="10.8335571"><ele>162.4</ele><time>2026-04-26T07:08:55.479Z</time></trkpt><trkpt lat="44.5120401" lon="10.8334153"><ele>163.8</ele><time>2026-04-26T07:08:56.479Z</time></trkpt><trkpt lat="44.5120744" lon="10.8332791"><ele>165.20000000000002</ele><time>2026-04-26T07:08:57.479Z</time></trkpt><trkpt lat="44.5121105" lon="10.8331469"><ele>166.60000000000002</ele><time>2026-04-26T07:08:58.479Z</time></trkpt><trkpt lat="44.5121469" lon="10.8330106"><ele>168.0</ele><time>2026-04-26T07:08:59.479Z</time></trkpt><trkpt lat="44.51218" lon="10.8328664"><ele>168.4</ele><time>2026-04-26T07:09:00.479Z</time></trkpt><trkpt lat="44.5122105" lon="10.8327196"><ele>168.8</ele><time>2026-04-26T07:09:01.479Z</time></trkpt><trkpt lat="44.5122377" lon="10.8325669"><ele>169.2</ele><time>2026-04-26T07:09:02.479Z</time></trkpt><trkpt lat="44.5122609" lon="10.8324159"><ele>169.6</ele><time>2026-04-26T07:09:03.479Z</time></trkpt><trkpt lat="44.5122782" lon="10.8322705"><ele>170.0</ele><time>2026-04-26T07:09:04.479Z</time></trkpt><trkpt lat="44.5122883" lon="10.8321276"><ele>170.0</ele><time>2026-04-26T07:09:05.479Z</time></trkpt><trkpt lat="44.5122844" lon="10.8319647"><ele>170.0</ele><time>2026-04-26T07:09:06.48Z</time></trkpt><trkpt lat="44.512279" lon="10.8317723"><ele>170.0</ele><time>2026-04-26T07:09:07.479Z</time></trkpt><trkpt lat="44.5122755" lon="10.8315686"><ele>170.0</ele><time>2026-04-26T07:09:08.479Z</time></trkpt><trkpt lat="44.5122566" lon="10.8313575"><ele>169.66666666666666</ele><time>2026-04-26T07:09:09.479Z</time></trkpt><trkpt lat="44.5122262" lon="10.8311444"><ele>169.33333333333334</ele><time>2026-04-26T07:09:10.479Z</time></trkpt><trkpt lat="44.5121936" lon="10.8309375"><ele>169.0</ele><time>2026-04-26T07:09:11.479Z</time></trkpt><trkpt lat="44.5121591" lon="10.8307346"><ele>168.25</ele><time>2026-04-26T07:09:12.48Z</time></trkpt><trkpt lat="44.5121216" lon="10.8305413"><ele>167.5</ele><time>2026-04-26T07:09:13.479Z</time></trkpt><trkpt lat="44.5120706" lon="10.830361"><ele>166.75</ele><time>2026-04-26T07:09:14.479Z</time></trkpt><trkpt lat="44.5120104" lon="10.8301831"><ele>166.0</ele><time>2026-04-26T07:09:15.479Z</time></trkpt><trkpt lat="44.5119438" lon="10.8300066"><ele>167.0</ele><time>2026-04-26T07:09:16.479Z</time></trkpt><trkpt lat="44.5118815" lon="10.8298239"><ele>168.0</ele><time>2026-04-26T07:09:17.479Z</time></trkpt><trkpt lat="44.5118207" lon="10.8296322"><ele>169.0</ele><time>2026-04-26T07:09:18.479Z</time></trkpt><trkpt lat="44.511755" lon="10.829442"><ele>170.0</ele><time>2026-04-26T07:09:19.479Z</time></trkpt><trkpt lat="44.5116885" lon="10.8292521"><ele>170.0</ele><time>2026-04-26T07:09:20.479Z</time></trkpt><trkpt lat="44.5116237" lon="10.8290706"><ele>170.0</ele><time>2026-04-26T07:09:21.479Z</time></trkpt><trkpt lat="44.5115628" lon="10.8288872"><ele>170.0</ele><time>2026-04-26T07:09:22.479Z</time></trkpt><trkpt lat="44.5115067" lon="10.8287185"><ele>170.0</ele><time>2026-04-26T07:09:23.479Z</time></trkpt><trkpt lat="44.5114548" lon="10.8285561"><ele>172.0</ele><time>2026-04-26T07:09:24.479Z</time></trkpt><trkpt lat="44.5114079" lon="10.8284017"><ele>174.0</ele><time>2026-04-26T07:09:25.479Z</time></trkpt><trkpt lat="44.5113593" lon="10.8282521"><ele>176.0</ele><time>2026-04-26T07:09:26.479Z</time></trkpt><trkpt lat="44.5113112" lon="10.8281125"><ele>178.0</ele><time>2026-04-26T07:09:27.479Z</time></trkpt><trkpt lat="44.5112664" lon="10.8279734"><ele>177.5</ele><time>2026-04-26T07:09:28.479Z</time></trkpt><trkpt lat="44.5112264" lon="10.827846"><ele>177.0</ele><time>2026-04-26T07:09:29.479Z</time></trkpt><trkpt lat="44.511195" lon="10.8277182"><ele>176.5</ele><time>2026-04-26T07:09:30.479Z</time></trkpt><trkpt lat="44.5111726" lon="10.8275989"><ele>176.0</ele><time>2026-04-26T07:09:31.479Z</time></trkpt><trkpt lat="44.5111678" lon="10.8274834"><ele>175.5</ele><time>2026-04-26T07:09:32.479Z</time></trkpt><trkpt lat="44.5111803" lon="10.8273754"><ele>175.0</ele><time>2026-04-26T07:09:33.479Z</time></trkpt><trkpt lat="44.5112127" lon="10.8272715"><ele>175.5</ele><time>2026-04-26T07:09:34.479Z</time></trkpt><trkpt lat="44.5112705" lon="10.8271658"><ele>176.0</ele><time>2026-04-26T07:09:35.479Z</time></trkpt><trkpt lat="44.5113482" lon="10.8270564"><ele>176.5</ele><time>2026-04-26T07:09:36.479Z</time></trkpt><trkpt lat="44.5114369" lon="10.8269354"><ele>177.0</ele><time>2026-04-26T07:09:37.479Z</time></trkpt><trkpt lat="44.5115262" lon="10.8268021"><ele>177.0</ele><time>2026-04-26T07:09:38.479Z</time></trkpt><trkpt lat="44.5116195" lon="10.8266642"><ele>177.0</ele><time>2026-04-26T07:09:39.479Z</time></trkpt><trkpt lat="44.5117246" lon="10.8265332"><ele>177.0</ele><time>2026-04-26T07:09:40.48Z</time></trkpt><trkpt lat="44.5118399" lon="10.8264198"><ele>177.0</ele><time>2026-04-26T07:09:41.479Z</time></trkpt><trkpt lat="44.5119408" lon="10.8263211"><ele>177.0</ele><time>2026-04-26T07:09:42.479Z</time></trkpt><trkpt lat="44.5120211" lon="10.8262288"><ele>177.0</ele><time>2026-04-26T07:09:43.479Z</time></trkpt><trkpt lat="44.5120601" lon="10.8261335"><ele>177.0</ele><time>2026-04-26T07:09:44.479Z</time></trkpt><trkpt lat="44.512083" lon="10.8260285"><ele>177.0</ele><time>2026-04-26T07:09:45.48Z</time></trkpt><trkpt lat="44.5120784" lon="10.8259119"><ele>177.0</ele><time>2026-04-26T07:09:46.479Z</time></trkpt><trkpt lat="44.5120591" lon="10.8257755"><ele>177.0</ele><time>2026-04-26T07:09:47.479Z</time></trkpt><trkpt lat="44.5120231" lon="10.8256293"><ele>178.5</ele><time>2026-04-26T07:09:48.48Z</time></trkpt><trkpt lat="44.5119913" lon="10.8254907"><ele>180.0</ele><time>2026-04-26T07:09:49.479Z</time></trkpt><trkpt lat="44.5119696" lon="10.8253626"><ele>181.5</ele><time>2026-04-26T07:09:50.479Z</time></trkpt><trkpt lat="44.5119662" lon="10.825266"><ele>183.0</ele><time>2026-04-26T07:09:51.479Z</time></trkpt><trkpt lat="44.5120124" lon="10.8251802"><ele>184.5</ele><time>2026-04-26T07:09:53.479Z</time></trkpt><trkpt lat="44.5121002" lon="10.8251977"><ele>186.0</ele><time>2026-04-26T07:09:56.479Z</time></trkpt><trkpt lat="44.5121733" lon="10.8253608"><ele>186.0</ele><time>2026-04-26T07:09:58.479Z</time></trkpt><trkpt lat="44.5122349" lon="10.8254903"><ele>186.0</ele><time>2026-04-26T07:09:59.479Z</time></trkpt><trkpt lat="44.5123116" lon="10.8256328"><ele>186.0</ele><time>2026-04-26T07:10:00.479Z</time></trkpt><trkpt lat="44.5123974" lon="10.825765"><ele>186.0</ele><time>2026-04-26T07:10:01.479Z</time></trkpt><trkpt lat="44.5124889" lon="10.825873"><ele>186.0</ele><time>2026-04-26T07:10:02.479Z</time></trkpt><trkpt lat="44.5125919" lon="10.8259696"><ele>186.0</ele><time>2026-04-26T07:10:03.479Z</time></trkpt><trkpt lat="44.5127066" lon="10.8260572"><ele>186.0</ele><time>2026-04-26T07:10:04.479Z</time></trkpt><trkpt lat="44.5128195" lon="10.8261403"><ele>186.0</ele><time>2026-04-26T07:10:05.479Z</time></trkpt><trkpt lat="44.5129274" lon="10.8262121"><ele>187.75</ele><time>2026-04-26T07:10:06.479Z</time></trkpt><trkpt lat="44.5130337" lon="10.8262738"><ele>189.5</ele><time>2026-04-26T07:10:07.479Z</time></trkpt><trkpt lat="44.5131458" lon="10.8263183"><ele>191.25</ele><time>2026-04-26T07:10:08.479Z</time></trkpt><trkpt lat="44.5132585" lon="10.8263212"><ele>193.0</ele><time>2026-04-26T07:10:09.479Z</time></trkpt><trkpt lat="44.5133712" lon="10.8262813"><ele>193.0</ele><time>2026-04-26T07:10:10.479Z</time></trkpt><trkpt lat="44.5135005" lon="10.8262148"><ele>193.0</ele><time>2026-04-26T07:10:11.479Z</time></trkpt><trkpt lat="44.5136287" lon="10.826147"><ele>193.0</ele><time>2026-04-26T07:10:12.479Z</time></trkpt><trkpt lat="44.5137537" lon="10.8260799"><ele>193.0</ele><time>2026-04-26T07:10:13.479Z</time></trkpt><trkpt lat="44.5138652" lon="10.8260075"><ele>195.2</ele><time>2026-04-26T07:10:14.479Z</time></trkpt><trkpt lat="44.5139658" lon="10.8259332"><ele>197.4</ele><time>2026-04-26T07:10:15.479Z</time></trkpt><trkpt lat="44.5140552" lon="10.825859"><ele>199.6</ele><time>2026-04-26T07:10:16.479Z</time></trkpt><trkpt lat="44.5141339" lon="10.8257949"><ele>201.79999999999998</ele><time>2026-04-26T07:10:17.479Z</time></trkpt><trkpt lat="44.514208" lon="10.8257325"><ele>204.0</ele><time>2026-04-26T07:10:18.479Z</time></trkpt><trkpt lat="44.5142828" lon="10.8256687"><ele>204.0</ele><time>2026-04-26T07:10:19.479Z</time></trkpt><trkpt lat="44.5143597" lon="10.8256054"><ele>204.0</ele><time>2026-04-26T07:10:20.479Z</time></trkpt><trkpt lat="44.5144393" lon="10.8255407"><ele>204.0</ele><time>2026-04-26T07:10:21.479Z</time></trkpt><trkpt lat="44.514521" lon="10.8254737"><ele>204.0</ele><time>2026-04-26T07:10:22.479Z</time></trkpt><trkpt lat="44.5145983" lon="10.8253992"><ele>204.0</ele><time>2026-04-26T07:10:23.479Z</time></trkpt><trkpt lat="44.5146645" lon="10.825309"><ele>206.0</ele><time>2026-04-26T07:10:24.479Z</time></trkpt><trkpt lat="44.5147104" lon="10.8251975"><ele>208.0</ele><time>2026-04-26T07:10:25.479Z</time></trkpt><trkpt lat="44.514737" lon="10.8250557"><ele>209.99999999999997</ele><time>2026-04-26T07:10:26.479Z</time></trkpt><trkpt lat="44.5147609" lon="10.8248997"><ele>212.0</ele><time>2026-04-26T07:10:27.479Z</time></trkpt><trkpt lat="44.514787" lon="10.8247353"><ele>214.0</ele><time>2026-04-26T07:10:28.479Z</time></trkpt><trkpt lat="44.5148201" lon="10.8245734"><ele>214.0</ele><time>2026-04-26T07:10:29.48Z</time></trkpt><trkpt lat="44.5148568" lon="10.8244047"><ele>214.0</ele><time>2026-04-26T07:10:30.479Z</time></trkpt><trkpt lat="44.5148981" lon="10.8242412"><ele>214.0</ele><time>2026-04-26T07:10:31.479Z</time></trkpt><trkpt lat="44.5149364" lon="10.8240852"><ele>214.0</ele><time>2026-04-26T07:10:32.479Z</time></trkpt><trkpt lat="44.5149676" lon="10.8239344"><ele>213.75</ele><time>2026-04-26T07:10:33.479Z</time></trkpt><trkpt lat="44.5149886" lon="10.8237855"><ele>213.5</ele><time>2026-04-26T07:10:34.479Z</time></trkpt><trkpt lat="44.5150098" lon="10.8236274"><ele>213.25</ele><time>2026-04-26T07:10:35.479Z</time></trkpt><trkpt lat="44.5150224" lon="10.8234537"><ele>213.0</ele><time>2026-04-26T07:10:36.479Z</time></trkpt><trkpt lat="44.5150267" lon="10.8232761"><ele>213.0</ele><time>2026-04-26T07:10:37.479Z</time></trkpt><trkpt lat="44.5150238" lon="10.8230953"><ele>213.0</ele><time>2026-04-26T07:10:38.479Z</time></trkpt><trkpt lat="44.5150151" lon="10.8229157"><ele>213.0</ele><time>2026-04-26T07:10:39.479Z</time></trkpt><trkpt lat="44.5150002" lon="10.8227412"><ele>213.0</ele><time>2026-04-26T07:10:40.479Z</time></trkpt><trkpt lat="44.5149819" lon="10.8225688"><ele>213.0</ele><time>2026-04-26T07:10:41.479Z</time></trkpt><trkpt lat="44.5149656" lon="10.8224003"><ele>213.0</ele><time>2026-04-26T07:10:42.479Z</time></trkpt><trkpt lat="44.5149522" lon="10.8222311"><ele>213.0</ele><time>2026-04-26T07:10:43.479Z</time></trkpt><trkpt lat="44.5149326" lon="10.8220549"><ele>213.0</ele><time>2026-04-26T07:10:44.479Z</time></trkpt><trkpt lat="44.5149039" lon="10.8218807"><ele>214.75</ele><time>2026-04-26T07:10:45.479Z</time></trkpt><trkpt lat="44.5148734" lon="10.8217166"><ele>216.5</ele><time>2026-04-26T07:10:46.479Z</time></trkpt><trkpt lat="44.5148427" lon="10.821551"><ele>218.25</ele><time>2026-04-26T07:10:47.479Z</time></trkpt><trkpt lat="44.5148147" lon="10.821389"><ele>220.0</ele><time>2026-04-26T07:10:48.479Z</time></trkpt><trkpt lat="44.5147905" lon="10.8212273"><ele>220.0</ele><time>2026-04-26T07:10:49.479Z</time></trkpt><trkpt lat="44.5147698" lon="10.8210789"><ele>220.0</ele><time>2026-04-26T07:10:50.479Z</time></trkpt><trkpt lat="44.5147544" lon="10.8209474"><ele>220.0</ele><time>2026-04-26T07:10:51.479Z</time></trkpt><trkpt lat="44.5147724" lon="10.8208147"><ele>220.0</ele><time>2026-04-26T07:10:52.479Z</time></trkpt><trkpt lat="44.5148152" lon="10.820697"><ele>220.0</ele><time>2026-04-26T07:10:53.479Z</time></trkpt><trkpt lat="44.5148819" lon="10.8206017"><ele>221.2</ele><time>2026-04-26T07:10:54.479Z</time></trkpt><trkpt lat="44.5149748" lon="10.8205255"><ele>222.4</ele><time>2026-04-26T07:10:55.478Z</time></trkpt><trkpt lat="44.5150794" lon="10.8204681"><ele>223.60000000000002</ele><time>2026-04-26T07:10:56.478Z</time></trkpt><trkpt lat="44.5151728" lon="10.8204227"><ele>224.8</ele><time>2026-04-26T07:10:57.478Z</time></trkpt><trkpt lat="44.5152471" lon="10.8203861"><ele>226.0</ele><time>2026-04-26T07:10:58.478Z</time></trkpt><trkpt lat="44.5153062" lon="10.8203468"><ele>226.0</ele><time>2026-04-26T07:10:59.478Z</time></trkpt><trkpt lat="44.5153471" lon="10.8202317"><ele>226.00000000000003</ele><time>2026-04-26T07:11:01.478Z</time></trkpt><trkpt lat="44.5152833" lon="10.8201436"><ele>226.00000000000003</ele><time>2026-04-26T07:11:03.478Z</time></trkpt><trkpt lat="44.5152075" lon="10.8201211"><ele>226.0</ele><time>2026-04-26T07:11:04.478Z</time></trkpt><trkpt lat="44.5151102" lon="10.8201149"><ele>226.0</ele><time>2026-04-26T07:11:05.478Z</time></trkpt><trkpt lat="44.5150116" lon="10.8200933"><ele>228.20000000000002</ele><time>2026-04-26T07:11:06.478Z</time></trkpt><trkpt lat="44.5149196" lon="10.8200459"><ele>230.40000000000003</ele><time>2026-04-26T07:11:07.478Z</time></trkpt><trkpt lat="44.5148436" lon="10.8199786"><ele>232.6</ele><time>2026-04-26T07:11:08.478Z</time></trkpt><trkpt lat="44.5147751" lon="10.8198882"><ele>234.8</ele><time>2026-04-26T07:11:09.478Z</time></trkpt><trkpt lat="44.5147164" lon="10.8197791"><ele>237.0</ele><time>2026-04-26T07:11:10.478Z</time></trkpt><trkpt lat="44.5146639" lon="10.8196685"><ele>237.0</ele><time>2026-04-26T07:11:11.478Z</time></trkpt><trkpt lat="44.51461" lon="10.8195599"><ele>237.0</ele><time>2026-04-26T07:11:12.478Z</time></trkpt><trkpt lat="44.5145539" lon="10.819458"><ele>237.0</ele><time>2026-04-26T07:11:13.478Z</time></trkpt><trkpt lat="44.514497" lon="10.8193449"><ele>237.0</ele><time>2026-04-26T07:11:14.478Z</time></trkpt><trkpt lat="44.514421" lon="10.8192338"><ele>237.0</ele><time>2026-04-26T07:11:15.478Z</time></trkpt><trkpt lat="44.5143407" lon="10.8191326"><ele>237.66666666666666</ele><time>2026-04-26T07:11:16.478Z</time></trkpt><trkpt lat="44.5142642" lon="10.8190421"><ele>238.33333333333331</ele><time>2026-04-26T07:11:17.478Z</time></trkpt><trkpt lat="44.5141893" lon="10.8189662"><ele>239.0</ele><time>2026-04-26T07:11:18.478Z</time></trkpt><trkpt lat="44.5141219" lon="10.8188986"><ele>239.66666666666666</ele><time>2026-04-26T07:11:19.478Z</time></trkpt><trkpt lat="44.5140538" lon="10.8188385"><ele>240.33333333333331</ele><time>2026-04-26T07:11:20.478Z</time></trkpt><trkpt lat="44.5139761" lon="10.8187944"><ele>241.0</ele><time>2026-04-26T07:11:21.478Z</time></trkpt><trkpt lat="44.5138955" lon="10.8187625"><ele>241.0</ele><time>2026-04-26T07:11:22.478Z</time></trkpt><trkpt lat="44.5138101" lon="10.8187411"><ele>241.00000000000003</ele><time>2026-04-26T07:11:23.478Z</time></trkpt><trkpt lat="44.513716" lon="10.8187182"><ele>241.00000000000003</ele><time>2026-04-26T07:11:24.478Z</time></trkpt><trkpt lat="44.5136173" lon="10.8187002"><ele>241.0</ele><time>2026-04-26T07:11:25.478Z</time></trkpt><trkpt lat="44.5135142" lon="10.8186877"><ele>241.0</ele><time>2026-04-26T07:11:26.478Z</time></trkpt><trkpt lat="44.5134081" lon="10.8186776"><ele>241.0</ele><time>2026-04-26T07:11:27.478Z</time></trkpt><trkpt lat="44.5133076" lon="10.8186823"><ele>241.00000000000003</ele><time>2026-04-26T07:11:28.478Z</time></trkpt><trkpt lat="44.5132038" lon="10.8186974"><ele>241.00000000000003</ele><time>2026-04-26T07:11:29.478Z</time></trkpt><trkpt lat="44.5130998" lon="10.8187127"><ele>241.0</ele><time>2026-04-26T07:11:30.478Z</time></trkpt><trkpt lat="44.5129853" lon="10.8187185"><ele>241.0</ele><time>2026-04-26T07:11:31.478Z</time></trkpt><trkpt lat="44.5128672" lon="10.8187192"><ele>243.4</ele><time>2026-04-26T07:11:32.478Z</time></trkpt><trkpt lat="44.5127509" lon="10.8187132"><ele>245.8</ele><time>2026-04-26T07:11:33.478Z</time></trkpt><trkpt lat="44.5126405" lon="10.8187122"><ele>248.20000000000002</ele><time>2026-04-26T07:11:34.478Z</time></trkpt><trkpt lat="44.512536" lon="10.8187422"><ele>250.60000000000002</ele><time>2026-04-26T07:11:35.478Z</time></trkpt><trkpt lat="44.5124363" lon="10.8188014"><ele>253.0</ele><time>2026-04-26T07:11:36.478Z</time></trkpt><trkpt lat="44.5123401" lon="10.8188754"><ele>253.0</ele><time>2026-04-26T07:11:37.478Z</time></trkpt><trkpt lat="44.512248" lon="10.8189548"><ele>253.0</ele><time>2026-04-26T07:11:38.478Z</time></trkpt><trkpt lat="44.5121582" lon="10.8190354"><ele>253.0</ele><time>2026-04-26T07:11:39.478Z</time></trkpt><trkpt lat="44.5120667" lon="10.8191264"><ele>253.0</ele><time>2026-04-26T07:11:40.478Z</time></trkpt><trkpt lat="44.5119783" lon="10.8192203"><ele>253.0</ele><time>2026-04-26T07:11:41.478Z</time></trkpt><trkpt lat="44.5118906" lon="10.8193151"><ele>255.2</ele><time>2026-04-26T07:11:42.478Z</time></trkpt><trkpt lat="44.5118115" lon="10.8194109"><ele>257.4</ele><time>2026-04-26T07:11:43.478Z</time></trkpt><trkpt lat="44.5117343" lon="10.8195107"><ele>259.59999999999997</ele><time>2026-04-26T07:11:44.478Z</time></trkpt><trkpt lat="44.5116569" lon="10.819615"><ele>261.8</ele><time>2026-04-26T07:11:45.478Z</time></trkpt><trkpt lat="44.5115792" lon="10.8197229"><ele>264.0</ele><time>2026-04-26T07:11:46.478Z</time></trkpt><trkpt lat="44.5115047" lon="10.8198343"><ele>264.0</ele><time>2026-04-26T07:11:47.478Z</time></trkpt><trkpt lat="44.5114358" lon="10.8199395"><ele>264.0</ele><time>2026-04-26T07:11:48.478Z</time></trkpt><trkpt lat="44.5113652" lon="10.8200493"><ele>264.0</ele><time>2026-04-26T07:11:49.478Z</time></trkpt><trkpt lat="44.5112956" lon="10.8201639"><ele>264.0</ele><time>2026-04-26T07:11:50.478Z</time></trkpt><trkpt lat="44.5112301" lon="10.8202646"><ele>264.0</ele><time>2026-04-26T07:11:51.478Z</time></trkpt><trkpt lat="44.511161" lon="10.8203461"><ele>265.0</ele><time>2026-04-26T07:11:52.478Z</time></trkpt><trkpt lat="44.5110758" lon="10.8204173"><ele>266.0</ele><time>2026-04-26T07:11:53.478Z</time></trkpt><trkpt lat="44.5109706" lon="10.8204812"><ele>267.0</ele><time>2026-04-26T07:11:54.478Z</time></trkpt><trkpt lat="44.510854" lon="10.8205402"><ele>268.0</ele><time>2026-04-26T07:11:55.478Z</time></trkpt><trkpt lat="44.5107332" lon="10.8205931"><ele>268.0</ele><time>2026-04-26T07:11:56.478Z</time></trkpt><trkpt lat="44.5106154" lon="10.8206576"><ele>268.0</ele><time>2026-04-26T07:11:57.478Z</time></trkpt><trkpt lat="44.510499" lon="10.8207259"><ele>268.0</ele><time>2026-04-26T07:11:58.479Z</time></trkpt><trkpt lat="44.5103838" lon="10.820795"><ele>268.0</ele><time>2026-04-26T07:11:59.478Z</time></trkpt><trkpt lat="44.5102732" lon="10.8208553"><ele>270.2</ele><time>2026-04-26T07:12:00.478Z</time></trkpt><trkpt lat="44.510167" lon="10.8209036"><ele>272.4</ele><time>2026-04-26T07:12:01.478Z</time></trkpt><trkpt lat="44.5100703" lon="10.8209288"><ele>274.59999999999997</ele><time>2026-04-26T07:12:02.478Z</time></trkpt><trkpt lat="44.5099789" lon="10.820928"><ele>276.8</ele><time>2026-04-26T07:12:03.478Z</time></trkpt><trkpt lat="44.5098923" lon="10.8208964"><ele>279.0</ele><time>2026-04-26T07:12:04.478Z</time></trkpt><trkpt lat="44.5098035" lon="10.8208312"><ele>279.0</ele><time>2026-04-26T07:12:05.478Z</time></trkpt><trkpt lat="44.5097097" lon="10.8207405"><ele>279.0</ele><time>2026-04-26T07:12:06.478Z</time></trkpt><trkpt lat="44.5096113" lon="10.820643"><ele>279.0</ele><time>2026-04-26T07:12:07.478Z</time></trkpt><trkpt lat="44.5095078" lon="10.8205435"><ele>279.0</ele><time>2026-04-26T07:12:08.478Z</time></trkpt><trkpt lat="44.5094012" lon="10.820447"><ele>279.59999999999997</ele><time>2026-04-26T07:12:09.478Z</time></trkpt><trkpt lat="44.5092991" lon="10.8203489"><ele>280.2</ele><time>2026-04-26T07:12:10.478Z</time></trkpt><trkpt lat="44.509206" lon="10.8202555"><ele>280.79999999999995</ele><time>2026-04-26T07:12:11.478Z</time></trkpt><trkpt lat="44.5091283" lon="10.8201622"><ele>281.4</ele><time>2026-04-26T07:12:12.478Z</time></trkpt><trkpt lat="44.5090679" lon="10.8200655"><ele>282.0</ele><time>2026-04-26T07:12:13.478Z</time></trkpt><trkpt lat="44.5090179" lon="10.8199589"><ele>282.0</ele><time>2026-04-26T07:12:14.478Z</time></trkpt><trkpt lat="44.5089751" lon="10.8198509"><ele>282.0</ele><time>2026-04-26T07:12:15.478Z</time></trkpt><trkpt lat="44.5089364" lon="10.8197404"><ele>282.0</ele><time>2026-04-26T07:12:16.478Z</time></trkpt><trkpt lat="44.5089005" lon="10.8196275"><ele>282.0</ele><time>2026-04-26T07:12:17.478Z</time></trkpt><trkpt lat="44.5088746" lon="10.8195104"><ele>282.0</ele><time>2026-04-26T07:12:18.478Z</time></trkpt><trkpt lat="44.50887" lon="10.8193828"><ele>282.0</ele><time>2026-04-26T07:12:19.478Z</time></trkpt><trkpt lat="44.5088876" lon="10.8192628"><ele>283.4</ele><time>2026-04-26T07:12:20.478Z</time></trkpt><trkpt lat="44.5089212" lon="10.8191453"><ele>284.79999999999995</ele><time>2026-04-26T07:12:21.478Z</time></trkpt><trkpt lat="44.5089754" lon="10.81903"><ele>286.2</ele><time>2026-04-26T07:12:22.478Z</time></trkpt><trkpt lat="44.5090424" lon="10.8189216"><ele>287.59999999999997</ele><time>2026-04-26T07:12:23.478Z</time></trkpt><trkpt lat="44.5091172" lon="10.8188094"><ele>289.0</ele><time>2026-04-26T07:12:24.478Z</time></trkpt><trkpt lat="44.509186" lon="10.8186921"><ele>289.0</ele><time>2026-04-26T07:12:25.478Z</time></trkpt><trkpt lat="44.509247" lon="10.8185608"><ele>289.0</ele><time>2026-04-26T07:12:26.478Z</time></trkpt><trkpt lat="44.5092966" lon="10.8184157"><ele>289.0</ele><time>2026-04-26T07:12:27.478Z</time></trkpt><trkpt lat="44.509338" lon="10.8182562"><ele>289.0</ele><time>2026-04-26T07:12:28.478Z</time></trkpt><trkpt lat="44.5093812" lon="10.8180853"><ele>288.25</ele><time>2026-04-26T07:12:29.478Z</time></trkpt><trkpt lat="44.5094251" lon="10.817913"><ele>287.5</ele><time>2026-04-26T07:12:30.478Z</time></trkpt><trkpt lat="44.5094742" lon="10.817745"><ele>286.75</ele><time>2026-04-26T07:12:31.478Z</time></trkpt><trkpt lat="44.5095159" lon="10.8175767"><ele>286.0</ele><time>2026-04-26T07:12:32.478Z</time></trkpt><trkpt lat="44.5095379" lon="10.8174071"><ele>284.25</ele><time>2026-04-26T07:12:33.478Z</time></trkpt><trkpt lat="44.5095212" lon="10.8172379"><ele>282.5</ele><time>2026-04-26T07:12:34.478Z</time></trkpt><trkpt lat="44.5094661" lon="10.8170653"><ele>280.75</ele><time>2026-04-26T07:12:35.478Z</time></trkpt><trkpt lat="44.5093864" lon="10.8168883"><ele>279.0</ele><time>2026-04-26T07:12:36.478Z</time></trkpt><trkpt lat="44.5092991" lon="10.8167163"><ele>279.0</ele><time>2026-04-26T07:12:37.478Z</time></trkpt><trkpt lat="44.5092053" lon="10.8165452"><ele>279.0</ele><time>2026-04-26T07:12:38.478Z</time></trkpt><trkpt lat="44.509107" lon="10.8163778"><ele>279.0</ele><time>2026-04-26T07:12:39.478Z</time></trkpt><trkpt lat="44.5090061" lon="10.8162229"><ele>279.0</ele><time>2026-04-26T07:12:40.478Z</time></trkpt><trkpt lat="44.508906" lon="10.8160605"><ele>279.0</ele><time>2026-04-26T07:12:41.478Z</time></trkpt><trkpt lat="44.5088084" lon="10.8158989"><ele>279.0</ele><time>2026-04-26T07:12:42.478Z</time></trkpt><trkpt lat="44.5087157" lon="10.8157528"><ele>279.0</ele><time>2026-04-26T07:12:43.478Z</time></trkpt><trkpt lat="44.5086252" lon="10.8156299"><ele>278.25</ele><time>2026-04-26T07:12:44.478Z</time></trkpt><trkpt lat="44.5085201" lon="10.8155335"><ele>277.5</ele><time>2026-04-26T07:12:45.478Z</time></trkpt><trkpt lat="44.5084017" lon="10.8154555"><ele>276.75</ele><time>2026-04-26T07:12:46.478Z</time></trkpt><trkpt lat="44.5082773" lon="10.8153837"><ele>276.0</ele><time>2026-04-26T07:12:47.478Z</time></trkpt><trkpt lat="44.5081548" lon="10.8153052"><ele>276.0</ele><time>2026-04-26T07:12:48.478Z</time></trkpt><trkpt lat="44.5080367" lon="10.8152226"><ele>276.0</ele><time>2026-04-26T07:12:49.478Z</time></trkpt><trkpt lat="44.5079238" lon="10.8151271"><ele>276.0</ele><time>2026-04-26T07:12:50.478Z</time></trkpt><trkpt lat="44.507821" lon="10.8150215"><ele>276.0</ele><time>2026-04-26T07:12:51.478Z</time></trkpt><trkpt lat="44.5077316" lon="10.8149009"><ele>278.5</ele><time>2026-04-26T07:12:52.478Z</time></trkpt><trkpt lat="44.5076478" lon="10.8147779"><ele>281.0</ele><time>2026-04-26T07:12:53.478Z</time></trkpt><trkpt lat="44.5075655" lon="10.8146564"><ele>283.5</ele><time>2026-04-26T07:12:54.478Z</time></trkpt><trkpt lat="44.507484" lon="10.8145287"><ele>286.0</ele><time>2026-04-26T07:12:55.478Z</time></trkpt><trkpt lat="44.5073978" lon="10.8143965"><ele>285.75</ele><time>2026-04-26T07:12:56.478Z</time></trkpt><trkpt lat="44.5073144" lon="10.8142541"><ele>285.5</ele><time>2026-04-26T07:12:57.478Z</time></trkpt><trkpt lat="44.507235" lon="10.8141072"><ele>285.25</ele><time>2026-04-26T07:12:58.478Z</time></trkpt><trkpt lat="44.5071601" lon="10.8139611"><ele>285.0</ele><time>2026-04-26T07:12:59.478Z</time></trkpt><trkpt lat="44.5070898" lon="10.8138167"><ele>288.25</ele><time>2026-04-26T07:13:00.478Z</time></trkpt><trkpt lat="44.5070196" lon="10.8136681"><ele>291.5</ele><time>2026-04-26T07:13:01.478Z</time></trkpt><trkpt lat="44.5069461" lon="10.813533"><ele>294.75</ele><time>2026-04-26T07:13:02.478Z</time></trkpt><trkpt lat="44.5068634" lon="10.813418"><ele>298.0</ele><time>2026-04-26T07:13:03.478Z</time></trkpt><trkpt lat="44.5067657" lon="10.8133046"><ele>298.0</ele><time>2026-04-26T07:13:04.478Z</time></trkpt><trkpt lat="44.5066569" lon="10.8131997"><ele>298.0</ele><time>2026-04-26T07:13:05.479Z</time></trkpt><trkpt lat="44.5065574" lon="10.8131039"><ele>298.0</ele><time>2026-04-26T07:13:06.478Z</time></trkpt><trkpt lat="44.5064593" lon="10.813011"><ele>298.0</ele><time>2026-04-26T07:13:07.478Z</time></trkpt><trkpt lat="44.5063588" lon="10.8129233"><ele>298.0</ele><time>2026-04-26T07:13:08.478Z</time></trkpt><trkpt lat="44.5062622" lon="10.8128435"><ele>298.0</ele><time>2026-04-26T07:13:09.478Z</time></trkpt><trkpt lat="44.5061689" lon="10.8127699"><ele>298.0</ele><time>2026-04-26T07:13:10.478Z</time></trkpt><trkpt lat="44.5060829" lon="10.8126957"><ele>298.0</ele><time>2026-04-26T07:13:11.478Z</time></trkpt><trkpt lat="44.5060064" lon="10.8126261"><ele>298.0</ele><time>2026-04-26T07:13:12.478Z</time></trkpt><trkpt lat="44.5059324" lon="10.8125525"><ele>298.66666666666663</ele><time>2026-04-26T07:13:13.478Z</time></trkpt><trkpt lat="44.5058581" lon="10.8124746"><ele>299.3333333333333</ele><time>2026-04-26T07:13:14.478Z</time></trkpt><trkpt lat="44.5057984" lon="10.8123936"><ele>300.0</ele><time>2026-04-26T07:13:15.478Z</time></trkpt><trkpt lat="44.5057467" lon="10.8123114"><ele>300.6666666666667</ele><time>2026-04-26T07:13:16.478Z</time></trkpt><trkpt lat="44.5057054" lon="10.8122327"><ele>301.33333333333337</ele><time>2026-04-26T07:13:17.478Z</time></trkpt><trkpt lat="44.5056603" lon="10.812166"><ele>302.0</ele><time>2026-04-26T07:13:18.478Z</time></trkpt><trkpt lat="44.5055765" lon="10.8120569"><ele>302.0</ele><time>2026-04-26T07:13:20.478Z</time></trkpt><trkpt lat="44.505481" lon="10.8119517"><ele>302.0</ele><time>2026-04-26T07:13:22.478Z</time></trkpt><trkpt lat="44.5054262" lon="10.8119081"><ele>302.0</ele><time>2026-04-26T07:13:23.478Z</time></trkpt><trkpt lat="44.5053704" lon="10.8118592"><ele>302.0</ele><time>2026-04-26T07:13:24.478Z</time></trkpt><trkpt lat="44.5053111" lon="10.8118166"><ele>302.0</ele><time>2026-04-26T07:13:25.478Z</time></trkpt><trkpt lat="44.5052504" lon="10.8117726"><ele>302.0</ele><time>2026-04-26T07:13:26.478Z</time></trkpt><trkpt lat="44.5051692" lon="10.8116924"><ele>303.1666666666667</ele><time>2026-04-26T07:13:28.478Z</time></trkpt><trkpt lat="44.5050986" lon="10.8116322"><ele>304.33333333333337</ele><time>2026-04-26T07:13:31.478Z</time></trkpt><trkpt lat="44.5050411" lon="10.8115836"><ele>305.5</ele><time>2026-04-26T07:13:33.478Z</time></trkpt><trkpt lat="44.5049695" lon="10.8114822"><ele>306.6666666666667</ele><time>2026-04-26T07:13:35.478Z</time></trkpt><trkpt lat="44.50491" lon="10.8113412"><ele>307.8333333333333</ele><time>2026-04-26T07:13:37.478Z</time></trkpt><trkpt lat="44.5048758" lon="10.8112602"><ele>309.0</ele><time>2026-04-26T07:13:38.478Z</time></trkpt><trkpt lat="44.5048376" lon="10.8111625"><ele>309.0</ele><time>2026-04-26T07:13:39.478Z</time></trkpt><trkpt lat="44.5047961" lon="10.8110621"><ele>309.0</ele><time>2026-04-26T07:13:40.478Z</time></trkpt><trkpt lat="44.5047522" lon="10.8109575"><ele>309.0</ele><time>2026-04-26T07:13:41.478Z</time></trkpt><trkpt lat="44.5047028" lon="10.8108343"><ele>309.0</ele><time>2026-04-26T07:13:42.478Z</time></trkpt><trkpt lat="44.5046523" lon="10.8107218"><ele>309.0</ele><time>2026-04-26T07:13:43.478Z</time></trkpt><trkpt lat="44.5046045" lon="10.8106132"><ele>309.3333333333333</ele><time>2026-04-26T07:13:44.478Z</time></trkpt><trkpt lat="44.5045553" lon="10.8105158"><ele>309.6666666666667</ele><time>2026-04-26T07:13:45.478Z</time></trkpt><trkpt lat="44.5045073" lon="10.810432"><ele>310.0</ele><time>2026-04-26T07:13:46.478Z</time></trkpt><trkpt lat="44.5044736" lon="10.8103544"><ele>310.33333333333337</ele><time>2026-04-26T07:13:47.478Z</time></trkpt><trkpt lat="44.5044217" lon="10.8101953"><ele>310.6666666666667</ele><time>2026-04-26T07:13:49.478Z</time></trkpt><trkpt lat="44.5044136" lon="10.8100998"><ele>311.0</ele><time>2026-04-26T07:13:50.478Z</time></trkpt><trkpt lat="44.5044188" lon="10.8099843"><ele>311.0</ele><time>2026-04-26T07:13:51.478Z</time></trkpt><trkpt lat="44.5044251" lon="10.8098445"><ele>311.0</ele><time>2026-04-26T07:13:52.478Z</time></trkpt><trkpt lat="44.5044281" lon="10.8096848"><ele>311.0</ele><time>2026-04-26T07:13:53.478Z</time></trkpt><trkpt lat="44.5044262" lon="10.80952"><ele>311.0</ele><time>2026-04-26T07:13:54.478Z</time></trkpt><trkpt lat="44.5044082" lon="10.8093413"><ele>313.25</ele><time>2026-04-26T07:13:55.478Z</time></trkpt><trkpt lat="44.5043747" lon="10.8091416"><ele>315.5</ele><time>2026-04-26T07:13:56.478Z</time></trkpt><trkpt lat="44.5043305" lon="10.8089409"><ele>317.75</ele><time>2026-04-26T07:13:57.478Z</time></trkpt><trkpt lat="44.5042921" lon="10.8087738"><ele>320.0</ele><time>2026-04-26T07:13:58.478Z</time></trkpt><trkpt lat="44.5042555" lon="10.8086634"><ele>320.0</ele><time>2026-04-26T07:13:59.478Z</time></trkpt><trkpt lat="44.5042113" lon="10.8085603"><ele>320.0</ele><time>2026-04-26T07:14:01.479Z</time></trkpt><trkpt lat="44.504168" lon="10.8084905"><ele>320.0</ele><time>2026-04-26T07:14:07.478Z</time></trkpt><trkpt lat="44.5041143" lon="10.8083441"><ele>320.0</ele><time>2026-04-26T07:14:10.478Z</time></trkpt><trkpt lat="44.5040914" lon="10.8081855"><ele>320.0</ele><time>2026-04-26T07:14:12.478Z</time></trkpt><trkpt lat="44.504069" lon="10.8080535"><ele>320.6666666666667</ele><time>2026-04-26T07:14:14.478Z</time></trkpt><trkpt lat="44.5040024" lon="10.8079678"><ele>321.33333333333337</ele><time>2026-04-26T07:14:16.478Z</time></trkpt><trkpt lat="44.503945" lon="10.80793"><ele>322.0</ele><time>2026-04-26T07:14:17.478Z</time></trkpt><trkpt lat="44.5038833" lon="10.8078867"><ele>322.6666666666667</ele><time>2026-04-26T07:14:18.478Z</time></trkpt><trkpt lat="44.503815" lon="10.8078517"><ele>323.3333333333333</ele><time>2026-04-26T07:14:19.478Z</time></trkpt><trkpt lat="44.5037367" lon="10.80782"><ele>324.0</ele><time>2026-04-26T07:14:20.478Z</time></trkpt><trkpt lat="44.5036417" lon="10.807785"><ele>325.2</ele><time>2026-04-26T07:14:21.478Z</time></trkpt><trkpt lat="44.50354" lon="10.8077417"><ele>326.4</ele><time>2026-04-26T07:14:22.478Z</time></trkpt><trkpt lat="44.503445" lon="10.8076917"><ele>327.6</ele><time>2026-04-26T07:14:23.478Z</time></trkpt><trkpt lat="44.5033533" lon="10.8076283"><ele>328.8</ele><time>2026-04-26T07:14:24.479Z</time></trkpt><trkpt lat="44.5032633" lon="10.8075467"><ele>330.0</ele><time>2026-04-26T07:14:25.478Z</time></trkpt><trkpt lat="44.50316" lon="10.8074517"><ele>330.6</ele><time>2026-04-26T07:14:26.479Z</time></trkpt><trkpt lat="44.5030567" lon="10.8073533"><ele>331.2</ele><time>2026-04-26T07:14:27.478Z</time></trkpt><trkpt lat="44.50297" lon="10.8072717"><ele>331.79999999999995</ele><time>2026-04-26T07:14:28.478Z</time></trkpt><trkpt lat="44.5028967" lon="10.8071867"><ele>332.4</ele><time>2026-04-26T07:14:29.478Z</time></trkpt><trkpt lat="44.5028233" lon="10.807105"><ele>333.0</ele><time>2026-04-26T07:14:30.478Z</time></trkpt><trkpt lat="44.5027567" lon="10.8070367"><ele>333.0</ele><time>2026-04-26T07:14:31.478Z</time></trkpt><trkpt lat="44.5026983" lon="10.8069617"><ele>333.0</ele><time>2026-04-26T07:14:32.478Z</time></trkpt><trkpt lat="44.5026483" lon="10.8068767"><ele>333.0</ele><time>2026-04-26T07:14:33.478Z</time></trkpt><trkpt lat="44.5026033" lon="10.8067783"><ele>333.0</ele><time>2026-04-26T07:14:34.478Z</time></trkpt><trkpt lat="44.502565" lon="10.806685"><ele>333.0</ele><time>2026-04-26T07:14:35.479Z</time></trkpt><trkpt lat="44.5025317" lon="10.8065867"><ele>333.0</ele><time>2026-04-26T07:14:36.479Z</time></trkpt><trkpt lat="44.502505" lon="10.8064767"><ele>335.59999999999997</ele><time>2026-04-26T07:14:37.479Z</time></trkpt><trkpt lat="44.5024767" lon="10.80636"><ele>338.2</ele><time>2026-04-26T07:14:38.478Z</time></trkpt><trkpt lat="44.5024517" lon="10.8062317"><ele>340.8</ele><time>2026-04-26T07:14:39.479Z</time></trkpt><trkpt lat="44.5024267" lon="10.8060883"><ele>343.4</ele><time>2026-04-26T07:14:40.478Z</time></trkpt><trkpt lat="44.502405" lon="10.80594"><ele>346.0</ele><time>2026-04-26T07:14:41.478Z</time></trkpt><trkpt lat="44.5023833" lon="10.8057917"><ele>346.0</ele><time>2026-04-26T07:14:42.478Z</time></trkpt><trkpt lat="44.5023517" lon="10.8056583"><ele>346.0</ele><time>2026-04-26T07:14:43.478Z</time></trkpt><trkpt lat="44.5023033" lon="10.8055267"><ele>346.0</ele><time>2026-04-26T07:14:44.478Z</time></trkpt><trkpt lat="44.5022517" lon="10.80539"><ele>346.0</ele><time>2026-04-26T07:14:45.478Z</time></trkpt><trkpt lat="44.50219" lon="10.8052517"><ele>346.0</ele><time>2026-04-26T07:14:46.478Z</time></trkpt><trkpt lat="44.5021267" lon="10.8051233"><ele>344.20000000000005</ele><time>2026-04-26T07:14:47.478Z</time></trkpt><trkpt lat="44.5020633" lon="10.8050033"><ele>342.40000000000003</ele><time>2026-04-26T07:14:48.478Z</time></trkpt><trkpt lat="44.5020067" lon="10.8048883"><ele>340.6</ele><time>2026-04-26T07:14:49.478Z</time></trkpt><trkpt lat="44.501955" lon="10.8047717"><ele>338.8</ele><time>2026-04-26T07:14:50.478Z</time></trkpt><trkpt lat="44.5019083" lon="10.8046633"><ele>337.0</ele><time>2026-04-26T07:14:51.478Z</time></trkpt><trkpt lat="44.5018667" lon="10.8045667"><ele>337.0</ele><time>2026-04-26T07:14:52.478Z</time></trkpt><trkpt lat="44.5018267" lon="10.8044933"><ele>337.0</ele><time>2026-04-26T07:14:53.478Z</time></trkpt><trkpt lat="44.5017817" lon="10.80441"><ele>337.0</ele><time>2026-04-26T07:14:55.478Z</time></trkpt><trkpt lat="44.501705" lon="10.80432"><ele>337.0</ele><time>2026-04-26T07:15:03.478Z</time></trkpt><trkpt lat="44.5016333" lon="10.8042367"><ele>337.0</ele><time>2026-04-26T07:15:05.478Z</time></trkpt><trkpt lat="44.5015433" lon="10.80416"><ele>337.0</ele><time>2026-04-26T07:15:07.478Z</time></trkpt><trkpt lat="44.50145" lon="10.8040983"><ele>336.6</ele><time>2026-04-26T07:15:09.478Z</time></trkpt><trkpt lat="44.5013467" lon="10.80403"><ele>336.20000000000005</ele><time>2026-04-26T07:15:11.478Z</time></trkpt><trkpt lat="44.5012383" lon="10.8039617"><ele>335.8</ele><time>2026-04-26T07:15:13.478Z</time></trkpt><trkpt lat="44.5011767" lon="10.8039217"><ele>335.4</ele><time>2026-04-26T07:15:14.478Z</time></trkpt><trkpt lat="44.5011133" lon="10.8038783"><ele>335.0</ele><time>2026-04-26T07:15:15.478Z</time></trkpt><trkpt lat="44.50104" lon="10.80384"><ele>332.2</ele><time>2026-04-26T07:15:16.478Z</time></trkpt><trkpt lat="44.5009617" lon="10.8037983"><ele>329.4</ele><time>2026-04-26T07:15:17.478Z</time></trkpt><trkpt lat="44.50088" lon="10.8037467"><ele>326.6</ele><time>2026-04-26T07:15:18.478Z</time></trkpt><trkpt lat="44.5007933" lon="10.8036917"><ele>323.8</ele><time>2026-04-26T07:15:19.478Z</time></trkpt><trkpt lat="44.5007067" lon="10.8036317"><ele>321.0</ele><time>2026-04-26T07:15:20.478Z</time></trkpt><trkpt lat="44.5006133" lon="10.8035683"><ele>321.0</ele><time>2026-04-26T07:15:21.478Z</time></trkpt><trkpt lat="44.5005267" lon="10.8035033"><ele>321.0</ele><time>2026-04-26T07:15:22.478Z</time></trkpt><trkpt lat="44.50044" lon="10.8034367"><ele>321.0</ele><time>2026-04-26T07:15:23.478Z</time></trkpt><trkpt lat="44.500355" lon="10.8033733"><ele>321.0</ele><time>2026-04-26T07:15:24.478Z</time></trkpt><trkpt lat="44.50027" lon="10.8033083"><ele>321.0</ele><time>2026-04-26T07:15:25.478Z</time></trkpt><trkpt lat="44.50019" lon="10.803245"><ele>316.6</ele><time>2026-04-26T07:15:26.478Z</time></trkpt><trkpt lat="44.5001083" lon="10.8031783"><ele>312.20000000000005</ele><time>2026-04-26T07:15:27.478Z</time></trkpt><trkpt lat="44.5000183" lon="10.803115"><ele>307.79999999999995</ele><time>2026-04-26T07:15:28.478Z</time></trkpt><trkpt lat="44.4999283" lon="10.8030583"><ele>303.4</ele><time>2026-04-26T07:15:29.478Z</time></trkpt><trkpt lat="44.4998517" lon="10.8029883"><ele>299.0</ele><time>2026-04-26T07:15:30.478Z</time></trkpt><trkpt lat="44.4997717" lon="10.8029033"><ele>299.0</ele><time>2026-04-26T07:15:31.479Z</time></trkpt><trkpt lat="44.4996767" lon="10.8028083"><ele>299.0</ele><time>2026-04-26T07:15:32.478Z</time></trkpt><trkpt lat="44.4995833" lon="10.80272"><ele>299.0</ele><time>2026-04-26T07:15:33.478Z</time></trkpt><trkpt lat="44.4994867" lon="10.8026217"><ele>299.0</ele><time>2026-04-26T07:15:34.478Z</time></trkpt><trkpt lat="44.4993983" lon="10.8025067"><ele>298.1666666666667</ele><time>2026-04-26T07:15:35.478Z</time></trkpt><trkpt lat="44.499335" lon="10.8023833"><ele>297.33333333333337</ele><time>2026-04-26T07:15:36.479Z</time></trkpt><trkpt lat="44.499285" lon="10.8022717"><ele>296.5</ele><time>2026-04-26T07:15:37.478Z</time></trkpt><trkpt lat="44.4992333" lon="10.8021783"><ele>295.6666666666667</ele><time>2026-04-26T07:15:38.478Z</time></trkpt><trkpt lat="44.4991717" lon="10.8021117"><ele>294.8333333333333</ele><time>2026-04-26T07:15:39.478Z</time></trkpt><trkpt lat="44.499105" lon="10.8020617"><ele>294.0</ele><time>2026-04-26T07:15:40.478Z</time></trkpt><trkpt lat="44.49903" lon="10.8020167"><ele>294.0</ele><time>2026-04-26T07:15:41.478Z</time></trkpt><trkpt lat="44.498945" lon="10.8019767"><ele>294.0</ele><time>2026-04-26T07:15:42.478Z</time></trkpt><trkpt lat="44.498865" lon="10.8019183"><ele>294.0</ele><time>2026-04-26T07:15:43.478Z</time></trkpt><trkpt lat="44.498785" lon="10.8018367"><ele>294.0</ele><time>2026-04-26T07:15:44.478Z</time></trkpt><trkpt lat="44.4987067" lon="10.80173"><ele>294.0</ele><time>2026-04-26T07:15:45.478Z</time></trkpt><trkpt lat="44.4986433" lon="10.801605"><ele>295.8</ele><time>2026-04-26T07:15:46.478Z</time></trkpt><trkpt lat="44.498605" lon="10.8014683"><ele>297.59999999999997</ele><time>2026-04-26T07:15:47.478Z</time></trkpt><trkpt lat="44.4985767" lon="10.801325"><ele>299.4</ele><time>2026-04-26T07:15:48.478Z</time></trkpt><trkpt lat="44.4985467" lon="10.8011883"><ele>301.2</ele><time>2026-04-26T07:15:49.478Z</time></trkpt><trkpt lat="44.4985067" lon="10.8010567"><ele>303.0</ele><time>2026-04-26T07:15:50.478Z</time></trkpt><trkpt lat="44.4984533" lon="10.80093"><ele>304.5</ele><time>2026-04-26T07:15:51.478Z</time></trkpt><trkpt lat="44.4983783" lon="10.8008233"><ele>306.0</ele><time>2026-04-26T07:15:52.478Z</time></trkpt><trkpt lat="44.49828" lon="10.800725"><ele>307.5</ele><time>2026-04-26T07:15:53.478Z</time></trkpt><trkpt lat="44.4981817" lon="10.8006283"><ele>309.0</ele><time>2026-04-26T07:15:54.478Z</time></trkpt><trkpt lat="44.498095" lon="10.8005233"><ele>309.0</ele><time>2026-04-26T07:15:55.478Z</time></trkpt><trkpt lat="44.49801" lon="10.8003733"><ele>309.0</ele><time>2026-04-26T07:15:56.478Z</time></trkpt><trkpt lat="44.497915" lon="10.8002"><ele>309.0</ele><time>2026-04-26T07:15:57.478Z</time></trkpt><trkpt lat="44.49782" lon="10.800045"><ele>309.0</ele><time>2026-04-26T07:15:58.478Z</time></trkpt><trkpt lat="44.49774" lon="10.7999233"><ele>309.8</ele><time>2026-04-26T07:15:59.478Z</time></trkpt><trkpt lat="44.4976733" lon="10.7998217"><ele>310.59999999999997</ele><time>2026-04-26T07:16:00.478Z</time></trkpt><trkpt lat="44.49762" lon="10.7997167"><ele>311.4</ele><time>2026-04-26T07:16:01.478Z</time></trkpt><trkpt lat="44.4975717" lon="10.7995967"><ele>312.2</ele><time>2026-04-26T07:16:02.478Z</time></trkpt><trkpt lat="44.4975167" lon="10.7994533"><ele>313.0</ele><time>2026-04-26T07:16:03.478Z</time></trkpt><trkpt lat="44.4974567" lon="10.7992783"><ele>313.75</ele><time>2026-04-26T07:16:04.478Z</time></trkpt><trkpt lat="44.4973933" lon="10.799105"><ele>314.5</ele><time>2026-04-26T07:16:05.478Z</time></trkpt><trkpt lat="44.49734" lon="10.7989583"><ele>315.25</ele><time>2026-04-26T07:16:06.478Z</time></trkpt><trkpt lat="44.4973083" lon="10.7988133"><ele>316.0</ele><time>2026-04-26T07:16:07.478Z</time></trkpt><trkpt lat="44.4973117" lon="10.7986833"><ele>316.0</ele><time>2026-04-26T07:16:08.478Z</time></trkpt><trkpt lat="44.4973383" lon="10.7985667"><ele>316.0</ele><time>2026-04-26T07:16:09.478Z</time></trkpt><trkpt lat="44.4973783" lon="10.798445"><ele>316.0</ele><time>2026-04-26T07:16:10.478Z</time></trkpt><trkpt lat="44.4974183" lon="10.798305"><ele>316.0</ele><time>2026-04-26T07:16:11.478Z</time></trkpt><trkpt lat="44.4974333" lon="10.79816"><ele>316.0</ele><time>2026-04-26T07:16:12.478Z</time></trkpt><trkpt lat="44.4974033" lon="10.7980117"><ele>318.0</ele><time>2026-04-26T07:16:13.478Z</time></trkpt><trkpt lat="44.497355" lon="10.7978717"><ele>320.0</ele><time>2026-04-26T07:16:14.478Z</time></trkpt><trkpt lat="44.4973333" lon="10.797745"><ele>322.0</ele><time>2026-04-26T07:16:15.478Z</time></trkpt><trkpt lat="44.49734" lon="10.79759"><ele>324.0</ele><time>2026-04-26T07:16:16.478Z</time></trkpt><trkpt lat="44.497375" lon="10.7974167"><ele>326.0</ele><time>2026-04-26T07:16:17.478Z</time></trkpt><trkpt lat="44.4974083" lon="10.79726"><ele>326.33333333333337</ele><time>2026-04-26T07:16:18.478Z</time></trkpt><trkpt lat="44.4974183" lon="10.7971467"><ele>326.6666666666667</ele><time>2026-04-26T07:16:19.478Z</time></trkpt><trkpt lat="44.4973983" lon="10.797035"><ele>327.0</ele><time>2026-04-26T07:16:21.478Z</time></trkpt><trkpt lat="44.49733" lon="10.7969717"><ele>327.3333333333333</ele><time>2026-04-26T07:16:26.478Z</time></trkpt><trkpt lat="44.4972567" lon="10.7968717"><ele>327.66666666666663</ele><time>2026-04-26T07:16:29.479Z</time></trkpt><trkpt lat="44.4971983" lon="10.7967617"><ele>328.0</ele><time>2026-04-26T07:16:31.478Z</time></trkpt><trkpt lat="44.497145" lon="10.79663"><ele>327.5</ele><time>2026-04-26T07:16:33.478Z</time></trkpt><trkpt lat="44.4970833" lon="10.7965"><ele>327.0</ele><time>2026-04-26T07:16:35.478Z</time></trkpt><trkpt lat="44.49702" lon="10.7963667"><ele>326.5</ele><time>2026-04-26T07:16:37.478Z</time></trkpt><trkpt lat="44.4969867" lon="10.7962917"><ele>326.0</ele><time>2026-04-26T07:16:38.478Z</time></trkpt><trkpt lat="44.4969567" lon="10.79621"><ele>325.5</ele><time>2026-04-26T07:16:39.478Z</time></trkpt><trkpt lat="44.4969233" lon="10.79612"><ele>325.0</ele><time>2026-04-26T07:16:40.478Z</time></trkpt><trkpt lat="44.4968867" lon="10.796025"><ele>325.8</ele><time>2026-04-26T07:16:41.478Z</time></trkpt><trkpt lat="44.4968483" lon="10.7959267"><ele>326.6</ele><time>2026-04-26T07:16:42.478Z</time></trkpt><trkpt lat="44.4968" lon="10.7958167"><ele>327.4</ele><time>2026-04-26T07:16:43.478Z</time></trkpt><trkpt lat="44.4967383" lon="10.7957083"><ele>328.2</ele><time>2026-04-26T07:16:44.477Z</time></trkpt><trkpt lat="44.4966667" lon="10.7955967"><ele>329.0</ele><time>2026-04-26T07:16:45.477Z</time></trkpt><trkpt lat="44.4965817" lon="10.7954817"><ele>329.0</ele><time>2026-04-26T07:16:46.477Z</time></trkpt><trkpt lat="44.496505" lon="10.7953783"><ele>329.0</ele><time>2026-04-26T07:16:47.477Z</time></trkpt><trkpt lat="44.4964333" lon="10.7952733"><ele>329.0</ele><time>2026-04-26T07:16:48.477Z</time></trkpt><trkpt lat="44.4963783" lon="10.7951517"><ele>329.0</ele><time>2026-04-26T07:16:49.477Z</time></trkpt><trkpt lat="44.496335" lon="10.7950067"><ele>329.0</ele><time>2026-04-26T07:16:50.478Z</time></trkpt><trkpt lat="44.4962833" lon="10.794855"><ele>330.0</ele><time>2026-04-26T07:16:51.477Z</time></trkpt><trkpt lat="44.496225" lon="10.7946933"><ele>331.0</ele><time>2026-04-26T07:16:52.477Z</time></trkpt><trkpt lat="44.4961733" lon="10.79455"><ele>332.0</ele><time>2026-04-26T07:16:53.477Z</time></trkpt><trkpt lat="44.49613" lon="10.7944267"><ele>333.0</ele><time>2026-04-26T07:16:54.477Z</time></trkpt><trkpt lat="44.496085" lon="10.7943467"><ele>334.0</ele><time>2026-04-26T07:16:55.477Z</time></trkpt><trkpt lat="44.4960367" lon="10.794285"><ele>336.6</ele><time>2026-04-26T07:16:56.478Z</time></trkpt><trkpt lat="44.495935" lon="10.794195"><ele>339.2</ele><time>2026-04-26T07:16:58.477Z</time></trkpt><trkpt lat="44.49581" lon="10.7941367"><ele>341.8</ele><time>2026-04-26T07:17:00.477Z</time></trkpt><trkpt lat="44.4957317" lon="10.794105"><ele>344.40000000000003</ele><time>2026-04-26T07:17:01.477Z</time></trkpt><trkpt lat="44.49565" lon="10.79408"><ele>347.0</ele><time>2026-04-26T07:17:02.477Z</time></trkpt><trkpt lat="44.495575" lon="10.7940467"><ele>347.0</ele><time>2026-04-26T07:17:03.477Z</time></trkpt><trkpt lat="44.495465" lon="10.7939967"><ele>347.0</ele><time>2026-04-26T07:17:05.477Z</time></trkpt><trkpt lat="44.4953633" lon="10.79392"><ele>347.0</ele><time>2026-04-26T07:17:07.477Z</time></trkpt><trkpt lat="44.495275" lon="10.79383"><ele>347.0</ele><time>2026-04-26T07:17:09.477Z</time></trkpt><trkpt lat="44.495185" lon="10.7937717"><ele>347.0</ele><time>2026-04-26T07:17:28.477Z</time></trkpt><trkpt lat="44.495085" lon="10.7937183"><ele>348.6666666666667</ele><time>2026-04-26T07:17:30.477Z</time></trkpt><trkpt lat="44.4949733" lon="10.7936333"><ele>350.33333333333337</ele><time>2026-04-26T07:17:32.477Z</time></trkpt><trkpt lat="44.4949233" lon="10.7935583"><ele>352.0</ele><time>2026-04-26T07:17:33.477Z</time></trkpt><trkpt lat="44.4948767" lon="10.7934633"><ele>353.6666666666667</ele><time>2026-04-26T07:17:34.477Z</time></trkpt><trkpt lat="44.494825" lon="10.7933717"><ele>355.3333333333333</ele><time>2026-04-26T07:17:35.477Z</time></trkpt><trkpt lat="44.4947717" lon="10.793285"><ele>357.0</ele><time>2026-04-26T07:17:36.477Z</time></trkpt><trkpt lat="44.494715" lon="10.7931967"><ele>357.5</ele><time>2026-04-26T07:17:37.477Z</time></trkpt><trkpt lat="44.4946583" lon="10.7931083"><ele>358.0</ele><time>2026-04-26T07:17:38.477Z</time></trkpt><trkpt lat="44.4946033" lon="10.79302"><ele>358.5</ele><time>2026-04-26T07:17:39.477Z</time></trkpt><trkpt lat="44.49455" lon="10.7929367"><ele>359.0</ele><time>2026-04-26T07:17:40.477Z</time></trkpt><trkpt lat="44.4945067" lon="10.7928483"><ele>359.5</ele><time>2026-04-26T07:17:41.477Z</time></trkpt><trkpt lat="44.4944683" lon="10.792755"><ele>360.0</ele><time>2026-04-26T07:17:42.477Z</time></trkpt><trkpt lat="44.4944383" lon="10.7926567"><ele>362.8</ele><time>2026-04-26T07:17:43.477Z</time></trkpt><trkpt lat="44.4944067" lon="10.79255"><ele>365.6</ele><time>2026-04-26T07:17:44.477Z</time></trkpt><trkpt lat="44.4943717" lon="10.7924283"><ele>368.4</ele><time>2026-04-26T07:17:45.477Z</time></trkpt><trkpt lat="44.49433" lon="10.7922917"><ele>371.2</ele><time>2026-04-26T07:17:46.477Z</time></trkpt><trkpt lat="44.4942867" lon="10.7921517"><ele>374.0</ele><time>2026-04-26T07:17:47.477Z</time></trkpt><trkpt lat="44.4942433" lon="10.7920333"><ele>374.0</ele><time>2026-04-26T07:17:48.477Z</time></trkpt><trkpt lat="44.4942067" lon="10.791925"><ele>374.0</ele><time>2026-04-26T07:17:49.477Z</time></trkpt><trkpt lat="44.494165" lon="10.791815"><ele>374.0</ele><time>2026-04-26T07:17:50.477Z</time></trkpt><trkpt lat="44.4941217" lon="10.7917083"><ele>374.0</ele><time>2026-04-26T07:17:51.477Z</time></trkpt><trkpt lat="44.4940883" lon="10.791625"><ele>374.0</ele><time>2026-04-26T07:17:52.477Z</time></trkpt><trkpt lat="44.4940417" lon="10.7915033"><ele>374.0</ele><time>2026-04-26T07:17:54.477Z</time></trkpt><trkpt lat="44.4939717" lon="10.791395"><ele>375.0</ele><time>2026-04-26T07:17:56.477Z</time></trkpt><trkpt lat="44.49392" lon="10.7913367"><ele>376.0</ele><time>2026-04-26T07:17:57.477Z</time></trkpt><trkpt lat="44.493865" lon="10.7912783"><ele>377.0</ele><time>2026-04-26T07:17:58.477Z</time></trkpt><trkpt lat="44.493805" lon="10.79122"><ele>378.0</ele><time>2026-04-26T07:17:59.477Z</time></trkpt><trkpt lat="44.493745" lon="10.791165"><ele>379.0</ele><time>2026-04-26T07:18:00.477Z</time></trkpt><trkpt lat="44.49368" lon="10.7911233"><ele>380.0</ele><time>2026-04-26T07:18:01.477Z</time></trkpt><trkpt lat="44.493565" lon="10.791095"><ele>380.0</ele><time>2026-04-26T07:18:03.477Z</time></trkpt><trkpt lat="44.49349" lon="10.79112"><ele>380.0</ele><time>2026-04-26T07:18:05.477Z</time></trkpt><trkpt lat="44.4934267" lon="10.7911467"><ele>380.0</ele><time>2026-04-26T07:18:07.477Z</time></trkpt><trkpt lat="44.493335" lon="10.7911733"><ele>380.0</ele><time>2026-04-26T07:18:20.478Z</time></trkpt><trkpt lat="44.4932417" lon="10.7911783"><ele>380.0</ele><time>2026-04-26T07:18:22.477Z</time></trkpt><trkpt lat="44.493175" lon="10.7911767"><ele>380.0</ele><time>2026-04-26T07:18:23.477Z</time></trkpt><trkpt lat="44.493095" lon="10.79116"><ele>380.0</ele><time>2026-04-26T07:18:24.477Z</time></trkpt><trkpt lat="44.4930067" lon="10.791135"><ele>380.0</ele><time>2026-04-26T07:18:25.477Z</time></trkpt><trkpt lat="44.492925" lon="10.79112"><ele>380.0</ele><time>2026-04-26T07:18:26.477Z</time></trkpt><trkpt lat="44.4928483" lon="10.79113"><ele>380.0</ele><time>2026-04-26T07:18:27.477Z</time></trkpt><trkpt lat="44.4927767" lon="10.7911733"><ele>380.0</ele><time>2026-04-26T07:18:28.477Z</time></trkpt><trkpt lat="44.4927167" lon="10.791245"><ele>380.0</ele><time>2026-04-26T07:18:29.477Z</time></trkpt><trkpt lat="44.4926667" lon="10.7913333"><ele>380.0</ele><time>2026-04-26T07:18:30.477Z</time></trkpt><trkpt lat="44.4926067" lon="10.791415"><ele>380.0</ele><time>2026-04-26T07:18:31.477Z</time></trkpt><trkpt lat="44.49253" lon="10.7914667"><ele>380.0</ele><time>2026-04-26T07:18:32.477Z</time></trkpt><trkpt lat="44.492445" lon="10.7914767"><ele>380.0</ele><time>2026-04-26T07:18:33.478Z</time></trkpt><trkpt lat="44.492355" lon="10.7914633"><ele>380.0</ele><time>2026-04-26T07:18:34.477Z</time></trkpt><trkpt lat="44.4922733" lon="10.7914717"><ele>380.0</ele><time>2026-04-26T07:18:35.477Z</time></trkpt><trkpt lat="44.4922083" lon="10.791525"><ele>380.0</ele><time>2026-04-26T07:18:36.477Z</time></trkpt><trkpt lat="44.4921483" lon="10.79162"><ele>380.0</ele><time>2026-04-26T07:18:37.477Z</time></trkpt><trkpt lat="44.492095" lon="10.7917533"><ele>380.0</ele><time>2026-04-26T07:18:38.477Z</time></trkpt><trkpt lat="44.492045" lon="10.7918967"><ele>380.0</ele><time>2026-04-26T07:18:39.477Z</time></trkpt><trkpt lat="44.4919917" lon="10.7920383"><ele>380.0</ele><time>2026-04-26T07:18:40.477Z</time></trkpt><trkpt lat="44.4919367" lon="10.7921733"><ele>378.8</ele><time>2026-04-26T07:18:41.477Z</time></trkpt><trkpt lat="44.4918767" lon="10.7923033"><ele>377.6</ele><time>2026-04-26T07:18:42.477Z</time></trkpt><trkpt lat="44.4918283" lon="10.7924283"><ele>376.4</ele><time>2026-04-26T07:18:43.477Z</time></trkpt><trkpt lat="44.49178" lon="10.7925517"><ele>375.2</ele><time>2026-04-26T07:18:44.477Z</time></trkpt><trkpt lat="44.4917267" lon="10.7926883"><ele>374.0</ele><time>2026-04-26T07:18:45.477Z</time></trkpt><trkpt lat="44.49168" lon="10.792825"><ele>371.5</ele><time>2026-04-26T07:18:46.477Z</time></trkpt><trkpt lat="44.491635" lon="10.7929717"><ele>369.0</ele><time>2026-04-26T07:18:47.477Z</time></trkpt><trkpt lat="44.491595" lon="10.79312"><ele>366.5</ele><time>2026-04-26T07:18:48.477Z</time></trkpt><trkpt lat="44.491565" lon="10.79327"><ele>364.0</ele><time>2026-04-26T07:18:49.477Z</time></trkpt><trkpt lat="44.4915417" lon="10.7934267"><ele>363.0</ele><time>2026-04-26T07:18:50.477Z</time></trkpt><trkpt lat="44.4915233" lon="10.7935817"><ele>362.0</ele><time>2026-04-26T07:18:51.477Z</time></trkpt><trkpt lat="44.4915067" lon="10.793725"><ele>361.0</ele><time>2026-04-26T07:18:52.477Z</time></trkpt><trkpt lat="44.4914917" lon="10.7938717"><ele>360.0</ele><time>2026-04-26T07:18:53.477Z</time></trkpt><trkpt lat="44.4914683" lon="10.7940167"><ele>359.0</ele><time>2026-04-26T07:18:54.477Z</time></trkpt><trkpt lat="44.4914433" lon="10.79416"><ele>359.0</ele><time>2026-04-26T07:18:55.477Z</time></trkpt><trkpt lat="44.4914183" lon="10.7942883"><ele>359.0</ele><time>2026-04-26T07:18:56.477Z</time></trkpt><trkpt lat="44.4913967" lon="10.7944083"><ele>359.0</ele><time>2026-04-26T07:18:57.477Z</time></trkpt><trkpt lat="44.4913783" lon="10.7945167"><ele>359.0</ele><time>2026-04-26T07:18:58.477Z</time></trkpt><trkpt lat="44.4913567" lon="10.7946233"><ele>359.0</ele><time>2026-04-26T07:18:59.477Z</time></trkpt><trkpt lat="44.4913433" lon="10.794715"><ele>359.0</ele><time>2026-04-26T07:19:00.477Z</time></trkpt><trkpt lat="44.4913133" lon="10.7948483"><ele>358.0</ele><time>2026-04-26T07:19:02.477Z</time></trkpt><trkpt lat="44.4912283" lon="10.7949083"><ele>357.0</ele><time>2026-04-26T07:19:05.477Z</time></trkpt><trkpt lat="44.49112" lon="10.79488"><ele>356.0</ele><time>2026-04-26T07:19:07.477Z</time></trkpt><trkpt lat="44.49103" lon="10.7948583"><ele>355.0</ele><time>2026-04-26T07:19:09.477Z</time></trkpt><trkpt lat="44.4909567" lon="10.794855"><ele>354.0</ele><time>2026-04-26T07:19:11.477Z</time></trkpt><trkpt lat="44.49086" lon="10.7948483"><ele>354.0</ele><time>2026-04-26T07:19:13.477Z</time></trkpt><trkpt lat="44.4907567" lon="10.7948317"><ele>354.0</ele><time>2026-04-26T07:19:15.477Z</time></trkpt><trkpt lat="44.49066" lon="10.7948167"><ele>354.0</ele><time>2026-04-26T07:19:17.478Z</time></trkpt><trkpt lat="44.4905633" lon="10.79481"><ele>354.0</ele><time>2026-04-26T07:19:19.477Z</time></trkpt><trkpt lat="44.49048" lon="10.79483"><ele>354.0</ele><time>2026-04-26T07:19:21.477Z</time></trkpt><trkpt lat="44.49038" lon="10.7948283"><ele>352.6</ele><time>2026-04-26T07:19:23.477Z</time></trkpt><trkpt lat="44.4902683" lon="10.7948267"><ele>351.2</ele><time>2026-04-26T07:19:25.477Z</time></trkpt><trkpt lat="44.490135" lon="10.7948283"><ele>349.8</ele><time>2026-04-26T07:19:27.477Z</time></trkpt><trkpt lat="44.4900383" lon="10.7947967"><ele>348.40000000000003</ele><time>2026-04-26T07:19:29.477Z</time></trkpt><trkpt lat="44.48995" lon="10.7947517"><ele>347.0</ele><time>2026-04-26T07:19:31.477Z</time></trkpt><trkpt lat="44.4898533" lon="10.794715"><ele>347.0</ele><time>2026-04-26T07:19:33.477Z</time></trkpt><trkpt lat="44.48977" lon="10.7946767"><ele>347.0</ele><time>2026-04-26T07:19:35.477Z</time></trkpt><trkpt lat="44.4896867" lon="10.794605"><ele>347.0</ele><time>2026-04-26T07:19:37.477Z</time></trkpt><trkpt lat="44.4896183" lon="10.7945617"><ele>347.0</ele><time>2026-04-26T07:19:39.477Z</time></trkpt><trkpt lat="44.4895533" lon="10.7945933"><ele>347.0</ele><time>2026-04-26T07:19:42.478Z</time></trkpt><trkpt lat="44.4894917" lon="10.7946233"><ele>347.0</ele><time>2026-04-26T07:19:44.477Z</time></trkpt><trkpt lat="44.4894067" lon="10.79465"><ele>346.40000000000003</ele><time>2026-04-26T07:19:46.477Z</time></trkpt><trkpt lat="44.489305" lon="10.7947283"><ele>345.8</ele><time>2026-04-26T07:19:48.477Z</time></trkpt><trkpt lat="44.4892367" lon="10.7947783"><ele>345.2</ele><time>2026-04-26T07:19:49.477Z</time></trkpt><trkpt lat="44.4891417" lon="10.79483"><ele>344.6</ele><time>2026-04-26T07:19:50.477Z</time></trkpt><trkpt lat="44.48905" lon="10.7948867"><ele>344.0</ele><time>2026-04-26T07:19:51.477Z</time></trkpt><trkpt lat="44.4889717" lon="10.794935"><ele>344.0</ele><time>2026-04-26T07:19:52.477Z</time></trkpt><trkpt lat="44.4889" lon="10.7949667"><ele>344.0</ele><time>2026-04-26T07:19:53.477Z</time></trkpt><trkpt lat="44.4888367" lon="10.794965"><ele>344.0</ele><time>2026-04-26T07:19:54.477Z</time></trkpt><trkpt lat="44.4887417" lon="10.7948483"><ele>344.0</ele><time>2026-04-26T07:19:56.477Z</time></trkpt><trkpt lat="44.4887" lon="10.7947183"><ele>344.0</ele><time>2026-04-26T07:19:57.477Z</time></trkpt><trkpt lat="44.4886417" lon="10.7946017"><ele>342.0</ele><time>2026-04-26T07:19:58.478Z</time></trkpt><trkpt lat="44.48858" lon="10.79451"><ele>340.0</ele><time>2026-04-26T07:19:59.477Z</time></trkpt><trkpt lat="44.4885267" lon="10.794445"><ele>338.0</ele><time>2026-04-26T07:20:00.477Z</time></trkpt><trkpt lat="44.4884967" lon="10.79431"><ele>336.0</ele><time>2026-04-26T07:20:02.477Z</time></trkpt><trkpt lat="44.488535" lon="10.7941433"><ele>334.0</ele><time>2026-04-26T07:20:04.477Z</time></trkpt><trkpt lat="44.4885717" lon="10.7940033"><ele>334.0</ele><time>2026-04-26T07:20:05.477Z</time></trkpt><trkpt lat="44.4886083" lon="10.7938383"><ele>334.0</ele><time>2026-04-26T07:20:06.477Z</time></trkpt><trkpt lat="44.48865" lon="10.79368"><ele>334.0</ele><time>2026-04-26T07:20:07.478Z</time></trkpt><trkpt lat="44.48869" lon="10.7935417"><ele>334.0</ele><time>2026-04-26T07:20:08.477Z</time></trkpt><trkpt lat="44.4887167" lon="10.7934167"><ele>334.0</ele><time>2026-04-26T07:20:09.477Z</time></trkpt><trkpt lat="44.488725" lon="10.7933033"><ele>334.6</ele><time>2026-04-26T07:20:10.477Z</time></trkpt><trkpt lat="44.4887067" lon="10.7931967"><ele>335.2</ele><time>2026-04-26T07:20:11.477Z</time></trkpt><trkpt lat="44.48866" lon="10.7930883"><ele>335.8</ele><time>2026-04-26T07:20:12.477Z</time></trkpt><trkpt lat="44.4886" lon="10.792975"><ele>336.40000000000003</ele><time>2026-04-26T07:20:13.477Z</time></trkpt><trkpt lat="44.48854" lon="10.79287"><ele>337.0</ele><time>2026-04-26T07:20:14.477Z</time></trkpt><trkpt lat="44.4884817" lon="10.7927667"><ele>336.66666666666663</ele><time>2026-04-26T07:20:15.477Z</time></trkpt><trkpt lat="44.48843" lon="10.7926717"><ele>336.3333333333333</ele><time>2026-04-26T07:20:16.477Z</time></trkpt><trkpt lat="44.4883867" lon="10.7925917"><ele>336.0</ele><time>2026-04-26T07:20:17.477Z</time></trkpt><trkpt lat="44.4883267" lon="10.7924733"><ele>335.6666666666667</ele><time>2026-04-26T07:20:19.477Z</time></trkpt><trkpt lat="44.4883283" lon="10.7923717"><ele>335.33333333333337</ele><time>2026-04-26T07:20:21.477Z</time></trkpt><trkpt lat="44.488395" lon="10.792305"><ele>335.0</ele><time>2026-04-26T07:20:23.477Z</time></trkpt><trkpt lat="44.4885033" lon="10.792215"><ele>335.0</ele><time>2026-04-26T07:20:25.477Z</time></trkpt><trkpt lat="44.488565" lon="10.7921433"><ele>335.0</ele><time>2026-04-26T07:20:26.477Z</time></trkpt><trkpt lat="44.48864" lon="10.7920667"><ele>335.0</ele><time>2026-04-26T07:20:27.477Z</time></trkpt><trkpt lat="44.488725" lon="10.7919933"><ele>335.0</ele><time>2026-04-26T07:20:28.477Z</time></trkpt><trkpt lat="44.488795" lon="10.7919217"><ele>335.0</ele><time>2026-04-26T07:20:29.477Z</time></trkpt><trkpt lat="44.4888517" lon="10.791865"><ele>335.0</ele><time>2026-04-26T07:20:30.477Z</time></trkpt><trkpt lat="44.4888983" lon="10.7917483"><ele>333.1666666666667</ele><time>2026-04-26T07:20:32.477Z</time></trkpt><trkpt lat="44.488855" lon="10.7916817"><ele>331.33333333333337</ele><time>2026-04-26T07:20:33.477Z</time></trkpt><trkpt lat="44.4887933" lon="10.7916067"><ele>329.5</ele><time>2026-04-26T07:20:34.477Z</time></trkpt><trkpt lat="44.48871" lon="10.7915167"><ele>327.6666666666667</ele><time>2026-04-26T07:20:35.477Z</time></trkpt><trkpt lat="44.488655" lon="10.7914283"><ele>325.8333333333333</ele><time>2026-04-26T07:20:36.477Z</time></trkpt><trkpt lat="44.48862" lon="10.7913383"><ele>324.0</ele><time>2026-04-26T07:20:37.477Z</time></trkpt><trkpt lat="44.4886067" lon="10.7912383"><ele>324.0</ele><time>2026-04-26T07:20:38.477Z</time></trkpt><trkpt lat="44.4886133" lon="10.7911317"><ele>324.0</ele><time>2026-04-26T07:20:39.477Z</time></trkpt><trkpt lat="44.4886283" lon="10.7910167"><ele>324.0</ele><time>2026-04-26T07:20:40.477Z</time></trkpt><trkpt lat="44.4886317" lon="10.790905"><ele>324.0</ele><time>2026-04-26T07:20:41.477Z</time></trkpt><trkpt lat="44.4886083" lon="10.7908183"><ele>324.0</ele><time>2026-04-26T07:20:42.478Z</time></trkpt><trkpt lat="44.488565" lon="10.7907533"><ele>324.0</ele><time>2026-04-26T07:20:43.477Z</time></trkpt><trkpt lat="44.48852" lon="10.79069"><ele>324.0</ele><time>2026-04-26T07:20:44.477Z</time></trkpt><trkpt lat="44.4884817" lon="10.7905267"><ele>324.0</ele><time>2026-04-26T07:20:46.477Z</time></trkpt><trkpt lat="44.488495" lon="10.7904267"><ele>324.0</ele><time>2026-04-26T07:20:47.477Z</time></trkpt><trkpt lat="44.4885333" lon="10.7903233"><ele>324.0</ele><time>2026-04-26T07:20:48.477Z</time></trkpt><trkpt lat="44.4885783" lon="10.7902167"><ele>324.0</ele><time>2026-04-26T07:20:49.477Z</time></trkpt><trkpt lat="44.4886083" lon="10.79012"><ele>324.0</ele><time>2026-04-26T07:20:50.478Z</time></trkpt><trkpt lat="44.4886017" lon="10.7900183"><ele>324.0</ele><time>2026-04-26T07:20:51.477Z</time></trkpt><trkpt lat="44.4885567" lon="10.789915"><ele>324.0</ele><time>2026-04-26T07:20:52.477Z</time></trkpt><trkpt lat="44.4885" lon="10.78981"><ele>324.0</ele><time>2026-04-26T07:20:53.477Z</time></trkpt><trkpt lat="44.4884417" lon="10.78971"><ele>324.0</ele><time>2026-04-26T07:20:54.477Z</time></trkpt><trkpt lat="44.4883833" lon="10.7896083"><ele>324.0</ele><time>2026-04-26T07:20:55.477Z</time></trkpt><trkpt lat="44.4883283" lon="10.7895133"><ele>324.0</ele><time>2026-04-26T07:20:56.477Z</time></trkpt><trkpt lat="44.488275" lon="10.7894217"><ele>323.1666666666667</ele><time>2026-04-26T07:20:57.477Z</time></trkpt><trkpt lat="44.488225" lon="10.789335"><ele>322.3333333333333</ele><time>2026-04-26T07:20:58.477Z</time></trkpt><trkpt lat="44.4881733" lon="10.7892567"><ele>321.5</ele><time>2026-04-26T07:20:59.477Z</time></trkpt><trkpt lat="44.488115" lon="10.78918"><ele>320.66666666666663</ele><time>2026-04-26T07:21:00.477Z</time></trkpt><trkpt lat="44.4880617" lon="10.7891083"><ele>319.8333333333333</ele><time>2026-04-26T07:21:01.477Z</time></trkpt><trkpt lat="44.487975" lon="10.7890433"><ele>319.0</ele><time>2026-04-26T07:21:03.477Z</time></trkpt><trkpt lat="44.487905" lon="10.7890833"><ele>314.0</ele><time>2026-04-26T07:21:05.477Z</time></trkpt><trkpt lat="44.487875" lon="10.7892233"><ele>309.0</ele><time>2026-04-26T07:21:07.478Z</time></trkpt><trkpt lat="44.48788" lon="10.7894033"><ele>304.0</ele><time>2026-04-26T07:21:09.477Z</time></trkpt><trkpt lat="44.4878667" lon="10.789505"><ele>299.0</ele><time>2026-04-26T07:21:10.477Z</time></trkpt><trkpt lat="44.487845" lon="10.7896017"><ele>294.0</ele><time>2026-04-26T07:21:11.477Z</time></trkpt><trkpt lat="44.4878183" lon="10.7897"><ele>293.8333333333333</ele><time>2026-04-26T07:21:12.477Z</time></trkpt><trkpt lat="44.487785" lon="10.7897983"><ele>293.6666666666667</ele><time>2026-04-26T07:21:13.478Z</time></trkpt><trkpt lat="44.48775" lon="10.78989"><ele>293.5</ele><time>2026-04-26T07:21:14.477Z</time></trkpt><trkpt lat="44.48772" lon="10.7899767"><ele>293.33333333333337</ele><time>2026-04-26T07:21:15.477Z</time></trkpt><trkpt lat="44.487685" lon="10.79014"><ele>293.1666666666667</ele><time>2026-04-26T07:21:17.477Z</time></trkpt><trkpt lat="44.4876817" lon="10.790235"><ele>293.0</ele><time>2026-04-26T07:21:18.477Z</time></trkpt><trkpt lat="44.4876833" lon="10.7903267"><ele>292.99999999999994</ele><time>2026-04-26T07:21:19.477Z</time></trkpt><trkpt lat="44.4876833" lon="10.7904267"><ele>293.0</ele><time>2026-04-26T07:21:20.477Z</time></trkpt><trkpt lat="44.4876767" lon="10.7905217"><ele>293.0</ele><time>2026-04-26T07:21:21.478Z</time></trkpt><trkpt lat="44.4876667" lon="10.79061"><ele>293.0</ele><time>2026-04-26T07:21:22.477Z</time></trkpt><trkpt lat="44.4876483" lon="10.7906983"><ele>293.0</ele><time>2026-04-26T07:21:23.477Z</time></trkpt><trkpt lat="44.4876267" lon="10.7907917"><ele>292.99999999999994</ele><time>2026-04-26T07:21:24.477Z</time></trkpt><trkpt lat="44.4876033" lon="10.790875"><ele>293.0</ele><time>2026-04-26T07:21:25.477Z</time></trkpt><trkpt lat="44.4875783" lon="10.79103"><ele>294.4</ele><time>2026-04-26T07:21:27.477Z</time></trkpt><trkpt lat="44.487545" lon="10.7911733"><ele>295.8</ele><time>2026-04-26T07:21:29.477Z</time></trkpt><trkpt lat="44.4874833" lon="10.7913"><ele>297.2</ele><time>2026-04-26T07:21:31.477Z</time></trkpt><trkpt lat="44.4874283" lon="10.7914"><ele>298.6</ele><time>2026-04-26T07:21:33.477Z</time></trkpt><trkpt lat="44.4873767" lon="10.7914817"><ele>300.0</ele><time>2026-04-26T07:21:35.477Z</time></trkpt><trkpt lat="44.4872783" lon="10.791595"><ele>300.0</ele><time>2026-04-26T07:21:37.477Z</time></trkpt><trkpt lat="44.4872067" lon="10.7916533"><ele>300.0</ele><time>2026-04-26T07:21:38.477Z</time></trkpt><trkpt lat="44.48713" lon="10.7917033"><ele>300.0</ele><time>2026-04-26T07:21:39.477Z</time></trkpt><trkpt lat="44.487055" lon="10.7917567"><ele>300.0</ele><time>2026-04-26T07:21:40.477Z</time></trkpt><trkpt lat="44.4869717" lon="10.791825"><ele>300.0</ele><time>2026-04-26T07:21:41.477Z</time></trkpt><trkpt lat="44.48689" lon="10.7919133"><ele>296.0</ele><time>2026-04-26T07:21:42.477Z</time></trkpt><trkpt lat="44.486825" lon="10.7920133"><ele>292.0</ele><time>2026-04-26T07:21:43.477Z</time></trkpt><trkpt lat="44.4867633" lon="10.79212"><ele>288.0</ele><time>2026-04-26T07:21:44.477Z</time></trkpt><trkpt lat="44.4867117" lon="10.792215"><ele>284.0</ele><time>2026-04-26T07:21:45.478Z</time></trkpt><trkpt lat="44.4866617" lon="10.7923067"><ele>280.0</ele><time>2026-04-26T07:21:46.477Z</time></trkpt><trkpt lat="44.486615" lon="10.7923983"><ele>276.0</ele><time>2026-04-26T07:21:47.477Z</time></trkpt><trkpt lat="44.486575" lon="10.7924883"><ele>276.0</ele><time>2026-04-26T07:21:48.477Z</time></trkpt><trkpt lat="44.4865367" lon="10.79256"><ele>276.0</ele><time>2026-04-26T07:21:49.477Z</time></trkpt><trkpt lat="44.48648" lon="10.792645"><ele>276.0</ele><time>2026-04-26T07:21:51.477Z</time></trkpt><trkpt lat="44.4863967" lon="10.7926767"><ele>276.0</ele><time>2026-04-26T07:22:14.476Z</time></trkpt><trkpt lat="44.4863333" lon="10.7927067"><ele>276.0</ele><time>2026-04-26T07:22:16.476Z</time></trkpt><trkpt lat="44.4862717" lon="10.792775"><ele>276.0</ele><time>2026-04-26T07:22:19.476Z</time></trkpt><trkpt lat="44.4862317" lon="10.7928483"><ele>276.0</ele><time>2026-04-26T07:22:21.476Z</time></trkpt><trkpt lat="44.4861833" lon="10.7929333"><ele>272.5</ele><time>2026-04-26T07:22:23.476Z</time></trkpt><trkpt lat="44.486125" lon="10.7930267"><ele>269.0</ele><time>2026-04-26T07:22:25.476Z</time></trkpt><trkpt lat="44.4860817" lon="10.7931067"><ele>265.5</ele><time>2026-04-26T07:22:27.477Z</time></trkpt><trkpt lat="44.4860433" lon="10.7931817"><ele>262.0</ele><time>2026-04-26T07:22:29.476Z</time></trkpt><trkpt lat="44.486" lon="10.7932533"><ele>258.5</ele><time>2026-04-26T07:22:31.476Z</time></trkpt><trkpt lat="44.4859483" lon="10.7933383"><ele>255.0</ele><time>2026-04-26T07:22:33.476Z</time></trkpt><trkpt lat="44.48591" lon="10.7934483"><ele>255.0</ele><time>2026-04-26T07:22:35.476Z</time></trkpt><trkpt lat="44.4858883" lon="10.7935383"><ele>255.0</ele><time>2026-04-26T07:22:37.477Z</time></trkpt><trkpt lat="44.48587" lon="10.7936317"><ele>255.0</ele><time>2026-04-26T07:22:40.476Z</time></trkpt><trkpt lat="44.48582" lon="10.79357"><ele>255.0</ele><time>2026-04-26T07:22:45.476Z</time></trkpt><trkpt lat="44.4858117" lon="10.7934517"><ele>255.0</ele><time>2026-04-26T07:22:49.476Z</time></trkpt><trkpt lat="44.4858167" lon="10.7933283"><ele>255.0</ele><time>2026-04-26T07:22:51.476Z</time></trkpt><trkpt lat="44.4858233" lon="10.79315"><ele>255.0</ele><time>2026-04-26T07:22:53.476Z</time></trkpt><trkpt lat="44.4858167" lon="10.7930317"><ele>255.0</ele><time>2026-04-26T07:22:54.476Z</time></trkpt><trkpt lat="44.485795" lon="10.7929217"><ele>255.0</ele><time>2026-04-26T07:22:55.476Z</time></trkpt><trkpt lat="44.4857583" lon="10.7928117"><ele>255.0</ele><time>2026-04-26T07:22:56.476Z</time></trkpt><trkpt lat="44.4857083" lon="10.792715"><ele>255.0</ele><time>2026-04-26T07:22:57.476Z</time></trkpt><trkpt lat="44.4856483" lon="10.7926233"><ele>255.0</ele><time>2026-04-26T07:22:58.477Z</time></trkpt><trkpt lat="44.48558" lon="10.7925317"><ele>254.8</ele><time>2026-04-26T07:22:59.476Z</time></trkpt><trkpt lat="44.4855017" lon="10.7924567"><ele>254.6</ele><time>2026-04-26T07:23:00.476Z</time></trkpt><trkpt lat="44.4854217" lon="10.79241"><ele>254.39999999999998</ele><time>2026-04-26T07:23:01.476Z</time></trkpt><trkpt lat="44.48534" lon="10.79241"><ele>254.2</ele><time>2026-04-26T07:23:02.476Z</time></trkpt><trkpt lat="44.48525" lon="10.7924217"><ele>254.0</ele><time>2026-04-26T07:23:03.476Z</time></trkpt><trkpt lat="44.48515" lon="10.7924733"><ele>254.0</ele><time>2026-04-26T07:23:04.476Z</time></trkpt><trkpt lat="44.4850583" lon="10.792555"><ele>254.0</ele><time>2026-04-26T07:23:05.476Z</time></trkpt><trkpt lat="44.4849717" lon="10.7926717"><ele>254.0</ele><time>2026-04-26T07:23:06.476Z</time></trkpt><trkpt lat="44.4848817" lon="10.792835"><ele>254.0</ele><time>2026-04-26T07:23:07.476Z</time></trkpt><trkpt lat="44.4847783" lon="10.7930667"><ele>253.66666666666669</ele><time>2026-04-26T07:23:08.476Z</time></trkpt><trkpt lat="44.4846767" lon="10.7932733"><ele>253.33333333333331</ele><time>2026-04-26T07:23:09.476Z</time></trkpt><trkpt lat="44.48458" lon="10.793435"><ele>253.0</ele><time>2026-04-26T07:23:10.476Z</time></trkpt><trkpt lat="44.484495" lon="10.79357"><ele>253.8</ele><time>2026-04-26T07:23:11.476Z</time></trkpt><trkpt lat="44.484415" lon="10.7936767"><ele>254.60000000000002</ele><time>2026-04-26T07:23:12.476Z</time></trkpt><trkpt lat="44.4843267" lon="10.79375"><ele>255.39999999999998</ele><time>2026-04-26T07:23:13.476Z</time></trkpt><trkpt lat="44.4842367" lon="10.7937883"><ele>256.2</ele><time>2026-04-26T07:23:14.476Z</time></trkpt><trkpt lat="44.4841433" lon="10.7937767"><ele>257.0</ele><time>2026-04-26T07:23:15.476Z</time></trkpt><trkpt lat="44.4840533" lon="10.79372"><ele>257.0</ele><time>2026-04-26T07:23:16.476Z</time></trkpt><trkpt lat="44.4839883" lon="10.7936267"><ele>257.0</ele><time>2026-04-26T07:23:17.476Z</time></trkpt><trkpt lat="44.4839367" lon="10.793495"><ele>257.0</ele><time>2026-04-26T07:23:18.476Z</time></trkpt><trkpt lat="44.4838883" lon="10.7933283"><ele>257.0</ele><time>2026-04-26T07:23:19.476Z</time></trkpt><trkpt lat="44.4838283" lon="10.7931533"><ele>257.25</ele><time>2026-04-26T07:23:20.476Z</time></trkpt><trkpt lat="44.4837517" lon="10.7929583"><ele>257.5</ele><time>2026-04-26T07:23:21.476Z</time></trkpt><trkpt lat="44.4836683" lon="10.7927983"><ele>257.75</ele><time>2026-04-26T07:23:22.476Z</time></trkpt><trkpt lat="44.4835933" lon="10.7926767"><ele>258.0</ele><time>2026-04-26T07:23:23.476Z</time></trkpt><trkpt lat="44.4835233" lon="10.7925983"><ele>258.0</ele><time>2026-04-26T07:23:24.476Z</time></trkpt><trkpt lat="44.48345" lon="10.792555"><ele>258.0</ele><time>2026-04-26T07:23:25.476Z</time></trkpt><trkpt lat="44.483375" lon="10.792545"><ele>258.0</ele><time>2026-04-26T07:23:26.476Z</time></trkpt><trkpt lat="44.4832917" lon="10.792585"><ele>258.0</ele><time>2026-04-26T07:23:27.476Z</time></trkpt><trkpt lat="44.48318" lon="10.7927017"><ele>258.0</ele><time>2026-04-26T07:23:28.476Z</time></trkpt><trkpt lat="44.4830633" lon="10.79281"><ele>258.0</ele><time>2026-04-26T07:23:29.476Z</time></trkpt><trkpt lat="44.482955" lon="10.79288"><ele>258.0</ele><time>2026-04-26T07:23:30.476Z</time></trkpt><trkpt lat="44.4828267" lon="10.7928933"><ele>258.0</ele><time>2026-04-26T07:23:31.476Z</time></trkpt><trkpt lat="44.4826867" lon="10.7928733"><ele>258.0</ele><time>2026-04-26T07:23:32.476Z</time></trkpt><trkpt lat="44.482535" lon="10.79282"><ele>257.6666666666667</ele><time>2026-04-26T07:23:33.476Z</time></trkpt><trkpt lat="44.482385" lon="10.7927433"><ele>257.33333333333337</ele><time>2026-04-26T07:23:34.476Z</time></trkpt><trkpt lat="44.4822383" lon="10.792605"><ele>257.0</ele><time>2026-04-26T07:23:35.476Z</time></trkpt><trkpt lat="44.4820917" lon="10.7924283"><ele>260.0</ele><time>2026-04-26T07:23:36.476Z</time></trkpt><trkpt lat="44.4819517" lon="10.792245"><ele>263.0</ele><time>2026-04-26T07:23:37.476Z</time></trkpt><trkpt lat="44.48182" lon="10.79208"><ele>266.0</ele><time>2026-04-26T07:23:38.476Z</time></trkpt><trkpt lat="44.481695" lon="10.7919367"><ele>266.0</ele><time>2026-04-26T07:23:39.476Z</time></trkpt><trkpt lat="44.4815483" lon="10.7918217"><ele>266.0</ele><time>2026-04-26T07:23:40.476Z</time></trkpt><trkpt lat="44.4813633" lon="10.7917517"><ele>266.0</ele><time>2026-04-26T07:23:41.477Z</time></trkpt><trkpt lat="44.4811717" lon="10.7916767"><ele>266.0</ele><time>2026-04-26T07:23:42.476Z</time></trkpt><trkpt lat="44.4809933" lon="10.7916017"><ele>266.0</ele><time>2026-04-26T07:23:43.476Z</time></trkpt><trkpt lat="44.48082" lon="10.7915583"><ele>266.0</ele><time>2026-04-26T07:23:44.476Z</time></trkpt><trkpt lat="44.4806467" lon="10.7915417"><ele>266.0</ele><time>2026-04-26T07:23:45.477Z</time></trkpt><trkpt lat="44.4804917" lon="10.7915533"><ele>266.0</ele><time>2026-04-26T07:23:46.476Z</time></trkpt><trkpt lat="44.4803517" lon="10.7915717"><ele>266.0</ele><time>2026-04-26T07:23:47.477Z</time></trkpt><trkpt lat="44.48022" lon="10.7915883"><ele>266.0</ele><time>2026-04-26T07:23:48.476Z</time></trkpt><trkpt lat="44.4801" lon="10.7916017"><ele>267.2</ele><time>2026-04-26T07:23:49.476Z</time></trkpt><trkpt lat="44.479985" lon="10.79161"><ele>268.40000000000003</ele><time>2026-04-26T07:23:50.477Z</time></trkpt><trkpt lat="44.47987" lon="10.7916067"><ele>269.6</ele><time>2026-04-26T07:23:51.476Z</time></trkpt><trkpt lat="44.4797767" lon="10.791595"><ele>270.8</ele><time>2026-04-26T07:23:52.476Z</time></trkpt><trkpt lat="44.4796933" lon="10.79158"><ele>272.0</ele><time>2026-04-26T07:23:53.476Z</time></trkpt><trkpt lat="44.4795833" lon="10.79156"><ele>272.0</ele><time>2026-04-26T07:23:55.476Z</time></trkpt><trkpt lat="44.4795017" lon="10.7915133"><ele>272.0</ele><time>2026-04-26T07:23:57.476Z</time></trkpt><trkpt lat="44.4794617" lon="10.7914133"><ele>272.0</ele><time>2026-04-26T07:23:59.476Z</time></trkpt><trkpt lat="44.4795217" lon="10.791315"><ele>272.0</ele><time>2026-04-26T07:24:01.476Z</time></trkpt><trkpt lat="44.479585" lon="10.7912717"><ele>272.0</ele><time>2026-04-26T07:24:02.476Z</time></trkpt><trkpt lat="44.4796817" lon="10.7912317"><ele>272.0</ele><time>2026-04-26T07:24:03.477Z</time></trkpt><trkpt lat="44.479765" lon="10.79117"><ele>272.0</ele><time>2026-04-26T07:24:04.476Z</time></trkpt><trkpt lat="44.4798467" lon="10.7910967"><ele>272.0</ele><time>2026-04-26T07:24:05.476Z</time></trkpt><trkpt lat="44.4799183" lon="10.791025"><ele>272.0</ele><time>2026-04-26T07:24:06.476Z</time></trkpt><trkpt lat="44.4799833" lon="10.7909517"><ele>272.0</ele><time>2026-04-26T07:24:07.476Z</time></trkpt><trkpt lat="44.480045" lon="10.7908783"><ele>272.0</ele><time>2026-04-26T07:24:08.476Z</time></trkpt><trkpt lat="44.4801067" lon="10.790815"><ele>272.0</ele><time>2026-04-26T07:24:09.476Z</time></trkpt><trkpt lat="44.48017" lon="10.7907517"><ele>272.0</ele><time>2026-04-26T07:24:10.476Z</time></trkpt><trkpt lat="44.48023" lon="10.7906933"><ele>272.0</ele><time>2026-04-26T07:24:11.476Z</time></trkpt><trkpt lat="44.4802933" lon="10.7906383"><ele>272.0</ele><time>2026-04-26T07:24:12.476Z</time></trkpt><trkpt lat="44.48035" lon="10.7905883"><ele>272.0</ele><time>2026-04-26T07:24:13.476Z</time></trkpt><trkpt lat="44.48041" lon="10.7905283"><ele>272.0</ele><time>2026-04-26T07:24:14.476Z</time></trkpt><trkpt lat="44.480465" lon="10.790475"><ele>272.0</ele><time>2026-04-26T07:24:15.476Z</time></trkpt><trkpt lat="44.48056" lon="10.7903683"><ele>272.0</ele><time>2026-04-26T07:24:17.477Z</time></trkpt><trkpt lat="44.4806333" lon="10.7902483"><ele>272.0</ele><time>2026-04-26T07:24:19.476Z</time></trkpt><trkpt lat="44.4806917" lon="10.7901217"><ele>272.0</ele><time>2026-04-26T07:24:21.476Z</time></trkpt><trkpt lat="44.48072" lon="10.79004"><ele>272.0</ele><time>2026-04-26T07:24:22.476Z</time></trkpt><trkpt lat="44.4807433" lon="10.7899567"><ele>272.0</ele><time>2026-04-26T07:24:23.476Z</time></trkpt><trkpt lat="44.4807733" lon="10.7898667"><ele>272.0</ele><time>2026-04-26T07:24:24.476Z</time></trkpt><trkpt lat="44.4807983" lon="10.7897667"><ele>273.99999999999994</ele><time>2026-04-26T07:24:25.476Z</time></trkpt><trkpt lat="44.48081" lon="10.7896733"><ele>276.0</ele><time>2026-04-26T07:24:26.476Z</time></trkpt><trkpt lat="44.4808167" lon="10.7895767"><ele>278.0</ele><time>2026-04-26T07:24:27.476Z</time></trkpt><trkpt lat="44.4808233" lon="10.7894717"><ele>280.0</ele><time>2026-04-26T07:24:28.476Z</time></trkpt><trkpt lat="44.480815" lon="10.7893617"><ele>282.0</ele><time>2026-04-26T07:24:29.476Z</time></trkpt><trkpt lat="44.4807883" lon="10.78926"><ele>283.99999999999994</ele><time>2026-04-26T07:24:30.476Z</time></trkpt><trkpt lat="44.4807467" lon="10.789165"><ele>286.0</ele><time>2026-04-26T07:24:31.476Z</time></trkpt><trkpt lat="44.4806983" lon="10.7890867"><ele>287.66666666666663</ele><time>2026-04-26T07:24:32.476Z</time></trkpt><trkpt lat="44.4806433" lon="10.7890217"><ele>289.3333333333333</ele><time>2026-04-26T07:24:33.476Z</time></trkpt><trkpt lat="44.4805883" lon="10.788965"><ele>291.0</ele><time>2026-04-26T07:24:34.476Z</time></trkpt><trkpt lat="44.4804767" lon="10.7889433"><ele>292.6666666666667</ele><time>2026-04-26T07:24:36.476Z</time></trkpt><trkpt lat="44.4804133" lon="10.788955"><ele>294.33333333333337</ele><time>2026-04-26T07:24:37.476Z</time></trkpt><trkpt lat="44.4803417" lon="10.78898"><ele>296.0</ele><time>2026-04-26T07:24:38.476Z</time></trkpt><trkpt lat="44.4802683" lon="10.7890167"><ele>297.5</ele><time>2026-04-26T07:24:39.476Z</time></trkpt><trkpt lat="44.4801883" lon="10.7890483"><ele>299.0</ele><time>2026-04-26T07:24:40.476Z</time></trkpt><trkpt lat="44.480115" lon="10.78906"><ele>300.5</ele><time>2026-04-26T07:24:41.476Z</time></trkpt><trkpt lat="44.4800517" lon="10.7890267"><ele>302.0</ele><time>2026-04-26T07:24:42.476Z</time></trkpt><trkpt lat="44.480015" lon="10.788955"><ele>303.5</ele><time>2026-04-26T07:24:43.476Z</time></trkpt><trkpt lat="44.480005" lon="10.7888567"><ele>305.0</ele><time>2026-04-26T07:24:44.476Z</time></trkpt><trkpt lat="44.48001" lon="10.7887217"><ele>305.0</ele><time>2026-04-26T07:24:45.476Z</time></trkpt><trkpt lat="44.4800217" lon="10.7885467"><ele>305.0</ele><time>2026-04-26T07:24:46.476Z</time></trkpt><trkpt lat="44.4800267" lon="10.7883367"><ele>305.0</ele><time>2026-04-26T07:24:47.476Z</time></trkpt><trkpt lat="44.480035" lon="10.7881433"><ele>305.0</ele><time>2026-04-26T07:24:48.476Z</time></trkpt><trkpt lat="44.48006" lon="10.7879617"><ele>306.6666666666667</ele><time>2026-04-26T07:24:49.476Z</time></trkpt><trkpt lat="44.4801083" lon="10.7878167"><ele>308.33333333333337</ele><time>2026-04-26T07:24:50.476Z</time></trkpt><trkpt lat="44.4801433" lon="10.7876983"><ele>310.0</ele><time>2026-04-26T07:24:51.476Z</time></trkpt><trkpt lat="44.480165" lon="10.787595"><ele>311.6666666666667</ele><time>2026-04-26T07:24:52.476Z</time></trkpt><trkpt lat="44.480155" lon="10.78749"><ele>313.3333333333333</ele><time>2026-04-26T07:24:53.476Z</time></trkpt><trkpt lat="44.48012" lon="10.7873817"><ele>315.0</ele><time>2026-04-26T07:24:54.476Z</time></trkpt><trkpt lat="44.4800617" lon="10.7872867"><ele>315.8</ele><time>2026-04-26T07:24:55.476Z</time></trkpt><trkpt lat="44.4799767" lon="10.7872317"><ele>316.6</ele><time>2026-04-26T07:24:56.476Z</time></trkpt><trkpt lat="44.4798817" lon="10.7872133"><ele>317.4</ele><time>2026-04-26T07:24:57.476Z</time></trkpt><trkpt lat="44.4797667" lon="10.787245"><ele>318.2</ele><time>2026-04-26T07:24:58.476Z</time></trkpt><trkpt lat="44.47964" lon="10.78729"><ele>319.0</ele><time>2026-04-26T07:24:59.476Z</time></trkpt><trkpt lat="44.4795217" lon="10.7873183"><ele>321.0</ele><time>2026-04-26T07:25:00.476Z</time></trkpt><trkpt lat="44.4794333" lon="10.7873317"><ele>323.0</ele><time>2026-04-26T07:25:01.476Z</time></trkpt><trkpt lat="44.4793683" lon="10.7873717"><ele>325.0</ele><time>2026-04-26T07:25:02.476Z</time></trkpt><trkpt lat="44.4793317" lon="10.7874633"><ele>327.0</ele><time>2026-04-26T07:25:03.476Z</time></trkpt><trkpt lat="44.47931" lon="10.78758"><ele>329.0</ele><time>2026-04-26T07:25:04.477Z</time></trkpt><trkpt lat="44.479295" lon="10.7877117"><ele>331.0</ele><time>2026-04-26T07:25:05.476Z</time></trkpt><trkpt lat="44.4792867" lon="10.7878383"><ele>331.0</ele><time>2026-04-26T07:25:06.476Z</time></trkpt><trkpt lat="44.47926" lon="10.78795"><ele>331.0</ele><time>2026-04-26T07:25:07.476Z</time></trkpt><trkpt lat="44.47921" lon="10.78807"><ele>331.0</ele><time>2026-04-26T07:25:08.476Z</time></trkpt><trkpt lat="44.47914" lon="10.7881917"><ele>331.0</ele><time>2026-04-26T07:25:09.476Z</time></trkpt><trkpt lat="44.4790633" lon="10.78832"><ele>331.0</ele><time>2026-04-26T07:25:10.476Z</time></trkpt><trkpt lat="44.4789967" lon="10.78842"><ele>331.0</ele><time>2026-04-26T07:25:11.476Z</time></trkpt><trkpt lat="44.4789367" lon="10.7884817"><ele>331.0</ele><time>2026-04-26T07:25:12.476Z</time></trkpt><trkpt lat="44.4788683" lon="10.78851"><ele>331.0</ele><time>2026-04-26T07:25:13.476Z</time></trkpt><trkpt lat="44.4788033" lon="10.7884967"><ele>331.0</ele><time>2026-04-26T07:25:14.476Z</time></trkpt><trkpt lat="44.478715" lon="10.7884267"><ele>331.0</ele><time>2026-04-26T07:25:15.476Z</time></trkpt><trkpt lat="44.47863" lon="10.7883467"><ele>331.0</ele><time>2026-04-26T07:25:16.476Z</time></trkpt><trkpt lat="44.4785117" lon="10.788285"><ele>331.4</ele><time>2026-04-26T07:25:17.476Z</time></trkpt><trkpt lat="44.4783917" lon="10.7882417"><ele>331.8</ele><time>2026-04-26T07:25:18.476Z</time></trkpt><trkpt lat="44.4782867" lon="10.7881933"><ele>332.2</ele><time>2026-04-26T07:25:19.476Z</time></trkpt><trkpt lat="44.4782167" lon="10.7881433"><ele>332.59999999999997</ele><time>2026-04-26T07:25:20.476Z</time></trkpt><trkpt lat="44.4781933" lon="10.7880417"><ele>333.0</ele><time>2026-04-26T07:25:22.476Z</time></trkpt><trkpt lat="44.4782333" lon="10.787945"><ele>333.0</ele><time>2026-04-26T07:25:24.476Z</time></trkpt><trkpt lat="44.4783633" lon="10.7878817"><ele>333.0</ele><time>2026-04-26T07:25:26.476Z</time></trkpt><trkpt lat="44.4784383" lon="10.7878533"><ele>333.0</ele><time>2026-04-26T07:25:27.477Z</time></trkpt><trkpt lat="44.4784983" lon="10.7877933"><ele>333.0</ele><time>2026-04-26T07:25:28.476Z</time></trkpt><trkpt lat="44.4785383" lon="10.7877"><ele>333.0</ele><time>2026-04-26T07:25:29.476Z</time></trkpt><trkpt lat="44.4785367" lon="10.787595"><ele>333.0</ele><time>2026-04-26T07:25:30.476Z</time></trkpt><trkpt lat="44.4785083" lon="10.7874733"><ele>336.5</ele><time>2026-04-26T07:25:31.477Z</time></trkpt><trkpt lat="44.47846" lon="10.7873417"><ele>340.0</ele><time>2026-04-26T07:25:32.476Z</time></trkpt><trkpt lat="44.4783983" lon="10.7871933"><ele>343.5</ele><time>2026-04-26T07:25:33.476Z</time></trkpt><trkpt lat="44.4783333" lon="10.7870233"><ele>347.0</ele><time>2026-04-26T07:25:34.476Z</time></trkpt><trkpt lat="44.4782617" lon="10.7868667"><ele>347.25</ele><time>2026-04-26T07:25:35.476Z</time></trkpt><trkpt lat="44.4781817" lon="10.7867333"><ele>347.5</ele><time>2026-04-26T07:25:36.477Z</time></trkpt><trkpt lat="44.478085" lon="10.7866083"><ele>347.75</ele><time>2026-04-26T07:25:37.476Z</time></trkpt><trkpt lat="44.47797" lon="10.7864917"><ele>348.0</ele><time>2026-04-26T07:25:38.476Z</time></trkpt><trkpt lat="44.4778567" lon="10.786365"><ele>351.0</ele><time>2026-04-26T07:25:39.476Z</time></trkpt><trkpt lat="44.4777333" lon="10.78622"><ele>354.0</ele><time>2026-04-26T07:25:40.476Z</time></trkpt><trkpt lat="44.47763" lon="10.78611"><ele>357.0</ele><time>2026-04-26T07:25:41.476Z</time></trkpt><trkpt lat="44.4775417" lon="10.7860217"><ele>360.0</ele><time>2026-04-26T07:25:42.476Z</time></trkpt><trkpt lat="44.477475" lon="10.7859283"><ele>362.1666666666667</ele><time>2026-04-26T07:25:43.476Z</time></trkpt><trkpt lat="44.4774367" lon="10.7858167"><ele>364.3333333333333</ele><time>2026-04-26T07:25:44.476Z</time></trkpt><trkpt lat="44.4774133" lon="10.7856983"><ele>366.5</ele><time>2026-04-26T07:25:45.476Z</time></trkpt><trkpt lat="44.4774083" lon="10.7855833"><ele>368.66666666666663</ele><time>2026-04-26T07:25:46.476Z</time></trkpt><trkpt lat="44.4774283" lon="10.785475"><ele>370.8333333333333</ele><time>2026-04-26T07:25:47.476Z</time></trkpt><trkpt lat="44.477465" lon="10.7853817"><ele>373.0</ele><time>2026-04-26T07:25:48.477Z</time></trkpt><trkpt lat="44.477525" lon="10.7853117"><ele>373.0</ele><time>2026-04-26T07:25:49.476Z</time></trkpt><trkpt lat="44.4776067" lon="10.785265"><ele>373.0</ele><time>2026-04-26T07:25:50.476Z</time></trkpt><trkpt lat="44.47771" lon="10.785215"><ele>373.0</ele><time>2026-04-26T07:25:51.476Z</time></trkpt><trkpt lat="44.4778333" lon="10.78518"><ele>373.0</ele><time>2026-04-26T07:25:52.476Z</time></trkpt><trkpt lat="44.4779367" lon="10.78516"><ele>373.0</ele><time>2026-04-26T07:25:53.476Z</time></trkpt><trkpt lat="44.4780233" lon="10.7851583"><ele>374.4</ele><time>2026-04-26T07:25:54.476Z</time></trkpt><trkpt lat="44.4781217" lon="10.7851533"><ele>375.79999999999995</ele><time>2026-04-26T07:25:56.476Z</time></trkpt><trkpt lat="44.4781833" lon="10.785115"><ele>377.2</ele><time>2026-04-26T07:25:59.476Z</time></trkpt><trkpt lat="44.4781433" lon="10.7850283"><ele>378.6</ele><time>2026-04-26T07:26:15.476Z</time></trkpt><trkpt lat="44.4780483" lon="10.7849017"><ele>380.0</ele><time>2026-04-26T07:26:17.476Z</time></trkpt><trkpt lat="44.4779717" lon="10.78484"><ele>383.0</ele><time>2026-04-26T07:26:18.476Z</time></trkpt><trkpt lat="44.4778733" lon="10.7847833"><ele>386.0</ele><time>2026-04-26T07:26:19.476Z</time></trkpt><trkpt lat="44.4777583" lon="10.7847333"><ele>389.0</ele><time>2026-04-26T07:26:20.476Z</time></trkpt><trkpt lat="44.4776367" lon="10.7846883"><ele>392.0</ele><time>2026-04-26T07:26:21.476Z</time></trkpt><trkpt lat="44.4775083" lon="10.7846367"><ele>392.0</ele><time>2026-04-26T07:26:22.476Z</time></trkpt><trkpt lat="44.4773717" lon="10.7845517"><ele>392.0</ele><time>2026-04-26T07:26:23.476Z</time></trkpt><trkpt lat="44.4772567" lon="10.7844533"><ele>392.0</ele><time>2026-04-26T07:26:24.476Z</time></trkpt><trkpt lat="44.477165" lon="10.7843783"><ele>392.0</ele><time>2026-04-26T07:26:25.477Z</time></trkpt><trkpt lat="44.4770717" lon="10.7843433"><ele>393.40000000000003</ele><time>2026-04-26T07:26:26.476Z</time></trkpt><trkpt lat="44.47696" lon="10.7843433"><ele>394.8</ele><time>2026-04-26T07:26:27.476Z</time></trkpt><trkpt lat="44.4768517" lon="10.7843467"><ele>396.2</ele><time>2026-04-26T07:26:28.476Z</time></trkpt><trkpt lat="44.476765" lon="10.78432"><ele>397.6</ele><time>2026-04-26T07:26:29.476Z</time></trkpt><trkpt lat="44.476705" lon="10.7842517"><ele>399.0</ele><time>2026-04-26T07:26:30.476Z</time></trkpt><trkpt lat="44.4766683" lon="10.7841533"><ele>401.4</ele><time>2026-04-26T07:26:31.476Z</time></trkpt><trkpt lat="44.4766367" lon="10.784055"><ele>403.79999999999995</ele><time>2026-04-26T07:26:32.476Z</time></trkpt><trkpt lat="44.4765917" lon="10.783965"><ele>406.20000000000005</ele><time>2026-04-26T07:26:33.476Z</time></trkpt><trkpt lat="44.476515" lon="10.7839083"><ele>408.6</ele><time>2026-04-26T07:26:34.476Z</time></trkpt><trkpt lat="44.4764133" lon="10.78388"><ele>411.0</ele><time>2026-04-26T07:26:35.476Z</time></trkpt><trkpt lat="44.4763" lon="10.78388"><ele>413.75</ele><time>2026-04-26T07:26:36.476Z</time></trkpt><trkpt lat="44.47618" lon="10.7839067"><ele>416.5</ele><time>2026-04-26T07:26:37.476Z</time></trkpt><trkpt lat="44.4760783" lon="10.7839333"><ele>419.25</ele><time>2026-04-26T07:26:38.476Z</time></trkpt><trkpt lat="44.475975" lon="10.7839267"><ele>422.0</ele><time>2026-04-26T07:26:39.476Z</time></trkpt><trkpt lat="44.4758583" lon="10.7838783"><ele>422.0</ele><time>2026-04-26T07:26:40.476Z</time></trkpt><trkpt lat="44.4757467" lon="10.7838067"><ele>422.0</ele><time>2026-04-26T07:26:41.477Z</time></trkpt><trkpt lat="44.47566" lon="10.7837167"><ele>422.0</ele><time>2026-04-26T07:26:42.476Z</time></trkpt><trkpt lat="44.4755817" lon="10.7835967"><ele>422.0</ele><time>2026-04-26T07:26:43.476Z</time></trkpt><trkpt lat="44.47552" lon="10.7834717"><ele>424.0</ele><time>2026-04-26T07:26:44.476Z</time></trkpt><trkpt lat="44.4754533" lon="10.7833567"><ele>426.0</ele><time>2026-04-26T07:26:45.476Z</time></trkpt><trkpt lat="44.4753683" lon="10.78324"><ele>428.0</ele><time>2026-04-26T07:26:46.476Z</time></trkpt><trkpt lat="44.4752883" lon="10.7831167"><ele>430.0</ele><time>2026-04-26T07:26:47.476Z</time></trkpt><trkpt lat="44.4752333" lon="10.78298"><ele>431.8</ele><time>2026-04-26T07:26:48.476Z</time></trkpt><trkpt lat="44.4752017" lon="10.7828317"><ele>433.6</ele><time>2026-04-26T07:26:49.476Z</time></trkpt><trkpt lat="44.4751817" lon="10.7826817"><ele>435.4</ele><time>2026-04-26T07:26:50.476Z</time></trkpt><trkpt lat="44.47515" lon="10.7825267"><ele>437.2</ele><time>2026-04-26T07:26:51.476Z</time></trkpt><trkpt lat="44.47512" lon="10.782375"><ele>439.0</ele><time>2026-04-26T07:26:52.475Z</time></trkpt><trkpt lat="44.4750883" lon="10.78222"><ele>440.75</ele><time>2026-04-26T07:26:53.475Z</time></trkpt><trkpt lat="44.47509" lon="10.7820867"><ele>442.5</ele><time>2026-04-26T07:26:54.475Z</time></trkpt><trkpt lat="44.4751217" lon="10.781945"><ele>444.25</ele><time>2026-04-26T07:26:55.475Z</time></trkpt><trkpt lat="44.475175" lon="10.781785"><ele>446.0</ele><time>2026-04-26T07:26:56.475Z</time></trkpt><trkpt lat="44.4752367" lon="10.7816017"><ele>448.5</ele><time>2026-04-26T07:26:57.475Z</time></trkpt><trkpt lat="44.4752867" lon="10.7814317"><ele>451.0</ele><time>2026-04-26T07:26:58.476Z</time></trkpt><trkpt lat="44.4753317" lon="10.781275"><ele>453.5</ele><time>2026-04-26T07:26:59.475Z</time></trkpt><trkpt lat="44.4753617" lon="10.7811317"><ele>456.0</ele><time>2026-04-26T07:27:00.475Z</time></trkpt><trkpt lat="44.4753767" lon="10.780995"><ele>458.25</ele><time>2026-04-26T07:27:01.475Z</time></trkpt><trkpt lat="44.4753767" lon="10.7808517"><ele>460.5</ele><time>2026-04-26T07:27:02.475Z</time></trkpt><trkpt lat="44.4753567" lon="10.780705"><ele>462.75</ele><time>2026-04-26T07:27:03.475Z</time></trkpt><trkpt lat="44.4753183" lon="10.7805533"><ele>465.0</ele><time>2026-04-26T07:27:04.475Z</time></trkpt><trkpt lat="44.4752683" lon="10.780385"><ele>465.0</ele><time>2026-04-26T07:27:05.475Z</time></trkpt><trkpt lat="44.4752383" lon="10.7802217"><ele>465.0</ele><time>2026-04-26T07:27:06.475Z</time></trkpt><trkpt lat="44.4752367" lon="10.78007"><ele>465.0</ele><time>2026-04-26T07:27:07.475Z</time></trkpt><trkpt lat="44.475265" lon="10.7799283"><ele>465.0</ele><time>2026-04-26T07:27:08.476Z</time></trkpt><trkpt lat="44.4753217" lon="10.7798033"><ele>465.0</ele><time>2026-04-26T07:27:09.475Z</time></trkpt><trkpt lat="44.4754017" lon="10.77969"><ele>463.75</ele><time>2026-04-26T07:27:10.475Z</time></trkpt><trkpt lat="44.4755067" lon="10.7795883"><ele>462.5</ele><time>2026-04-26T07:27:11.475Z</time></trkpt><trkpt lat="44.4756267" lon="10.7795"><ele>461.25</ele><time>2026-04-26T07:27:12.475Z</time></trkpt><trkpt lat="44.47574" lon="10.7794067"><ele>460.0</ele><time>2026-04-26T07:27:13.475Z</time></trkpt><trkpt lat="44.4758417" lon="10.7793217"><ele>463.75</ele><time>2026-04-26T07:27:14.475Z</time></trkpt><trkpt lat="44.4759417" lon="10.7792217"><ele>467.5</ele><time>2026-04-26T07:27:15.475Z</time></trkpt><trkpt lat="44.47603" lon="10.7791017"><ele>471.25</ele><time>2026-04-26T07:27:16.475Z</time></trkpt><trkpt lat="44.4761117" lon="10.778975"><ele>475.0</ele><time>2026-04-26T07:27:17.475Z</time></trkpt><trkpt lat="44.47619" lon="10.7788533"><ele>475.0</ele><time>2026-04-26T07:27:18.475Z</time></trkpt><trkpt lat="44.4762633" lon="10.7787433"><ele>475.0</ele><time>2026-04-26T07:27:19.475Z</time></trkpt><trkpt lat="44.476305" lon="10.7786467"><ele>475.0</ele><time>2026-04-26T07:27:20.475Z</time></trkpt><trkpt lat="44.47632" lon="10.77856"><ele>475.0</ele><time>2026-04-26T07:27:21.475Z</time></trkpt><trkpt lat="44.47625" lon="10.7784283"><ele>475.0</ele><time>2026-04-26T07:27:23.475Z</time></trkpt><trkpt lat="44.4761683" lon="10.7783983"><ele>477.0</ele><time>2026-04-26T07:27:24.475Z</time></trkpt><trkpt lat="44.4760533" lon="10.7784033"><ele>479.0</ele><time>2026-04-26T07:27:25.475Z</time></trkpt><trkpt lat="44.4759383" lon="10.778415"><ele>481.0</ele><time>2026-04-26T07:27:26.475Z</time></trkpt><trkpt lat="44.47585" lon="10.7784133"><ele>483.0</ele><time>2026-04-26T07:27:27.475Z</time></trkpt><trkpt lat="44.4757767" lon="10.7783933"><ele>485.0</ele><time>2026-04-26T07:27:28.475Z</time></trkpt><trkpt lat="44.4757083" lon="10.778265"><ele>484.99999999999994</ele><time>2026-04-26T07:27:30.475Z</time></trkpt><trkpt lat="44.4757583" lon="10.7781267"><ele>485.0</ele><time>2026-04-26T07:27:32.475Z</time></trkpt><trkpt lat="44.4758167" lon="10.778075"><ele>485.0</ele><time>2026-04-26T07:27:33.475Z</time></trkpt><trkpt lat="44.475895" lon="10.7780183"><ele>485.0</ele><time>2026-04-26T07:27:34.475Z</time></trkpt><trkpt lat="44.475955" lon="10.7779367"><ele>484.99999999999994</ele><time>2026-04-26T07:27:35.475Z</time></trkpt><trkpt lat="44.4759867" lon="10.7778417"><ele>485.0</ele><time>2026-04-26T07:27:36.475Z</time></trkpt><trkpt lat="44.4759817" lon="10.7777317"><ele>486.49999999999994</ele><time>2026-04-26T07:27:37.475Z</time></trkpt><trkpt lat="44.4759517" lon="10.77761"><ele>488.0</ele><time>2026-04-26T07:27:38.475Z</time></trkpt><trkpt lat="44.4759067" lon="10.777495"><ele>489.5</ele><time>2026-04-26T07:27:39.475Z</time></trkpt><trkpt lat="44.4758633" lon="10.7774017"><ele>491.0</ele><time>2026-04-26T07:27:40.475Z</time></trkpt><trkpt lat="44.4758233" lon="10.77733"><ele>492.49999999999994</ele><time>2026-04-26T07:27:41.475Z</time></trkpt><trkpt lat="44.4757617" lon="10.7772217"><ele>494.0</ele><time>2026-04-26T07:27:43.475Z</time></trkpt><trkpt lat="44.4757283" lon="10.7771367"><ele>494.0</ele><time>2026-04-26T07:27:45.476Z</time></trkpt><trkpt lat="44.475775" lon="10.776975"><ele>494.0</ele><time>2026-04-26T07:28:43.475Z</time></trkpt><trkpt lat="44.4758683" lon="10.7768717"><ele>494.0</ele><time>2026-04-26T07:28:45.475Z</time></trkpt><trkpt lat="44.4759217" lon="10.7767983"><ele>494.0</ele><time>2026-04-26T07:28:46.475Z</time></trkpt><trkpt lat="44.47598" lon="10.776725"><ele>494.0</ele><time>2026-04-26T07:28:47.475Z</time></trkpt><trkpt lat="44.4760433" lon="10.776645"><ele>494.6</ele><time>2026-04-26T07:28:48.475Z</time></trkpt><trkpt lat="44.4761117" lon="10.7765583"><ele>495.2</ele><time>2026-04-26T07:28:49.475Z</time></trkpt><trkpt lat="44.4761717" lon="10.7764583"><ele>495.80000000000007</ele><time>2026-04-26T07:28:50.475Z</time></trkpt><trkpt lat="44.4762333" lon="10.7763667"><ele>496.40000000000003</ele><time>2026-04-26T07:28:51.475Z</time></trkpt><trkpt lat="44.4762967" lon="10.7762667"><ele>497.0</ele><time>2026-04-26T07:28:52.475Z</time></trkpt><trkpt lat="44.4763717" lon="10.77616"><ele>497.0</ele><time>2026-04-26T07:28:53.475Z</time></trkpt><trkpt lat="44.4764317" lon="10.7760517"><ele>497.00000000000006</ele><time>2026-04-26T07:28:54.475Z</time></trkpt><trkpt lat="44.4764833" lon="10.77596"><ele>497.00000000000006</ele><time>2026-04-26T07:28:55.475Z</time></trkpt><trkpt lat="44.4765433" lon="10.775815"><ele>497.0</ele><time>2026-04-26T07:28:57.475Z</time></trkpt><trkpt lat="44.4765667" lon="10.7757267"><ele>497.0</ele><time>2026-04-26T07:28:59.475Z</time></trkpt><trkpt lat="44.4765217" lon="10.775615"><ele>496.49999999999994</ele><time>2026-04-26T07:29:01.475Z</time></trkpt><trkpt lat="44.4764817" lon="10.775545"><ele>496.0</ele><time>2026-04-26T07:29:02.475Z</time></trkpt><trkpt lat="44.476425" lon="10.775485"><ele>495.5</ele><time>2026-04-26T07:29:03.475Z</time></trkpt><trkpt lat="44.4763617" lon="10.7754083"><ele>495.0</ele><time>2026-04-26T07:29:04.475Z</time></trkpt><trkpt lat="44.476295" lon="10.77532"><ele>494.49999999999994</ele><time>2026-04-26T07:29:05.475Z</time></trkpt><trkpt lat="44.4762217" lon="10.77523"><ele>494.0</ele><time>2026-04-26T07:29:06.475Z</time></trkpt><trkpt lat="44.476145" lon="10.7751267"><ele>497.5</ele><time>2026-04-26T07:29:07.475Z</time></trkpt><trkpt lat="44.4760683" lon="10.7749933"><ele>501.0</ele><time>2026-04-26T07:29:08.475Z</time></trkpt><trkpt lat="44.4760017" lon="10.77484"><ele>504.5</ele><time>2026-04-26T07:29:09.475Z</time></trkpt><trkpt lat="44.4759333" lon="10.77471"><ele>508.0</ele><time>2026-04-26T07:29:10.475Z</time></trkpt><trkpt lat="44.4758317" lon="10.7746383"><ele>508.0</ele><time>2026-04-26T07:29:11.475Z</time></trkpt><trkpt lat="44.4757" lon="10.7746067"><ele>508.0</ele><time>2026-04-26T07:29:12.475Z</time></trkpt><trkpt lat="44.4755283" lon="10.774635"><ele>508.0</ele><time>2026-04-26T07:29:13.476Z</time></trkpt><trkpt lat="44.475345" lon="10.7746517"><ele>504.0</ele><time>2026-04-26T07:29:14.475Z</time></trkpt><trkpt lat="44.4751783" lon="10.7746617"><ele>500.0</ele><time>2026-04-26T07:29:15.475Z</time></trkpt><trkpt lat="44.4750417" lon="10.7746633"><ele>496.0</ele><time>2026-04-26T07:29:16.475Z</time></trkpt><trkpt lat="44.4749183" lon="10.7746517"><ele>492.0</ele><time>2026-04-26T07:29:17.475Z</time></trkpt><trkpt lat="44.4748167" lon="10.7746117"><ele>492.0</ele><time>2026-04-26T07:29:18.475Z</time></trkpt><trkpt lat="44.474745" lon="10.7745167"><ele>492.00000000000006</ele><time>2026-04-26T07:29:19.475Z</time></trkpt><trkpt lat="44.4747217" lon="10.77439"><ele>492.00000000000006</ele><time>2026-04-26T07:29:20.475Z</time></trkpt><trkpt lat="44.4747383" lon="10.7742567"><ele>492.0</ele><time>2026-04-26T07:29:21.475Z</time></trkpt><trkpt lat="44.4747883" lon="10.7741083"><ele>492.0</ele><time>2026-04-26T07:29:22.475Z</time></trkpt><trkpt lat="44.4749017" lon="10.77395"><ele>490.66666666666663</ele><time>2026-04-26T07:29:23.475Z</time></trkpt><trkpt lat="44.4750533" lon="10.77378"><ele>489.3333333333333</ele><time>2026-04-26T07:29:24.475Z</time></trkpt><trkpt lat="44.4751733" lon="10.7736167"><ele>488.0</ele><time>2026-04-26T07:29:25.475Z</time></trkpt><trkpt lat="44.4752783" lon="10.773465"><ele>488.0</ele><time>2026-04-26T07:29:26.475Z</time></trkpt><trkpt lat="44.4753617" lon="10.7733133"><ele>488.0</ele><time>2026-04-26T07:29:27.475Z</time></trkpt><trkpt lat="44.4754133" lon="10.77316"><ele>488.0</ele><time>2026-04-26T07:29:28.475Z</time></trkpt><trkpt lat="44.4754217" lon="10.7729883"><ele>488.0</ele><time>2026-04-26T07:29:29.475Z</time></trkpt><trkpt lat="44.4753817" lon="10.77282"><ele>487.3333333333333</ele><time>2026-04-26T07:29:30.475Z</time></trkpt><trkpt lat="44.4752833" lon="10.77265"><ele>486.66666666666663</ele><time>2026-04-26T07:29:31.475Z</time></trkpt><trkpt lat="44.4751633" lon="10.772485"><ele>486.0</ele><time>2026-04-26T07:29:32.475Z</time></trkpt><trkpt lat="44.4750317" lon="10.7723133"><ele>486.0</ele><time>2026-04-26T07:29:33.475Z</time></trkpt><trkpt lat="44.474905" lon="10.772145"><ele>486.0</ele><time>2026-04-26T07:29:34.475Z</time></trkpt><trkpt lat="44.474785" lon="10.7719933"><ele>486.0</ele><time>2026-04-26T07:29:35.475Z</time></trkpt><trkpt lat="44.4746833" lon="10.771865"><ele>483.75</ele><time>2026-04-26T07:29:36.475Z</time></trkpt><trkpt lat="44.4745833" lon="10.7717217"><ele>481.5</ele><time>2026-04-26T07:29:37.475Z</time></trkpt><trkpt lat="44.474475" lon="10.7715717"><ele>479.25</ele><time>2026-04-26T07:29:38.475Z</time></trkpt><trkpt lat="44.4743767" lon="10.7714233"><ele>477.0</ele><time>2026-04-26T07:29:39.475Z</time></trkpt><trkpt lat="44.47429" lon="10.771285"><ele>477.0</ele><time>2026-04-26T07:29:40.475Z</time></trkpt><trkpt lat="44.47421" lon="10.7711467"><ele>477.0</ele><time>2026-04-26T07:29:41.475Z</time></trkpt><trkpt lat="44.474135" lon="10.771"><ele>477.0</ele><time>2026-04-26T07:29:42.475Z</time></trkpt><trkpt lat="44.47407" lon="10.770865"><ele>477.0</ele><time>2026-04-26T07:29:43.475Z</time></trkpt><trkpt lat="44.47402" lon="10.770735"><ele>478.40000000000003</ele><time>2026-04-26T07:29:44.475Z</time></trkpt><trkpt lat="44.4739883" lon="10.770615"><ele>479.80000000000007</ele><time>2026-04-26T07:29:45.475Z</time></trkpt><trkpt lat="44.474005" lon="10.7704733"><ele>481.2</ele><time>2026-04-26T07:29:46.475Z</time></trkpt><trkpt lat="44.4740433" lon="10.7703267"><ele>482.6</ele><time>2026-04-26T07:29:47.475Z</time></trkpt><trkpt lat="44.4740833" lon="10.77016"><ele>484.0</ele><time>2026-04-26T07:29:48.475Z</time></trkpt><trkpt lat="44.4741283" lon="10.7699767"><ele>484.0</ele><time>2026-04-26T07:29:49.475Z</time></trkpt><trkpt lat="44.4741717" lon="10.7697867"><ele>484.0</ele><time>2026-04-26T07:29:50.475Z</time></trkpt><trkpt lat="44.47421" lon="10.7695967"><ele>484.0</ele><time>2026-04-26T07:29:51.475Z</time></trkpt><trkpt lat="44.4742417" lon="10.7694133"><ele>484.0</ele><time>2026-04-26T07:29:52.475Z</time></trkpt><trkpt lat="44.474265" lon="10.76923"><ele>482.5</ele><time>2026-04-26T07:29:53.475Z</time></trkpt><trkpt lat="44.474275" lon="10.76905"><ele>481.0</ele><time>2026-04-26T07:29:54.475Z</time></trkpt><trkpt lat="44.4742367" lon="10.7688867"><ele>479.5</ele><time>2026-04-26T07:29:55.475Z</time></trkpt><trkpt lat="44.47416" lon="10.7687283"><ele>478.0</ele><time>2026-04-26T07:29:56.475Z</time></trkpt><trkpt lat="44.4740583" lon="10.7685833"><ele>477.33333333333337</ele><time>2026-04-26T07:29:57.475Z</time></trkpt><trkpt lat="44.4739483" lon="10.768465"><ele>476.66666666666663</ele><time>2026-04-26T07:29:58.475Z</time></trkpt><trkpt lat="44.4738183" lon="10.76834"><ele>476.0</ele><time>2026-04-26T07:29:59.475Z</time></trkpt><trkpt lat="44.4736933" lon="10.7682083"><ele>473.0</ele><time>2026-04-26T07:30:00.475Z</time></trkpt><trkpt lat="44.473565" lon="10.7680733"><ele>470.0</ele><time>2026-04-26T07:30:01.476Z</time></trkpt><trkpt lat="44.473445" lon="10.76794"><ele>467.0</ele><time>2026-04-26T07:30:02.475Z</time></trkpt><trkpt lat="44.473325" lon="10.7677967"><ele>464.75</ele><time>2026-04-26T07:30:03.475Z</time></trkpt><trkpt lat="44.473215" lon="10.7676583"><ele>462.5</ele><time>2026-04-26T07:30:04.475Z</time></trkpt><trkpt lat="44.4731067" lon="10.7675183"><ele>460.25</ele><time>2026-04-26T07:30:05.475Z</time></trkpt><trkpt lat="44.4729967" lon="10.7673933"><ele>458.0</ele><time>2026-04-26T07:30:06.475Z</time></trkpt><trkpt lat="44.472875" lon="10.767285"><ele>458.0</ele><time>2026-04-26T07:30:07.475Z</time></trkpt><trkpt lat="44.4727517" lon="10.7672217"><ele>458.0</ele><time>2026-04-26T07:30:08.475Z</time></trkpt><trkpt lat="44.4726183" lon="10.7672033"><ele>458.0</ele><time>2026-04-26T07:30:09.475Z</time></trkpt><trkpt lat="44.4724783" lon="10.7671983"><ele>458.0</ele><time>2026-04-26T07:30:10.475Z</time></trkpt><trkpt lat="44.4723617" lon="10.7671883"><ele>458.0</ele><time>2026-04-26T07:30:11.475Z</time></trkpt><trkpt lat="44.4722667" lon="10.7671383"><ele>458.0</ele><time>2026-04-26T07:30:12.475Z</time></trkpt><trkpt lat="44.4721883" lon="10.7670433"><ele>458.0</ele><time>2026-04-26T07:30:13.475Z</time></trkpt><trkpt lat="44.4721167" lon="10.7669033"><ele>458.0</ele><time>2026-04-26T07:30:14.475Z</time></trkpt><trkpt lat="44.4720567" lon="10.76675"><ele>457.0</ele><time>2026-04-26T07:30:15.475Z</time></trkpt><trkpt lat="44.471995" lon="10.7665817"><ele>456.0</ele><time>2026-04-26T07:30:16.475Z</time></trkpt><trkpt lat="44.47193" lon="10.7664067"><ele>455.0</ele><time>2026-04-26T07:30:17.475Z</time></trkpt><trkpt lat="44.4718667" lon="10.7662317"><ele>454.0</ele><time>2026-04-26T07:30:18.475Z</time></trkpt><trkpt lat="44.4718" lon="10.766065"><ele>455.5</ele><time>2026-04-26T07:30:19.475Z</time></trkpt><trkpt lat="44.47172" lon="10.7659067"><ele>457.0</ele><time>2026-04-26T07:30:20.475Z</time></trkpt><trkpt lat="44.47163" lon="10.7657783"><ele>458.5</ele><time>2026-04-26T07:30:21.475Z</time></trkpt><trkpt lat="44.4715167" lon="10.7656633"><ele>460.0</ele><time>2026-04-26T07:30:22.475Z</time></trkpt><trkpt lat="44.4713883" lon="10.765545"><ele>452.6666666666667</ele><time>2026-04-26T07:30:23.475Z</time></trkpt><trkpt lat="44.4712533" lon="10.7654283"><ele>445.33333333333337</ele><time>2026-04-26T07:30:24.475Z</time></trkpt><trkpt lat="44.4711283" lon="10.765325"><ele>438.0</ele><time>2026-04-26T07:30:25.475Z</time></trkpt><trkpt lat="44.4709933" lon="10.76521"><ele>443.0</ele><time>2026-04-26T07:30:26.475Z</time></trkpt><trkpt lat="44.470855" lon="10.7650933"><ele>448.0</ele><time>2026-04-26T07:30:27.475Z</time></trkpt><trkpt lat="44.4707167" lon="10.76497"><ele>453.0</ele><time>2026-04-26T07:30:28.475Z</time></trkpt><trkpt lat="44.47058" lon="10.7648517"><ele>453.0</ele><time>2026-04-26T07:30:29.475Z</time></trkpt><trkpt lat="44.4704417" lon="10.7647267"><ele>453.0</ele><time>2026-04-26T07:30:30.475Z</time></trkpt><trkpt lat="44.4703083" lon="10.7646"><ele>453.0</ele><time>2026-04-26T07:30:31.475Z</time></trkpt><trkpt lat="44.4701733" lon="10.76448"><ele>449.33333333333337</ele><time>2026-04-26T07:30:32.475Z</time></trkpt><trkpt lat="44.4700383" lon="10.764365"><ele>445.6666666666667</ele><time>2026-04-26T07:30:33.475Z</time></trkpt><trkpt lat="44.4698983" lon="10.7642683"><ele>442.0</ele><time>2026-04-26T07:30:34.475Z</time></trkpt><trkpt lat="44.4697667" lon="10.7641767"><ele>442.0</ele><time>2026-04-26T07:30:35.475Z</time></trkpt><trkpt lat="44.469625" lon="10.7641233"><ele>442.0</ele><time>2026-04-26T07:30:36.475Z</time></trkpt><trkpt lat="44.4694817" lon="10.7640817"><ele>442.0</ele><time>2026-04-26T07:30:37.475Z</time></trkpt><trkpt lat="44.4693333" lon="10.7640683"><ele>442.0</ele><time>2026-04-26T07:30:38.475Z</time></trkpt><trkpt lat="44.4691767" lon="10.7640917"><ele>440.6666666666667</ele><time>2026-04-26T07:30:39.475Z</time></trkpt><trkpt lat="44.4690067" lon="10.76411"><ele>439.33333333333337</ele><time>2026-04-26T07:30:40.475Z</time></trkpt><trkpt lat="44.4688317" lon="10.7641117"><ele>438.0</ele><time>2026-04-26T07:30:41.475Z</time></trkpt><trkpt lat="44.46866" lon="10.7640933"><ele>436.66666666666663</ele><time>2026-04-26T07:30:42.475Z</time></trkpt><trkpt lat="44.4684933" lon="10.7640683"><ele>435.3333333333333</ele><time>2026-04-26T07:30:43.475Z</time></trkpt><trkpt lat="44.468325" lon="10.7640533"><ele>434.0</ele><time>2026-04-26T07:30:44.475Z</time></trkpt><trkpt lat="44.4681717" lon="10.7640567"><ele>434.0</ele><time>2026-04-26T07:30:45.475Z</time></trkpt><trkpt lat="44.4680117" lon="10.76406"><ele>434.0</ele><time>2026-04-26T07:30:46.475Z</time></trkpt><trkpt lat="44.4678483" lon="10.7640567"><ele>434.0</ele><time>2026-04-26T07:30:47.475Z</time></trkpt><trkpt lat="44.467695" lon="10.7640233"><ele>435.5</ele><time>2026-04-26T07:30:48.476Z</time></trkpt><trkpt lat="44.467545" lon="10.7639767"><ele>437.0</ele><time>2026-04-26T07:30:49.475Z</time></trkpt><trkpt lat="44.467405" lon="10.7639133"><ele>438.5</ele><time>2026-04-26T07:30:50.475Z</time></trkpt><trkpt lat="44.46728" lon="10.7638483"><ele>440.0</ele><time>2026-04-26T07:30:51.475Z</time></trkpt><trkpt lat="44.4671667" lon="10.7637833"><ele>443.4</ele><time>2026-04-26T07:30:52.475Z</time></trkpt><trkpt lat="44.4670617" lon="10.76375"><ele>446.8</ele><time>2026-04-26T07:30:53.475Z</time></trkpt><trkpt lat="44.46696" lon="10.763765"><ele>450.20000000000005</ele><time>2026-04-26T07:30:54.475Z</time></trkpt><trkpt lat="44.4668783" lon="10.7638417"><ele>453.6</ele><time>2026-04-26T07:30:55.475Z</time></trkpt><trkpt lat="44.4668233" lon="10.7639617"><ele>457.0</ele><time>2026-04-26T07:30:56.475Z</time></trkpt><trkpt lat="44.4667817" lon="10.7640917"><ele>457.0</ele><time>2026-04-26T07:30:57.475Z</time></trkpt><trkpt lat="44.46674" lon="10.7642233"><ele>457.00000000000006</ele><time>2026-04-26T07:30:58.475Z</time></trkpt><trkpt lat="44.466695" lon="10.7643583"><ele>457.00000000000006</ele><time>2026-04-26T07:30:59.475Z</time></trkpt><trkpt lat="44.4666367" lon="10.76449"><ele>457.0</ele><time>2026-04-26T07:31:00.475Z</time></trkpt><trkpt lat="44.4665717" lon="10.76462"><ele>457.0</ele><time>2026-04-26T07:31:01.476Z</time></trkpt><trkpt lat="44.4664967" lon="10.7647467"><ele>456.25</ele><time>2026-04-26T07:31:02.475Z</time></trkpt><trkpt lat="44.4664133" lon="10.7648767"><ele>455.5</ele><time>2026-04-26T07:31:03.475Z</time></trkpt><trkpt lat="44.46632" lon="10.7650033"><ele>454.75</ele><time>2026-04-26T07:31:04.475Z</time></trkpt><trkpt lat="44.4662217" lon="10.7651217"><ele>454.0</ele><time>2026-04-26T07:31:05.475Z</time></trkpt><trkpt lat="44.4661117" lon="10.765245"><ele>458.25</ele><time>2026-04-26T07:31:06.475Z</time></trkpt><trkpt lat="44.4660083" lon="10.765365"><ele>462.5</ele><time>2026-04-26T07:31:07.475Z</time></trkpt><trkpt lat="44.4659083" lon="10.7654867"><ele>466.75</ele><time>2026-04-26T07:31:08.475Z</time></trkpt><trkpt lat="44.46582" lon="10.7656083"><ele>471.0</ele><time>2026-04-26T07:31:09.475Z</time></trkpt><trkpt lat="44.4657567" lon="10.7657167"><ele>471.0</ele><time>2026-04-26T07:31:10.475Z</time></trkpt><trkpt lat="44.4657283" lon="10.765845"><ele>471.0</ele><time>2026-04-26T07:31:11.475Z</time></trkpt><trkpt lat="44.46574" lon="10.765975"><ele>471.0</ele><time>2026-04-26T07:31:12.475Z</time></trkpt><trkpt lat="44.4657867" lon="10.7660867"><ele>471.0</ele><time>2026-04-26T07:31:13.475Z</time></trkpt><trkpt lat="44.46586" lon="10.7661633"><ele>471.0</ele><time>2026-04-26T07:31:14.475Z</time></trkpt><trkpt lat="44.4659683" lon="10.76619"><ele>471.33333333333337</ele><time>2026-04-26T07:31:15.475Z</time></trkpt><trkpt lat="44.4661017" lon="10.7661767"><ele>471.6666666666667</ele><time>2026-04-26T07:31:16.475Z</time></trkpt><trkpt lat="44.4662583" lon="10.7661383"><ele>472.0</ele><time>2026-04-26T07:31:17.475Z</time></trkpt><trkpt lat="44.46642" lon="10.766095"><ele>472.0</ele><time>2026-04-26T07:31:18.476Z</time></trkpt><trkpt lat="44.4665667" lon="10.7660717"><ele>472.0</ele><time>2026-04-26T07:31:19.475Z</time></trkpt><trkpt lat="44.4666983" lon="10.766085"><ele>472.0</ele><time>2026-04-26T07:31:20.475Z</time></trkpt><trkpt lat="44.4668133" lon="10.7661467"><ele>472.0</ele><time>2026-04-26T07:31:21.475Z</time></trkpt><trkpt lat="44.46691" lon="10.7662633"><ele>472.0</ele><time>2026-04-26T07:31:22.475Z</time></trkpt><trkpt lat="44.466985" lon="10.7664083"><ele>472.0</ele><time>2026-04-26T07:31:23.475Z</time></trkpt><trkpt lat="44.4670367" lon="10.7665783"><ele>472.0</ele><time>2026-04-26T07:31:24.475Z</time></trkpt><trkpt lat="44.4670517" lon="10.7667617"><ele>472.0</ele><time>2026-04-26T07:31:25.475Z</time></trkpt><trkpt lat="44.4670483" lon="10.7669617"><ele>469.6666666666667</ele><time>2026-04-26T07:31:26.475Z</time></trkpt><trkpt lat="44.467055" lon="10.7671683"><ele>467.33333333333337</ele><time>2026-04-26T07:31:27.475Z</time></trkpt><trkpt lat="44.4670883" lon="10.767385"><ele>465.0</ele><time>2026-04-26T07:31:28.475Z</time></trkpt><trkpt lat="44.46713" lon="10.76758"><ele>466.5</ele><time>2026-04-26T07:31:29.475Z</time></trkpt><trkpt lat="44.467175" lon="10.7677583"><ele>468.0</ele><time>2026-04-26T07:31:30.475Z</time></trkpt><trkpt lat="44.467225" lon="10.767925"><ele>469.5</ele><time>2026-04-26T07:31:31.475Z</time></trkpt><trkpt lat="44.46727" lon="10.76808"><ele>471.0</ele><time>2026-04-26T07:31:32.475Z</time></trkpt><trkpt lat="44.4673083" lon="10.7682483"><ele>471.0</ele><time>2026-04-26T07:31:33.474Z</time></trkpt><trkpt lat="44.4673117" lon="10.7684133"><ele>471.0</ele><time>2026-04-26T07:31:34.474Z</time></trkpt><trkpt lat="44.4672583" lon="10.7685433"><ele>471.0</ele><time>2026-04-26T07:31:35.474Z</time></trkpt><trkpt lat="44.4671767" lon="10.7685983"><ele>471.0</ele><time>2026-04-26T07:31:36.474Z</time></trkpt><trkpt lat="44.46709" lon="10.7685883"><ele>471.0</ele><time>2026-04-26T07:31:37.474Z</time></trkpt><trkpt lat="44.467" lon="10.7685333"><ele>474.5</ele><time>2026-04-26T07:31:38.474Z</time></trkpt><trkpt lat="44.46691" lon="10.7684433"><ele>478.0</ele><time>2026-04-26T07:31:39.474Z</time></trkpt><trkpt lat="44.466825" lon="10.7683367"><ele>481.5</ele><time>2026-04-26T07:31:40.474Z</time></trkpt><trkpt lat="44.4667517" lon="10.7682167"><ele>485.0</ele><time>2026-04-26T07:31:41.474Z</time></trkpt><trkpt lat="44.4666967" lon="10.7680633"><ele>485.0</ele><time>2026-04-26T07:31:42.475Z</time></trkpt><trkpt lat="44.4666467" lon="10.767905"><ele>485.0</ele><time>2026-04-26T07:31:43.474Z</time></trkpt><trkpt lat="44.4665933" lon="10.7677383"><ele>485.0</ele><time>2026-04-26T07:31:44.474Z</time></trkpt><trkpt lat="44.4665383" lon="10.7676067"><ele>485.0</ele><time>2026-04-26T07:31:45.474Z</time></trkpt><trkpt lat="44.4664717" lon="10.7675133"><ele>484.0</ele><time>2026-04-26T07:31:46.475Z</time></trkpt><trkpt lat="44.46638" lon="10.7674917"><ele>483.0</ele><time>2026-04-26T07:31:47.474Z</time></trkpt><trkpt lat="44.4662833" lon="10.7675317"><ele>482.0</ele><time>2026-04-26T07:31:48.474Z</time></trkpt><trkpt lat="44.4662017" lon="10.7676233"><ele>481.0</ele><time>2026-04-26T07:31:49.474Z</time></trkpt><trkpt lat="44.4661583" lon="10.7677917"><ele>480.0</ele><time>2026-04-26T07:31:50.475Z</time></trkpt><trkpt lat="44.4661367" lon="10.7679983"><ele>484.0</ele><time>2026-04-26T07:31:51.474Z</time></trkpt><trkpt lat="44.4661133" lon="10.7682117"><ele>488.0</ele><time>2026-04-26T07:31:52.474Z</time></trkpt><trkpt lat="44.46611" lon="10.768415"><ele>492.0</ele><time>2026-04-26T07:31:53.474Z</time></trkpt><trkpt lat="44.4661517" lon="10.768615"><ele>496.0</ele><time>2026-04-26T07:31:54.474Z</time></trkpt><trkpt lat="44.466245" lon="10.7688117"><ele>494.0</ele><time>2026-04-26T07:31:55.474Z</time></trkpt><trkpt lat="44.4663583" lon="10.769"><ele>492.0</ele><time>2026-04-26T07:31:56.474Z</time></trkpt><trkpt lat="44.4664667" lon="10.7691617"><ele>490.0</ele><time>2026-04-26T07:31:57.474Z</time></trkpt><trkpt lat="44.4665733" lon="10.769305"><ele>490.2</ele><time>2026-04-26T07:31:58.474Z</time></trkpt><trkpt lat="44.4666567" lon="10.76943"><ele>490.4</ele><time>2026-04-26T07:31:59.474Z</time></trkpt><trkpt lat="44.4666917" lon="10.76956"><ele>490.6</ele><time>2026-04-26T07:32:00.474Z</time></trkpt><trkpt lat="44.4666817" lon="10.7696933"><ele>490.8</ele><time>2026-04-26T07:32:01.474Z</time></trkpt><trkpt lat="44.46661" lon="10.7698267"><ele>491.0</ele><time>2026-04-26T07:32:02.474Z</time></trkpt><trkpt lat="44.4665067" lon="10.76993"><ele>491.0</ele><time>2026-04-26T07:32:03.474Z</time></trkpt><trkpt lat="44.4663967" lon="10.7700033"><ele>491.0</ele><time>2026-04-26T07:32:04.474Z</time></trkpt><trkpt lat="44.466285" lon="10.7700183"><ele>491.0</ele><time>2026-04-26T07:32:05.474Z</time></trkpt><trkpt lat="44.466185" lon="10.7699467"><ele>491.0</ele><time>2026-04-26T07:32:06.474Z</time></trkpt><trkpt lat="44.4660733" lon="10.769825"><ele>492.3333333333333</ele><time>2026-04-26T07:32:07.474Z</time></trkpt><trkpt lat="44.4659583" lon="10.76966"><ele>493.66666666666663</ele><time>2026-04-26T07:32:08.475Z</time></trkpt><trkpt lat="44.46584" lon="10.7694917"><ele>495.0</ele><time>2026-04-26T07:32:09.474Z</time></trkpt><trkpt lat="44.4657383" lon="10.7692867"><ele>497.0</ele><time>2026-04-26T07:32:10.474Z</time></trkpt><trkpt lat="44.4656517" lon="10.7690717"><ele>499.0</ele><time>2026-04-26T07:32:11.474Z</time></trkpt><trkpt lat="44.4655783" lon="10.76887"><ele>501.0</ele><time>2026-04-26T07:32:12.474Z</time></trkpt><trkpt lat="44.4655033" lon="10.768685"><ele>504.25</ele><time>2026-04-26T07:32:13.474Z</time></trkpt><trkpt lat="44.4654283" lon="10.7685233"><ele>507.5</ele><time>2026-04-26T07:32:14.474Z</time></trkpt><trkpt lat="44.465325" lon="10.76841"><ele>510.75</ele><time>2026-04-26T07:32:15.474Z</time></trkpt><trkpt lat="44.4652" lon="10.7683"><ele>514.0</ele><time>2026-04-26T07:32:16.474Z</time></trkpt><trkpt lat="44.46506" lon="10.768195"><ele>514.0</ele><time>2026-04-26T07:32:17.474Z</time></trkpt><trkpt lat="44.4649117" lon="10.7680933"><ele>514.0</ele><time>2026-04-26T07:32:18.474Z</time></trkpt><trkpt lat="44.464775" lon="10.76801"><ele>514.0</ele><time>2026-04-26T07:32:19.474Z</time></trkpt><trkpt lat="44.4646417" lon="10.7679667"><ele>517.6666666666667</ele><time>2026-04-26T07:32:20.474Z</time></trkpt><trkpt lat="44.4644833" lon="10.7679683"><ele>521.3333333333334</ele><time>2026-04-26T07:32:21.474Z</time></trkpt><trkpt lat="44.4643233" lon="10.76795"><ele>525.0</ele><time>2026-04-26T07:32:22.474Z</time></trkpt><trkpt lat="44.4641667" lon="10.7678667"><ele>525.0</ele><time>2026-04-26T07:32:23.474Z</time></trkpt><trkpt lat="44.4640117" lon="10.7677283"><ele>525.0</ele><time>2026-04-26T07:32:24.474Z</time></trkpt><trkpt lat="44.463855" lon="10.7676133"><ele>525.0</ele><time>2026-04-26T07:32:25.474Z</time></trkpt><trkpt lat="44.46371" lon="10.7675233"><ele>526.3333333333334</ele><time>2026-04-26T07:32:26.474Z</time></trkpt><trkpt lat="44.4635667" lon="10.76744"><ele>527.6666666666667</ele><time>2026-04-26T07:32:27.474Z</time></trkpt><trkpt lat="44.46343" lon="10.767345"><ele>529.0</ele><time>2026-04-26T07:32:28.474Z</time></trkpt><trkpt lat="44.4633117" lon="10.7672183"><ele>529.0</ele><time>2026-04-26T07:32:29.474Z</time></trkpt><trkpt lat="44.4632133" lon="10.7670617"><ele>529.0</ele><time>2026-04-26T07:32:30.474Z</time></trkpt><trkpt lat="44.4631433" lon="10.7668917"><ele>529.0</ele><time>2026-04-26T07:32:31.474Z</time></trkpt><trkpt lat="44.4631017" lon="10.76672"><ele>529.0</ele><time>2026-04-26T07:32:32.474Z</time></trkpt><trkpt lat="44.4630683" lon="10.7665667"><ele>528.0</ele><time>2026-04-26T07:32:33.474Z</time></trkpt><trkpt lat="44.4630333" lon="10.7664317"><ele>527.0</ele><time>2026-04-26T07:32:34.474Z</time></trkpt><trkpt lat="44.4629717" lon="10.7663567"><ele>526.0</ele><time>2026-04-26T07:32:35.474Z</time></trkpt><trkpt lat="44.4629" lon="10.7663367"><ele>525.0</ele><time>2026-04-26T07:32:36.474Z</time></trkpt><trkpt lat="44.4628333" lon="10.7664"><ele>524.0</ele><time>2026-04-26T07:32:37.474Z</time></trkpt><trkpt lat="44.46279" lon="10.7665167"><ele>523.0</ele><time>2026-04-26T07:32:38.474Z</time></trkpt><trkpt lat="44.462805" lon="10.76667"><ele>524.5</ele><time>2026-04-26T07:32:39.474Z</time></trkpt><trkpt lat="44.4628467" lon="10.76687"><ele>526.0</ele><time>2026-04-26T07:32:40.474Z</time></trkpt><trkpt lat="44.4628883" lon="10.7670717"><ele>527.5</ele><time>2026-04-26T07:32:41.474Z</time></trkpt><trkpt lat="44.46294" lon="10.7672633"><ele>529.0</ele><time>2026-04-26T07:32:42.474Z</time></trkpt><trkpt lat="44.462995" lon="10.7674517"><ele>529.0</ele><time>2026-04-26T07:32:43.474Z</time></trkpt><trkpt lat="44.46305" lon="10.7676333"><ele>529.0</ele><time>2026-04-26T07:32:44.474Z</time></trkpt><trkpt lat="44.4630933" lon="10.7678317"><ele>529.0</ele><time>2026-04-26T07:32:45.474Z</time></trkpt><trkpt lat="44.46309" lon="10.7680283"><ele>529.0</ele><time>2026-04-26T07:32:46.474Z</time></trkpt><trkpt lat="44.4630317" lon="10.7681967"><ele>527.3333333333334</ele><time>2026-04-26T07:32:47.474Z</time></trkpt><trkpt lat="44.462925" lon="10.76833"><ele>525.6666666666666</ele><time>2026-04-26T07:32:48.474Z</time></trkpt><trkpt lat="44.4627783" lon="10.76845"><ele>524.0</ele><time>2026-04-26T07:32:49.474Z</time></trkpt><trkpt lat="44.4626317" lon="10.7685583"><ele>524.0</ele><time>2026-04-26T07:32:50.474Z</time></trkpt><trkpt lat="44.462495" lon="10.7686467"><ele>524.0</ele><time>2026-04-26T07:32:51.474Z</time></trkpt><trkpt lat="44.462355" lon="10.76868"><ele>524.0</ele><time>2026-04-26T07:32:52.474Z</time></trkpt><trkpt lat="44.4622133" lon="10.7686367"><ele>524.0</ele><time>2026-04-26T07:32:53.474Z</time></trkpt><trkpt lat="44.4620733" lon="10.7685567"><ele>530.0</ele><time>2026-04-26T07:32:54.474Z</time></trkpt><trkpt lat="44.461945" lon="10.7684617"><ele>536.0</ele><time>2026-04-26T07:32:55.474Z</time></trkpt><trkpt lat="44.461795" lon="10.7684617"><ele>542.0</ele><time>2026-04-26T07:32:56.474Z</time></trkpt><trkpt lat="44.4616417" lon="10.7685233"><ele>539.0</ele><time>2026-04-26T07:32:57.474Z</time></trkpt><trkpt lat="44.4615017" lon="10.76863"><ele>536.0</ele><time>2026-04-26T07:32:58.474Z</time></trkpt><trkpt lat="44.4613667" lon="10.7687483"><ele>533.0</ele><time>2026-04-26T07:32:59.474Z</time></trkpt><trkpt lat="44.4612217" lon="10.7688483"><ele>533.0</ele><time>2026-04-26T07:33:00.474Z</time></trkpt><trkpt lat="44.4610667" lon="10.7689167"><ele>533.0</ele><time>2026-04-26T07:33:01.474Z</time></trkpt><trkpt lat="44.4609117" lon="10.7689633"><ele>533.0</ele><time>2026-04-26T07:33:02.474Z</time></trkpt><trkpt lat="44.460765" lon="10.7690133"><ele>533.0</ele><time>2026-04-26T07:33:03.474Z</time></trkpt><trkpt lat="44.4606383" lon="10.769075"><ele>533.0</ele><time>2026-04-26T07:33:04.474Z</time></trkpt><trkpt lat="44.4605183" lon="10.7692017"><ele>533.0</ele><time>2026-04-26T07:33:05.474Z</time></trkpt><trkpt lat="44.4604267" lon="10.7693983"><ele>537.0</ele><time>2026-04-26T07:33:06.474Z</time></trkpt><trkpt lat="44.46035" lon="10.7696117"><ele>541.0</ele><time>2026-04-26T07:33:07.474Z</time></trkpt><trkpt lat="44.4602817" lon="10.7698233"><ele>545.0</ele><time>2026-04-26T07:33:08.474Z</time></trkpt><trkpt lat="44.4602183" lon="10.7700167"><ele>539.6666666666666</ele><time>2026-04-26T07:33:09.474Z</time></trkpt><trkpt lat="44.4601617" lon="10.770225"><ele>534.3333333333334</ele><time>2026-04-26T07:33:10.474Z</time></trkpt><trkpt lat="44.4601217" lon="10.7704383"><ele>529.0</ele><time>2026-04-26T07:33:11.474Z</time></trkpt><trkpt lat="44.4600917" lon="10.7706617"><ele>529.0</ele><time>2026-04-26T07:33:12.474Z</time></trkpt><trkpt lat="44.4600883" lon="10.7708833"><ele>529.0</ele><time>2026-04-26T07:33:13.474Z</time></trkpt><trkpt lat="44.4600767" lon="10.77111"><ele>529.0</ele><time>2026-04-26T07:33:14.474Z</time></trkpt><trkpt lat="44.4600283" lon="10.77133"><ele>524.3333333333334</ele><time>2026-04-26T07:33:15.474Z</time></trkpt><trkpt lat="44.45995" lon="10.771555"><ele>519.6666666666666</ele><time>2026-04-26T07:33:16.474Z</time></trkpt><trkpt lat="44.45985" lon="10.77178"><ele>515.0</ele><time>2026-04-26T07:33:17.474Z</time></trkpt><trkpt lat="44.45974" lon="10.7720033"><ele>516.0</ele><time>2026-04-26T07:33:18.474Z</time></trkpt><trkpt lat="44.459615" lon="10.7722067"><ele>517.0</ele><time>2026-04-26T07:33:19.474Z</time></trkpt><trkpt lat="44.4594917" lon="10.7723833"><ele>518.0</ele><time>2026-04-26T07:33:20.474Z</time></trkpt><trkpt lat="44.4593667" lon="10.7725333"><ele>518.0</ele><time>2026-04-26T07:33:21.474Z</time></trkpt><trkpt lat="44.4592333" lon="10.7726417"><ele>518.0</ele><time>2026-04-26T07:33:22.474Z</time></trkpt><trkpt lat="44.4590983" lon="10.7726717"><ele>518.0</ele><time>2026-04-26T07:33:23.474Z</time></trkpt><trkpt lat="44.4589767" lon="10.7726483"><ele>518.0</ele><time>2026-04-26T07:33:24.474Z</time></trkpt><trkpt lat="44.45886" lon="10.7725433"><ele>511.66666666666663</ele><time>2026-04-26T07:33:25.474Z</time></trkpt><trkpt lat="44.4587617" lon="10.7723833"><ele>505.33333333333337</ele><time>2026-04-26T07:33:26.474Z</time></trkpt><trkpt lat="44.4586783" lon="10.7721883"><ele>499.0</ele><time>2026-04-26T07:33:27.474Z</time></trkpt><trkpt lat="44.458615" lon="10.77196"><ele>502.6666666666667</ele><time>2026-04-26T07:33:28.474Z</time></trkpt><trkpt lat="44.458575" lon="10.7717133"><ele>506.33333333333337</ele><time>2026-04-26T07:33:29.474Z</time></trkpt><trkpt lat="44.45855" lon="10.771455"><ele>510.0</ele><time>2026-04-26T07:33:30.474Z</time></trkpt><trkpt lat="44.4585267" lon="10.7712083"><ele>512.0</ele><time>2026-04-26T07:33:31.474Z</time></trkpt><trkpt lat="44.4584933" lon="10.77097"><ele>514.0</ele><time>2026-04-26T07:33:32.474Z</time></trkpt><trkpt lat="44.4584367" lon="10.770745"><ele>516.0</ele><time>2026-04-26T07:33:33.474Z</time></trkpt><trkpt lat="44.4583367" lon="10.7705383"><ele>516.0</ele><time>2026-04-26T07:33:34.474Z</time></trkpt><trkpt lat="44.4582183" lon="10.7703617"><ele>516.0</ele><time>2026-04-26T07:33:35.474Z</time></trkpt><trkpt lat="44.4580633" lon="10.770205"><ele>516.0</ele><time>2026-04-26T07:33:36.474Z</time></trkpt><trkpt lat="44.4578917" lon="10.7700733"><ele>515.3333333333334</ele><time>2026-04-26T07:33:37.474Z</time></trkpt><trkpt lat="44.4577367" lon="10.7699583"><ele>514.6666666666667</ele><time>2026-04-26T07:33:38.474Z</time></trkpt><trkpt lat="44.457605" lon="10.769835"><ele>514.0</ele><time>2026-04-26T07:33:39.474Z</time></trkpt><trkpt lat="44.4574917" lon="10.769695"><ele>514.0</ele><time>2026-04-26T07:33:40.474Z</time></trkpt><trkpt lat="44.4573967" lon="10.7695467"><ele>514.0</ele><time>2026-04-26T07:33:41.474Z</time></trkpt><trkpt lat="44.457315" lon="10.7694133"><ele>514.0</ele><time>2026-04-26T07:33:42.474Z</time></trkpt><trkpt lat="44.4572383" lon="10.76927"><ele>514.0</ele><time>2026-04-26T07:33:43.474Z</time></trkpt><trkpt lat="44.4571867" lon="10.76911"><ele>516.0</ele><time>2026-04-26T07:33:44.474Z</time></trkpt><trkpt lat="44.4571733" lon="10.7689217"><ele>518.0</ele><time>2026-04-26T07:33:45.474Z</time></trkpt><trkpt lat="44.457185" lon="10.7687133"><ele>520.0</ele><time>2026-04-26T07:33:46.474Z</time></trkpt><trkpt lat="44.4571817" lon="10.7684917"><ele>522.0</ele><time>2026-04-26T07:33:47.475Z</time></trkpt><trkpt lat="44.4571367" lon="10.768255"><ele>517.6666666666666</ele><time>2026-04-26T07:33:48.474Z</time></trkpt><trkpt lat="44.45706" lon="10.768005"><ele>513.3333333333333</ele><time>2026-04-26T07:33:49.474Z</time></trkpt><trkpt lat="44.4569867" lon="10.7677517"><ele>509.0</ele><time>2026-04-26T07:33:50.474Z</time></trkpt><trkpt lat="44.4569217" lon="10.7675183"><ele>509.0</ele><time>2026-04-26T07:33:51.474Z</time></trkpt><trkpt lat="44.4568483" lon="10.767315"><ele>509.0</ele><time>2026-04-26T07:33:52.474Z</time></trkpt><trkpt lat="44.4567567" lon="10.7671483"><ele>509.0</ele><time>2026-04-26T07:33:53.474Z</time></trkpt><trkpt lat="44.4566233" lon="10.76703"><ele>509.0</ele><time>2026-04-26T07:33:54.474Z</time></trkpt><trkpt lat="44.456475" lon="10.76692"><ele>509.0</ele><time>2026-04-26T07:33:55.474Z</time></trkpt><trkpt lat="44.45632" lon="10.76682"><ele>509.0</ele><time>2026-04-26T07:33:56.474Z</time></trkpt><trkpt lat="44.456175" lon="10.76674"><ele>509.0</ele><time>2026-04-26T07:33:57.474Z</time></trkpt><trkpt lat="44.4560333" lon="10.7666883"><ele>509.0</ele><time>2026-04-26T07:33:58.474Z</time></trkpt><trkpt lat="44.4558967" lon="10.766645"><ele>509.0</ele><time>2026-04-26T07:33:59.474Z</time></trkpt><trkpt lat="44.45576" lon="10.7665883"><ele>509.0</ele><time>2026-04-26T07:34:00.474Z</time></trkpt><trkpt lat="44.4556283" lon="10.7664917"><ele>509.0</ele><time>2026-04-26T07:34:01.474Z</time></trkpt><trkpt lat="44.4555" lon="10.7663667"><ele>509.0</ele><time>2026-04-26T07:34:02.474Z</time></trkpt><trkpt lat="44.4553867" lon="10.76622"><ele>509.0</ele><time>2026-04-26T07:34:03.474Z</time></trkpt><trkpt lat="44.4552717" lon="10.7660667"><ele>509.3333333333333</ele><time>2026-04-26T07:34:04.474Z</time></trkpt><trkpt lat="44.455155" lon="10.765925"><ele>509.66666666666663</ele><time>2026-04-26T07:34:05.474Z</time></trkpt><trkpt lat="44.45504" lon="10.76578"><ele>510.0</ele><time>2026-04-26T07:34:06.474Z</time></trkpt><trkpt lat="44.4549233" lon="10.7656367"><ele>510.0</ele><time>2026-04-26T07:34:07.474Z</time></trkpt><trkpt lat="44.4548117" lon="10.7654933"><ele>510.0</ele><time>2026-04-26T07:34:08.474Z</time></trkpt><trkpt lat="44.4547017" lon="10.7653483"><ele>510.0</ele><time>2026-04-26T07:34:09.474Z</time></trkpt><trkpt lat="44.454605" lon="10.765195"><ele>510.0</ele><time>2026-04-26T07:34:10.475Z</time></trkpt><trkpt lat="44.45451" lon="10.7650383"><ele>508.5</ele><time>2026-04-26T07:34:11.474Z</time></trkpt><trkpt lat="44.4544167" lon="10.764875"><ele>507.0</ele><time>2026-04-26T07:34:12.474Z</time></trkpt><trkpt lat="44.454335" lon="10.7647183"><ele>505.5</ele><time>2026-04-26T07:34:13.474Z</time></trkpt><trkpt lat="44.4542567" lon="10.7645633"><ele>504.0</ele><time>2026-04-26T07:34:14.474Z</time></trkpt><trkpt lat="44.45418" lon="10.7644233"><ele>504.75</ele><time>2026-04-26T07:34:15.474Z</time></trkpt><trkpt lat="44.45409" lon="10.764285"><ele>505.5</ele><time>2026-04-26T07:34:16.474Z</time></trkpt><trkpt lat="44.4540033" lon="10.764145"><ele>506.25</ele><time>2026-04-26T07:34:17.475Z</time></trkpt><trkpt lat="44.4539017" lon="10.7640117"><ele>507.0</ele><time>2026-04-26T07:34:18.474Z</time></trkpt><trkpt lat="44.453795" lon="10.7638983"><ele>506.25</ele><time>2026-04-26T07:34:19.474Z</time></trkpt><trkpt lat="44.4536867" lon="10.7637933"><ele>505.5</ele><time>2026-04-26T07:34:20.474Z</time></trkpt><trkpt lat="44.45357" lon="10.7636833"><ele>504.75</ele><time>2026-04-26T07:34:21.474Z</time></trkpt><trkpt lat="44.4534583" lon="10.7635817"><ele>504.0</ele><time>2026-04-26T07:34:22.474Z</time></trkpt><trkpt lat="44.453345" lon="10.763465"><ele>503.75</ele><time>2026-04-26T07:34:23.475Z</time></trkpt><trkpt lat="44.45323" lon="10.7633483"><ele>503.5</ele><time>2026-04-26T07:34:24.474Z</time></trkpt><trkpt lat="44.4531183" lon="10.7632233"><ele>503.25</ele><time>2026-04-26T07:34:25.474Z</time></trkpt><trkpt lat="44.4529983" lon="10.763115"><ele>503.0</ele><time>2026-04-26T07:34:26.474Z</time></trkpt><trkpt lat="44.45288" lon="10.7630133"><ele>503.0</ele><time>2026-04-26T07:34:27.474Z</time></trkpt><trkpt lat="44.4527617" lon="10.7629183"><ele>503.0</ele><time>2026-04-26T07:34:28.474Z</time></trkpt><trkpt lat="44.4526483" lon="10.7628467"><ele>503.0</ele><time>2026-04-26T07:34:29.474Z</time></trkpt><trkpt lat="44.452525" lon="10.7628033"><ele>503.0</ele><time>2026-04-26T07:34:30.474Z</time></trkpt><trkpt lat="44.4524017" lon="10.7627783"><ele>503.0</ele><time>2026-04-26T07:34:31.474Z</time></trkpt><trkpt lat="44.4522767" lon="10.76277"><ele>503.0</ele><time>2026-04-26T07:34:32.474Z</time></trkpt><trkpt lat="44.4521433" lon="10.7627717"><ele>503.0</ele><time>2026-04-26T07:34:33.474Z</time></trkpt><trkpt lat="44.4519917" lon="10.7627767"><ele>503.0</ele><time>2026-04-26T07:34:34.474Z</time></trkpt><trkpt lat="44.45184" lon="10.7627833"><ele>502.0</ele><time>2026-04-26T07:34:35.474Z</time></trkpt><trkpt lat="44.451685" lon="10.7627833"><ele>501.0</ele><time>2026-04-26T07:34:36.474Z</time></trkpt><trkpt lat="44.4515267" lon="10.7627933"><ele>500.0</ele><time>2026-04-26T07:34:37.474Z</time></trkpt><trkpt lat="44.45139" lon="10.7628017"><ele>501.0</ele><time>2026-04-26T07:34:38.474Z</time></trkpt><trkpt lat="44.451245" lon="10.7628067"><ele>502.0</ele><time>2026-04-26T07:34:39.475Z</time></trkpt><trkpt lat="44.4511283" lon="10.76281"><ele>503.0</ele><time>2026-04-26T07:34:40.474Z</time></trkpt><trkpt lat="44.451015" lon="10.7628217"><ele>504.0</ele><time>2026-04-26T07:34:41.474Z</time></trkpt><trkpt lat="44.4509067" lon="10.7628467"><ele>504.0</ele><time>2026-04-26T07:34:42.474Z</time></trkpt><trkpt lat="44.4507917" lon="10.7629017"><ele>504.0</ele><time>2026-04-26T07:34:43.474Z</time></trkpt><trkpt lat="44.4506917" lon="10.7629533"><ele>504.0</ele><time>2026-04-26T07:34:44.474Z</time></trkpt><trkpt lat="44.4506033" lon="10.762985"><ele>504.0</ele><time>2026-04-26T07:34:45.474Z</time></trkpt><trkpt lat="44.4505233" lon="10.7630367"><ele>504.0</ele><time>2026-04-26T07:34:46.474Z</time></trkpt><trkpt lat="44.4504567" lon="10.76311"><ele>505.0</ele><time>2026-04-26T07:34:47.474Z</time></trkpt><trkpt lat="44.45042" lon="10.763225"><ele>506.0</ele><time>2026-04-26T07:34:48.474Z</time></trkpt><trkpt lat="44.4504" lon="10.763355"><ele>507.0</ele><time>2026-04-26T07:34:49.474Z</time></trkpt><trkpt lat="44.4503867" lon="10.7635117"><ele>508.0</ele><time>2026-04-26T07:34:50.474Z</time></trkpt><trkpt lat="44.4503667" lon="10.7636783"><ele>509.0</ele><time>2026-04-26T07:34:51.474Z</time></trkpt><trkpt lat="44.450345" lon="10.7638417"><ele>509.6</ele><time>2026-04-26T07:34:52.474Z</time></trkpt><trkpt lat="44.4503067" lon="10.76399"><ele>510.2</ele><time>2026-04-26T07:34:53.475Z</time></trkpt><trkpt lat="44.4502717" lon="10.7641283"><ele>510.80000000000007</ele><time>2026-04-26T07:34:54.474Z</time></trkpt><trkpt lat="44.450225" lon="10.764255"><ele>511.40000000000003</ele><time>2026-04-26T07:34:55.474Z</time></trkpt><trkpt lat="44.450165" lon="10.7643567"><ele>512.0</ele><time>2026-04-26T07:34:56.474Z</time></trkpt><trkpt lat="44.4500917" lon="10.76443"><ele>512.4</ele><time>2026-04-26T07:34:57.474Z</time></trkpt><trkpt lat="44.4500183" lon="10.764475"><ele>512.8000000000001</ele><time>2026-04-26T07:34:58.475Z</time></trkpt><trkpt lat="44.4499183" lon="10.764515"><ele>513.2</ele><time>2026-04-26T07:34:59.474Z</time></trkpt><trkpt lat="44.4498217" lon="10.764545"><ele>513.6</ele><time>2026-04-26T07:35:00.474Z</time></trkpt><trkpt lat="44.44972" lon="10.7645917"><ele>514.0</ele><time>2026-04-26T07:35:01.474Z</time></trkpt><trkpt lat="44.4496183" lon="10.7646333"><ele>515.6</ele><time>2026-04-26T07:35:02.474Z</time></trkpt><trkpt lat="44.4495117" lon="10.7646833"><ele>517.2</ele><time>2026-04-26T07:35:03.474Z</time></trkpt><trkpt lat="44.44941" lon="10.7647383"><ele>518.8000000000001</ele><time>2026-04-26T07:35:04.474Z</time></trkpt><trkpt lat="44.4493117" lon="10.7647867"><ele>520.4</ele><time>2026-04-26T07:35:05.474Z</time></trkpt><trkpt lat="44.4492083" lon="10.764825"><ele>522.0</ele><time>2026-04-26T07:35:06.474Z</time></trkpt><trkpt lat="44.4491067" lon="10.7648667"><ele>522.0</ele><time>2026-04-26T07:35:07.474Z</time></trkpt><trkpt lat="44.4490133" lon="10.76491"><ele>522.0</ele><time>2026-04-26T07:35:08.474Z</time></trkpt><trkpt lat="44.4489183" lon="10.7649467"><ele>522.0</ele><time>2026-04-26T07:35:09.474Z</time></trkpt><trkpt lat="44.4488183" lon="10.76498"><ele>522.0</ele><time>2026-04-26T07:35:10.474Z</time></trkpt><trkpt lat="44.44873" lon="10.7650083"><ele>522.0</ele><time>2026-04-26T07:35:11.474Z</time></trkpt><trkpt lat="44.4486417" lon="10.7650383"><ele>522.6</ele><time>2026-04-26T07:35:12.474Z</time></trkpt><trkpt lat="44.448555" lon="10.7650683"><ele>523.2</ele><time>2026-04-26T07:35:13.474Z</time></trkpt><trkpt lat="44.44846" lon="10.765115"><ele>523.8</ele><time>2026-04-26T07:35:14.474Z</time></trkpt><trkpt lat="44.4483633" lon="10.7651583"><ele>524.4</ele><time>2026-04-26T07:35:15.475Z</time></trkpt><trkpt lat="44.448265" lon="10.7652017"><ele>525.0</ele><time>2026-04-26T07:35:16.474Z</time></trkpt><trkpt lat="44.44816" lon="10.7652467"><ele>525.0</ele><time>2026-04-26T07:35:17.474Z</time></trkpt><trkpt lat="44.4480633" lon="10.76528"><ele>525.0</ele><time>2026-04-26T07:35:18.474Z</time></trkpt><trkpt lat="44.4479617" lon="10.7653133"><ele>525.0</ele><time>2026-04-26T07:35:19.474Z</time></trkpt><trkpt lat="44.4478583" lon="10.7653417"><ele>525.0</ele><time>2026-04-26T07:35:20.474Z</time></trkpt><trkpt lat="44.44776" lon="10.765365"><ele>525.0</ele><time>2026-04-26T07:35:21.474Z</time></trkpt><trkpt lat="44.4476633" lon="10.7653967"><ele>526.5</ele><time>2026-04-26T07:35:22.474Z</time></trkpt><trkpt lat="44.4475817" lon="10.7654183"><ele>528.0</ele><time>2026-04-26T07:35:23.474Z</time></trkpt><trkpt lat="44.4475017" lon="10.7654333"><ele>529.5</ele><time>2026-04-26T07:35:24.474Z</time></trkpt><trkpt lat="44.447435" lon="10.76546"><ele>531.0</ele><time>2026-04-26T07:35:25.474Z</time></trkpt><trkpt lat="44.4473667" lon="10.7654667"><ele>532.5</ele><time>2026-04-26T07:35:26.474Z</time></trkpt><trkpt lat="44.447255" lon="10.7654983"><ele>534.0</ele><time>2026-04-26T07:35:28.474Z</time></trkpt><trkpt lat="44.44714" lon="10.76558"><ele>535.8333333333334</ele><time>2026-04-26T07:35:30.475Z</time></trkpt><trkpt lat="44.4470683" lon="10.7656133"><ele>537.6666666666666</ele><time>2026-04-26T07:35:31.474Z</time></trkpt><trkpt lat="44.446995" lon="10.76563"><ele>539.5</ele><time>2026-04-26T07:35:32.474Z</time></trkpt><trkpt lat="44.446915" lon="10.765635"><ele>541.3333333333333</ele><time>2026-04-26T07:35:33.474Z</time></trkpt><trkpt lat="44.44682" lon="10.76564"><ele>543.1666666666666</ele><time>2026-04-26T07:35:34.474Z</time></trkpt><trkpt lat="44.4467033" lon="10.76564"><ele>545.0</ele><time>2026-04-26T07:35:35.475Z</time></trkpt><trkpt lat="44.4465717" lon="10.76564"><ele>545.0</ele><time>2026-04-26T07:35:36.474Z</time></trkpt><trkpt lat="44.4464467" lon="10.7656133"><ele>545.0</ele><time>2026-04-26T07:35:37.474Z</time></trkpt><trkpt lat="44.4463383" lon="10.76556"><ele>545.0</ele><time>2026-04-26T07:35:38.474Z</time></trkpt><trkpt lat="44.4462333" lon="10.76549"><ele>545.0</ele><time>2026-04-26T07:35:39.474Z</time></trkpt><trkpt lat="44.4461267" lon="10.7654067"><ele>545.25</ele><time>2026-04-26T07:35:40.474Z</time></trkpt><trkpt lat="44.4460117" lon="10.7653317"><ele>545.5</ele><time>2026-04-26T07:35:41.474Z</time></trkpt><trkpt lat="44.4458933" lon="10.7652633"><ele>545.75</ele><time>2026-04-26T07:35:42.474Z</time></trkpt><trkpt lat="44.4457733" lon="10.765185"><ele>546.0</ele><time>2026-04-26T07:35:43.474Z</time></trkpt><trkpt lat="44.4456467" lon="10.7650983"><ele>546.0</ele><time>2026-04-26T07:35:44.474Z</time></trkpt><trkpt lat="44.445505" lon="10.7650117"><ele>546.0</ele><time>2026-04-26T07:35:45.474Z</time></trkpt><trkpt lat="44.4453483" lon="10.76491"><ele>546.0</ele><time>2026-04-26T07:35:46.474Z</time></trkpt><trkpt lat="44.44518" lon="10.764805"><ele>547.6666666666666</ele><time>2026-04-26T07:35:47.474Z</time></trkpt><trkpt lat="44.4450083" lon="10.7646983"><ele>549.3333333333333</ele><time>2026-04-26T07:35:48.474Z</time></trkpt><trkpt lat="44.4448333" lon="10.7645883"><ele>551.0</ele><time>2026-04-26T07:35:49.474Z</time></trkpt><trkpt lat="44.4446567" lon="10.7644817"><ele>549.6666666666666</ele><time>2026-04-26T07:35:50.474Z</time></trkpt><trkpt lat="44.4444767" lon="10.7643667"><ele>548.3333333333334</ele><time>2026-04-26T07:35:51.474Z</time></trkpt><trkpt lat="44.4442967" lon="10.7642567"><ele>547.0</ele><time>2026-04-26T07:35:52.474Z</time></trkpt><trkpt lat="44.4441283" lon="10.76415"><ele>547.0</ele><time>2026-04-26T07:35:53.474Z</time></trkpt><trkpt lat="44.4439717" lon="10.764065"><ele>547.0</ele><time>2026-04-26T07:35:54.474Z</time></trkpt><trkpt lat="44.443805" lon="10.76403"><ele>547.0</ele><time>2026-04-26T07:35:55.474Z</time></trkpt><trkpt lat="44.443625" lon="10.7640283"><ele>549.6666666666667</ele><time>2026-04-26T07:35:56.474Z</time></trkpt><trkpt lat="44.4434367" lon="10.7640167"><ele>552.3333333333334</ele><time>2026-04-26T07:35:57.474Z</time></trkpt><trkpt lat="44.4432383" lon="10.7639817"><ele>555.0</ele><time>2026-04-26T07:35:58.473Z</time></trkpt><trkpt lat="44.4430483" lon="10.76392"><ele>563.0</ele><time>2026-04-26T07:35:59.473Z</time></trkpt><trkpt lat="44.44287" lon="10.763845"><ele>571.0</ele><time>2026-04-26T07:36:00.473Z</time></trkpt><trkpt lat="44.442705" lon="10.76375"><ele>579.0</ele><time>2026-04-26T07:36:01.473Z</time></trkpt><trkpt lat="44.442535" lon="10.76365"><ele>579.0</ele><time>2026-04-26T07:36:02.473Z</time></trkpt><trkpt lat="44.4423583" lon="10.76355"><ele>579.0</ele><time>2026-04-26T07:36:03.473Z</time></trkpt><trkpt lat="44.4422083" lon="10.7634467"><ele>579.0</ele><time>2026-04-26T07:36:04.473Z</time></trkpt><trkpt lat="44.4420667" lon="10.76336"><ele>577.0</ele><time>2026-04-26T07:36:05.473Z</time></trkpt><trkpt lat="44.4419233" lon="10.76328"><ele>575.0</ele><time>2026-04-26T07:36:06.473Z</time></trkpt><trkpt lat="44.44178" lon="10.7632083"><ele>573.0</ele><time>2026-04-26T07:36:07.473Z</time></trkpt><trkpt lat="44.44164" lon="10.763135"><ele>573.0</ele><time>2026-04-26T07:36:08.473Z</time></trkpt><trkpt lat="44.441495" lon="10.7630483"><ele>573.0</ele><time>2026-04-26T07:36:09.473Z</time></trkpt><trkpt lat="44.4413683" lon="10.7629683"><ele>573.0</ele><time>2026-04-26T07:36:10.473Z</time></trkpt><trkpt lat="44.4412517" lon="10.7628767"><ele>573.0</ele><time>2026-04-26T07:36:11.473Z</time></trkpt><trkpt lat="44.441155" lon="10.76277"><ele>574.5</ele><time>2026-04-26T07:36:12.473Z</time></trkpt><trkpt lat="44.4410567" lon="10.7626367"><ele>576.0</ele><time>2026-04-26T07:36:13.473Z</time></trkpt><trkpt lat="44.44096" lon="10.7624917"><ele>577.5</ele><time>2026-04-26T07:36:14.473Z</time></trkpt><trkpt lat="44.4408517" lon="10.76233"><ele>579.0</ele><time>2026-04-26T07:36:15.473Z</time></trkpt><trkpt lat="44.4407333" lon="10.7621833"><ele>579.0</ele><time>2026-04-26T07:36:16.473Z</time></trkpt><trkpt lat="44.4406217" lon="10.76204"><ele>579.0</ele><time>2026-04-26T07:36:17.473Z</time></trkpt><trkpt lat="44.4404967" lon="10.7618833"><ele>579.0</ele><time>2026-04-26T07:36:18.473Z</time></trkpt><trkpt lat="44.4403833" lon="10.7617333"><ele>581.5</ele><time>2026-04-26T07:36:19.473Z</time></trkpt><trkpt lat="44.4402667" lon="10.7615983"><ele>584.0</ele><time>2026-04-26T07:36:20.473Z</time></trkpt><trkpt lat="44.4401817" lon="10.76145"><ele>586.5</ele><time>2026-04-26T07:36:21.473Z</time></trkpt><trkpt lat="44.4401083" lon="10.7612733"><ele>589.0</ele><time>2026-04-26T07:36:22.473Z</time></trkpt><trkpt lat="44.44006" lon="10.7610867"><ele>586.25</ele><time>2026-04-26T07:36:23.473Z</time></trkpt><trkpt lat="44.44003" lon="10.7608783"><ele>583.5</ele><time>2026-04-26T07:36:24.473Z</time></trkpt><trkpt lat="44.4399983" lon="10.7607083"><ele>580.75</ele><time>2026-04-26T07:36:25.473Z</time></trkpt><trkpt lat="44.4399517" lon="10.7605483"><ele>578.0</ele><time>2026-04-26T07:36:26.473Z</time></trkpt><trkpt lat="44.4398817" lon="10.760395"><ele>578.0</ele><time>2026-04-26T07:36:27.473Z</time></trkpt><trkpt lat="44.4397767" lon="10.7602933"><ele>578.0</ele><time>2026-04-26T07:36:28.473Z</time></trkpt><trkpt lat="44.4396333" lon="10.7602317"><ele>578.0</ele><time>2026-04-26T07:36:29.473Z</time></trkpt><trkpt lat="44.4394883" lon="10.7601517"><ele>578.0</ele><time>2026-04-26T07:36:30.473Z</time></trkpt><trkpt lat="44.4393233" lon="10.760075"><ele>579.6666666666666</ele><time>2026-04-26T07:36:31.473Z</time></trkpt><trkpt lat="44.4391667" lon="10.7600117"><ele>581.3333333333334</ele><time>2026-04-26T07:36:32.473Z</time></trkpt><trkpt lat="44.4389867" lon="10.7599883"><ele>583.0</ele><time>2026-04-26T07:36:33.473Z</time></trkpt><trkpt lat="44.4388133" lon="10.7600033"><ele>589.3333333333334</ele><time>2026-04-26T07:36:34.473Z</time></trkpt><trkpt lat="44.4386533" lon="10.7600083"><ele>595.6666666666666</ele><time>2026-04-26T07:36:35.474Z</time></trkpt><trkpt lat="44.4385083" lon="10.7599683"><ele>602.0</ele><time>2026-04-26T07:36:36.473Z</time></trkpt><trkpt lat="44.4383767" lon="10.7598817"><ele>602.0</ele><time>2026-04-26T07:36:37.473Z</time></trkpt><trkpt lat="44.4382733" lon="10.7597417"><ele>602.0</ele><time>2026-04-26T07:36:38.473Z</time></trkpt><trkpt lat="44.4381983" lon="10.7595817"><ele>602.0</ele><time>2026-04-26T07:36:39.474Z</time></trkpt><trkpt lat="44.438165" lon="10.7593933"><ele>602.0</ele><time>2026-04-26T07:36:40.473Z</time></trkpt><trkpt lat="44.4381683" lon="10.7591867"><ele>598.6666666666666</ele><time>2026-04-26T07:36:41.473Z</time></trkpt><trkpt lat="44.4382083" lon="10.7589467"><ele>595.3333333333334</ele><time>2026-04-26T07:36:42.473Z</time></trkpt><trkpt lat="44.4382683" lon="10.7587267"><ele>592.0</ele><time>2026-04-26T07:36:43.473Z</time></trkpt><trkpt lat="44.4383533" lon="10.7585433"><ele>593.0</ele><time>2026-04-26T07:36:44.474Z</time></trkpt><trkpt lat="44.4384717" lon="10.7584017"><ele>594.0</ele><time>2026-04-26T07:36:45.473Z</time></trkpt><trkpt lat="44.4385933" lon="10.7582833"><ele>595.0</ele><time>2026-04-26T07:36:46.473Z</time></trkpt><trkpt lat="44.4386983" lon="10.7581467"><ele>596.0</ele><time>2026-04-26T07:36:47.474Z</time></trkpt><trkpt lat="44.4387667" lon="10.7580133"><ele>596.0</ele><time>2026-04-26T07:36:48.473Z</time></trkpt><trkpt lat="44.4388" lon="10.757885"><ele>596.0</ele><time>2026-04-26T07:36:49.473Z</time></trkpt><trkpt lat="44.4387933" lon="10.7577483"><ele>596.0</ele><time>2026-04-26T07:36:50.473Z</time></trkpt><trkpt lat="44.4387417" lon="10.7576117"><ele>596.0</ele><time>2026-04-26T07:36:51.473Z</time></trkpt><trkpt lat="44.4386433" lon="10.757465"><ele>596.0</ele><time>2026-04-26T07:36:52.473Z</time></trkpt><trkpt lat="44.4385267" lon="10.75733"><ele>596.0</ele><time>2026-04-26T07:36:53.473Z</time></trkpt><trkpt lat="44.4384117" lon="10.75721"><ele>596.0</ele><time>2026-04-26T07:36:54.473Z</time></trkpt><trkpt lat="44.4382967" lon="10.7570933"><ele>596.0</ele><time>2026-04-26T07:36:55.473Z</time></trkpt><trkpt lat="44.438185" lon="10.7569917"><ele>596.0</ele><time>2026-04-26T07:36:56.473Z</time></trkpt><trkpt lat="44.4380933" lon="10.7568667"><ele>594.5</ele><time>2026-04-26T07:36:57.473Z</time></trkpt><trkpt lat="44.438035" lon="10.7567"><ele>593.0</ele><time>2026-04-26T07:36:58.473Z</time></trkpt><trkpt lat="44.4380017" lon="10.7565283"><ele>591.5</ele><time>2026-04-26T07:36:59.473Z</time></trkpt><trkpt lat="44.437965" lon="10.75634"><ele>590.0</ele><time>2026-04-26T07:37:00.473Z</time></trkpt><trkpt lat="44.4378883" lon="10.7561967"><ele>592.75</ele><time>2026-04-26T07:37:01.473Z</time></trkpt><trkpt lat="44.437785" lon="10.7561017"><ele>595.5</ele><time>2026-04-26T07:37:02.473Z</time></trkpt><trkpt lat="44.4376617" lon="10.7560367"><ele>598.25</ele><time>2026-04-26T07:37:03.473Z</time></trkpt><trkpt lat="44.437515" lon="10.75599"><ele>601.0</ele><time>2026-04-26T07:37:04.473Z</time></trkpt><trkpt lat="44.437365" lon="10.7559467"><ele>601.0</ele><time>2026-04-26T07:37:05.473Z</time></trkpt><trkpt lat="44.43721" lon="10.7559067"><ele>601.0</ele><time>2026-04-26T07:37:06.473Z</time></trkpt><trkpt lat="44.43705" lon="10.7558683"><ele>601.0</ele><time>2026-04-26T07:37:07.473Z</time></trkpt><trkpt lat="44.4368867" lon="10.7558167"><ele>602.75</ele><time>2026-04-26T07:37:08.473Z</time></trkpt><trkpt lat="44.436735" lon="10.755775"><ele>604.5</ele><time>2026-04-26T07:37:09.473Z</time></trkpt><trkpt lat="44.4366083" lon="10.7557367"><ele>606.25</ele><time>2026-04-26T07:37:10.473Z</time></trkpt><trkpt lat="44.4365083" lon="10.75566"><ele>608.0</ele><time>2026-04-26T07:37:11.473Z</time></trkpt><trkpt lat="44.4364483" lon="10.7555283"><ele>608.0</ele><time>2026-04-26T07:37:12.473Z</time></trkpt><trkpt lat="44.4364233" lon="10.7553533"><ele>608.0</ele><time>2026-04-26T07:37:13.473Z</time></trkpt><trkpt lat="44.43642" lon="10.755145"><ele>608.0</ele><time>2026-04-26T07:37:14.473Z</time></trkpt><trkpt lat="44.43644" lon="10.7549317"><ele>608.0</ele><time>2026-04-26T07:37:15.473Z</time></trkpt><trkpt lat="44.436485" lon="10.754695"><ele>608.0</ele><time>2026-04-26T07:37:16.473Z</time></trkpt><trkpt lat="44.4365583" lon="10.7544433"><ele>608.0</ele><time>2026-04-26T07:37:17.473Z</time></trkpt><trkpt lat="44.4366483" lon="10.7542117"><ele>608.0</ele><time>2026-04-26T07:37:18.473Z</time></trkpt><trkpt lat="44.4367617" lon="10.7539983"><ele>609.6666666666666</ele><time>2026-04-26T07:37:19.473Z</time></trkpt><trkpt lat="44.4368783" lon="10.7538067"><ele>611.3333333333334</ele><time>2026-04-26T07:37:20.473Z</time></trkpt><trkpt lat="44.436995" lon="10.753635"><ele>613.0</ele><time>2026-04-26T07:37:21.473Z</time></trkpt><trkpt lat="44.4370983" lon="10.7534933"><ele>610.25</ele><time>2026-04-26T07:37:22.472Z</time></trkpt><trkpt lat="44.4372083" lon="10.7533733"><ele>607.5</ele><time>2026-04-26T07:37:23.473Z</time></trkpt><trkpt lat="44.4373117" lon="10.75326"><ele>604.75</ele><time>2026-04-26T07:37:24.473Z</time></trkpt><trkpt lat="44.4373933" lon="10.753145"><ele>602.0</ele><time>2026-04-26T07:37:25.473Z</time></trkpt><trkpt lat="44.43743" lon="10.753025"><ele>602.0</ele><time>2026-04-26T07:37:26.473Z</time></trkpt><trkpt lat="44.43741" lon="10.7528917"><ele>602.0</ele><time>2026-04-26T07:37:27.473Z</time></trkpt><trkpt lat="44.43734" lon="10.75277"><ele>602.0</ele><time>2026-04-26T07:37:28.473Z</time></trkpt><trkpt lat="44.4372417" lon="10.75266"><ele>602.0</ele><time>2026-04-26T07:37:29.473Z</time></trkpt><trkpt lat="44.4371267" lon="10.7525483"><ele>606.6666666666666</ele><time>2026-04-26T07:37:30.473Z</time></trkpt><trkpt lat="44.4369933" lon="10.7524333"><ele>611.3333333333334</ele><time>2026-04-26T07:37:31.473Z</time></trkpt><trkpt lat="44.4368617" lon="10.7523017"><ele>616.0</ele><time>2026-04-26T07:37:32.473Z</time></trkpt><trkpt lat="44.4367533" lon="10.7521433"><ele>616.0</ele><time>2026-04-26T07:37:33.473Z</time></trkpt><trkpt lat="44.4366883" lon="10.7519433"><ele>616.0</ele><time>2026-04-26T07:37:34.473Z</time></trkpt><trkpt lat="44.4366633" lon="10.7517133"><ele>616.0</ele><time>2026-04-26T07:37:35.473Z</time></trkpt><trkpt lat="44.4366717" lon="10.7514667"><ele>616.0</ele><time>2026-04-26T07:37:36.473Z</time></trkpt><trkpt lat="44.4367083" lon="10.7512033"><ele>616.0</ele><time>2026-04-26T07:37:37.473Z</time></trkpt><trkpt lat="44.4367517" lon="10.75093"><ele>616.0</ele><time>2026-04-26T07:37:38.473Z</time></trkpt><trkpt lat="44.436795" lon="10.7506517"><ele>618.0</ele><time>2026-04-26T07:37:39.473Z</time></trkpt><trkpt lat="44.4368367" lon="10.7503833"><ele>620.0</ele><time>2026-04-26T07:37:40.473Z</time></trkpt><trkpt lat="44.4368767" lon="10.7501233"><ele>622.0</ele><time>2026-04-26T07:37:41.473Z</time></trkpt><trkpt lat="44.436915" lon="10.74989"><ele>625.25</ele><time>2026-04-26T07:37:42.473Z</time></trkpt><trkpt lat="44.436955" lon="10.7496633"><ele>628.5</ele><time>2026-04-26T07:37:43.473Z</time></trkpt><trkpt lat="44.4369917" lon="10.7494617"><ele>631.75</ele><time>2026-04-26T07:37:44.473Z</time></trkpt><trkpt lat="44.437025" lon="10.74928"><ele>635.0</ele><time>2026-04-26T07:37:45.473Z</time></trkpt><trkpt lat="44.437055" lon="10.7491"><ele>635.0</ele><time>2026-04-26T07:37:46.473Z</time></trkpt><trkpt lat="44.437065" lon="10.74895"><ele>635.0</ele><time>2026-04-26T07:37:47.473Z</time></trkpt><trkpt lat="44.4370417" lon="10.7488"><ele>635.0</ele><time>2026-04-26T07:37:48.473Z</time></trkpt><trkpt lat="44.4369767" lon="10.7487"><ele>635.0</ele><time>2026-04-26T07:37:49.473Z</time></trkpt><trkpt lat="44.436875" lon="10.748615"><ele>635.0</ele><time>2026-04-26T07:37:50.473Z</time></trkpt><trkpt lat="44.4367533" lon="10.748535"><ele>633.75</ele><time>2026-04-26T07:37:51.473Z</time></trkpt><trkpt lat="44.4366183" lon="10.7484617"><ele>632.5</ele><time>2026-04-26T07:37:52.473Z</time></trkpt><trkpt lat="44.4364967" lon="10.7483917"><ele>631.25</ele><time>2026-04-26T07:37:53.473Z</time></trkpt><trkpt lat="44.4363967" lon="10.74837"><ele>630.0</ele><time>2026-04-26T07:37:54.473Z</time></trkpt><trkpt lat="44.4362967" lon="10.74841"><ele>630.0</ele><time>2026-04-26T07:37:55.473Z</time></trkpt><trkpt lat="44.4362183" lon="10.748505"><ele>630.0</ele><time>2026-04-26T07:37:56.473Z</time></trkpt><trkpt lat="44.4361617" lon="10.74866"><ele>630.0</ele><time>2026-04-26T07:37:57.473Z</time></trkpt><trkpt lat="44.436105" lon="10.748845"><ele>630.0</ele><time>2026-04-26T07:37:58.473Z</time></trkpt><trkpt lat="44.4360217" lon="10.7490133"><ele>634.0</ele><time>2026-04-26T07:37:59.473Z</time></trkpt><trkpt lat="44.4358967" lon="10.7491167"><ele>638.0</ele><time>2026-04-26T07:38:00.473Z</time></trkpt><trkpt lat="44.4357267" lon="10.749175"><ele>642.0</ele><time>2026-04-26T07:38:01.473Z</time></trkpt><trkpt lat="44.4355433" lon="10.7492067"><ele>642.3333333333334</ele><time>2026-04-26T07:38:02.473Z</time></trkpt><trkpt lat="44.4353483" lon="10.7492217"><ele>642.6666666666667</ele><time>2026-04-26T07:38:03.473Z</time></trkpt><trkpt lat="44.4351733" lon="10.7492333"><ele>643.0</ele><time>2026-04-26T07:38:04.473Z</time></trkpt><trkpt lat="44.4350167" lon="10.7492233"><ele>643.0</ele><time>2026-04-26T07:38:05.473Z</time></trkpt><trkpt lat="44.43487" lon="10.7491617"><ele>643.0</ele><time>2026-04-26T07:38:06.473Z</time></trkpt><trkpt lat="44.4347317" lon="10.7490517"><ele>643.0</ele><time>2026-04-26T07:38:07.473Z</time></trkpt><trkpt lat="44.4346167" lon="10.7489233"><ele>646.25</ele><time>2026-04-26T07:38:08.473Z</time></trkpt><trkpt lat="44.4345" lon="10.7488183"><ele>649.5</ele><time>2026-04-26T07:38:09.473Z</time></trkpt><trkpt lat="44.4343833" lon="10.748775"><ele>652.75</ele><time>2026-04-26T07:38:10.473Z</time></trkpt><trkpt lat="44.43423" lon="10.748825"><ele>656.0</ele><time>2026-04-26T07:38:11.473Z</time></trkpt><trkpt lat="44.4340783" lon="10.7488783"><ele>656.0</ele><time>2026-04-26T07:38:12.473Z</time></trkpt><trkpt lat="44.4339383" lon="10.7488817"><ele>656.0</ele><time>2026-04-26T07:38:13.473Z</time></trkpt><trkpt lat="44.4338167" lon="10.7488233"><ele>656.0</ele><time>2026-04-26T07:38:14.473Z</time></trkpt><trkpt lat="44.4337217" lon="10.7487217"><ele>656.0</ele><time>2026-04-26T07:38:15.473Z</time></trkpt><trkpt lat="44.433655" lon="10.7486017"><ele>656.1999999999999</ele><time>2026-04-26T07:38:16.473Z</time></trkpt><trkpt lat="44.4336083" lon="10.7484867"><ele>656.4</ele><time>2026-04-26T07:38:17.473Z</time></trkpt><trkpt lat="44.4335733" lon="10.7483783"><ele>656.6</ele><time>2026-04-26T07:38:18.473Z</time></trkpt><trkpt lat="44.4335133" lon="10.7482833"><ele>656.8</ele><time>2026-04-26T07:38:19.473Z</time></trkpt><trkpt lat="44.4334083" lon="10.748215"><ele>657.0</ele><time>2026-04-26T07:38:20.473Z</time></trkpt><trkpt lat="44.433275" lon="10.7481633"><ele>657.0</ele><time>2026-04-26T07:38:21.473Z</time></trkpt><trkpt lat="44.4331333" lon="10.7480833"><ele>657.0</ele><time>2026-04-26T07:38:22.473Z</time></trkpt><trkpt lat="44.4329983" lon="10.7479583"><ele>657.0</ele><time>2026-04-26T07:38:23.473Z</time></trkpt><trkpt lat="44.432855" lon="10.747805"><ele>659.6666666666666</ele><time>2026-04-26T07:38:24.473Z</time></trkpt><trkpt lat="44.4327217" lon="10.7476517"><ele>662.3333333333333</ele><time>2026-04-26T07:38:25.473Z</time></trkpt><trkpt lat="44.43259" lon="10.7475183"><ele>665.0</ele><time>2026-04-26T07:38:26.474Z</time></trkpt><trkpt lat="44.4324633" lon="10.7473817"><ele>665.0</ele><time>2026-04-26T07:38:27.473Z</time></trkpt><trkpt lat="44.43234" lon="10.7472617"><ele>665.0</ele><time>2026-04-26T07:38:28.473Z</time></trkpt><trkpt lat="44.4322117" lon="10.7471433"><ele>665.0</ele><time>2026-04-26T07:38:29.473Z</time></trkpt><trkpt lat="44.43208" lon="10.7470317"><ele>666.3333333333333</ele><time>2026-04-26T07:38:30.474Z</time></trkpt><trkpt lat="44.4319467" lon="10.7469167"><ele>667.6666666666666</ele><time>2026-04-26T07:38:31.473Z</time></trkpt><trkpt lat="44.43182" lon="10.7467917"><ele>669.0</ele><time>2026-04-26T07:38:32.473Z</time></trkpt><trkpt lat="44.43169" lon="10.7466667"><ele>669.0</ele><time>2026-04-26T07:38:33.473Z</time></trkpt><trkpt lat="44.4315617" lon="10.7465467"><ele>669.0</ele><time>2026-04-26T07:38:34.473Z</time></trkpt><trkpt lat="44.4314317" lon="10.74644"><ele>669.0</ele><time>2026-04-26T07:38:35.473Z</time></trkpt><trkpt lat="44.4313067" lon="10.7463283"><ele>671.0</ele><time>2026-04-26T07:38:36.473Z</time></trkpt><trkpt lat="44.4311817" lon="10.74622"><ele>673.0</ele><time>2026-04-26T07:38:37.473Z</time></trkpt><trkpt lat="44.4310633" lon="10.7461"><ele>675.0</ele><time>2026-04-26T07:38:38.473Z</time></trkpt><trkpt lat="44.4309617" lon="10.7459533"><ele>677.0</ele><time>2026-04-26T07:38:39.473Z</time></trkpt><trkpt lat="44.4308683" lon="10.7458017"><ele>677.0</ele><time>2026-04-26T07:38:40.473Z</time></trkpt><trkpt lat="44.4307867" lon="10.7456267"><ele>677.0</ele><time>2026-04-26T07:38:41.473Z</time></trkpt><trkpt lat="44.4307117" lon="10.7454317"><ele>677.0</ele><time>2026-04-26T07:38:42.473Z</time></trkpt><trkpt lat="44.430675" lon="10.7452233"><ele>677.3333333333333</ele><time>2026-04-26T07:38:43.473Z</time></trkpt><trkpt lat="44.4306767" lon="10.7450167"><ele>677.6666666666666</ele><time>2026-04-26T07:38:44.473Z</time></trkpt><trkpt lat="44.4307217" lon="10.744815"><ele>678.0</ele><time>2026-04-26T07:38:45.473Z</time></trkpt><trkpt lat="44.4307917" lon="10.74461"><ele>678.0</ele><time>2026-04-26T07:38:46.473Z</time></trkpt><trkpt lat="44.4308733" lon="10.7443917"><ele>678.0</ele><time>2026-04-26T07:38:47.474Z</time></trkpt><trkpt lat="44.43094" lon="10.7441767"><ele>678.0</ele><time>2026-04-26T07:38:48.473Z</time></trkpt><trkpt lat="44.430985" lon="10.7439783"><ele>681.3333333333334</ele><time>2026-04-26T07:38:49.473Z</time></trkpt><trkpt lat="44.430995" lon="10.7437683"><ele>684.6666666666667</ele><time>2026-04-26T07:38:50.473Z</time></trkpt><trkpt lat="44.4309733" lon="10.7435467"><ele>688.0</ele><time>2026-04-26T07:38:51.473Z</time></trkpt><trkpt lat="44.4309267" lon="10.7433033"><ele>689.6666666666667</ele><time>2026-04-26T07:38:52.473Z</time></trkpt><trkpt lat="44.4308833" lon="10.7430517"><ele>691.3333333333334</ele><time>2026-04-26T07:38:53.473Z</time></trkpt><trkpt lat="44.4308583" lon="10.7428283"><ele>693.0</ele><time>2026-04-26T07:38:54.473Z</time></trkpt><trkpt lat="44.430835" lon="10.7426433"><ele>693.0</ele><time>2026-04-26T07:38:55.473Z</time></trkpt><trkpt lat="44.4308067" lon="10.7424933"><ele>693.0</ele><time>2026-04-26T07:38:56.473Z</time></trkpt><trkpt lat="44.4307617" lon="10.7423833"><ele>693.0</ele><time>2026-04-26T07:38:57.473Z</time></trkpt><trkpt lat="44.4307" lon="10.7423283"><ele>693.0</ele><time>2026-04-26T07:38:58.473Z</time></trkpt><trkpt lat="44.4306183" lon="10.7423633"><ele>693.0</ele><time>2026-04-26T07:38:59.473Z</time></trkpt><trkpt lat="44.430545" lon="10.7424617"><ele>693.0</ele><time>2026-04-26T07:39:00.473Z</time></trkpt><trkpt lat="44.430485" lon="10.7426267"><ele>693.0</ele><time>2026-04-26T07:39:01.474Z</time></trkpt><trkpt lat="44.430445" lon="10.7428433"><ele>693.0</ele><time>2026-04-26T07:39:02.473Z</time></trkpt><trkpt lat="44.4304483" lon="10.7430683"><ele>693.0</ele><time>2026-04-26T07:39:03.473Z</time></trkpt><trkpt lat="44.4304733" lon="10.7432633"><ele>693.0</ele><time>2026-04-26T07:39:04.473Z</time></trkpt><trkpt lat="44.4304817" lon="10.7434217"><ele>693.0</ele><time>2026-04-26T07:39:05.474Z</time></trkpt><trkpt lat="44.4304583" lon="10.7435483"><ele>693.0</ele><time>2026-04-26T07:39:06.473Z</time></trkpt><trkpt lat="44.4304033" lon="10.7436417"><ele>693.0</ele><time>2026-04-26T07:39:07.473Z</time></trkpt><trkpt lat="44.4303083" lon="10.743725"><ele>695.75</ele><time>2026-04-26T07:39:08.473Z</time></trkpt><trkpt lat="44.4301633" lon="10.7437667"><ele>698.5</ele><time>2026-04-26T07:39:09.473Z</time></trkpt><trkpt lat="44.4300083" lon="10.74378"><ele>701.25</ele><time>2026-04-26T07:39:10.473Z</time></trkpt><trkpt lat="44.4298767" lon="10.7437633"><ele>704.0</ele><time>2026-04-26T07:39:11.473Z</time></trkpt><trkpt lat="44.429775" lon="10.7437317"><ele>704.0</ele><time>2026-04-26T07:39:12.473Z</time></trkpt><trkpt lat="44.4297017" lon="10.7437017"><ele>704.0</ele><time>2026-04-26T07:39:13.473Z</time></trkpt><trkpt lat="44.4296133" lon="10.743665"><ele>704.0</ele><time>2026-04-26T07:39:15.473Z</time></trkpt><trkpt lat="44.429545" lon="10.7436433"><ele>704.0</ele><time>2026-04-26T07:39:18.473Z</time></trkpt><trkpt lat="44.4294933" lon="10.7437533"><ele>704.0</ele><time>2026-04-26T07:39:21.473Z</time></trkpt><trkpt lat="44.4294367" lon="10.7439083"><ele>704.3333333333333</ele><time>2026-04-26T07:39:23.473Z</time></trkpt><trkpt lat="44.429405" lon="10.7440083"><ele>704.6666666666666</ele><time>2026-04-26T07:39:24.473Z</time></trkpt><trkpt lat="44.4293683" lon="10.74412"><ele>705.0</ele><time>2026-04-26T07:39:25.473Z</time></trkpt><trkpt lat="44.429335" lon="10.744225"><ele>705.3333333333334</ele><time>2026-04-26T07:39:26.473Z</time></trkpt><trkpt lat="44.4293" lon="10.7443333"><ele>705.6666666666667</ele><time>2026-04-26T07:39:27.473Z</time></trkpt><trkpt lat="44.4292717" lon="10.74445"><ele>706.0</ele><time>2026-04-26T07:39:28.473Z</time></trkpt><trkpt lat="44.4292483" lon="10.7445567"><ele>706.3333333333334</ele><time>2026-04-26T07:39:29.474Z</time></trkpt><trkpt lat="44.429235" lon="10.7446533"><ele>706.6666666666667</ele><time>2026-04-26T07:39:30.473Z</time></trkpt><trkpt lat="44.429215" lon="10.74475"><ele>707.0</ele><time>2026-04-26T07:39:31.473Z</time></trkpt><trkpt lat="44.42919" lon="10.7448383"><ele>707.3333333333334</ele><time>2026-04-26T07:39:32.473Z</time></trkpt><trkpt lat="44.429105" lon="10.7449417"><ele>707.6666666666666</ele><time>2026-04-26T07:39:34.473Z</time></trkpt><trkpt lat="44.4290433" lon="10.7449617"><ele>708.0</ele><time>2026-04-26T07:39:35.473Z</time></trkpt><trkpt lat="44.4289467" lon="10.7449583"><ele>708.0</ele><time>2026-04-26T07:39:36.473Z</time></trkpt><trkpt lat="44.4288467" lon="10.744955"><ele>708.0</ele><time>2026-04-26T07:39:37.473Z</time></trkpt><trkpt lat="44.4287317" lon="10.7449733"><ele>708.0</ele><time>2026-04-26T07:39:38.473Z</time></trkpt><trkpt lat="44.4286233" lon="10.7449983"><ele>708.0</ele><time>2026-04-26T07:39:39.473Z</time></trkpt><trkpt lat="44.4285217" lon="10.7450333"><ele>708.0</ele><time>2026-04-26T07:39:40.473Z</time></trkpt><trkpt lat="44.42843" lon="10.7450917"><ele>708.5999999999999</ele><time>2026-04-26T07:39:41.473Z</time></trkpt><trkpt lat="44.4283533" lon="10.7451733"><ele>709.1999999999999</ele><time>2026-04-26T07:39:42.473Z</time></trkpt><trkpt lat="44.4282783" lon="10.745275"><ele>709.8</ele><time>2026-04-26T07:39:43.473Z</time></trkpt><trkpt lat="44.428185" lon="10.7453717"><ele>710.4</ele><time>2026-04-26T07:39:44.473Z</time></trkpt><trkpt lat="44.42808" lon="10.7454333"><ele>711.0</ele><time>2026-04-26T07:39:45.473Z</time></trkpt><trkpt lat="44.42796" lon="10.7454633"><ele>708.25</ele><time>2026-04-26T07:39:46.473Z</time></trkpt><trkpt lat="44.4278367" lon="10.7454533"><ele>705.5</ele><time>2026-04-26T07:39:47.473Z</time></trkpt><trkpt lat="44.427715" lon="10.7454"><ele>702.75</ele><time>2026-04-26T07:39:48.473Z</time></trkpt><trkpt lat="44.4276067" lon="10.7453167"><ele>700.0</ele><time>2026-04-26T07:39:49.473Z</time></trkpt><trkpt lat="44.4275133" lon="10.74524"><ele>697.6</ele><time>2026-04-26T07:39:50.473Z</time></trkpt><trkpt lat="44.427415" lon="10.7451767"><ele>695.2</ele><time>2026-04-26T07:39:51.473Z</time></trkpt><trkpt lat="44.42731" lon="10.7451467"><ele>692.8</ele><time>2026-04-26T07:39:52.473Z</time></trkpt><trkpt lat="44.4272233" lon="10.745145"><ele>690.4</ele><time>2026-04-26T07:39:53.473Z</time></trkpt><trkpt lat="44.427125" lon="10.7451917"><ele>688.0</ele><time>2026-04-26T07:39:54.473Z</time></trkpt><trkpt lat="44.4270133" lon="10.74527"><ele>688.0</ele><time>2026-04-26T07:39:55.473Z</time></trkpt><trkpt lat="44.4268767" lon="10.74536"><ele>688.0</ele><time>2026-04-26T07:39:56.473Z</time></trkpt><trkpt lat="44.4267317" lon="10.745425"><ele>688.0</ele><time>2026-04-26T07:39:57.473Z</time></trkpt><trkpt lat="44.4265983" lon="10.745465"><ele>688.0</ele><time>2026-04-26T07:39:58.473Z</time></trkpt><trkpt lat="44.42647" lon="10.7454783"><ele>688.0</ele><time>2026-04-26T07:39:59.473Z</time></trkpt><trkpt lat="44.4263633" lon="10.7454667"><ele>688.0</ele><time>2026-04-26T07:40:00.473Z</time></trkpt><trkpt lat="44.4262733" lon="10.7454317"><ele>688.0</ele><time>2026-04-26T07:40:01.473Z</time></trkpt><trkpt lat="44.4262033" lon="10.7453717"><ele>688.0</ele><time>2026-04-26T07:40:02.473Z</time></trkpt><trkpt lat="44.42614" lon="10.7452983"><ele>688.0</ele><time>2026-04-26T07:40:03.473Z</time></trkpt><trkpt lat="44.4260767" lon="10.7452317"><ele>688.0</ele><time>2026-04-26T07:40:04.474Z</time></trkpt><trkpt lat="44.42601" lon="10.7451667"><ele>686.8333333333334</ele><time>2026-04-26T07:40:05.473Z</time></trkpt><trkpt lat="44.4259417" lon="10.74512"><ele>685.6666666666667</ele><time>2026-04-26T07:40:06.473Z</time></trkpt><trkpt lat="44.4258767" lon="10.7451017"><ele>684.5</ele><time>2026-04-26T07:40:07.474Z</time></trkpt><trkpt lat="44.42575" lon="10.7451183"><ele>683.3333333333334</ele><time>2026-04-26T07:40:09.473Z</time></trkpt><trkpt lat="44.4256717" lon="10.7451517"><ele>682.1666666666666</ele><time>2026-04-26T07:40:10.473Z</time></trkpt><trkpt lat="44.4255833" lon="10.7452"><ele>681.0</ele><time>2026-04-26T07:40:11.473Z</time></trkpt><trkpt lat="44.4254833" lon="10.7452767"><ele>677.0</ele><time>2026-04-26T07:40:12.473Z</time></trkpt><trkpt lat="44.4253767" lon="10.74537"><ele>673.0</ele><time>2026-04-26T07:40:13.473Z</time></trkpt><trkpt lat="44.42528" lon="10.7454917"><ele>669.0</ele><time>2026-04-26T07:40:14.473Z</time></trkpt><trkpt lat="44.42521" lon="10.7456417"><ele>665.0</ele><time>2026-04-26T07:40:15.473Z</time></trkpt><trkpt lat="44.42515" lon="10.7458067"><ele>665.0</ele><time>2026-04-26T07:40:16.473Z</time></trkpt><trkpt lat="44.4250967" lon="10.7459833"><ele>665.0</ele><time>2026-04-26T07:40:17.473Z</time></trkpt><trkpt lat="44.4250483" lon="10.7461517"><ele>665.0</ele><time>2026-04-26T07:40:18.473Z</time></trkpt><trkpt lat="44.4250083" lon="10.74631"><ele>665.0</ele><time>2026-04-26T07:40:19.473Z</time></trkpt><trkpt lat="44.4249667" lon="10.746455"><ele>665.2</ele><time>2026-04-26T07:40:20.473Z</time></trkpt><trkpt lat="44.4249283" lon="10.746595"><ele>665.4</ele><time>2026-04-26T07:40:21.472Z</time></trkpt><trkpt lat="44.4248867" lon="10.7467267"><ele>665.5999999999999</ele><time>2026-04-26T07:40:22.472Z</time></trkpt><trkpt lat="44.4248417" lon="10.7468517"><ele>665.8</ele><time>2026-04-26T07:40:23.472Z</time></trkpt><trkpt lat="44.42479" lon="10.746965"><ele>666.0</ele><time>2026-04-26T07:40:24.472Z</time></trkpt><trkpt lat="44.4247233" lon="10.7470733"><ele>664.5999999999999</ele><time>2026-04-26T07:40:25.472Z</time></trkpt><trkpt lat="44.424635" lon="10.7471567"><ele>663.2</ele><time>2026-04-26T07:40:26.472Z</time></trkpt><trkpt lat="44.424545" lon="10.7472133"><ele>661.8</ele><time>2026-04-26T07:40:27.472Z</time></trkpt><trkpt lat="44.4244633" lon="10.7472733"><ele>660.4000000000001</ele><time>2026-04-26T07:40:28.472Z</time></trkpt><trkpt lat="44.4243767" lon="10.747345"><ele>659.0</ele><time>2026-04-26T07:40:29.472Z</time></trkpt><trkpt lat="44.424315" lon="10.7474367"><ele>659.0</ele><time>2026-04-26T07:40:30.472Z</time></trkpt><trkpt lat="44.4242667" lon="10.7475517"><ele>659.0</ele><time>2026-04-26T07:40:31.472Z</time></trkpt><trkpt lat="44.424235" lon="10.7476667"><ele>659.0</ele><time>2026-04-26T07:40:32.472Z</time></trkpt><trkpt lat="44.4241933" lon="10.74778"><ele>659.0</ele><time>2026-04-26T07:40:33.472Z</time></trkpt><trkpt lat="44.4241517" lon="10.7479"><ele>659.0</ele><time>2026-04-26T07:40:34.472Z</time></trkpt><trkpt lat="44.424115" lon="10.748025"><ele>661.6</ele><time>2026-04-26T07:40:35.472Z</time></trkpt><trkpt lat="44.4240833" lon="10.74814"><ele>664.2</ele><time>2026-04-26T07:40:36.472Z</time></trkpt><trkpt lat="44.4240317" lon="10.7482583"><ele>666.8000000000001</ele><time>2026-04-26T07:40:37.472Z</time></trkpt><trkpt lat="44.4239783" lon="10.7483767"><ele>669.4000000000001</ele><time>2026-04-26T07:40:38.472Z</time></trkpt><trkpt lat="44.42393" lon="10.7485"><ele>672.0</ele><time>2026-04-26T07:40:39.472Z</time></trkpt><trkpt lat="44.4238783" lon="10.7486183"><ele>670.6</ele><time>2026-04-26T07:40:40.472Z</time></trkpt><trkpt lat="44.4238367" lon="10.748745"><ele>669.2</ele><time>2026-04-26T07:40:41.473Z</time></trkpt><trkpt lat="44.4237833" lon="10.74887"><ele>667.8</ele><time>2026-04-26T07:40:42.472Z</time></trkpt><trkpt lat="44.4237217" lon="10.748985"><ele>666.4</ele><time>2026-04-26T07:40:43.472Z</time></trkpt><trkpt lat="44.42365" lon="10.749105"><ele>665.0</ele><time>2026-04-26T07:40:44.472Z</time></trkpt><trkpt lat="44.423575" lon="10.7492133"><ele>665.0</ele><time>2026-04-26T07:40:45.472Z</time></trkpt><trkpt lat="44.4234767" lon="10.7492783"><ele>665.0</ele><time>2026-04-26T07:40:46.472Z</time></trkpt><trkpt lat="44.42337" lon="10.749305"><ele>665.0</ele><time>2026-04-26T07:40:47.473Z</time></trkpt><trkpt lat="44.4232633" lon="10.7493017"><ele>665.0</ele><time>2026-04-26T07:40:48.472Z</time></trkpt><trkpt lat="44.4231617" lon="10.7492833"><ele>665.0</ele><time>2026-04-26T07:40:49.472Z</time></trkpt><trkpt lat="44.423065" lon="10.7492667"><ele>664.6666666666666</ele><time>2026-04-26T07:40:50.472Z</time></trkpt><trkpt lat="44.4229783" lon="10.7492433"><ele>664.3333333333333</ele><time>2026-04-26T07:40:51.472Z</time></trkpt><trkpt lat="44.4229017" lon="10.7492233"><ele>664.0</ele><time>2026-04-26T07:40:52.472Z</time></trkpt><trkpt lat="44.4228333" lon="10.7492"><ele>663.6666666666666</ele><time>2026-04-26T07:40:53.472Z</time></trkpt><trkpt lat="44.42271" lon="10.7491567"><ele>663.3333333333334</ele><time>2026-04-26T07:40:55.472Z</time></trkpt><trkpt lat="44.422645" lon="10.7491417"><ele>663.0</ele><time>2026-04-26T07:40:56.472Z</time></trkpt><trkpt lat="44.4225717" lon="10.749145"><ele>663.0</ele><time>2026-04-26T07:40:57.472Z</time></trkpt><trkpt lat="44.42249" lon="10.7491583"><ele>663.0</ele><time>2026-04-26T07:40:58.472Z</time></trkpt><trkpt lat="44.4223967" lon="10.749175"><ele>663.0</ele><time>2026-04-26T07:40:59.472Z</time></trkpt><trkpt lat="44.4222983" lon="10.7491883"><ele>663.0</ele><time>2026-04-26T07:41:00.472Z</time></trkpt><trkpt lat="44.4221967" lon="10.7492017"><ele>663.0</ele><time>2026-04-26T07:41:01.472Z</time></trkpt><trkpt lat="44.4220983" lon="10.7492217"><ele>662.3333333333334</ele><time>2026-04-26T07:41:02.472Z</time></trkpt><trkpt lat="44.4220017" lon="10.7492433"><ele>661.6666666666666</ele><time>2026-04-26T07:41:03.472Z</time></trkpt><trkpt lat="44.4219217" lon="10.7492667"><ele>661.0</ele><time>2026-04-26T07:41:04.472Z</time></trkpt><trkpt lat="44.4218383" lon="10.7492833"><ele>660.3333333333333</ele><time>2026-04-26T07:41:05.472Z</time></trkpt><trkpt lat="44.4217683" lon="10.7492867"><ele>659.6666666666666</ele><time>2026-04-26T07:41:06.472Z</time></trkpt><trkpt lat="44.4217017" lon="10.7492617"><ele>659.0</ele><time>2026-04-26T07:41:07.472Z</time></trkpt><trkpt lat="44.4216433" lon="10.7492183"><ele>659.0</ele><time>2026-04-26T07:41:08.472Z</time></trkpt><trkpt lat="44.4215817" lon="10.74917"><ele>659.0</ele><time>2026-04-26T07:41:09.472Z</time></trkpt><trkpt lat="44.4215133" lon="10.749125"><ele>659.0</ele><time>2026-04-26T07:41:10.472Z</time></trkpt><trkpt lat="44.4214333" lon="10.7490983"><ele>659.0</ele><time>2026-04-26T07:41:11.472Z</time></trkpt><trkpt lat="44.4213583" lon="10.7490833"><ele>659.0</ele><time>2026-04-26T07:41:12.472Z</time></trkpt><trkpt lat="44.4212833" lon="10.7490717"><ele>659.0</ele><time>2026-04-26T07:41:13.472Z</time></trkpt><trkpt lat="44.42122" lon="10.7490617"><ele>659.0</ele><time>2026-04-26T07:41:14.472Z</time></trkpt><trkpt lat="44.421115" lon="10.7490733"><ele>657.8333333333333</ele><time>2026-04-26T07:41:16.472Z</time></trkpt><trkpt lat="44.4210417" lon="10.7491517"><ele>656.6666666666666</ele><time>2026-04-26T07:41:18.472Z</time></trkpt><trkpt lat="44.4210067" lon="10.749225"><ele>655.5</ele><time>2026-04-26T07:41:19.472Z</time></trkpt><trkpt lat="44.4209717" lon="10.749335"><ele>654.3333333333334</ele><time>2026-04-26T07:41:20.472Z</time></trkpt><trkpt lat="44.420935" lon="10.749455"><ele>653.1666666666667</ele><time>2026-04-26T07:41:21.472Z</time></trkpt><trkpt lat="44.4208917" lon="10.7495917"><ele>652.0</ele><time>2026-04-26T07:41:22.472Z</time></trkpt><trkpt lat="44.4208517" lon="10.7497433"><ele>651.25</ele><time>2026-04-26T07:41:23.472Z</time></trkpt><trkpt lat="44.4208267" lon="10.74989"><ele>650.5</ele><time>2026-04-26T07:41:24.472Z</time></trkpt><trkpt lat="44.4208183" lon="10.7500433"><ele>649.75</ele><time>2026-04-26T07:41:25.472Z</time></trkpt><trkpt lat="44.4208133" lon="10.7502117"><ele>649.0</ele><time>2026-04-26T07:41:26.472Z</time></trkpt><trkpt lat="44.4208167" lon="10.7503833"><ele>648.8000000000001</ele><time>2026-04-26T07:41:27.472Z</time></trkpt><trkpt lat="44.4208117" lon="10.7505567"><ele>648.6</ele><time>2026-04-26T07:41:28.472Z</time></trkpt><trkpt lat="44.4208133" lon="10.7507133"><ele>648.4</ele><time>2026-04-26T07:41:29.472Z</time></trkpt><trkpt lat="44.4208" lon="10.7508417"><ele>648.2</ele><time>2026-04-26T07:41:30.472Z</time></trkpt><trkpt lat="44.420775" lon="10.7509517"><ele>648.0</ele><time>2026-04-26T07:41:31.472Z</time></trkpt><trkpt lat="44.42075" lon="10.7510433"><ele>648.0</ele><time>2026-04-26T07:41:32.472Z</time></trkpt><trkpt lat="44.420715" lon="10.751125"><ele>648.0</ele><time>2026-04-26T07:41:33.472Z</time></trkpt><trkpt lat="44.4205917" lon="10.75123"><ele>648.0</ele><time>2026-04-26T07:41:35.472Z</time></trkpt><trkpt lat="44.4205117" lon="10.7513033"><ele>648.0</ele><time>2026-04-26T07:41:36.472Z</time></trkpt><trkpt lat="44.4204233" lon="10.751375"><ele>648.0</ele><time>2026-04-26T07:41:37.472Z</time></trkpt><trkpt lat="44.4203383" lon="10.7514483"><ele>643.8</ele><time>2026-04-26T07:41:38.472Z</time></trkpt><trkpt lat="44.4202517" lon="10.7515217"><ele>639.5999999999999</ele><time>2026-04-26T07:41:39.472Z</time></trkpt><trkpt lat="44.4201567" lon="10.7516067"><ele>635.4000000000001</ele><time>2026-04-26T07:41:40.472Z</time></trkpt><trkpt lat="44.420065" lon="10.7516867"><ele>631.2</ele><time>2026-04-26T07:41:41.472Z</time></trkpt><trkpt lat="44.4199717" lon="10.7517617"><ele>627.0</ele><time>2026-04-26T07:41:42.472Z</time></trkpt><trkpt lat="44.41988" lon="10.7518367"><ele>626.5</ele><time>2026-04-26T07:41:43.472Z</time></trkpt><trkpt lat="44.4197933" lon="10.7519"><ele>626.0</ele><time>2026-04-26T07:41:44.472Z</time></trkpt><trkpt lat="44.4197167" lon="10.7519517"><ele>625.5</ele><time>2026-04-26T07:41:45.472Z</time></trkpt><trkpt lat="44.41965" lon="10.7520167"><ele>625.0</ele><time>2026-04-26T07:41:46.472Z</time></trkpt><trkpt lat="44.4196" lon="10.75211"><ele>624.5</ele><time>2026-04-26T07:41:47.472Z</time></trkpt><trkpt lat="44.4195667" lon="10.7522167"><ele>624.0</ele><time>2026-04-26T07:41:48.472Z</time></trkpt><trkpt lat="44.41953" lon="10.752325"><ele>621.5</ele><time>2026-04-26T07:41:49.472Z</time></trkpt><trkpt lat="44.4195083" lon="10.7524317"><ele>619.0</ele><time>2026-04-26T07:41:50.472Z</time></trkpt><trkpt lat="44.41951" lon="10.752525"><ele>616.5</ele><time>2026-04-26T07:41:51.472Z</time></trkpt><trkpt lat="44.41952" lon="10.7526133"><ele>614.0</ele><time>2026-04-26T07:41:52.472Z</time></trkpt><trkpt lat="44.4195467" lon="10.752715"><ele>611.5</ele><time>2026-04-26T07:41:53.472Z</time></trkpt><trkpt lat="44.419585" lon="10.752835"><ele>609.0</ele><time>2026-04-26T07:41:54.472Z</time></trkpt><trkpt lat="44.4196367" lon="10.7529733"><ele>609.8</ele><time>2026-04-26T07:41:55.472Z</time></trkpt><trkpt lat="44.4196917" lon="10.7531233"><ele>610.5999999999999</ele><time>2026-04-26T07:41:56.472Z</time></trkpt><trkpt lat="44.4197317" lon="10.7532717"><ele>611.4</ele><time>2026-04-26T07:41:57.473Z</time></trkpt><trkpt lat="44.4197683" lon="10.753405"><ele>612.1999999999999</ele><time>2026-04-26T07:41:58.472Z</time></trkpt><trkpt lat="44.4198133" lon="10.7535167"><ele>613.0</ele><time>2026-04-26T07:41:59.472Z</time></trkpt><trkpt lat="44.419875" lon="10.753615"><ele>610.6</ele><time>2026-04-26T07:42:00.472Z</time></trkpt><trkpt lat="44.4199417" lon="10.7537217"><ele>608.1999999999999</ele><time>2026-04-26T07:42:01.472Z</time></trkpt><trkpt lat="44.42001" lon="10.753835"><ele>605.8</ele><time>2026-04-26T07:42:02.473Z</time></trkpt><trkpt lat="44.4200717" lon="10.75395"><ele>603.4</ele><time>2026-04-26T07:42:03.472Z</time></trkpt><trkpt lat="44.4201267" lon="10.7540467"><ele>601.0</ele><time>2026-04-26T07:42:04.472Z</time></trkpt><trkpt lat="44.4201683" lon="10.75414"><ele>601.0</ele><time>2026-04-26T07:42:05.472Z</time></trkpt><trkpt lat="44.4201883" lon="10.75423"><ele>601.0</ele><time>2026-04-26T07:42:06.472Z</time></trkpt><trkpt lat="44.4201817" lon="10.7543317"><ele>601.0</ele><time>2026-04-26T07:42:07.472Z</time></trkpt><trkpt lat="44.4201483" lon="10.7544417"><ele>601.0</ele><time>2026-04-26T07:42:08.472Z</time></trkpt><trkpt lat="44.4201033" lon="10.7545633"><ele>601.0</ele><time>2026-04-26T07:42:09.472Z</time></trkpt><trkpt lat="44.4200583" lon="10.7547017"><ele>601.0</ele><time>2026-04-26T07:42:10.472Z</time></trkpt><trkpt lat="44.4200183" lon="10.754845"><ele>601.6</ele><time>2026-04-26T07:42:11.472Z</time></trkpt><trkpt lat="44.4199667" lon="10.7549733"><ele>602.2</ele><time>2026-04-26T07:42:12.472Z</time></trkpt><trkpt lat="44.41991" lon="10.755085"><ele>602.8</ele><time>2026-04-26T07:42:13.472Z</time></trkpt><trkpt lat="44.4198433" lon="10.75519"><ele>603.4</ele><time>2026-04-26T07:42:14.472Z</time></trkpt><trkpt lat="44.4197683" lon="10.7552817"><ele>604.0</ele><time>2026-04-26T07:42:15.472Z</time></trkpt><trkpt lat="44.4196967" lon="10.7553633"><ele>600.3333333333334</ele><time>2026-04-26T07:42:16.472Z</time></trkpt><trkpt lat="44.4196267" lon="10.7554333"><ele>596.6666666666667</ele><time>2026-04-26T07:42:17.472Z</time></trkpt><trkpt lat="44.4195817" lon="10.7555033"><ele>593.0</ele><time>2026-04-26T07:42:18.472Z</time></trkpt><trkpt lat="44.419555" lon="10.7555983"><ele>589.3333333333334</ele><time>2026-04-26T07:42:19.472Z</time></trkpt><trkpt lat="44.419545" lon="10.755705"><ele>585.6666666666666</ele><time>2026-04-26T07:42:20.472Z</time></trkpt><trkpt lat="44.4195383" lon="10.7558217"><ele>582.0</ele><time>2026-04-26T07:42:21.472Z</time></trkpt><trkpt lat="44.4195233" lon="10.7559217"><ele>582.0</ele><time>2026-04-26T07:42:22.473Z</time></trkpt><trkpt lat="44.4194933" lon="10.75602"><ele>582.0</ele><time>2026-04-26T07:42:23.472Z</time></trkpt><trkpt lat="44.4194467" lon="10.75611"><ele>582.0</ele><time>2026-04-26T07:42:24.472Z</time></trkpt><trkpt lat="44.419385" lon="10.7561817"><ele>582.0</ele><time>2026-04-26T07:42:25.472Z</time></trkpt><trkpt lat="44.4193133" lon="10.75624"><ele>582.0</ele><time>2026-04-26T07:42:26.472Z</time></trkpt><trkpt lat="44.4192333" lon="10.7562883"><ele>582.0</ele><time>2026-04-26T07:42:27.472Z</time></trkpt><trkpt lat="44.4191433" lon="10.7563383"><ele>579.8000000000001</ele><time>2026-04-26T07:42:28.472Z</time></trkpt><trkpt lat="44.4190483" lon="10.7564017"><ele>577.6</ele><time>2026-04-26T07:42:29.472Z</time></trkpt><trkpt lat="44.4189533" lon="10.75646"><ele>575.4000000000001</ele><time>2026-04-26T07:42:30.472Z</time></trkpt><trkpt lat="44.4188567" lon="10.7565067"><ele>573.2</ele><time>2026-04-26T07:42:31.472Z</time></trkpt><trkpt lat="44.41876" lon="10.7565533"><ele>571.0</ele><time>2026-04-26T07:42:32.472Z</time></trkpt><trkpt lat="44.4186683" lon="10.7565917"><ele>571.0</ele><time>2026-04-26T07:42:33.472Z</time></trkpt><trkpt lat="44.4185833" lon="10.75661"><ele>571.0</ele><time>2026-04-26T07:42:34.472Z</time></trkpt><trkpt lat="44.4185033" lon="10.7566233"><ele>571.0</ele><time>2026-04-26T07:42:35.472Z</time></trkpt><trkpt lat="44.4184283" lon="10.7566667"><ele>571.0</ele><time>2026-04-26T07:42:36.472Z</time></trkpt><trkpt lat="44.418365" lon="10.7567433"><ele>571.0</ele><time>2026-04-26T07:42:37.472Z</time></trkpt><trkpt lat="44.41831" lon="10.756845"><ele>571.0</ele><time>2026-04-26T07:42:38.472Z</time></trkpt><trkpt lat="44.41826" lon="10.7569667"><ele>572.6</ele><time>2026-04-26T07:42:39.472Z</time></trkpt><trkpt lat="44.4182133" lon="10.7570967"><ele>574.2</ele><time>2026-04-26T07:42:40.472Z</time></trkpt><trkpt lat="44.4181617" lon="10.75722"><ele>575.8</ele><time>2026-04-26T07:42:41.473Z</time></trkpt><trkpt lat="44.4181133" lon="10.7573417"><ele>577.4</ele><time>2026-04-26T07:42:42.472Z</time></trkpt><trkpt lat="44.41806" lon="10.7574617"><ele>579.0</ele><time>2026-04-26T07:42:43.472Z</time></trkpt><trkpt lat="44.4180017" lon="10.7575917"><ele>574.2</ele><time>2026-04-26T07:42:44.472Z</time></trkpt><trkpt lat="44.4179483" lon="10.7577317"><ele>569.4</ele><time>2026-04-26T07:42:45.472Z</time></trkpt><trkpt lat="44.4179083" lon="10.7578767"><ele>564.6</ele><time>2026-04-26T07:42:46.472Z</time></trkpt><trkpt lat="44.4178667" lon="10.758015"><ele>559.8</ele><time>2026-04-26T07:42:47.472Z</time></trkpt><trkpt lat="44.41782" lon="10.7581317"><ele>555.0</ele><time>2026-04-26T07:42:48.472Z</time></trkpt><trkpt lat="44.41777" lon="10.7582333"><ele>555.0000000000001</ele><time>2026-04-26T07:42:49.472Z</time></trkpt><trkpt lat="44.4177267" lon="10.75833"><ele>555.0</ele><time>2026-04-26T07:42:50.472Z</time></trkpt><trkpt lat="44.4176833" lon="10.758425"><ele>555.0</ele><time>2026-04-26T07:42:51.472Z</time></trkpt><trkpt lat="44.4176333" lon="10.75851"><ele>555.0</ele><time>2026-04-26T07:42:52.472Z</time></trkpt><trkpt lat="44.4175817" lon="10.7585783"><ele>555.0</ele><time>2026-04-26T07:42:53.472Z</time></trkpt><trkpt lat="44.417535" lon="10.7586417"><ele>555.0000000000001</ele><time>2026-04-26T07:42:54.472Z</time></trkpt><trkpt lat="44.4174817" lon="10.7586967"><ele>555.0</ele><time>2026-04-26T07:42:56.472Z</time></trkpt><trkpt lat="44.4174167" lon="10.7587583"><ele>552.8</ele><time>2026-04-26T07:43:15.473Z</time></trkpt><trkpt lat="44.4173183" lon="10.75887"><ele>550.6</ele><time>2026-04-26T07:43:17.472Z</time></trkpt><trkpt lat="44.4172367" lon="10.7589667"><ele>548.4</ele><time>2026-04-26T07:43:19.472Z</time></trkpt><trkpt lat="44.4171717" lon="10.7590567"><ele>546.2</ele><time>2026-04-26T07:43:21.472Z</time></trkpt><trkpt lat="44.41712" lon="10.759145"><ele>544.0</ele><time>2026-04-26T07:43:23.472Z</time></trkpt><trkpt lat="44.4170817" lon="10.7592617"><ele>544.8</ele><time>2026-04-26T07:43:25.472Z</time></trkpt><trkpt lat="44.4170317" lon="10.759375"><ele>545.5999999999999</ele><time>2026-04-26T07:43:27.473Z</time></trkpt><trkpt lat="44.41698" lon="10.7594633"><ele>546.4</ele><time>2026-04-26T07:43:29.472Z</time></trkpt><trkpt lat="44.4169333" lon="10.7595533"><ele>547.1999999999999</ele><time>2026-04-26T07:43:31.472Z</time></trkpt><trkpt lat="44.4168833" lon="10.75967"><ele>548.0</ele><time>2026-04-26T07:43:33.472Z</time></trkpt><trkpt lat="44.41685" lon="10.7598233"><ele>548.0000000000001</ele><time>2026-04-26T07:43:35.472Z</time></trkpt><trkpt lat="44.4168383" lon="10.7599167"><ele>548.0</ele><time>2026-04-26T07:43:36.472Z</time></trkpt><trkpt lat="44.4168283" lon="10.7600083"><ele>548.0</ele><time>2026-04-26T07:43:37.472Z</time></trkpt><trkpt lat="44.4168133" lon="10.7601083"><ele>548.0</ele><time>2026-04-26T07:43:38.472Z</time></trkpt><trkpt lat="44.4168" lon="10.7602033"><ele>548.0</ele><time>2026-04-26T07:43:39.472Z</time></trkpt><trkpt lat="44.41678" lon="10.7603"><ele>548.0000000000001</ele><time>2026-04-26T07:43:40.472Z</time></trkpt><trkpt lat="44.4167567" lon="10.7603883"><ele>548.0</ele><time>2026-04-26T07:43:41.472Z</time></trkpt><trkpt lat="44.4167233" lon="10.7604833"><ele>549.5</ele><time>2026-04-26T07:43:42.472Z</time></trkpt><trkpt lat="44.4166833" lon="10.7605683"><ele>551.0</ele><time>2026-04-26T07:43:43.472Z</time></trkpt><trkpt lat="44.416645" lon="10.76065"><ele>552.5</ele><time>2026-04-26T07:43:44.472Z</time></trkpt><trkpt lat="44.4166033" lon="10.760725"><ele>554.0</ele><time>2026-04-26T07:43:45.472Z</time></trkpt><trkpt lat="44.4165583" lon="10.7607883"><ele>555.5</ele><time>2026-04-26T07:43:46.472Z</time></trkpt><trkpt lat="44.416465" lon="10.7609083"><ele>557.0</ele><time>2026-04-26T07:43:48.472Z</time></trkpt><trkpt lat="44.4164233" lon="10.76098"><ele>558.2</ele><time>2026-04-26T07:43:49.472Z</time></trkpt><trkpt lat="44.4163783" lon="10.7610667"><ele>559.4000000000001</ele><time>2026-04-26T07:43:50.472Z</time></trkpt><trkpt lat="44.4163333" lon="10.7611633"><ele>560.5999999999999</ele><time>2026-04-26T07:43:51.472Z</time></trkpt><trkpt lat="44.416275" lon="10.7612733"><ele>561.8</ele><time>2026-04-26T07:43:52.472Z</time></trkpt><trkpt lat="44.4162117" lon="10.7613967"><ele>563.0</ele><time>2026-04-26T07:43:53.472Z</time></trkpt><trkpt lat="44.41615" lon="10.761535"><ele>557.0</ele><time>2026-04-26T07:43:54.472Z</time></trkpt><trkpt lat="44.4160917" lon="10.761665"><ele>551.0</ele><time>2026-04-26T07:43:55.472Z</time></trkpt><trkpt lat="44.4160383" lon="10.7617967"><ele>545.0</ele><time>2026-04-26T07:43:56.472Z</time></trkpt><trkpt lat="44.4159867" lon="10.7619267"><ele>539.0</ele><time>2026-04-26T07:43:57.472Z</time></trkpt><trkpt lat="44.4159283" lon="10.76207"><ele>533.0</ele><time>2026-04-26T07:43:58.472Z</time></trkpt><trkpt lat="44.415885" lon="10.762215"><ele>533.0</ele><time>2026-04-26T07:43:59.472Z</time></trkpt><trkpt lat="44.4158517" lon="10.7623617"><ele>533.0</ele><time>2026-04-26T07:44:00.472Z</time></trkpt><trkpt lat="44.415835" lon="10.7625083"><ele>533.0</ele><time>2026-04-26T07:44:01.472Z</time></trkpt><trkpt lat="44.4157983" lon="10.7626467"><ele>533.0</ele><time>2026-04-26T07:44:02.472Z</time></trkpt><trkpt lat="44.4157517" lon="10.76278"><ele>533.0</ele><time>2026-04-26T07:44:03.472Z</time></trkpt><trkpt lat="44.415685" lon="10.762915"><ele>533.4</ele><time>2026-04-26T07:44:04.472Z</time></trkpt><trkpt lat="44.4156067" lon="10.7630417"><ele>533.8</ele><time>2026-04-26T07:44:05.472Z</time></trkpt><trkpt lat="44.4155283" lon="10.7631567"><ele>534.2</ele><time>2026-04-26T07:44:06.472Z</time></trkpt><trkpt lat="44.415445" lon="10.7632517"><ele>534.6</ele><time>2026-04-26T07:44:07.472Z</time></trkpt><trkpt lat="44.415355" lon="10.7633117"><ele>535.0</ele><time>2026-04-26T07:44:08.472Z</time></trkpt><trkpt lat="44.415265" lon="10.7633533"><ele>532.2</ele><time>2026-04-26T07:44:09.472Z</time></trkpt><trkpt lat="44.4151683" lon="10.763375"><ele>529.4</ele><time>2026-04-26T07:44:10.473Z</time></trkpt><trkpt lat="44.4150867" lon="10.7634283"><ele>526.6</ele><time>2026-04-26T07:44:11.472Z</time></trkpt><trkpt lat="44.4150267" lon="10.7635083"><ele>523.8</ele><time>2026-04-26T07:44:12.472Z</time></trkpt><trkpt lat="44.41497" lon="10.7636133"><ele>521.0</ele><time>2026-04-26T07:44:13.472Z</time></trkpt><trkpt lat="44.41491" lon="10.76371"><ele>521.0</ele><time>2026-04-26T07:44:14.472Z</time></trkpt><trkpt lat="44.414845" lon="10.7637983"><ele>521.0</ele><time>2026-04-26T07:44:15.472Z</time></trkpt><trkpt lat="44.41478" lon="10.7638833"><ele>521.0</ele><time>2026-04-26T07:44:16.472Z</time></trkpt><trkpt lat="44.4147217" lon="10.7639583"><ele>521.0</ele><time>2026-04-26T07:44:17.472Z</time></trkpt><trkpt lat="44.4146517" lon="10.7640267"><ele>521.0</ele><time>2026-04-26T07:44:18.472Z</time></trkpt><trkpt lat="44.4145733" lon="10.7640683"><ele>521.0</ele><time>2026-04-26T07:44:19.472Z</time></trkpt><trkpt lat="44.414485" lon="10.7641133"><ele>522.6</ele><time>2026-04-26T07:44:20.472Z</time></trkpt><trkpt lat="44.4143883" lon="10.7641717"><ele>524.2</ele><time>2026-04-26T07:44:21.472Z</time></trkpt><trkpt lat="44.4142917" lon="10.7642367"><ele>525.8</ele><time>2026-04-26T07:44:22.472Z</time></trkpt><trkpt lat="44.41419" lon="10.7643067"><ele>527.4</ele><time>2026-04-26T07:44:23.472Z</time></trkpt><trkpt lat="44.4140933" lon="10.7643883"><ele>529.0</ele><time>2026-04-26T07:44:24.472Z</time></trkpt><trkpt lat="44.4140033" lon="10.76449"><ele>529.6</ele><time>2026-04-26T07:44:25.472Z</time></trkpt><trkpt lat="44.41392" lon="10.7645967"><ele>530.2</ele><time>2026-04-26T07:44:26.473Z</time></trkpt><trkpt lat="44.4138367" lon="10.7646717"><ele>530.8000000000001</ele><time>2026-04-26T07:44:27.473Z</time></trkpt><trkpt lat="44.413755" lon="10.7647117"><ele>531.4</ele><time>2026-04-26T07:44:28.472Z</time></trkpt><trkpt lat="44.4136683" lon="10.7647217"><ele>532.0</ele><time>2026-04-26T07:44:29.472Z</time></trkpt><trkpt lat="44.4135817" lon="10.7647117"><ele>534.2</ele><time>2026-04-26T07:44:30.472Z</time></trkpt><trkpt lat="44.4134833" lon="10.7647183"><ele>536.4000000000001</ele><time>2026-04-26T07:44:31.472Z</time></trkpt><trkpt lat="44.41339" lon="10.7647517"><ele>538.5999999999999</ele><time>2026-04-26T07:44:32.472Z</time></trkpt><trkpt lat="44.4132917" lon="10.76481"><ele>540.8</ele><time>2026-04-26T07:44:33.472Z</time></trkpt><trkpt lat="44.4132133" lon="10.7648733"><ele>543.0</ele><time>2026-04-26T07:44:34.472Z</time></trkpt><trkpt lat="44.4131417" lon="10.7648967"><ele>543.0</ele><time>2026-04-26T07:44:35.472Z</time></trkpt><trkpt lat="44.413035" lon="10.76486"><ele>543.0</ele><time>2026-04-26T07:44:37.472Z</time></trkpt><trkpt lat="44.4129933" lon="10.7647717"><ele>543.0</ele><time>2026-04-26T07:44:39.472Z</time></trkpt><trkpt lat="44.4129983" lon="10.7646733"><ele>543.0</ele><time>2026-04-26T07:44:41.472Z</time></trkpt><trkpt lat="44.4130633" lon="10.7645417"><ele>543.0</ele><time>2026-04-26T07:44:43.472Z</time></trkpt><trkpt lat="44.4130967" lon="10.76445"><ele>543.0</ele><time>2026-04-26T07:44:44.472Z</time></trkpt><trkpt lat="44.4131233" lon="10.7643617"><ele>544.4</ele><time>2026-04-26T07:44:45.471Z</time></trkpt><trkpt lat="44.4131417" lon="10.764245"><ele>545.8</ele><time>2026-04-26T07:44:46.471Z</time></trkpt><trkpt lat="44.4131467" lon="10.7641083"><ele>547.2</ele><time>2026-04-26T07:44:47.471Z</time></trkpt><trkpt lat="44.413135" lon="10.7639717"><ele>548.6</ele><time>2026-04-26T07:44:48.471Z</time></trkpt><trkpt lat="44.4131083" lon="10.763845"><ele>550.0</ele><time>2026-04-26T07:44:49.471Z</time></trkpt><trkpt lat="44.4130583" lon="10.763725"><ele>550.0</ele><time>2026-04-26T07:44:50.471Z</time></trkpt><trkpt lat="44.413015" lon="10.7636083"><ele>550.0</ele><time>2026-04-26T07:44:51.471Z</time></trkpt><trkpt lat="44.412975" lon="10.7635017"><ele>550.0</ele><time>2026-04-26T07:44:52.471Z</time></trkpt><trkpt lat="44.41293" lon="10.7634067"><ele>550.0</ele><time>2026-04-26T07:44:53.471Z</time></trkpt><trkpt lat="44.4128867" lon="10.76333"><ele>550.0</ele><time>2026-04-26T07:44:54.472Z</time></trkpt><trkpt lat="44.4127933" lon="10.763295"><ele>550.0</ele><time>2026-04-26T07:44:56.471Z</time></trkpt><trkpt lat="44.412735" lon="10.7633283"><ele>553.4</ele><time>2026-04-26T07:44:57.471Z</time></trkpt><trkpt lat="44.4126333" lon="10.76343"><ele>556.8</ele><time>2026-04-26T07:44:59.471Z</time></trkpt><trkpt lat="44.41258" lon="10.7634967"><ele>560.2</ele><time>2026-04-26T07:45:00.471Z</time></trkpt><trkpt lat="44.41247" lon="10.763545"><ele>563.6</ele><time>2026-04-26T07:45:02.471Z</time></trkpt><trkpt lat="44.4124067" lon="10.7635117"><ele>567.0</ele><time>2026-04-26T07:45:03.471Z</time></trkpt><trkpt lat="44.4123317" lon="10.76346"><ele>567.3333333333334</ele><time>2026-04-26T07:45:04.471Z</time></trkpt><trkpt lat="44.4122467" lon="10.763405"><ele>567.6666666666666</ele><time>2026-04-26T07:45:05.471Z</time></trkpt><trkpt lat="44.4121667" lon="10.7633667"><ele>568.0</ele><time>2026-04-26T07:45:06.471Z</time></trkpt><trkpt lat="44.41209" lon="10.7633533"><ele>568.3333333333333</ele><time>2026-04-26T07:45:07.471Z</time></trkpt><trkpt lat="44.41201" lon="10.76335"><ele>568.6666666666666</ele><time>2026-04-26T07:45:08.471Z</time></trkpt><trkpt lat="44.411925" lon="10.7633517"><ele>569.0</ele><time>2026-04-26T07:45:09.471Z</time></trkpt><trkpt lat="44.4118317" lon="10.7633367"><ele>572.6</ele><time>2026-04-26T07:45:10.471Z</time></trkpt><trkpt lat="44.4117283" lon="10.7632933"><ele>576.2</ele><time>2026-04-26T07:45:11.471Z</time></trkpt><trkpt lat="44.41162" lon="10.7632317"><ele>579.8000000000001</ele><time>2026-04-26T07:45:12.471Z</time></trkpt><trkpt lat="44.4115167" lon="10.76317"><ele>583.4</ele><time>2026-04-26T07:45:13.471Z</time></trkpt><trkpt lat="44.4114383" lon="10.7631233"><ele>587.0</ele><time>2026-04-26T07:45:14.471Z</time></trkpt><trkpt lat="44.4113717" lon="10.7631017"><ele>588.5714285714286</ele><time>2026-04-26T07:45:15.471Z</time></trkpt><trkpt lat="44.4113083" lon="10.763115"><ele>590.1428571428572</ele><time>2026-04-26T07:45:16.471Z</time></trkpt><trkpt lat="44.4112433" lon="10.7631417"><ele>591.7142857142858</ele><time>2026-04-26T07:45:17.471Z</time></trkpt><trkpt lat="44.411165" lon="10.7631767"><ele>593.2857142857143</ele><time>2026-04-26T07:45:18.471Z</time></trkpt><trkpt lat="44.4110867" lon="10.7632017"><ele>594.8571428571429</ele><time>2026-04-26T07:45:19.471Z</time></trkpt><trkpt lat="44.41101" lon="10.7632067"><ele>596.4285714285714</ele><time>2026-04-26T07:45:20.471Z</time></trkpt><trkpt lat="44.4109367" lon="10.76322"><ele>598.0</ele><time>2026-04-26T07:45:21.471Z</time></trkpt><trkpt lat="44.4108233" lon="10.7633117"><ele>598.0</ele><time>2026-04-26T07:45:23.471Z</time></trkpt><trkpt lat="44.4107517" lon="10.7633917"><ele>598.0</ele><time>2026-04-26T07:45:24.472Z</time></trkpt><trkpt lat="44.410655" lon="10.7634767"><ele>598.0</ele><time>2026-04-26T07:45:25.472Z</time></trkpt><trkpt lat="44.4105417" lon="10.76357"><ele>598.0</ele><time>2026-04-26T07:45:26.471Z</time></trkpt><trkpt lat="44.4104267" lon="10.7636517"><ele>599.5</ele><time>2026-04-26T07:45:27.471Z</time></trkpt><trkpt lat="44.4103083" lon="10.76371"><ele>601.0</ele><time>2026-04-26T07:45:28.471Z</time></trkpt><trkpt lat="44.4101883" lon="10.7637333"><ele>602.5</ele><time>2026-04-26T07:45:29.472Z</time></trkpt><trkpt lat="44.410055" lon="10.76373"><ele>604.0</ele><time>2026-04-26T07:45:30.471Z</time></trkpt><trkpt lat="44.409915" lon="10.7637067"><ele>604.0</ele><time>2026-04-26T07:45:31.471Z</time></trkpt><trkpt lat="44.4097767" lon="10.7636683"><ele>604.0</ele><time>2026-04-26T07:45:32.471Z</time></trkpt><trkpt lat="44.4096283" lon="10.76362"><ele>604.0</ele><time>2026-04-26T07:45:33.471Z</time></trkpt><trkpt lat="44.4094817" lon="10.7635833"><ele>604.0</ele><time>2026-04-26T07:45:34.471Z</time></trkpt><trkpt lat="44.4093433" lon="10.7635533"><ele>606.25</ele><time>2026-04-26T07:45:35.471Z</time></trkpt><trkpt lat="44.409215" lon="10.7635283"><ele>608.5</ele><time>2026-04-26T07:45:36.471Z</time></trkpt><trkpt lat="44.4091" lon="10.7634867"><ele>610.75</ele><time>2026-04-26T07:45:37.471Z</time></trkpt><trkpt lat="44.4089917" lon="10.763455"><ele>613.0</ele><time>2026-04-26T07:45:38.472Z</time></trkpt><trkpt lat="44.4089017" lon="10.7634233"><ele>614.8333333333334</ele><time>2026-04-26T07:45:39.471Z</time></trkpt><trkpt lat="44.4088233" lon="10.76341"><ele>616.6666666666667</ele><time>2026-04-26T07:45:40.471Z</time></trkpt><trkpt lat="44.4087533" lon="10.76342"><ele>618.5</ele><time>2026-04-26T07:45:41.471Z</time></trkpt><trkpt lat="44.40869" lon="10.7634533"><ele>620.3333333333334</ele><time>2026-04-26T07:45:42.471Z</time></trkpt><trkpt lat="44.4086183" lon="10.763505"><ele>622.1666666666666</ele><time>2026-04-26T07:45:43.471Z</time></trkpt><trkpt lat="44.4085383" lon="10.76356"><ele>624.0</ele><time>2026-04-26T07:45:44.472Z</time></trkpt><trkpt lat="44.4084517" lon="10.7636083"><ele>624.4</ele><time>2026-04-26T07:45:45.471Z</time></trkpt><trkpt lat="44.408355" lon="10.76366"><ele>624.8</ele><time>2026-04-26T07:45:46.471Z</time></trkpt><trkpt lat="44.4082567" lon="10.7637067"><ele>625.2</ele><time>2026-04-26T07:45:47.471Z</time></trkpt><trkpt lat="44.4081667" lon="10.7637617"><ele>625.6</ele><time>2026-04-26T07:45:48.471Z</time></trkpt><trkpt lat="44.4080967" lon="10.7638283"><ele>626.0</ele><time>2026-04-26T07:45:49.471Z</time></trkpt><trkpt lat="44.40804" lon="10.7639017"><ele>626.0</ele><time>2026-04-26T07:45:50.471Z</time></trkpt><trkpt lat="44.4080017" lon="10.7639733"><ele>626.0</ele><time>2026-04-26T07:45:51.471Z</time></trkpt><trkpt lat="44.4079867" lon="10.7640733"><ele>626.0</ele><time>2026-04-26T07:45:53.471Z</time></trkpt><trkpt lat="44.4080617" lon="10.7641433"><ele>626.0</ele><time>2026-04-26T07:45:56.471Z</time></trkpt><trkpt lat="44.4081517" lon="10.7642017"><ele>626.0</ele><time>2026-04-26T07:45:58.471Z</time></trkpt><trkpt lat="44.4082033" lon="10.7642583"><ele>626.0</ele><time>2026-04-26T07:45:59.471Z</time></trkpt><trkpt lat="44.4082583" lon="10.76434"><ele>625.8333333333333</ele><time>2026-04-26T07:46:00.471Z</time></trkpt><trkpt lat="44.40831" lon="10.764435"><ele>625.6666666666666</ele><time>2026-04-26T07:46:01.471Z</time></trkpt><trkpt lat="44.4083517" lon="10.764545"><ele>625.5</ele><time>2026-04-26T07:46:02.471Z</time></trkpt><trkpt lat="44.408385" lon="10.7646583"><ele>625.3333333333334</ele><time>2026-04-26T07:46:03.471Z</time></trkpt><trkpt lat="44.4084167" lon="10.7647733"><ele>625.1666666666667</ele><time>2026-04-26T07:46:04.471Z</time></trkpt><trkpt lat="44.4084367" lon="10.764885"><ele>625.0</ele><time>2026-04-26T07:46:05.471Z</time></trkpt><trkpt lat="44.4084433" lon="10.765"><ele>625.0</ele><time>2026-04-26T07:46:06.471Z</time></trkpt><trkpt lat="44.4084317" lon="10.7651167"><ele>625.0</ele><time>2026-04-26T07:46:07.471Z</time></trkpt><trkpt lat="44.4084133" lon="10.7652233"><ele>625.0</ele><time>2026-04-26T07:46:08.471Z</time></trkpt><trkpt lat="44.4083883" lon="10.7653317"><ele>625.0</ele><time>2026-04-26T07:46:09.471Z</time></trkpt><trkpt lat="44.4083617" lon="10.7654467"><ele>625.0</ele><time>2026-04-26T07:46:10.471Z</time></trkpt><trkpt lat="44.4083333" lon="10.7655683"><ele>625.0</ele><time>2026-04-26T07:46:11.471Z</time></trkpt><trkpt lat="44.4083117" lon="10.7657033"><ele>624.4</ele><time>2026-04-26T07:46:12.471Z</time></trkpt><trkpt lat="44.4083033" lon="10.7658467"><ele>623.8</ele><time>2026-04-26T07:46:13.471Z</time></trkpt><trkpt lat="44.4083083" lon="10.76599"><ele>623.2</ele><time>2026-04-26T07:46:14.471Z</time></trkpt><trkpt lat="44.4083167" lon="10.7661233"><ele>622.6</ele><time>2026-04-26T07:46:15.471Z</time></trkpt><trkpt lat="44.4083333" lon="10.7662533"><ele>622.0</ele><time>2026-04-26T07:46:16.471Z</time></trkpt><trkpt lat="44.4083583" lon="10.7663817"><ele>620.8000000000001</ele><time>2026-04-26T07:46:17.471Z</time></trkpt><trkpt lat="44.4083933" lon="10.766505"><ele>619.6</ele><time>2026-04-26T07:46:18.471Z</time></trkpt><trkpt lat="44.408445" lon="10.7666183"><ele>618.4000000000001</ele><time>2026-04-26T07:46:19.471Z</time></trkpt><trkpt lat="44.4085067" lon="10.7667333"><ele>617.2</ele><time>2026-04-26T07:46:20.471Z</time></trkpt><trkpt lat="44.4085867" lon="10.7668483"><ele>616.0</ele><time>2026-04-26T07:46:21.471Z</time></trkpt><trkpt lat="44.4086733" lon="10.7669567"><ele>615.75</ele><time>2026-04-26T07:46:22.471Z</time></trkpt><trkpt lat="44.4087567" lon="10.7670533"><ele>615.5</ele><time>2026-04-26T07:46:23.471Z</time></trkpt><trkpt lat="44.40884" lon="10.7671717"><ele>615.25</ele><time>2026-04-26T07:46:24.471Z</time></trkpt><trkpt lat="44.4089267" lon="10.767295"><ele>615.0</ele><time>2026-04-26T07:46:25.471Z</time></trkpt><trkpt lat="44.4090117" lon="10.7674233"><ele>615.25</ele><time>2026-04-26T07:46:26.471Z</time></trkpt><trkpt lat="44.4091067" lon="10.7675533"><ele>615.5</ele><time>2026-04-26T07:46:27.471Z</time></trkpt><trkpt lat="44.4092083" lon="10.76767"><ele>615.75</ele><time>2026-04-26T07:46:28.471Z</time></trkpt><trkpt lat="44.40931" lon="10.7677767"><ele>616.0</ele><time>2026-04-26T07:46:29.471Z</time></trkpt><trkpt lat="44.409405" lon="10.7678633"><ele>616.0</ele><time>2026-04-26T07:46:30.471Z</time></trkpt><trkpt lat="44.409505" lon="10.7679433"><ele>616.0</ele><time>2026-04-26T07:46:31.471Z</time></trkpt><trkpt lat="44.4096067" lon="10.76802"><ele>616.0</ele><time>2026-04-26T07:46:32.471Z</time></trkpt><trkpt lat="44.4097167" lon="10.7681067"><ele>616.0</ele><time>2026-04-26T07:46:33.471Z</time></trkpt><trkpt lat="44.4098267" lon="10.7681867"><ele>615.5</ele><time>2026-04-26T07:46:34.471Z</time></trkpt><trkpt lat="44.4099383" lon="10.76828"><ele>615.0</ele><time>2026-04-26T07:46:35.471Z</time></trkpt><trkpt lat="44.4100517" lon="10.7683833"><ele>614.5</ele><time>2026-04-26T07:46:36.471Z</time></trkpt><trkpt lat="44.4101633" lon="10.7684883"><ele>614.0</ele><time>2026-04-26T07:46:37.472Z</time></trkpt><trkpt lat="44.4102767" lon="10.76859"><ele>615.5</ele><time>2026-04-26T07:46:38.471Z</time></trkpt><trkpt lat="44.4103833" lon="10.7686983"><ele>617.0</ele><time>2026-04-26T07:46:39.471Z</time></trkpt><trkpt lat="44.4104867" lon="10.76881"><ele>618.5</ele><time>2026-04-26T07:46:40.471Z</time></trkpt><trkpt lat="44.4105867" lon="10.76892"><ele>620.0</ele><time>2026-04-26T07:46:41.471Z</time></trkpt><trkpt lat="44.4106733" lon="10.76905"><ele>620.0</ele><time>2026-04-26T07:46:42.471Z</time></trkpt><trkpt lat="44.4107467" lon="10.7691883"><ele>620.0</ele><time>2026-04-26T07:46:43.471Z</time></trkpt><trkpt lat="44.4108133" lon="10.7693317"><ele>620.0</ele><time>2026-04-26T07:46:44.471Z</time></trkpt><trkpt lat="44.4108767" lon="10.7694667"><ele>620.0</ele><time>2026-04-26T07:46:45.471Z</time></trkpt><trkpt lat="44.41094" lon="10.7695917"><ele>622.1666666666666</ele><time>2026-04-26T07:46:46.471Z</time></trkpt><trkpt lat="44.41098" lon="10.7696967"><ele>624.3333333333333</ele><time>2026-04-26T07:46:47.471Z</time></trkpt><trkpt lat="44.41102" lon="10.7697967"><ele>626.5</ele><time>2026-04-26T07:46:48.471Z</time></trkpt><trkpt lat="44.4110517" lon="10.7698833"><ele>628.6666666666666</ele><time>2026-04-26T07:46:49.471Z</time></trkpt><trkpt lat="44.4110867" lon="10.7700217"><ele>630.8333333333334</ele><time>2026-04-26T07:46:51.471Z</time></trkpt><trkpt lat="44.4111033" lon="10.7701267"><ele>633.0</ele><time>2026-04-26T07:46:53.471Z</time></trkpt><trkpt lat="44.4111267" lon="10.7702167"><ele>632.6666666666666</ele><time>2026-04-26T07:46:55.471Z</time></trkpt><trkpt lat="44.4111517" lon="10.7703167"><ele>632.3333333333334</ele><time>2026-04-26T07:46:57.471Z</time></trkpt><trkpt lat="44.4111967" lon="10.7704167"><ele>632.0</ele><time>2026-04-26T07:46:59.471Z</time></trkpt><trkpt lat="44.4112417" lon="10.7705"><ele>631.6666666666667</ele><time>2026-04-26T07:47:01.471Z</time></trkpt><trkpt lat="44.4112783" lon="10.7705817"><ele>631.3333333333334</ele><time>2026-04-26T07:47:03.471Z</time></trkpt><trkpt lat="44.411325" lon="10.770675"><ele>631.0</ele><time>2026-04-26T07:47:05.471Z</time></trkpt><trkpt lat="44.4113783" lon="10.7707667"><ele>631.0</ele><time>2026-04-26T07:47:07.471Z</time></trkpt><trkpt lat="44.4114267" lon="10.7708383"><ele>631.0</ele><time>2026-04-26T07:47:09.471Z</time></trkpt><trkpt lat="44.411485" lon="10.7709"><ele>631.0</ele><time>2026-04-26T07:47:11.471Z</time></trkpt><trkpt lat="44.4115467" lon="10.770985"><ele>631.0</ele><time>2026-04-26T07:47:13.471Z</time></trkpt><trkpt lat="44.41161" lon="10.77108"><ele>631.0</ele><time>2026-04-26T07:47:15.472Z</time></trkpt><trkpt lat="44.4116767" lon="10.7711917"><ele>631.0</ele><time>2026-04-26T07:47:17.471Z</time></trkpt><trkpt lat="44.4117267" lon="10.7712983"><ele>633.3333333333334</ele><time>2026-04-26T07:47:19.471Z</time></trkpt><trkpt lat="44.41177" lon="10.771395"><ele>635.6666666666667</ele><time>2026-04-26T07:47:21.471Z</time></trkpt><trkpt lat="44.4118267" lon="10.7715033"><ele>638.0</ele><time>2026-04-26T07:47:24.471Z</time></trkpt><trkpt lat="44.4118867" lon="10.7716367"><ele>640.3333333333334</ele><time>2026-04-26T07:47:26.471Z</time></trkpt><trkpt lat="44.4119267" lon="10.7717183"><ele>642.6666666666666</ele><time>2026-04-26T07:47:27.471Z</time></trkpt><trkpt lat="44.4119667" lon="10.7718033"><ele>645.0</ele><time>2026-04-26T07:47:28.471Z</time></trkpt><trkpt lat="44.4120083" lon="10.7718917"><ele>645.8</ele><time>2026-04-26T07:47:29.471Z</time></trkpt><trkpt lat="44.41206" lon="10.7720017"><ele>646.6</ele><time>2026-04-26T07:47:30.471Z</time></trkpt><trkpt lat="44.4121183" lon="10.7721317"><ele>647.4000000000001</ele><time>2026-04-26T07:47:31.471Z</time></trkpt><trkpt lat="44.4121783" lon="10.77227"><ele>648.2</ele><time>2026-04-26T07:47:32.471Z</time></trkpt><trkpt lat="44.4122367" lon="10.7724233"><ele>649.0</ele><time>2026-04-26T07:47:33.471Z</time></trkpt><trkpt lat="44.4122883" lon="10.7725883"><ele>650.75</ele><time>2026-04-26T07:47:34.471Z</time></trkpt><trkpt lat="44.4123267" lon="10.7727633"><ele>652.5</ele><time>2026-04-26T07:47:35.471Z</time></trkpt><trkpt lat="44.41236" lon="10.772955"><ele>654.25</ele><time>2026-04-26T07:47:36.471Z</time></trkpt><trkpt lat="44.4124" lon="10.7731533"><ele>656.0</ele><time>2026-04-26T07:47:37.471Z</time></trkpt><trkpt lat="44.4124467" lon="10.7733483"><ele>656.0</ele><time>2026-04-26T07:47:38.471Z</time></trkpt><trkpt lat="44.41249" lon="10.7735217"><ele>656.0</ele><time>2026-04-26T07:47:39.471Z</time></trkpt><trkpt lat="44.4125267" lon="10.7736917"><ele>656.0</ele><time>2026-04-26T07:47:40.471Z</time></trkpt><trkpt lat="44.4125383" lon="10.7738283"><ele>656.0</ele><time>2026-04-26T07:47:41.471Z</time></trkpt><trkpt lat="44.4125433" lon="10.7739433"><ele>656.0</ele><time>2026-04-26T07:47:42.471Z</time></trkpt><trkpt lat="44.4125833" lon="10.7740283"><ele>656.0</ele><time>2026-04-26T07:47:43.471Z</time></trkpt><trkpt lat="44.4126417" lon="10.7740833"><ele>656.0</ele><time>2026-04-26T07:47:44.471Z</time></trkpt><trkpt lat="44.4127317" lon="10.7741117"><ele>656.0</ele><time>2026-04-26T07:47:45.471Z</time></trkpt><trkpt lat="44.412835" lon="10.7741467"><ele>656.0</ele><time>2026-04-26T07:47:46.471Z</time></trkpt><trkpt lat="44.4129433" lon="10.7742067"><ele>656.0</ele><time>2026-04-26T07:47:47.471Z</time></trkpt><trkpt lat="44.4130467" lon="10.7742783"><ele>657.0</ele><time>2026-04-26T07:47:48.471Z</time></trkpt><trkpt lat="44.4131333" lon="10.77436"><ele>658.0</ele><time>2026-04-26T07:47:49.471Z</time></trkpt><trkpt lat="44.413205" lon="10.7744617"><ele>659.0</ele><time>2026-04-26T07:47:50.471Z</time></trkpt><trkpt lat="44.4132567" lon="10.7745717"><ele>660.0</ele><time>2026-04-26T07:47:51.471Z</time></trkpt><trkpt lat="44.4132767" lon="10.77469"><ele>661.0</ele><time>2026-04-26T07:47:52.471Z</time></trkpt><trkpt lat="44.4132767" lon="10.774825"><ele>661.0</ele><time>2026-04-26T07:47:53.472Z</time></trkpt><trkpt lat="44.4132717" lon="10.77499"><ele>661.0</ele><time>2026-04-26T07:47:54.471Z</time></trkpt><trkpt lat="44.4132633" lon="10.7751683"><ele>661.0</ele><time>2026-04-26T07:47:55.471Z</time></trkpt><trkpt lat="44.4132517" lon="10.7753683"><ele>661.0</ele><time>2026-04-26T07:47:56.471Z</time></trkpt><trkpt lat="44.413245" lon="10.7755683"><ele>661.25</ele><time>2026-04-26T07:47:57.471Z</time></trkpt><trkpt lat="44.4132317" lon="10.77577"><ele>661.5</ele><time>2026-04-26T07:47:58.471Z</time></trkpt><trkpt lat="44.4132133" lon="10.7759667"><ele>661.75</ele><time>2026-04-26T07:47:59.471Z</time></trkpt><trkpt lat="44.4132033" lon="10.7761533"><ele>662.0</ele><time>2026-04-26T07:48:00.471Z</time></trkpt><trkpt lat="44.4131933" lon="10.7763217"><ele>662.6</ele><time>2026-04-26T07:48:01.471Z</time></trkpt><trkpt lat="44.4131917" lon="10.7764833"><ele>663.2</ele><time>2026-04-26T07:48:02.472Z</time></trkpt><trkpt lat="44.4131817" lon="10.7766433"><ele>663.8</ele><time>2026-04-26T07:48:03.471Z</time></trkpt><trkpt lat="44.4131617" lon="10.7767917"><ele>664.4</ele><time>2026-04-26T07:48:04.471Z</time></trkpt><trkpt lat="44.413125" lon="10.776925"><ele>665.0</ele><time>2026-04-26T07:48:05.471Z</time></trkpt><trkpt lat="44.4130717" lon="10.7770367"><ele>663.8</ele><time>2026-04-26T07:48:06.471Z</time></trkpt><trkpt lat="44.4130067" lon="10.7771317"><ele>662.6</ele><time>2026-04-26T07:48:07.471Z</time></trkpt><trkpt lat="44.41292" lon="10.777215"><ele>661.4000000000001</ele><time>2026-04-26T07:48:08.471Z</time></trkpt><trkpt lat="44.41283" lon="10.777305"><ele>660.2</ele><time>2026-04-26T07:48:09.471Z</time></trkpt><trkpt lat="44.4127283" lon="10.7773883"><ele>659.0</ele><time>2026-04-26T07:48:10.471Z</time></trkpt><trkpt lat="44.4126283" lon="10.7774617"><ele>663.0</ele><time>2026-04-26T07:48:11.471Z</time></trkpt><trkpt lat="44.4125283" lon="10.7774983"><ele>667.0</ele><time>2026-04-26T07:48:12.471Z</time></trkpt><trkpt lat="44.4124217" lon="10.7775167"><ele>671.0</ele><time>2026-04-26T07:48:13.471Z</time></trkpt><trkpt lat="44.4123017" lon="10.7775083"><ele>675.0</ele><time>2026-04-26T07:48:14.471Z</time></trkpt><trkpt lat="44.412185" lon="10.7774767"><ele>675.4</ele><time>2026-04-26T07:48:15.471Z</time></trkpt><trkpt lat="44.412085" lon="10.7774517"><ele>675.8</ele><time>2026-04-26T07:48:16.471Z</time></trkpt><trkpt lat="44.4119883" lon="10.7774683"><ele>676.2</ele><time>2026-04-26T07:48:17.471Z</time></trkpt><trkpt lat="44.4119" lon="10.7775283"><ele>676.6</ele><time>2026-04-26T07:48:18.471Z</time></trkpt><trkpt lat="44.41182" lon="10.7776117"><ele>677.0</ele><time>2026-04-26T07:48:19.471Z</time></trkpt><trkpt lat="44.4117383" lon="10.7777333"><ele>677.0</ele><time>2026-04-26T07:48:20.471Z</time></trkpt><trkpt lat="44.41167" lon="10.777865"><ele>677.0</ele><time>2026-04-26T07:48:21.471Z</time></trkpt><trkpt lat="44.4116" lon="10.7780167"><ele>677.0</ele><time>2026-04-26T07:48:22.471Z</time></trkpt><trkpt lat="44.411535" lon="10.7781617"><ele>677.0</ele><time>2026-04-26T07:48:23.471Z</time></trkpt><trkpt lat="44.411465" lon="10.7782917"><ele>677.0</ele><time>2026-04-26T07:48:24.471Z</time></trkpt><trkpt lat="44.41138" lon="10.7784017"><ele>677.0</ele><time>2026-04-26T07:48:25.471Z</time></trkpt><trkpt lat="44.41128" lon="10.778485"><ele>677.0</ele><time>2026-04-26T07:48:26.471Z</time></trkpt><trkpt lat="44.4111717" lon="10.7785633"><ele>677.0</ele><time>2026-04-26T07:48:27.471Z</time></trkpt><trkpt lat="44.4110933" lon="10.778665"><ele>678.4000000000001</ele><time>2026-04-26T07:48:28.471Z</time></trkpt><trkpt lat="44.41103" lon="10.77879"><ele>679.8000000000001</ele><time>2026-04-26T07:48:29.471Z</time></trkpt><trkpt lat="44.410975" lon="10.778915"><ele>681.2</ele><time>2026-04-26T07:48:30.471Z</time></trkpt><trkpt lat="44.4109183" lon="10.77902"><ele>682.6</ele><time>2026-04-26T07:48:31.471Z</time></trkpt><trkpt lat="44.410845" lon="10.7790783"><ele>684.0</ele><time>2026-04-26T07:48:32.471Z</time></trkpt><trkpt lat="44.4107683" lon="10.7791233"><ele>684.0</ele><time>2026-04-26T07:48:33.471Z</time></trkpt><trkpt lat="44.41067" lon="10.7791667"><ele>684.0</ele><time>2026-04-26T07:48:34.472Z</time></trkpt><trkpt lat="44.4105717" lon="10.7792183"><ele>684.0</ele><time>2026-04-26T07:48:35.471Z</time></trkpt><trkpt lat="44.4104883" lon="10.7792967"><ele>684.0</ele><time>2026-04-26T07:48:36.471Z</time></trkpt><trkpt lat="44.410425" lon="10.7794017"><ele>684.0</ele><time>2026-04-26T07:48:37.471Z</time></trkpt><trkpt lat="44.4103783" lon="10.7795217"><ele>687.75</ele><time>2026-04-26T07:48:38.471Z</time></trkpt><trkpt lat="44.4103433" lon="10.7796633"><ele>691.5</ele><time>2026-04-26T07:48:39.471Z</time></trkpt><trkpt lat="44.4103083" lon="10.779815"><ele>695.25</ele><time>2026-04-26T07:48:40.471Z</time></trkpt><trkpt lat="44.4102767" lon="10.7799783"><ele>699.0</ele><time>2026-04-26T07:48:41.471Z</time></trkpt><trkpt lat="44.4102433" lon="10.7801533"><ele>698.5</ele><time>2026-04-26T07:48:42.471Z</time></trkpt><trkpt lat="44.4102133" lon="10.7803283"><ele>698.0</ele><time>2026-04-26T07:48:43.472Z</time></trkpt><trkpt lat="44.4101833" lon="10.78049"><ele>697.5</ele><time>2026-04-26T07:48:44.471Z</time></trkpt><trkpt lat="44.410155" lon="10.7806367"><ele>697.0</ele><time>2026-04-26T07:48:45.471Z</time></trkpt><trkpt lat="44.4101117" lon="10.78076"><ele>697.0</ele><time>2026-04-26T07:48:46.471Z</time></trkpt><trkpt lat="44.4100483" lon="10.7808583"><ele>697.0</ele><time>2026-04-26T07:48:47.471Z</time></trkpt><trkpt lat="44.4099533" lon="10.7809367"><ele>697.0</ele><time>2026-04-26T07:48:48.471Z</time></trkpt><trkpt lat="44.40986" lon="10.7809983"><ele>697.0</ele><time>2026-04-26T07:48:49.471Z</time></trkpt><trkpt lat="44.4097817" lon="10.78108"><ele>697.0</ele><time>2026-04-26T07:48:50.471Z</time></trkpt><trkpt lat="44.40973" lon="10.7811883"><ele>696.4000000000001</ele><time>2026-04-26T07:48:51.471Z</time></trkpt><trkpt lat="44.4097" lon="10.781315"><ele>695.8000000000001</ele><time>2026-04-26T07:48:52.471Z</time></trkpt><trkpt lat="44.4096933" lon="10.7814583"><ele>695.2</ele><time>2026-04-26T07:48:53.471Z</time></trkpt><trkpt lat="44.4097067" lon="10.7816133"><ele>694.6</ele><time>2026-04-26T07:48:54.471Z</time></trkpt><trkpt lat="44.4097433" lon="10.7817717"><ele>694.0</ele><time>2026-04-26T07:48:55.471Z</time></trkpt><trkpt lat="44.4098033" lon="10.781925"><ele>695.5</ele><time>2026-04-26T07:48:56.471Z</time></trkpt><trkpt lat="44.40988" lon="10.782075"><ele>697.0</ele><time>2026-04-26T07:48:57.471Z</time></trkpt><trkpt lat="44.4099667" lon="10.7822217"><ele>698.5</ele><time>2026-04-26T07:48:58.471Z</time></trkpt><trkpt lat="44.4100483" lon="10.78236"><ele>700.0</ele><time>2026-04-26T07:48:59.471Z</time></trkpt><trkpt lat="44.4101267" lon="10.782495"><ele>700.0</ele><time>2026-04-26T07:49:00.472Z</time></trkpt><trkpt lat="44.4102" lon="10.7826217"><ele>700.0</ele><time>2026-04-26T07:49:01.471Z</time></trkpt><trkpt lat="44.4102717" lon="10.782725"><ele>700.0</ele><time>2026-04-26T07:49:02.472Z</time></trkpt><trkpt lat="44.410355" lon="10.7827933"><ele>700.0</ele><time>2026-04-26T07:49:03.471Z</time></trkpt><trkpt lat="44.4104517" lon="10.782825"><ele>700.0</ele><time>2026-04-26T07:49:04.471Z</time></trkpt><trkpt lat="44.41056" lon="10.7828383"><ele>703.5</ele><time>2026-04-26T07:49:05.472Z</time></trkpt><trkpt lat="44.4106767" lon="10.78287"><ele>707.0</ele><time>2026-04-26T07:49:06.47Z</time></trkpt><trkpt lat="44.4107933" lon="10.7829417"><ele>710.5</ele><time>2026-04-26T07:49:07.47Z</time></trkpt><trkpt lat="44.4109017" lon="10.783025"><ele>714.0</ele><time>2026-04-26T07:49:08.47Z</time></trkpt><trkpt lat="44.41101" lon="10.783095"><ele>714.0</ele><time>2026-04-26T07:49:09.47Z</time></trkpt><trkpt lat="44.4111083" lon="10.78313"><ele>714.0</ele><time>2026-04-26T07:49:10.47Z</time></trkpt><trkpt lat="44.4112017" lon="10.7831533"><ele>714.0</ele><time>2026-04-26T07:49:11.47Z</time></trkpt><trkpt lat="44.4112783" lon="10.7831883"><ele>714.0</ele><time>2026-04-26T07:49:12.47Z</time></trkpt><trkpt lat="44.4113333" lon="10.7832367"><ele>714.0</ele><time>2026-04-26T07:49:13.47Z</time></trkpt><trkpt lat="44.4113967" lon="10.783345"><ele>714.0</ele><time>2026-04-26T07:49:15.471Z</time></trkpt><trkpt lat="44.411385" lon="10.7835533"><ele>715.5</ele><time>2026-04-26T07:49:17.47Z</time></trkpt><trkpt lat="44.411365" lon="10.7837017"><ele>717.0</ele><time>2026-04-26T07:49:18.47Z</time></trkpt><trkpt lat="44.4113583" lon="10.7838267"><ele>718.5</ele><time>2026-04-26T07:49:19.47Z</time></trkpt><trkpt lat="44.4113783" lon="10.783935"><ele>720.0</ele><time>2026-04-26T07:49:20.47Z</time></trkpt><trkpt lat="44.4114333" lon="10.78401"><ele>721.5</ele><time>2026-04-26T07:49:21.47Z</time></trkpt><trkpt lat="44.4115083" lon="10.784045"><ele>723.0</ele><time>2026-04-26T07:49:22.47Z</time></trkpt><trkpt lat="44.4115767" lon="10.7840767"><ele>723.0</ele><time>2026-04-26T07:49:23.47Z</time></trkpt><trkpt lat="44.4116767" lon="10.7841667"><ele>723.0</ele><time>2026-04-26T07:49:25.47Z</time></trkpt><trkpt lat="44.4116833" lon="10.78428"><ele>723.0</ele><time>2026-04-26T07:49:27.47Z</time></trkpt><trkpt lat="44.4116183" lon="10.78444"><ele>723.0</ele><time>2026-04-26T07:49:29.47Z</time></trkpt><trkpt lat="44.4115633" lon="10.784555"><ele>723.0</ele><time>2026-04-26T07:49:30.47Z</time></trkpt><trkpt lat="44.4115083" lon="10.7847033"><ele>725.0</ele><time>2026-04-26T07:49:31.47Z</time></trkpt><trkpt lat="44.4114517" lon="10.7849"><ele>727.0</ele><time>2026-04-26T07:49:32.47Z</time></trkpt><trkpt lat="44.4113583" lon="10.7851017"><ele>729.0</ele><time>2026-04-26T07:49:33.47Z</time></trkpt><trkpt lat="44.4112683" lon="10.78529"><ele>732.0</ele><time>2026-04-26T07:49:34.47Z</time></trkpt><trkpt lat="44.4111817" lon="10.785475"><ele>735.0</ele><time>2026-04-26T07:49:35.47Z</time></trkpt><trkpt lat="44.41108" lon="10.785665"><ele>738.0</ele><time>2026-04-26T07:49:36.47Z</time></trkpt><trkpt lat="44.410985" lon="10.7858367"><ele>738.25</ele><time>2026-04-26T07:49:37.47Z</time></trkpt><trkpt lat="44.4109133" lon="10.7860183"><ele>738.5</ele><time>2026-04-26T07:49:38.47Z</time></trkpt><trkpt lat="44.41086" lon="10.7861967"><ele>738.75</ele><time>2026-04-26T07:49:39.47Z</time></trkpt><trkpt lat="44.410815" lon="10.78637"><ele>739.0</ele><time>2026-04-26T07:49:40.47Z</time></trkpt><trkpt lat="44.410765" lon="10.7865183"><ele>739.0</ele><time>2026-04-26T07:49:41.47Z</time></trkpt><trkpt lat="44.4107017" lon="10.78665"><ele>739.0</ele><time>2026-04-26T07:49:42.47Z</time></trkpt><trkpt lat="44.41064" lon="10.7867283"><ele>739.0</ele><time>2026-04-26T07:49:43.47Z</time></trkpt><trkpt lat="44.4105717" lon="10.7867867"><ele>739.0</ele><time>2026-04-26T07:49:44.471Z</time></trkpt><trkpt lat="44.4104867" lon="10.7868167"><ele>739.0</ele><time>2026-04-26T07:49:46.47Z</time></trkpt><trkpt lat="44.4104267" lon="10.7868717"><ele>739.0</ele><time>2026-04-26T07:49:49.47Z</time></trkpt><trkpt lat="44.41041" lon="10.78699"><ele>739.0</ele><time>2026-04-26T07:49:51.47Z</time></trkpt><trkpt lat="44.4104017" lon="10.787105"><ele>739.0</ele><time>2026-04-26T07:49:52.471Z</time></trkpt><trkpt lat="44.4103783" lon="10.7872367"><ele>739.0</ele><time>2026-04-26T07:49:53.47Z</time></trkpt><trkpt lat="44.41034" lon="10.7873867"><ele>739.0</ele><time>2026-04-26T07:49:54.47Z</time></trkpt><trkpt lat="44.4103083" lon="10.78755"><ele>739.0</ele><time>2026-04-26T07:49:55.47Z</time></trkpt><trkpt lat="44.4102633" lon="10.7877067"><ele>739.0</ele><time>2026-04-26T07:49:56.47Z</time></trkpt><trkpt lat="44.4102267" lon="10.7878617"><ele>739.0</ele><time>2026-04-26T07:49:57.47Z</time></trkpt><trkpt lat="44.4101833" lon="10.7880067"><ele>739.0</ele><time>2026-04-26T07:49:58.47Z</time></trkpt><trkpt lat="44.41014" lon="10.7881433"><ele>739.0</ele><time>2026-04-26T07:49:59.47Z</time></trkpt><trkpt lat="44.4100867" lon="10.788275"><ele>739.0</ele><time>2026-04-26T07:50:00.47Z</time></trkpt><trkpt lat="44.4100367" lon="10.7884033"><ele>738.6</ele><time>2026-04-26T07:50:01.47Z</time></trkpt><trkpt lat="44.4099933" lon="10.7885417"><ele>738.2</ele><time>2026-04-26T07:50:02.47Z</time></trkpt><trkpt lat="44.4099633" lon="10.7886767"><ele>737.8000000000001</ele><time>2026-04-26T07:50:03.47Z</time></trkpt><trkpt lat="44.409955" lon="10.7888217"><ele>737.4000000000001</ele><time>2026-04-26T07:50:04.47Z</time></trkpt><trkpt lat="44.4099667" lon="10.7889667"><ele>737.0</ele><time>2026-04-26T07:50:05.47Z</time></trkpt><trkpt lat="44.409985" lon="10.78914"><ele>737.0</ele><time>2026-04-26T07:50:06.47Z</time></trkpt><trkpt lat="44.4100167" lon="10.7893183"><ele>737.0</ele><time>2026-04-26T07:50:07.47Z</time></trkpt><trkpt lat="44.410055" lon="10.7894917"><ele>737.0</ele><time>2026-04-26T07:50:08.47Z</time></trkpt><trkpt lat="44.41009" lon="10.7896667"><ele>737.0</ele><time>2026-04-26T07:50:09.471Z</time></trkpt><trkpt lat="44.41013" lon="10.7898317"><ele>736.2</ele><time>2026-04-26T07:50:10.47Z</time></trkpt><trkpt lat="44.41017" lon="10.7899833"><ele>735.4000000000001</ele><time>2026-04-26T07:50:11.47Z</time></trkpt><trkpt lat="44.4102167" lon="10.79012"><ele>734.5999999999999</ele><time>2026-04-26T07:50:12.47Z</time></trkpt><trkpt lat="44.4102767" lon="10.790235"><ele>733.8</ele><time>2026-04-26T07:50:13.47Z</time></trkpt><trkpt lat="44.4103617" lon="10.7903333"><ele>733.0</ele><time>2026-04-26T07:50:14.47Z</time></trkpt><trkpt lat="44.4104617" lon="10.7904217"><ele>730.75</ele><time>2026-04-26T07:50:15.471Z</time></trkpt><trkpt lat="44.4105717" lon="10.7904967"><ele>728.5</ele><time>2026-04-26T07:50:16.47Z</time></trkpt><trkpt lat="44.4106867" lon="10.7905633"><ele>726.25</ele><time>2026-04-26T07:50:17.47Z</time></trkpt><trkpt lat="44.41081" lon="10.7906417"><ele>724.0</ele><time>2026-04-26T07:50:18.47Z</time></trkpt><trkpt lat="44.41094" lon="10.7907383"><ele>724.0</ele><time>2026-04-26T07:50:19.47Z</time></trkpt><trkpt lat="44.411055" lon="10.7908367"><ele>724.0</ele><time>2026-04-26T07:50:20.47Z</time></trkpt><trkpt lat="44.4111567" lon="10.79094"><ele>724.0</ele><time>2026-04-26T07:50:21.47Z</time></trkpt><trkpt lat="44.4112367" lon="10.791035"><ele>724.0</ele><time>2026-04-26T07:50:22.47Z</time></trkpt><trkpt lat="44.4113017" lon="10.7911417"><ele>720.5</ele><time>2026-04-26T07:50:23.471Z</time></trkpt><trkpt lat="44.411345" lon="10.79129"><ele>717.0</ele><time>2026-04-26T07:50:24.47Z</time></trkpt><trkpt lat="44.4113567" lon="10.79146"><ele>713.5</ele><time>2026-04-26T07:50:25.47Z</time></trkpt><trkpt lat="44.4113417" lon="10.7916367"><ele>710.0</ele><time>2026-04-26T07:50:26.47Z</time></trkpt><trkpt lat="44.411325" lon="10.7918267"><ele>710.25</ele><time>2026-04-26T07:50:27.471Z</time></trkpt><trkpt lat="44.411305" lon="10.7920117"><ele>710.5</ele><time>2026-04-26T07:50:28.47Z</time></trkpt><trkpt lat="44.4113167" lon="10.7921783"><ele>710.75</ele><time>2026-04-26T07:50:29.471Z</time></trkpt><trkpt lat="44.4113567" lon="10.792335"><ele>711.0</ele><time>2026-04-26T07:50:30.47Z</time></trkpt><trkpt lat="44.4114183" lon="10.792475"><ele>711.0</ele><time>2026-04-26T07:50:31.47Z</time></trkpt><trkpt lat="44.4114867" lon="10.7926"><ele>711.0</ele><time>2026-04-26T07:50:32.47Z</time></trkpt><trkpt lat="44.4115583" lon="10.79272"><ele>711.0</ele><time>2026-04-26T07:50:33.47Z</time></trkpt><trkpt lat="44.4116133" lon="10.7928517"><ele>711.0</ele><time>2026-04-26T07:50:34.47Z</time></trkpt><trkpt lat="44.41165" lon="10.793015"><ele>711.0</ele><time>2026-04-26T07:50:35.47Z</time></trkpt><trkpt lat="44.4116717" lon="10.793185"><ele>711.0</ele><time>2026-04-26T07:50:36.47Z</time></trkpt><trkpt lat="44.411685" lon="10.793355"><ele>711.0</ele><time>2026-04-26T07:50:37.47Z</time></trkpt><trkpt lat="44.411695" lon="10.7935117"><ele>711.0</ele><time>2026-04-26T07:50:38.47Z</time></trkpt><trkpt lat="44.4117067" lon="10.793665"><ele>710.5999999999999</ele><time>2026-04-26T07:50:39.47Z</time></trkpt><trkpt lat="44.4117183" lon="10.79382"><ele>710.2</ele><time>2026-04-26T07:50:40.47Z</time></trkpt><trkpt lat="44.4117317" lon="10.7939633"><ele>709.8</ele><time>2026-04-26T07:50:41.47Z</time></trkpt><trkpt lat="44.411745" lon="10.7940967"><ele>709.4000000000001</ele><time>2026-04-26T07:50:42.47Z</time></trkpt><trkpt lat="44.4117483" lon="10.7942083"><ele>709.0</ele><time>2026-04-26T07:50:43.47Z</time></trkpt><trkpt lat="44.41173" lon="10.794345"><ele>709.0</ele><time>2026-04-26T07:50:45.47Z</time></trkpt><trkpt lat="44.411645" lon="10.794395"><ele>709.0</ele><time>2026-04-26T07:50:47.471Z</time></trkpt><trkpt lat="44.4115783" lon="10.7943717"><ele>709.0</ele><time>2026-04-26T07:50:48.47Z</time></trkpt><trkpt lat="44.4114933" lon="10.7943267"><ele>709.0</ele><time>2026-04-26T07:50:49.47Z</time></trkpt><trkpt lat="44.411395" lon="10.79429"><ele>709.0</ele><time>2026-04-26T07:50:50.47Z</time></trkpt><trkpt lat="44.4112933" lon="10.7942533"><ele>709.75</ele><time>2026-04-26T07:50:51.47Z</time></trkpt><trkpt lat="44.4111767" lon="10.79423"><ele>710.5</ele><time>2026-04-26T07:50:52.47Z</time></trkpt><trkpt lat="44.4110483" lon="10.79421"><ele>711.25</ele><time>2026-04-26T07:50:53.47Z</time></trkpt><trkpt lat="44.41091" lon="10.794195"><ele>712.0</ele><time>2026-04-26T07:50:54.47Z</time></trkpt><trkpt lat="44.410765" lon="10.794165"><ele>712.0</ele><time>2026-04-26T07:50:55.47Z</time></trkpt><trkpt lat="44.4106167" lon="10.794155"><ele>712.0</ele><time>2026-04-26T07:50:56.47Z</time></trkpt><trkpt lat="44.410465" lon="10.79424"><ele>712.0</ele><time>2026-04-26T07:50:57.47Z</time></trkpt><trkpt lat="44.410325" lon="10.7944067"><ele>711.0</ele><time>2026-04-26T07:50:58.47Z</time></trkpt><trkpt lat="44.41018" lon="10.794605"><ele>710.0</ele><time>2026-04-26T07:50:59.47Z</time></trkpt><trkpt lat="44.41003" lon="10.7948167"><ele>709.0</ele><time>2026-04-26T07:51:00.47Z</time></trkpt><trkpt lat="44.40987" lon="10.7950383"><ele>709.6666666666667</ele><time>2026-04-26T07:51:01.47Z</time></trkpt><trkpt lat="44.40972" lon="10.7952417"><ele>710.3333333333334</ele><time>2026-04-26T07:51:02.47Z</time></trkpt><trkpt lat="44.4095783" lon="10.7954283"><ele>711.0</ele><time>2026-04-26T07:51:03.47Z</time></trkpt><trkpt lat="44.4094317" lon="10.7955867"><ele>711.0</ele><time>2026-04-26T07:51:04.47Z</time></trkpt><trkpt lat="44.4092917" lon="10.7957117"><ele>711.0</ele><time>2026-04-26T07:51:05.47Z</time></trkpt><trkpt lat="44.4091517" lon="10.7957983"><ele>711.0</ele><time>2026-04-26T07:51:06.47Z</time></trkpt><trkpt lat="44.409" lon="10.7958567"><ele>711.0</ele><time>2026-04-26T07:51:07.47Z</time></trkpt><trkpt lat="44.4088433" lon="10.795885"><ele>711.0</ele><time>2026-04-26T07:51:08.47Z</time></trkpt><trkpt lat="44.4086917" lon="10.795915"><ele>711.0</ele><time>2026-04-26T07:51:09.47Z</time></trkpt><trkpt lat="44.4085517" lon="10.7959783"><ele>711.6666666666666</ele><time>2026-04-26T07:51:10.47Z</time></trkpt><trkpt lat="44.40843" lon="10.79609"><ele>712.3333333333333</ele><time>2026-04-26T07:51:11.47Z</time></trkpt><trkpt lat="44.4083317" lon="10.7962483"><ele>713.0</ele><time>2026-04-26T07:51:12.47Z</time></trkpt><trkpt lat="44.408245" lon="10.7964333"><ele>713.0</ele><time>2026-04-26T07:51:13.47Z</time></trkpt><trkpt lat="44.4081633" lon="10.7966167"><ele>713.0</ele><time>2026-04-26T07:51:14.47Z</time></trkpt><trkpt lat="44.4080783" lon="10.7967933"><ele>713.0</ele><time>2026-04-26T07:51:15.47Z</time></trkpt><trkpt lat="44.4079817" lon="10.796965"><ele>711.6666666666666</ele><time>2026-04-26T07:51:16.47Z</time></trkpt><trkpt lat="44.4078733" lon="10.7971167"><ele>710.3333333333334</ele><time>2026-04-26T07:51:17.47Z</time></trkpt><trkpt lat="44.407755" lon="10.7972533"><ele>709.0</ele><time>2026-04-26T07:51:18.47Z</time></trkpt><trkpt lat="44.4076317" lon="10.7973817"><ele>709.0</ele><time>2026-04-26T07:51:19.47Z</time></trkpt><trkpt lat="44.407505" lon="10.7975067"><ele>709.0</ele><time>2026-04-26T07:51:20.47Z</time></trkpt><trkpt lat="44.4073733" lon="10.7976383"><ele>709.0</ele><time>2026-04-26T07:51:21.47Z</time></trkpt><trkpt lat="44.4072533" lon="10.79776"><ele>710.0</ele><time>2026-04-26T07:51:22.47Z</time></trkpt><trkpt lat="44.40714" lon="10.7978933"><ele>711.0</ele><time>2026-04-26T07:51:23.47Z</time></trkpt><trkpt lat="44.4070317" lon="10.7980217"><ele>712.0</ele><time>2026-04-26T07:51:24.47Z</time></trkpt><trkpt lat="44.4069267" lon="10.79816"><ele>713.0</ele><time>2026-04-26T07:51:25.47Z</time></trkpt><trkpt lat="44.4068333" lon="10.7983183"><ele>713.0</ele><time>2026-04-26T07:51:26.47Z</time></trkpt><trkpt lat="44.4067433" lon="10.7984767"><ele>713.0</ele><time>2026-04-26T07:51:27.47Z</time></trkpt><trkpt lat="44.4066517" lon="10.79863"><ele>713.0</ele><time>2026-04-26T07:51:28.47Z</time></trkpt><trkpt lat="44.4065567" lon="10.7987633"><ele>713.0</ele><time>2026-04-26T07:51:29.471Z</time></trkpt><trkpt lat="44.406435" lon="10.7988767"><ele>712.0</ele><time>2026-04-26T07:51:30.47Z</time></trkpt><trkpt lat="44.4063067" lon="10.7989883"><ele>711.0</ele><time>2026-04-26T07:51:31.47Z</time></trkpt><trkpt lat="44.4061633" lon="10.7990817"><ele>710.0</ele><time>2026-04-26T07:51:32.47Z</time></trkpt><trkpt lat="44.40602" lon="10.7991733"><ele>710.0</ele><time>2026-04-26T07:51:33.47Z</time></trkpt><trkpt lat="44.4058767" lon="10.7992567"><ele>710.0</ele><time>2026-04-26T07:51:34.47Z</time></trkpt><trkpt lat="44.4057317" lon="10.7993417"><ele>710.0</ele><time>2026-04-26T07:51:35.47Z</time></trkpt><trkpt lat="44.4055783" lon="10.7994283"><ele>710.25</ele><time>2026-04-26T07:51:36.47Z</time></trkpt><trkpt lat="44.4054383" lon="10.7995117"><ele>710.5</ele><time>2026-04-26T07:51:37.47Z</time></trkpt><trkpt lat="44.4052983" lon="10.7996033"><ele>710.75</ele><time>2026-04-26T07:51:38.47Z</time></trkpt><trkpt lat="44.4051717" lon="10.7996917"><ele>711.0</ele><time>2026-04-26T07:51:39.47Z</time></trkpt><trkpt lat="44.405055" lon="10.7998133"><ele>711.0</ele><time>2026-04-26T07:51:40.471Z</time></trkpt><trkpt lat="44.404965" lon="10.7999617"><ele>711.0</ele><time>2026-04-26T07:51:41.47Z</time></trkpt><trkpt lat="44.4048983" lon="10.8001367"><ele>711.0</ele><time>2026-04-26T07:51:42.471Z</time></trkpt><trkpt lat="44.4048383" lon="10.8003233"><ele>711.0</ele><time>2026-04-26T07:51:43.47Z</time></trkpt><trkpt lat="44.4047767" lon="10.8005167"><ele>710.3333333333334</ele><time>2026-04-26T07:51:44.47Z</time></trkpt><trkpt lat="44.4047083" lon="10.80071"><ele>709.6666666666667</ele><time>2026-04-26T07:51:45.47Z</time></trkpt><trkpt lat="44.4046317" lon="10.8008933"><ele>709.0</ele><time>2026-04-26T07:51:46.47Z</time></trkpt><trkpt lat="44.404555" lon="10.801065"><ele>710.0</ele><time>2026-04-26T07:51:47.47Z</time></trkpt><trkpt lat="44.4044683" lon="10.801235"><ele>711.0</ele><time>2026-04-26T07:51:48.47Z</time></trkpt><trkpt lat="44.4043817" lon="10.801395"><ele>712.0</ele><time>2026-04-26T07:51:49.47Z</time></trkpt><trkpt lat="44.4042833" lon="10.8015517"><ele>713.0</ele><time>2026-04-26T07:51:50.47Z</time></trkpt><trkpt lat="44.4041767" lon="10.8016933"><ele>713.0</ele><time>2026-04-26T07:51:51.47Z</time></trkpt><trkpt lat="44.4040633" lon="10.8018267"><ele>713.0</ele><time>2026-04-26T07:51:52.471Z</time></trkpt><trkpt lat="44.403945" lon="10.80197"><ele>713.0</ele><time>2026-04-26T07:51:53.47Z</time></trkpt><trkpt lat="44.403825" lon="10.8021233"><ele>711.3333333333333</ele><time>2026-04-26T07:51:54.47Z</time></trkpt><trkpt lat="44.4037083" lon="10.80227"><ele>709.6666666666666</ele><time>2026-04-26T07:51:55.47Z</time></trkpt><trkpt lat="44.403585" lon="10.8024083"><ele>708.0</ele><time>2026-04-26T07:51:56.47Z</time></trkpt><trkpt lat="44.4034667" lon="10.8025317"><ele>708.0</ele><time>2026-04-26T07:51:57.47Z</time></trkpt><trkpt lat="44.4033383" lon="10.8026083"><ele>708.0</ele><time>2026-04-26T07:51:58.47Z</time></trkpt><trkpt lat="44.403195" lon="10.8026417"><ele>708.0</ele><time>2026-04-26T07:51:59.47Z</time></trkpt><trkpt lat="44.4030467" lon="10.80264"><ele>708.0</ele><time>2026-04-26T07:52:00.47Z</time></trkpt><trkpt lat="44.4029017" lon="10.8026083"><ele>707.75</ele><time>2026-04-26T07:52:01.47Z</time></trkpt><trkpt lat="44.4027633" lon="10.8025633"><ele>707.5</ele><time>2026-04-26T07:52:02.47Z</time></trkpt><trkpt lat="44.4026467" lon="10.80252"><ele>707.25</ele><time>2026-04-26T07:52:03.47Z</time></trkpt><trkpt lat="44.40255" lon="10.8024933"><ele>707.0</ele><time>2026-04-26T07:52:04.47Z</time></trkpt><trkpt lat="44.4024617" lon="10.802465"><ele>707.0</ele><time>2026-04-26T07:52:05.47Z</time></trkpt><trkpt lat="44.4023833" lon="10.8024467"><ele>707.0</ele><time>2026-04-26T07:52:06.47Z</time></trkpt><trkpt lat="44.4022667" lon="10.8024883"><ele>707.0</ele><time>2026-04-26T07:52:08.47Z</time></trkpt><trkpt lat="44.4022217" lon="10.8025617"><ele>707.0</ele><time>2026-04-26T07:52:09.47Z</time></trkpt><trkpt lat="44.4022" lon="10.8026667"><ele>707.0</ele><time>2026-04-26T07:52:10.47Z</time></trkpt><trkpt lat="44.4021733" lon="10.802765"><ele>707.0</ele><time>2026-04-26T07:52:11.47Z</time></trkpt><trkpt lat="44.40215" lon="10.8028817"><ele>707.2</ele><time>2026-04-26T07:52:12.47Z</time></trkpt><trkpt lat="44.4021233" lon="10.8030083"><ele>707.4000000000001</ele><time>2026-04-26T07:52:13.47Z</time></trkpt><trkpt lat="44.4020967" lon="10.8031533"><ele>707.5999999999999</ele><time>2026-04-26T07:52:14.47Z</time></trkpt><trkpt lat="44.402065" lon="10.8033133"><ele>707.8</ele><time>2026-04-26T07:52:15.47Z</time></trkpt><trkpt lat="44.40203" lon="10.8034833"><ele>708.0</ele><time>2026-04-26T07:52:16.47Z</time></trkpt><trkpt lat="44.4019833" lon="10.8036367"><ele>708.75</ele><time>2026-04-26T07:52:17.47Z</time></trkpt><trkpt lat="44.4019233" lon="10.8038017"><ele>709.5</ele><time>2026-04-26T07:52:18.47Z</time></trkpt><trkpt lat="44.4018567" lon="10.8039783"><ele>710.25</ele><time>2026-04-26T07:52:19.47Z</time></trkpt><trkpt lat="44.4017833" lon="10.8041617"><ele>711.0</ele><time>2026-04-26T07:52:20.47Z</time></trkpt><trkpt lat="44.401715" lon="10.8043367"><ele>711.0</ele><time>2026-04-26T07:52:21.47Z</time></trkpt><trkpt lat="44.4016633" lon="10.804505"><ele>711.0</ele><time>2026-04-26T07:52:22.47Z</time></trkpt><trkpt lat="44.4016367" lon="10.8046583"><ele>711.0</ele><time>2026-04-26T07:52:23.47Z</time></trkpt><trkpt lat="44.4016367" lon="10.80481"><ele>711.0</ele><time>2026-04-26T07:52:24.47Z</time></trkpt><trkpt lat="44.4016733" lon="10.8049483"><ele>711.0</ele><time>2026-04-26T07:52:25.47Z</time></trkpt><trkpt lat="44.4017467" lon="10.8050567"><ele>711.0</ele><time>2026-04-26T07:52:26.47Z</time></trkpt><trkpt lat="44.4018533" lon="10.805125"><ele>711.0</ele><time>2026-04-26T07:52:27.47Z</time></trkpt><trkpt lat="44.4019867" lon="10.8051417"><ele>711.0</ele><time>2026-04-26T07:52:28.47Z</time></trkpt><trkpt lat="44.402125" lon="10.8051117"><ele>711.75</ele><time>2026-04-26T07:52:29.47Z</time></trkpt><trkpt lat="44.40227" lon="10.80509"><ele>712.5</ele><time>2026-04-26T07:52:30.47Z</time></trkpt><trkpt lat="44.4024083" lon="10.8050883"><ele>713.25</ele><time>2026-04-26T07:52:31.47Z</time></trkpt><trkpt lat="44.40253" lon="10.805105"><ele>714.0</ele><time>2026-04-26T07:52:32.47Z</time></trkpt><trkpt lat="44.4026333" lon="10.805165"><ele>714.0</ele><time>2026-04-26T07:52:33.47Z</time></trkpt><trkpt lat="44.4026983" lon="10.8052633"><ele>714.0</ele><time>2026-04-26T07:52:34.47Z</time></trkpt><trkpt lat="44.4027433" lon="10.805405"><ele>714.0</ele><time>2026-04-26T07:52:35.47Z</time></trkpt><trkpt lat="44.4027433" lon="10.8055583"><ele>714.0</ele><time>2026-04-26T07:52:36.47Z</time></trkpt><trkpt lat="44.4027" lon="10.80569"><ele>714.0</ele><time>2026-04-26T07:52:37.47Z</time></trkpt><trkpt lat="44.4026267" lon="10.805795"><ele>714.0</ele><time>2026-04-26T07:52:38.47Z</time></trkpt><trkpt lat="44.40253" lon="10.8059"><ele>714.0</ele><time>2026-04-26T07:52:39.47Z</time></trkpt><trkpt lat="44.40241" lon="10.8060067"><ele>714.0</ele><time>2026-04-26T07:52:40.47Z</time></trkpt><trkpt lat="44.4022883" lon="10.80612"><ele>714.0</ele><time>2026-04-26T07:52:41.471Z</time></trkpt><trkpt lat="44.402155" lon="10.8062333"><ele>717.0</ele><time>2026-04-26T07:52:42.47Z</time></trkpt><trkpt lat="44.40202" lon="10.8063367"><ele>720.0</ele><time>2026-04-26T07:52:43.47Z</time></trkpt><trkpt lat="44.40188" lon="10.8064167"><ele>723.0</ele><time>2026-04-26T07:52:44.47Z</time></trkpt><trkpt lat="44.4017233" lon="10.8064867"><ele>723.0</ele><time>2026-04-26T07:52:45.47Z</time></trkpt><trkpt lat="44.4015667" lon="10.8065467"><ele>723.0</ele><time>2026-04-26T07:52:46.47Z</time></trkpt><trkpt lat="44.4014017" lon="10.8065967"><ele>723.0</ele><time>2026-04-26T07:52:47.47Z</time></trkpt><trkpt lat="44.401245" lon="10.8066317"><ele>724.25</ele><time>2026-04-26T07:52:48.47Z</time></trkpt><trkpt lat="44.4010933" lon="10.8066767"><ele>725.5</ele><time>2026-04-26T07:52:49.47Z</time></trkpt><trkpt lat="44.4009467" lon="10.8067233"><ele>726.75</ele><time>2026-04-26T07:52:50.471Z</time></trkpt><trkpt lat="44.4008083" lon="10.8067683"><ele>728.0</ele><time>2026-04-26T07:52:51.47Z</time></trkpt><trkpt lat="44.4006717" lon="10.8068133"><ele>728.75</ele><time>2026-04-26T07:52:52.47Z</time></trkpt><trkpt lat="44.400535" lon="10.8068633"><ele>729.5</ele><time>2026-04-26T07:52:53.47Z</time></trkpt><trkpt lat="44.400405" lon="10.8069133"><ele>730.25</ele><time>2026-04-26T07:52:54.47Z</time></trkpt><trkpt lat="44.400275" lon="10.80697"><ele>731.0</ele><time>2026-04-26T07:52:55.47Z</time></trkpt><trkpt lat="44.400145" lon="10.8070233"><ele>732.75</ele><time>2026-04-26T07:52:56.47Z</time></trkpt><trkpt lat="44.400015" lon="10.8070783"><ele>734.5</ele><time>2026-04-26T07:52:57.471Z</time></trkpt><trkpt lat="44.399885" lon="10.807135"><ele>736.25</ele><time>2026-04-26T07:52:58.47Z</time></trkpt><trkpt lat="44.39975" lon="10.80719"><ele>738.0</ele><time>2026-04-26T07:52:59.47Z</time></trkpt><trkpt lat="44.3996217" lon="10.80724"><ele>739.75</ele><time>2026-04-26T07:53:00.47Z</time></trkpt><trkpt lat="44.3995017" lon="10.8072933"><ele>741.5</ele><time>2026-04-26T07:53:01.47Z</time></trkpt><trkpt lat="44.39938" lon="10.8073467"><ele>743.25</ele><time>2026-04-26T07:53:02.47Z</time></trkpt><trkpt lat="44.399255" lon="10.8074017"><ele>745.0</ele><time>2026-04-26T07:53:03.47Z</time></trkpt><trkpt lat="44.399135" lon="10.80745"><ele>745.0</ele><time>2026-04-26T07:53:04.471Z</time></trkpt><trkpt lat="44.3990117" lon="10.8075067"><ele>745.0</ele><time>2026-04-26T07:53:05.47Z</time></trkpt><trkpt lat="44.3988933" lon="10.8075683"><ele>745.0</ele><time>2026-04-26T07:53:06.47Z</time></trkpt><trkpt lat="44.398785" lon="10.80764"><ele>745.0</ele><time>2026-04-26T07:53:07.47Z</time></trkpt><trkpt lat="44.3986817" lon="10.80773"><ele>746.75</ele><time>2026-04-26T07:53:08.47Z</time></trkpt><trkpt lat="44.398595" lon="10.8078433"><ele>748.5</ele><time>2026-04-26T07:53:09.47Z</time></trkpt><trkpt lat="44.39851" lon="10.807975"><ele>750.25</ele><time>2026-04-26T07:53:10.47Z</time></trkpt><trkpt lat="44.39843" lon="10.8081233"><ele>752.0</ele><time>2026-04-26T07:53:11.47Z</time></trkpt><trkpt lat="44.3983533" lon="10.808275"><ele>752.0</ele><time>2026-04-26T07:53:12.47Z</time></trkpt><trkpt lat="44.398275" lon="10.8084217"><ele>752.0</ele><time>2026-04-26T07:53:13.47Z</time></trkpt><trkpt lat="44.3981917" lon="10.8085683"><ele>752.0</ele><time>2026-04-26T07:53:14.47Z</time></trkpt><trkpt lat="44.398105" lon="10.8087183"><ele>752.0</ele><time>2026-04-26T07:53:15.47Z</time></trkpt><trkpt lat="44.39802" lon="10.8088717"><ele>753.0</ele><time>2026-04-26T07:53:16.47Z</time></trkpt><trkpt lat="44.397935" lon="10.8090267"><ele>754.0</ele><time>2026-04-26T07:53:17.47Z</time></trkpt><trkpt lat="44.39784" lon="10.8091783"><ele>755.0</ele><time>2026-04-26T07:53:18.47Z</time></trkpt><trkpt lat="44.3977383" lon="10.8093217"><ele>756.0</ele><time>2026-04-26T07:53:19.47Z</time></trkpt><trkpt lat="44.3976367" lon="10.809445"><ele>756.0</ele><time>2026-04-26T07:53:20.47Z</time></trkpt><trkpt lat="44.3975233" lon="10.8095617"><ele>756.0</ele><time>2026-04-26T07:53:21.47Z</time></trkpt><trkpt lat="44.39741" lon="10.8096717"><ele>756.0</ele><time>2026-04-26T07:53:22.47Z</time></trkpt><trkpt lat="44.3973033" lon="10.80977"><ele>756.0</ele><time>2026-04-26T07:53:23.469Z</time></trkpt><trkpt lat="44.39719" lon="10.8098567"><ele>756.0</ele><time>2026-04-26T07:53:24.469Z</time></trkpt><trkpt lat="44.3970717" lon="10.8099333"><ele>756.0</ele><time>2026-04-26T07:53:25.469Z</time></trkpt><trkpt lat="44.3969483" lon="10.81002"><ele>756.0</ele><time>2026-04-26T07:53:26.469Z</time></trkpt><trkpt lat="44.3968167" lon="10.81011"><ele>756.0</ele><time>2026-04-26T07:53:27.469Z</time></trkpt><trkpt lat="44.3966767" lon="10.8101867"><ele>756.0</ele><time>2026-04-26T07:53:28.469Z</time></trkpt><trkpt lat="44.3965283" lon="10.8102433"><ele>756.0</ele><time>2026-04-26T07:53:29.469Z</time></trkpt><trkpt lat="44.396385" lon="10.8102833"><ele>756.0</ele><time>2026-04-26T07:53:30.469Z</time></trkpt><trkpt lat="44.3962483" lon="10.8103267"><ele>756.0</ele><time>2026-04-26T07:53:31.469Z</time></trkpt><trkpt lat="44.3961233" lon="10.8103933"><ele>757.25</ele><time>2026-04-26T07:53:32.47Z</time></trkpt><trkpt lat="44.396015" lon="10.8104667"><ele>758.5</ele><time>2026-04-26T07:53:33.469Z</time></trkpt><trkpt lat="44.3959167" lon="10.8105417"><ele>759.75</ele><time>2026-04-26T07:53:34.469Z</time></trkpt><trkpt lat="44.3958167" lon="10.810625"><ele>761.0</ele><time>2026-04-26T07:53:35.469Z</time></trkpt><trkpt lat="44.3957217" lon="10.81071"><ele>761.0</ele><time>2026-04-26T07:53:36.469Z</time></trkpt><trkpt lat="44.395645" lon="10.8108"><ele>761.0</ele><time>2026-04-26T07:53:37.469Z</time></trkpt><trkpt lat="44.3955767" lon="10.810875"><ele>761.0</ele><time>2026-04-26T07:53:38.469Z</time></trkpt><trkpt lat="44.3955167" lon="10.8109233"><ele>761.0</ele><time>2026-04-26T07:53:39.469Z</time></trkpt><trkpt lat="44.3954383" lon="10.8109733"><ele>761.0</ele><time>2026-04-26T07:53:40.469Z</time></trkpt><trkpt lat="44.3953583" lon="10.81102"><ele>761.0</ele><time>2026-04-26T07:53:41.47Z</time></trkpt><trkpt lat="44.395275" lon="10.8110783"><ele>761.4</ele><time>2026-04-26T07:53:42.469Z</time></trkpt><trkpt lat="44.39519" lon="10.8111417"><ele>761.8</ele><time>2026-04-26T07:53:43.47Z</time></trkpt><trkpt lat="44.395105" lon="10.8111983"><ele>762.1999999999999</ele><time>2026-04-26T07:53:44.469Z</time></trkpt><trkpt lat="44.395025" lon="10.811245"><ele>762.5999999999999</ele><time>2026-04-26T07:53:45.469Z</time></trkpt><trkpt lat="44.3949383" lon="10.8112767"><ele>763.0</ele><time>2026-04-26T07:53:46.469Z</time></trkpt><trkpt lat="44.3948483" lon="10.811315"><ele>763.0</ele><time>2026-04-26T07:53:47.469Z</time></trkpt><trkpt lat="44.3947517" lon="10.8113433"><ele>763.0</ele><time>2026-04-26T07:53:48.469Z</time></trkpt><trkpt lat="44.3946483" lon="10.811375"><ele>763.0</ele><time>2026-04-26T07:53:49.469Z</time></trkpt><trkpt lat="44.3945383" lon="10.8114067"><ele>763.0</ele><time>2026-04-26T07:53:50.469Z</time></trkpt><trkpt lat="44.394415" lon="10.8114283"><ele>763.0</ele><time>2026-04-26T07:53:51.469Z</time></trkpt><trkpt lat="44.3942767" lon="10.8114483"><ele>763.75</ele><time>2026-04-26T07:53:52.469Z</time></trkpt><trkpt lat="44.3941367" lon="10.811465"><ele>764.5</ele><time>2026-04-26T07:53:53.469Z</time></trkpt><trkpt lat="44.393995" lon="10.81149"><ele>765.25</ele><time>2026-04-26T07:53:54.469Z</time></trkpt><trkpt lat="44.39387" lon="10.81151"><ele>766.0</ele><time>2026-04-26T07:53:55.469Z</time></trkpt><trkpt lat="44.39375" lon="10.81151"><ele>766.0</ele><time>2026-04-26T07:53:56.47Z</time></trkpt><trkpt lat="44.39363" lon="10.811495"><ele>766.0</ele><time>2026-04-26T07:53:57.469Z</time></trkpt><trkpt lat="44.3935183" lon="10.8114717"><ele>766.0</ele><time>2026-04-26T07:53:58.469Z</time></trkpt><trkpt lat="44.3934233" lon="10.811455"><ele>766.0</ele><time>2026-04-26T07:53:59.469Z</time></trkpt><trkpt lat="44.393355" lon="10.811435"><ele>766.0</ele><time>2026-04-26T07:54:00.469Z</time></trkpt><trkpt lat="44.3932317" lon="10.8114217"><ele>766.0</ele><time>2026-04-26T07:54:02.469Z</time></trkpt><trkpt lat="44.3931517" lon="10.811435"><ele>766.0</ele><time>2026-04-26T07:54:03.469Z</time></trkpt><trkpt lat="44.3930467" lon="10.8114617"><ele>766.0</ele><time>2026-04-26T07:54:04.469Z</time></trkpt><trkpt lat="44.392925" lon="10.8115033"><ele>766.0</ele><time>2026-04-26T07:54:05.469Z</time></trkpt><trkpt lat="44.39279" lon="10.811545"><ele>766.4</ele><time>2026-04-26T07:54:06.469Z</time></trkpt><trkpt lat="44.392655" lon="10.8115833"><ele>766.8</ele><time>2026-04-26T07:54:07.469Z</time></trkpt><trkpt lat="44.392545" lon="10.8116183"><ele>767.1999999999999</ele><time>2026-04-26T07:54:08.469Z</time></trkpt><trkpt lat="44.3924667" lon="10.8116333"><ele>767.5999999999999</ele><time>2026-04-26T07:54:09.469Z</time></trkpt><trkpt lat="44.3924" lon="10.8116667"><ele>768.0</ele><time>2026-04-26T07:54:10.469Z</time></trkpt><trkpt lat="44.3923467" lon="10.81172"><ele>768.0</ele><time>2026-04-26T07:54:12.469Z</time></trkpt><trkpt lat="44.3922717" lon="10.8117167"><ele>768.0</ele><time>2026-04-26T07:54:15.469Z</time></trkpt><trkpt lat="44.3921333" lon="10.8117417"><ele>768.0</ele><time>2026-04-26T07:54:17.469Z</time></trkpt><trkpt lat="44.3920333" lon="10.8117717"><ele>768.0</ele><time>2026-04-26T07:54:18.469Z</time></trkpt><trkpt lat="44.3919233" lon="10.811815"><ele>768.0</ele><time>2026-04-26T07:54:19.469Z</time></trkpt><trkpt lat="44.3917983" lon="10.8118567"><ele>767.25</ele><time>2026-04-26T07:54:20.469Z</time></trkpt><trkpt lat="44.3916733" lon="10.811905"><ele>766.5</ele><time>2026-04-26T07:54:21.469Z</time></trkpt><trkpt lat="44.3915483" lon="10.8119583"><ele>765.75</ele><time>2026-04-26T07:54:22.469Z</time></trkpt><trkpt lat="44.3914267" lon="10.8120117"><ele>765.0</ele><time>2026-04-26T07:54:23.469Z</time></trkpt><trkpt lat="44.3913017" lon="10.8120583"><ele>765.0</ele><time>2026-04-26T07:54:24.469Z</time></trkpt><trkpt lat="44.39119" lon="10.8120967"><ele>765.0</ele><time>2026-04-26T07:54:25.469Z</time></trkpt><trkpt lat="44.3910833" lon="10.8121317"><ele>765.0</ele><time>2026-04-26T07:54:26.469Z</time></trkpt><trkpt lat="44.390965" lon="10.812145"><ele>765.0</ele><time>2026-04-26T07:54:27.469Z</time></trkpt><trkpt lat="44.3908383" lon="10.81216"><ele>765.0</ele><time>2026-04-26T07:54:28.469Z</time></trkpt><trkpt lat="44.3907167" lon="10.8121583"><ele>765.0</ele><time>2026-04-26T07:54:29.469Z</time></trkpt><trkpt lat="44.3906133" lon="10.8121583"><ele>765.0</ele><time>2026-04-26T07:54:30.469Z</time></trkpt><trkpt lat="44.390525" lon="10.81217"><ele>765.0</ele><time>2026-04-26T07:54:31.469Z</time></trkpt><trkpt lat="44.390425" lon="10.8122067"><ele>765.0</ele><time>2026-04-26T07:54:33.469Z</time></trkpt><trkpt lat="44.39034" lon="10.8122767"><ele>765.1666666666666</ele><time>2026-04-26T07:54:51.469Z</time></trkpt><trkpt lat="44.3902533" lon="10.8123283"><ele>765.3333333333334</ele><time>2026-04-26T07:54:53.469Z</time></trkpt><trkpt lat="44.3901883" lon="10.812365"><ele>765.5</ele><time>2026-04-26T07:54:54.469Z</time></trkpt><trkpt lat="44.3901183" lon="10.8124067"><ele>765.6666666666667</ele><time>2026-04-26T07:54:55.469Z</time></trkpt><trkpt lat="44.3900417" lon="10.8124433"><ele>765.8333333333334</ele><time>2026-04-26T07:54:56.469Z</time></trkpt><trkpt lat="44.3899733" lon="10.8124567"><ele>766.0</ele><time>2026-04-26T07:54:57.469Z</time></trkpt><trkpt lat="44.3899033" lon="10.8124483"><ele>766.0</ele><time>2026-04-26T07:54:58.469Z</time></trkpt><trkpt lat="44.3898333" lon="10.8124233"><ele>766.0</ele><time>2026-04-26T07:54:59.469Z</time></trkpt><trkpt lat="44.3897767" lon="10.8123817"><ele>766.0</ele><time>2026-04-26T07:55:00.469Z</time></trkpt><trkpt lat="44.3897017" lon="10.8123467"><ele>766.0</ele><time>2026-04-26T07:55:02.469Z</time></trkpt><trkpt lat="44.389615" lon="10.8123583"><ele>766.0</ele><time>2026-04-26T07:55:05.469Z</time></trkpt><trkpt lat="44.389515" lon="10.8124383"><ele>766.0</ele><time>2026-04-26T07:55:07.47Z</time></trkpt><trkpt lat="44.3894617" lon="10.812495"><ele>766.0</ele><time>2026-04-26T07:55:08.469Z</time></trkpt><trkpt lat="44.3894017" lon="10.8125583"><ele>766.0</ele><time>2026-04-26T07:55:09.469Z</time></trkpt><trkpt lat="44.389335" lon="10.8126233"><ele>766.0</ele><time>2026-04-26T07:55:10.469Z</time></trkpt><trkpt lat="44.3892683" lon="10.8126967"><ele>766.0</ele><time>2026-04-26T07:55:11.469Z</time></trkpt><trkpt lat="44.38919" lon="10.8127817"><ele>766.0</ele><time>2026-04-26T07:55:12.469Z</time></trkpt><trkpt lat="44.3891067" lon="10.8128683"><ele>766.0</ele><time>2026-04-26T07:55:13.47Z</time></trkpt><trkpt lat="44.3890183" lon="10.8129683"><ele>766.0</ele><time>2026-04-26T07:55:14.469Z</time></trkpt><trkpt lat="44.3889217" lon="10.813065"><ele>766.0</ele><time>2026-04-26T07:55:15.469Z</time></trkpt><trkpt lat="44.388815" lon="10.8131667"><ele>766.0</ele><time>2026-04-26T07:55:16.469Z</time></trkpt><trkpt lat="44.3887067" lon="10.8132783"><ele>766.0</ele><time>2026-04-26T07:55:17.469Z</time></trkpt><trkpt lat="44.3885917" lon="10.8133883"><ele>765.0</ele><time>2026-04-26T07:55:18.469Z</time></trkpt><trkpt lat="44.3884733" lon="10.8134967"><ele>764.0</ele><time>2026-04-26T07:55:19.469Z</time></trkpt><trkpt lat="44.3883567" lon="10.8136117"><ele>763.0</ele><time>2026-04-26T07:55:20.469Z</time></trkpt><trkpt lat="44.388235" lon="10.8137283"><ele>762.0</ele><time>2026-04-26T07:55:21.469Z</time></trkpt><trkpt lat="44.3881083" lon="10.8138433"><ele>763.0</ele><time>2026-04-26T07:55:22.469Z</time></trkpt><trkpt lat="44.3879833" lon="10.8139717"><ele>764.0</ele><time>2026-04-26T07:55:23.469Z</time></trkpt><trkpt lat="44.3878467" lon="10.8140967"><ele>765.0</ele><time>2026-04-26T07:55:24.469Z</time></trkpt><trkpt lat="44.3877067" lon="10.8142083"><ele>766.0</ele><time>2026-04-26T07:55:25.469Z</time></trkpt><trkpt lat="44.3875583" lon="10.8143383"><ele>767.0</ele><time>2026-04-26T07:55:26.469Z</time></trkpt><trkpt lat="44.387405" lon="10.8144733"><ele>768.0</ele><time>2026-04-26T07:55:27.469Z</time></trkpt><trkpt lat="44.38726" lon="10.8145833"><ele>766.8</ele><time>2026-04-26T07:55:28.469Z</time></trkpt><trkpt lat="44.3871383" lon="10.814695"><ele>765.5999999999999</ele><time>2026-04-26T07:55:29.469Z</time></trkpt><trkpt lat="44.3870467" lon="10.81479"><ele>764.4000000000001</ele><time>2026-04-26T07:55:30.469Z</time></trkpt><trkpt lat="44.3869817" lon="10.8148633"><ele>763.2</ele><time>2026-04-26T07:55:31.469Z</time></trkpt><trkpt lat="44.3869233" lon="10.8149133"><ele>762.0</ele><time>2026-04-26T07:55:32.47Z</time></trkpt><trkpt lat="44.3867983" lon="10.814945"><ele>762.0</ele><time>2026-04-26T07:55:34.469Z</time></trkpt><trkpt lat="44.38672" lon="10.8149467"><ele>762.0</ele><time>2026-04-26T07:55:35.469Z</time></trkpt><trkpt lat="44.3866267" lon="10.8149367"><ele>762.0</ele><time>2026-04-26T07:55:36.469Z</time></trkpt><trkpt lat="44.386515" lon="10.8149217"><ele>762.0</ele><time>2026-04-26T07:55:37.469Z</time></trkpt><trkpt lat="44.3864033" lon="10.8149033"><ele>762.0</ele><time>2026-04-26T07:55:38.469Z</time></trkpt><trkpt lat="44.3862867" lon="10.8148783"><ele>761.6</ele><time>2026-04-26T07:55:39.469Z</time></trkpt><trkpt lat="44.3861667" lon="10.814845"><ele>761.2</ele><time>2026-04-26T07:55:40.469Z</time></trkpt><trkpt lat="44.38606" lon="10.81481"><ele>760.8</ele><time>2026-04-26T07:55:41.469Z</time></trkpt><trkpt lat="44.3859617" lon="10.8147617"><ele>760.4</ele><time>2026-04-26T07:55:42.469Z</time></trkpt><trkpt lat="44.38586" lon="10.8147017"><ele>760.0</ele><time>2026-04-26T07:55:43.469Z</time></trkpt><trkpt lat="44.38578" lon="10.8146333"><ele>760.0</ele><time>2026-04-26T07:55:44.469Z</time></trkpt><trkpt lat="44.3857017" lon="10.8145467"><ele>760.0</ele><time>2026-04-26T07:55:45.469Z</time></trkpt><trkpt lat="44.3856433" lon="10.81444"><ele>760.0</ele><time>2026-04-26T07:55:46.469Z</time></trkpt><trkpt lat="44.3855867" lon="10.8143117"><ele>760.0</ele><time>2026-04-26T07:55:47.47Z</time></trkpt><trkpt lat="44.3855267" lon="10.8141667"><ele>760.0</ele><time>2026-04-26T07:55:48.47Z</time></trkpt><trkpt lat="44.3854617" lon="10.81401"><ele>758.25</ele><time>2026-04-26T07:55:49.469Z</time></trkpt><trkpt lat="44.3853933" lon="10.8138583"><ele>756.5</ele><time>2026-04-26T07:55:50.47Z</time></trkpt><trkpt lat="44.3853217" lon="10.8137283"><ele>754.75</ele><time>2026-04-26T07:55:51.469Z</time></trkpt><trkpt lat="44.38523" lon="10.8136083"><ele>753.0</ele><time>2026-04-26T07:55:52.469Z</time></trkpt><trkpt lat="44.3851133" lon="10.813495"><ele>753.5</ele><time>2026-04-26T07:55:53.469Z</time></trkpt><trkpt lat="44.3849867" lon="10.813395"><ele>754.0</ele><time>2026-04-26T07:55:54.469Z</time></trkpt><trkpt lat="44.3848483" lon="10.8133067"><ele>754.5</ele><time>2026-04-26T07:55:55.469Z</time></trkpt><trkpt lat="44.384715" lon="10.8132217"><ele>755.0</ele><time>2026-04-26T07:55:56.469Z</time></trkpt><trkpt lat="44.3845867" lon="10.81314"><ele>756.0</ele><time>2026-04-26T07:55:57.469Z</time></trkpt><trkpt lat="44.3844517" lon="10.8130533"><ele>757.0</ele><time>2026-04-26T07:55:58.469Z</time></trkpt><trkpt lat="44.3843183" lon="10.8129683"><ele>758.0</ele><time>2026-04-26T07:55:59.469Z</time></trkpt><trkpt lat="44.384195" lon="10.8128883"><ele>759.0</ele><time>2026-04-26T07:56:00.469Z</time></trkpt><trkpt lat="44.3840883" lon="10.8128233"><ele>759.0</ele><time>2026-04-26T07:56:01.469Z</time></trkpt><trkpt lat="44.3839717" lon="10.8127783"><ele>759.0</ele><time>2026-04-26T07:56:02.469Z</time></trkpt><trkpt lat="44.38386" lon="10.8127033"><ele>759.0</ele><time>2026-04-26T07:56:03.469Z</time></trkpt><trkpt lat="44.3837433" lon="10.8126033"><ele>759.0</ele><time>2026-04-26T07:56:04.469Z</time></trkpt><trkpt lat="44.3836367" lon="10.8124967"><ele>760.25</ele><time>2026-04-26T07:56:05.469Z</time></trkpt><trkpt lat="44.383545" lon="10.81238"><ele>761.5</ele><time>2026-04-26T07:56:06.469Z</time></trkpt><trkpt lat="44.383445" lon="10.8122767"><ele>762.75</ele><time>2026-04-26T07:56:07.469Z</time></trkpt><trkpt lat="44.3833483" lon="10.81219"><ele>764.0</ele><time>2026-04-26T07:56:08.469Z</time></trkpt><trkpt lat="44.3832617" lon="10.8121117"><ele>764.0</ele><time>2026-04-26T07:56:09.469Z</time></trkpt><trkpt lat="44.3831917" lon="10.8120533"><ele>764.0</ele><time>2026-04-26T07:56:10.469Z</time></trkpt><trkpt lat="44.383095" lon="10.8119883"><ele>764.0</ele><time>2026-04-26T07:56:12.469Z</time></trkpt><trkpt lat="44.383025" lon="10.8119383"><ele>764.0</ele><time>2026-04-26T07:56:14.47Z</time></trkpt><trkpt lat="44.3829633" lon="10.8118883"><ele>764.0</ele><time>2026-04-26T07:56:16.469Z</time></trkpt><trkpt lat="44.3829" lon="10.811845"><ele>764.0</ele><time>2026-04-26T07:56:18.469Z</time></trkpt><trkpt lat="44.382825" lon="10.81178"><ele>761.1666666666666</ele><time>2026-04-26T07:56:20.469Z</time></trkpt><trkpt lat="44.3827117" lon="10.8117"><ele>758.3333333333333</ele><time>2026-04-26T07:56:22.469Z</time></trkpt><trkpt lat="44.3826483" lon="10.811655"><ele>755.5</ele><time>2026-04-26T07:56:23.469Z</time></trkpt><trkpt lat="44.38258" lon="10.8116133"><ele>752.6666666666666</ele><time>2026-04-26T07:56:24.469Z</time></trkpt><trkpt lat="44.38251" lon="10.811585"><ele>749.8333333333334</ele><time>2026-04-26T07:56:25.469Z</time></trkpt><trkpt lat="44.3824267" lon="10.81157"><ele>747.0</ele><time>2026-04-26T07:56:26.469Z</time></trkpt><trkpt lat="44.382335" lon="10.81157"><ele>747.0</ele><time>2026-04-26T07:56:27.469Z</time></trkpt><trkpt lat="44.382235" lon="10.811585"><ele>747.0</ele><time>2026-04-26T07:56:28.469Z</time></trkpt><trkpt lat="44.382135" lon="10.81161"><ele>747.0</ele><time>2026-04-26T07:56:29.469Z</time></trkpt><trkpt lat="44.3820383" lon="10.8116283"><ele>747.0</ele><time>2026-04-26T07:56:30.469Z</time></trkpt><trkpt lat="44.3819483" lon="10.81163"><ele>747.0</ele><time>2026-04-26T07:56:31.469Z</time></trkpt><trkpt lat="44.3818567" lon="10.8116033"><ele>744.75</ele><time>2026-04-26T07:56:32.469Z</time></trkpt><trkpt lat="44.38175" lon="10.8115383"><ele>742.5</ele><time>2026-04-26T07:56:33.469Z</time></trkpt><trkpt lat="44.3816317" lon="10.811465"><ele>740.25</ele><time>2026-04-26T07:56:34.469Z</time></trkpt><trkpt lat="44.3815117" lon="10.8113867"><ele>738.0</ele><time>2026-04-26T07:56:35.469Z</time></trkpt><trkpt lat="44.3813983" lon="10.8113183"><ele>736.25</ele><time>2026-04-26T07:56:36.469Z</time></trkpt><trkpt lat="44.381285" lon="10.81125"><ele>734.5</ele><time>2026-04-26T07:56:37.469Z</time></trkpt><trkpt lat="44.3811833" lon="10.8111983"><ele>732.75</ele><time>2026-04-26T07:56:38.469Z</time></trkpt><trkpt lat="44.3810717" lon="10.8111717"><ele>731.0</ele><time>2026-04-26T07:56:39.469Z</time></trkpt><trkpt lat="44.3809333" lon="10.811165"><ele>731.0</ele><time>2026-04-26T07:56:40.469Z</time></trkpt><trkpt lat="44.3807767" lon="10.8111683"><ele>731.0</ele><time>2026-04-26T07:56:41.469Z</time></trkpt><trkpt lat="44.3806283" lon="10.8111833"><ele>731.0</ele><time>2026-04-26T07:56:42.469Z</time></trkpt><trkpt lat="44.380485" lon="10.8111883"><ele>731.0</ele><time>2026-04-26T07:56:43.47Z</time></trkpt><trkpt lat="44.38034" lon="10.8111767"><ele>728.6666666666666</ele><time>2026-04-26T07:56:44.469Z</time></trkpt><trkpt lat="44.3801867" lon="10.81115"><ele>726.3333333333334</ele><time>2026-04-26T07:56:45.47Z</time></trkpt><trkpt lat="44.3800317" lon="10.811125"><ele>724.0</ele><time>2026-04-26T07:56:46.469Z</time></trkpt><trkpt lat="44.3798833" lon="10.81108"><ele>724.0</ele><time>2026-04-26T07:56:47.469Z</time></trkpt><trkpt lat="44.3797483" lon="10.8110317"><ele>724.0</ele><time>2026-04-26T07:56:48.469Z</time></trkpt><trkpt lat="44.37962" lon="10.81099"><ele>724.0</ele><time>2026-04-26T07:56:49.469Z</time></trkpt><trkpt lat="44.3795" lon="10.8109433"><ele>724.0</ele><time>2026-04-26T07:56:50.469Z</time></trkpt><trkpt lat="44.37939" lon="10.8108967"><ele>724.6</ele><time>2026-04-26T07:56:51.469Z</time></trkpt><trkpt lat="44.379285" lon="10.8108517"><ele>725.2</ele><time>2026-04-26T07:56:52.469Z</time></trkpt><trkpt lat="44.37918" lon="10.8108017"><ele>725.8000000000001</ele><time>2026-04-26T07:56:53.469Z</time></trkpt><trkpt lat="44.3790933" lon="10.8107683"><ele>726.4000000000001</ele><time>2026-04-26T07:56:54.469Z</time></trkpt><trkpt lat="44.379015" lon="10.8107367"><ele>727.0</ele><time>2026-04-26T07:56:55.469Z</time></trkpt><trkpt lat="44.3789383" lon="10.8107383"><ele>727.0</ele><time>2026-04-26T07:56:57.469Z</time></trkpt><trkpt lat="44.37893" lon="10.8108267"><ele>727.0</ele><time>2026-04-26T07:57:00.469Z</time></trkpt><trkpt lat="44.3790167" lon="10.8109017"><ele>727.0</ele><time>2026-04-26T07:57:02.469Z</time></trkpt><trkpt lat="44.3791" lon="10.8109383"><ele>727.0</ele><time>2026-04-26T07:57:04.469Z</time></trkpt><trkpt lat="44.379205" lon="10.81102"><ele>727.0</ele><time>2026-04-26T07:57:06.469Z</time></trkpt><trkpt lat="44.3792733" lon="10.81109"><ele>726.4000000000001</ele><time>2026-04-26T07:57:07.469Z</time></trkpt><trkpt lat="44.379355" lon="10.8111633"><ele>725.8000000000001</ele><time>2026-04-26T07:57:08.469Z</time></trkpt><trkpt lat="44.379435" lon="10.8112383"><ele>725.2</ele><time>2026-04-26T07:57:09.469Z</time></trkpt><trkpt lat="44.379525" lon="10.8113167"><ele>724.6</ele><time>2026-04-26T07:57:10.469Z</time></trkpt><trkpt lat="44.3796167" lon="10.8114017"><ele>724.0</ele><time>2026-04-26T07:57:11.469Z</time></trkpt><trkpt lat="44.3796983" lon="10.8114817"><ele>724.0</ele><time>2026-04-26T07:57:12.469Z</time></trkpt><trkpt lat="44.3797867" lon="10.8115683"><ele>724.0</ele><time>2026-04-26T07:57:13.469Z</time></trkpt><trkpt lat="44.37988" lon="10.8116667"><ele>724.0</ele><time>2026-04-26T07:57:14.469Z</time></trkpt><trkpt lat="44.37996" lon="10.8117667"><ele>724.0</ele><time>2026-04-26T07:57:15.469Z</time></trkpt><trkpt lat="44.3800183" lon="10.81189"><ele>724.0</ele><time>2026-04-26T07:57:16.469Z</time></trkpt><trkpt lat="44.3800433" lon="10.8120433"><ele>723.75</ele><time>2026-04-26T07:57:17.47Z</time></trkpt><trkpt lat="44.380035" lon="10.8122067"><ele>723.5</ele><time>2026-04-26T07:57:18.469Z</time></trkpt><trkpt lat="44.3800117" lon="10.812385"><ele>723.25</ele><time>2026-04-26T07:57:19.469Z</time></trkpt><trkpt lat="44.3799967" lon="10.8125733"><ele>723.0</ele><time>2026-04-26T07:57:20.47Z</time></trkpt><trkpt lat="44.3799967" lon="10.8127717"><ele>723.0</ele><time>2026-04-26T07:57:21.469Z</time></trkpt><trkpt lat="44.3800183" lon="10.8129617"><ele>723.0</ele><time>2026-04-26T07:57:22.47Z</time></trkpt><trkpt lat="44.380075" lon="10.8131483"><ele>723.0</ele><time>2026-04-26T07:57:23.469Z</time></trkpt><trkpt lat="44.380165" lon="10.8133267"><ele>723.0</ele><time>2026-04-26T07:57:24.47Z</time></trkpt><trkpt lat="44.3802867" lon="10.81351"><ele>723.0</ele><time>2026-04-26T07:57:25.469Z</time></trkpt><trkpt lat="44.3804283" lon="10.813685"><ele>723.0</ele><time>2026-04-26T07:57:26.468Z</time></trkpt><trkpt lat="44.3805667" lon="10.8138483"><ele>723.0</ele><time>2026-04-26T07:57:27.468Z</time></trkpt><trkpt lat="44.3806933" lon="10.8139917"><ele>723.5</ele><time>2026-04-26T07:57:28.468Z</time></trkpt><trkpt lat="44.3808117" lon="10.814125"><ele>724.0</ele><time>2026-04-26T07:57:29.468Z</time></trkpt><trkpt lat="44.380925" lon="10.8142533"><ele>724.5</ele><time>2026-04-26T07:57:30.468Z</time></trkpt><trkpt lat="44.3810283" lon="10.8143733"><ele>725.0</ele><time>2026-04-26T07:57:31.468Z</time></trkpt><trkpt lat="44.3811083" lon="10.8144983"><ele>725.8</ele><time>2026-04-26T07:57:32.468Z</time></trkpt><trkpt lat="44.381155" lon="10.814645"><ele>726.6</ele><time>2026-04-26T07:57:33.468Z</time></trkpt><trkpt lat="44.3811733" lon="10.81481"><ele>727.4000000000001</ele><time>2026-04-26T07:57:34.468Z</time></trkpt><trkpt lat="44.38116" lon="10.814955"><ele>728.2</ele><time>2026-04-26T07:57:35.468Z</time></trkpt><trkpt lat="44.3811233" lon="10.815075"><ele>729.0</ele><time>2026-04-26T07:57:36.468Z</time></trkpt><trkpt lat="44.3810583" lon="10.8151683"><ele>729.0</ele><time>2026-04-26T07:57:37.468Z</time></trkpt><trkpt lat="44.38097" lon="10.815215"><ele>729.0</ele><time>2026-04-26T07:57:38.468Z</time></trkpt><trkpt lat="44.3808483" lon="10.8151933"><ele>729.0</ele><time>2026-04-26T07:57:39.468Z</time></trkpt><trkpt lat="44.38072" lon="10.81513"><ele>729.0</ele><time>2026-04-26T07:57:40.468Z</time></trkpt><trkpt lat="44.3805917" lon="10.81505"><ele>730.0</ele><time>2026-04-26T07:57:41.468Z</time></trkpt><trkpt lat="44.3804567" lon="10.8149767"><ele>731.0</ele><time>2026-04-26T07:57:42.468Z</time></trkpt><trkpt lat="44.3803133" lon="10.81494"><ele>732.0</ele><time>2026-04-26T07:57:43.469Z</time></trkpt><trkpt lat="44.38016" lon="10.8149317"><ele>733.0</ele><time>2026-04-26T07:57:44.468Z</time></trkpt><trkpt lat="44.38001" lon="10.814935"><ele>733.0</ele><time>2026-04-26T07:57:45.468Z</time></trkpt><trkpt lat="44.379865" lon="10.8149367"><ele>733.0</ele><time>2026-04-26T07:57:46.469Z</time></trkpt><trkpt lat="44.379725" lon="10.8149367"><ele>733.0</ele><time>2026-04-26T07:57:47.468Z</time></trkpt><trkpt lat="44.3795933" lon="10.81494"><ele>733.0</ele><time>2026-04-26T07:57:48.468Z</time></trkpt><trkpt lat="44.3794767" lon="10.8149583"><ele>733.4</ele><time>2026-04-26T07:57:49.468Z</time></trkpt><trkpt lat="44.3793767" lon="10.8150117"><ele>733.8</ele><time>2026-04-26T07:57:50.468Z</time></trkpt><trkpt lat="44.3792983" lon="10.8151017"><ele>734.2</ele><time>2026-04-26T07:57:51.468Z</time></trkpt><trkpt lat="44.37925" lon="10.8152233"><ele>734.6</ele><time>2026-04-26T07:57:52.468Z</time></trkpt><trkpt lat="44.3792167" lon="10.815365"><ele>735.0</ele><time>2026-04-26T07:57:53.468Z</time></trkpt><trkpt lat="44.3791867" lon="10.8155133"><ele>735.75</ele><time>2026-04-26T07:57:54.469Z</time></trkpt><trkpt lat="44.3791617" lon="10.8156717"><ele>736.5</ele><time>2026-04-26T07:57:55.468Z</time></trkpt><trkpt lat="44.3791383" lon="10.8158383"><ele>737.25</ele><time>2026-04-26T07:57:56.468Z</time></trkpt><trkpt lat="44.3791033" lon="10.816005"><ele>738.0</ele><time>2026-04-26T07:57:57.468Z</time></trkpt><trkpt lat="44.3790667" lon="10.8161733"><ele>739.0</ele><time>2026-04-26T07:57:58.468Z</time></trkpt><trkpt lat="44.3790283" lon="10.8163333"><ele>740.0</ele><time>2026-04-26T07:57:59.468Z</time></trkpt><trkpt lat="44.3789867" lon="10.8164817"><ele>741.0</ele><time>2026-04-26T07:58:00.468Z</time></trkpt><trkpt lat="44.378935" lon="10.816615"><ele>742.0</ele><time>2026-04-26T07:58:01.468Z</time></trkpt><trkpt lat="44.3788867" lon="10.8167283"><ele>743.0</ele><time>2026-04-26T07:58:02.468Z</time></trkpt><trkpt lat="44.3788333" lon="10.8168283"><ele>744.1666666666666</ele><time>2026-04-26T07:58:03.468Z</time></trkpt><trkpt lat="44.378785" lon="10.8169217"><ele>745.3333333333333</ele><time>2026-04-26T07:58:04.468Z</time></trkpt><trkpt lat="44.37875" lon="10.8170217"><ele>746.5</ele><time>2026-04-26T07:58:05.468Z</time></trkpt><trkpt lat="44.37874" lon="10.8171317"><ele>747.6666666666666</ele><time>2026-04-26T07:58:06.468Z</time></trkpt><trkpt lat="44.37876" lon="10.8172383"><ele>748.8333333333334</ele><time>2026-04-26T07:58:07.468Z</time></trkpt><trkpt lat="44.3788033" lon="10.81734"><ele>750.0</ele><time>2026-04-26T07:58:08.468Z</time></trkpt><trkpt lat="44.37887" lon="10.8174317"><ele>750.0</ele><time>2026-04-26T07:58:09.468Z</time></trkpt><trkpt lat="44.3789533" lon="10.8175317"><ele>750.0</ele><time>2026-04-26T07:58:10.468Z</time></trkpt><trkpt lat="44.3790433" lon="10.8176333"><ele>750.0</ele><time>2026-04-26T07:58:11.468Z</time></trkpt><trkpt lat="44.3791417" lon="10.8177333"><ele>750.0</ele><time>2026-04-26T07:58:12.468Z</time></trkpt><trkpt lat="44.37924" lon="10.81782"><ele>751.25</ele><time>2026-04-26T07:58:13.468Z</time></trkpt><trkpt lat="44.3793367" lon="10.8179033"><ele>752.5</ele><time>2026-04-26T07:58:14.468Z</time></trkpt><trkpt lat="44.3794317" lon="10.81799"><ele>753.75</ele><time>2026-04-26T07:58:15.468Z</time></trkpt><trkpt lat="44.379535" lon="10.81807"><ele>755.0</ele><time>2026-04-26T07:58:16.468Z</time></trkpt><trkpt lat="44.3796467" lon="10.8181317"><ele>755.5</ele><time>2026-04-26T07:58:17.468Z</time></trkpt><trkpt lat="44.3797683" lon="10.8181583"><ele>756.0</ele><time>2026-04-26T07:58:18.468Z</time></trkpt><trkpt lat="44.379905" lon="10.8181767"><ele>756.5</ele><time>2026-04-26T07:58:19.468Z</time></trkpt><trkpt lat="44.3800383" lon="10.8182133"><ele>757.0</ele><time>2026-04-26T07:58:20.468Z</time></trkpt><trkpt lat="44.3801567" lon="10.8183"><ele>757.0</ele><time>2026-04-26T07:58:21.468Z</time></trkpt><trkpt lat="44.38026" lon="10.81843"><ele>757.0</ele><time>2026-04-26T07:58:22.468Z</time></trkpt><trkpt lat="44.38035" lon="10.8185917"><ele>757.0</ele><time>2026-04-26T07:58:23.468Z</time></trkpt><trkpt lat="44.3804217" lon="10.818775"><ele>757.0</ele><time>2026-04-26T07:58:24.469Z</time></trkpt><trkpt lat="44.3804917" lon="10.81897"><ele>756.25</ele><time>2026-04-26T07:58:25.468Z</time></trkpt><trkpt lat="44.38056" lon="10.81915"><ele>755.5</ele><time>2026-04-26T07:58:26.468Z</time></trkpt><trkpt lat="44.3806283" lon="10.8193083"><ele>754.75</ele><time>2026-04-26T07:58:27.468Z</time></trkpt><trkpt lat="44.3806883" lon="10.8194517"><ele>754.0</ele><time>2026-04-26T07:58:28.468Z</time></trkpt><trkpt lat="44.3807467" lon="10.81959"><ele>754.0</ele><time>2026-04-26T07:58:29.469Z</time></trkpt><trkpt lat="44.3808017" lon="10.8197267"><ele>754.0</ele><time>2026-04-26T07:58:30.468Z</time></trkpt><trkpt lat="44.380855" lon="10.8198617"><ele>754.0</ele><time>2026-04-26T07:58:31.468Z</time></trkpt><trkpt lat="44.3809067" lon="10.82"><ele>754.0</ele><time>2026-04-26T07:58:32.468Z</time></trkpt><trkpt lat="44.3809633" lon="10.8201433"><ele>753.4000000000001</ele><time>2026-04-26T07:58:33.468Z</time></trkpt><trkpt lat="44.3810117" lon="10.8202817"><ele>752.8</ele><time>2026-04-26T07:58:34.468Z</time></trkpt><trkpt lat="44.3810517" lon="10.8204133"><ele>752.2</ele><time>2026-04-26T07:58:35.468Z</time></trkpt><trkpt lat="44.3810833" lon="10.820545"><ele>751.5999999999999</ele><time>2026-04-26T07:58:36.468Z</time></trkpt><trkpt lat="44.381105" lon="10.8206533"><ele>751.0</ele><time>2026-04-26T07:58:37.468Z</time></trkpt><trkpt lat="44.3811217" lon="10.8207567"><ele>751.0</ele><time>2026-04-26T07:58:38.468Z</time></trkpt><trkpt lat="44.3811333" lon="10.8208483"><ele>751.0</ele><time>2026-04-26T07:58:39.468Z</time></trkpt><trkpt lat="44.381135" lon="10.82098"><ele>751.0</ele><time>2026-04-26T07:58:41.468Z</time></trkpt><trkpt lat="44.3811167" lon="10.8210667"><ele>751.0</ele><time>2026-04-26T07:58:44.469Z</time></trkpt><trkpt lat="44.3810483" lon="10.8211583"><ele>751.0</ele><time>2026-04-26T07:58:46.468Z</time></trkpt><trkpt lat="44.3809817" lon="10.821205"><ele>751.0</ele><time>2026-04-26T07:58:47.468Z</time></trkpt><trkpt lat="44.3809117" lon="10.821275"><ele>750.0</ele><time>2026-04-26T07:58:48.468Z</time></trkpt><trkpt lat="44.3808283" lon="10.8213533"><ele>749.0</ele><time>2026-04-26T07:58:49.468Z</time></trkpt><trkpt lat="44.3807383" lon="10.8214433"><ele>748.0</ele><time>2026-04-26T07:58:50.468Z</time></trkpt><trkpt lat="44.38064" lon="10.82155"><ele>747.0</ele><time>2026-04-26T07:58:51.468Z</time></trkpt><trkpt lat="44.38054" lon="10.8216633"><ele>747.25</ele><time>2026-04-26T07:58:52.468Z</time></trkpt><trkpt lat="44.3804317" lon="10.8217767"><ele>747.5</ele><time>2026-04-26T07:58:53.468Z</time></trkpt><trkpt lat="44.3803217" lon="10.8218817"><ele>747.75</ele><time>2026-04-26T07:58:54.468Z</time></trkpt><trkpt lat="44.38021" lon="10.8219917"><ele>748.0</ele><time>2026-04-26T07:58:55.468Z</time></trkpt><trkpt lat="44.3801033" lon="10.8221067"><ele>748.0</ele><time>2026-04-26T07:58:56.468Z</time></trkpt><trkpt lat="44.3799983" lon="10.8222183"><ele>748.0</ele><time>2026-04-26T07:58:57.468Z</time></trkpt><trkpt lat="44.379885" lon="10.822335"><ele>748.0</ele><time>2026-04-26T07:58:58.468Z</time></trkpt><trkpt lat="44.37977" lon="10.8224517"><ele>748.0</ele><time>2026-04-26T07:58:59.469Z</time></trkpt><trkpt lat="44.379655" lon="10.8225667"><ele>746.5</ele><time>2026-04-26T07:59:00.468Z</time></trkpt><trkpt lat="44.379535" lon="10.822685"><ele>745.0</ele><time>2026-04-26T07:59:01.468Z</time></trkpt><trkpt lat="44.37941" lon="10.8228017"><ele>743.5</ele><time>2026-04-26T07:59:02.468Z</time></trkpt><trkpt lat="44.3792867" lon="10.82292"><ele>742.0</ele><time>2026-04-26T07:59:03.468Z</time></trkpt><trkpt lat="44.3791567" lon="10.8230417"><ele>742.0</ele><time>2026-04-26T07:59:04.468Z</time></trkpt><trkpt lat="44.3790267" lon="10.8231733"><ele>742.0</ele><time>2026-04-26T07:59:05.468Z</time></trkpt><trkpt lat="44.3788933" lon="10.8233"><ele>742.0</ele><time>2026-04-26T07:59:06.468Z</time></trkpt><trkpt lat="44.3787633" lon="10.8234267"><ele>739.0</ele><time>2026-04-26T07:59:07.468Z</time></trkpt><trkpt lat="44.37863" lon="10.8235667"><ele>736.0</ele><time>2026-04-26T07:59:08.468Z</time></trkpt><trkpt lat="44.3784867" lon="10.823715"><ele>733.0</ele><time>2026-04-26T07:59:09.468Z</time></trkpt><trkpt lat="44.3783433" lon="10.8238583"><ele>733.0</ele><time>2026-04-26T07:59:10.468Z</time></trkpt><trkpt lat="44.3781967" lon="10.8240033"><ele>733.0</ele><time>2026-04-26T07:59:11.468Z</time></trkpt><trkpt lat="44.37805" lon="10.8241517"><ele>733.0</ele><time>2026-04-26T07:59:12.468Z</time></trkpt><trkpt lat="44.3779033" lon="10.8243033"><ele>731.0</ele><time>2026-04-26T07:59:13.468Z</time></trkpt><trkpt lat="44.3777583" lon="10.8244517"><ele>729.0</ele><time>2026-04-26T07:59:14.468Z</time></trkpt><trkpt lat="44.3776083" lon="10.8246033"><ele>727.0</ele><time>2026-04-26T07:59:15.468Z</time></trkpt><trkpt lat="44.3774667" lon="10.824755"><ele>727.0</ele><time>2026-04-26T07:59:16.468Z</time></trkpt><trkpt lat="44.3773283" lon="10.82491"><ele>727.0</ele><time>2026-04-26T07:59:17.468Z</time></trkpt><trkpt lat="44.3771983" lon="10.825075"><ele>727.0</ele><time>2026-04-26T07:59:18.468Z</time></trkpt><trkpt lat="44.3770767" lon="10.8252417"><ele>727.0</ele><time>2026-04-26T07:59:19.468Z</time></trkpt><trkpt lat="44.3769533" lon="10.82541"><ele>727.0</ele><time>2026-04-26T07:59:20.468Z</time></trkpt><trkpt lat="44.3768317" lon="10.8255783"><ele>727.0</ele><time>2026-04-26T07:59:21.468Z</time></trkpt><trkpt lat="44.37671" lon="10.825735"><ele>727.0</ele><time>2026-04-26T07:59:22.468Z</time></trkpt><trkpt lat="44.3765917" lon="10.8258917"><ele>727.0</ele><time>2026-04-26T07:59:23.468Z</time></trkpt><trkpt lat="44.376475" lon="10.8260567"><ele>727.0</ele><time>2026-04-26T07:59:24.468Z</time></trkpt><trkpt lat="44.3763633" lon="10.82622"><ele>726.5</ele><time>2026-04-26T07:59:25.468Z</time></trkpt><trkpt lat="44.3762667" lon="10.8263683"><ele>726.0</ele><time>2026-04-26T07:59:26.468Z</time></trkpt><trkpt lat="44.3761517" lon="10.8265067"><ele>725.5</ele><time>2026-04-26T07:59:27.468Z</time></trkpt><trkpt lat="44.37605" lon="10.82666"><ele>725.0</ele><time>2026-04-26T07:59:28.468Z</time></trkpt><trkpt lat="44.37595" lon="10.8268167"><ele>723.0</ele><time>2026-04-26T07:59:29.468Z</time></trkpt><trkpt lat="44.3758567" lon="10.8269833"><ele>721.0</ele><time>2026-04-26T07:59:30.468Z</time></trkpt><trkpt lat="44.375765" lon="10.8271517"><ele>719.0</ele><time>2026-04-26T07:59:31.468Z</time></trkpt><trkpt lat="44.3756883" lon="10.82733"><ele>719.0</ele><time>2026-04-26T07:59:32.468Z</time></trkpt><trkpt lat="44.3756117" lon="10.8275067"><ele>719.0</ele><time>2026-04-26T07:59:33.468Z</time></trkpt><trkpt lat="44.3755433" lon="10.827685"><ele>719.0</ele><time>2026-04-26T07:59:34.468Z</time></trkpt><trkpt lat="44.3754733" lon="10.827855"><ele>719.0</ele><time>2026-04-26T07:59:35.468Z</time></trkpt><trkpt lat="44.3754067" lon="10.828025"><ele>718.5</ele><time>2026-04-26T07:59:36.468Z</time></trkpt><trkpt lat="44.3753483" lon="10.8281883"><ele>718.0</ele><time>2026-04-26T07:59:37.468Z</time></trkpt><trkpt lat="44.3752833" lon="10.8283433"><ele>717.5</ele><time>2026-04-26T07:59:38.468Z</time></trkpt><trkpt lat="44.37522" lon="10.8284733"><ele>717.0</ele><time>2026-04-26T07:59:39.468Z</time></trkpt><trkpt lat="44.37515" lon="10.8285683"><ele>717.0</ele><time>2026-04-26T07:59:40.469Z</time></trkpt><trkpt lat="44.3750717" lon="10.828615"><ele>717.0</ele><time>2026-04-26T07:59:41.469Z</time></trkpt><trkpt lat="44.37499" lon="10.8286233"><ele>717.0</ele><time>2026-04-26T07:59:42.468Z</time></trkpt><trkpt lat="44.37491" lon="10.8285933"><ele>717.0</ele><time>2026-04-26T07:59:43.469Z</time></trkpt><trkpt lat="44.3748417" lon="10.8285233"><ele>717.0</ele><time>2026-04-26T07:59:44.468Z</time></trkpt><trkpt lat="44.374765" lon="10.828435"><ele>717.0</ele><time>2026-04-26T07:59:45.468Z</time></trkpt><trkpt lat="44.374675" lon="10.82834"><ele>716.0</ele><time>2026-04-26T07:59:46.468Z</time></trkpt><trkpt lat="44.37457" lon="10.8282667"><ele>715.0</ele><time>2026-04-26T07:59:47.468Z</time></trkpt><trkpt lat="44.374455" lon="10.8281883"><ele>714.0</ele><time>2026-04-26T07:59:48.468Z</time></trkpt><trkpt lat="44.3743267" lon="10.82812"><ele>713.0</ele><time>2026-04-26T07:59:49.468Z</time></trkpt><trkpt lat="44.37419" lon="10.8280583"><ele>713.0</ele><time>2026-04-26T07:59:50.468Z</time></trkpt><trkpt lat="44.3740433" lon="10.827985"><ele>713.0</ele><time>2026-04-26T07:59:51.468Z</time></trkpt><trkpt lat="44.3738933" lon="10.827915"><ele>713.0</ele><time>2026-04-26T07:59:52.468Z</time></trkpt><trkpt lat="44.3737367" lon="10.82785"><ele>711.0</ele><time>2026-04-26T07:59:53.468Z</time></trkpt><trkpt lat="44.3735833" lon="10.8277867"><ele>709.0</ele><time>2026-04-26T07:59:54.468Z</time></trkpt><trkpt lat="44.37343" lon="10.8277217"><ele>707.0</ele><time>2026-04-26T07:59:55.468Z</time></trkpt><trkpt lat="44.3732817" lon="10.8276617"><ele>708.3333333333333</ele><time>2026-04-26T07:59:56.468Z</time></trkpt><trkpt lat="44.3731317" lon="10.8276133"><ele>709.6666666666666</ele><time>2026-04-26T07:59:57.468Z</time></trkpt><trkpt lat="44.3729867" lon="10.8275617"><ele>711.0</ele><time>2026-04-26T07:59:58.468Z</time></trkpt><trkpt lat="44.37284" lon="10.82751"><ele>711.0</ele><time>2026-04-26T07:59:59.469Z</time></trkpt><trkpt lat="44.3726967" lon="10.8274533"><ele>711.0</ele><time>2026-04-26T08:00:00.468Z</time></trkpt><trkpt lat="44.3725567" lon="10.8273983"><ele>711.0</ele><time>2026-04-26T08:00:01.468Z</time></trkpt><trkpt lat="44.3724283" lon="10.8273383"><ele>711.0</ele><time>2026-04-26T08:00:02.468Z</time></trkpt><trkpt lat="44.37233" lon="10.8272333"><ele>711.0</ele><time>2026-04-26T08:00:03.468Z</time></trkpt><trkpt lat="44.37226" lon="10.82707"><ele>711.0</ele><time>2026-04-26T08:00:04.468Z</time></trkpt><trkpt lat="44.372225" lon="10.8268867"><ele>711.0</ele><time>2026-04-26T08:00:05.468Z</time></trkpt><trkpt lat="44.3722317" lon="10.82668"><ele>711.0</ele><time>2026-04-26T08:00:06.468Z</time></trkpt><trkpt lat="44.3722617" lon="10.8264883"><ele>712.5</ele><time>2026-04-26T08:00:07.468Z</time></trkpt><trkpt lat="44.37231" lon="10.8262883"><ele>714.0</ele><time>2026-04-26T08:00:08.468Z</time></trkpt><trkpt lat="44.372355" lon="10.8260983"><ele>715.5</ele><time>2026-04-26T08:00:09.468Z</time></trkpt><trkpt lat="44.3723933" lon="10.8259183"><ele>717.0</ele><time>2026-04-26T08:00:10.468Z</time></trkpt><trkpt lat="44.3724317" lon="10.8257433"><ele>718.25</ele><time>2026-04-26T08:00:11.468Z</time></trkpt><trkpt lat="44.3724683" lon="10.8255683"><ele>719.5</ele><time>2026-04-26T08:00:12.468Z</time></trkpt><trkpt lat="44.3725017" lon="10.8253867"><ele>720.75</ele><time>2026-04-26T08:00:13.468Z</time></trkpt><trkpt lat="44.37253" lon="10.8251933"><ele>722.0</ele><time>2026-04-26T08:00:14.468Z</time></trkpt><trkpt lat="44.3725533" lon="10.8249967"><ele>722.75</ele><time>2026-04-26T08:00:15.468Z</time></trkpt><trkpt lat="44.3725717" lon="10.8247933"><ele>723.5</ele><time>2026-04-26T08:00:16.468Z</time></trkpt><trkpt lat="44.3725767" lon="10.824605"><ele>724.25</ele><time>2026-04-26T08:00:17.468Z</time></trkpt><trkpt lat="44.3725617" lon="10.824405"><ele>725.0</ele><time>2026-04-26T08:00:18.468Z</time></trkpt><trkpt lat="44.3725217" lon="10.824225"><ele>725.25</ele><time>2026-04-26T08:00:19.468Z</time></trkpt><trkpt lat="44.3724433" lon="10.8240617"><ele>725.5</ele><time>2026-04-26T08:00:20.468Z</time></trkpt><trkpt lat="44.3723467" lon="10.8239"><ele>725.75</ele><time>2026-04-26T08:00:21.468Z</time></trkpt><trkpt lat="44.3722483" lon="10.8237267"><ele>726.0</ele><time>2026-04-26T08:00:22.468Z</time></trkpt><trkpt lat="44.37215" lon="10.8235517"><ele>727.0</ele><time>2026-04-26T08:00:23.468Z</time></trkpt><trkpt lat="44.3720517" lon="10.82338"><ele>728.0</ele><time>2026-04-26T08:00:24.469Z</time></trkpt><trkpt lat="44.3719433" lon="10.8232017"><ele>729.0</ele><time>2026-04-26T08:00:25.468Z</time></trkpt><trkpt lat="44.37184" lon="10.8230317"><ele>729.0</ele><time>2026-04-26T08:00:26.468Z</time></trkpt><trkpt lat="44.3717367" lon="10.822875"><ele>729.0</ele><time>2026-04-26T08:00:27.468Z</time></trkpt><trkpt lat="44.3716233" lon="10.82272"><ele>729.0</ele><time>2026-04-26T08:00:28.469Z</time></trkpt><trkpt lat="44.3715083" lon="10.8225883"><ele>728.6666666666666</ele><time>2026-04-26T08:00:29.468Z</time></trkpt><trkpt lat="44.3713967" lon="10.822455"><ele>728.3333333333333</ele><time>2026-04-26T08:00:30.468Z</time></trkpt><trkpt lat="44.3712817" lon="10.8223217"><ele>728.0</ele><time>2026-04-26T08:00:31.468Z</time></trkpt><trkpt lat="44.3711583" lon="10.8221783"><ele>728.3333333333333</ele><time>2026-04-26T08:00:32.468Z</time></trkpt><trkpt lat="44.371035" lon="10.82204"><ele>728.6666666666666</ele><time>2026-04-26T08:00:33.468Z</time></trkpt><trkpt lat="44.3709017" lon="10.821905"><ele>729.0</ele><time>2026-04-26T08:00:34.468Z</time></trkpt><trkpt lat="44.3707583" lon="10.82178"><ele>729.0</ele><time>2026-04-26T08:00:35.468Z</time></trkpt><trkpt lat="44.370615" lon="10.821655"><ele>729.0</ele><time>2026-04-26T08:00:36.468Z</time></trkpt><trkpt lat="44.3704717" lon="10.8215417"><ele>729.0</ele><time>2026-04-26T08:00:37.468Z</time></trkpt><trkpt lat="44.3703283" lon="10.821425"><ele>729.3333333333334</ele><time>2026-04-26T08:00:38.468Z</time></trkpt><trkpt lat="44.3701783" lon="10.82132"><ele>729.6666666666667</ele><time>2026-04-26T08:00:39.468Z</time></trkpt><trkpt lat="44.3700317" lon="10.821225"><ele>730.0</ele><time>2026-04-26T08:00:40.468Z</time></trkpt><trkpt lat="44.369895" lon="10.8211383"><ele>730.0</ele><time>2026-04-26T08:00:41.468Z</time></trkpt><trkpt lat="44.3697533" lon="10.8210667"><ele>730.0</ele><time>2026-04-26T08:00:42.468Z</time></trkpt><trkpt lat="44.369615" lon="10.8209933"><ele>730.0</ele><time>2026-04-26T08:00:43.468Z</time></trkpt><trkpt lat="44.3694783" lon="10.8209267"><ele>730.0</ele><time>2026-04-26T08:00:44.468Z</time></trkpt><trkpt lat="44.36934" lon="10.8208567"><ele>731.25</ele><time>2026-04-26T08:00:45.468Z</time></trkpt><trkpt lat="44.3692017" lon="10.8207983"><ele>732.5</ele><time>2026-04-26T08:00:46.468Z</time></trkpt><trkpt lat="44.36906" lon="10.8207283"><ele>733.75</ele><time>2026-04-26T08:00:47.468Z</time></trkpt><trkpt lat="44.3689217" lon="10.8206533"><ele>735.0</ele><time>2026-04-26T08:00:48.468Z</time></trkpt><trkpt lat="44.368785" lon="10.8205567"><ele>735.0</ele><time>2026-04-26T08:00:49.468Z</time></trkpt><trkpt lat="44.368655" lon="10.8204517"><ele>735.0</ele><time>2026-04-26T08:00:50.468Z</time></trkpt><trkpt lat="44.3685267" lon="10.8203367"><ele>735.0</ele><time>2026-04-26T08:00:51.468Z</time></trkpt><trkpt lat="44.3684067" lon="10.820205"><ele>735.5</ele><time>2026-04-26T08:00:52.468Z</time></trkpt><trkpt lat="44.368285" lon="10.8200867"><ele>736.0</ele><time>2026-04-26T08:00:53.468Z</time></trkpt><trkpt lat="44.3681633" lon="10.81997"><ele>736.5</ele><time>2026-04-26T08:00:54.468Z</time></trkpt><trkpt lat="44.36805" lon="10.8198533"><ele>737.0</ele><time>2026-04-26T08:00:55.468Z</time></trkpt><trkpt lat="44.3679333" lon="10.81973"><ele>737.0</ele><time>2026-04-26T08:00:56.468Z</time></trkpt><trkpt lat="44.36782" lon="10.8196067"><ele>737.0</ele><time>2026-04-26T08:00:57.468Z</time></trkpt><trkpt lat="44.3676933" lon="10.8194983"><ele>737.0</ele><time>2026-04-26T08:00:58.468Z</time></trkpt><trkpt lat="44.36756" lon="10.8194167"><ele>737.0</ele><time>2026-04-26T08:00:59.468Z</time></trkpt><trkpt lat="44.3674217" lon="10.8193517"><ele>738.75</ele><time>2026-04-26T08:01:00.468Z</time></trkpt><trkpt lat="44.3672917" lon="10.8192967"><ele>740.5</ele><time>2026-04-26T08:01:01.468Z</time></trkpt><trkpt lat="44.36716" lon="10.8192917"><ele>742.25</ele><time>2026-04-26T08:01:02.468Z</time></trkpt><trkpt lat="44.367025" lon="10.8193117"><ele>744.0</ele><time>2026-04-26T08:01:03.468Z</time></trkpt><trkpt lat="44.366885" lon="10.819355"><ele>745.0</ele><time>2026-04-26T08:01:04.468Z</time></trkpt><trkpt lat="44.3667467" lon="10.81942"><ele>746.0</ele><time>2026-04-26T08:01:05.468Z</time></trkpt><trkpt lat="44.3666283" lon="10.8195033"><ele>747.0</ele><time>2026-04-26T08:01:06.468Z</time></trkpt><trkpt lat="44.3665267" lon="10.8196083"><ele>748.0</ele><time>2026-04-26T08:01:07.468Z</time></trkpt><trkpt lat="44.3664467" lon="10.819745"><ele>748.0</ele><time>2026-04-26T08:01:08.468Z</time></trkpt><trkpt lat="44.36637" lon="10.8198783"><ele>748.0</ele><time>2026-04-26T08:01:09.468Z</time></trkpt><trkpt lat="44.366305" lon="10.8199867"><ele>748.0</ele><time>2026-04-26T08:01:10.468Z</time></trkpt><trkpt lat="44.3662383" lon="10.8200783"><ele>748.0</ele><time>2026-04-26T08:01:11.468Z</time></trkpt><trkpt lat="44.3661467" lon="10.820135"><ele>748.0</ele><time>2026-04-26T08:01:12.468Z</time></trkpt><trkpt lat="44.3660417" lon="10.8201567"><ele>750.0</ele><time>2026-04-26T08:01:13.468Z</time></trkpt><trkpt lat="44.3659283" lon="10.82014"><ele>752.0</ele><time>2026-04-26T08:01:14.468Z</time></trkpt><trkpt lat="44.365815" lon="10.8200833"><ele>754.0</ele><time>2026-04-26T08:01:15.468Z</time></trkpt><trkpt lat="44.3656933" lon="10.8199617"><ele>756.0</ele><time>2026-04-26T08:01:16.468Z</time></trkpt><trkpt lat="44.36556" lon="10.819815"><ele>752.3333333333334</ele><time>2026-04-26T08:01:17.468Z</time></trkpt><trkpt lat="44.36543" lon="10.819655"><ele>748.6666666666667</ele><time>2026-04-26T08:01:18.468Z</time></trkpt><trkpt lat="44.3653233" lon="10.8194867"><ele>745.0</ele><time>2026-04-26T08:01:19.468Z</time></trkpt><trkpt lat="44.3652267" lon="10.8193483"><ele>746.25</ele><time>2026-04-26T08:01:20.468Z</time></trkpt><trkpt lat="44.3651233" lon="10.8192333"><ele>747.5</ele><time>2026-04-26T08:01:21.469Z</time></trkpt><trkpt lat="44.3650083" lon="10.81912"><ele>748.75</ele><time>2026-04-26T08:01:22.468Z</time></trkpt><trkpt lat="44.3648833" lon="10.8190183"><ele>750.0</ele><time>2026-04-26T08:01:23.468Z</time></trkpt><trkpt lat="44.3647583" lon="10.818905"><ele>748.0</ele><time>2026-04-26T08:01:24.468Z</time></trkpt><trkpt lat="44.364625" lon="10.8188117"><ele>746.0</ele><time>2026-04-26T08:01:25.468Z</time></trkpt><trkpt lat="44.3644867" lon="10.818725"><ele>744.0</ele><time>2026-04-26T08:01:26.468Z</time></trkpt><trkpt lat="44.3643433" lon="10.818665"><ele>744.0</ele><time>2026-04-26T08:01:27.468Z</time></trkpt><trkpt lat="44.3641933" lon="10.8186133"><ele>744.0</ele><time>2026-04-26T08:01:28.468Z</time></trkpt><trkpt lat="44.3640333" lon="10.8185583"><ele>744.0</ele><time>2026-04-26T08:01:29.469Z</time></trkpt><trkpt lat="44.3638667" lon="10.8185117"><ele>743.3333333333334</ele><time>2026-04-26T08:01:30.468Z</time></trkpt><trkpt lat="44.3637083" lon="10.81847"><ele>742.6666666666667</ele><time>2026-04-26T08:01:31.467Z</time></trkpt><trkpt lat="44.363545" lon="10.818425"><ele>742.0</ele><time>2026-04-26T08:01:32.467Z</time></trkpt><trkpt lat="44.36339" lon="10.8183783"><ele>742.0</ele><time>2026-04-26T08:01:33.467Z</time></trkpt><trkpt lat="44.3632267" lon="10.818325"><ele>742.0</ele><time>2026-04-26T08:01:34.467Z</time></trkpt><trkpt lat="44.3630733" lon="10.818275"><ele>742.0</ele><time>2026-04-26T08:01:35.467Z</time></trkpt><trkpt lat="44.3629133" lon="10.81822"><ele>741.6666666666667</ele><time>2026-04-26T08:01:36.467Z</time></trkpt><trkpt lat="44.3627583" lon="10.8181617"><ele>741.3333333333334</ele><time>2026-04-26T08:01:37.467Z</time></trkpt><trkpt lat="44.36261" lon="10.8180933"><ele>741.0</ele><time>2026-04-26T08:01:38.467Z</time></trkpt><trkpt lat="44.3624667" lon="10.818035"><ele>741.0</ele><time>2026-04-26T08:01:39.467Z</time></trkpt><trkpt lat="44.36232" lon="10.8179717"><ele>741.0</ele><time>2026-04-26T08:01:40.467Z</time></trkpt><trkpt lat="44.3621717" lon="10.8179183"><ele>741.0</ele><time>2026-04-26T08:01:41.467Z</time></trkpt><trkpt lat="44.3620283" lon="10.8178667"><ele>740.75</ele><time>2026-04-26T08:01:42.467Z</time></trkpt><trkpt lat="44.3618967" lon="10.8178167"><ele>740.5</ele><time>2026-04-26T08:01:43.467Z</time></trkpt><trkpt lat="44.36178" lon="10.81776"><ele>740.25</ele><time>2026-04-26T08:01:44.467Z</time></trkpt><trkpt lat="44.36167" lon="10.8176933"><ele>740.0</ele><time>2026-04-26T08:01:45.467Z</time></trkpt><trkpt lat="44.3615617" lon="10.81765"><ele>740.5</ele><time>2026-04-26T08:01:46.467Z</time></trkpt><trkpt lat="44.3614383" lon="10.81763"><ele>741.0</ele><time>2026-04-26T08:01:47.468Z</time></trkpt><trkpt lat="44.361315" lon="10.817615"><ele>741.5</ele><time>2026-04-26T08:01:48.467Z</time></trkpt><trkpt lat="44.3611783" lon="10.8176133"><ele>742.0</ele><time>2026-04-26T08:01:49.467Z</time></trkpt><trkpt lat="44.3610417" lon="10.8176267"><ele>740.5</ele><time>2026-04-26T08:01:50.467Z</time></trkpt><trkpt lat="44.3609083" lon="10.8176583"><ele>739.0</ele><time>2026-04-26T08:01:51.467Z</time></trkpt><trkpt lat="44.3607717" lon="10.8177"><ele>737.5</ele><time>2026-04-26T08:01:52.467Z</time></trkpt><trkpt lat="44.3606233" lon="10.81772"><ele>736.0</ele><time>2026-04-26T08:01:53.467Z</time></trkpt><trkpt lat="44.3604717" lon="10.81775"><ele>733.75</ele><time>2026-04-26T08:01:54.467Z</time></trkpt><trkpt lat="44.3603183" lon="10.8177717"><ele>731.5</ele><time>2026-04-26T08:01:55.467Z</time></trkpt><trkpt lat="44.36018" lon="10.8177733"><ele>729.25</ele><time>2026-04-26T08:01:56.467Z</time></trkpt><trkpt lat="44.3600567" lon="10.8177433"><ele>727.0</ele><time>2026-04-26T08:01:57.467Z</time></trkpt><trkpt lat="44.3599417" lon="10.817675"><ele>727.0</ele><time>2026-04-26T08:01:58.467Z</time></trkpt><trkpt lat="44.3598333" lon="10.8175717"><ele>727.0</ele><time>2026-04-26T08:01:59.467Z</time></trkpt><trkpt lat="44.35974" lon="10.817435"><ele>727.0</ele><time>2026-04-26T08:02:00.467Z</time></trkpt><trkpt lat="44.3596667" lon="10.8172717"><ele>727.0</ele><time>2026-04-26T08:02:01.467Z</time></trkpt><trkpt lat="44.3596017" lon="10.8170983"><ele>725.0</ele><time>2026-04-26T08:02:02.467Z</time></trkpt><trkpt lat="44.3595367" lon="10.8169333"><ele>723.0</ele><time>2026-04-26T08:02:03.467Z</time></trkpt><trkpt lat="44.359465" lon="10.81679"><ele>721.0</ele><time>2026-04-26T08:02:04.467Z</time></trkpt><trkpt lat="44.3593867" lon="10.8166617"><ele>719.0</ele><time>2026-04-26T08:02:05.467Z</time></trkpt><trkpt lat="44.35929" lon="10.81656"><ele>718.75</ele><time>2026-04-26T08:02:06.467Z</time></trkpt><trkpt lat="44.3591783" lon="10.81648"><ele>718.5</ele><time>2026-04-26T08:02:07.468Z</time></trkpt><trkpt lat="44.359055" lon="10.8164067"><ele>718.25</ele><time>2026-04-26T08:02:08.468Z</time></trkpt><trkpt lat="44.358925" lon="10.816335"><ele>718.0</ele><time>2026-04-26T08:02:09.467Z</time></trkpt><trkpt lat="44.3587933" lon="10.8162533"><ele>715.25</ele><time>2026-04-26T08:02:10.468Z</time></trkpt><trkpt lat="44.3586633" lon="10.81617"><ele>712.5</ele><time>2026-04-26T08:02:11.467Z</time></trkpt><trkpt lat="44.3585367" lon="10.81609"><ele>709.75</ele><time>2026-04-26T08:02:12.468Z</time></trkpt><trkpt lat="44.3584133" lon="10.8160083"><ele>707.0</ele><time>2026-04-26T08:02:13.467Z</time></trkpt><trkpt lat="44.3582933" lon="10.81594"><ele>705.5</ele><time>2026-04-26T08:02:14.467Z</time></trkpt><trkpt lat="44.358175" lon="10.8158783"><ele>704.0</ele><time>2026-04-26T08:02:15.467Z</time></trkpt><trkpt lat="44.3580633" lon="10.8158183"><ele>702.5</ele><time>2026-04-26T08:02:16.467Z</time></trkpt><trkpt lat="44.3579433" lon="10.8158067"><ele>701.0</ele><time>2026-04-26T08:02:17.467Z</time></trkpt><trkpt lat="44.3578217" lon="10.815845"><ele>699.0</ele><time>2026-04-26T08:02:18.467Z</time></trkpt><trkpt lat="44.3576967" lon="10.8159117"><ele>697.0</ele><time>2026-04-26T08:02:19.467Z</time></trkpt><trkpt lat="44.3575633" lon="10.816"><ele>695.0</ele><time>2026-04-26T08:02:20.467Z</time></trkpt><trkpt lat="44.357425" lon="10.816085"><ele>693.0</ele><time>2026-04-26T08:02:21.467Z</time></trkpt><trkpt lat="44.35728" lon="10.8161717"><ele>688.3333333333334</ele><time>2026-04-26T08:02:22.467Z</time></trkpt><trkpt lat="44.3571317" lon="10.8162617"><ele>683.6666666666667</ele><time>2026-04-26T08:02:23.467Z</time></trkpt><trkpt lat="44.3569817" lon="10.816345"><ele>679.0</ele><time>2026-04-26T08:02:24.467Z</time></trkpt><trkpt lat="44.3568317" lon="10.8164283"><ele>679.0</ele><time>2026-04-26T08:02:25.467Z</time></trkpt><trkpt lat="44.356685" lon="10.816515"><ele>679.0</ele><time>2026-04-26T08:02:26.467Z</time></trkpt><trkpt lat="44.3565467" lon="10.8165917"><ele>679.0</ele><time>2026-04-26T08:02:27.467Z</time></trkpt><trkpt lat="44.3564183" lon="10.8166617"><ele>679.0</ele><time>2026-04-26T08:02:28.467Z</time></trkpt><trkpt lat="44.35631" lon="10.8167217"><ele>676.8333333333334</ele><time>2026-04-26T08:02:29.467Z</time></trkpt><trkpt lat="44.35622" lon="10.816755"><ele>674.6666666666667</ele><time>2026-04-26T08:02:30.467Z</time></trkpt><trkpt lat="44.3561383" lon="10.8167667"><ele>672.5</ele><time>2026-04-26T08:02:31.467Z</time></trkpt><trkpt lat="44.3560583" lon="10.8167367"><ele>670.3333333333334</ele><time>2026-04-26T08:02:32.468Z</time></trkpt><trkpt lat="44.355995" lon="10.8166583"><ele>668.1666666666666</ele><time>2026-04-26T08:02:33.467Z</time></trkpt><trkpt lat="44.3559517" lon="10.8165267"><ele>666.0</ele><time>2026-04-26T08:02:34.467Z</time></trkpt><trkpt lat="44.3559267" lon="10.81635"><ele>666.0</ele><time>2026-04-26T08:02:35.467Z</time></trkpt><trkpt lat="44.3559217" lon="10.81615"><ele>666.0</ele><time>2026-04-26T08:02:36.467Z</time></trkpt><trkpt lat="44.355915" lon="10.8159383"><ele>666.0</ele><time>2026-04-26T08:02:37.467Z</time></trkpt><trkpt lat="44.3559" lon="10.8157233"><ele>666.0</ele><time>2026-04-26T08:02:38.467Z</time></trkpt><trkpt lat="44.3558817" lon="10.8155117"><ele>663.75</ele><time>2026-04-26T08:02:39.467Z</time></trkpt><trkpt lat="44.355865" lon="10.815305"><ele>661.5</ele><time>2026-04-26T08:02:40.467Z</time></trkpt><trkpt lat="44.3558517" lon="10.81511"><ele>659.25</ele><time>2026-04-26T08:02:41.467Z</time></trkpt><trkpt lat="44.3558383" lon="10.8149317"><ele>657.0</ele><time>2026-04-26T08:02:42.467Z</time></trkpt><trkpt lat="44.3558217" lon="10.8147683"><ele>655.8</ele><time>2026-04-26T08:02:43.467Z</time></trkpt><trkpt lat="44.3557967" lon="10.81463"><ele>654.6</ele><time>2026-04-26T08:02:44.467Z</time></trkpt><trkpt lat="44.3557633" lon="10.8145083"><ele>653.4</ele><time>2026-04-26T08:02:45.467Z</time></trkpt><trkpt lat="44.35571" lon="10.8144133"><ele>652.1999999999999</ele><time>2026-04-26T08:02:46.467Z</time></trkpt><trkpt lat="44.3556283" lon="10.8143567"><ele>651.0</ele><time>2026-04-26T08:02:47.467Z</time></trkpt><trkpt lat="44.3555233" lon="10.814315"><ele>646.75</ele><time>2026-04-26T08:02:48.467Z</time></trkpt><trkpt lat="44.3554" lon="10.8142733"><ele>642.5</ele><time>2026-04-26T08:02:49.467Z</time></trkpt><trkpt lat="44.3552633" lon="10.8142183"><ele>638.25</ele><time>2026-04-26T08:02:50.467Z</time></trkpt><trkpt lat="44.3551267" lon="10.8141417"><ele>634.0</ele><time>2026-04-26T08:02:51.467Z</time></trkpt><trkpt lat="44.3549967" lon="10.8140583"><ele>634.0</ele><time>2026-04-26T08:02:52.467Z</time></trkpt><trkpt lat="44.35487" lon="10.81397"><ele>634.0</ele><time>2026-04-26T08:02:53.467Z</time></trkpt><trkpt lat="44.3547483" lon="10.8138817"><ele>634.0</ele><time>2026-04-26T08:02:54.467Z</time></trkpt><trkpt lat="44.3546283" lon="10.81379"><ele>634.0</ele><time>2026-04-26T08:02:55.467Z</time></trkpt><trkpt lat="44.3545133" lon="10.8137017"><ele>632.25</ele><time>2026-04-26T08:02:56.467Z</time></trkpt><trkpt lat="44.354385" lon="10.8136267"><ele>630.5</ele><time>2026-04-26T08:02:57.467Z</time></trkpt><trkpt lat="44.3542567" lon="10.813565"><ele>628.75</ele><time>2026-04-26T08:02:58.467Z</time></trkpt><trkpt lat="44.3541117" lon="10.8135133"><ele>627.0</ele><time>2026-04-26T08:02:59.467Z</time></trkpt><trkpt lat="44.3539717" lon="10.81346"><ele>623.0</ele><time>2026-04-26T08:03:00.467Z</time></trkpt><trkpt lat="44.3538317" lon="10.8134"><ele>619.0</ele><time>2026-04-26T08:03:01.467Z</time></trkpt><trkpt lat="44.3536983" lon="10.8133333"><ele>615.0</ele><time>2026-04-26T08:03:02.467Z</time></trkpt><trkpt lat="44.35357" lon="10.8132683"><ele>611.0</ele><time>2026-04-26T08:03:03.467Z</time></trkpt><trkpt lat="44.3534517" lon="10.8131683"><ele>611.0</ele><time>2026-04-26T08:03:04.467Z</time></trkpt><trkpt lat="44.3533517" lon="10.81303"><ele>611.0</ele><time>2026-04-26T08:03:05.467Z</time></trkpt><trkpt lat="44.353265" lon="10.8128767"><ele>611.0</ele><time>2026-04-26T08:03:06.467Z</time></trkpt><trkpt lat="44.3531867" lon="10.812715"><ele>611.0</ele><time>2026-04-26T08:03:07.467Z</time></trkpt><trkpt lat="44.3531117" lon="10.8125567"><ele>607.75</ele><time>2026-04-26T08:03:08.467Z</time></trkpt><trkpt lat="44.3530383" lon="10.812405"><ele>604.5</ele><time>2026-04-26T08:03:09.467Z</time></trkpt><trkpt lat="44.3529717" lon="10.8122483"><ele>601.25</ele><time>2026-04-26T08:03:10.467Z</time></trkpt><trkpt lat="44.352905" lon="10.8121033"><ele>598.0</ele><time>2026-04-26T08:03:11.468Z</time></trkpt><trkpt lat="44.352845" lon="10.8119683"><ele>598.0</ele><time>2026-04-26T08:03:12.468Z</time></trkpt><trkpt lat="44.3527833" lon="10.8118583"><ele>598.0</ele><time>2026-04-26T08:03:13.467Z</time></trkpt><trkpt lat="44.352715" lon="10.81176"><ele>598.0</ele><time>2026-04-26T08:03:14.467Z</time></trkpt><trkpt lat="44.35264" lon="10.8116883"><ele>598.0</ele><time>2026-04-26T08:03:15.467Z</time></trkpt><trkpt lat="44.35255" lon="10.8116533"><ele>598.0</ele><time>2026-04-26T08:03:16.467Z</time></trkpt><trkpt lat="44.3524533" lon="10.8116483"><ele>596.6</ele><time>2026-04-26T08:03:17.467Z</time></trkpt><trkpt lat="44.3523617" lon="10.8116633"><ele>595.1999999999999</ele><time>2026-04-26T08:03:18.467Z</time></trkpt><trkpt lat="44.352255" lon="10.8116933"><ele>593.8</ele><time>2026-04-26T08:03:19.467Z</time></trkpt><trkpt lat="44.3521483" lon="10.811715"><ele>592.4</ele><time>2026-04-26T08:03:20.468Z</time></trkpt><trkpt lat="44.3520383" lon="10.81172"><ele>591.0</ele><time>2026-04-26T08:03:21.468Z</time></trkpt><trkpt lat="44.351925" lon="10.8117067"><ele>590.5</ele><time>2026-04-26T08:03:22.467Z</time></trkpt><trkpt lat="44.351815" lon="10.8116867"><ele>590.0</ele><time>2026-04-26T08:03:23.467Z</time></trkpt><trkpt lat="44.3516933" lon="10.8116683"><ele>589.5</ele><time>2026-04-26T08:03:24.467Z</time></trkpt><trkpt lat="44.3515783" lon="10.8116383"><ele>589.0</ele><time>2026-04-26T08:03:25.467Z</time></trkpt><trkpt lat="44.351465" lon="10.81162"><ele>589.6666666666667</ele><time>2026-04-26T08:03:26.467Z</time></trkpt><trkpt lat="44.35136" lon="10.8116067"><ele>590.3333333333334</ele><time>2026-04-26T08:03:27.467Z</time></trkpt><trkpt lat="44.3512617" lon="10.8115967"><ele>591.0</ele><time>2026-04-26T08:03:28.468Z</time></trkpt><trkpt lat="44.3511717" lon="10.8115967"><ele>591.6666666666666</ele><time>2026-04-26T08:03:29.467Z</time></trkpt><trkpt lat="44.351095" lon="10.811615"><ele>592.3333333333333</ele><time>2026-04-26T08:03:30.467Z</time></trkpt><trkpt lat="44.3510267" lon="10.8116567"><ele>593.0</ele><time>2026-04-26T08:03:31.467Z</time></trkpt><trkpt lat="44.3509633" lon="10.8117133"><ele>596.0</ele><time>2026-04-26T08:03:32.467Z</time></trkpt><trkpt lat="44.3509717" lon="10.8118417"><ele>599.0</ele><time>2026-04-26T08:03:34.467Z</time></trkpt><trkpt lat="44.351065" lon="10.8119683"><ele>602.0</ele><time>2026-04-26T08:03:36.467Z</time></trkpt><trkpt lat="44.351135" lon="10.812015"><ele>605.0</ele><time>2026-04-26T08:03:37.467Z</time></trkpt><trkpt lat="44.3512083" lon="10.8120717"><ele>608.0</ele><time>2026-04-26T08:03:38.467Z</time></trkpt><trkpt lat="44.3512683" lon="10.8121467"><ele>608.0</ele><time>2026-04-26T08:03:39.467Z</time></trkpt><trkpt lat="44.3513283" lon="10.8122517"><ele>608.0</ele><time>2026-04-26T08:03:40.467Z</time></trkpt><trkpt lat="44.3513767" lon="10.81236"><ele>608.0</ele><time>2026-04-26T08:03:41.467Z</time></trkpt><trkpt lat="44.3514117" lon="10.8124633"><ele>608.0</ele><time>2026-04-26T08:03:42.467Z</time></trkpt><trkpt lat="44.3514217" lon="10.8125683"><ele>608.0</ele><time>2026-04-26T08:03:43.467Z</time></trkpt><trkpt lat="44.351415" lon="10.8126633"><ele>608.0</ele><time>2026-04-26T08:03:44.467Z</time></trkpt><trkpt lat="44.3513883" lon="10.81276"><ele>609.5</ele><time>2026-04-26T08:03:45.467Z</time></trkpt><trkpt lat="44.3513433" lon="10.8128467"><ele>611.0</ele><time>2026-04-26T08:03:46.467Z</time></trkpt><trkpt lat="44.35129" lon="10.81292"><ele>612.5</ele><time>2026-04-26T08:03:47.467Z</time></trkpt><trkpt lat="44.3512283" lon="10.8129783"><ele>614.0</ele><time>2026-04-26T08:03:48.467Z</time></trkpt><trkpt lat="44.3511517" lon="10.813005"><ele>615.5</ele><time>2026-04-26T08:03:49.467Z</time></trkpt><trkpt lat="44.35107" lon="10.813035"><ele>617.0</ele><time>2026-04-26T08:03:50.468Z</time></trkpt><trkpt lat="44.3509733" lon="10.813065"><ele>617.0</ele><time>2026-04-26T08:03:51.467Z</time></trkpt><trkpt lat="44.35088" lon="10.8130833"><ele>617.0</ele><time>2026-04-26T08:03:52.468Z</time></trkpt><trkpt lat="44.3507817" lon="10.8130883"><ele>617.0</ele><time>2026-04-26T08:03:53.467Z</time></trkpt><trkpt lat="44.3506817" lon="10.8130783"><ele>617.0</ele><time>2026-04-26T08:03:54.467Z</time></trkpt><trkpt lat="44.350585" lon="10.813095"><ele>617.0</ele><time>2026-04-26T08:03:55.467Z</time></trkpt><trkpt lat="44.350475" lon="10.813115"><ele>620.5</ele><time>2026-04-26T08:03:56.467Z</time></trkpt><trkpt lat="44.3503533" lon="10.8131383"><ele>624.0</ele><time>2026-04-26T08:03:57.467Z</time></trkpt><trkpt lat="44.3502267" lon="10.8131617"><ele>627.5</ele><time>2026-04-26T08:03:58.467Z</time></trkpt><trkpt lat="44.3501083" lon="10.81319"><ele>631.0</ele><time>2026-04-26T08:03:59.467Z</time></trkpt><trkpt lat="44.3500017" lon="10.8132067"><ele>631.0</ele><time>2026-04-26T08:04:00.467Z</time></trkpt><trkpt lat="44.3498867" lon="10.8132233"><ele>631.0</ele><time>2026-04-26T08:04:01.467Z</time></trkpt><trkpt lat="44.34977" lon="10.8132317"><ele>631.0</ele><time>2026-04-26T08:04:02.467Z</time></trkpt><trkpt lat="44.34965" lon="10.8132383"><ele>631.0</ele><time>2026-04-26T08:04:03.467Z</time></trkpt><trkpt lat="44.3495233" lon="10.8132617"><ele>630.75</ele><time>2026-04-26T08:04:04.467Z</time></trkpt><trkpt lat="44.3493983" lon="10.81327"><ele>630.5</ele><time>2026-04-26T08:04:05.467Z</time></trkpt><trkpt lat="44.349275" lon="10.8133"><ele>630.25</ele><time>2026-04-26T08:04:06.467Z</time></trkpt><trkpt lat="44.3491533" lon="10.813355"><ele>630.0</ele><time>2026-04-26T08:04:07.467Z</time></trkpt><trkpt lat="44.3490183" lon="10.813455"><ele>634.6666666666666</ele><time>2026-04-26T08:04:08.468Z</time></trkpt><trkpt lat="44.3488933" lon="10.813615"><ele>639.3333333333333</ele><time>2026-04-26T08:04:09.467Z</time></trkpt><trkpt lat="44.348775" lon="10.8137733"><ele>644.0</ele><time>2026-04-26T08:04:10.467Z</time></trkpt><trkpt lat="44.3486567" lon="10.8139233"><ele>644.0</ele><time>2026-04-26T08:04:11.467Z</time></trkpt><trkpt lat="44.34856" lon="10.8140683"><ele>644.0</ele><time>2026-04-26T08:04:12.467Z</time></trkpt><trkpt lat="44.34848" lon="10.81421"><ele>644.0</ele><time>2026-04-26T08:04:13.467Z</time></trkpt><trkpt lat="44.3484017" lon="10.8143283"><ele>644.0</ele><time>2026-04-26T08:04:14.468Z</time></trkpt><trkpt lat="44.34834" lon="10.8144317"><ele>644.6666666666666</ele><time>2026-04-26T08:04:15.467Z</time></trkpt><trkpt lat="44.3482867" lon="10.81452"><ele>645.3333333333333</ele><time>2026-04-26T08:04:16.467Z</time></trkpt><trkpt lat="44.3482433" lon="10.814585"><ele>646.0</ele><time>2026-04-26T08:04:17.467Z</time></trkpt><trkpt lat="44.3481883" lon="10.8146683"><ele>646.6666666666666</ele><time>2026-04-26T08:04:19.467Z</time></trkpt><trkpt lat="44.3481883" lon="10.8148033"><ele>647.3333333333334</ele><time>2026-04-26T08:04:22.467Z</time></trkpt><trkpt lat="44.3482517" lon="10.8149167"><ele>648.0</ele><time>2026-04-26T08:04:24.467Z</time></trkpt><trkpt lat="44.3483283" lon="10.815045"><ele>648.0</ele><time>2026-04-26T08:04:26.468Z</time></trkpt><trkpt lat="44.3483517" lon="10.815145"><ele>648.0</ele><time>2026-04-26T08:04:27.467Z</time></trkpt><trkpt lat="44.3483517" lon="10.815255"><ele>648.0</ele><time>2026-04-26T08:04:28.468Z</time></trkpt><trkpt lat="44.3483367" lon="10.8153667"><ele>648.0</ele><time>2026-04-26T08:04:29.467Z</time></trkpt><trkpt lat="44.3483117" lon="10.8154867"><ele>648.0</ele><time>2026-04-26T08:04:30.467Z</time></trkpt><trkpt lat="44.3482833" lon="10.8156167"><ele>648.0</ele><time>2026-04-26T08:04:31.467Z</time></trkpt><trkpt lat="44.3482533" lon="10.8157483"><ele>648.5999999999999</ele><time>2026-04-26T08:04:32.467Z</time></trkpt><trkpt lat="44.3482217" lon="10.8158783"><ele>649.1999999999999</ele><time>2026-04-26T08:04:33.467Z</time></trkpt><trkpt lat="44.3481867" lon="10.8160117"><ele>649.8</ele><time>2026-04-26T08:04:34.467Z</time></trkpt><trkpt lat="44.3481483" lon="10.8161467"><ele>650.4</ele><time>2026-04-26T08:04:35.467Z</time></trkpt><trkpt lat="44.3481133" lon="10.8162833"><ele>651.0</ele><time>2026-04-26T08:04:36.467Z</time></trkpt><trkpt lat="44.3480767" lon="10.8164167"><ele>651.5</ele><time>2026-04-26T08:04:37.467Z</time></trkpt><trkpt lat="44.34805" lon="10.816535"><ele>652.0</ele><time>2026-04-26T08:04:38.468Z</time></trkpt><trkpt lat="44.3480267" lon="10.81663"><ele>652.5</ele><time>2026-04-26T08:04:39.468Z</time></trkpt><trkpt lat="44.3480033" lon="10.8167417"><ele>653.0</ele><time>2026-04-26T08:04:41.467Z</time></trkpt><trkpt lat="44.3480733" lon="10.81684"><ele>653.5</ele><time>2026-04-26T08:04:50.467Z</time></trkpt><trkpt lat="44.3481367" lon="10.8168583"><ele>654.0</ele><time>2026-04-26T08:04:51.467Z</time></trkpt><trkpt lat="44.3481967" lon="10.816895"><ele>654.0</ele><time>2026-04-26T08:04:52.467Z</time></trkpt><trkpt lat="44.3482383" lon="10.8169767"><ele>654.0</ele><time>2026-04-26T08:04:53.467Z</time></trkpt><trkpt lat="44.3481917" lon="10.81714"><ele>654.0</ele><time>2026-04-26T08:04:55.467Z</time></trkpt><trkpt lat="44.348105" lon="10.817205"><ele>654.0</ele><time>2026-04-26T08:04:56.467Z</time></trkpt><trkpt lat="44.348015" lon="10.817275"><ele>654.0</ele><time>2026-04-26T08:04:57.467Z</time></trkpt><trkpt lat="44.3479033" lon="10.8173567"><ele>655.0</ele><time>2026-04-26T08:04:58.467Z</time></trkpt><trkpt lat="44.347785" lon="10.8174533"><ele>656.0</ele><time>2026-04-26T08:04:59.467Z</time></trkpt><trkpt lat="44.3476617" lon="10.8175583"><ele>657.0</ele><time>2026-04-26T08:05:00.467Z</time></trkpt><trkpt lat="44.34754" lon="10.8176783"><ele>658.0</ele><time>2026-04-26T08:05:01.467Z</time></trkpt><trkpt lat="44.3474233" lon="10.817805"><ele>658.0</ele><time>2026-04-26T08:05:02.467Z</time></trkpt><trkpt lat="44.3473017" lon="10.8179333"><ele>658.0</ele><time>2026-04-26T08:05:03.467Z</time></trkpt><trkpt lat="44.3471667" lon="10.8180433"><ele>658.0</ele><time>2026-04-26T08:05:04.467Z</time></trkpt><trkpt lat="44.347025" lon="10.81811"><ele>660.6666666666667</ele><time>2026-04-26T08:05:05.468Z</time></trkpt><trkpt lat="44.3468733" lon="10.81816"><ele>663.3333333333334</ele><time>2026-04-26T08:05:06.467Z</time></trkpt><trkpt lat="44.346715" lon="10.8181933"><ele>666.0</ele><time>2026-04-26T08:05:07.467Z</time></trkpt><trkpt lat="44.3465633" lon="10.81822"><ele>666.0</ele><time>2026-04-26T08:05:08.467Z</time></trkpt><trkpt lat="44.3464217" lon="10.8182733"><ele>666.0</ele><time>2026-04-26T08:05:09.468Z</time></trkpt><trkpt lat="44.3462833" lon="10.8183767"><ele>666.0</ele><time>2026-04-26T08:05:10.467Z</time></trkpt><trkpt lat="44.3461617" lon="10.8184983"><ele>668.75</ele><time>2026-04-26T08:05:11.467Z</time></trkpt><trkpt lat="44.3460433" lon="10.8186233"><ele>671.5</ele><time>2026-04-26T08:05:12.467Z</time></trkpt><trkpt lat="44.345935" lon="10.8187417"><ele>674.25</ele><time>2026-04-26T08:05:13.467Z</time></trkpt><trkpt lat="44.345825" lon="10.8188533"><ele>677.0</ele><time>2026-04-26T08:05:14.467Z</time></trkpt><trkpt lat="44.3457083" lon="10.81895"><ele>677.0</ele><time>2026-04-26T08:05:15.467Z</time></trkpt><trkpt lat="44.3455833" lon="10.8190117"><ele>677.0</ele><time>2026-04-26T08:05:16.467Z</time></trkpt><trkpt lat="44.3454467" lon="10.8190517"><ele>677.0</ele><time>2026-04-26T08:05:17.467Z</time></trkpt><trkpt lat="44.3453117" lon="10.8190567"><ele>677.0</ele><time>2026-04-26T08:05:18.467Z</time></trkpt><trkpt lat="44.3451683" lon="10.8190233"><ele>678.75</ele><time>2026-04-26T08:05:19.467Z</time></trkpt><trkpt lat="44.3450267" lon="10.8189817"><ele>680.5</ele><time>2026-04-26T08:05:20.467Z</time></trkpt><trkpt lat="44.344885" lon="10.81893"><ele>682.25</ele><time>2026-04-26T08:05:21.467Z</time></trkpt><trkpt lat="44.34474" lon="10.8188733"><ele>684.0</ele><time>2026-04-26T08:05:22.467Z</time></trkpt><trkpt lat="44.34459" lon="10.818805"><ele>686.6666666666666</ele><time>2026-04-26T08:05:23.467Z</time></trkpt><trkpt lat="44.3444417" lon="10.8187283"><ele>689.3333333333333</ele><time>2026-04-26T08:05:24.467Z</time></trkpt><trkpt lat="44.3443" lon="10.818635"><ele>692.0</ele><time>2026-04-26T08:05:25.467Z</time></trkpt><trkpt lat="44.3441767" lon="10.81852"><ele>691.5</ele><time>2026-04-26T08:05:26.467Z</time></trkpt><trkpt lat="44.3440633" lon="10.8183817"><ele>691.0</ele><time>2026-04-26T08:05:27.467Z</time></trkpt><trkpt lat="44.3439633" lon="10.81824"><ele>690.5</ele><time>2026-04-26T08:05:28.467Z</time></trkpt><trkpt lat="44.3438717" lon="10.8181167"><ele>690.0</ele><time>2026-04-26T08:05:29.467Z</time></trkpt><trkpt lat="44.34379" lon="10.81801"><ele>690.0</ele><time>2026-04-26T08:05:30.467Z</time></trkpt><trkpt lat="44.34372" lon="10.8179183"><ele>690.0</ele><time>2026-04-26T08:05:31.467Z</time></trkpt><trkpt lat="44.34366" lon="10.81784"><ele>690.0</ele><time>2026-04-26T08:05:32.467Z</time></trkpt><trkpt lat="44.3436117" lon="10.81778"><ele>690.0</ele><time>2026-04-26T08:05:33.467Z</time></trkpt><trkpt lat="44.3435833" lon="10.817635"><ele>690.0</ele><time>2026-04-26T08:05:35.467Z</time></trkpt><trkpt lat="44.3436517" lon="10.8175217"><ele>690.2</ele><time>2026-04-26T08:05:37.466Z</time></trkpt><trkpt lat="44.3437183" lon="10.8174817"><ele>690.4</ele><time>2026-04-26T08:05:38.466Z</time></trkpt><trkpt lat="44.34381" lon="10.8174367"><ele>690.5999999999999</ele><time>2026-04-26T08:05:39.466Z</time></trkpt><trkpt lat="44.3438967" lon="10.8173667"><ele>690.8</ele><time>2026-04-26T08:05:40.466Z</time></trkpt><trkpt lat="44.3439683" lon="10.8172583"><ele>691.0</ele><time>2026-04-26T08:05:41.466Z</time></trkpt><trkpt lat="44.3440367" lon="10.8170783"><ele>691.0</ele><time>2026-04-26T08:05:42.466Z</time></trkpt><trkpt lat="44.3441117" lon="10.8168867"><ele>691.0</ele><time>2026-04-26T08:05:43.467Z</time></trkpt><trkpt lat="44.3441817" lon="10.8166817"><ele>691.0</ele><time>2026-04-26T08:05:44.467Z</time></trkpt><trkpt lat="44.3442367" lon="10.816495"><ele>691.0</ele><time>2026-04-26T08:05:45.466Z</time></trkpt><trkpt lat="44.34428" lon="10.816305"><ele>691.0</ele><time>2026-04-26T08:05:46.466Z</time></trkpt><trkpt lat="44.3442883" lon="10.8161017"><ele>691.0</ele><time>2026-04-26T08:05:47.467Z</time></trkpt><trkpt lat="44.34426" lon="10.8158917"><ele>691.0</ele><time>2026-04-26T08:05:48.466Z</time></trkpt><trkpt lat="44.344215" lon="10.81571"><ele>690.0</ele><time>2026-04-26T08:05:49.466Z</time></trkpt><trkpt lat="44.344155" lon="10.8155533"><ele>689.0</ele><time>2026-04-26T08:05:50.466Z</time></trkpt><trkpt lat="44.3440883" lon="10.815425"><ele>688.0</ele><time>2026-04-26T08:05:51.466Z</time></trkpt><trkpt lat="44.34401" lon="10.8153383"><ele>687.0</ele><time>2026-04-26T08:05:52.466Z</time></trkpt><trkpt lat="44.3439133" lon="10.8152767"><ele>686.0</ele><time>2026-04-26T08:05:53.466Z</time></trkpt><trkpt lat="44.3438117" lon="10.81522"><ele>686.4</ele><time>2026-04-26T08:05:54.466Z</time></trkpt><trkpt lat="44.343715" lon="10.8151717"><ele>686.8</ele><time>2026-04-26T08:05:55.466Z</time></trkpt><trkpt lat="44.3436267" lon="10.815125"><ele>687.1999999999999</ele><time>2026-04-26T08:05:56.466Z</time></trkpt><trkpt lat="44.34354" lon="10.815075"><ele>687.5999999999999</ele><time>2026-04-26T08:05:57.466Z</time></trkpt><trkpt lat="44.34346" lon="10.8150267"><ele>688.0</ele><time>2026-04-26T08:05:58.466Z</time></trkpt><trkpt lat="44.3433783" lon="10.81499"><ele>688.0</ele><time>2026-04-26T08:05:59.466Z</time></trkpt><trkpt lat="44.343295" lon="10.8149533"><ele>688.0</ele><time>2026-04-26T08:06:00.466Z</time></trkpt><trkpt lat="44.3432067" lon="10.8149167"><ele>688.0</ele><time>2026-04-26T08:06:01.466Z</time></trkpt><trkpt lat="44.3431133" lon="10.81488"><ele>688.0</ele><time>2026-04-26T08:06:02.466Z</time></trkpt><trkpt lat="44.34301" lon="10.81484"><ele>688.0</ele><time>2026-04-26T08:06:03.466Z</time></trkpt><trkpt lat="44.3429217" lon="10.8148133"><ele>689.1666666666667</ele><time>2026-04-26T08:06:04.466Z</time></trkpt><trkpt lat="44.342845" lon="10.8147983"><ele>690.3333333333334</ele><time>2026-04-26T08:06:05.466Z</time></trkpt><trkpt lat="44.34277" lon="10.814775"><ele>691.5</ele><time>2026-04-26T08:06:06.466Z</time></trkpt><trkpt lat="44.3426983" lon="10.8147383"><ele>692.6666666666666</ele><time>2026-04-26T08:06:07.466Z</time></trkpt><trkpt lat="44.34263" lon="10.8147133"><ele>693.8333333333333</ele><time>2026-04-26T08:06:08.466Z</time></trkpt><trkpt lat="44.3425633" lon="10.8147017"><ele>695.0</ele><time>2026-04-26T08:06:09.466Z</time></trkpt><trkpt lat="44.342445" lon="10.8147"><ele>695.0</ele><time>2026-04-26T08:06:11.466Z</time></trkpt><trkpt lat="44.34233" lon="10.8147117"><ele>695.0</ele><time>2026-04-26T08:06:13.467Z</time></trkpt><trkpt lat="44.3422133" lon="10.8147017"><ele>695.0</ele><time>2026-04-26T08:06:15.466Z</time></trkpt><trkpt lat="44.342105" lon="10.8147117"><ele>695.0</ele><time>2026-04-26T08:06:17.466Z</time></trkpt><trkpt lat="44.342005" lon="10.8147033"><ele>695.0</ele><time>2026-04-26T08:06:19.466Z</time></trkpt><trkpt lat="44.3419133" lon="10.81472"><ele>696.5</ele><time>2026-04-26T08:06:21.466Z</time></trkpt><trkpt lat="44.3418317" lon="10.814685"><ele>698.0</ele><time>2026-04-26T08:06:23.466Z</time></trkpt><trkpt lat="44.3417517" lon="10.8146417"><ele>699.5</ele><time>2026-04-26T08:06:25.466Z</time></trkpt><trkpt lat="44.3416633" lon="10.81466"><ele>701.0</ele><time>2026-04-26T08:06:28.466Z</time></trkpt><trkpt lat="44.34162" lon="10.81476"><ele>702.5</ele><time>2026-04-26T08:06:30.466Z</time></trkpt><trkpt lat="44.3415867" lon="10.814865"><ele>704.0</ele><time>2026-04-26T08:06:32.466Z</time></trkpt><trkpt lat="44.341555" lon="10.8149717"><ele>704.0</ele><time>2026-04-26T08:06:34.466Z</time></trkpt><trkpt lat="44.3415033" lon="10.8150417"><ele>704.0</ele><time>2026-04-26T08:06:36.466Z</time></trkpt><trkpt lat="44.3414183" lon="10.8150783"><ele>704.0</ele><time>2026-04-26T08:06:38.466Z</time></trkpt><trkpt lat="44.3413533" lon="10.8151"><ele>704.0</ele><time>2026-04-26T08:06:39.466Z</time></trkpt><trkpt lat="44.341285" lon="10.81513"><ele>704.0</ele><time>2026-04-26T08:06:40.466Z</time></trkpt><trkpt lat="44.34121" lon="10.8151917"><ele>704.0</ele><time>2026-04-26T08:06:41.466Z</time></trkpt><trkpt lat="44.3411317" lon="10.815265"><ele>709.2</ele><time>2026-04-26T08:06:42.466Z</time></trkpt><trkpt lat="44.3410533" lon="10.8153483"><ele>714.4000000000001</ele><time>2026-04-26T08:06:43.466Z</time></trkpt><trkpt lat="44.3409683" lon="10.815425"><ele>719.6</ele><time>2026-04-26T08:06:44.466Z</time></trkpt><trkpt lat="44.3408817" lon="10.8154967"><ele>724.8</ele><time>2026-04-26T08:06:45.466Z</time></trkpt><trkpt lat="44.3408" lon="10.8155717"><ele>730.0</ele><time>2026-04-26T08:06:46.466Z</time></trkpt><trkpt lat="44.3407283" lon="10.81563"><ele>730.0</ele><time>2026-04-26T08:06:47.466Z</time></trkpt><trkpt lat="44.3406617" lon="10.81567"><ele>730.0</ele><time>2026-04-26T08:06:48.466Z</time></trkpt><trkpt lat="44.3405867" lon="10.8157033"><ele>730.0</ele><time>2026-04-26T08:06:49.466Z</time></trkpt><trkpt lat="44.3405033" lon="10.8157283"><ele>730.0</ele><time>2026-04-26T08:06:50.467Z</time></trkpt><trkpt lat="44.34042" lon="10.81575"><ele>730.0</ele><time>2026-04-26T08:06:51.466Z</time></trkpt><trkpt lat="44.3403433" lon="10.81577"><ele>730.0</ele><time>2026-04-26T08:06:52.466Z</time></trkpt><trkpt lat="44.3402667" lon="10.8157733"><ele>731.8333333333334</ele><time>2026-04-26T08:06:53.466Z</time></trkpt><trkpt lat="44.34018" lon="10.81576"><ele>733.6666666666667</ele><time>2026-04-26T08:06:54.466Z</time></trkpt><trkpt lat="44.34009" lon="10.81572"><ele>735.5</ele><time>2026-04-26T08:06:55.466Z</time></trkpt><trkpt lat="44.3400033" lon="10.81567"><ele>737.3333333333334</ele><time>2026-04-26T08:06:56.466Z</time></trkpt><trkpt lat="44.339935" lon="10.8156233"><ele>739.1666666666666</ele><time>2026-04-26T08:06:57.466Z</time></trkpt><trkpt lat="44.3398717" lon="10.8155867"><ele>741.0</ele><time>2026-04-26T08:06:58.466Z</time></trkpt><trkpt lat="44.33981" lon="10.8155667"><ele>744.1999999999999</ele><time>2026-04-26T08:06:59.466Z</time></trkpt><trkpt lat="44.33969" lon="10.8155617"><ele>747.4</ele><time>2026-04-26T08:07:01.466Z</time></trkpt><trkpt lat="44.3396167" lon="10.8155567"><ele>750.6</ele><time>2026-04-26T08:07:02.466Z</time></trkpt><trkpt lat="44.339525" lon="10.8155233"><ele>753.8</ele><time>2026-04-26T08:07:03.466Z</time></trkpt><trkpt lat="44.3394317" lon="10.815475"><ele>757.0</ele><time>2026-04-26T08:07:04.466Z</time></trkpt><trkpt lat="44.3393467" lon="10.8154233"><ele>757.0</ele><time>2026-04-26T08:07:05.466Z</time></trkpt><trkpt lat="44.33927" lon="10.8153867"><ele>757.0</ele><time>2026-04-26T08:07:06.466Z</time></trkpt><trkpt lat="44.3391967" lon="10.8153617"><ele>757.0</ele><time>2026-04-26T08:07:07.466Z</time></trkpt><trkpt lat="44.339135" lon="10.81534"><ele>757.0</ele><time>2026-04-26T08:07:08.466Z</time></trkpt><trkpt lat="44.3390167" lon="10.8152917"><ele>757.0</ele><time>2026-04-26T08:07:10.466Z</time></trkpt><trkpt lat="44.3389017" lon="10.815245"><ele>758.8</ele><time>2026-04-26T08:07:12.466Z</time></trkpt><trkpt lat="44.3387967" lon="10.815195"><ele>760.6</ele><time>2026-04-26T08:07:14.467Z</time></trkpt><trkpt lat="44.3387083" lon="10.8151483"><ele>762.4</ele><time>2026-04-26T08:07:16.466Z</time></trkpt><trkpt lat="44.33862" lon="10.81511"><ele>764.1999999999999</ele><time>2026-04-26T08:07:18.466Z</time></trkpt><trkpt lat="44.3385467" lon="10.8150633"><ele>766.0</ele><time>2026-04-26T08:07:20.466Z</time></trkpt><trkpt lat="44.3384833" lon="10.8149933"><ele>761.4</ele><time>2026-04-26T08:07:22.466Z</time></trkpt><trkpt lat="44.33839" lon="10.81493"><ele>756.8</ele><time>2026-04-26T08:07:24.466Z</time></trkpt><trkpt lat="44.3382717" lon="10.8149"><ele>752.1999999999999</ele><time>2026-04-26T08:07:26.466Z</time></trkpt><trkpt lat="44.338135" lon="10.8148883"><ele>747.5999999999999</ele><time>2026-04-26T08:07:28.466Z</time></trkpt><trkpt lat="44.33806" lon="10.8148717"><ele>743.0</ele><time>2026-04-26T08:07:29.466Z</time></trkpt><trkpt lat="44.337985" lon="10.8148417"><ele>743.0</ele><time>2026-04-26T08:07:30.466Z</time></trkpt><trkpt lat="44.33791" lon="10.8148133"><ele>743.0</ele><time>2026-04-26T08:07:31.466Z</time></trkpt><trkpt lat="44.3378217" lon="10.8147933"><ele>743.0</ele><time>2026-04-26T08:07:32.466Z</time></trkpt><trkpt lat="44.3377333" lon="10.8147767"><ele>743.0</ele><time>2026-04-26T08:07:33.466Z</time></trkpt><trkpt lat="44.3376417" lon="10.8147817"><ele>743.0</ele><time>2026-04-26T08:07:34.466Z</time></trkpt><trkpt lat="44.3375567" lon="10.8147883"><ele>743.0</ele><time>2026-04-26T08:07:35.466Z</time></trkpt><trkpt lat="44.337485" lon="10.8147783"><ele>743.0</ele><time>2026-04-26T08:07:36.466Z</time></trkpt><trkpt lat="44.3374183" lon="10.814745"><ele>743.0</ele><time>2026-04-26T08:07:37.466Z</time></trkpt><trkpt lat="44.3373483" lon="10.8145967"><ele>743.0</ele><time>2026-04-26T08:07:39.466Z</time></trkpt><trkpt lat="44.3373383" lon="10.814465"><ele>743.0</ele><time>2026-04-26T08:07:40.466Z</time></trkpt><trkpt lat="44.3373483" lon="10.8143483"><ele>743.0</ele><time>2026-04-26T08:07:41.466Z</time></trkpt><trkpt lat="44.3373633" lon="10.814245"><ele>740.4</ele><time>2026-04-26T08:07:42.466Z</time></trkpt><trkpt lat="44.3373433" lon="10.8141133"><ele>737.8</ele><time>2026-04-26T08:07:44.466Z</time></trkpt><trkpt lat="44.3372483" lon="10.8140083"><ele>735.2</ele><time>2026-04-26T08:07:46.466Z</time></trkpt><trkpt lat="44.337125" lon="10.8139833"><ele>732.6</ele><time>2026-04-26T08:07:48.466Z</time></trkpt><trkpt lat="44.3370517" lon="10.8140033"><ele>730.0</ele><time>2026-04-26T08:07:49.466Z</time></trkpt><trkpt lat="44.3369717" lon="10.8140317"><ele>730.0</ele><time>2026-04-26T08:07:50.466Z</time></trkpt><trkpt lat="44.336895" lon="10.8140583"><ele>730.0</ele><time>2026-04-26T08:07:51.466Z</time></trkpt><trkpt lat="44.3368183" lon="10.8140933"><ele>730.0</ele><time>2026-04-26T08:07:52.466Z</time></trkpt><trkpt lat="44.3367483" lon="10.814145"><ele>730.0</ele><time>2026-04-26T08:07:53.466Z</time></trkpt><trkpt lat="44.3366833" lon="10.8142033"><ele>730.0</ele><time>2026-04-26T08:07:54.466Z</time></trkpt><trkpt lat="44.3366117" lon="10.814265"><ele>730.0</ele><time>2026-04-26T08:07:55.466Z</time></trkpt><trkpt lat="44.33654" lon="10.814335"><ele>731.0</ele><time>2026-04-26T08:07:56.466Z</time></trkpt><trkpt lat="44.3364683" lon="10.8143933"><ele>732.0</ele><time>2026-04-26T08:07:57.466Z</time></trkpt><trkpt lat="44.3363783" lon="10.8144417"><ele>733.0</ele><time>2026-04-26T08:07:58.466Z</time></trkpt><trkpt lat="44.3362867" lon="10.8144733"><ele>734.0</ele><time>2026-04-26T08:07:59.466Z</time></trkpt><trkpt lat="44.3361833" lon="10.8145"><ele>735.0</ele><time>2026-04-26T08:08:00.467Z</time></trkpt><trkpt lat="44.336065" lon="10.8145183"><ele>735.0</ele><time>2026-04-26T08:08:01.466Z</time></trkpt><trkpt lat="44.3359467" lon="10.8145383"><ele>735.0</ele><time>2026-04-26T08:08:02.466Z</time></trkpt><trkpt lat="44.33582" lon="10.814535"><ele>735.0</ele><time>2026-04-26T08:08:03.466Z</time></trkpt><trkpt lat="44.33568" lon="10.8145117"><ele>735.0</ele><time>2026-04-26T08:08:04.466Z</time></trkpt><trkpt lat="44.3355533" lon="10.8144867"><ele>735.8</ele><time>2026-04-26T08:08:05.466Z</time></trkpt><trkpt lat="44.3354367" lon="10.8144683"><ele>736.6</ele><time>2026-04-26T08:08:06.467Z</time></trkpt><trkpt lat="44.33532" lon="10.81444"><ele>737.4000000000001</ele><time>2026-04-26T08:08:07.466Z</time></trkpt><trkpt lat="44.3352117" lon="10.8143983"><ele>738.2</ele><time>2026-04-26T08:08:08.466Z</time></trkpt><trkpt lat="44.3351233" lon="10.81436"><ele>739.0</ele><time>2026-04-26T08:08:09.466Z</time></trkpt><trkpt lat="44.3350433" lon="10.8143333"><ele>738.3333333333334</ele><time>2026-04-26T08:08:10.466Z</time></trkpt><trkpt lat="44.334975" lon="10.814305"><ele>737.6666666666667</ele><time>2026-04-26T08:08:11.467Z</time></trkpt><trkpt lat="44.334905" lon="10.81425"><ele>737.0</ele><time>2026-04-26T08:08:13.467Z</time></trkpt><trkpt lat="44.3348233" lon="10.8142133"><ele>736.3333333333334</ele><time>2026-04-26T08:08:16.466Z</time></trkpt><trkpt lat="44.334755" lon="10.81422"><ele>735.6666666666666</ele><time>2026-04-26T08:08:18.466Z</time></trkpt><trkpt lat="44.33464" lon="10.8142233"><ele>735.0</ele><time>2026-04-26T08:08:20.466Z</time></trkpt><trkpt lat="44.334565" lon="10.8142317"><ele>735.0</ele><time>2026-04-26T08:08:21.466Z</time></trkpt><trkpt lat="44.334485" lon="10.814235"><ele>735.0</ele><time>2026-04-26T08:08:22.466Z</time></trkpt><trkpt lat="44.3344" lon="10.81423"><ele>735.0</ele><time>2026-04-26T08:08:23.466Z</time></trkpt><trkpt lat="44.3343083" lon="10.81423"><ele>735.0</ele><time>2026-04-26T08:08:24.466Z</time></trkpt><trkpt lat="44.33421" lon="10.8142267"><ele>735.0</ele><time>2026-04-26T08:08:25.466Z</time></trkpt><trkpt lat="44.3341033" lon="10.81421"><ele>735.0</ele><time>2026-04-26T08:08:26.466Z</time></trkpt><trkpt lat="44.3339817" lon="10.814195"><ele>735.0</ele><time>2026-04-26T08:08:27.466Z</time></trkpt><trkpt lat="44.333855" lon="10.8141767"><ele>735.0</ele><time>2026-04-26T08:08:28.466Z</time></trkpt><trkpt lat="44.3337267" lon="10.8141667"><ele>735.0</ele><time>2026-04-26T08:08:29.466Z</time></trkpt><trkpt lat="44.3336083" lon="10.814165"><ele>734.25</ele><time>2026-04-26T08:08:30.466Z</time></trkpt><trkpt lat="44.3334933" lon="10.814175"><ele>733.5</ele><time>2026-04-26T08:08:31.466Z</time></trkpt><trkpt lat="44.3333733" lon="10.8141883"><ele>732.75</ele><time>2026-04-26T08:08:32.466Z</time></trkpt><trkpt lat="44.3332417" lon="10.8142017"><ele>732.0</ele><time>2026-04-26T08:08:33.466Z</time></trkpt><trkpt lat="44.3331067" lon="10.8142183"><ele>731.0</ele><time>2026-04-26T08:08:34.466Z</time></trkpt><trkpt lat="44.33297" lon="10.8142283"><ele>730.0</ele><time>2026-04-26T08:08:35.466Z</time></trkpt><trkpt lat="44.3328367" lon="10.814245"><ele>729.0</ele><time>2026-04-26T08:08:36.466Z</time></trkpt><trkpt lat="44.3326983" lon="10.8143017"><ele>728.0</ele><time>2026-04-26T08:08:37.466Z</time></trkpt><trkpt lat="44.3325617" lon="10.8144117"><ele>728.0</ele><time>2026-04-26T08:08:38.466Z</time></trkpt><trkpt lat="44.33242" lon="10.8145433"><ele>728.0</ele><time>2026-04-26T08:08:39.466Z</time></trkpt><trkpt lat="44.3322583" lon="10.8146533"><ele>728.0</ele><time>2026-04-26T08:08:40.466Z</time></trkpt><trkpt lat="44.33208" lon="10.8147283"><ele>728.0</ele><time>2026-04-26T08:08:41.466Z</time></trkpt><trkpt lat="44.3318817" lon="10.8147983"><ele>728.0</ele><time>2026-04-26T08:08:42.466Z</time></trkpt><trkpt lat="44.3316883" lon="10.8148483"><ele>728.0</ele><time>2026-04-26T08:08:43.466Z</time></trkpt><trkpt lat="44.3314983" lon="10.8148817"><ele>729.3333333333333</ele><time>2026-04-26T08:08:44.466Z</time></trkpt><trkpt lat="44.331315" lon="10.81489"><ele>730.6666666666666</ele><time>2026-04-26T08:08:45.466Z</time></trkpt><trkpt lat="44.3311417" lon="10.81486"><ele>732.0</ele><time>2026-04-26T08:08:46.466Z</time></trkpt><trkpt lat="44.3309717" lon="10.8147917"><ele>732.0</ele><time>2026-04-26T08:08:47.466Z</time></trkpt><trkpt lat="44.3307967" lon="10.8147133"><ele>732.0</ele><time>2026-04-26T08:08:48.466Z</time></trkpt><trkpt lat="44.330615" lon="10.8146433"><ele>732.0</ele><time>2026-04-26T08:08:49.466Z</time></trkpt><trkpt lat="44.3304383" lon="10.8146067"><ele>734.3333333333334</ele><time>2026-04-26T08:08:50.466Z</time></trkpt><trkpt lat="44.33027" lon="10.814595"><ele>736.6666666666667</ele><time>2026-04-26T08:08:51.466Z</time></trkpt><trkpt lat="44.330105" lon="10.81461"><ele>739.0</ele><time>2026-04-26T08:08:52.466Z</time></trkpt><trkpt lat="44.329945" lon="10.81464"><ele>739.0</ele><time>2026-04-26T08:08:53.466Z</time></trkpt><trkpt lat="44.3297933" lon="10.8146733"><ele>739.0</ele><time>2026-04-26T08:08:54.466Z</time></trkpt><trkpt lat="44.329645" lon="10.8147117"><ele>739.0</ele><time>2026-04-26T08:08:55.466Z</time></trkpt><trkpt lat="44.3295133" lon="10.8147283"><ele>739.0</ele><time>2026-04-26T08:08:56.466Z</time></trkpt><trkpt lat="44.3293833" lon="10.8146867"><ele>738.0</ele><time>2026-04-26T08:08:57.466Z</time></trkpt><trkpt lat="44.3292733" lon="10.8145983"><ele>737.0</ele><time>2026-04-26T08:08:58.466Z</time></trkpt><trkpt lat="44.3291883" lon="10.8144567"><ele>736.0</ele><time>2026-04-26T08:08:59.466Z</time></trkpt><trkpt lat="44.329125" lon="10.8143067"><ele>735.0</ele><time>2026-04-26T08:09:00.466Z</time></trkpt><trkpt lat="44.3290567" lon="10.8141617"><ele>735.0</ele><time>2026-04-26T08:09:01.466Z</time></trkpt><trkpt lat="44.3289583" lon="10.814065"><ele>735.0</ele><time>2026-04-26T08:09:02.466Z</time></trkpt><trkpt lat="44.3288567" lon="10.8140183"><ele>735.0</ele><time>2026-04-26T08:09:03.466Z</time></trkpt><trkpt lat="44.3287467" lon="10.8140133"><ele>735.0</ele><time>2026-04-26T08:09:04.466Z</time></trkpt><trkpt lat="44.3286233" lon="10.814055"><ele>737.25</ele><time>2026-04-26T08:09:05.467Z</time></trkpt><trkpt lat="44.3284983" lon="10.8141317"><ele>739.5</ele><time>2026-04-26T08:09:06.466Z</time></trkpt><trkpt lat="44.3283883" lon="10.8142433"><ele>741.75</ele><time>2026-04-26T08:09:07.466Z</time></trkpt><trkpt lat="44.3282817" lon="10.8143533"><ele>744.0</ele><time>2026-04-26T08:09:08.466Z</time></trkpt><trkpt lat="44.328165" lon="10.8144717"><ele>747.75</ele><time>2026-04-26T08:09:09.466Z</time></trkpt><trkpt lat="44.32804" lon="10.8145817"><ele>751.5</ele><time>2026-04-26T08:09:10.466Z</time></trkpt><trkpt lat="44.3279117" lon="10.81467"><ele>755.25</ele><time>2026-04-26T08:09:11.466Z</time></trkpt><trkpt lat="44.3277667" lon="10.8147017"><ele>759.0</ele><time>2026-04-26T08:09:12.466Z</time></trkpt><trkpt lat="44.3276083" lon="10.814675"><ele>759.0</ele><time>2026-04-26T08:09:13.466Z</time></trkpt><trkpt lat="44.3274517" lon="10.814595"><ele>759.0</ele><time>2026-04-26T08:09:14.467Z</time></trkpt><trkpt lat="44.3273033" lon="10.8144967"><ele>759.0</ele><time>2026-04-26T08:09:15.466Z</time></trkpt><trkpt lat="44.3271783" lon="10.8143583"><ele>760.6666666666666</ele><time>2026-04-26T08:09:16.466Z</time></trkpt><trkpt lat="44.32708" lon="10.8141767"><ele>762.3333333333333</ele><time>2026-04-26T08:09:17.466Z</time></trkpt><trkpt lat="44.3270117" lon="10.81396"><ele>764.0</ele><time>2026-04-26T08:09:18.466Z</time></trkpt><trkpt lat="44.3269667" lon="10.813755"><ele>764.0</ele><time>2026-04-26T08:09:19.466Z</time></trkpt><trkpt lat="44.3269183" lon="10.8135683"><ele>764.0</ele><time>2026-04-26T08:09:20.466Z</time></trkpt><trkpt lat="44.3268633" lon="10.8133833"><ele>764.0</ele><time>2026-04-26T08:09:21.466Z</time></trkpt><trkpt lat="44.3267767" lon="10.8132217"><ele>764.0</ele><time>2026-04-26T08:09:22.466Z</time></trkpt><trkpt lat="44.326655" lon="10.8131017"><ele>760.6666666666666</ele><time>2026-04-26T08:09:23.466Z</time></trkpt><trkpt lat="44.3265217" lon="10.81304"><ele>757.3333333333334</ele><time>2026-04-26T08:09:24.466Z</time></trkpt><trkpt lat="44.3263717" lon="10.8130167"><ele>754.0</ele><time>2026-04-26T08:09:25.466Z</time></trkpt><trkpt lat="44.3262067" lon="10.8130417"><ele>754.0</ele><time>2026-04-26T08:09:26.466Z</time></trkpt><trkpt lat="44.3260367" lon="10.8130817"><ele>754.0</ele><time>2026-04-26T08:09:27.466Z</time></trkpt><trkpt lat="44.3258833" lon="10.8131417"><ele>754.0</ele><time>2026-04-26T08:09:28.466Z</time></trkpt><trkpt lat="44.3257433" lon="10.8131967"><ele>754.0</ele><time>2026-04-26T08:09:29.466Z</time></trkpt><trkpt lat="44.3256033" lon="10.81323"><ele>754.0</ele><time>2026-04-26T08:09:30.466Z</time></trkpt><trkpt lat="44.325455" lon="10.81324"><ele>754.0</ele><time>2026-04-26T08:09:31.466Z</time></trkpt><trkpt lat="44.3252933" lon="10.8132167"><ele>751.3333333333334</ele><time>2026-04-26T08:09:32.466Z</time></trkpt><trkpt lat="44.325135" lon="10.813185"><ele>748.6666666666666</ele><time>2026-04-26T08:09:33.466Z</time></trkpt><trkpt lat="44.3249767" lon="10.813155"><ele>746.0</ele><time>2026-04-26T08:09:34.466Z</time></trkpt><trkpt lat="44.324825" lon="10.813155"><ele>744.5</ele><time>2026-04-26T08:09:35.466Z</time></trkpt><trkpt lat="44.324685" lon="10.813165"><ele>743.0</ele><time>2026-04-26T08:09:36.466Z</time></trkpt><trkpt lat="44.3245483" lon="10.8131867"><ele>741.5</ele><time>2026-04-26T08:09:37.466Z</time></trkpt><trkpt lat="44.324415" lon="10.81321"><ele>740.0</ele><time>2026-04-26T08:09:38.466Z</time></trkpt><trkpt lat="44.3242833" lon="10.8132233"><ele>740.0</ele><time>2026-04-26T08:09:39.466Z</time></trkpt><trkpt lat="44.32415" lon="10.8132233"><ele>740.0</ele><time>2026-04-26T08:09:40.466Z</time></trkpt><trkpt lat="44.32401" lon="10.8132017"><ele>740.0</ele><time>2026-04-26T08:09:41.466Z</time></trkpt><trkpt lat="44.3238683" lon="10.8131667"><ele>740.0</ele><time>2026-04-26T08:09:42.466Z</time></trkpt><trkpt lat="44.3237317" lon="10.8131267"><ele>738.75</ele><time>2026-04-26T08:09:43.466Z</time></trkpt><trkpt lat="44.3236017" lon="10.8130783"><ele>737.5</ele><time>2026-04-26T08:09:44.466Z</time></trkpt><trkpt lat="44.3234783" lon="10.8130283"><ele>736.25</ele><time>2026-04-26T08:09:45.465Z</time></trkpt><trkpt lat="44.3233567" lon="10.8129733"><ele>735.0</ele><time>2026-04-26T08:09:46.465Z</time></trkpt><trkpt lat="44.3232367" lon="10.8129"><ele>735.0</ele><time>2026-04-26T08:09:47.465Z</time></trkpt><trkpt lat="44.3231083" lon="10.812815"><ele>735.0</ele><time>2026-04-26T08:09:48.465Z</time></trkpt><trkpt lat="44.3229667" lon="10.8127283"><ele>735.0</ele><time>2026-04-26T08:09:49.466Z</time></trkpt><trkpt lat="44.3228267" lon="10.8126883"><ele>735.0</ele><time>2026-04-26T08:09:50.465Z</time></trkpt><trkpt lat="44.32267" lon="10.81268"><ele>734.6666666666666</ele><time>2026-04-26T08:09:51.465Z</time></trkpt><trkpt lat="44.3225017" lon="10.8126883"><ele>734.3333333333333</ele><time>2026-04-26T08:09:52.465Z</time></trkpt><trkpt lat="44.3223383" lon="10.812655"><ele>734.0</ele><time>2026-04-26T08:09:53.465Z</time></trkpt><trkpt lat="44.3221933" lon="10.8125683"><ele>731.6666666666666</ele><time>2026-04-26T08:09:54.465Z</time></trkpt><trkpt lat="44.3220667" lon="10.8124333"><ele>729.3333333333334</ele><time>2026-04-26T08:09:55.465Z</time></trkpt><trkpt lat="44.3219517" lon="10.812255"><ele>727.0</ele><time>2026-04-26T08:09:56.465Z</time></trkpt><trkpt lat="44.32184" lon="10.8120783"><ele>727.0</ele><time>2026-04-26T08:09:57.465Z</time></trkpt><trkpt lat="44.3217033" lon="10.8119267"><ele>727.0</ele><time>2026-04-26T08:09:58.465Z</time></trkpt><trkpt lat="44.3215267" lon="10.8118033"><ele>727.0</ele><time>2026-04-26T08:09:59.465Z</time></trkpt><trkpt lat="44.32132" lon="10.81172"><ele>725.0</ele><time>2026-04-26T08:10:00.465Z</time></trkpt><trkpt lat="44.3211233" lon="10.81164"><ele>723.0</ele><time>2026-04-26T08:10:01.465Z</time></trkpt><trkpt lat="44.3209417" lon="10.8115333"><ele>721.0</ele><time>2026-04-26T08:10:02.465Z</time></trkpt><trkpt lat="44.3207833" lon="10.81141"><ele>721.0</ele><time>2026-04-26T08:10:03.465Z</time></trkpt><trkpt lat="44.32066" lon="10.8112767"><ele>721.0</ele><time>2026-04-26T08:10:04.465Z</time></trkpt><trkpt lat="44.320525" lon="10.811195"><ele>721.0</ele><time>2026-04-26T08:10:05.465Z</time></trkpt><trkpt lat="44.3204017" lon="10.811185"><ele>721.0</ele><time>2026-04-26T08:10:06.465Z</time></trkpt><trkpt lat="44.3202683" lon="10.8112317"><ele>721.0</ele><time>2026-04-26T08:10:07.465Z</time></trkpt><trkpt lat="44.320145" lon="10.8113283"><ele>721.0</ele><time>2026-04-26T08:10:08.465Z</time></trkpt><trkpt lat="44.32006" lon="10.8114667"><ele>721.0</ele><time>2026-04-26T08:10:09.465Z</time></trkpt><trkpt lat="44.319955" lon="10.81159"><ele>721.0</ele><time>2026-04-26T08:10:10.465Z</time></trkpt><trkpt lat="44.31983" lon="10.81168"><ele>722.6666666666667</ele><time>2026-04-26T08:10:11.465Z</time></trkpt><trkpt lat="44.3196667" lon="10.811725"><ele>724.3333333333334</ele><time>2026-04-26T08:10:12.465Z</time></trkpt><trkpt lat="44.319485" lon="10.811725"><ele>726.0</ele><time>2026-04-26T08:10:13.465Z</time></trkpt><trkpt lat="44.319305" lon="10.8117"><ele>726.0</ele><time>2026-04-26T08:10:14.465Z</time></trkpt><trkpt lat="44.3191583" lon="10.8116717"><ele>726.0</ele><time>2026-04-26T08:10:15.465Z</time></trkpt><trkpt lat="44.3190283" lon="10.8116067"><ele>726.0</ele><time>2026-04-26T08:10:16.465Z</time></trkpt><trkpt lat="44.318915" lon="10.8114917"><ele>726.0</ele><time>2026-04-26T08:10:17.465Z</time></trkpt><trkpt lat="44.3188067" lon="10.81137"><ele>728.25</ele><time>2026-04-26T08:10:18.465Z</time></trkpt><trkpt lat="44.3186783" lon="10.8112767"><ele>730.5</ele><time>2026-04-26T08:10:19.465Z</time></trkpt><trkpt lat="44.318535" lon="10.81126"><ele>732.75</ele><time>2026-04-26T08:10:20.465Z</time></trkpt><trkpt lat="44.3183833" lon="10.8112733"><ele>735.0</ele><time>2026-04-26T08:10:21.465Z</time></trkpt><trkpt lat="44.3182333" lon="10.8112617"><ele>735.0</ele><time>2026-04-26T08:10:22.465Z</time></trkpt><trkpt lat="44.3180867" lon="10.81123"><ele>735.0</ele><time>2026-04-26T08:10:23.465Z</time></trkpt><trkpt lat="44.3179517" lon="10.81118"><ele>735.0</ele><time>2026-04-26T08:10:24.465Z</time></trkpt><trkpt lat="44.3178317" lon="10.8111133"><ele>735.0</ele><time>2026-04-26T08:10:25.465Z</time></trkpt><trkpt lat="44.3177283" lon="10.8110367"><ele>731.8</ele><time>2026-04-26T08:10:26.465Z</time></trkpt><trkpt lat="44.3176367" lon="10.8109617"><ele>728.6</ele><time>2026-04-26T08:10:27.465Z</time></trkpt><trkpt lat="44.31755" lon="10.8108867"><ele>725.4000000000001</ele><time>2026-04-26T08:10:28.465Z</time></trkpt><trkpt lat="44.317465" lon="10.8108183"><ele>722.2</ele><time>2026-04-26T08:10:29.465Z</time></trkpt><trkpt lat="44.3173767" lon="10.81076"><ele>719.0</ele><time>2026-04-26T08:10:30.465Z</time></trkpt><trkpt lat="44.3172933" lon="10.8107267"><ele>717.8000000000001</ele><time>2026-04-26T08:10:31.465Z</time></trkpt><trkpt lat="44.3171867" lon="10.8107"><ele>716.6</ele><time>2026-04-26T08:10:33.465Z</time></trkpt><trkpt lat="44.3171033" lon="10.810625"><ele>715.4</ele><time>2026-04-26T08:10:35.465Z</time></trkpt><trkpt lat="44.3170733" lon="10.8104333"><ele>714.2</ele><time>2026-04-26T08:10:37.465Z</time></trkpt><trkpt lat="44.317065" lon="10.810295"><ele>713.0</ele><time>2026-04-26T08:10:38.465Z</time></trkpt><trkpt lat="44.3170517" lon="10.8101317"><ele>712.25</ele><time>2026-04-26T08:10:39.465Z</time></trkpt><trkpt lat="44.3170333" lon="10.8099467"><ele>711.5</ele><time>2026-04-26T08:10:40.465Z</time></trkpt><trkpt lat="44.31701" lon="10.8097633"><ele>710.75</ele><time>2026-04-26T08:10:41.465Z</time></trkpt><trkpt lat="44.316985" lon="10.8095883"><ele>710.0</ele><time>2026-04-26T08:10:42.465Z</time></trkpt><trkpt lat="44.316965" lon="10.8094117"><ele>710.25</ele><time>2026-04-26T08:10:43.465Z</time></trkpt><trkpt lat="44.3169667" lon="10.80924"><ele>710.5</ele><time>2026-04-26T08:10:44.465Z</time></trkpt><trkpt lat="44.3170033" lon="10.8090633"><ele>710.75</ele><time>2026-04-26T08:10:45.465Z</time></trkpt><trkpt lat="44.3170617" lon="10.80888"><ele>711.0</ele><time>2026-04-26T08:10:46.465Z</time></trkpt><trkpt lat="44.3171333" lon="10.80869"><ele>711.0</ele><time>2026-04-26T08:10:47.465Z</time></trkpt><trkpt lat="44.3172167" lon="10.8085083"><ele>711.0</ele><time>2026-04-26T08:10:48.465Z</time></trkpt><trkpt lat="44.31729" lon="10.8082983"><ele>711.0</ele><time>2026-04-26T08:10:49.465Z</time></trkpt><trkpt lat="44.3173333" lon="10.8080783"><ele>710.0</ele><time>2026-04-26T08:10:50.465Z</time></trkpt><trkpt lat="44.3173467" lon="10.807845"><ele>709.0</ele><time>2026-04-26T08:10:51.465Z</time></trkpt><trkpt lat="44.31733" lon="10.807595"><ele>708.0</ele><time>2026-04-26T08:10:52.465Z</time></trkpt><trkpt lat="44.31728" lon="10.8073517"><ele>709.0</ele><time>2026-04-26T08:10:53.465Z</time></trkpt><trkpt lat="44.3172167" lon="10.807105"><ele>710.0</ele><time>2026-04-26T08:10:54.465Z</time></trkpt><trkpt lat="44.3171533" lon="10.80687"><ele>711.0</ele><time>2026-04-26T08:10:55.465Z</time></trkpt><trkpt lat="44.3170833" lon="10.8066617"><ele>711.3333333333334</ele><time>2026-04-26T08:10:56.465Z</time></trkpt><trkpt lat="44.317025" lon="10.8064583"><ele>711.6666666666667</ele><time>2026-04-26T08:10:57.465Z</time></trkpt><trkpt lat="44.3169633" lon="10.8062583"><ele>712.0</ele><time>2026-04-26T08:10:58.465Z</time></trkpt><trkpt lat="44.3168983" lon="10.80607"><ele>715.0</ele><time>2026-04-26T08:10:59.466Z</time></trkpt><trkpt lat="44.31683" lon="10.8058867"><ele>718.0</ele><time>2026-04-26T08:11:00.465Z</time></trkpt><trkpt lat="44.3167567" lon="10.805695"><ele>721.0</ele><time>2026-04-26T08:11:01.465Z</time></trkpt><trkpt lat="44.3166717" lon="10.8055217"><ele>721.0</ele><time>2026-04-26T08:11:02.465Z</time></trkpt><trkpt lat="44.3165683" lon="10.805375"><ele>721.0</ele><time>2026-04-26T08:11:03.465Z</time></trkpt><trkpt lat="44.316445" lon="10.8052567"><ele>721.0</ele><time>2026-04-26T08:11:04.465Z</time></trkpt><trkpt lat="44.3163033" lon="10.8051617"><ele>721.0</ele><time>2026-04-26T08:11:05.465Z</time></trkpt><trkpt lat="44.316155" lon="10.8050717"><ele>721.0</ele><time>2026-04-26T08:11:06.465Z</time></trkpt><trkpt lat="44.316" lon="10.8049783"><ele>721.0</ele><time>2026-04-26T08:11:07.465Z</time></trkpt><trkpt lat="44.3158433" lon="10.80488"><ele>721.0</ele><time>2026-04-26T08:11:08.465Z</time></trkpt><trkpt lat="44.31569" lon="10.8047867"><ele>721.0</ele><time>2026-04-26T08:11:09.465Z</time></trkpt><trkpt lat="44.3155533" lon="10.80472"><ele>721.0</ele><time>2026-04-26T08:11:10.465Z</time></trkpt><trkpt lat="44.3154133" lon="10.80463"><ele>719.0</ele><time>2026-04-26T08:11:11.465Z</time></trkpt><trkpt lat="44.3152983" lon="10.8045317"><ele>717.0</ele><time>2026-04-26T08:11:12.465Z</time></trkpt><trkpt lat="44.315205" lon="10.8044017"><ele>715.0</ele><time>2026-04-26T08:11:13.465Z</time></trkpt><trkpt lat="44.31514" lon="10.80423"><ele>713.0</ele><time>2026-04-26T08:11:14.465Z</time></trkpt><trkpt lat="44.3150983" lon="10.8040383"><ele>713.0</ele><time>2026-04-26T08:11:15.466Z</time></trkpt><trkpt lat="44.3150733" lon="10.80382"><ele>713.0</ele><time>2026-04-26T08:11:16.465Z</time></trkpt><trkpt lat="44.3150633" lon="10.8035933"><ele>713.0</ele><time>2026-04-26T08:11:17.465Z</time></trkpt><trkpt lat="44.3150617" lon="10.8033483"><ele>712.3333333333333</ele><time>2026-04-26T08:11:18.465Z</time></trkpt><trkpt lat="44.3150433" lon="10.8031017"><ele>711.6666666666666</ele><time>2026-04-26T08:11:19.465Z</time></trkpt><trkpt lat="44.314995" lon="10.80286"><ele>711.0</ele><time>2026-04-26T08:11:20.465Z</time></trkpt><trkpt lat="44.3149367" lon="10.8026267"><ele>712.3333333333334</ele><time>2026-04-26T08:11:21.465Z</time></trkpt><trkpt lat="44.3148833" lon="10.8024017"><ele>713.6666666666667</ele><time>2026-04-26T08:11:22.465Z</time></trkpt><trkpt lat="44.314825" lon="10.8021883"><ele>715.0</ele><time>2026-04-26T08:11:23.465Z</time></trkpt><trkpt lat="44.3147733" lon="10.8019783"><ele>715.0</ele><time>2026-04-26T08:11:24.465Z</time></trkpt><trkpt lat="44.3147367" lon="10.80177"><ele>715.0</ele><time>2026-04-26T08:11:25.465Z</time></trkpt><trkpt lat="44.3147383" lon="10.80155"><ele>715.0</ele><time>2026-04-26T08:11:26.465Z</time></trkpt><trkpt lat="44.314765" lon="10.8013217"><ele>715.0</ele><time>2026-04-26T08:11:27.465Z</time></trkpt><trkpt lat="44.31482" lon="10.8011"><ele>715.0</ele><time>2026-04-26T08:11:28.465Z</time></trkpt><trkpt lat="44.3148933" lon="10.8008733"><ele>715.0</ele><time>2026-04-26T08:11:29.465Z</time></trkpt><trkpt lat="44.314955" lon="10.8006383"><ele>712.6666666666667</ele><time>2026-04-26T08:11:30.465Z</time></trkpt><trkpt lat="44.3150217" lon="10.8004067"><ele>710.3333333333334</ele><time>2026-04-26T08:11:31.465Z</time></trkpt><trkpt lat="44.3150933" lon="10.8001683"><ele>708.0</ele><time>2026-04-26T08:11:32.465Z</time></trkpt><trkpt lat="44.315155" lon="10.7999467"><ele>708.5</ele><time>2026-04-26T08:11:33.465Z</time></trkpt><trkpt lat="44.3152017" lon="10.79976"><ele>709.0</ele><time>2026-04-26T08:11:34.465Z</time></trkpt><trkpt lat="44.3152317" lon="10.7995833"><ele>709.5</ele><time>2026-04-26T08:11:35.465Z</time></trkpt><trkpt lat="44.3152317" lon="10.7993817"><ele>710.0</ele><time>2026-04-26T08:11:36.465Z</time></trkpt><trkpt lat="44.3151817" lon="10.7991867"><ele>710.0</ele><time>2026-04-26T08:11:37.465Z</time></trkpt><trkpt lat="44.3151167" lon="10.7989617"><ele>710.0</ele><time>2026-04-26T08:11:38.465Z</time></trkpt><trkpt lat="44.3150433" lon="10.7987367"><ele>710.0</ele><time>2026-04-26T08:11:39.466Z</time></trkpt><trkpt lat="44.3149483" lon="10.7985233"><ele>709.3333333333333</ele><time>2026-04-26T08:11:40.465Z</time></trkpt><trkpt lat="44.3148083" lon="10.7983433"><ele>708.6666666666666</ele><time>2026-04-26T08:11:41.465Z</time></trkpt><trkpt lat="44.31467" lon="10.798175"><ele>708.0</ele><time>2026-04-26T08:11:42.465Z</time></trkpt><trkpt lat="44.3145417" lon="10.7980167"><ele>708.0</ele><time>2026-04-26T08:11:43.465Z</time></trkpt><trkpt lat="44.3144183" lon="10.7978583"><ele>708.0</ele><time>2026-04-26T08:11:44.465Z</time></trkpt><trkpt lat="44.3142933" lon="10.7977117"><ele>708.0</ele><time>2026-04-26T08:11:45.466Z</time></trkpt><trkpt lat="44.3141783" lon="10.7975667"><ele>707.6666666666666</ele><time>2026-04-26T08:11:46.465Z</time></trkpt><trkpt lat="44.31407" lon="10.7974133"><ele>707.3333333333333</ele><time>2026-04-26T08:11:47.465Z</time></trkpt><trkpt lat="44.3139583" lon="10.79726"><ele>707.0</ele><time>2026-04-26T08:11:48.466Z</time></trkpt><trkpt lat="44.3138483" lon="10.7971067"><ele>707.0</ele><time>2026-04-26T08:11:49.465Z</time></trkpt><trkpt lat="44.3137333" lon="10.7969383"><ele>707.0</ele><time>2026-04-26T08:11:50.465Z</time></trkpt><trkpt lat="44.31363" lon="10.796775"><ele>707.0</ele><time>2026-04-26T08:11:51.465Z</time></trkpt><trkpt lat="44.3135233" lon="10.7966067"><ele>710.3333333333333</ele><time>2026-04-26T08:11:52.465Z</time></trkpt><trkpt lat="44.313425" lon="10.79645"><ele>713.6666666666666</ele><time>2026-04-26T08:11:53.465Z</time></trkpt><trkpt lat="44.313325" lon="10.7962867"><ele>717.0</ele><time>2026-04-26T08:11:54.465Z</time></trkpt><trkpt lat="44.313235" lon="10.7961183"><ele>718.0</ele><time>2026-04-26T08:11:55.465Z</time></trkpt><trkpt lat="44.3131383" lon="10.7959517"><ele>719.0</ele><time>2026-04-26T08:11:56.466Z</time></trkpt><trkpt lat="44.31304" lon="10.795775"><ele>720.0</ele><time>2026-04-26T08:11:57.466Z</time></trkpt><trkpt lat="44.3129433" lon="10.7955967"><ele>719.6666666666666</ele><time>2026-04-26T08:11:58.465Z</time></trkpt><trkpt lat="44.31285" lon="10.7954183"><ele>719.3333333333333</ele><time>2026-04-26T08:11:59.465Z</time></trkpt><trkpt lat="44.31276" lon="10.795245"><ele>719.0</ele><time>2026-04-26T08:12:00.465Z</time></trkpt><trkpt lat="44.3126683" lon="10.7950833"><ele>719.0</ele><time>2026-04-26T08:12:01.465Z</time></trkpt><trkpt lat="44.312575" lon="10.79491"><ele>719.0</ele><time>2026-04-26T08:12:02.465Z</time></trkpt><trkpt lat="44.312485" lon="10.79473"><ele>719.0</ele><time>2026-04-26T08:12:03.465Z</time></trkpt><trkpt lat="44.3124033" lon="10.7945333"><ele>718.0</ele><time>2026-04-26T08:12:04.465Z</time></trkpt><trkpt lat="44.3123267" lon="10.79433"><ele>717.0</ele><time>2026-04-26T08:12:05.466Z</time></trkpt><trkpt lat="44.3122633" lon="10.79411"><ele>716.0</ele><time>2026-04-26T08:12:06.465Z</time></trkpt><trkpt lat="44.3122117" lon="10.7938817"><ele>715.0</ele><time>2026-04-26T08:12:07.465Z</time></trkpt><trkpt lat="44.3121567" lon="10.7936417"><ele>714.0</ele><time>2026-04-26T08:12:08.465Z</time></trkpt><trkpt lat="44.3120967" lon="10.79338"><ele>713.0</ele><time>2026-04-26T08:12:09.465Z</time></trkpt><trkpt lat="44.31203" lon="10.7931033"><ele>713.0</ele><time>2026-04-26T08:12:10.465Z</time></trkpt><trkpt lat="44.3119567" lon="10.7928083"><ele>713.0</ele><time>2026-04-26T08:12:11.465Z</time></trkpt><trkpt lat="44.3118817" lon="10.7925"><ele>715.3333333333333</ele><time>2026-04-26T08:12:12.466Z</time></trkpt><trkpt lat="44.31181" lon="10.7921917"><ele>717.6666666666666</ele><time>2026-04-26T08:12:13.465Z</time></trkpt><trkpt lat="44.3117583" lon="10.7919"><ele>720.0</ele><time>2026-04-26T08:12:14.465Z</time></trkpt><trkpt lat="44.31171" lon="10.79163"><ele>722.0</ele><time>2026-04-26T08:12:15.465Z</time></trkpt><trkpt lat="44.31165" lon="10.79139"><ele>724.0</ele><time>2026-04-26T08:12:16.465Z</time></trkpt><trkpt lat="44.3115933" lon="10.7911667"><ele>726.0</ele><time>2026-04-26T08:12:17.465Z</time></trkpt><trkpt lat="44.3115367" lon="10.7909383"><ele>725.0</ele><time>2026-04-26T08:12:18.465Z</time></trkpt><trkpt lat="44.3114833" lon="10.79073"><ele>724.0</ele><time>2026-04-26T08:12:19.465Z</time></trkpt><trkpt lat="44.3114367" lon="10.7905383"><ele>723.0</ele><time>2026-04-26T08:12:20.466Z</time></trkpt><trkpt lat="44.31139" lon="10.7903617"><ele>722.0</ele><time>2026-04-26T08:12:21.465Z</time></trkpt><trkpt lat="44.311355" lon="10.7902033"><ele>721.75</ele><time>2026-04-26T08:12:22.465Z</time></trkpt><trkpt lat="44.3113417" lon="10.7900433"><ele>721.5</ele><time>2026-04-26T08:12:23.465Z</time></trkpt><trkpt lat="44.3113617" lon="10.7898817"><ele>721.25</ele><time>2026-04-26T08:12:24.465Z</time></trkpt><trkpt lat="44.3114117" lon="10.78972"><ele>721.0</ele><time>2026-04-26T08:12:25.465Z</time></trkpt><trkpt lat="44.3114667" lon="10.7895633"><ele>724.8</ele><time>2026-04-26T08:12:26.465Z</time></trkpt><trkpt lat="44.311515" lon="10.7894033"><ele>728.5999999999999</ele><time>2026-04-26T08:12:27.465Z</time></trkpt><trkpt lat="44.3115483" lon="10.789245"><ele>732.4</ele><time>2026-04-26T08:12:28.465Z</time></trkpt><trkpt lat="44.3115667" lon="10.7891017"><ele>736.2</ele><time>2026-04-26T08:12:29.465Z</time></trkpt><trkpt lat="44.31156" lon="10.7889683"><ele>740.0</ele><time>2026-04-26T08:12:30.465Z</time></trkpt><trkpt lat="44.3115167" lon="10.78884"><ele>740.0</ele><time>2026-04-26T08:12:31.465Z</time></trkpt><trkpt lat="44.3114517" lon="10.788725"><ele>740.0</ele><time>2026-04-26T08:12:32.465Z</time></trkpt><trkpt lat="44.3113767" lon="10.7886117"><ele>740.0</ele><time>2026-04-26T08:12:33.465Z</time></trkpt><trkpt lat="44.3113" lon="10.78851"><ele>740.0</ele><time>2026-04-26T08:12:34.465Z</time></trkpt><trkpt lat="44.311235" lon="10.788425"><ele>740.0</ele><time>2026-04-26T08:12:35.465Z</time></trkpt><trkpt lat="44.3111867" lon="10.78834"><ele>741.0</ele><time>2026-04-26T08:12:36.465Z</time></trkpt><trkpt lat="44.31117" lon="10.788235"><ele>742.0</ele><time>2026-04-26T08:12:37.465Z</time></trkpt><trkpt lat="44.31119" lon="10.7881283"><ele>743.0</ele><time>2026-04-26T08:12:38.465Z</time></trkpt><trkpt lat="44.3112583" lon="10.78801"><ele>744.0</ele><time>2026-04-26T08:12:39.465Z</time></trkpt><trkpt lat="44.3113383" lon="10.7878883"><ele>745.0</ele><time>2026-04-26T08:12:40.465Z</time></trkpt><trkpt lat="44.3114083" lon="10.78774"><ele>744.6666666666667</ele><time>2026-04-26T08:12:41.465Z</time></trkpt><trkpt lat="44.3114617" lon="10.787555"><ele>744.3333333333334</ele><time>2026-04-26T08:12:42.465Z</time></trkpt><trkpt lat="44.3115033" lon="10.7873317"><ele>744.0</ele><time>2026-04-26T08:12:43.465Z</time></trkpt><trkpt lat="44.3115567" lon="10.7870717"><ele>743.6666666666666</ele><time>2026-04-26T08:12:44.465Z</time></trkpt><trkpt lat="44.3116083" lon="10.7867967"><ele>743.3333333333333</ele><time>2026-04-26T08:12:45.465Z</time></trkpt><trkpt lat="44.3116533" lon="10.7865417"><ele>743.0</ele><time>2026-04-26T08:12:46.465Z</time></trkpt><trkpt lat="44.3116967" lon="10.7863017"><ele>743.0</ele><time>2026-04-26T08:12:47.465Z</time></trkpt><trkpt lat="44.311755" lon="10.7860817"><ele>743.0</ele><time>2026-04-26T08:12:48.465Z</time></trkpt><trkpt lat="44.311835" lon="10.785885"><ele>743.0</ele><time>2026-04-26T08:12:49.465Z</time></trkpt><trkpt lat="44.31192" lon="10.7856783"><ele>741.3333333333333</ele><time>2026-04-26T08:12:50.465Z</time></trkpt><trkpt lat="44.311985" lon="10.7854683"><ele>739.6666666666666</ele><time>2026-04-26T08:12:51.465Z</time></trkpt><trkpt lat="44.3120083" lon="10.7852317"><ele>738.0</ele><time>2026-04-26T08:12:52.465Z</time></trkpt><trkpt lat="44.311985" lon="10.7849633"><ele>737.6666666666666</ele><time>2026-04-26T08:12:53.465Z</time></trkpt><trkpt lat="44.311935" lon="10.78469"><ele>737.3333333333333</ele><time>2026-04-26T08:12:54.465Z</time></trkpt><trkpt lat="44.31189" lon="10.78443"><ele>737.0</ele><time>2026-04-26T08:12:55.465Z</time></trkpt><trkpt lat="44.3118483" lon="10.7841867"><ele>737.6666666666666</ele><time>2026-04-26T08:12:56.465Z</time></trkpt><trkpt lat="44.3118117" lon="10.783945"><ele>738.3333333333334</ele><time>2026-04-26T08:12:57.465Z</time></trkpt><trkpt lat="44.3117817" lon="10.7837033"><ele>739.0</ele><time>2026-04-26T08:12:58.465Z</time></trkpt><trkpt lat="44.311765" lon="10.78347"><ele>739.0</ele><time>2026-04-26T08:12:59.465Z</time></trkpt><trkpt lat="44.3117667" lon="10.7832333"><ele>739.0</ele><time>2026-04-26T08:13:00.465Z</time></trkpt><trkpt lat="44.3117717" lon="10.7829967"><ele>739.0</ele><time>2026-04-26T08:13:01.466Z</time></trkpt><trkpt lat="44.3117867" lon="10.7827633"><ele>738.3333333333334</ele><time>2026-04-26T08:13:02.465Z</time></trkpt><trkpt lat="44.3118017" lon="10.782535"><ele>737.6666666666666</ele><time>2026-04-26T08:13:03.465Z</time></trkpt><trkpt lat="44.311815" lon="10.78231"><ele>737.0</ele><time>2026-04-26T08:13:04.465Z</time></trkpt><trkpt lat="44.3118267" lon="10.7820833"><ele>738.3333333333333</ele><time>2026-04-26T08:13:05.465Z</time></trkpt><trkpt lat="44.3118317" lon="10.7818417"><ele>739.6666666666666</ele><time>2026-04-26T08:13:06.465Z</time></trkpt><trkpt lat="44.3118267" lon="10.7815983"><ele>741.0</ele><time>2026-04-26T08:13:07.465Z</time></trkpt><trkpt lat="44.3118033" lon="10.7813533"><ele>741.0</ele><time>2026-04-26T08:13:08.465Z</time></trkpt><trkpt lat="44.31177" lon="10.7811033"><ele>741.0</ele><time>2026-04-26T08:13:09.465Z</time></trkpt><trkpt lat="44.3117183" lon="10.7808633"><ele>741.0</ele><time>2026-04-26T08:13:10.465Z</time></trkpt><trkpt lat="44.3116583" lon="10.7806383"><ele>742.6666666666666</ele><time>2026-04-26T08:13:11.466Z</time></trkpt><trkpt lat="44.31159" lon="10.7804267"><ele>744.3333333333333</ele><time>2026-04-26T08:13:12.465Z</time></trkpt><trkpt lat="44.311505" lon="10.7802467"><ele>746.0</ele><time>2026-04-26T08:13:13.465Z</time></trkpt><trkpt lat="44.3114067" lon="10.7801067"><ele>746.25</ele><time>2026-04-26T08:13:14.465Z</time></trkpt><trkpt lat="44.3112933" lon="10.7800067"><ele>746.5</ele><time>2026-04-26T08:13:15.465Z</time></trkpt><trkpt lat="44.3111767" lon="10.7799417"><ele>746.75</ele><time>2026-04-26T08:13:16.465Z</time></trkpt><trkpt lat="44.3110717" lon="10.7798667"><ele>747.0</ele><time>2026-04-26T08:13:17.465Z</time></trkpt><trkpt lat="44.310995" lon="10.7797667"><ele>747.0</ele><time>2026-04-26T08:13:18.465Z</time></trkpt><trkpt lat="44.3109467" lon="10.7796433"><ele>747.0</ele><time>2026-04-26T08:13:19.465Z</time></trkpt><trkpt lat="44.31093" lon="10.7795133"><ele>747.0</ele><time>2026-04-26T08:13:20.465Z</time></trkpt><trkpt lat="44.3109433" lon="10.779375"><ele>747.0</ele><time>2026-04-26T08:13:21.465Z</time></trkpt><trkpt lat="44.3109883" lon="10.7792267"><ele>747.0</ele><time>2026-04-26T08:13:22.465Z</time></trkpt><trkpt lat="44.3110367" lon="10.7790683"><ele>747.0</ele><time>2026-04-26T08:13:23.465Z</time></trkpt><trkpt lat="44.311075" lon="10.7788967"><ele>747.0</ele><time>2026-04-26T08:13:24.465Z</time></trkpt><trkpt lat="44.3110933" lon="10.7787133"><ele>747.0</ele><time>2026-04-26T08:13:25.465Z</time></trkpt><trkpt lat="44.311095" lon="10.7785083"><ele>747.0</ele><time>2026-04-26T08:13:26.465Z</time></trkpt><trkpt lat="44.3110867" lon="10.7783"><ele>746.5</ele><time>2026-04-26T08:13:27.465Z</time></trkpt><trkpt lat="44.3110783" lon="10.7781067"><ele>746.0</ele><time>2026-04-26T08:13:28.465Z</time></trkpt><trkpt lat="44.3110717" lon="10.7779217"><ele>745.5</ele><time>2026-04-26T08:13:29.465Z</time></trkpt><trkpt lat="44.311065" lon="10.7777467"><ele>745.0</ele><time>2026-04-26T08:13:30.465Z</time></trkpt><trkpt lat="44.3110633" lon="10.7775783"><ele>745.0</ele><time>2026-04-26T08:13:31.465Z</time></trkpt><trkpt lat="44.3110717" lon="10.7774183"><ele>745.0</ele><time>2026-04-26T08:13:32.465Z</time></trkpt><trkpt lat="44.311095" lon="10.7772583"><ele>745.0</ele><time>2026-04-26T08:13:33.465Z</time></trkpt><trkpt lat="44.3111433" lon="10.777115"><ele>745.0</ele><time>2026-04-26T08:13:34.465Z</time></trkpt><trkpt lat="44.3112233" lon="10.7769883"><ele>745.0</ele><time>2026-04-26T08:13:35.465Z</time></trkpt><trkpt lat="44.3113183" lon="10.77689"><ele>745.0</ele><time>2026-04-26T08:13:36.465Z</time></trkpt><trkpt lat="44.3114217" lon="10.77681"><ele>745.0</ele><time>2026-04-26T08:13:37.465Z</time></trkpt><trkpt lat="44.3115267" lon="10.77673"><ele>745.0</ele><time>2026-04-26T08:13:38.465Z</time></trkpt><trkpt lat="44.3116217" lon="10.7766167"><ele>744.75</ele><time>2026-04-26T08:13:39.465Z</time></trkpt><trkpt lat="44.3116967" lon="10.776465"><ele>744.5</ele><time>2026-04-26T08:13:40.465Z</time></trkpt><trkpt lat="44.3117417" lon="10.7762917"><ele>744.25</ele><time>2026-04-26T08:13:41.465Z</time></trkpt><trkpt lat="44.3117633" lon="10.7760983"><ele>744.0</ele><time>2026-04-26T08:13:42.465Z</time></trkpt><trkpt lat="44.311765" lon="10.7758833"><ele>742.3333333333334</ele><time>2026-04-26T08:13:43.465Z</time></trkpt><trkpt lat="44.311755" lon="10.775625"><ele>740.6666666666667</ele><time>2026-04-26T08:13:44.465Z</time></trkpt><trkpt lat="44.3117333" lon="10.7753533"><ele>739.0</ele><time>2026-04-26T08:13:45.465Z</time></trkpt><trkpt lat="44.31169" lon="10.77506"><ele>735.5</ele><time>2026-04-26T08:13:46.466Z</time></trkpt><trkpt lat="44.311635" lon="10.77476"><ele>732.0</ele><time>2026-04-26T08:13:47.465Z</time></trkpt><trkpt lat="44.3115683" lon="10.77445"><ele>730.6666666666666</ele><time>2026-04-26T08:13:48.465Z</time></trkpt><trkpt lat="44.3115183" lon="10.7741433"><ele>729.3333333333333</ele><time>2026-04-26T08:13:49.465Z</time></trkpt><trkpt lat="44.3115017" lon="10.7738433"><ele>728.0</ele><time>2026-04-26T08:13:50.465Z</time></trkpt><trkpt lat="44.3114967" lon="10.7735483"><ele>729.0</ele><time>2026-04-26T08:13:51.465Z</time></trkpt><trkpt lat="44.3114967" lon="10.7732667"><ele>730.0</ele><time>2026-04-26T08:13:52.465Z</time></trkpt><trkpt lat="44.311495" lon="10.7729967"><ele>731.0</ele><time>2026-04-26T08:13:53.465Z</time></trkpt><trkpt lat="44.311505" lon="10.772735"><ele>731.6666666666666</ele><time>2026-04-26T08:13:54.465Z</time></trkpt><trkpt lat="44.3115433" lon="10.7724933"><ele>732.3333333333334</ele><time>2026-04-26T08:13:55.465Z</time></trkpt><trkpt lat="44.311605" lon="10.7722533"><ele>733.0</ele><time>2026-04-26T08:13:56.465Z</time></trkpt><trkpt lat="44.31167" lon="10.7720117"><ele>735.6666666666667</ele><time>2026-04-26T08:13:57.464Z</time></trkpt><trkpt lat="44.31176" lon="10.7717883"><ele>738.3333333333334</ele><time>2026-04-26T08:13:58.464Z</time></trkpt><trkpt lat="44.311865" lon="10.7715783"><ele>741.0</ele><time>2026-04-26T08:13:59.464Z</time></trkpt><trkpt lat="44.3119717" lon="10.77141"><ele>741.0</ele><time>2026-04-26T08:14:00.464Z</time></trkpt><trkpt lat="44.3120717" lon="10.7712167"><ele>741.0</ele><time>2026-04-26T08:14:01.464Z</time></trkpt><trkpt lat="44.3121317" lon="10.7709933"><ele>741.0</ele><time>2026-04-26T08:14:02.464Z</time></trkpt><trkpt lat="44.3121717" lon="10.7707617"><ele>742.6666666666666</ele><time>2026-04-26T08:14:03.464Z</time></trkpt><trkpt lat="44.312175" lon="10.7705217"><ele>744.3333333333333</ele><time>2026-04-26T08:14:04.464Z</time></trkpt><trkpt lat="44.3121683" lon="10.77029"><ele>746.0</ele><time>2026-04-26T08:14:05.464Z</time></trkpt><trkpt lat="44.3121483" lon="10.7700333"><ele>748.3333333333333</ele><time>2026-04-26T08:14:06.464Z</time></trkpt><trkpt lat="44.3121167" lon="10.7697867"><ele>750.6666666666666</ele><time>2026-04-26T08:14:07.464Z</time></trkpt><trkpt lat="44.312075" lon="10.7695483"><ele>753.0</ele><time>2026-04-26T08:14:08.464Z</time></trkpt><trkpt lat="44.31202" lon="10.7693083"><ele>755.0</ele><time>2026-04-26T08:14:09.464Z</time></trkpt><trkpt lat="44.3119733" lon="10.76907"><ele>757.0</ele><time>2026-04-26T08:14:10.464Z</time></trkpt><trkpt lat="44.3119467" lon="10.76884"><ele>759.0</ele><time>2026-04-26T08:14:11.464Z</time></trkpt><trkpt lat="44.3118867" lon="10.7686333"><ele>759.0</ele><time>2026-04-26T08:14:12.465Z</time></trkpt><trkpt lat="44.3118383" lon="10.7684183"><ele>759.0</ele><time>2026-04-26T08:14:13.464Z</time></trkpt><trkpt lat="44.3117683" lon="10.7682167"><ele>759.0</ele><time>2026-04-26T08:14:14.464Z</time></trkpt><trkpt lat="44.3116967" lon="10.7680167"><ele>759.0</ele><time>2026-04-26T08:14:15.464Z</time></trkpt><trkpt lat="44.3116283" lon="10.7678267"><ele>759.0</ele><time>2026-04-26T08:14:16.464Z</time></trkpt><trkpt lat="44.311565" lon="10.7676417"><ele>759.0</ele><time>2026-04-26T08:14:17.464Z</time></trkpt><trkpt lat="44.3115283" lon="10.767445"><ele>759.0</ele><time>2026-04-26T08:14:18.464Z</time></trkpt><trkpt lat="44.3115033" lon="10.7672367"><ele>758.5</ele><time>2026-04-26T08:14:19.464Z</time></trkpt><trkpt lat="44.3114933" lon="10.7670333"><ele>758.0</ele><time>2026-04-26T08:14:20.464Z</time></trkpt><trkpt lat="44.311485" lon="10.7668383"><ele>757.5</ele><time>2026-04-26T08:14:21.464Z</time></trkpt><trkpt lat="44.3115133" lon="10.766645"><ele>757.0</ele><time>2026-04-26T08:14:22.465Z</time></trkpt><trkpt lat="44.3115433" lon="10.7664583"><ele>758.0</ele><time>2026-04-26T08:14:23.464Z</time></trkpt><trkpt lat="44.311605" lon="10.7663"><ele>759.0</ele><time>2026-04-26T08:14:24.464Z</time></trkpt><trkpt lat="44.3116933" lon="10.7661783"><ele>760.0</ele><time>2026-04-26T08:14:25.464Z</time></trkpt><trkpt lat="44.3118033" lon="10.7661167"><ele>761.0</ele><time>2026-04-26T08:14:26.464Z</time></trkpt><trkpt lat="44.3119183" lon="10.766065"><ele>761.4</ele><time>2026-04-26T08:14:27.464Z</time></trkpt><trkpt lat="44.3120067" lon="10.76602"><ele>761.8</ele><time>2026-04-26T08:14:28.464Z</time></trkpt><trkpt lat="44.312095" lon="10.7659367"><ele>762.1999999999999</ele><time>2026-04-26T08:14:29.464Z</time></trkpt><trkpt lat="44.3121533" lon="10.7657967"><ele>762.5999999999999</ele><time>2026-04-26T08:14:30.464Z</time></trkpt><trkpt lat="44.3121917" lon="10.7656283"><ele>763.0</ele><time>2026-04-26T08:14:31.464Z</time></trkpt><trkpt lat="44.3121783" lon="10.7654017"><ele>765.0</ele><time>2026-04-26T08:14:32.464Z</time></trkpt><trkpt lat="44.3121667" lon="10.7651333"><ele>767.0</ele><time>2026-04-26T08:14:33.464Z</time></trkpt><trkpt lat="44.3121783" lon="10.764855"><ele>769.0</ele><time>2026-04-26T08:14:34.464Z</time></trkpt><trkpt lat="44.312185" lon="10.764575"><ele>768.6666666666666</ele><time>2026-04-26T08:14:35.464Z</time></trkpt><trkpt lat="44.3122" lon="10.7642983"><ele>768.3333333333333</ele><time>2026-04-26T08:14:36.464Z</time></trkpt><trkpt lat="44.312245" lon="10.7640667"><ele>768.0</ele><time>2026-04-26T08:14:37.464Z</time></trkpt><trkpt lat="44.3123117" lon="10.7638517"><ele>768.0</ele><time>2026-04-26T08:14:38.464Z</time></trkpt><trkpt lat="44.3124" lon="10.7636617"><ele>768.0</ele><time>2026-04-26T08:14:39.464Z</time></trkpt><trkpt lat="44.3124933" lon="10.7634733"><ele>768.0</ele><time>2026-04-26T08:14:40.464Z</time></trkpt><trkpt lat="44.3125533" lon="10.763305"><ele>770.0</ele><time>2026-04-26T08:14:41.464Z</time></trkpt><trkpt lat="44.31256" lon="10.7631333"><ele>772.0</ele><time>2026-04-26T08:14:42.464Z</time></trkpt><trkpt lat="44.31252" lon="10.762965"><ele>774.0</ele><time>2026-04-26T08:14:43.464Z</time></trkpt><trkpt lat="44.3124383" lon="10.7628017"><ele>776.0</ele><time>2026-04-26T08:14:44.464Z</time></trkpt><trkpt lat="44.3123617" lon="10.7626383"><ele>776.4</ele><time>2026-04-26T08:14:45.464Z</time></trkpt><trkpt lat="44.3123033" lon="10.76249"><ele>776.8</ele><time>2026-04-26T08:14:46.464Z</time></trkpt><trkpt lat="44.3122733" lon="10.7623417"><ele>777.1999999999999</ele><time>2026-04-26T08:14:47.464Z</time></trkpt><trkpt lat="44.3122667" lon="10.762205"><ele>777.5999999999999</ele><time>2026-04-26T08:14:48.464Z</time></trkpt><trkpt lat="44.3122833" lon="10.7620717"><ele>778.0</ele><time>2026-04-26T08:14:49.465Z</time></trkpt><trkpt lat="44.3123333" lon="10.761945"><ele>780.4</ele><time>2026-04-26T08:14:50.464Z</time></trkpt><trkpt lat="44.3124083" lon="10.76184"><ele>782.8</ele><time>2026-04-26T08:14:51.464Z</time></trkpt><trkpt lat="44.3124967" lon="10.7617633"><ele>785.2</ele><time>2026-04-26T08:14:52.464Z</time></trkpt><trkpt lat="44.3125967" lon="10.7617033"><ele>787.6</ele><time>2026-04-26T08:14:53.464Z</time></trkpt><trkpt lat="44.312685" lon="10.761655"><ele>790.0</ele><time>2026-04-26T08:14:54.464Z</time></trkpt><trkpt lat="44.3127867" lon="10.76159"><ele>790.0</ele><time>2026-04-26T08:14:55.464Z</time></trkpt><trkpt lat="44.3128683" lon="10.76147"><ele>790.0</ele><time>2026-04-26T08:14:56.464Z</time></trkpt><trkpt lat="44.31293" lon="10.7613383"><ele>790.0</ele><time>2026-04-26T08:14:57.464Z</time></trkpt><trkpt lat="44.3129967" lon="10.7612117"><ele>790.0</ele><time>2026-04-26T08:14:58.465Z</time></trkpt><trkpt lat="44.3130583" lon="10.7611083"><ele>790.0</ele><time>2026-04-26T08:14:59.464Z</time></trkpt><trkpt lat="44.3131333" lon="10.76102"><ele>790.3333333333333</ele><time>2026-04-26T08:15:00.464Z</time></trkpt><trkpt lat="44.3132117" lon="10.760955"><ele>790.6666666666666</ele><time>2026-04-26T08:15:01.464Z</time></trkpt><trkpt lat="44.3132867" lon="10.760885"><ele>791.0</ele><time>2026-04-26T08:15:02.464Z</time></trkpt><trkpt lat="44.3133533" lon="10.7608033"><ele>791.3333333333333</ele><time>2026-04-26T08:15:03.464Z</time></trkpt><trkpt lat="44.3133883" lon="10.760695"><ele>791.6666666666666</ele><time>2026-04-26T08:15:04.464Z</time></trkpt><trkpt lat="44.313365" lon="10.760575"><ele>792.0</ele><time>2026-04-26T08:15:05.464Z</time></trkpt><trkpt lat="44.31332" lon="10.7604567"><ele>792.0</ele><time>2026-04-26T08:15:06.464Z</time></trkpt><trkpt lat="44.31326" lon="10.7603533"><ele>792.0</ele><time>2026-04-26T08:15:07.464Z</time></trkpt><trkpt lat="44.3131867" lon="10.7602467"><ele>792.0</ele><time>2026-04-26T08:15:08.464Z</time></trkpt><trkpt lat="44.31311" lon="10.7601233"><ele>792.0</ele><time>2026-04-26T08:15:09.464Z</time></trkpt><trkpt lat="44.31304" lon="10.7599583"><ele>792.25</ele><time>2026-04-26T08:15:10.464Z</time></trkpt><trkpt lat="44.3129917" lon="10.7597917"><ele>792.5</ele><time>2026-04-26T08:15:11.464Z</time></trkpt><trkpt lat="44.3129633" lon="10.7596233"><ele>792.75</ele><time>2026-04-26T08:15:12.464Z</time></trkpt><trkpt lat="44.3129617" lon="10.759465"><ele>793.0</ele><time>2026-04-26T08:15:13.464Z</time></trkpt><trkpt lat="44.31299" lon="10.759325"><ele>793.8333333333333</ele><time>2026-04-26T08:15:14.464Z</time></trkpt><trkpt lat="44.31304" lon="10.759195"><ele>794.6666666666666</ele><time>2026-04-26T08:15:15.464Z</time></trkpt><trkpt lat="44.313105" lon="10.7591167"><ele>795.5</ele><time>2026-04-26T08:15:16.465Z</time></trkpt><trkpt lat="44.3131717" lon="10.7590567"><ele>796.3333333333333</ele><time>2026-04-26T08:15:17.464Z</time></trkpt><trkpt lat="44.3132433" lon="10.7589867"><ele>797.1666666666666</ele><time>2026-04-26T08:15:18.464Z</time></trkpt><trkpt lat="44.313295" lon="10.7588983"><ele>798.0</ele><time>2026-04-26T08:15:19.464Z</time></trkpt><trkpt lat="44.313325" lon="10.7587817"><ele>798.0</ele><time>2026-04-26T08:15:20.464Z</time></trkpt><trkpt lat="44.3133133" lon="10.758655"><ele>798.0</ele><time>2026-04-26T08:15:21.464Z</time></trkpt><trkpt lat="44.313265" lon="10.7585167"><ele>798.0</ele><time>2026-04-26T08:15:22.464Z</time></trkpt><trkpt lat="44.3131617" lon="10.7583417"><ele>798.0</ele><time>2026-04-26T08:15:23.464Z</time></trkpt><trkpt lat="44.3130333" lon="10.7581317"><ele>801.0</ele><time>2026-04-26T08:15:24.464Z</time></trkpt><trkpt lat="44.3128933" lon="10.7579083"><ele>804.0</ele><time>2026-04-26T08:15:25.464Z</time></trkpt><trkpt lat="44.3127617" lon="10.7576967"><ele>807.0</ele><time>2026-04-26T08:15:26.464Z</time></trkpt><trkpt lat="44.312635" lon="10.7575033"><ele>808.0</ele><time>2026-04-26T08:15:27.464Z</time></trkpt><trkpt lat="44.3125533" lon="10.7573083"><ele>809.0</ele><time>2026-04-26T08:15:28.464Z</time></trkpt><trkpt lat="44.3125133" lon="10.7570817"><ele>810.0</ele><time>2026-04-26T08:15:29.464Z</time></trkpt><trkpt lat="44.3125333" lon="10.7568617"><ele>811.0</ele><time>2026-04-26T08:15:30.464Z</time></trkpt><trkpt lat="44.3126067" lon="10.7566533"><ele>812.0</ele><time>2026-04-26T08:15:31.465Z</time></trkpt><trkpt lat="44.3127167" lon="10.7564417"><ele>813.0</ele><time>2026-04-26T08:15:32.464Z</time></trkpt><trkpt lat="44.3128167" lon="10.7562333"><ele>813.6666666666667</ele><time>2026-04-26T08:15:33.464Z</time></trkpt><trkpt lat="44.3128833" lon="10.756025"><ele>814.3333333333334</ele><time>2026-04-26T08:15:34.464Z</time></trkpt><trkpt lat="44.312895" lon="10.75581"><ele>815.0</ele><time>2026-04-26T08:15:35.464Z</time></trkpt><trkpt lat="44.3128467" lon="10.75558"><ele>815.0</ele><time>2026-04-26T08:15:36.464Z</time></trkpt><trkpt lat="44.3127467" lon="10.7553467"><ele>815.0</ele><time>2026-04-26T08:15:37.464Z</time></trkpt><trkpt lat="44.3126267" lon="10.7551067"><ele>815.0</ele><time>2026-04-26T08:15:38.464Z</time></trkpt><trkpt lat="44.3125033" lon="10.7548517"><ele>815.0</ele><time>2026-04-26T08:15:39.464Z</time></trkpt><trkpt lat="44.3123417" lon="10.7546183"><ele>815.0</ele><time>2026-04-26T08:15:40.464Z</time></trkpt><trkpt lat="44.3121583" lon="10.7543883"><ele>817.5</ele><time>2026-04-26T08:15:41.464Z</time></trkpt><trkpt lat="44.311975" lon="10.754155"><ele>820.0</ele><time>2026-04-26T08:15:42.464Z</time></trkpt><trkpt lat="44.31182" lon="10.75392"><ele>820.0</ele><time>2026-04-26T08:15:43.464Z</time></trkpt><trkpt lat="44.3116933" lon="10.7537133"><ele>820.0</ele><time>2026-04-26T08:15:44.464Z</time></trkpt><trkpt lat="44.3115617" lon="10.7535567"><ele>820.0</ele><time>2026-04-26T08:15:45.464Z</time></trkpt><trkpt lat="44.3114167" lon="10.7534333"><ele>824.0</ele><time>2026-04-26T08:15:46.464Z</time></trkpt><trkpt lat="44.3112717" lon="10.7533167"><ele>828.0</ele><time>2026-04-26T08:15:47.464Z</time></trkpt><trkpt lat="44.3111617" lon="10.75316"><ele>832.0</ele><time>2026-04-26T08:15:48.464Z</time></trkpt><trkpt lat="44.31109" lon="10.75297"><ele>832.0</ele><time>2026-04-26T08:15:49.464Z</time></trkpt><trkpt lat="44.31107" lon="10.752735"><ele>832.0</ele><time>2026-04-26T08:15:50.464Z</time></trkpt><trkpt lat="44.311055" lon="10.7524833"><ele>832.0</ele><time>2026-04-26T08:15:51.464Z</time></trkpt><trkpt lat="44.310995" lon="10.75223"><ele>831.6666666666666</ele><time>2026-04-26T08:15:52.464Z</time></trkpt><trkpt lat="44.3108817" lon="10.7520033"><ele>831.3333333333333</ele><time>2026-04-26T08:15:53.464Z</time></trkpt><trkpt lat="44.31075" lon="10.7517933"><ele>831.0</ele><time>2026-04-26T08:15:54.464Z</time></trkpt><trkpt lat="44.3106567" lon="10.7515733"><ele>831.0</ele><time>2026-04-26T08:15:55.464Z</time></trkpt><trkpt lat="44.3106083" lon="10.751355"><ele>831.0</ele><time>2026-04-26T08:15:56.464Z</time></trkpt><trkpt lat="44.3106167" lon="10.75114"><ele>831.0</ele><time>2026-04-26T08:15:57.464Z</time></trkpt><trkpt lat="44.3106767" lon="10.7509367"><ele>832.6666666666667</ele><time>2026-04-26T08:15:58.464Z</time></trkpt><trkpt lat="44.3107717" lon="10.7507767"><ele>834.3333333333334</ele><time>2026-04-26T08:15:59.464Z</time></trkpt><trkpt lat="44.3108867" lon="10.7506267"><ele>836.0</ele><time>2026-04-26T08:16:00.464Z</time></trkpt><trkpt lat="44.3109717" lon="10.7504467"><ele>838.6666666666667</ele><time>2026-04-26T08:16:01.464Z</time></trkpt><trkpt lat="44.3110033" lon="10.7502067"><ele>841.3333333333333</ele><time>2026-04-26T08:16:02.464Z</time></trkpt><trkpt lat="44.311035" lon="10.7499533"><ele>844.0</ele><time>2026-04-26T08:16:03.464Z</time></trkpt><trkpt lat="44.31111" lon="10.7497133"><ele>844.0</ele><time>2026-04-26T08:16:04.464Z</time></trkpt><trkpt lat="44.3112133" lon="10.7495017"><ele>844.0</ele><time>2026-04-26T08:16:05.464Z</time></trkpt><trkpt lat="44.31132" lon="10.7493333"><ele>844.0</ele><time>2026-04-26T08:16:06.464Z</time></trkpt><trkpt lat="44.3114183" lon="10.74919"><ele>844.4000000000001</ele><time>2026-04-26T08:16:07.464Z</time></trkpt><trkpt lat="44.3114967" lon="10.749065"><ele>844.8</ele><time>2026-04-26T08:16:08.464Z</time></trkpt><trkpt lat="44.3115217" lon="10.7489483"><ele>845.2</ele><time>2026-04-26T08:16:09.464Z</time></trkpt><trkpt lat="44.3114967" lon="10.7488317"><ele>845.5999999999999</ele><time>2026-04-26T08:16:10.464Z</time></trkpt><trkpt lat="44.3114383" lon="10.7487467"><ele>846.0</ele><time>2026-04-26T08:16:11.464Z</time></trkpt><trkpt lat="44.3113417" lon="10.74874"><ele>846.75</ele><time>2026-04-26T08:16:12.464Z</time></trkpt><trkpt lat="44.311225" lon="10.7487717"><ele>847.5</ele><time>2026-04-26T08:16:13.464Z</time></trkpt><trkpt lat="44.3110817" lon="10.748825"><ele>848.25</ele><time>2026-04-26T08:16:14.464Z</time></trkpt><trkpt lat="44.3109367" lon="10.748875"><ele>849.0</ele><time>2026-04-26T08:16:15.464Z</time></trkpt><trkpt lat="44.3107833" lon="10.7488833"><ele>849.0</ele><time>2026-04-26T08:16:16.464Z</time></trkpt><trkpt lat="44.3106433" lon="10.7488367"><ele>849.0</ele><time>2026-04-26T08:16:17.464Z</time></trkpt><trkpt lat="44.3105133" lon="10.74874"><ele>849.0</ele><time>2026-04-26T08:16:18.464Z</time></trkpt><trkpt lat="44.3104017" lon="10.7486017"><ele>849.0</ele><time>2026-04-26T08:16:19.464Z</time></trkpt><trkpt lat="44.310325" lon="10.7484583"><ele>848.0</ele><time>2026-04-26T08:16:20.464Z</time></trkpt><trkpt lat="44.3103067" lon="10.7482933"><ele>847.0</ele><time>2026-04-26T08:16:21.464Z</time></trkpt><trkpt lat="44.3103317" lon="10.74812"><ele>846.0</ele><time>2026-04-26T08:16:22.465Z</time></trkpt><trkpt lat="44.3104067" lon="10.7479417"><ele>845.0</ele><time>2026-04-26T08:16:23.464Z</time></trkpt><trkpt lat="44.3105017" lon="10.747765"><ele>851.25</ele><time>2026-04-26T08:16:24.464Z</time></trkpt><trkpt lat="44.310575" lon="10.74758"><ele>857.5</ele><time>2026-04-26T08:16:25.464Z</time></trkpt><trkpt lat="44.3106233" lon="10.7473883"><ele>863.75</ele><time>2026-04-26T08:16:26.464Z</time></trkpt><trkpt lat="44.310645" lon="10.74719"><ele>870.0</ele><time>2026-04-26T08:16:27.464Z</time></trkpt><trkpt lat="44.31065" lon="10.74699"><ele>870.75</ele><time>2026-04-26T08:16:28.464Z</time></trkpt><trkpt lat="44.310645" lon="10.7468"><ele>871.5</ele><time>2026-04-26T08:16:29.464Z</time></trkpt><trkpt lat="44.3106417" lon="10.7466083"><ele>872.25</ele><time>2026-04-26T08:16:30.464Z</time></trkpt><trkpt lat="44.3106617" lon="10.7464183"><ele>873.0</ele><time>2026-04-26T08:16:31.464Z</time></trkpt><trkpt lat="44.31069" lon="10.746225"><ele>874.0</ele><time>2026-04-26T08:16:32.464Z</time></trkpt><trkpt lat="44.3107217" lon="10.7460283"><ele>875.0</ele><time>2026-04-26T08:16:33.464Z</time></trkpt><trkpt lat="44.31075" lon="10.7458217"><ele>876.0</ele><time>2026-04-26T08:16:34.464Z</time></trkpt><trkpt lat="44.310775" lon="10.7456067"><ele>876.0</ele><time>2026-04-26T08:16:35.464Z</time></trkpt><trkpt lat="44.3107983" lon="10.7454"><ele>876.0</ele><time>2026-04-26T08:16:36.464Z</time></trkpt><trkpt lat="44.31081" lon="10.7451833"><ele>876.0</ele><time>2026-04-26T08:16:37.464Z</time></trkpt><trkpt lat="44.3108033" lon="10.7449833"><ele>876.0</ele><time>2026-04-26T08:16:38.464Z</time></trkpt><trkpt lat="44.310795" lon="10.7447883"><ele>875.0</ele><time>2026-04-26T08:16:39.464Z</time></trkpt><trkpt lat="44.3107883" lon="10.744605"><ele>874.0</ele><time>2026-04-26T08:16:40.464Z</time></trkpt><trkpt lat="44.3108" lon="10.7444117"><ele>873.0</ele><time>2026-04-26T08:16:41.464Z</time></trkpt><trkpt lat="44.3108233" lon="10.744215"><ele>872.0</ele><time>2026-04-26T08:16:42.464Z</time></trkpt><trkpt lat="44.310855" lon="10.7440167"><ele>871.25</ele><time>2026-04-26T08:16:43.464Z</time></trkpt><trkpt lat="44.3108833" lon="10.7438183"><ele>870.5</ele><time>2026-04-26T08:16:44.464Z</time></trkpt><trkpt lat="44.3109067" lon="10.7436283"><ele>869.75</ele><time>2026-04-26T08:16:45.464Z</time></trkpt><trkpt lat="44.310935" lon="10.7434467"><ele>869.0</ele><time>2026-04-26T08:16:46.464Z</time></trkpt><trkpt lat="44.310955" lon="10.7432767"><ele>869.0</ele><time>2026-04-26T08:16:47.464Z</time></trkpt><trkpt lat="44.3109733" lon="10.7431017"><ele>869.0</ele><time>2026-04-26T08:16:48.464Z</time></trkpt><trkpt lat="44.3109583" lon="10.7429233"><ele>869.0</ele><time>2026-04-26T08:16:49.464Z</time></trkpt><trkpt lat="44.3109267" lon="10.7427467"><ele>869.0</ele><time>2026-04-26T08:16:50.464Z</time></trkpt><trkpt lat="44.31089" lon="10.742575"><ele>869.75</ele><time>2026-04-26T08:16:51.464Z</time></trkpt><trkpt lat="44.3108517" lon="10.7424083"><ele>870.5</ele><time>2026-04-26T08:16:52.464Z</time></trkpt><trkpt lat="44.3108083" lon="10.7422383"><ele>871.25</ele><time>2026-04-26T08:16:53.464Z</time></trkpt><trkpt lat="44.3107633" lon="10.7420667"><ele>872.0</ele><time>2026-04-26T08:16:54.465Z</time></trkpt><trkpt lat="44.3107167" lon="10.741895"><ele>873.5</ele><time>2026-04-26T08:16:55.464Z</time></trkpt><trkpt lat="44.31066" lon="10.7417283"><ele>875.0</ele><time>2026-04-26T08:16:56.464Z</time></trkpt><trkpt lat="44.3105967" lon="10.74157"><ele>876.5</ele><time>2026-04-26T08:16:57.464Z</time></trkpt><trkpt lat="44.310525" lon="10.74142"><ele>878.0</ele><time>2026-04-26T08:16:58.464Z</time></trkpt><trkpt lat="44.3104533" lon="10.7412983"><ele>878.25</ele><time>2026-04-26T08:16:59.464Z</time></trkpt><trkpt lat="44.3103633" lon="10.7412033"><ele>878.5</ele><time>2026-04-26T08:17:00.464Z</time></trkpt><trkpt lat="44.3102717" lon="10.7411283"><ele>878.75</ele><time>2026-04-26T08:17:01.464Z</time></trkpt><trkpt lat="44.3101617" lon="10.74107"><ele>879.0</ele><time>2026-04-26T08:17:02.464Z</time></trkpt><trkpt lat="44.310045" lon="10.741025"><ele>879.0</ele><time>2026-04-26T08:17:03.464Z</time></trkpt><trkpt lat="44.3099233" lon="10.741015"><ele>879.0</ele><time>2026-04-26T08:17:04.464Z</time></trkpt><trkpt lat="44.3097983" lon="10.7409917"><ele>879.0</ele><time>2026-04-26T08:17:05.464Z</time></trkpt><trkpt lat="44.309665" lon="10.7409667"><ele>879.0</ele><time>2026-04-26T08:17:06.464Z</time></trkpt><trkpt lat="44.30954" lon="10.7409367"><ele>875.5</ele><time>2026-04-26T08:17:07.464Z</time></trkpt><trkpt lat="44.3094283" lon="10.740865"><ele>872.0</ele><time>2026-04-26T08:17:08.464Z</time></trkpt><trkpt lat="44.3093433" lon="10.7407583"><ele>868.5</ele><time>2026-04-26T08:17:09.464Z</time></trkpt><trkpt lat="44.3092767" lon="10.74061"><ele>865.0</ele><time>2026-04-26T08:17:10.464Z</time></trkpt><trkpt lat="44.30923" lon="10.74044"><ele>865.0</ele><time>2026-04-26T08:17:11.464Z</time></trkpt><trkpt lat="44.3091917" lon="10.7402617"><ele>865.0</ele><time>2026-04-26T08:17:12.464Z</time></trkpt><trkpt lat="44.309155" lon="10.740075"><ele>865.0</ele><time>2026-04-26T08:17:13.464Z</time></trkpt><trkpt lat="44.3091167" lon="10.7398917"><ele>865.0</ele><time>2026-04-26T08:17:14.464Z</time></trkpt><trkpt lat="44.3090783" lon="10.7397217"><ele>865.75</ele><time>2026-04-26T08:17:15.464Z</time></trkpt><trkpt lat="44.3090383" lon="10.739565"><ele>866.5</ele><time>2026-04-26T08:17:16.464Z</time></trkpt><trkpt lat="44.3089883" lon="10.7394167"><ele>867.25</ele><time>2026-04-26T08:17:17.464Z</time></trkpt><trkpt lat="44.3089417" lon="10.73927"><ele>868.0</ele><time>2026-04-26T08:17:18.464Z</time></trkpt><trkpt lat="44.3088967" lon="10.7391267"><ele>866.0</ele><time>2026-04-26T08:17:19.464Z</time></trkpt><trkpt lat="44.3088433" lon="10.7389933"><ele>864.0</ele><time>2026-04-26T08:17:20.464Z</time></trkpt><trkpt lat="44.308785" lon="10.738865"><ele>862.0</ele><time>2026-04-26T08:17:21.464Z</time></trkpt><trkpt lat="44.3087217" lon="10.7387467"><ele>860.0</ele><time>2026-04-26T08:17:22.464Z</time></trkpt><trkpt lat="44.3086517" lon="10.7386267"><ele>858.0</ele><time>2026-04-26T08:17:23.464Z</time></trkpt><trkpt lat="44.3085833" lon="10.7385033"><ele>857.25</ele><time>2026-04-26T08:17:24.464Z</time></trkpt><trkpt lat="44.3085083" lon="10.7383817"><ele>856.5</ele><time>2026-04-26T08:17:25.464Z</time></trkpt><trkpt lat="44.308435" lon="10.7382433"><ele>855.75</ele><time>2026-04-26T08:17:26.464Z</time></trkpt><trkpt lat="44.3083717" lon="10.7381"><ele>855.0</ele><time>2026-04-26T08:17:27.464Z</time></trkpt><trkpt lat="44.308315" lon="10.7379333"><ele>855.0</ele><time>2026-04-26T08:17:28.464Z</time></trkpt><trkpt lat="44.3082683" lon="10.7377633"><ele>855.0</ele><time>2026-04-26T08:17:29.464Z</time></trkpt><trkpt lat="44.3082267" lon="10.7375967"><ele>855.0</ele><time>2026-04-26T08:17:30.464Z</time></trkpt><trkpt lat="44.3081917" lon="10.73743"><ele>855.0</ele><time>2026-04-26T08:17:31.464Z</time></trkpt><trkpt lat="44.3081583" lon="10.7372583"><ele>853.75</ele><time>2026-04-26T08:17:32.464Z</time></trkpt><trkpt lat="44.3081233" lon="10.7370933"><ele>852.5</ele><time>2026-04-26T08:17:33.464Z</time></trkpt><trkpt lat="44.30809" lon="10.7369383"><ele>851.25</ele><time>2026-04-26T08:17:34.464Z</time></trkpt><trkpt lat="44.3080567" lon="10.736775"><ele>850.0</ele><time>2026-04-26T08:17:35.465Z</time></trkpt><trkpt lat="44.3080283" lon="10.7366167"><ele>849.75</ele><time>2026-04-26T08:17:36.464Z</time></trkpt><trkpt lat="44.3079983" lon="10.736455"><ele>849.5</ele><time>2026-04-26T08:17:37.464Z</time></trkpt><trkpt lat="44.307975" lon="10.7362817"><ele>849.25</ele><time>2026-04-26T08:17:38.464Z</time></trkpt><trkpt lat="44.3079483" lon="10.7361217"><ele>849.0</ele><time>2026-04-26T08:17:39.464Z</time></trkpt><trkpt lat="44.3079217" lon="10.73597"><ele>849.0</ele><time>2026-04-26T08:17:40.464Z</time></trkpt><trkpt lat="44.3079017" lon="10.7358133"><ele>849.0</ele><time>2026-04-26T08:17:41.464Z</time></trkpt><trkpt lat="44.3078867" lon="10.7356567"><ele>849.0</ele><time>2026-04-26T08:17:42.464Z</time></trkpt><trkpt lat="44.3078817" lon="10.73549"><ele>849.0</ele><time>2026-04-26T08:17:43.464Z</time></trkpt><trkpt lat="44.30788" lon="10.73532"><ele>848.5</ele><time>2026-04-26T08:17:44.464Z</time></trkpt><trkpt lat="44.30787" lon="10.73515"><ele>848.0</ele><time>2026-04-26T08:17:45.464Z</time></trkpt><trkpt lat="44.3078533" lon="10.734995"><ele>847.5</ele><time>2026-04-26T08:17:46.464Z</time></trkpt><trkpt lat="44.30785" lon="10.7348317"><ele>847.0</ele><time>2026-04-26T08:17:47.464Z</time></trkpt><trkpt lat="44.3078383" lon="10.7346783"><ele>847.0</ele><time>2026-04-26T08:17:48.464Z</time></trkpt><trkpt lat="44.307835" lon="10.734525"><ele>847.0</ele><time>2026-04-26T08:17:49.465Z</time></trkpt><trkpt lat="44.3078267" lon="10.7343717"><ele>847.0</ele><time>2026-04-26T08:17:50.464Z</time></trkpt><trkpt lat="44.3078317" lon="10.7342183"><ele>847.0</ele><time>2026-04-26T08:17:51.464Z</time></trkpt><trkpt lat="44.30783" lon="10.73408"><ele>847.0</ele><time>2026-04-26T08:17:52.464Z</time></trkpt><trkpt lat="44.3078267" lon="10.7339367"><ele>846.6</ele><time>2026-04-26T08:17:53.464Z</time></trkpt><trkpt lat="44.3078283" lon="10.7337867"><ele>846.2</ele><time>2026-04-26T08:17:54.464Z</time></trkpt><trkpt lat="44.30782" lon="10.7336517"><ele>845.8</ele><time>2026-04-26T08:17:55.465Z</time></trkpt><trkpt lat="44.3078117" lon="10.7335117"><ele>845.4</ele><time>2026-04-26T08:17:56.465Z</time></trkpt><trkpt lat="44.3078017" lon="10.7333767"><ele>845.0</ele><time>2026-04-26T08:17:57.464Z</time></trkpt><trkpt lat="44.307775" lon="10.733245"><ele>845.0</ele><time>2026-04-26T08:17:58.463Z</time></trkpt><trkpt lat="44.3077333" lon="10.7331217"><ele>845.0</ele><time>2026-04-26T08:17:59.463Z</time></trkpt><trkpt lat="44.3076817" lon="10.732995"><ele>845.0</ele><time>2026-04-26T08:18:00.463Z</time></trkpt><trkpt lat="44.3076333" lon="10.7328783"><ele>845.0</ele><time>2026-04-26T08:18:01.463Z</time></trkpt><trkpt lat="44.30758" lon="10.7327533"><ele>845.0</ele><time>2026-04-26T08:18:02.464Z</time></trkpt><trkpt lat="44.307525" lon="10.7326317"><ele>845.5000000000001</ele><time>2026-04-26T08:18:03.463Z</time></trkpt><trkpt lat="44.3074733" lon="10.7325167"><ele>846.0</ele><time>2026-04-26T08:18:04.463Z</time></trkpt><trkpt lat="44.3074217" lon="10.7324067"><ele>846.5</ele><time>2026-04-26T08:18:05.463Z</time></trkpt><trkpt lat="44.30738" lon="10.73229"><ele>847.0</ele><time>2026-04-26T08:18:06.463Z</time></trkpt><trkpt lat="44.3073433" lon="10.7321883"><ele>847.5000000000001</ele><time>2026-04-26T08:18:07.463Z</time></trkpt><trkpt lat="44.3073083" lon="10.7321033"><ele>848.0</ele><time>2026-04-26T08:18:08.463Z</time></trkpt><trkpt lat="44.3072733" lon="10.73198"><ele>847.0</ele><time>2026-04-26T08:18:10.463Z</time></trkpt><trkpt lat="44.307315" lon="10.7318583"><ele>846.0</ele><time>2026-04-26T08:18:13.463Z</time></trkpt><trkpt lat="44.3072117" lon="10.7317283"><ele>845.0</ele><time>2026-04-26T08:20:47.463Z</time></trkpt><trkpt lat="44.3071383" lon="10.731695"><ele>844.0</ele><time>2026-04-26T08:21:22.463Z</time></trkpt><trkpt lat="44.3070417" lon="10.73176"><ele>843.0</ele><time>2026-04-26T08:21:27.463Z</time></trkpt><trkpt lat="44.30704" lon="10.7316567"><ele>842.4285714285714</ele><time>2026-04-26T08:24:19.462Z</time></trkpt><trkpt lat="44.3071083" lon="10.73165"><ele>841.8571428571429</ele><time>2026-04-26T08:25:40.461Z</time></trkpt><trkpt lat="44.307175" lon="10.7316733"><ele>841.2857142857142</ele><time>2026-04-26T08:26:02.461Z</time></trkpt><trkpt lat="44.3071417" lon="10.73179"><ele>840.7142857142858</ele><time>2026-04-26T08:26:03.461Z</time></trkpt><trkpt lat="44.3071183" lon="10.7317083"><ele>840.1428571428572</ele><time>2026-04-26T08:26:05.461Z</time></trkpt><trkpt lat="44.30706" lon="10.7316717"><ele>839.5714285714286</ele><time>2026-04-26T08:26:30.461Z</time></trkpt><trkpt lat="44.3070483" lon="10.7317867"><ele>839.0</ele><time>2026-04-26T08:28:19.461Z</time></trkpt><trkpt lat="44.3071067" lon="10.731735"><ele>839.0</ele><time>2026-04-26T08:28:34.461Z</time></trkpt><trkpt lat="44.3072333" lon="10.7316667"><ele>839.0</ele><time>2026-04-26T08:29:58.46Z</time></trkpt><trkpt lat="44.3073267" lon="10.7318217"><ele>839.0</ele><time>2026-04-26T08:30:01.46Z</time></trkpt><trkpt lat="44.3073217" lon="10.7317333"><ele>839.0</ele><time>2026-04-26T08:30:41.46Z</time></trkpt><trkpt lat="44.3072567" lon="10.73172"><ele>839.0</ele><time>2026-04-26T08:31:05.46Z</time></trkpt><trkpt lat="44.3073267" lon="10.7318117"><ele>839.0000000000001</ele><time>2026-04-26T08:31:46.46Z</time></trkpt><trkpt lat="44.3074083" lon="10.731905"><ele>839.0</ele><time>2026-04-26T08:31:48.46Z</time></trkpt><trkpt lat="44.3073633" lon="10.7318367"><ele>839.0</ele><time>2026-04-26T08:31:52.46Z</time></trkpt><trkpt lat="44.30731" lon="10.731785"><ele>839.0</ele><time>2026-04-26T08:32:01.46Z</time></trkpt><trkpt lat="44.307265" lon="10.73172"><ele>839.0000000000001</ele><time>2026-04-26T08:32:08.46Z</time></trkpt><trkpt lat="44.3071983" lon="10.731615"><ele>839.0</ele><time>2026-04-26T08:32:31.46Z</time></trkpt><trkpt lat="44.307165" lon="10.73172"><ele>839.0</ele><time>2026-04-26T08:38:38.458Z</time></trkpt><trkpt lat="44.3072983" lon="10.7317733"><ele>839.0</ele><time>2026-04-26T08:39:46.457Z</time></trkpt><trkpt lat="44.307225" lon="10.731685"><ele>839.0</ele><time>2026-04-26T08:41:52.457Z</time></trkpt><trkpt lat="44.3071783" lon="10.7315717"><ele>839.0</ele><time>2026-04-26T08:41:54.457Z</time></trkpt><trkpt lat="44.30715" lon="10.7314917"><ele>839.0</ele><time>2026-04-26T08:41:55.457Z</time></trkpt><trkpt lat="44.3071217" lon="10.7314067"><ele>839.0</ele><time>2026-04-26T08:41:56.457Z</time></trkpt><trkpt lat="44.3070783" lon="10.73127"><ele>839.0</ele><time>2026-04-26T08:41:58.457Z</time></trkpt><trkpt lat="44.307045" lon="10.7311583"><ele>839.0</ele><time>2026-04-26T08:42:00.457Z</time></trkpt><trkpt lat="44.307005" lon="10.7309883"><ele>839.0</ele><time>2026-04-26T08:42:02.457Z</time></trkpt><trkpt lat="44.3069917" lon="10.7308667"><ele>839.0</ele><time>2026-04-26T08:42:03.457Z</time></trkpt><trkpt lat="44.306985" lon="10.7307483"><ele>839.5000000000001</ele><time>2026-04-26T08:42:04.457Z</time></trkpt><trkpt lat="44.30698" lon="10.7306367"><ele>840.0</ele><time>2026-04-26T08:42:05.457Z</time></trkpt><trkpt lat="44.3069783" lon="10.7305333"><ele>840.5</ele><time>2026-04-26T08:42:06.457Z</time></trkpt><trkpt lat="44.3069817" lon="10.7304283"><ele>841.0</ele><time>2026-04-26T08:42:07.457Z</time></trkpt><trkpt lat="44.30698" lon="10.7303217"><ele>841.5000000000001</ele><time>2026-04-26T08:42:08.457Z</time></trkpt><trkpt lat="44.306985" lon="10.7302167"><ele>842.0</ele><time>2026-04-26T08:42:09.457Z</time></trkpt><trkpt lat="44.306985" lon="10.7301183"><ele>842.0000000000001</ele><time>2026-04-26T08:42:10.457Z</time></trkpt><trkpt lat="44.30699" lon="10.7300283"><ele>842.0</ele><time>2026-04-26T08:42:11.457Z</time></trkpt><trkpt lat="44.30699" lon="10.7299333"><ele>842.0</ele><time>2026-04-26T08:42:12.457Z</time></trkpt><trkpt lat="44.3069883" lon="10.72984"><ele>842.0</ele><time>2026-04-26T08:42:13.457Z</time></trkpt><trkpt lat="44.306985" lon="10.72974"><ele>842.0</ele><time>2026-04-26T08:42:14.457Z</time></trkpt><trkpt lat="44.3069783" lon="10.7296333"><ele>842.0000000000001</ele><time>2026-04-26T08:42:15.457Z</time></trkpt><trkpt lat="44.3069667" lon="10.7295217"><ele>842.0</ele><time>2026-04-26T08:42:16.457Z</time></trkpt><trkpt lat="44.3069483" lon="10.7293933"><ele>841.75</ele><time>2026-04-26T08:42:17.457Z</time></trkpt><trkpt lat="44.306925" lon="10.7292533"><ele>841.5</ele><time>2026-04-26T08:42:18.457Z</time></trkpt><trkpt lat="44.30688" lon="10.7291017"><ele>841.25</ele><time>2026-04-26T08:42:19.457Z</time></trkpt><trkpt lat="44.3068317" lon="10.728945"><ele>841.0</ele><time>2026-04-26T08:42:20.457Z</time></trkpt><trkpt lat="44.3067883" lon="10.72879"><ele>841.0</ele><time>2026-04-26T08:42:21.457Z</time></trkpt><trkpt lat="44.306745" lon="10.72862"><ele>841.0</ele><time>2026-04-26T08:42:22.457Z</time></trkpt><trkpt lat="44.3066967" lon="10.72846"><ele>841.0</ele><time>2026-04-26T08:42:23.458Z</time></trkpt><trkpt lat="44.3066483" lon="10.7282933"><ele>841.0</ele><time>2026-04-26T08:42:24.457Z</time></trkpt><trkpt lat="44.3065883" lon="10.7281333"><ele>840.75</ele><time>2026-04-26T08:42:25.457Z</time></trkpt><trkpt lat="44.306515" lon="10.7279917"><ele>840.5</ele><time>2026-04-26T08:42:26.457Z</time></trkpt><trkpt lat="44.3064383" lon="10.7278717"><ele>840.25</ele><time>2026-04-26T08:42:27.457Z</time></trkpt><trkpt lat="44.3063667" lon="10.7277483"><ele>840.0</ele><time>2026-04-26T08:42:28.457Z</time></trkpt><trkpt lat="44.3063083" lon="10.727605"><ele>839.0</ele><time>2026-04-26T08:42:29.457Z</time></trkpt><trkpt lat="44.3062583" lon="10.7274667"><ele>838.0</ele><time>2026-04-26T08:42:30.457Z</time></trkpt><trkpt lat="44.306215" lon="10.727315"><ele>837.0</ele><time>2026-04-26T08:42:31.457Z</time></trkpt><trkpt lat="44.3061733" lon="10.7271567"><ele>836.0</ele><time>2026-04-26T08:42:32.457Z</time></trkpt><trkpt lat="44.306135" lon="10.7270033"><ele>836.5</ele><time>2026-04-26T08:42:33.457Z</time></trkpt><trkpt lat="44.30609" lon="10.7268417"><ele>837.0</ele><time>2026-04-26T08:42:34.457Z</time></trkpt><trkpt lat="44.3060533" lon="10.72669"><ele>837.5</ele><time>2026-04-26T08:42:35.457Z</time></trkpt><trkpt lat="44.3060367" lon="10.7265183"><ele>838.0</ele><time>2026-04-26T08:42:36.457Z</time></trkpt><trkpt lat="44.3060433" lon="10.7263483"><ele>838.0</ele><time>2026-04-26T08:42:37.457Z</time></trkpt><trkpt lat="44.3060683" lon="10.7261733"><ele>838.0</ele><time>2026-04-26T08:42:38.457Z</time></trkpt><trkpt lat="44.3060917" lon="10.726005"><ele>838.0</ele><time>2026-04-26T08:42:39.457Z</time></trkpt><trkpt lat="44.306115" lon="10.7258483"><ele>838.0</ele><time>2026-04-26T08:42:40.457Z</time></trkpt><trkpt lat="44.3061133" lon="10.7257033"><ele>838.5</ele><time>2026-04-26T08:42:41.457Z</time></trkpt><trkpt lat="44.3061033" lon="10.7255467"><ele>839.0</ele><time>2026-04-26T08:42:42.457Z</time></trkpt><trkpt lat="44.3060917" lon="10.72539"><ele>839.5</ele><time>2026-04-26T08:42:43.457Z</time></trkpt><trkpt lat="44.306085" lon="10.72523"><ele>840.0</ele><time>2026-04-26T08:42:44.457Z</time></trkpt><trkpt lat="44.3060933" lon="10.725065"><ele>841.0</ele><time>2026-04-26T08:42:45.458Z</time></trkpt><trkpt lat="44.30613" lon="10.724905"><ele>842.0</ele><time>2026-04-26T08:42:46.457Z</time></trkpt><trkpt lat="44.3061983" lon="10.7247833"><ele>843.0</ele><time>2026-04-26T08:42:47.457Z</time></trkpt><trkpt lat="44.306285" lon="10.7246817"><ele>844.0</ele><time>2026-04-26T08:42:48.457Z</time></trkpt><trkpt lat="44.306375" lon="10.7245767"><ele>845.0</ele><time>2026-04-26T08:42:49.457Z</time></trkpt><trkpt lat="44.306435" lon="10.7244417"><ele>846.0</ele><time>2026-04-26T08:42:50.457Z</time></trkpt><trkpt lat="44.3064567" lon="10.724305"><ele>847.0</ele><time>2026-04-26T08:42:51.457Z</time></trkpt><trkpt lat="44.30644" lon="10.7241883"><ele>848.0</ele><time>2026-04-26T08:42:52.457Z</time></trkpt><trkpt lat="44.3063867" lon="10.72407"><ele>849.0</ele><time>2026-04-26T08:42:53.457Z</time></trkpt><trkpt lat="44.3063067" lon="10.7239467"><ele>849.0</ele><time>2026-04-26T08:42:54.457Z</time></trkpt><trkpt lat="44.3062117" lon="10.7238283"><ele>849.0</ele><time>2026-04-26T08:42:55.457Z</time></trkpt><trkpt lat="44.3060967" lon="10.723715"><ele>849.0</ele><time>2026-04-26T08:42:56.457Z</time></trkpt><trkpt lat="44.3059817" lon="10.7236017"><ele>849.0</ele><time>2026-04-26T08:42:57.457Z</time></trkpt><trkpt lat="44.30588" lon="10.723475"><ele>847.75</ele><time>2026-04-26T08:42:58.457Z</time></trkpt><trkpt lat="44.305795" lon="10.7233333"><ele>846.5</ele><time>2026-04-26T08:42:59.457Z</time></trkpt><trkpt lat="44.305725" lon="10.7231817"><ele>845.25</ele><time>2026-04-26T08:43:00.457Z</time></trkpt><trkpt lat="44.3056583" lon="10.723025"><ele>844.0</ele><time>2026-04-26T08:43:01.457Z</time></trkpt><trkpt lat="44.3055983" lon="10.7228733"><ele>843.6</ele><time>2026-04-26T08:43:02.457Z</time></trkpt><trkpt lat="44.3055217" lon="10.7227467"><ele>843.2</ele><time>2026-04-26T08:43:03.457Z</time></trkpt><trkpt lat="44.305435" lon="10.722675"><ele>842.8000000000001</ele><time>2026-04-26T08:43:04.457Z</time></trkpt><trkpt lat="44.30533" lon="10.7226367"><ele>842.4000000000001</ele><time>2026-04-26T08:43:05.457Z</time></trkpt><trkpt lat="44.30522" lon="10.722635"><ele>842.0</ele><time>2026-04-26T08:43:06.457Z</time></trkpt><trkpt lat="44.3050983" lon="10.7226267"><ele>842.0</ele><time>2026-04-26T08:43:07.457Z</time></trkpt><trkpt lat="44.3049767" lon="10.7226"><ele>842.0</ele><time>2026-04-26T08:43:08.457Z</time></trkpt><trkpt lat="44.30484" lon="10.7225433"><ele>842.0</ele><time>2026-04-26T08:43:09.457Z</time></trkpt><trkpt lat="44.3047083" lon="10.7224817"><ele>842.0</ele><time>2026-04-26T08:43:10.457Z</time></trkpt><trkpt lat="44.30458" lon="10.7224083"><ele>842.0</ele><time>2026-04-26T08:43:11.457Z</time></trkpt><trkpt lat="44.3044583" lon="10.722335"><ele>842.0</ele><time>2026-04-26T08:43:12.457Z</time></trkpt><trkpt lat="44.3043367" lon="10.722245"><ele>842.0</ele><time>2026-04-26T08:43:13.457Z</time></trkpt><trkpt lat="44.3042267" lon="10.72214"><ele>842.0</ele><time>2026-04-26T08:43:14.457Z</time></trkpt><trkpt lat="44.3041317" lon="10.7220117"><ele>842.5</ele><time>2026-04-26T08:43:15.457Z</time></trkpt><trkpt lat="44.304035" lon="10.7218883"><ele>843.0</ele><time>2026-04-26T08:43:16.457Z</time></trkpt><trkpt lat="44.3039367" lon="10.7217567"><ele>843.5</ele><time>2026-04-26T08:43:17.457Z</time></trkpt><trkpt lat="44.3038433" lon="10.7216283"><ele>844.0</ele><time>2026-04-26T08:43:18.457Z</time></trkpt><trkpt lat="44.3037617" lon="10.7214967"><ele>845.0</ele><time>2026-04-26T08:43:19.457Z</time></trkpt><trkpt lat="44.3037" lon="10.721365"><ele>846.0</ele><time>2026-04-26T08:43:20.457Z</time></trkpt><trkpt lat="44.30367" lon="10.7212167"><ele>847.0</ele><time>2026-04-26T08:43:21.457Z</time></trkpt><trkpt lat="44.303665" lon="10.721045"><ele>848.0</ele><time>2026-04-26T08:43:22.456Z</time></trkpt><trkpt lat="44.3036767" lon="10.72087"><ele>850.5</ele><time>2026-04-26T08:43:23.456Z</time></trkpt><trkpt lat="44.303695" lon="10.7207083"><ele>853.0</ele><time>2026-04-26T08:43:24.456Z</time></trkpt><trkpt lat="44.3037083" lon="10.720545"><ele>855.5</ele><time>2026-04-26T08:43:25.456Z</time></trkpt><trkpt lat="44.30369" lon="10.720385"><ele>858.0</ele><time>2026-04-26T08:43:26.456Z</time></trkpt><trkpt lat="44.303645" lon="10.7202167"><ele>860.0</ele><time>2026-04-26T08:43:27.456Z</time></trkpt><trkpt lat="44.30358" lon="10.7200617"><ele>862.0</ele><time>2026-04-26T08:43:28.456Z</time></trkpt><trkpt lat="44.3035083" lon="10.7199167"><ele>864.0</ele><time>2026-04-26T08:43:29.457Z</time></trkpt><trkpt lat="44.303445" lon="10.719765"><ele>866.0</ele><time>2026-04-26T08:43:30.456Z</time></trkpt><trkpt lat="44.3033867" lon="10.7196183"><ele>866.0</ele><time>2026-04-26T08:43:31.456Z</time></trkpt><trkpt lat="44.3033517" lon="10.7194583"><ele>865.9999999999999</ele><time>2026-04-26T08:43:32.456Z</time></trkpt><trkpt lat="44.303335" lon="10.7193067"><ele>865.9999999999999</ele><time>2026-04-26T08:43:33.456Z</time></trkpt><trkpt lat="44.303335" lon="10.71917"><ele>866.0</ele><time>2026-04-26T08:43:34.456Z</time></trkpt><trkpt lat="44.30333" lon="10.7190533"><ele>866.0</ele><time>2026-04-26T08:43:35.456Z</time></trkpt><trkpt lat="44.3033133" lon="10.7189567"><ele>866.0</ele><time>2026-04-26T08:43:36.456Z</time></trkpt><trkpt lat="44.303255" lon="10.7188917"><ele>865.9999999999999</ele><time>2026-04-26T08:43:38.456Z</time></trkpt><trkpt lat="44.3031967" lon="10.7190267"><ele>865.9999999999999</ele><time>2026-04-26T08:43:40.456Z</time></trkpt><trkpt lat="44.303205" lon="10.719165"><ele>866.0</ele><time>2026-04-26T08:43:41.456Z</time></trkpt><trkpt lat="44.3032133" lon="10.7192917"><ele>866.0</ele><time>2026-04-26T08:43:42.456Z</time></trkpt><trkpt lat="44.3032233" lon="10.7194067"><ele>866.0000000000001</ele><time>2026-04-26T08:43:43.456Z</time></trkpt><trkpt lat="44.30324" lon="10.7195233"><ele>866.0</ele><time>2026-04-26T08:43:44.456Z</time></trkpt><trkpt lat="44.3032383" lon="10.7196283"><ele>866.0</ele><time>2026-04-26T08:43:45.456Z</time></trkpt><trkpt lat="44.3031867" lon="10.7197433"><ele>866.0</ele><time>2026-04-26T08:43:47.456Z</time></trkpt><trkpt lat="44.30312" lon="10.71965"><ele>866.0000000000001</ele><time>2026-04-26T08:43:49.456Z</time></trkpt><trkpt lat="44.30309" lon="10.71953"><ele>866.0</ele><time>2026-04-26T08:43:50.456Z</time></trkpt><trkpt lat="44.3030617" lon="10.7193683"><ele>871.75</ele><time>2026-04-26T08:43:51.456Z</time></trkpt><trkpt lat="44.303025" lon="10.7191933"><ele>877.5</ele><time>2026-04-26T08:43:52.456Z</time></trkpt><trkpt lat="44.3029683" lon="10.7190133"><ele>883.25</ele><time>2026-04-26T08:43:53.456Z</time></trkpt><trkpt lat="44.3029083" lon="10.718835"><ele>889.0</ele><time>2026-04-26T08:43:54.456Z</time></trkpt><trkpt lat="44.3028267" lon="10.718645"><ele>888.6666666666666</ele><time>2026-04-26T08:43:55.456Z</time></trkpt><trkpt lat="44.30274" lon="10.7184267"><ele>888.3333333333333</ele><time>2026-04-26T08:43:56.456Z</time></trkpt><trkpt lat="44.30266" lon="10.718175"><ele>888.0</ele><time>2026-04-26T08:43:57.456Z</time></trkpt><trkpt lat="44.3026033" lon="10.7178967"><ele>886.6666666666667</ele><time>2026-04-26T08:43:58.456Z</time></trkpt><trkpt lat="44.3025533" lon="10.7176617"><ele>885.3333333333334</ele><time>2026-04-26T08:43:59.457Z</time></trkpt><trkpt lat="44.3025233" lon="10.7174333"><ele>884.0</ele><time>2026-04-26T08:44:00.456Z</time></trkpt><trkpt lat="44.3024783" lon="10.7172667"><ele>884.0</ele><time>2026-04-26T08:44:01.456Z</time></trkpt><trkpt lat="44.302395" lon="10.7171483"><ele>884.0</ele><time>2026-04-26T08:44:02.456Z</time></trkpt><trkpt lat="44.3022817" lon="10.7170717"><ele>884.0</ele><time>2026-04-26T08:44:03.456Z</time></trkpt><trkpt lat="44.3021417" lon="10.7170383"><ele>884.0</ele><time>2026-04-26T08:44:04.457Z</time></trkpt><trkpt lat="44.3019733" lon="10.717045"><ele>891.3333333333334</ele><time>2026-04-26T08:44:05.456Z</time></trkpt><trkpt lat="44.301795" lon="10.71705"><ele>898.6666666666667</ele><time>2026-04-26T08:44:06.456Z</time></trkpt><trkpt lat="44.3016083" lon="10.7170633"><ele>906.0</ele><time>2026-04-26T08:44:07.456Z</time></trkpt><trkpt lat="44.30143" lon="10.7170617"><ele>908.0</ele><time>2026-04-26T08:44:08.456Z</time></trkpt><trkpt lat="44.3012683" lon="10.7170317"><ele>910.0</ele><time>2026-04-26T08:44:09.456Z</time></trkpt><trkpt lat="44.3011067" lon="10.716955"><ele>912.0</ele><time>2026-04-26T08:44:10.456Z</time></trkpt><trkpt lat="44.300965" lon="10.7168367"><ele>907.6666666666667</ele><time>2026-04-26T08:44:11.456Z</time></trkpt><trkpt lat="44.3008283" lon="10.716675"><ele>903.3333333333334</ele><time>2026-04-26T08:44:12.456Z</time></trkpt><trkpt lat="44.30073" lon="10.7164767"><ele>899.0</ele><time>2026-04-26T08:44:13.456Z</time></trkpt><trkpt lat="44.30064" lon="10.7162733"><ele>899.0</ele><time>2026-04-26T08:44:14.456Z</time></trkpt><trkpt lat="44.30057" lon="10.7160817"><ele>899.0</ele><time>2026-04-26T08:44:15.456Z</time></trkpt><trkpt lat="44.3005133" lon="10.7158867"><ele>899.0</ele><time>2026-04-26T08:44:16.456Z</time></trkpt><trkpt lat="44.30046" lon="10.7156867"><ele>899.0</ele><time>2026-04-26T08:44:17.456Z</time></trkpt><trkpt lat="44.3004083" lon="10.7154883"><ele>899.0</ele><time>2026-04-26T08:44:18.456Z</time></trkpt><trkpt lat="44.300355" lon="10.715315"><ele>899.0</ele><time>2026-04-26T08:44:19.456Z</time></trkpt><trkpt lat="44.300295" lon="10.71516"><ele>899.0</ele><time>2026-04-26T08:44:20.456Z</time></trkpt><trkpt lat="44.30022" lon="10.71501"><ele>898.75</ele><time>2026-04-26T08:44:21.456Z</time></trkpt><trkpt lat="44.3001167" lon="10.7148783"><ele>898.5</ele><time>2026-04-26T08:44:22.456Z</time></trkpt><trkpt lat="44.30001" lon="10.7147367"><ele>898.25</ele><time>2026-04-26T08:44:23.456Z</time></trkpt><trkpt lat="44.2998933" lon="10.71459"><ele>898.0</ele><time>2026-04-26T08:44:24.456Z</time></trkpt><trkpt lat="44.2997767" lon="10.714435"><ele>897.3333333333333</ele><time>2026-04-26T08:44:25.456Z</time></trkpt><trkpt lat="44.299655" lon="10.7142783"><ele>896.6666666666667</ele><time>2026-04-26T08:44:26.456Z</time></trkpt><trkpt lat="44.2995317" lon="10.7141233"><ele>896.0</ele><time>2026-04-26T08:44:27.456Z</time></trkpt><trkpt lat="44.2994117" lon="10.7139733"><ele>896.0</ele><time>2026-04-26T08:44:28.456Z</time></trkpt><trkpt lat="44.299295" lon="10.713825"><ele>896.0</ele><time>2026-04-26T08:44:29.456Z</time></trkpt><trkpt lat="44.2991917" lon="10.7136783"><ele>896.0</ele><time>2026-04-26T08:44:30.456Z</time></trkpt><trkpt lat="44.2991317" lon="10.7135317"><ele>896.0</ele><time>2026-04-26T08:44:31.457Z</time></trkpt><trkpt lat="44.2991067" lon="10.7133667"><ele>899.25</ele><time>2026-04-26T08:44:32.456Z</time></trkpt><trkpt lat="44.2990783" lon="10.7131867"><ele>902.5</ele><time>2026-04-26T08:44:33.456Z</time></trkpt><trkpt lat="44.2990167" lon="10.7130083"><ele>905.75</ele><time>2026-04-26T08:44:34.456Z</time></trkpt><trkpt lat="44.2989233" lon="10.712835"><ele>909.0</ele><time>2026-04-26T08:44:35.456Z</time></trkpt><trkpt lat="44.2988067" lon="10.7126733"><ele>910.0</ele><time>2026-04-26T08:44:36.456Z</time></trkpt><trkpt lat="44.2986717" lon="10.7125317"><ele>911.0</ele><time>2026-04-26T08:44:37.456Z</time></trkpt><trkpt lat="44.29853" lon="10.7123917"><ele>912.0</ele><time>2026-04-26T08:44:38.456Z</time></trkpt><trkpt lat="44.2983817" lon="10.7122717"><ele>912.0</ele><time>2026-04-26T08:44:39.456Z</time></trkpt><trkpt lat="44.2982533" lon="10.7121317"><ele>912.0</ele><time>2026-04-26T08:44:40.456Z</time></trkpt><trkpt lat="44.298125" lon="10.7119717"><ele>912.0</ele><time>2026-04-26T08:44:41.456Z</time></trkpt><trkpt lat="44.29799" lon="10.7118083"><ele>912.3333333333333</ele><time>2026-04-26T08:44:42.456Z</time></trkpt><trkpt lat="44.2978467" lon="10.7116433"><ele>912.6666666666666</ele><time>2026-04-26T08:44:43.456Z</time></trkpt><trkpt lat="44.2977033" lon="10.7114867"><ele>913.0</ele><time>2026-04-26T08:44:44.456Z</time></trkpt><trkpt lat="44.2975783" lon="10.7113483"><ele>913.0</ele><time>2026-04-26T08:44:45.456Z</time></trkpt><trkpt lat="44.2974517" lon="10.7112183"><ele>913.0</ele><time>2026-04-26T08:44:46.456Z</time></trkpt><trkpt lat="44.2973167" lon="10.7110983"><ele>913.0</ele><time>2026-04-26T08:44:47.456Z</time></trkpt><trkpt lat="44.2971883" lon="10.7110033"><ele>916.25</ele><time>2026-04-26T08:44:48.456Z</time></trkpt><trkpt lat="44.29706" lon="10.7109217"><ele>919.5</ele><time>2026-04-26T08:44:49.456Z</time></trkpt><trkpt lat="44.29692" lon="10.71084"><ele>922.75</ele><time>2026-04-26T08:44:50.456Z</time></trkpt><trkpt lat="44.29679" lon="10.71076"><ele>926.0</ele><time>2026-04-26T08:44:51.456Z</time></trkpt><trkpt lat="44.29666" lon="10.710695"><ele>926.0</ele><time>2026-04-26T08:44:52.456Z</time></trkpt><trkpt lat="44.2965267" lon="10.7106483"><ele>926.0</ele><time>2026-04-26T08:44:53.456Z</time></trkpt><trkpt lat="44.2963933" lon="10.7106217"><ele>926.0</ele><time>2026-04-26T08:44:54.456Z</time></trkpt><trkpt lat="44.296265" lon="10.71063"><ele>926.0</ele><time>2026-04-26T08:44:55.457Z</time></trkpt><trkpt lat="44.29613" lon="10.7106433"><ele>926.3333333333334</ele><time>2026-04-26T08:44:56.456Z</time></trkpt><trkpt lat="44.2959867" lon="10.7106433"><ele>926.6666666666667</ele><time>2026-04-26T08:44:57.456Z</time></trkpt><trkpt lat="44.2958383" lon="10.7106067"><ele>927.0</ele><time>2026-04-26T08:44:58.456Z</time></trkpt><trkpt lat="44.29568" lon="10.7105317"><ele>925.3333333333333</ele><time>2026-04-26T08:44:59.456Z</time></trkpt><trkpt lat="44.2955283" lon="10.710425"><ele>923.6666666666666</ele><time>2026-04-26T08:45:00.456Z</time></trkpt><trkpt lat="44.2953783" lon="10.71029"><ele>922.0</ele><time>2026-04-26T08:45:01.456Z</time></trkpt><trkpt lat="44.29525" lon="10.7101533"><ele>924.5</ele><time>2026-04-26T08:45:02.456Z</time></trkpt><trkpt lat="44.2951417" lon="10.71001"><ele>927.0</ele><time>2026-04-26T08:45:03.456Z</time></trkpt><trkpt lat="44.295045" lon="10.7098417"><ele>929.5</ele><time>2026-04-26T08:45:04.456Z</time></trkpt><trkpt lat="44.2949583" lon="10.709685"><ele>932.0</ele><time>2026-04-26T08:45:05.456Z</time></trkpt><trkpt lat="44.2948683" lon="10.709545"><ele>932.0</ele><time>2026-04-26T08:45:06.456Z</time></trkpt><trkpt lat="44.294755" lon="10.7094633"><ele>932.0</ele><time>2026-04-26T08:45:07.457Z</time></trkpt><trkpt lat="44.2946133" lon="10.7094433"><ele>932.0</ele><time>2026-04-26T08:45:08.456Z</time></trkpt><trkpt lat="44.2944633" lon="10.7094283"><ele>932.0</ele><time>2026-04-26T08:45:09.457Z</time></trkpt><trkpt lat="44.2943217" lon="10.709395"><ele>934.6666666666667</ele><time>2026-04-26T08:45:10.456Z</time></trkpt><trkpt lat="44.2941767" lon="10.7093417"><ele>937.3333333333333</ele><time>2026-04-26T08:45:11.457Z</time></trkpt><trkpt lat="44.2940333" lon="10.709275"><ele>940.0</ele><time>2026-04-26T08:45:12.456Z</time></trkpt><trkpt lat="44.2938833" lon="10.7091967"><ele>940.0</ele><time>2026-04-26T08:45:13.456Z</time></trkpt><trkpt lat="44.2937467" lon="10.7090983"><ele>940.0</ele><time>2026-04-26T08:45:14.456Z</time></trkpt><trkpt lat="44.2936033" lon="10.70902"><ele>940.0</ele><time>2026-04-26T08:45:15.457Z</time></trkpt><trkpt lat="44.293455" lon="10.708935"><ele>940.0</ele><time>2026-04-26T08:45:16.456Z</time></trkpt><trkpt lat="44.2933167" lon="10.7088817"><ele>940.0</ele><time>2026-04-26T08:45:17.456Z</time></trkpt><trkpt lat="44.2931783" lon="10.7087967"><ele>940.0</ele><time>2026-04-26T08:45:18.456Z</time></trkpt><trkpt lat="44.2930283" lon="10.7087167"><ele>937.3333333333333</ele><time>2026-04-26T08:45:19.456Z</time></trkpt><trkpt lat="44.2928767" lon="10.7086567"><ele>934.6666666666667</ele><time>2026-04-26T08:45:20.456Z</time></trkpt><trkpt lat="44.2927183" lon="10.7085817"><ele>932.0</ele><time>2026-04-26T08:45:21.456Z</time></trkpt><trkpt lat="44.2925617" lon="10.7085117"><ele>935.6666666666667</ele><time>2026-04-26T08:45:22.456Z</time></trkpt><trkpt lat="44.2924083" lon="10.708435"><ele>939.3333333333333</ele><time>2026-04-26T08:45:23.457Z</time></trkpt><trkpt lat="44.2922683" lon="10.708315"><ele>943.0</ele><time>2026-04-26T08:45:24.456Z</time></trkpt><trkpt lat="44.29213" lon="10.7081467"><ele>943.0</ele><time>2026-04-26T08:45:25.456Z</time></trkpt><trkpt lat="44.2920167" lon="10.7079367"><ele>943.0</ele><time>2026-04-26T08:45:26.456Z</time></trkpt><trkpt lat="44.2919233" lon="10.7077117"><ele>943.0</ele><time>2026-04-26T08:45:27.456Z</time></trkpt><trkpt lat="44.29179" lon="10.7075083"><ele>945.3333333333333</ele><time>2026-04-26T08:45:28.454Z</time></trkpt><trkpt lat="44.2916517" lon="10.7073233"><ele>947.6666666666667</ele><time>2026-04-26T08:45:29.457Z</time></trkpt><trkpt lat="44.2915317" lon="10.7071433"><ele>950.0</ele><time>2026-04-26T08:45:30.456Z</time></trkpt><trkpt lat="44.2914117" lon="10.706985"><ele>955.0</ele><time>2026-04-26T08:45:31.456Z</time></trkpt><trkpt lat="44.2913033" lon="10.7068233"><ele>960.0</ele><time>2026-04-26T08:45:32.456Z</time></trkpt><trkpt lat="44.29119" lon="10.7066867"><ele>965.0</ele><time>2026-04-26T08:45:33.456Z</time></trkpt><trkpt lat="44.2910583" lon="10.706585"><ele>965.0</ele><time>2026-04-26T08:45:34.456Z</time></trkpt><trkpt lat="44.290905" lon="10.7065217"><ele>965.0</ele><time>2026-04-26T08:45:35.456Z</time></trkpt><trkpt lat="44.290735" lon="10.7064933"><ele>965.0</ele><time>2026-04-26T08:45:36.456Z</time></trkpt><trkpt lat="44.29057" lon="10.7064717"><ele>966.0</ele><time>2026-04-26T08:45:37.456Z</time></trkpt><trkpt lat="44.2904083" lon="10.7064617"><ele>967.0</ele><time>2026-04-26T08:45:38.456Z</time></trkpt><trkpt lat="44.2902633" lon="10.7064333"><ele>968.0</ele><time>2026-04-26T08:45:39.456Z</time></trkpt><trkpt lat="44.2901017" lon="10.70641"><ele>968.0</ele><time>2026-04-26T08:45:40.456Z</time></trkpt><trkpt lat="44.289935" lon="10.7064"><ele>968.0</ele><time>2026-04-26T08:45:41.456Z</time></trkpt><trkpt lat="44.28976" lon="10.70642"><ele>968.0</ele><time>2026-04-26T08:45:42.456Z</time></trkpt><trkpt lat="44.2895933" lon="10.70644"><ele>970.6666666666667</ele><time>2026-04-26T08:45:43.456Z</time></trkpt><trkpt lat="44.289425" lon="10.7064717"><ele>973.3333333333333</ele><time>2026-04-26T08:45:44.456Z</time></trkpt><trkpt lat="44.2892467" lon="10.7065233"><ele>976.0</ele><time>2026-04-26T08:45:45.456Z</time></trkpt><trkpt lat="44.2890917" lon="10.70656"><ele>976.0</ele><time>2026-04-26T08:45:46.456Z</time></trkpt><trkpt lat="44.2889483" lon="10.70661"><ele>976.0</ele><time>2026-04-26T08:45:47.456Z</time></trkpt><trkpt lat="44.2887983" lon="10.706675"><ele>976.0</ele><time>2026-04-26T08:45:48.456Z</time></trkpt><trkpt lat="44.2886433" lon="10.7067617"><ele>973.0</ele><time>2026-04-26T08:45:49.456Z</time></trkpt><trkpt lat="44.288495" lon="10.7068483"><ele>970.0</ele><time>2026-04-26T08:45:50.456Z</time></trkpt><trkpt lat="44.2883233" lon="10.7069233"><ele>967.0</ele><time>2026-04-26T08:45:51.456Z</time></trkpt><trkpt lat="44.2881583" lon="10.70698"><ele>965.0</ele><time>2026-04-26T08:45:52.456Z</time></trkpt><trkpt lat="44.2880033" lon="10.7070067"><ele>963.0</ele><time>2026-04-26T08:45:53.456Z</time></trkpt><trkpt lat="44.2878483" lon="10.7069533"><ele>961.0</ele><time>2026-04-26T08:45:54.456Z</time></trkpt><trkpt lat="44.2877" lon="10.7068517"><ele>967.0</ele><time>2026-04-26T08:45:55.456Z</time></trkpt><trkpt lat="44.287565" lon="10.7066833"><ele>973.0</ele><time>2026-04-26T08:45:56.457Z</time></trkpt><trkpt lat="44.28745" lon="10.70654"><ele>979.0</ele><time>2026-04-26T08:45:57.456Z</time></trkpt><trkpt lat="44.2873983" lon="10.7063933"><ele>979.0</ele><time>2026-04-26T08:45:58.456Z</time></trkpt><trkpt lat="44.287385" lon="10.7062217"><ele>979.0</ele><time>2026-04-26T08:45:59.457Z</time></trkpt><trkpt lat="44.287385" lon="10.7060333"><ele>979.0</ele><time>2026-04-26T08:46:00.456Z</time></trkpt><trkpt lat="44.287345" lon="10.7058517"><ele>979.0</ele><time>2026-04-26T08:46:01.456Z</time></trkpt><trkpt lat="44.2872517" lon="10.7056767"><ele>982.3333333333333</ele><time>2026-04-26T08:46:02.456Z</time></trkpt><trkpt lat="44.2871117" lon="10.705535"><ele>985.6666666666667</ele><time>2026-04-26T08:46:03.456Z</time></trkpt><trkpt lat="44.2869367" lon="10.7054433"><ele>989.0</ele><time>2026-04-26T08:46:04.456Z</time></trkpt><trkpt lat="44.2867633" lon="10.7053867"><ele>989.0</ele><time>2026-04-26T08:46:05.456Z</time></trkpt><trkpt lat="44.2866033" lon="10.7053583"><ele>989.0</ele><time>2026-04-26T08:46:06.456Z</time></trkpt><trkpt lat="44.286465" lon="10.7053317"><ele>989.0</ele><time>2026-04-26T08:46:07.456Z</time></trkpt><trkpt lat="44.2863483" lon="10.7052867"><ele>989.0</ele><time>2026-04-26T08:46:08.456Z</time></trkpt><trkpt lat="44.286265" lon="10.7051933"><ele>988.0</ele><time>2026-04-26T08:46:09.456Z</time></trkpt><trkpt lat="44.2862233" lon="10.70506"><ele>987.0</ele><time>2026-04-26T08:46:10.456Z</time></trkpt><trkpt lat="44.286205" lon="10.704885"><ele>986.0</ele><time>2026-04-26T08:46:11.456Z</time></trkpt><trkpt lat="44.28621" lon="10.7046717"><ele>985.0</ele><time>2026-04-26T08:46:12.456Z</time></trkpt><trkpt lat="44.2862533" lon="10.704465"><ele>985.6666666666666</ele><time>2026-04-26T08:46:13.456Z</time></trkpt><trkpt lat="44.2863517" lon="10.7042517"><ele>986.3333333333333</ele><time>2026-04-26T08:46:14.456Z</time></trkpt><trkpt lat="44.2864283" lon="10.7040333"><ele>987.0</ele><time>2026-04-26T08:46:15.456Z</time></trkpt><trkpt lat="44.2864517" lon="10.703815"><ele>996.3333333333333</ele><time>2026-04-26T08:46:16.456Z</time></trkpt><trkpt lat="44.28646" lon="10.7036067"><ele>1005.6666666666666</ele><time>2026-04-26T08:46:17.456Z</time></trkpt><trkpt lat="44.2864967" lon="10.7033967"><ele>1015.0</ele><time>2026-04-26T08:46:18.456Z</time></trkpt><trkpt lat="44.2865683" lon="10.7031883"><ele>1015.0</ele><time>2026-04-26T08:46:19.457Z</time></trkpt><trkpt lat="44.2866617" lon="10.70297"><ele>1015.0</ele><time>2026-04-26T08:46:20.457Z</time></trkpt><trkpt lat="44.2867467" lon="10.70274"><ele>1015.0</ele><time>2026-04-26T08:46:21.456Z</time></trkpt><trkpt lat="44.2868183" lon="10.7025083"><ele>1015.0</ele><time>2026-04-26T08:46:22.456Z</time></trkpt><trkpt lat="44.286885" lon="10.70227"><ele>1015.0</ele><time>2026-04-26T08:46:23.456Z</time></trkpt><trkpt lat="44.2869267" lon="10.70203"><ele>1015.0</ele><time>2026-04-26T08:46:24.457Z</time></trkpt><trkpt lat="44.2869533" lon="10.7017817"><ele>1015.0</ele><time>2026-04-26T08:46:25.456Z</time></trkpt><trkpt lat="44.2869883" lon="10.7015283"><ele>1015.0</ele><time>2026-04-26T08:46:26.456Z</time></trkpt><trkpt lat="44.28701" lon="10.7012883"><ele>1015.0</ele><time>2026-04-26T08:46:27.456Z</time></trkpt><trkpt lat="44.28702" lon="10.7010833"><ele>1017.3333333333333</ele><time>2026-04-26T08:46:28.456Z</time></trkpt><trkpt lat="44.286985" lon="10.7008767"><ele>1019.6666666666667</ele><time>2026-04-26T08:46:29.456Z</time></trkpt><trkpt lat="44.2869017" lon="10.70067"><ele>1022.0</ele><time>2026-04-26T08:46:30.456Z</time></trkpt><trkpt lat="44.286805" lon="10.700485"><ele>1022.0</ele><time>2026-04-26T08:46:31.456Z</time></trkpt><trkpt lat="44.2867033" lon="10.7003367"><ele>1022.0</ele><time>2026-04-26T08:46:32.456Z</time></trkpt><trkpt lat="44.2865817" lon="10.7002517"><ele>1022.0</ele><time>2026-04-26T08:46:33.456Z</time></trkpt><trkpt lat="44.28645" lon="10.700245"><ele>1022.0</ele><time>2026-04-26T08:46:34.456Z</time></trkpt><trkpt lat="44.286325" lon="10.7003233"><ele>1021.5</ele><time>2026-04-26T08:46:35.456Z</time></trkpt><trkpt lat="44.2861833" lon="10.7003883"><ele>1021.0</ele><time>2026-04-26T08:46:36.456Z</time></trkpt><trkpt lat="44.2860383" lon="10.700405"><ele>1020.5</ele><time>2026-04-26T08:46:37.457Z</time></trkpt><trkpt lat="44.2859067" lon="10.7003667"><ele>1020.0</ele><time>2026-04-26T08:46:38.456Z</time></trkpt><trkpt lat="44.2857883" lon="10.70026"><ele>1019.6666666666667</ele><time>2026-04-26T08:46:39.456Z</time></trkpt><trkpt lat="44.2856733" lon="10.7001117"><ele>1019.3333333333334</ele><time>2026-04-26T08:46:40.457Z</time></trkpt><trkpt lat="44.2855683" lon="10.699925"><ele>1019.0</ele><time>2026-04-26T08:46:41.456Z</time></trkpt><trkpt lat="44.2854783" lon="10.6997133"><ele>1019.0</ele><time>2026-04-26T08:46:42.456Z</time></trkpt><trkpt lat="44.2853933" lon="10.69951"><ele>1019.0</ele><time>2026-04-26T08:46:43.456Z</time></trkpt><trkpt lat="44.2853317" lon="10.6993167"><ele>1019.0</ele><time>2026-04-26T08:46:44.456Z</time></trkpt><trkpt lat="44.2853" lon="10.6991"><ele>1023.3333333333334</ele><time>2026-04-26T08:46:45.456Z</time></trkpt><trkpt lat="44.2852883" lon="10.6988583"><ele>1027.6666666666667</ele><time>2026-04-26T08:46:46.456Z</time></trkpt><trkpt lat="44.2852917" lon="10.698605"><ele>1032.0</ele><time>2026-04-26T08:46:47.456Z</time></trkpt><trkpt lat="44.28529" lon="10.698355"><ele>1033.3333333333333</ele><time>2026-04-26T08:46:48.457Z</time></trkpt><trkpt lat="44.2852917" lon="10.6981183"><ele>1034.6666666666665</ele><time>2026-04-26T08:46:49.456Z</time></trkpt><trkpt lat="44.2852983" lon="10.6978967"><ele>1036.0</ele><time>2026-04-26T08:46:50.456Z</time></trkpt><trkpt lat="44.28531" lon="10.6977"><ele>1037.75</ele><time>2026-04-26T08:46:51.456Z</time></trkpt><trkpt lat="44.2853367" lon="10.6975217"><ele>1039.5</ele><time>2026-04-26T08:46:52.456Z</time></trkpt><trkpt lat="44.2853633" lon="10.6973517"><ele>1041.25</ele><time>2026-04-26T08:46:53.456Z</time></trkpt><trkpt lat="44.2853533" lon="10.6972017"><ele>1043.0</ele><time>2026-04-26T08:46:54.456Z</time></trkpt><trkpt lat="44.2853067" lon="10.6970567"><ele>1043.0</ele><time>2026-04-26T08:46:55.456Z</time></trkpt><trkpt lat="44.2852267" lon="10.696955"><ele>1043.0</ele><time>2026-04-26T08:46:56.456Z</time></trkpt><trkpt lat="44.2851333" lon="10.696845"><ele>1043.0</ele><time>2026-04-26T08:46:57.456Z</time></trkpt><trkpt lat="44.2850183" lon="10.69674"><ele>1043.0</ele><time>2026-04-26T08:46:58.456Z</time></trkpt><trkpt lat="44.2848967" lon="10.6966067"><ele>1045.0</ele><time>2026-04-26T08:46:59.456Z</time></trkpt><trkpt lat="44.28476" lon="10.6964583"><ele>1047.0</ele><time>2026-04-26T08:47:00.456Z</time></trkpt><trkpt lat="44.28464" lon="10.696325"><ele>1049.0</ele><time>2026-04-26T08:47:01.456Z</time></trkpt><trkpt lat="44.28447" lon="10.69622"><ele>1049.0</ele><time>2026-04-26T08:47:02.456Z</time></trkpt><trkpt lat="44.2843083" lon="10.696135"><ele>1049.0</ele><time>2026-04-26T08:47:03.457Z</time></trkpt><trkpt lat="44.2841517" lon="10.6960233"><ele>1049.0</ele><time>2026-04-26T08:47:04.456Z</time></trkpt><trkpt lat="44.284005" lon="10.6959133"><ele>1052.3333333333335</ele><time>2026-04-26T08:47:05.456Z</time></trkpt><trkpt lat="44.2838717" lon="10.6957567"><ele>1055.6666666666667</ele><time>2026-04-26T08:47:06.455Z</time></trkpt><trkpt lat="44.283755" lon="10.6956067"><ele>1059.0</ele><time>2026-04-26T08:47:07.455Z</time></trkpt><trkpt lat="44.2836383" lon="10.6954567"><ele>1059.0</ele><time>2026-04-26T08:47:08.455Z</time></trkpt><trkpt lat="44.283515" lon="10.6953467"><ele>1059.0</ele><time>2026-04-26T08:47:09.455Z</time></trkpt><trkpt lat="44.2833783" lon="10.6952467"><ele>1059.0</ele><time>2026-04-26T08:47:10.455Z</time></trkpt><trkpt lat="44.283225" lon="10.6951683"><ele>1058.75</ele><time>2026-04-26T08:47:11.455Z</time></trkpt><trkpt lat="44.28308" lon="10.6950883"><ele>1058.5</ele><time>2026-04-26T08:47:12.455Z</time></trkpt><trkpt lat="44.28295" lon="10.695005"><ele>1058.25</ele><time>2026-04-26T08:47:13.455Z</time></trkpt><trkpt lat="44.2828483" lon="10.694875"><ele>1058.0</ele><time>2026-04-26T08:47:14.455Z</time></trkpt><trkpt lat="44.2827883" lon="10.694705"><ele>1058.0</ele><time>2026-04-26T08:47:15.455Z</time></trkpt><trkpt lat="44.2827733" lon="10.6945"><ele>1058.0</ele><time>2026-04-26T08:47:16.455Z</time></trkpt><trkpt lat="44.2827983" lon="10.6942867"><ele>1058.0</ele><time>2026-04-26T08:47:17.455Z</time></trkpt><trkpt lat="44.2828533" lon="10.694095"><ele>1061.5</ele><time>2026-04-26T08:47:18.455Z</time></trkpt><trkpt lat="44.2828833" lon="10.6939"><ele>1065.0</ele><time>2026-04-26T08:47:19.456Z</time></trkpt><trkpt lat="44.2828617" lon="10.6937167"><ele>1068.5</ele><time>2026-04-26T08:47:20.455Z</time></trkpt><trkpt lat="44.2827933" lon="10.6935367"><ele>1072.0</ele><time>2026-04-26T08:47:21.455Z</time></trkpt><trkpt lat="44.2826667" lon="10.6934"><ele>1070.5</ele><time>2026-04-26T08:47:22.455Z</time></trkpt><trkpt lat="44.282525" lon="10.693285"><ele>1069.0</ele><time>2026-04-26T08:47:23.456Z</time></trkpt><trkpt lat="44.2823983" lon="10.6931783"><ele>1067.5</ele><time>2026-04-26T08:47:24.455Z</time></trkpt><trkpt lat="44.2823067" lon="10.6930483"><ele>1066.0</ele><time>2026-04-26T08:47:25.455Z</time></trkpt><trkpt lat="44.2822467" lon="10.6928833"><ele>1069.6666666666665</ele><time>2026-04-26T08:47:26.455Z</time></trkpt><trkpt lat="44.2822433" lon="10.69269"><ele>1073.3333333333333</ele><time>2026-04-26T08:47:27.455Z</time></trkpt><trkpt lat="44.282295" lon="10.6924767"><ele>1077.0</ele><time>2026-04-26T08:47:28.455Z</time></trkpt><trkpt lat="44.2823733" lon="10.69229"><ele>1081.0</ele><time>2026-04-26T08:47:29.455Z</time></trkpt><trkpt lat="44.2824533" lon="10.6921083"><ele>1085.0</ele><time>2026-04-26T08:47:30.455Z</time></trkpt><trkpt lat="44.28252" lon="10.6919617"><ele>1089.0</ele><time>2026-04-26T08:47:31.455Z</time></trkpt><trkpt lat="44.282585" lon="10.691805"><ele>1093.0</ele><time>2026-04-26T08:47:32.455Z</time></trkpt><trkpt lat="44.2826183" lon="10.691645"><ele>1093.5</ele><time>2026-04-26T08:47:33.455Z</time></trkpt><trkpt lat="44.2826167" lon="10.6914783"><ele>1094.0</ele><time>2026-04-26T08:47:34.455Z</time></trkpt><trkpt lat="44.2825767" lon="10.6913033"><ele>1094.5</ele><time>2026-04-26T08:47:35.455Z</time></trkpt><trkpt lat="44.282515" lon="10.6911317"><ele>1095.0</ele><time>2026-04-26T08:47:36.455Z</time></trkpt><trkpt lat="44.2824483" lon="10.69096"><ele>1094.75</ele><time>2026-04-26T08:47:37.455Z</time></trkpt><trkpt lat="44.2823683" lon="10.6907883"><ele>1094.5</ele><time>2026-04-26T08:47:38.455Z</time></trkpt><trkpt lat="44.282285" lon="10.6906183"><ele>1094.25</ele><time>2026-04-26T08:47:39.455Z</time></trkpt><trkpt lat="44.2822067" lon="10.6904633"><ele>1094.0</ele><time>2026-04-26T08:47:40.455Z</time></trkpt><trkpt lat="44.2821283" lon="10.6903033"><ele>1096.5</ele><time>2026-04-26T08:47:41.455Z</time></trkpt><trkpt lat="44.282045" lon="10.6901483"><ele>1099.0</ele><time>2026-04-26T08:47:42.456Z</time></trkpt><trkpt lat="44.2819467" lon="10.69001"><ele>1101.5</ele><time>2026-04-26T08:47:43.455Z</time></trkpt><trkpt lat="44.281835" lon="10.6898933"><ele>1104.0</ele><time>2026-04-26T08:47:44.455Z</time></trkpt><trkpt lat="44.28172" lon="10.6897933"><ele>1104.0</ele><time>2026-04-26T08:47:45.455Z</time></trkpt><trkpt lat="44.2816083" lon="10.6897133"><ele>1104.0</ele><time>2026-04-26T08:47:46.456Z</time></trkpt><trkpt lat="44.2815017" lon="10.6896383"><ele>1104.0</ele><time>2026-04-26T08:47:47.456Z</time></trkpt><trkpt lat="44.2813867" lon="10.68958"><ele>1104.0</ele><time>2026-04-26T08:47:48.455Z</time></trkpt><trkpt lat="44.2812733" lon="10.6895383"><ele>1103.5</ele><time>2026-04-26T08:47:49.455Z</time></trkpt><trkpt lat="44.2811617" lon="10.6894917"><ele>1103.0</ele><time>2026-04-26T08:47:50.455Z</time></trkpt><trkpt lat="44.2810483" lon="10.6894267"><ele>1102.5</ele><time>2026-04-26T08:47:51.455Z</time></trkpt><trkpt lat="44.2809467" lon="10.6893067"><ele>1102.0</ele><time>2026-04-26T08:47:52.455Z</time></trkpt><trkpt lat="44.280845" lon="10.6891533"><ele>1101.6666666666665</ele><time>2026-04-26T08:47:53.455Z</time></trkpt><trkpt lat="44.28073" lon="10.6889783"><ele>1101.3333333333333</ele><time>2026-04-26T08:47:54.455Z</time></trkpt><trkpt lat="44.2805967" lon="10.6887783"><ele>1101.0</ele><time>2026-04-26T08:47:55.455Z</time></trkpt><trkpt lat="44.280455" lon="10.6885833"><ele>1103.6666666666667</ele><time>2026-04-26T08:47:56.455Z</time></trkpt><trkpt lat="44.2803067" lon="10.68839"><ele>1106.3333333333335</ele><time>2026-04-26T08:47:57.455Z</time></trkpt><trkpt lat="44.28017" lon="10.6882333"><ele>1109.0</ele><time>2026-04-26T08:47:58.455Z</time></trkpt><trkpt lat="44.2800333" lon="10.6880833"><ele>1109.0</ele><time>2026-04-26T08:47:59.455Z</time></trkpt><trkpt lat="44.279885" lon="10.687945"><ele>1109.0</ele><time>2026-04-26T08:48:00.456Z</time></trkpt><trkpt lat="44.279745" lon="10.6877833"><ele>1109.0</ele><time>2026-04-26T08:48:01.455Z</time></trkpt><trkpt lat="44.2796217" lon="10.68761"><ele>1109.6666666666667</ele><time>2026-04-26T08:48:02.455Z</time></trkpt><trkpt lat="44.2795183" lon="10.6874267"><ele>1110.3333333333333</ele><time>2026-04-26T08:48:03.455Z</time></trkpt><trkpt lat="44.2794317" lon="10.6872217"><ele>1111.0</ele><time>2026-04-26T08:48:04.455Z</time></trkpt><trkpt lat="44.279355" lon="10.687005"><ele>1115.3333333333333</ele><time>2026-04-26T08:48:05.455Z</time></trkpt><trkpt lat="44.2792833" lon="10.6867917"><ele>1119.6666666666667</ele><time>2026-04-26T08:48:06.455Z</time></trkpt><trkpt lat="44.2792083" lon="10.6865817"><ele>1124.0</ele><time>2026-04-26T08:48:07.455Z</time></trkpt><trkpt lat="44.2791283" lon="10.6863817"><ele>1124.0</ele><time>2026-04-26T08:48:08.455Z</time></trkpt><trkpt lat="44.2790383" lon="10.6861733"><ele>1124.0</ele><time>2026-04-26T08:48:09.455Z</time></trkpt><trkpt lat="44.2789383" lon="10.685985"><ele>1124.0</ele><time>2026-04-26T08:48:10.455Z</time></trkpt><trkpt lat="44.278815" lon="10.6858133"><ele>1122.3333333333335</ele><time>2026-04-26T08:48:11.455Z</time></trkpt><trkpt lat="44.27869" lon="10.6856467"><ele>1120.6666666666667</ele><time>2026-04-26T08:48:12.455Z</time></trkpt><trkpt lat="44.27855" lon="10.6854833"><ele>1119.0</ele><time>2026-04-26T08:48:13.455Z</time></trkpt><trkpt lat="44.27841" lon="10.6853267"><ele>1124.0</ele><time>2026-04-26T08:48:14.455Z</time></trkpt><trkpt lat="44.27826" lon="10.685185"><ele>1129.0</ele><time>2026-04-26T08:48:15.455Z</time></trkpt><trkpt lat="44.278095" lon="10.6850833"><ele>1134.0</ele><time>2026-04-26T08:48:16.455Z</time></trkpt><trkpt lat="44.2779083" lon="10.684995"><ele>1134.0</ele><time>2026-04-26T08:48:17.455Z</time></trkpt><trkpt lat="44.2777167" lon="10.6849533"><ele>1134.0</ele><time>2026-04-26T08:48:18.455Z</time></trkpt><trkpt lat="44.2775233" lon="10.68494"><ele>1134.0</ele><time>2026-04-26T08:48:19.455Z</time></trkpt><trkpt lat="44.2773333" lon="10.6849533"><ele>1135.0</ele><time>2026-04-26T08:48:20.455Z</time></trkpt><trkpt lat="44.2771383" lon="10.68496"><ele>1136.0</ele><time>2026-04-26T08:48:21.455Z</time></trkpt><trkpt lat="44.2769383" lon="10.68497"><ele>1137.0</ele><time>2026-04-26T08:48:22.455Z</time></trkpt><trkpt lat="44.2767417" lon="10.6849817"><ele>1137.0</ele><time>2026-04-26T08:48:23.456Z</time></trkpt><trkpt lat="44.2765467" lon="10.6849917"><ele>1137.0</ele><time>2026-04-26T08:48:24.455Z</time></trkpt><trkpt lat="44.2763567" lon="10.6849917"><ele>1137.0</ele><time>2026-04-26T08:48:25.455Z</time></trkpt><trkpt lat="44.2761767" lon="10.684985"><ele>1139.6666666666667</ele><time>2026-04-26T08:48:26.455Z</time></trkpt><trkpt lat="44.276005" lon="10.68499"><ele>1142.3333333333335</ele><time>2026-04-26T08:48:27.455Z</time></trkpt><trkpt lat="44.2758467" lon="10.6850467"><ele>1145.0</ele><time>2026-04-26T08:48:28.456Z</time></trkpt><trkpt lat="44.2757067" lon="10.685125"><ele>1146.3333333333335</ele><time>2026-04-26T08:48:29.455Z</time></trkpt><trkpt lat="44.2755617" lon="10.6852133"><ele>1147.6666666666667</ele><time>2026-04-26T08:48:30.455Z</time></trkpt><trkpt lat="44.2754233" lon="10.6853167"><ele>1149.0</ele><time>2026-04-26T08:48:31.455Z</time></trkpt><trkpt lat="44.2752933" lon="10.685395"><ele>1140.0</ele><time>2026-04-26T08:48:32.456Z</time></trkpt><trkpt lat="44.2751517" lon="10.68545"><ele>1131.0</ele><time>2026-04-26T08:48:33.455Z</time></trkpt><trkpt lat="44.2750117" lon="10.6854333"><ele>1122.0</ele><time>2026-04-26T08:48:34.455Z</time></trkpt><trkpt lat="44.2748467" lon="10.685375"><ele>1119.6666666666667</ele><time>2026-04-26T08:48:35.455Z</time></trkpt><trkpt lat="44.274685" lon="10.685295"><ele>1117.3333333333335</ele><time>2026-04-26T08:48:36.455Z</time></trkpt><trkpt lat="44.274515" lon="10.6852367"><ele>1115.0</ele><time>2026-04-26T08:48:37.455Z</time></trkpt><trkpt lat="44.27435" lon="10.685185"><ele>1119.6666666666667</ele><time>2026-04-26T08:48:38.455Z</time></trkpt><trkpt lat="44.274195" lon="10.68514"><ele>1124.3333333333333</ele><time>2026-04-26T08:48:39.455Z</time></trkpt><trkpt lat="44.2740367" lon="10.6850717"><ele>1129.0</ele><time>2026-04-26T08:48:40.455Z</time></trkpt><trkpt lat="44.2738817" lon="10.6849483"><ele>1129.0</ele><time>2026-04-26T08:48:41.455Z</time></trkpt><trkpt lat="44.2737483" lon="10.6847983"><ele>1129.0</ele><time>2026-04-26T08:48:42.455Z</time></trkpt><trkpt lat="44.273615" lon="10.6846867"><ele>1129.0</ele><time>2026-04-26T08:48:43.455Z</time></trkpt><trkpt lat="44.273445" lon="10.68459"><ele>1129.0</ele><time>2026-04-26T08:48:44.455Z</time></trkpt><trkpt lat="44.273245" lon="10.68456"><ele>1129.0</ele><time>2026-04-26T08:48:45.455Z</time></trkpt><trkpt lat="44.2730517" lon="10.6845117"><ele>1129.0</ele><time>2026-04-26T08:48:46.455Z</time></trkpt><trkpt lat="44.2728633" lon="10.6844733"><ele>1127.0</ele><time>2026-04-26T08:48:47.456Z</time></trkpt><trkpt lat="44.2726933" lon="10.684465"><ele>1125.0</ele><time>2026-04-26T08:48:48.455Z</time></trkpt><trkpt lat="44.2725533" lon="10.6844233"><ele>1123.0</ele><time>2026-04-26T08:48:49.455Z</time></trkpt><trkpt lat="44.272425" lon="10.6843483"><ele>1126.5</ele><time>2026-04-26T08:48:50.455Z</time></trkpt><trkpt lat="44.27234" lon="10.6842233"><ele>1130.0</ele><time>2026-04-26T08:48:51.455Z</time></trkpt><trkpt lat="44.2722867" lon="10.684045"><ele>1133.5</ele><time>2026-04-26T08:48:52.455Z</time></trkpt><trkpt lat="44.272275" lon="10.683835"><ele>1137.0</ele><time>2026-04-26T08:48:53.455Z</time></trkpt><trkpt lat="44.2722933" lon="10.6835817"><ele>1139.6666666666667</ele><time>2026-04-26T08:48:54.455Z</time></trkpt><trkpt lat="44.2723383" lon="10.6833317"><ele>1142.3333333333335</ele><time>2026-04-26T08:48:55.455Z</time></trkpt><trkpt lat="44.2723967" lon="10.68311"><ele>1145.0</ele><time>2026-04-26T08:48:56.455Z</time></trkpt><trkpt lat="44.2724367" lon="10.6828983"><ele>1146.6666666666667</ele><time>2026-04-26T08:48:57.455Z</time></trkpt><trkpt lat="44.2724333" lon="10.6826883"><ele>1148.3333333333333</ele><time>2026-04-26T08:48:58.456Z</time></trkpt><trkpt lat="44.2723817" lon="10.6824667"><ele>1150.0</ele><time>2026-04-26T08:48:59.455Z</time></trkpt><trkpt lat="44.2723183" lon="10.6822317"><ele>1150.0</ele><time>2026-04-26T08:49:00.455Z</time></trkpt><trkpt lat="44.2722733" lon="10.6820017"><ele>1150.0</ele><time>2026-04-26T08:49:01.455Z</time></trkpt><trkpt lat="44.2722267" lon="10.6817767"><ele>1150.0</ele><time>2026-04-26T08:49:02.455Z</time></trkpt><trkpt lat="44.27217" lon="10.681555"><ele>1147.6666666666665</ele><time>2026-04-26T08:49:03.455Z</time></trkpt><trkpt lat="44.2721217" lon="10.6813383"><ele>1145.3333333333333</ele><time>2026-04-26T08:49:04.455Z</time></trkpt><trkpt lat="44.2720717" lon="10.68113"><ele>1143.0</ele><time>2026-04-26T08:49:05.455Z</time></trkpt><trkpt lat="44.272005" lon="10.680925"><ele>1143.0</ele><time>2026-04-26T08:49:06.455Z</time></trkpt><trkpt lat="44.2719267" lon="10.680725"><ele>1143.0</ele><time>2026-04-26T08:49:07.455Z</time></trkpt><trkpt lat="44.2718533" lon="10.6805367"><ele>1143.0</ele><time>2026-04-26T08:49:08.455Z</time></trkpt><trkpt lat="44.271785" lon="10.6803567"><ele>1145.6666666666667</ele><time>2026-04-26T08:49:09.455Z</time></trkpt><trkpt lat="44.2717217" lon="10.6801683"><ele>1148.3333333333335</ele><time>2026-04-26T08:49:10.455Z</time></trkpt><trkpt lat="44.271675" lon="10.6799517"><ele>1151.0</ele><time>2026-04-26T08:49:11.455Z</time></trkpt><trkpt lat="44.2716517" lon="10.6797133"><ele>1151.0</ele><time>2026-04-26T08:49:12.455Z</time></trkpt><trkpt lat="44.2716467" lon="10.6794567"><ele>1151.0</ele><time>2026-04-26T08:49:13.455Z</time></trkpt><trkpt lat="44.2716433" lon="10.6792"><ele>1151.0</ele><time>2026-04-26T08:49:14.455Z</time></trkpt><trkpt lat="44.2716267" lon="10.6789367"><ele>1152.6666666666667</ele><time>2026-04-26T08:49:15.455Z</time></trkpt><trkpt lat="44.2716233" lon="10.678665"><ele>1154.3333333333333</ele><time>2026-04-26T08:49:16.455Z</time></trkpt><trkpt lat="44.2716283" lon="10.6783917"><ele>1156.0</ele><time>2026-04-26T08:49:17.455Z</time></trkpt><trkpt lat="44.2716217" lon="10.6781133"><ele>1156.3333333333333</ele><time>2026-04-26T08:49:18.455Z</time></trkpt><trkpt lat="44.2716167" lon="10.6778383"><ele>1156.6666666666667</ele><time>2026-04-26T08:49:19.455Z</time></trkpt><trkpt lat="44.2716083" lon="10.6775883"><ele>1157.0</ele><time>2026-04-26T08:49:20.455Z</time></trkpt><trkpt lat="44.2716133" lon="10.67734"><ele>1157.0</ele><time>2026-04-26T08:49:21.455Z</time></trkpt><trkpt lat="44.2716433" lon="10.6770967"><ele>1157.0</ele><time>2026-04-26T08:49:22.455Z</time></trkpt><trkpt lat="44.2716983" lon="10.6768517"><ele>1157.0</ele><time>2026-04-26T08:49:23.455Z</time></trkpt><trkpt lat="44.2717683" lon="10.6766117"><ele>1156.3333333333335</ele><time>2026-04-26T08:49:24.455Z</time></trkpt><trkpt lat="44.2718417" lon="10.6763783"><ele>1155.6666666666667</ele><time>2026-04-26T08:49:25.456Z</time></trkpt><trkpt lat="44.2719267" lon="10.6761433"><ele>1155.0</ele><time>2026-04-26T08:49:26.455Z</time></trkpt><trkpt lat="44.2720117" lon="10.67592"><ele>1152.6666666666667</ele><time>2026-04-26T08:49:27.455Z</time></trkpt><trkpt lat="44.2720967" lon="10.6757133"><ele>1150.3333333333335</ele><time>2026-04-26T08:49:28.455Z</time></trkpt><trkpt lat="44.27216" lon="10.6755017"><ele>1148.0</ele><time>2026-04-26T08:49:29.455Z</time></trkpt><trkpt lat="44.2722067" lon="10.675265"><ele>1146.0</ele><time>2026-04-26T08:49:30.455Z</time></trkpt><trkpt lat="44.2722167" lon="10.675025"><ele>1144.0</ele><time>2026-04-26T08:49:31.455Z</time></trkpt><trkpt lat="44.27219" lon="10.6747783"><ele>1142.0</ele><time>2026-04-26T08:49:32.455Z</time></trkpt><trkpt lat="44.2721467" lon="10.6745167"><ele>1142.0</ele><time>2026-04-26T08:49:33.455Z</time></trkpt><trkpt lat="44.2721233" lon="10.6742383"><ele>1142.0</ele><time>2026-04-26T08:49:34.455Z</time></trkpt><trkpt lat="44.27212" lon="10.6739533"><ele>1142.0</ele><time>2026-04-26T08:49:35.456Z</time></trkpt><trkpt lat="44.2721117" lon="10.6736667"><ele>1144.3333333333335</ele><time>2026-04-26T08:49:36.455Z</time></trkpt><trkpt lat="44.27209" lon="10.67339"><ele>1146.6666666666667</ele><time>2026-04-26T08:49:37.455Z</time></trkpt><trkpt lat="44.2720667" lon="10.6731133"><ele>1149.0</ele><time>2026-04-26T08:49:38.455Z</time></trkpt><trkpt lat="44.2720383" lon="10.672855"><ele>1150.3333333333333</ele><time>2026-04-26T08:49:39.455Z</time></trkpt><trkpt lat="44.2720017" lon="10.6726067"><ele>1151.6666666666665</ele><time>2026-04-26T08:49:40.455Z</time></trkpt><trkpt lat="44.2719683" lon="10.6723783"><ele>1153.0</ele><time>2026-04-26T08:49:41.455Z</time></trkpt><trkpt lat="44.271935" lon="10.6721567"><ele>1153.0</ele><time>2026-04-26T08:49:42.455Z</time></trkpt><trkpt lat="44.2719017" lon="10.67195"><ele>1153.0</ele><time>2026-04-26T08:49:43.455Z</time></trkpt><trkpt lat="44.27187" lon="10.6717417"><ele>1153.0</ele><time>2026-04-26T08:49:44.455Z</time></trkpt><trkpt lat="44.2718317" lon="10.671535"><ele>1155.3333333333333</ele><time>2026-04-26T08:49:45.455Z</time></trkpt><trkpt lat="44.2718033" lon="10.6713233"><ele>1157.6666666666667</ele><time>2026-04-26T08:49:46.455Z</time></trkpt><trkpt lat="44.271785" lon="10.671115"><ele>1160.0</ele><time>2026-04-26T08:49:47.455Z</time></trkpt><trkpt lat="44.2717917" lon="10.6708867"><ele>1160.3333333333335</ele><time>2026-04-26T08:49:48.455Z</time></trkpt><trkpt lat="44.2718067" lon="10.6706567"><ele>1160.6666666666667</ele><time>2026-04-26T08:49:49.455Z</time></trkpt><trkpt lat="44.2718383" lon="10.6704317"><ele>1161.0</ele><time>2026-04-26T08:49:50.455Z</time></trkpt><trkpt lat="44.271865" lon="10.6701967"><ele>1161.6666666666667</ele><time>2026-04-26T08:49:51.455Z</time></trkpt><trkpt lat="44.2718517" lon="10.6699683"><ele>1162.3333333333335</ele><time>2026-04-26T08:49:52.455Z</time></trkpt><trkpt lat="44.2718133" lon="10.669725"><ele>1163.0</ele><time>2026-04-26T08:49:53.455Z</time></trkpt><trkpt lat="44.27178" lon="10.66949"><ele>1164.5</ele><time>2026-04-26T08:49:54.455Z</time></trkpt><trkpt lat="44.2717483" lon="10.6692633"><ele>1166.0</ele><time>2026-04-26T08:49:55.455Z</time></trkpt><trkpt lat="44.2717167" lon="10.669065"><ele>1167.5</ele><time>2026-04-26T08:49:56.455Z</time></trkpt><trkpt lat="44.2716817" lon="10.6688917"><ele>1169.0</ele><time>2026-04-26T08:49:57.455Z</time></trkpt><trkpt lat="44.2716467" lon="10.6687483"><ele>1169.0</ele><time>2026-04-26T08:49:58.455Z</time></trkpt><trkpt lat="44.2716067" lon="10.6686183"><ele>1169.0</ele><time>2026-04-26T08:49:59.456Z</time></trkpt><trkpt lat="44.271575" lon="10.6685217"><ele>1169.0</ele><time>2026-04-26T08:50:00.455Z</time></trkpt><trkpt lat="44.2715583" lon="10.6683817"><ele>1169.0</ele><time>2026-04-26T08:50:02.455Z</time></trkpt><trkpt lat="44.2716117" lon="10.668325"><ele>1169.0</ele><time>2026-04-26T08:50:04.455Z</time></trkpt><trkpt lat="44.2716933" lon="10.6683567"><ele>1169.0</ele><time>2026-04-26T08:50:06.455Z</time></trkpt><trkpt lat="44.2717833" lon="10.6684567"><ele>1169.0</ele><time>2026-04-26T08:50:08.455Z</time></trkpt><trkpt lat="44.2718317" lon="10.6685433"><ele>1169.0</ele><time>2026-04-26T08:50:09.455Z</time></trkpt><trkpt lat="44.27189" lon="10.6686583"><ele>1169.0</ele><time>2026-04-26T08:50:10.455Z</time></trkpt><trkpt lat="44.2719417" lon="10.668785"><ele>1169.0</ele><time>2026-04-26T08:50:11.455Z</time></trkpt><trkpt lat="44.2719917" lon="10.6688967"><ele>1169.0</ele><time>2026-04-26T08:50:12.455Z</time></trkpt><trkpt lat="44.2720367" lon="10.6689817"><ele>1169.0</ele><time>2026-04-26T08:50:13.456Z</time></trkpt><trkpt lat="44.2720817" lon="10.6690583"><ele>1169.0</ele><time>2026-04-26T08:50:14.455Z</time></trkpt><trkpt lat="44.2720617" lon="10.6689217"><ele>1169.0</ele><time>2026-04-26T08:50:25.455Z</time></trkpt><trkpt lat="44.272025" lon="10.6688283"><ele>1169.0</ele><time>2026-04-26T08:50:26.455Z</time></trkpt><trkpt lat="44.2719883" lon="10.6687067"><ele>1169.0</ele><time>2026-04-26T08:50:27.455Z</time></trkpt><trkpt lat="44.2719533" lon="10.668575"><ele>1169.0</ele><time>2026-04-26T08:50:28.455Z</time></trkpt><trkpt lat="44.2719233" lon="10.6684233"><ele>1170.5</ele><time>2026-04-26T08:50:29.455Z</time></trkpt><trkpt lat="44.2718917" lon="10.6682833"><ele>1172.0</ele><time>2026-04-26T08:50:30.455Z</time></trkpt><trkpt lat="44.2718417" lon="10.6681433"><ele>1173.5</ele><time>2026-04-26T08:50:31.455Z</time></trkpt><trkpt lat="44.271775" lon="10.6680217"><ele>1175.0</ele><time>2026-04-26T08:50:32.455Z</time></trkpt><trkpt lat="44.2717017" lon="10.6678817"><ele>1174.8</ele><time>2026-04-26T08:50:33.455Z</time></trkpt><trkpt lat="44.2716267" lon="10.6677533"><ele>1174.6</ele><time>2026-04-26T08:50:34.455Z</time></trkpt><trkpt lat="44.2715633" lon="10.667645"><ele>1174.4</ele><time>2026-04-26T08:50:35.455Z</time></trkpt><trkpt lat="44.2715083" lon="10.6675467"><ele>1174.2</ele><time>2026-04-26T08:50:36.455Z</time></trkpt><trkpt lat="44.2714467" lon="10.66747"><ele>1174.0</ele><time>2026-04-26T08:50:37.455Z</time></trkpt><trkpt lat="44.27138" lon="10.6674033"><ele>1174.0</ele><time>2026-04-26T08:50:38.455Z</time></trkpt><trkpt lat="44.2713183" lon="10.6673367"><ele>1174.0</ele><time>2026-04-26T08:50:39.455Z</time></trkpt><trkpt lat="44.2712633" lon="10.6672417"><ele>1174.0</ele><time>2026-04-26T08:50:40.455Z</time></trkpt><trkpt lat="44.2712267" lon="10.6671383"><ele>1174.0</ele><time>2026-04-26T08:50:41.455Z</time></trkpt><trkpt lat="44.2712183" lon="10.6670483"><ele>1174.0</ele><time>2026-04-26T08:50:42.455Z</time></trkpt><trkpt lat="44.27124" lon="10.666955"><ele>1174.0</ele><time>2026-04-26T08:50:43.455Z</time></trkpt><trkpt lat="44.271275" lon="10.66686"><ele>1175.857142857143</ele><time>2026-04-26T08:50:44.455Z</time></trkpt><trkpt lat="44.2713067" lon="10.6667717"><ele>1177.7142857142858</ele><time>2026-04-26T08:50:45.455Z</time></trkpt><trkpt lat="44.2713317" lon="10.6666883"><ele>1179.5714285714287</ele><time>2026-04-26T08:50:46.455Z</time></trkpt><trkpt lat="44.2713417" lon="10.6665967"><ele>1181.4285714285716</ele><time>2026-04-26T08:50:47.455Z</time></trkpt><trkpt lat="44.2713267" lon="10.666505"><ele>1183.2857142857142</ele><time>2026-04-26T08:50:48.455Z</time></trkpt><trkpt lat="44.2712933" lon="10.6664117"><ele>1185.1428571428573</ele><time>2026-04-26T08:50:49.455Z</time></trkpt><trkpt lat="44.2712567" lon="10.666325"><ele>1187.0</ele><time>2026-04-26T08:50:50.455Z</time></trkpt><trkpt lat="44.2712083" lon="10.6662417"><ele>1187.0</ele><time>2026-04-26T08:50:51.455Z</time></trkpt><trkpt lat="44.2711617" lon="10.66616"><ele>1187.0</ele><time>2026-04-26T08:50:52.454Z</time></trkpt><trkpt lat="44.2711317" lon="10.6660633"><ele>1187.0</ele><time>2026-04-26T08:50:53.454Z</time></trkpt><trkpt lat="44.2711117" lon="10.6659517"><ele>1187.0</ele><time>2026-04-26T08:50:54.454Z</time></trkpt><trkpt lat="44.2710967" lon="10.6658333"><ele>1187.0</ele><time>2026-04-26T08:50:55.454Z</time></trkpt><trkpt lat="44.2710833" lon="10.6657133"><ele>1187.0</ele><time>2026-04-26T08:50:56.454Z</time></trkpt><trkpt lat="44.27107" lon="10.6655883"><ele>1190.0</ele><time>2026-04-26T08:50:57.454Z</time></trkpt><trkpt lat="44.2710633" lon="10.6654467"><ele>1193.0</ele><time>2026-04-26T08:50:58.454Z</time></trkpt><trkpt lat="44.2710433" lon="10.6653117"><ele>1196.0</ele><time>2026-04-26T08:50:59.454Z</time></trkpt><trkpt lat="44.271015" lon="10.6651683"><ele>1199.0</ele><time>2026-04-26T08:51:00.454Z</time></trkpt><trkpt lat="44.2709783" lon="10.6650117"><ele>1202.0</ele><time>2026-04-26T08:51:01.454Z</time></trkpt><trkpt lat="44.2709483" lon="10.6648533"><ele>1204.3333333333335</ele><time>2026-04-26T08:51:02.454Z</time></trkpt><trkpt lat="44.2709183" lon="10.6647217"><ele>1206.6666666666667</ele><time>2026-04-26T08:51:03.454Z</time></trkpt><trkpt lat="44.2708833" lon="10.6646167"><ele>1209.0</ele><time>2026-04-26T08:51:04.454Z</time></trkpt><trkpt lat="44.2708483" lon="10.6645283"><ele>1211.3333333333333</ele><time>2026-04-26T08:51:05.454Z</time></trkpt><trkpt lat="44.270795" lon="10.66442"><ele>1213.6666666666665</ele><time>2026-04-26T08:51:07.454Z</time></trkpt><trkpt lat="44.2707417" lon="10.664355"><ele>1216.0</ele><time>2026-04-26T08:51:10.454Z</time></trkpt><trkpt lat="44.27067" lon="10.664395"><ele>1215.3333333333333</ele><time>2026-04-26T08:51:53.454Z</time></trkpt><trkpt lat="44.2706033" lon="10.6644783"><ele>1214.6666666666665</ele><time>2026-04-26T08:51:56.454Z</time></trkpt><trkpt lat="44.2705417" lon="10.6645"><ele>1214.0</ele><time>2026-04-26T08:51:58.454Z</time></trkpt><trkpt lat="44.27049" lon="10.6644233"><ele>1213.3333333333333</ele><time>2026-04-26T08:52:00.454Z</time></trkpt><trkpt lat="44.2704567" lon="10.6643383"><ele>1212.6666666666667</ele><time>2026-04-26T08:52:01.454Z</time></trkpt><trkpt lat="44.270425" lon="10.6641783"><ele>1212.0</ele><time>2026-04-26T08:52:03.454Z</time></trkpt><trkpt lat="44.2703933" lon="10.66409"><ele>1213.8</ele><time>2026-04-26T08:52:04.454Z</time></trkpt><trkpt lat="44.270345" lon="10.663985"><ele>1215.6</ele><time>2026-04-26T08:52:05.454Z</time></trkpt><trkpt lat="44.27031" lon="10.66387"><ele>1217.3999999999999</ele><time>2026-04-26T08:52:06.454Z</time></trkpt><trkpt lat="44.2702867" lon="10.6637533"><ele>1219.2</ele><time>2026-04-26T08:52:07.454Z</time></trkpt><trkpt lat="44.27025" lon="10.6636283"><ele>1221.0</ele><time>2026-04-26T08:52:08.454Z</time></trkpt><trkpt lat="44.2702017" lon="10.6635017"><ele>1222.9999999999998</ele><time>2026-04-26T08:52:09.454Z</time></trkpt><trkpt lat="44.270155" lon="10.663405"><ele>1225.0</ele><time>2026-04-26T08:52:10.454Z</time></trkpt><trkpt lat="44.2701283" lon="10.663325"><ele>1227.0</ele><time>2026-04-26T08:52:11.454Z</time></trkpt><trkpt lat="44.270105" lon="10.6632433"><ele>1229.0</ele><time>2026-04-26T08:52:12.454Z</time></trkpt><trkpt lat="44.2700867" lon="10.663155"><ele>1231.0</ele><time>2026-04-26T08:52:13.455Z</time></trkpt><trkpt lat="44.270065" lon="10.66306"><ele>1232.9999999999998</ele><time>2026-04-26T08:52:14.454Z</time></trkpt><trkpt lat="44.2700333" lon="10.66296"><ele>1235.0</ele><time>2026-04-26T08:52:15.454Z</time></trkpt><trkpt lat="44.2700033" lon="10.66285"><ele>1237.5</ele><time>2026-04-26T08:52:16.454Z</time></trkpt><trkpt lat="44.2699733" lon="10.6627467"><ele>1240.0</ele><time>2026-04-26T08:52:17.454Z</time></trkpt><trkpt lat="44.2699467" lon="10.66266"><ele>1242.5</ele><time>2026-04-26T08:52:18.454Z</time></trkpt><trkpt lat="44.2698667" lon="10.6625433"><ele>1245.0</ele><time>2026-04-26T08:52:20.455Z</time></trkpt><trkpt lat="44.269815" lon="10.6624783"><ele>1247.5</ele><time>2026-04-26T08:52:21.454Z</time></trkpt><trkpt lat="44.2697667" lon="10.66241"><ele>1250.0</ele><time>2026-04-26T08:52:22.454Z</time></trkpt><trkpt lat="44.2696833" lon="10.6623517"><ele>1250.6666666666667</ele><time>2026-04-26T08:52:24.454Z</time></trkpt><trkpt lat="44.2695983" lon="10.6623933"><ele>1251.3333333333335</ele><time>2026-04-26T08:52:26.454Z</time></trkpt><trkpt lat="44.2695583" lon="10.6624633"><ele>1252.0</ele><time>2026-04-26T08:52:27.454Z</time></trkpt><trkpt lat="44.2695067" lon="10.662545"><ele>1252.6666666666667</ele><time>2026-04-26T08:52:28.454Z</time></trkpt><trkpt lat="44.2694583" lon="10.6626233"><ele>1253.3333333333333</ele><time>2026-04-26T08:52:29.454Z</time></trkpt><trkpt lat="44.269415" lon="10.6627117"><ele>1254.0</ele><time>2026-04-26T08:52:30.454Z</time></trkpt><trkpt lat="44.269375" lon="10.6627867"><ele>1254.0</ele><time>2026-04-26T08:52:31.454Z</time></trkpt><trkpt lat="44.269335" lon="10.662865"><ele>1254.0</ele><time>2026-04-26T08:52:32.454Z</time></trkpt><trkpt lat="44.26929" lon="10.6629417"><ele>1254.0</ele><time>2026-04-26T08:52:33.454Z</time></trkpt><trkpt lat="44.269245" lon="10.6630283"><ele>1254.0</ele><time>2026-04-26T08:52:34.454Z</time></trkpt><trkpt lat="44.2691967" lon="10.6631183"><ele>1254.0</ele><time>2026-04-26T08:52:35.454Z</time></trkpt><trkpt lat="44.2691417" lon="10.6632117"><ele>1254.0</ele><time>2026-04-26T08:52:36.455Z</time></trkpt><trkpt lat="44.26908" lon="10.663285"><ele>1254.0</ele><time>2026-04-26T08:52:37.454Z</time></trkpt><trkpt lat="44.269015" lon="10.6633283"><ele>1254.0</ele><time>2026-04-26T08:52:38.454Z</time></trkpt><trkpt lat="44.26895" lon="10.6633517"><ele>1254.0</ele><time>2026-04-26T08:52:39.454Z</time></trkpt><trkpt lat="44.268855" lon="10.6633517"><ele>1254.0</ele><time>2026-04-26T08:52:41.454Z</time></trkpt><trkpt lat="44.2688" lon="10.6632867"><ele>1254.0</ele><time>2026-04-26T08:52:44.454Z</time></trkpt><trkpt lat="44.26879" lon="10.6631617"><ele>1254.0</ele><time>2026-04-26T08:52:49.454Z</time></trkpt><trkpt lat="44.2687583" lon="10.663055"><ele>1253.8333333333333</ele><time>2026-04-26T08:52:57.454Z</time></trkpt><trkpt lat="44.2687083" lon="10.6629467"><ele>1253.6666666666667</ele><time>2026-04-26T08:52:59.454Z</time></trkpt><trkpt lat="44.2687083" lon="10.6628117"><ele>1253.5</ele><time>2026-04-26T08:53:01.454Z</time></trkpt><trkpt lat="44.268735" lon="10.6627267"><ele>1253.3333333333335</ele><time>2026-04-26T08:53:02.454Z</time></trkpt><trkpt lat="44.2687567" lon="10.6626417"><ele>1253.1666666666667</ele><time>2026-04-26T08:53:03.454Z</time></trkpt><trkpt lat="44.2687817" lon="10.6625517"><ele>1253.0</ele><time>2026-04-26T08:53:04.454Z</time></trkpt><trkpt lat="44.268795" lon="10.6623733"><ele>1256.3333333333335</ele><time>2026-04-26T08:53:06.454Z</time></trkpt><trkpt lat="44.2687833" lon="10.66228"><ele>1259.6666666666667</ele><time>2026-04-26T08:53:07.454Z</time></trkpt><trkpt lat="44.2687583" lon="10.6621867"><ele>1263.0</ele><time>2026-04-26T08:53:08.454Z</time></trkpt><trkpt lat="44.2687283" lon="10.6620883"><ele>1266.3333333333333</ele><time>2026-04-26T08:53:09.454Z</time></trkpt><trkpt lat="44.268705" lon="10.6619733"><ele>1269.6666666666665</ele><time>2026-04-26T08:53:10.454Z</time></trkpt><trkpt lat="44.268685" lon="10.6618683"><ele>1273.0</ele><time>2026-04-26T08:53:11.454Z</time></trkpt><trkpt lat="44.2686733" lon="10.661765"><ele>1275.5714285714284</ele><time>2026-04-26T08:53:12.454Z</time></trkpt><trkpt lat="44.2686667" lon="10.6616567"><ele>1278.142857142857</ele><time>2026-04-26T08:53:13.455Z</time></trkpt><trkpt lat="44.268665" lon="10.6615567"><ele>1280.7142857142858</ele><time>2026-04-26T08:53:14.454Z</time></trkpt><trkpt lat="44.2686633" lon="10.6614617"><ele>1283.2857142857142</ele><time>2026-04-26T08:53:15.454Z</time></trkpt><trkpt lat="44.26866" lon="10.6613633"><ele>1285.857142857143</ele><time>2026-04-26T08:53:16.454Z</time></trkpt><trkpt lat="44.2686533" lon="10.6612617"><ele>1288.4285714285713</ele><time>2026-04-26T08:53:17.454Z</time></trkpt><trkpt lat="44.268645" lon="10.6611517"><ele>1291.0</ele><time>2026-04-26T08:53:18.454Z</time></trkpt><trkpt lat="44.2686367" lon="10.6610583"><ele>1291.5</ele><time>2026-04-26T08:53:19.454Z</time></trkpt><trkpt lat="44.268635" lon="10.6609583"><ele>1292.0</ele><time>2026-04-26T08:53:20.454Z</time></trkpt><trkpt lat="44.2686317" lon="10.660785"><ele>1292.5</ele><time>2026-04-26T08:53:22.454Z</time></trkpt><trkpt lat="44.26863" lon="10.6606883"><ele>1293.0</ele><time>2026-04-26T08:53:23.454Z</time></trkpt><trkpt lat="44.2686167" lon="10.6605867"><ele>1293.5</ele><time>2026-04-26T08:53:24.454Z</time></trkpt><trkpt lat="44.268595" lon="10.660475"><ele>1294.0</ele><time>2026-04-26T08:53:25.454Z</time></trkpt><trkpt lat="44.26857" lon="10.66038"><ele>1294.6666666666665</ele><time>2026-04-26T08:53:26.454Z</time></trkpt><trkpt lat="44.2685417" lon="10.6602367"><ele>1295.3333333333333</ele><time>2026-04-26T08:53:28.454Z</time></trkpt><trkpt lat="44.26858" lon="10.660085"><ele>1296.0</ele><time>2026-04-26T08:53:30.454Z</time></trkpt><trkpt lat="44.2686183" lon="10.6599883"><ele>1296.6666666666667</ele><time>2026-04-26T08:53:31.454Z</time></trkpt><trkpt lat="44.26863" lon="10.6598867"><ele>1297.3333333333335</ele><time>2026-04-26T08:53:32.454Z</time></trkpt><trkpt lat="44.2686217" lon="10.659795"><ele>1298.0</ele><time>2026-04-26T08:53:33.454Z</time></trkpt><trkpt lat="44.2686017" lon="10.6597083"><ele>1298.0</ele><time>2026-04-26T08:53:34.454Z</time></trkpt><trkpt lat="44.2685317" lon="10.6596"><ele>1298.0</ele><time>2026-04-26T08:53:36.454Z</time></trkpt><trkpt lat="44.2684633" lon="10.6595683"><ele>1298.0</ele><time>2026-04-26T08:53:37.454Z</time></trkpt><trkpt lat="44.2683917" lon="10.6595267"><ele>1298.0</ele><time>2026-04-26T08:53:38.454Z</time></trkpt><trkpt lat="44.2683233" lon="10.6594567"><ele>1298.0</ele><time>2026-04-26T08:53:39.454Z</time></trkpt><trkpt lat="44.2682717" lon="10.65938"><ele>1298.0</ele><time>2026-04-26T08:53:40.454Z</time></trkpt><trkpt lat="44.26824" lon="10.6592367"><ele>1300.0</ele><time>2026-04-26T08:53:42.455Z</time></trkpt><trkpt lat="44.268275" lon="10.6590717"><ele>1302.0</ele><time>2026-04-26T08:53:44.454Z</time></trkpt><trkpt lat="44.26829" lon="10.65898"><ele>1304.0</ele><time>2026-04-26T08:53:45.454Z</time></trkpt><trkpt lat="44.268295" lon="10.658885"><ele>1306.0</ele><time>2026-04-26T08:53:46.454Z</time></trkpt><trkpt lat="44.2682883" lon="10.6587867"><ele>1308.0</ele><time>2026-04-26T08:53:47.454Z</time></trkpt><trkpt lat="44.268285" lon="10.6586183"><ele>1309.3333333333333</ele><time>2026-04-26T08:53:49.454Z</time></trkpt><trkpt lat="44.2682933" lon="10.658515"><ele>1310.6666666666667</ele><time>2026-04-26T08:53:50.454Z</time></trkpt><trkpt lat="44.2682983" lon="10.6584067"><ele>1312.0</ele><time>2026-04-26T08:53:51.454Z</time></trkpt><trkpt lat="44.2682983" lon="10.6582917"><ele>1313.3333333333335</ele><time>2026-04-26T08:53:52.454Z</time></trkpt><trkpt lat="44.2682983" lon="10.65817"><ele>1314.6666666666667</ele><time>2026-04-26T08:53:53.455Z</time></trkpt><trkpt lat="44.2682967" lon="10.6580533"><ele>1316.0</ele><time>2026-04-26T08:53:54.454Z</time></trkpt><trkpt lat="44.2682967" lon="10.6579417"><ele>1316.0</ele><time>2026-04-26T08:53:55.454Z</time></trkpt><trkpt lat="44.2683033" lon="10.6578317"><ele>1316.0</ele><time>2026-04-26T08:53:56.454Z</time></trkpt><trkpt lat="44.2683183" lon="10.6577367"><ele>1316.0</ele><time>2026-04-26T08:53:57.454Z</time></trkpt><trkpt lat="44.2683533" lon="10.6576217"><ele>1316.0</ele><time>2026-04-26T08:53:58.455Z</time></trkpt><trkpt lat="44.2683833" lon="10.6575283"><ele>1316.0</ele><time>2026-04-26T08:53:59.454Z</time></trkpt><trkpt lat="44.268415" lon="10.65744"><ele>1316.0</ele><time>2026-04-26T08:54:00.454Z</time></trkpt><trkpt lat="44.26844" lon="10.6573517"><ele>1315.3333333333335</ele><time>2026-04-26T08:54:01.454Z</time></trkpt><trkpt lat="44.2684633" lon="10.657265"><ele>1314.6666666666667</ele><time>2026-04-26T08:54:02.454Z</time></trkpt><trkpt lat="44.2684783" lon="10.6571717"><ele>1314.0</ele><time>2026-04-26T08:54:03.454Z</time></trkpt><trkpt lat="44.26849" lon="10.6570383"><ele>1313.3333333333333</ele><time>2026-04-26T08:54:05.454Z</time></trkpt><trkpt lat="44.26849" lon="10.6568983"><ele>1312.6666666666665</ele><time>2026-04-26T08:54:07.454Z</time></trkpt><trkpt lat="44.2684917" lon="10.6567983"><ele>1312.0</ele><time>2026-04-26T08:54:08.454Z</time></trkpt><trkpt lat="44.2684933" lon="10.6566783"><ele>1311.5</ele><time>2026-04-26T08:54:09.454Z</time></trkpt><trkpt lat="44.2685" lon="10.6565467"><ele>1311.0</ele><time>2026-04-26T08:54:10.454Z</time></trkpt><trkpt lat="44.2685117" lon="10.6564283"><ele>1310.5</ele><time>2026-04-26T08:54:11.454Z</time></trkpt><trkpt lat="44.2685283" lon="10.6563167"><ele>1310.0</ele><time>2026-04-26T08:54:12.454Z</time></trkpt><trkpt lat="44.2685517" lon="10.65623"><ele>1309.5</ele><time>2026-04-26T08:54:13.454Z</time></trkpt><trkpt lat="44.2686283" lon="10.6561183"><ele>1309.0</ele><time>2026-04-26T08:54:15.454Z</time></trkpt><trkpt lat="44.2686883" lon="10.6560767"><ele>1307.4</ele><time>2026-04-26T08:54:17.454Z</time></trkpt><trkpt lat="44.268785" lon="10.656045"><ele>1305.8000000000002</ele><time>2026-04-26T08:54:26.454Z</time></trkpt><trkpt lat="44.2688433" lon="10.6559417"><ele>1304.1999999999998</ele><time>2026-04-26T08:54:48.453Z</time></trkpt><trkpt lat="44.2688983" lon="10.6558817"><ele>1302.6</ele><time>2026-04-26T08:54:49.453Z</time></trkpt><trkpt lat="44.2689733" lon="10.6558067"><ele>1301.0</ele><time>2026-04-26T08:54:50.453Z</time></trkpt><trkpt lat="44.2690467" lon="10.655695"><ele>1303.0</ele><time>2026-04-26T08:54:51.453Z</time></trkpt><trkpt lat="44.2691033" lon="10.6555767"><ele>1305.0</ele><time>2026-04-26T08:54:52.453Z</time></trkpt><trkpt lat="44.26914" lon="10.65545"><ele>1307.0</ele><time>2026-04-26T08:54:53.453Z</time></trkpt><trkpt lat="44.2691633" lon="10.6553217"><ele>1309.0</ele><time>2026-04-26T08:54:54.453Z</time></trkpt><trkpt lat="44.2691767" lon="10.655215"><ele>1311.0</ele><time>2026-04-26T08:54:55.453Z</time></trkpt><trkpt lat="44.2692" lon="10.6550517"><ele>1311.0</ele><time>2026-04-26T08:54:57.453Z</time></trkpt><trkpt lat="44.26922" lon="10.6549183"><ele>1311.0</ele><time>2026-04-26T08:54:59.453Z</time></trkpt><trkpt lat="44.26924" lon="10.65477"><ele>1311.0</ele><time>2026-04-26T08:55:01.453Z</time></trkpt><trkpt lat="44.2692467" lon="10.6546767"><ele>1311.0</ele><time>2026-04-26T08:55:02.453Z</time></trkpt><trkpt lat="44.2692517" lon="10.6545733"><ele>1311.0</ele><time>2026-04-26T08:55:03.453Z</time></trkpt><trkpt lat="44.26926" lon="10.6544667"><ele>1311.0</ele><time>2026-04-26T08:55:04.453Z</time></trkpt><trkpt lat="44.2692717" lon="10.6543567"><ele>1310.5</ele><time>2026-04-26T08:55:05.453Z</time></trkpt><trkpt lat="44.2692917" lon="10.6542467"><ele>1310.0</ele><time>2026-04-26T08:55:06.453Z</time></trkpt><trkpt lat="44.2693167" lon="10.6541367"><ele>1309.5</ele><time>2026-04-26T08:55:07.453Z</time></trkpt><trkpt lat="44.2693383" lon="10.654025"><ele>1309.0</ele><time>2026-04-26T08:55:08.453Z</time></trkpt><trkpt lat="44.26935" lon="10.65391"><ele>1308.5</ele><time>2026-04-26T08:55:09.453Z</time></trkpt><trkpt lat="44.26935" lon="10.6537983"><ele>1308.0</ele><time>2026-04-26T08:55:10.453Z</time></trkpt><trkpt lat="44.2693367" lon="10.6536867"><ele>1307.5</ele><time>2026-04-26T08:55:11.453Z</time></trkpt><trkpt lat="44.2693233" lon="10.6535733"><ele>1307.0</ele><time>2026-04-26T08:55:12.453Z</time></trkpt><trkpt lat="44.2693133" lon="10.653455"><ele>1306.5</ele><time>2026-04-26T08:55:13.453Z</time></trkpt><trkpt lat="44.2693117" lon="10.6533333"><ele>1306.0</ele><time>2026-04-26T08:55:14.453Z</time></trkpt><trkpt lat="44.269315" lon="10.653205"><ele>1305.5</ele><time>2026-04-26T08:55:15.453Z</time></trkpt><trkpt lat="44.2693433" lon="10.6530883"><ele>1305.0</ele><time>2026-04-26T08:55:16.453Z</time></trkpt><trkpt lat="44.2693833" lon="10.6529717"><ele>1305.0</ele><time>2026-04-26T08:55:17.453Z</time></trkpt><trkpt lat="44.2694333" lon="10.65286"><ele>1305.0</ele><time>2026-04-26T08:55:18.453Z</time></trkpt><trkpt lat="44.2694967" lon="10.6527317"><ele>1305.0</ele><time>2026-04-26T08:55:19.453Z</time></trkpt><trkpt lat="44.2695633" lon="10.652615"><ele>1305.0</ele><time>2026-04-26T08:55:20.454Z</time></trkpt><trkpt lat="44.2696067" lon="10.6525033"><ele>1305.0</ele><time>2026-04-26T08:55:21.453Z</time></trkpt><trkpt lat="44.269635" lon="10.6523783"><ele>1305.2</ele><time>2026-04-26T08:55:22.453Z</time></trkpt><trkpt lat="44.2696467" lon="10.6522567"><ele>1305.4</ele><time>2026-04-26T08:55:23.453Z</time></trkpt><trkpt lat="44.269635" lon="10.6521317"><ele>1305.6</ele><time>2026-04-26T08:55:24.453Z</time></trkpt><trkpt lat="44.2696083" lon="10.65197"><ele>1305.8</ele><time>2026-04-26T08:55:25.453Z</time></trkpt><trkpt lat="44.2695367" lon="10.6518183"><ele>1306.0</ele><time>2026-04-26T08:55:26.453Z</time></trkpt><trkpt lat="44.2694783" lon="10.65167"><ele>1308.6</ele><time>2026-04-26T08:55:27.453Z</time></trkpt><trkpt lat="44.269425" lon="10.6515217"><ele>1311.1999999999998</ele><time>2026-04-26T08:55:28.453Z</time></trkpt><trkpt lat="44.2693783" lon="10.6513783"><ele>1313.8000000000002</ele><time>2026-04-26T08:55:29.453Z</time></trkpt><trkpt lat="44.2693383" lon="10.6512633"><ele>1316.4</ele><time>2026-04-26T08:55:30.453Z</time></trkpt><trkpt lat="44.269315" lon="10.6511617"><ele>1319.0</ele><time>2026-04-26T08:55:31.453Z</time></trkpt><trkpt lat="44.269285" lon="10.6510383"><ele>1319.8333333333335</ele><time>2026-04-26T08:55:33.453Z</time></trkpt><trkpt lat="44.2692733" lon="10.6509083"><ele>1320.6666666666667</ele><time>2026-04-26T08:55:35.453Z</time></trkpt><trkpt lat="44.269275" lon="10.6508167"><ele>1321.5</ele><time>2026-04-26T08:55:36.453Z</time></trkpt><trkpt lat="44.2692933" lon="10.650725"><ele>1322.3333333333333</ele><time>2026-04-26T08:55:37.453Z</time></trkpt><trkpt lat="44.26932" lon="10.650635"><ele>1323.1666666666665</ele><time>2026-04-26T08:55:38.453Z</time></trkpt><trkpt lat="44.2693283" lon="10.650465"><ele>1324.0</ele><time>2026-04-26T08:55:40.453Z</time></trkpt><trkpt lat="44.2692933" lon="10.6503833"><ele>1324.0</ele><time>2026-04-26T08:55:41.453Z</time></trkpt><trkpt lat="44.2692233" lon="10.650335"><ele>1324.0</ele><time>2026-04-26T08:55:42.454Z</time></trkpt><trkpt lat="44.2691533" lon="10.6502817"><ele>1324.0</ele><time>2026-04-26T08:55:43.453Z</time></trkpt><trkpt lat="44.2690933" lon="10.6501967"><ele>1324.0</ele><time>2026-04-26T08:55:44.453Z</time></trkpt><trkpt lat="44.2690467" lon="10.6500867"><ele>1324.0</ele><time>2026-04-26T08:55:45.453Z</time></trkpt><trkpt lat="44.2690183" lon="10.6499533"><ele>1324.0</ele><time>2026-04-26T08:55:46.454Z</time></trkpt><trkpt lat="44.2690017" lon="10.64979"><ele>1324.75</ele><time>2026-04-26T08:55:47.453Z</time></trkpt><trkpt lat="44.2689967" lon="10.6495983"><ele>1325.5</ele><time>2026-04-26T08:55:48.453Z</time></trkpt><trkpt lat="44.2689917" lon="10.6494167"><ele>1326.25</ele><time>2026-04-26T08:55:49.453Z</time></trkpt><trkpt lat="44.2689767" lon="10.6492783"><ele>1327.0</ele><time>2026-04-26T08:55:50.453Z</time></trkpt><trkpt lat="44.26895" lon="10.64917"><ele>1324.8333333333333</ele><time>2026-04-26T08:55:51.453Z</time></trkpt><trkpt lat="44.2689133" lon="10.6490833"><ele>1322.6666666666665</ele><time>2026-04-26T08:55:52.453Z</time></trkpt><trkpt lat="44.2688667" lon="10.649015"><ele>1320.5</ele><time>2026-04-26T08:55:53.453Z</time></trkpt><trkpt lat="44.2688167" lon="10.648945"><ele>1318.3333333333333</ele><time>2026-04-26T08:55:54.453Z</time></trkpt><trkpt lat="44.26877" lon="10.6488817"><ele>1316.1666666666667</ele><time>2026-04-26T08:55:55.453Z</time></trkpt><trkpt lat="44.2686967" lon="10.6487733"><ele>1314.0</ele><time>2026-04-26T08:55:57.453Z</time></trkpt><trkpt lat="44.2686283" lon="10.6486683"><ele>1315.8000000000002</ele><time>2026-04-26T08:55:59.453Z</time></trkpt><trkpt lat="44.2685583" lon="10.6485183"><ele>1317.6000000000001</ele><time>2026-04-26T08:56:01.453Z</time></trkpt><trkpt lat="44.2685267" lon="10.64842"><ele>1319.4</ele><time>2026-04-26T08:56:02.453Z</time></trkpt><trkpt lat="44.268515" lon="10.6483333"><ele>1321.2</ele><time>2026-04-26T08:56:03.453Z</time></trkpt><trkpt lat="44.2685417" lon="10.648145"><ele>1323.0</ele><time>2026-04-26T08:56:05.453Z</time></trkpt><trkpt lat="44.2685667" lon="10.6480467"><ele>1323.0</ele><time>2026-04-26T08:56:06.453Z</time></trkpt><trkpt lat="44.2685883" lon="10.64794"><ele>1323.0</ele><time>2026-04-26T08:56:07.453Z</time></trkpt><trkpt lat="44.2686" lon="10.647825"><ele>1323.0</ele><time>2026-04-26T08:56:08.453Z</time></trkpt><trkpt lat="44.2685967" lon="10.647725"><ele>1323.0</ele><time>2026-04-26T08:56:09.454Z</time></trkpt><trkpt lat="44.2685833" lon="10.647625"><ele>1323.0</ele><time>2026-04-26T08:56:10.453Z</time></trkpt><trkpt lat="44.268565" lon="10.6475067"><ele>1323.0</ele><time>2026-04-26T08:56:11.453Z</time></trkpt><trkpt lat="44.2685567" lon="10.6473883"><ele>1323.6000000000001</ele><time>2026-04-26T08:56:12.453Z</time></trkpt><trkpt lat="44.268565" lon="10.6472583"><ele>1324.2</ele><time>2026-04-26T08:56:13.453Z</time></trkpt><trkpt lat="44.2685717" lon="10.64712"><ele>1324.8</ele><time>2026-04-26T08:56:14.453Z</time></trkpt><trkpt lat="44.2685817" lon="10.64697"><ele>1325.4</ele><time>2026-04-26T08:56:15.453Z</time></trkpt><trkpt lat="44.2685783" lon="10.646835"><ele>1326.0</ele><time>2026-04-26T08:56:16.453Z</time></trkpt><trkpt lat="44.26857" lon="10.6467067"><ele>1327.4</ele><time>2026-04-26T08:56:17.453Z</time></trkpt><trkpt lat="44.26854" lon="10.6465983"><ele>1328.8</ele><time>2026-04-26T08:56:18.453Z</time></trkpt><trkpt lat="44.2684933" lon="10.6465017"><ele>1330.2</ele><time>2026-04-26T08:56:19.453Z</time></trkpt><trkpt lat="44.2684483" lon="10.6463817"><ele>1331.6000000000001</ele><time>2026-04-26T08:56:20.453Z</time></trkpt><trkpt lat="44.2684017" lon="10.64624"><ele>1333.0</ele><time>2026-04-26T08:56:21.453Z</time></trkpt><trkpt lat="44.26835" lon="10.6460967"><ele>1331.8000000000002</ele><time>2026-04-26T08:56:22.453Z</time></trkpt><trkpt lat="44.268295" lon="10.6459717"><ele>1330.6</ele><time>2026-04-26T08:56:23.453Z</time></trkpt><trkpt lat="44.2682367" lon="10.6458633"><ele>1329.4</ele><time>2026-04-26T08:56:24.453Z</time></trkpt><trkpt lat="44.2681667" lon="10.6457633"><ele>1328.1999999999998</ele><time>2026-04-26T08:56:25.453Z</time></trkpt><trkpt lat="44.2680767" lon="10.645695"><ele>1327.0</ele><time>2026-04-26T08:56:26.453Z</time></trkpt><trkpt lat="44.267975" lon="10.6456433"><ele>1327.0</ele><time>2026-04-26T08:56:27.453Z</time></trkpt><trkpt lat="44.2678817" lon="10.6456"><ele>1327.0</ele><time>2026-04-26T08:56:28.453Z</time></trkpt><trkpt lat="44.2677933" lon="10.64555"><ele>1327.0</ele><time>2026-04-26T08:56:29.453Z</time></trkpt><trkpt lat="44.2677133" lon="10.6454817"><ele>1327.0</ele><time>2026-04-26T08:56:30.453Z</time></trkpt><trkpt lat="44.2676417" lon="10.6453983"><ele>1327.0</ele><time>2026-04-26T08:56:31.453Z</time></trkpt><trkpt lat="44.2675717" lon="10.6453367"><ele>1326.6</ele><time>2026-04-26T08:56:32.453Z</time></trkpt><trkpt lat="44.267505" lon="10.6452883"><ele>1326.1999999999998</ele><time>2026-04-26T08:56:33.453Z</time></trkpt><trkpt lat="44.267395" lon="10.6452617"><ele>1325.8</ele><time>2026-04-26T08:56:35.453Z</time></trkpt><trkpt lat="44.2673067" lon="10.6452333"><ele>1325.4</ele><time>2026-04-26T08:56:37.453Z</time></trkpt><trkpt lat="44.267235" lon="10.645155"><ele>1325.0</ele><time>2026-04-26T08:56:39.453Z</time></trkpt><trkpt lat="44.2671667" lon="10.6450333"><ele>1325.0</ele><time>2026-04-26T08:56:41.453Z</time></trkpt><trkpt lat="44.267095" lon="10.6448883"><ele>1325.0</ele><time>2026-04-26T08:56:43.454Z</time></trkpt><trkpt lat="44.2670533" lon="10.6448083"><ele>1325.0</ele><time>2026-04-26T08:56:44.453Z</time></trkpt><trkpt lat="44.2670083" lon="10.6447317"><ele>1325.0</ele><time>2026-04-26T08:56:45.453Z</time></trkpt><trkpt lat="44.2669583" lon="10.64465"><ele>1325.0</ele><time>2026-04-26T08:56:46.453Z</time></trkpt><trkpt lat="44.2668983" lon="10.644565"><ele>1325.0</ele><time>2026-04-26T08:56:47.453Z</time></trkpt><trkpt lat="44.2668267" lon="10.6444883"><ele>1327.1666666666667</ele><time>2026-04-26T08:56:48.453Z</time></trkpt><trkpt lat="44.26676" lon="10.644405"><ele>1329.3333333333335</ele><time>2026-04-26T08:56:49.453Z</time></trkpt><trkpt lat="44.2667033" lon="10.644335"><ele>1331.5</ele><time>2026-04-26T08:56:50.453Z</time></trkpt><trkpt lat="44.2666633" lon="10.6442617"><ele>1333.6666666666667</ele><time>2026-04-26T08:56:51.453Z</time></trkpt><trkpt lat="44.26664" lon="10.64413"><ele>1335.8333333333333</ele><time>2026-04-26T08:56:53.453Z</time></trkpt><trkpt lat="44.26665" lon="10.643995"><ele>1338.0</ele><time>2026-04-26T08:56:55.453Z</time></trkpt><trkpt lat="44.26666" lon="10.643905"><ele>1338.0</ele><time>2026-04-26T08:56:56.453Z</time></trkpt><trkpt lat="44.266685" lon="10.6437667"><ele>1338.0</ele><time>2026-04-26T08:56:57.453Z</time></trkpt><trkpt lat="44.2667133" lon="10.6436067"><ele>1338.0</ele><time>2026-04-26T08:56:58.453Z</time></trkpt><trkpt lat="44.266735" lon="10.6434533"><ele>1338.0</ele><time>2026-04-26T08:56:59.453Z</time></trkpt><trkpt lat="44.266755" lon="10.6433067"><ele>1338.0</ele><time>2026-04-26T08:57:00.453Z</time></trkpt><trkpt lat="44.2667733" lon="10.6431767"><ele>1337.4</ele><time>2026-04-26T08:57:01.454Z</time></trkpt><trkpt lat="44.2667883" lon="10.6430483"><ele>1336.8000000000002</ele><time>2026-04-26T08:57:02.453Z</time></trkpt><trkpt lat="44.2667983" lon="10.6429167"><ele>1336.2</ele><time>2026-04-26T08:57:03.453Z</time></trkpt><trkpt lat="44.2667983" lon="10.6427933"><ele>1335.6</ele><time>2026-04-26T08:57:04.453Z</time></trkpt><trkpt lat="44.2667783" lon="10.6426683"><ele>1335.0</ele><time>2026-04-26T08:57:05.453Z</time></trkpt><trkpt lat="44.2667517" lon="10.6425517"><ele>1335.0</ele><time>2026-04-26T08:57:06.453Z</time></trkpt><trkpt lat="44.266715" lon="10.64244"><ele>1335.0</ele><time>2026-04-26T08:57:07.453Z</time></trkpt><trkpt lat="44.2666683" lon="10.642325"><ele>1335.0</ele><time>2026-04-26T08:57:08.453Z</time></trkpt><trkpt lat="44.26661" lon="10.6422233"><ele>1335.0</ele><time>2026-04-26T08:57:09.453Z</time></trkpt><trkpt lat="44.26655" lon="10.6421167"><ele>1335.0</ele><time>2026-04-26T08:57:10.453Z</time></trkpt><trkpt lat="44.266495" lon="10.6420083"><ele>1336.3333333333333</ele><time>2026-04-26T08:57:11.453Z</time></trkpt><trkpt lat="44.2664533" lon="10.6419117"><ele>1337.6666666666667</ele><time>2026-04-26T08:57:12.453Z</time></trkpt><trkpt lat="44.2664217" lon="10.6418017"><ele>1339.0</ele><time>2026-04-26T08:57:13.453Z</time></trkpt><trkpt lat="44.2664" lon="10.6416983"><ele>1340.3333333333335</ele><time>2026-04-26T08:57:14.453Z</time></trkpt><trkpt lat="44.2663717" lon="10.641585"><ele>1341.6666666666667</ele><time>2026-04-26T08:57:15.453Z</time></trkpt><trkpt lat="44.266345" lon="10.6414717"><ele>1343.0</ele><time>2026-04-26T08:57:16.453Z</time></trkpt><trkpt lat="44.266315" lon="10.64138"><ele>1340.4285714285713</ele><time>2026-04-26T08:57:17.453Z</time></trkpt><trkpt lat="44.2662817" lon="10.6413017"><ele>1337.857142857143</ele><time>2026-04-26T08:57:18.453Z</time></trkpt><trkpt lat="44.26625" lon="10.6412117"><ele>1335.2857142857142</ele><time>2026-04-26T08:57:19.453Z</time></trkpt><trkpt lat="44.266225" lon="10.641125"><ele>1332.7142857142858</ele><time>2026-04-26T08:57:20.453Z</time></trkpt><trkpt lat="44.2662083" lon="10.6410283"><ele>1330.142857142857</ele><time>2026-04-26T08:57:21.454Z</time></trkpt><trkpt lat="44.2662" lon="10.6409333"><ele>1327.5714285714287</ele><time>2026-04-26T08:57:22.453Z</time></trkpt><trkpt lat="44.2661967" lon="10.64083"><ele>1325.0</ele><time>2026-04-26T08:57:23.453Z</time></trkpt><trkpt lat="44.266215" lon="10.6407067"><ele>1325.6</ele><time>2026-04-26T08:57:24.453Z</time></trkpt><trkpt lat="44.2662633" lon="10.6405733"><ele>1326.2</ele><time>2026-04-26T08:57:25.453Z</time></trkpt><trkpt lat="44.2663233" lon="10.6404383"><ele>1326.8000000000002</ele><time>2026-04-26T08:57:26.454Z</time></trkpt><trkpt lat="44.2663767" lon="10.64032"><ele>1327.4</ele><time>2026-04-26T08:57:27.453Z</time></trkpt><trkpt lat="44.2664217" lon="10.6401983"><ele>1328.0</ele><time>2026-04-26T08:57:28.453Z</time></trkpt><trkpt lat="44.2664783" lon="10.6400667"><ele>1328.0</ele><time>2026-04-26T08:57:29.453Z</time></trkpt><trkpt lat="44.2665283" lon="10.639935"><ele>1328.0</ele><time>2026-04-26T08:57:30.453Z</time></trkpt><trkpt lat="44.2665667" lon="10.6398017"><ele>1328.0</ele><time>2026-04-26T08:57:31.453Z</time></trkpt><trkpt lat="44.2666" lon="10.639665"><ele>1328.0</ele><time>2026-04-26T08:57:32.453Z</time></trkpt><trkpt lat="44.26663" lon="10.639535"><ele>1328.0</ele><time>2026-04-26T08:57:33.453Z</time></trkpt><trkpt lat="44.266655" lon="10.6394133"><ele>1328.3333333333335</ele><time>2026-04-26T08:57:34.453Z</time></trkpt><trkpt lat="44.2666717" lon="10.6392983"><ele>1328.6666666666667</ele><time>2026-04-26T08:57:35.453Z</time></trkpt><trkpt lat="44.2666833" lon="10.6391967"><ele>1329.0</ele><time>2026-04-26T08:57:36.453Z</time></trkpt><trkpt lat="44.2666817" lon="10.6391067"><ele>1329.3333333333333</ele><time>2026-04-26T08:57:37.453Z</time></trkpt><trkpt lat="44.26666" lon="10.63902"><ele>1329.6666666666665</ele><time>2026-04-26T08:57:38.453Z</time></trkpt><trkpt lat="44.2666133" lon="10.6389333"><ele>1330.0</ele><time>2026-04-26T08:57:39.453Z</time></trkpt><trkpt lat="44.266545" lon="10.6388517"><ele>1330.0</ele><time>2026-04-26T08:57:40.453Z</time></trkpt><trkpt lat="44.2664917" lon="10.638775"><ele>1330.0</ele><time>2026-04-26T08:57:41.453Z</time></trkpt><trkpt lat="44.2664483" lon="10.638705"><ele>1330.0</ele><time>2026-04-26T08:57:42.453Z</time></trkpt><trkpt lat="44.2664233" lon="10.6386233"><ele>1330.0</ele><time>2026-04-26T08:57:43.453Z</time></trkpt><trkpt lat="44.26643" lon="10.6384467"><ele>1330.0</ele><time>2026-04-26T08:57:45.453Z</time></trkpt><trkpt lat="44.2664283" lon="10.6383533"><ele>1330.0</ele><time>2026-04-26T08:57:46.453Z</time></trkpt><trkpt lat="44.2664183" lon="10.6382633"><ele>1327.4285714285713</ele><time>2026-04-26T08:57:47.453Z</time></trkpt><trkpt lat="44.2664067" lon="10.6381717"><ele>1324.857142857143</ele><time>2026-04-26T08:57:48.453Z</time></trkpt><trkpt lat="44.2663883" lon="10.6380817"><ele>1322.2857142857142</ele><time>2026-04-26T08:57:49.453Z</time></trkpt><trkpt lat="44.2663717" lon="10.6379933"><ele>1319.7142857142858</ele><time>2026-04-26T08:57:50.453Z</time></trkpt><trkpt lat="44.2663433" lon="10.637905"><ele>1317.142857142857</ele><time>2026-04-26T08:57:51.453Z</time></trkpt><trkpt lat="44.26631" lon="10.6378217"><ele>1314.5714285714284</ele><time>2026-04-26T08:57:52.453Z</time></trkpt><trkpt lat="44.2662633" lon="10.6377433"><ele>1312.0</ele><time>2026-04-26T08:57:53.453Z</time></trkpt><trkpt lat="44.2661983" lon="10.637675"><ele>1312.0</ele><time>2026-04-26T08:57:54.453Z</time></trkpt><trkpt lat="44.26614" lon="10.6376183"><ele>1312.0</ele><time>2026-04-26T08:57:55.453Z</time></trkpt><trkpt lat="44.26608" lon="10.63758"><ele>1312.0</ele><time>2026-04-26T08:57:56.453Z</time></trkpt><trkpt lat="44.2660017" lon="10.6375667"><ele>1312.0</ele><time>2026-04-26T08:57:57.453Z</time></trkpt><trkpt lat="44.2659133" lon="10.637545"><ele>1312.0</ele><time>2026-04-26T08:57:58.453Z</time></trkpt><trkpt lat="44.2658233" lon="10.63751"><ele>1312.0</ele><time>2026-04-26T08:57:59.453Z</time></trkpt><trkpt lat="44.2657383" lon="10.6374517"><ele>1312.0</ele><time>2026-04-26T08:58:00.453Z</time></trkpt><trkpt lat="44.2656633" lon="10.6373883"><ele>1312.0</ele><time>2026-04-26T08:58:01.453Z</time></trkpt><trkpt lat="44.2655917" lon="10.6373233"><ele>1312.0</ele><time>2026-04-26T08:58:02.453Z</time></trkpt><trkpt lat="44.2655317" lon="10.6372583"><ele>1312.0</ele><time>2026-04-26T08:58:03.453Z</time></trkpt><trkpt lat="44.2654783" lon="10.6371817"><ele>1312.0</ele><time>2026-04-26T08:58:04.453Z</time></trkpt><trkpt lat="44.2654417" lon="10.6370883"><ele>1312.0</ele><time>2026-04-26T08:58:05.453Z</time></trkpt><trkpt lat="44.2654317" lon="10.6369767"><ele>1308.3999999999999</ele><time>2026-04-26T08:58:06.453Z</time></trkpt><trkpt lat="44.2654267" lon="10.6368567"><ele>1304.8</ele><time>2026-04-26T08:58:07.453Z</time></trkpt><trkpt lat="44.2654167" lon="10.6367183"><ele>1301.2</ele><time>2026-04-26T08:58:08.453Z</time></trkpt><trkpt lat="44.2653983" lon="10.63657"><ele>1297.6</ele><time>2026-04-26T08:58:09.453Z</time></trkpt><trkpt lat="44.2653767" lon="10.636415"><ele>1294.0</ele><time>2026-04-26T08:58:10.453Z</time></trkpt><trkpt lat="44.2653533" lon="10.6362533"><ele>1295.8000000000002</ele><time>2026-04-26T08:58:11.453Z</time></trkpt><trkpt lat="44.2653333" lon="10.6360983"><ele>1297.6000000000001</ele><time>2026-04-26T08:58:12.453Z</time></trkpt><trkpt lat="44.2653267" lon="10.63596"><ele>1299.4</ele><time>2026-04-26T08:58:13.453Z</time></trkpt><trkpt lat="44.2653167" lon="10.6358233"><ele>1301.2</ele><time>2026-04-26T08:58:14.453Z</time></trkpt><trkpt lat="44.2653017" lon="10.6356833"><ele>1303.0</ele><time>2026-04-26T08:58:15.453Z</time></trkpt><trkpt lat="44.2653" lon="10.6355833"><ele>1303.0</ele><time>2026-04-26T08:58:16.453Z</time></trkpt><trkpt lat="44.2653183" lon="10.6354283"><ele>1303.0</ele><time>2026-04-26T08:58:18.453Z</time></trkpt><trkpt lat="44.2653017" lon="10.6353267"><ele>1303.0</ele><time>2026-04-26T08:58:19.453Z</time></trkpt><trkpt lat="44.26526" lon="10.63522"><ele>1303.0</ele><time>2026-04-26T08:58:20.453Z</time></trkpt><trkpt lat="44.2652083" lon="10.6351133"><ele>1303.0</ele><time>2026-04-26T08:58:21.453Z</time></trkpt><trkpt lat="44.2651483" lon="10.635025"><ele>1302.1666666666665</ele><time>2026-04-26T08:58:22.453Z</time></trkpt><trkpt lat="44.2650933" lon="10.6349483"><ele>1301.3333333333333</ele><time>2026-04-26T08:58:23.453Z</time></trkpt><trkpt lat="44.265025" lon="10.63489"><ele>1300.5</ele><time>2026-04-26T08:58:24.453Z</time></trkpt><trkpt lat="44.264955" lon="10.6348333"><ele>1299.6666666666667</ele><time>2026-04-26T08:58:25.453Z</time></trkpt><trkpt lat="44.2648833" lon="10.63478"><ele>1298.8333333333335</ele><time>2026-04-26T08:58:26.453Z</time></trkpt><trkpt lat="44.2648117" lon="10.6347167"><ele>1298.0</ele><time>2026-04-26T08:58:27.453Z</time></trkpt><trkpt lat="44.2647483" lon="10.6346283"><ele>1298.0</ele><time>2026-04-26T08:58:28.453Z</time></trkpt><trkpt lat="44.264685" lon="10.634525"><ele>1298.0</ele><time>2026-04-26T08:58:29.453Z</time></trkpt><trkpt lat="44.2646167" lon="10.6344167"><ele>1298.0</ele><time>2026-04-26T08:58:30.453Z</time></trkpt><trkpt lat="44.2645467" lon="10.634305"><ele>1298.0</ele><time>2026-04-26T08:58:31.452Z</time></trkpt><trkpt lat="44.26448" lon="10.6341833"><ele>1298.0</ele><time>2026-04-26T08:58:32.452Z</time></trkpt><trkpt lat="44.2644133" lon="10.6340667"><ele>1300.0</ele><time>2026-04-26T08:58:33.452Z</time></trkpt><trkpt lat="44.2643267" lon="10.63396"><ele>1302.0</ele><time>2026-04-26T08:58:34.452Z</time></trkpt><trkpt lat="44.264225" lon="10.6338583"><ele>1304.0</ele><time>2026-04-26T08:58:35.452Z</time></trkpt><trkpt lat="44.264115" lon="10.6337533"><ele>1306.0</ele><time>2026-04-26T08:58:36.452Z</time></trkpt><trkpt lat="44.2640183" lon="10.63364"><ele>1305.75</ele><time>2026-04-26T08:58:37.452Z</time></trkpt><trkpt lat="44.2639233" lon="10.633525"><ele>1305.5</ele><time>2026-04-26T08:58:38.452Z</time></trkpt><trkpt lat="44.263825" lon="10.63341"><ele>1305.25</ele><time>2026-04-26T08:58:39.452Z</time></trkpt><trkpt lat="44.2637383" lon="10.6333167"><ele>1305.0</ele><time>2026-04-26T08:58:40.452Z</time></trkpt><trkpt lat="44.2636733" lon="10.63323"><ele>1305.0</ele><time>2026-04-26T08:58:41.453Z</time></trkpt><trkpt lat="44.263625" lon="10.6331533"><ele>1305.0</ele><time>2026-04-26T08:58:42.452Z</time></trkpt><trkpt lat="44.2635883" lon="10.6330683"><ele>1305.0</ele><time>2026-04-26T08:58:43.452Z</time></trkpt><trkpt lat="44.2635683" lon="10.632945"><ele>1305.0</ele><time>2026-04-26T08:58:44.452Z</time></trkpt><trkpt lat="44.26356" lon="10.6327983"><ele>1305.0</ele><time>2026-04-26T08:58:45.452Z</time></trkpt><trkpt lat="44.263555" lon="10.6326467"><ele>1305.0</ele><time>2026-04-26T08:58:46.452Z</time></trkpt><trkpt lat="44.2635483" lon="10.6325083"><ele>1306.4</ele><time>2026-04-26T08:58:47.452Z</time></trkpt><trkpt lat="44.2635383" lon="10.6323867"><ele>1307.8</ele><time>2026-04-26T08:58:48.452Z</time></trkpt><trkpt lat="44.263505" lon="10.632255"><ele>1309.1999999999998</ele><time>2026-04-26T08:58:49.452Z</time></trkpt><trkpt lat="44.2634533" lon="10.632115"><ele>1310.6</ele><time>2026-04-26T08:58:50.452Z</time></trkpt><trkpt lat="44.2633983" lon="10.6319817"><ele>1312.0</ele><time>2026-04-26T08:58:51.452Z</time></trkpt><trkpt lat="44.2633367" lon="10.6318533"><ele>1311.1999999999998</ele><time>2026-04-26T08:58:52.452Z</time></trkpt><trkpt lat="44.263275" lon="10.6317333"><ele>1310.4</ele><time>2026-04-26T08:58:53.452Z</time></trkpt><trkpt lat="44.2632083" lon="10.6316283"><ele>1309.6</ele><time>2026-04-26T08:58:54.452Z</time></trkpt><trkpt lat="44.2631367" lon="10.6315417"><ele>1308.8000000000002</ele><time>2026-04-26T08:58:55.452Z</time></trkpt><trkpt lat="44.2630617" lon="10.6314533"><ele>1308.0</ele><time>2026-04-26T08:58:56.452Z</time></trkpt><trkpt lat="44.26297" lon="10.6313467"><ele>1308.0</ele><time>2026-04-26T08:58:57.452Z</time></trkpt><trkpt lat="44.26287" lon="10.6312317"><ele>1308.0</ele><time>2026-04-26T08:58:58.452Z</time></trkpt><trkpt lat="44.26278" lon="10.6311217"><ele>1308.0</ele><time>2026-04-26T08:58:59.452Z</time></trkpt><trkpt lat="44.2627" lon="10.63102"><ele>1308.0</ele><time>2026-04-26T08:59:00.452Z</time></trkpt><trkpt lat="44.2626217" lon="10.6309317"><ele>1311.4</ele><time>2026-04-26T08:59:01.452Z</time></trkpt><trkpt lat="44.262535" lon="10.6308383"><ele>1314.8000000000002</ele><time>2026-04-26T08:59:02.452Z</time></trkpt><trkpt lat="44.262455" lon="10.6307567"><ele>1318.2</ele><time>2026-04-26T08:59:03.452Z</time></trkpt><trkpt lat="44.2623717" lon="10.6306883"><ele>1321.6</ele><time>2026-04-26T08:59:04.452Z</time></trkpt><trkpt lat="44.2622817" lon="10.6306117"><ele>1325.0</ele><time>2026-04-26T08:59:05.452Z</time></trkpt><trkpt lat="44.2621867" lon="10.6305417"><ele>1325.0</ele><time>2026-04-26T08:59:06.452Z</time></trkpt><trkpt lat="44.2620867" lon="10.630475"><ele>1325.0</ele><time>2026-04-26T08:59:07.452Z</time></trkpt><trkpt lat="44.2619817" lon="10.630405"><ele>1325.0</ele><time>2026-04-26T08:59:08.452Z</time></trkpt><trkpt lat="44.26191" lon="10.630315"><ele>1325.0</ele><time>2026-04-26T08:59:09.452Z</time></trkpt><trkpt lat="44.2618517" lon="10.6302167"><ele>1325.0</ele><time>2026-04-26T08:59:10.452Z</time></trkpt><trkpt lat="44.2618117" lon="10.6301017"><ele>1327.5</ele><time>2026-04-26T08:59:11.452Z</time></trkpt><trkpt lat="44.261805" lon="10.6300067"><ele>1330.0</ele><time>2026-04-26T08:59:12.452Z</time></trkpt><trkpt lat="44.26185" lon="10.6298633"><ele>1332.5</ele><time>2026-04-26T08:59:14.452Z</time></trkpt><trkpt lat="44.2619333" lon="10.62983"><ele>1335.0</ele><time>2026-04-26T09:01:05.452Z</time></trkpt><trkpt lat="44.2620233" lon="10.6297867"><ele>1337.5</ele><time>2026-04-26T09:01:07.452Z</time></trkpt><trkpt lat="44.262095" lon="10.629735"><ele>1340.0</ele><time>2026-04-26T09:01:08.452Z</time></trkpt><trkpt lat="44.26218" lon="10.62967"><ele>1340.0</ele><time>2026-04-26T09:01:09.452Z</time></trkpt><trkpt lat="44.2622583" lon="10.6296133"><ele>1340.0</ele><time>2026-04-26T09:01:10.452Z</time></trkpt><trkpt lat="44.2623267" lon="10.629545"><ele>1340.0</ele><time>2026-04-26T09:01:11.452Z</time></trkpt><trkpt lat="44.2623917" lon="10.62947"><ele>1340.0</ele><time>2026-04-26T09:01:12.452Z</time></trkpt><trkpt lat="44.262455" lon="10.6294033"><ele>1340.0</ele><time>2026-04-26T09:01:13.453Z</time></trkpt><trkpt lat="44.262525" lon="10.6293067"><ele>1340.0</ele><time>2026-04-26T09:01:15.452Z</time></trkpt><trkpt lat="44.26256" lon="10.6292083"><ele>1340.5</ele><time>2026-04-26T09:01:18.452Z</time></trkpt><trkpt lat="44.2626217" lon="10.6290933"><ele>1341.0</ele><time>2026-04-26T09:01:20.452Z</time></trkpt><trkpt lat="44.2626667" lon="10.62901"><ele>1341.5</ele><time>2026-04-26T09:01:21.452Z</time></trkpt><trkpt lat="44.26272" lon="10.6289383"><ele>1342.0</ele><time>2026-04-26T09:01:22.453Z</time></trkpt><trkpt lat="44.2627933" lon="10.628795"><ele>1342.5</ele><time>2026-04-26T09:01:24.452Z</time></trkpt><trkpt lat="44.2628317" lon="10.628715"><ele>1343.0</ele><time>2026-04-26T09:01:25.452Z</time></trkpt><trkpt lat="44.2628717" lon="10.62864"><ele>1341.5</ele><time>2026-04-26T09:01:26.452Z</time></trkpt><trkpt lat="44.26289" lon="10.6285483"><ele>1340.0</ele><time>2026-04-26T09:01:27.452Z</time></trkpt><trkpt lat="44.2629133" lon="10.6284267"><ele>1338.5</ele><time>2026-04-26T09:01:28.452Z</time></trkpt><trkpt lat="44.2629333" lon="10.6283033"><ele>1337.0</ele><time>2026-04-26T09:01:29.452Z</time></trkpt><trkpt lat="44.262955" lon="10.62821"><ele>1335.5</ele><time>2026-04-26T09:01:30.452Z</time></trkpt><trkpt lat="44.262995" lon="10.62812"><ele>1334.0</ele><time>2026-04-26T09:01:31.452Z</time></trkpt><trkpt lat="44.2630317" lon="10.62802"><ele>1334.0</ele><time>2026-04-26T09:01:32.452Z</time></trkpt><trkpt lat="44.26307" lon="10.6279033"><ele>1334.0</ele><time>2026-04-26T09:01:33.452Z</time></trkpt><trkpt lat="44.2631017" lon="10.6277683"><ele>1334.0</ele><time>2026-04-26T09:01:34.453Z</time></trkpt><trkpt lat="44.2631317" lon="10.6276417"><ele>1334.0</ele><time>2026-04-26T09:01:35.452Z</time></trkpt><trkpt lat="44.2631583" lon="10.6275083"><ele>1334.0</ele><time>2026-04-26T09:01:36.453Z</time></trkpt><trkpt lat="44.2632017" lon="10.6273767"><ele>1334.6666666666667</ele><time>2026-04-26T09:01:37.452Z</time></trkpt><trkpt lat="44.2632433" lon="10.62725"><ele>1335.3333333333335</ele><time>2026-04-26T09:01:38.453Z</time></trkpt><trkpt lat="44.2632867" lon="10.627125"><ele>1336.0</ele><time>2026-04-26T09:01:39.452Z</time></trkpt><trkpt lat="44.2633133" lon="10.6269983"><ele>1336.6666666666667</ele><time>2026-04-26T09:01:40.452Z</time></trkpt><trkpt lat="44.2633167" lon="10.626885"><ele>1337.3333333333333</ele><time>2026-04-26T09:01:41.452Z</time></trkpt><trkpt lat="44.2633083" lon="10.626785"><ele>1338.0</ele><time>2026-04-26T09:01:42.452Z</time></trkpt><trkpt lat="44.2632467" lon="10.6266483"><ele>1338.0</ele><time>2026-04-26T09:01:44.452Z</time></trkpt><trkpt lat="44.2631517" lon="10.6265967"><ele>1338.0</ele><time>2026-04-26T09:01:46.452Z</time></trkpt><trkpt lat="44.26304" lon="10.6265933"><ele>1338.0</ele><time>2026-04-26T09:01:48.452Z</time></trkpt><trkpt lat="44.2629417" lon="10.62649"><ele>1338.0</ele><time>2026-04-26T09:01:50.452Z</time></trkpt><trkpt lat="44.2629167" lon="10.6263883"><ele>1338.0</ele><time>2026-04-26T09:01:51.452Z</time></trkpt><trkpt lat="44.262915" lon="10.6262917"><ele>1337.6666666666667</ele><time>2026-04-26T09:01:52.452Z</time></trkpt><trkpt lat="44.26295" lon="10.626195"><ele>1337.3333333333333</ele><time>2026-04-26T09:01:53.452Z</time></trkpt><trkpt lat="44.2630067" lon="10.6261"><ele>1337.0</ele><time>2026-04-26T09:01:54.452Z</time></trkpt><trkpt lat="44.2630683" lon="10.6260183"><ele>1336.6666666666665</ele><time>2026-04-26T09:01:55.453Z</time></trkpt><trkpt lat="44.263115" lon="10.6259317"><ele>1336.3333333333333</ele><time>2026-04-26T09:01:56.452Z</time></trkpt><trkpt lat="44.2631483" lon="10.6258433"><ele>1336.0</ele><time>2026-04-26T09:01:57.452Z</time></trkpt><trkpt lat="44.2631617" lon="10.6257467"><ele>1336.0</ele><time>2026-04-26T09:01:58.452Z</time></trkpt><trkpt lat="44.2631567" lon="10.6256517"><ele>1336.0</ele><time>2026-04-26T09:01:59.452Z</time></trkpt><trkpt lat="44.2631383" lon="10.6255617"><ele>1336.0</ele><time>2026-04-26T09:02:00.452Z</time></trkpt><trkpt lat="44.2631" lon="10.6254317"><ele>1336.0</ele><time>2026-04-26T09:02:02.452Z</time></trkpt><trkpt lat="44.2630367" lon="10.6253167"><ele>1336.0</ele><time>2026-04-26T09:02:04.453Z</time></trkpt><trkpt lat="44.263" lon="10.6252417"><ele>1336.0</ele><time>2026-04-26T09:02:05.452Z</time></trkpt><trkpt lat="44.26296" lon="10.62516"><ele>1332.1666666666665</ele><time>2026-04-26T09:02:06.452Z</time></trkpt><trkpt lat="44.26291" lon="10.6250783"><ele>1328.3333333333333</ele><time>2026-04-26T09:02:07.452Z</time></trkpt><trkpt lat="44.2628683" lon="10.6249733"><ele>1324.5</ele><time>2026-04-26T09:02:08.452Z</time></trkpt><trkpt lat="44.26283" lon="10.62486"><ele>1320.6666666666667</ele><time>2026-04-26T09:02:09.452Z</time></trkpt><trkpt lat="44.2628067" lon="10.6247383"><ele>1316.8333333333335</ele><time>2026-04-26T09:02:10.452Z</time></trkpt><trkpt lat="44.262795" lon="10.6246117"><ele>1313.0</ele><time>2026-04-26T09:02:11.452Z</time></trkpt><trkpt lat="44.2627967" lon="10.6244933"><ele>1312.8333333333335</ele><time>2026-04-26T09:02:12.452Z</time></trkpt><trkpt lat="44.2628033" lon="10.624375"><ele>1312.6666666666667</ele><time>2026-04-26T09:02:13.452Z</time></trkpt><trkpt lat="44.26282" lon="10.6242633"><ele>1312.5</ele><time>2026-04-26T09:02:14.452Z</time></trkpt><trkpt lat="44.26284" lon="10.62416"><ele>1312.3333333333333</ele><time>2026-04-26T09:02:15.452Z</time></trkpt><trkpt lat="44.2628583" lon="10.6240483"><ele>1312.1666666666665</ele><time>2026-04-26T09:02:16.452Z</time></trkpt><trkpt lat="44.2628833" lon="10.6239267"><ele>1312.0</ele><time>2026-04-26T09:02:17.452Z</time></trkpt><trkpt lat="44.2629117" lon="10.6238117"><ele>1312.0</ele><time>2026-04-26T09:02:18.452Z</time></trkpt><trkpt lat="44.2629433" lon="10.6237083"><ele>1312.0</ele><time>2026-04-26T09:02:19.451Z</time></trkpt><trkpt lat="44.2629783" lon="10.6236217"><ele>1312.0</ele><time>2026-04-26T09:02:20.451Z</time></trkpt><trkpt lat="44.26301" lon="10.623535"><ele>1312.0</ele><time>2026-04-26T09:02:21.452Z</time></trkpt><trkpt lat="44.2630267" lon="10.6234"><ele>1312.0</ele><time>2026-04-26T09:02:23.451Z</time></trkpt><trkpt lat="44.2630217" lon="10.6232983"><ele>1312.0</ele><time>2026-04-26T09:02:25.451Z</time></trkpt><trkpt lat="44.2629967" lon="10.6231583"><ele>1310.1666666666665</ele><time>2026-04-26T09:02:27.451Z</time></trkpt><trkpt lat="44.2629783" lon="10.6230617"><ele>1308.3333333333333</ele><time>2026-04-26T09:02:28.451Z</time></trkpt><trkpt lat="44.26296" lon="10.622955"><ele>1306.5</ele><time>2026-04-26T09:02:29.451Z</time></trkpt><trkpt lat="44.262945" lon="10.6228367"><ele>1304.6666666666667</ele><time>2026-04-26T09:02:30.451Z</time></trkpt><trkpt lat="44.2629233" lon="10.62272"><ele>1302.8333333333335</ele><time>2026-04-26T09:02:31.451Z</time></trkpt><trkpt lat="44.2629033" lon="10.6226117"><ele>1301.0</ele><time>2026-04-26T09:02:32.451Z</time></trkpt><trkpt lat="44.26288" lon="10.622505"><ele>1299.0</ele><time>2026-04-26T09:02:33.451Z</time></trkpt><trkpt lat="44.2628483" lon="10.6224067"><ele>1297.0</ele><time>2026-04-26T09:02:34.451Z</time></trkpt><trkpt lat="44.262815" lon="10.6223317"><ele>1295.0</ele><time>2026-04-26T09:02:35.451Z</time></trkpt><trkpt lat="44.262745" lon="10.6222233"><ele>1293.0</ele><time>2026-04-26T09:02:37.451Z</time></trkpt><trkpt lat="44.262605" lon="10.62221"><ele>1291.0</ele><time>2026-04-26T09:02:39.451Z</time></trkpt><trkpt lat="44.2625283" lon="10.62223"><ele>1291.0</ele><time>2026-04-26T09:02:40.451Z</time></trkpt><trkpt lat="44.2624567" lon="10.6222567"><ele>1291.0</ele><time>2026-04-26T09:02:41.451Z</time></trkpt><trkpt lat="44.262395" lon="10.622285"><ele>1291.0</ele><time>2026-04-26T09:02:42.451Z</time></trkpt><trkpt lat="44.2622733" lon="10.6223333"><ele>1291.0</ele><time>2026-04-26T09:02:44.451Z</time></trkpt><trkpt lat="44.2622" lon="10.62234"><ele>1291.0</ele><time>2026-04-26T09:02:45.451Z</time></trkpt><trkpt lat="44.2621167" lon="10.62234"><ele>1291.0</ele><time>2026-04-26T09:02:46.451Z</time></trkpt><trkpt lat="44.2620317" lon="10.6223433"><ele>1288.8333333333333</ele><time>2026-04-26T09:02:47.451Z</time></trkpt><trkpt lat="44.261955" lon="10.6223417"><ele>1286.6666666666665</ele><time>2026-04-26T09:02:48.451Z</time></trkpt><trkpt lat="44.2618917" lon="10.622335"><ele>1284.5</ele><time>2026-04-26T09:02:49.451Z</time></trkpt><trkpt lat="44.26179" lon="10.6222517"><ele>1282.3333333333333</ele><time>2026-04-26T09:02:51.451Z</time></trkpt><trkpt lat="44.2617367" lon="10.6221683"><ele>1280.1666666666667</ele><time>2026-04-26T09:02:52.451Z</time></trkpt><trkpt lat="44.26168" lon="10.6220717"><ele>1278.0</ele><time>2026-04-26T09:02:53.451Z</time></trkpt><trkpt lat="44.26163" lon="10.62197"><ele>1278.0</ele><time>2026-04-26T09:02:54.451Z</time></trkpt><trkpt lat="44.2615767" lon="10.6218633"><ele>1278.0</ele><time>2026-04-26T09:02:55.451Z</time></trkpt><trkpt lat="44.2615333" lon="10.621735"><ele>1278.0</ele><time>2026-04-26T09:02:56.451Z</time></trkpt><trkpt lat="44.2615067" lon="10.6215967"><ele>1278.0</ele><time>2026-04-26T09:02:57.451Z</time></trkpt><trkpt lat="44.2614733" lon="10.6214533"><ele>1278.0</ele><time>2026-04-26T09:02:58.451Z</time></trkpt><trkpt lat="44.2614367" lon="10.6213067"><ele>1275.3333333333333</ele><time>2026-04-26T09:02:59.451Z</time></trkpt><trkpt lat="44.2613917" lon="10.6211867"><ele>1272.6666666666667</ele><time>2026-04-26T09:03:00.451Z</time></trkpt><trkpt lat="44.2613583" lon="10.6210733"><ele>1270.0</ele><time>2026-04-26T09:03:01.451Z</time></trkpt><trkpt lat="44.2613233" lon="10.62096"><ele>1267.3333333333335</ele><time>2026-04-26T09:03:02.451Z</time></trkpt><trkpt lat="44.26128" lon="10.62086"><ele>1264.6666666666667</ele><time>2026-04-26T09:03:03.451Z</time></trkpt><trkpt lat="44.2612283" lon="10.620765"><ele>1262.0</ele><time>2026-04-26T09:03:04.451Z</time></trkpt><trkpt lat="44.261185" lon="10.6206683"><ele>1262.0</ele><time>2026-04-26T09:03:05.451Z</time></trkpt><trkpt lat="44.261145" lon="10.6205733"><ele>1262.0</ele><time>2026-04-26T09:03:06.451Z</time></trkpt><trkpt lat="44.2611033" lon="10.6204767"><ele>1262.0</ele><time>2026-04-26T09:03:07.451Z</time></trkpt><trkpt lat="44.2610483" lon="10.6203783"><ele>1262.0</ele><time>2026-04-26T09:03:08.451Z</time></trkpt><trkpt lat="44.26099" lon="10.62028"><ele>1262.0</ele><time>2026-04-26T09:03:09.451Z</time></trkpt><trkpt lat="44.2609283" lon="10.6202083"><ele>1262.0</ele><time>2026-04-26T09:03:10.451Z</time></trkpt><trkpt lat="44.26086" lon="10.62016"><ele>1262.1666666666667</ele><time>2026-04-26T09:03:11.451Z</time></trkpt><trkpt lat="44.260755" lon="10.62012"><ele>1262.3333333333335</ele><time>2026-04-26T09:03:13.451Z</time></trkpt><trkpt lat="44.2606833" lon="10.6201033"><ele>1262.5</ele><time>2026-04-26T09:03:15.452Z</time></trkpt><trkpt lat="44.2605933" lon="10.620095"><ele>1262.6666666666667</ele><time>2026-04-26T09:03:17.451Z</time></trkpt><trkpt lat="44.2605017" lon="10.6200783"><ele>1262.8333333333333</ele><time>2026-04-26T09:03:19.451Z</time></trkpt><trkpt lat="44.26043" lon="10.6200683"><ele>1263.0</ele><time>2026-04-26T09:03:21.451Z</time></trkpt><trkpt lat="44.2603383" lon="10.620075"><ele>1263.25</ele><time>2026-04-26T09:04:31.451Z</time></trkpt><trkpt lat="44.260225" lon="10.6199967"><ele>1263.5</ele><time>2026-04-26T09:04:33.451Z</time></trkpt><trkpt lat="44.260135" lon="10.6199267"><ele>1263.75</ele><time>2026-04-26T09:04:34.451Z</time></trkpt><trkpt lat="44.2600317" lon="10.6198433"><ele>1264.0</ele><time>2026-04-26T09:04:35.451Z</time></trkpt><trkpt lat="44.259925" lon="10.6197617"><ele>1264.0</ele><time>2026-04-26T09:04:36.451Z</time></trkpt><trkpt lat="44.25982" lon="10.61968"><ele>1264.0</ele><time>2026-04-26T09:04:37.451Z</time></trkpt><trkpt lat="44.2597117" lon="10.6196017"><ele>1264.0</ele><time>2026-04-26T09:04:38.451Z</time></trkpt><trkpt lat="44.2596117" lon="10.619525"><ele>1264.0</ele><time>2026-04-26T09:04:39.451Z</time></trkpt><trkpt lat="44.2595183" lon="10.6194483"><ele>1264.2</ele><time>2026-04-26T09:04:40.451Z</time></trkpt><trkpt lat="44.2594283" lon="10.6193733"><ele>1264.4</ele><time>2026-04-26T09:04:41.451Z</time></trkpt><trkpt lat="44.2593533" lon="10.619315"><ele>1264.6</ele><time>2026-04-26T09:04:42.451Z</time></trkpt><trkpt lat="44.25929" lon="10.6192567"><ele>1264.8</ele><time>2026-04-26T09:04:43.451Z</time></trkpt><trkpt lat="44.2592033" lon="10.6191517"><ele>1265.0</ele><time>2026-04-26T09:04:45.451Z</time></trkpt><trkpt lat="44.2591417" lon="10.6190683"><ele>1265.0</ele><time>2026-04-26T09:04:47.451Z</time></trkpt><trkpt lat="44.2590883" lon="10.6189633"><ele>1265.0</ele><time>2026-04-26T09:04:49.451Z</time></trkpt><trkpt lat="44.2590167" lon="10.6187983"><ele>1265.0</ele><time>2026-04-26T09:04:51.451Z</time></trkpt><trkpt lat="44.2589617" lon="10.6187067"><ele>1265.0</ele><time>2026-04-26T09:04:52.452Z</time></trkpt><trkpt lat="44.2589" lon="10.6185883"><ele>1265.0</ele><time>2026-04-26T09:04:53.451Z</time></trkpt><trkpt lat="44.2588317" lon="10.61847"><ele>1263.0</ele><time>2026-04-26T09:04:54.451Z</time></trkpt><trkpt lat="44.2587617" lon="10.61836"><ele>1261.0</ele><time>2026-04-26T09:04:55.451Z</time></trkpt><trkpt lat="44.2586767" lon="10.6182667"><ele>1259.0</ele><time>2026-04-26T09:04:56.451Z</time></trkpt><trkpt lat="44.2585683" lon="10.61818"><ele>1257.0</ele><time>2026-04-26T09:04:57.451Z</time></trkpt><trkpt lat="44.2584417" lon="10.618115"><ele>1257.0</ele><time>2026-04-26T09:04:58.451Z</time></trkpt><trkpt lat="44.25829" lon="10.6180733"><ele>1257.0</ele><time>2026-04-26T09:04:59.451Z</time></trkpt><trkpt lat="44.2581317" lon="10.6180433"><ele>1257.0</ele><time>2026-04-26T09:05:00.451Z</time></trkpt><trkpt lat="44.2579767" lon="10.6180033"><ele>1256.0</ele><time>2026-04-26T09:05:01.451Z</time></trkpt><trkpt lat="44.2578283" lon="10.6179517"><ele>1255.0</ele><time>2026-04-26T09:05:02.451Z</time></trkpt><trkpt lat="44.25768" lon="10.6178883"><ele>1254.0</ele><time>2026-04-26T09:05:03.451Z</time></trkpt><trkpt lat="44.2575317" lon="10.6178183"><ele>1254.0</ele><time>2026-04-26T09:05:04.451Z</time></trkpt><trkpt lat="44.2573967" lon="10.6177467"><ele>1254.0</ele><time>2026-04-26T09:05:05.451Z</time></trkpt><trkpt lat="44.25728" lon="10.6176767"><ele>1254.0</ele><time>2026-04-26T09:05:06.452Z</time></trkpt><trkpt lat="44.2571633" lon="10.6176217"><ele>1254.0</ele><time>2026-04-26T09:05:07.451Z</time></trkpt><trkpt lat="44.2570517" lon="10.6175817"><ele>1254.6000000000001</ele><time>2026-04-26T09:05:08.451Z</time></trkpt><trkpt lat="44.2569483" lon="10.6175233"><ele>1255.2</ele><time>2026-04-26T09:05:09.451Z</time></trkpt><trkpt lat="44.2568583" lon="10.6174417"><ele>1255.8000000000002</ele><time>2026-04-26T09:05:10.451Z</time></trkpt><trkpt lat="44.25679" lon="10.6173383"><ele>1256.4</ele><time>2026-04-26T09:05:11.451Z</time></trkpt><trkpt lat="44.256745" lon="10.6171967"><ele>1257.0</ele><time>2026-04-26T09:05:12.451Z</time></trkpt><trkpt lat="44.2567133" lon="10.61704"><ele>1256.6</ele><time>2026-04-26T09:05:13.451Z</time></trkpt><trkpt lat="44.2566867" lon="10.61687"><ele>1256.2</ele><time>2026-04-26T09:05:14.451Z</time></trkpt><trkpt lat="44.25666" lon="10.6167167"><ele>1255.8</ele><time>2026-04-26T09:05:15.451Z</time></trkpt><trkpt lat="44.256625" lon="10.616585"><ele>1255.4</ele><time>2026-04-26T09:05:16.451Z</time></trkpt><trkpt lat="44.2565683" lon="10.616485"><ele>1255.0</ele><time>2026-04-26T09:05:17.451Z</time></trkpt><trkpt lat="44.2564867" lon="10.6164167"><ele>1256.2</ele><time>2026-04-26T09:05:18.452Z</time></trkpt><trkpt lat="44.2564017" lon="10.6163767"><ele>1257.4</ele><time>2026-04-26T09:05:19.451Z</time></trkpt><trkpt lat="44.2563017" lon="10.616365"><ele>1258.6</ele><time>2026-04-26T09:05:20.451Z</time></trkpt><trkpt lat="44.2561883" lon="10.616365"><ele>1259.8</ele><time>2026-04-26T09:05:21.451Z</time></trkpt><trkpt lat="44.2560517" lon="10.6163633"><ele>1261.0</ele><time>2026-04-26T09:05:22.451Z</time></trkpt><trkpt lat="44.2559067" lon="10.616345"><ele>1261.0</ele><time>2026-04-26T09:05:23.451Z</time></trkpt><trkpt lat="44.25576" lon="10.6163033"><ele>1261.0</ele><time>2026-04-26T09:05:24.451Z</time></trkpt><trkpt lat="44.2556067" lon="10.6162667"><ele>1261.0</ele><time>2026-04-26T09:05:25.451Z</time></trkpt><trkpt lat="44.255465" lon="10.6162417"><ele>1261.0</ele><time>2026-04-26T09:05:26.451Z</time></trkpt><trkpt lat="44.25532" lon="10.6162467"><ele>1262.6666666666665</ele><time>2026-04-26T09:05:27.451Z</time></trkpt><trkpt lat="44.255175" lon="10.6162817"><ele>1264.3333333333333</ele><time>2026-04-26T09:05:28.451Z</time></trkpt><trkpt lat="44.2550183" lon="10.61635"><ele>1266.0</ele><time>2026-04-26T09:05:29.451Z</time></trkpt><trkpt lat="44.2548483" lon="10.6164417"><ele>1268.0</ele><time>2026-04-26T09:05:30.451Z</time></trkpt><trkpt lat="44.25466" lon="10.6165317"><ele>1270.0</ele><time>2026-04-26T09:05:31.451Z</time></trkpt><trkpt lat="44.2544983" lon="10.6166033"><ele>1272.0</ele><time>2026-04-26T09:05:32.451Z</time></trkpt><trkpt lat="44.254365" lon="10.61667"><ele>1272.0</ele><time>2026-04-26T09:05:33.451Z</time></trkpt><trkpt lat="44.254245" lon="10.6167167"><ele>1272.0</ele><time>2026-04-26T09:05:34.451Z</time></trkpt><trkpt lat="44.254145" lon="10.6167483"><ele>1272.0</ele><time>2026-04-26T09:05:35.451Z</time></trkpt><trkpt lat="44.2540483" lon="10.6167617"><ele>1272.0</ele><time>2026-04-26T09:05:36.451Z</time></trkpt><trkpt lat="44.2539417" lon="10.6167333"><ele>1272.0</ele><time>2026-04-26T09:05:37.451Z</time></trkpt><trkpt lat="44.25382" lon="10.61668"><ele>1270.5</ele><time>2026-04-26T09:05:38.451Z</time></trkpt><trkpt lat="44.2536883" lon="10.6166217"><ele>1269.0</ele><time>2026-04-26T09:05:39.451Z</time></trkpt><trkpt lat="44.2535633" lon="10.616575"><ele>1267.5</ele><time>2026-04-26T09:05:40.451Z</time></trkpt><trkpt lat="44.2534417" lon="10.61654"><ele>1266.0</ele><time>2026-04-26T09:05:41.451Z</time></trkpt><trkpt lat="44.2533167" lon="10.616515"><ele>1266.0</ele><time>2026-04-26T09:05:42.451Z</time></trkpt><trkpt lat="44.2531983" lon="10.6165133"><ele>1266.0</ele><time>2026-04-26T09:05:43.451Z</time></trkpt><trkpt lat="44.253075" lon="10.6165183"><ele>1266.0</ele><time>2026-04-26T09:05:44.451Z</time></trkpt><trkpt lat="44.25295" lon="10.6165467"><ele>1266.0</ele><time>2026-04-26T09:05:45.451Z</time></trkpt><trkpt lat="44.2528133" lon="10.61659"><ele>1265.0</ele><time>2026-04-26T09:05:46.451Z</time></trkpt><trkpt lat="44.252675" lon="10.6166383"><ele>1264.0</ele><time>2026-04-26T09:05:47.451Z</time></trkpt><trkpt lat="44.2525417" lon="10.6166933"><ele>1263.0</ele><time>2026-04-26T09:05:48.451Z</time></trkpt><trkpt lat="44.2524167" lon="10.6167533"><ele>1262.0</ele><time>2026-04-26T09:05:49.451Z</time></trkpt><trkpt lat="44.2522967" lon="10.616815"><ele>1262.2</ele><time>2026-04-26T09:05:50.451Z</time></trkpt><trkpt lat="44.252185" lon="10.6168567"><ele>1262.4</ele><time>2026-04-26T09:05:51.451Z</time></trkpt><trkpt lat="44.2520817" lon="10.616865"><ele>1262.6</ele><time>2026-04-26T09:05:52.451Z</time></trkpt><trkpt lat="44.2519767" lon="10.6168333"><ele>1262.8</ele><time>2026-04-26T09:05:53.451Z</time></trkpt><trkpt lat="44.2518667" lon="10.6167783"><ele>1263.0</ele><time>2026-04-26T09:05:54.451Z</time></trkpt><trkpt lat="44.2517583" lon="10.6167367"><ele>1263.0</ele><time>2026-04-26T09:05:55.451Z</time></trkpt><trkpt lat="44.2516517" lon="10.6167267"><ele>1263.0</ele><time>2026-04-26T09:05:56.451Z</time></trkpt><trkpt lat="44.2515317" lon="10.6167383"><ele>1263.0</ele><time>2026-04-26T09:05:57.451Z</time></trkpt><trkpt lat="44.2514067" lon="10.6167633"><ele>1263.0</ele><time>2026-04-26T09:05:58.451Z</time></trkpt><trkpt lat="44.251285" lon="10.6167833"><ele>1263.25</ele><time>2026-04-26T09:05:59.452Z</time></trkpt><trkpt lat="44.2511683" lon="10.6167683"><ele>1263.5</ele><time>2026-04-26T09:06:00.451Z</time></trkpt><trkpt lat="44.2510633" lon="10.61672"><ele>1263.75</ele><time>2026-04-26T09:06:01.451Z</time></trkpt><trkpt lat="44.250965" lon="10.61664"><ele>1264.0</ele><time>2026-04-26T09:06:02.451Z</time></trkpt><trkpt lat="44.2508617" lon="10.61655"><ele>1264.0</ele><time>2026-04-26T09:06:03.45Z</time></trkpt><trkpt lat="44.25077" lon="10.6164783"><ele>1264.0</ele><time>2026-04-26T09:06:04.45Z</time></trkpt><trkpt lat="44.250675" lon="10.6164467"><ele>1264.0</ele><time>2026-04-26T09:06:05.45Z</time></trkpt><trkpt lat="44.2505767" lon="10.6164267"><ele>1264.0</ele><time>2026-04-26T09:06:06.45Z</time></trkpt><trkpt lat="44.25047" lon="10.6164467"><ele>1264.0</ele><time>2026-04-26T09:06:07.45Z</time></trkpt><trkpt lat="44.2503417" lon="10.6165217"><ele>1266.6666666666665</ele><time>2026-04-26T09:06:08.45Z</time></trkpt><trkpt lat="44.2501817" lon="10.61661"><ele>1269.3333333333333</ele><time>2026-04-26T09:06:09.45Z</time></trkpt><trkpt lat="44.25003" lon="10.6167067"><ele>1272.0</ele><time>2026-04-26T09:06:10.45Z</time></trkpt><trkpt lat="44.2499" lon="10.6167833"><ele>1272.25</ele><time>2026-04-26T09:06:11.45Z</time></trkpt><trkpt lat="44.24978" lon="10.6168717"><ele>1272.5</ele><time>2026-04-26T09:06:12.45Z</time></trkpt><trkpt lat="44.249655" lon="10.616955"><ele>1272.75</ele><time>2026-04-26T09:06:13.45Z</time></trkpt><trkpt lat="44.24955" lon="10.6170417"><ele>1273.0</ele><time>2026-04-26T09:06:14.45Z</time></trkpt><trkpt lat="44.24945" lon="10.6171117"><ele>1273.0</ele><time>2026-04-26T09:06:15.45Z</time></trkpt><trkpt lat="44.2493417" lon="10.617155"><ele>1273.0</ele><time>2026-04-26T09:06:16.45Z</time></trkpt><trkpt lat="44.2492333" lon="10.617195"><ele>1273.0</ele><time>2026-04-26T09:06:17.45Z</time></trkpt><trkpt lat="44.24912" lon="10.61722"><ele>1273.0</ele><time>2026-04-26T09:06:18.45Z</time></trkpt><trkpt lat="44.2490033" lon="10.617225"><ele>1274.0</ele><time>2026-04-26T09:06:19.45Z</time></trkpt><trkpt lat="44.24889" lon="10.6172217"><ele>1275.0</ele><time>2026-04-26T09:06:20.45Z</time></trkpt><trkpt lat="44.248765" lon="10.6172017"><ele>1276.0</ele><time>2026-04-26T09:06:21.45Z</time></trkpt><trkpt lat="44.2486217" lon="10.6171833"><ele>1277.0</ele><time>2026-04-26T09:06:22.45Z</time></trkpt><trkpt lat="44.248485" lon="10.617165"><ele>1277.0</ele><time>2026-04-26T09:06:23.451Z</time></trkpt><trkpt lat="44.2483383" lon="10.6171567"><ele>1277.0</ele><time>2026-04-26T09:06:24.45Z</time></trkpt><trkpt lat="44.2481883" lon="10.6171383"><ele>1277.0</ele><time>2026-04-26T09:06:25.45Z</time></trkpt><trkpt lat="44.2480583" lon="10.617145"><ele>1277.0</ele><time>2026-04-26T09:06:26.45Z</time></trkpt><trkpt lat="44.2479483" lon="10.6171917"><ele>1283.75</ele><time>2026-04-26T09:06:27.45Z</time></trkpt><trkpt lat="44.247845" lon="10.6172683"><ele>1290.5</ele><time>2026-04-26T09:06:28.45Z</time></trkpt><trkpt lat="44.2477467" lon="10.6173633"><ele>1297.25</ele><time>2026-04-26T09:06:29.451Z</time></trkpt><trkpt lat="44.2476383" lon="10.6174867"><ele>1304.0</ele><time>2026-04-26T09:06:30.45Z</time></trkpt><trkpt lat="44.2475383" lon="10.6176233"><ele>1304.0</ele><time>2026-04-26T09:06:31.45Z</time></trkpt><trkpt lat="44.247445" lon="10.617765"><ele>1304.0</ele><time>2026-04-26T09:06:32.45Z</time></trkpt><trkpt lat="44.2473633" lon="10.61789"><ele>1304.0</ele><time>2026-04-26T09:06:33.45Z</time></trkpt><trkpt lat="44.2472833" lon="10.617995"><ele>1304.0</ele><time>2026-04-26T09:06:34.45Z</time></trkpt><trkpt lat="44.2471817" lon="10.6181083"><ele>1304.0</ele><time>2026-04-26T09:06:35.45Z</time></trkpt><trkpt lat="44.2470617" lon="10.6182133"><ele>1304.0</ele><time>2026-04-26T09:06:36.45Z</time></trkpt><trkpt lat="44.2469233" lon="10.6183233"><ele>1304.0</ele><time>2026-04-26T09:06:37.45Z</time></trkpt><trkpt lat="44.24679" lon="10.6184317"><ele>1304.0</ele><time>2026-04-26T09:06:38.45Z</time></trkpt><trkpt lat="44.2466483" lon="10.618555"><ele>1304.0</ele><time>2026-04-26T09:06:39.45Z</time></trkpt><trkpt lat="44.2465017" lon="10.618695"><ele>1304.0</ele><time>2026-04-26T09:06:40.45Z</time></trkpt><trkpt lat="44.2463683" lon="10.6188233"><ele>1304.5</ele><time>2026-04-26T09:06:41.45Z</time></trkpt><trkpt lat="44.2462417" lon="10.6189367"><ele>1305.0</ele><time>2026-04-26T09:06:42.45Z</time></trkpt><trkpt lat="44.2461217" lon="10.61903"><ele>1305.5</ele><time>2026-04-26T09:06:43.45Z</time></trkpt><trkpt lat="44.2459983" lon="10.6190967"><ele>1306.0</ele><time>2026-04-26T09:06:44.45Z</time></trkpt><trkpt lat="44.2458683" lon="10.6191383"><ele>1306.0</ele><time>2026-04-26T09:06:45.45Z</time></trkpt><trkpt lat="44.2457383" lon="10.6191617"><ele>1306.0</ele><time>2026-04-26T09:06:46.45Z</time></trkpt><trkpt lat="44.24561" lon="10.619155"><ele>1306.0</ele><time>2026-04-26T09:06:47.45Z</time></trkpt><trkpt lat="44.2455017" lon="10.6191283"><ele>1306.0</ele><time>2026-04-26T09:06:48.45Z</time></trkpt><trkpt lat="44.2454133" lon="10.6190783"><ele>1306.5</ele><time>2026-04-26T09:06:49.45Z</time></trkpt><trkpt lat="44.2453167" lon="10.6190033"><ele>1307.0</ele><time>2026-04-26T09:06:50.45Z</time></trkpt><trkpt lat="44.2452117" lon="10.6189"><ele>1307.5</ele><time>2026-04-26T09:06:51.45Z</time></trkpt><trkpt lat="44.2450933" lon="10.6187667"><ele>1308.0</ele><time>2026-04-26T09:06:52.45Z</time></trkpt><trkpt lat="44.2449867" lon="10.6186333"><ele>1308.0</ele><time>2026-04-26T09:06:53.45Z</time></trkpt><trkpt lat="44.244895" lon="10.61851"><ele>1308.0</ele><time>2026-04-26T09:06:54.45Z</time></trkpt><trkpt lat="44.244825" lon="10.6184033"><ele>1308.0</ele><time>2026-04-26T09:06:55.45Z</time></trkpt><trkpt lat="44.24477" lon="10.61828"><ele>1308.0</ele><time>2026-04-26T09:06:56.451Z</time></trkpt><trkpt lat="44.2447233" lon="10.618135"><ele>1308.0</ele><time>2026-04-26T09:06:57.45Z</time></trkpt><trkpt lat="44.24468" lon="10.6179717"><ele>1303.75</ele><time>2026-04-26T09:06:58.45Z</time></trkpt><trkpt lat="44.2446317" lon="10.61781"><ele>1299.5</ele><time>2026-04-26T09:06:59.45Z</time></trkpt><trkpt lat="44.2445783" lon="10.6176633"><ele>1295.25</ele><time>2026-04-26T09:07:00.451Z</time></trkpt><trkpt lat="44.2445217" lon="10.6175133"><ele>1291.0</ele><time>2026-04-26T09:07:01.45Z</time></trkpt><trkpt lat="44.2444517" lon="10.617365"><ele>1291.0</ele><time>2026-04-26T09:07:02.45Z</time></trkpt><trkpt lat="44.2443683" lon="10.6172333"><ele>1291.0</ele><time>2026-04-26T09:07:03.45Z</time></trkpt><trkpt lat="44.2442817" lon="10.6171117"><ele>1291.0</ele><time>2026-04-26T09:07:04.45Z</time></trkpt><trkpt lat="44.244205" lon="10.61701"><ele>1291.0</ele><time>2026-04-26T09:07:05.45Z</time></trkpt><trkpt lat="44.2441283" lon="10.616925"><ele>1290.8</ele><time>2026-04-26T09:07:06.45Z</time></trkpt><trkpt lat="44.2440517" lon="10.6168717"><ele>1290.6</ele><time>2026-04-26T09:07:07.45Z</time></trkpt><trkpt lat="44.2439783" lon="10.6168333"><ele>1290.4</ele><time>2026-04-26T09:07:08.45Z</time></trkpt><trkpt lat="44.243885" lon="10.616805"><ele>1290.2</ele><time>2026-04-26T09:07:09.45Z</time></trkpt><trkpt lat="44.2437467" lon="10.61681"><ele>1290.0</ele><time>2026-04-26T09:07:10.45Z</time></trkpt><trkpt lat="44.2436067" lon="10.6168133"><ele>1290.0</ele><time>2026-04-26T09:07:11.45Z</time></trkpt><trkpt lat="44.2434867" lon="10.6168117"><ele>1290.0</ele><time>2026-04-26T09:07:12.45Z</time></trkpt><trkpt lat="44.2433783" lon="10.616795"><ele>1290.0</ele><time>2026-04-26T09:07:13.45Z</time></trkpt><trkpt lat="44.24329" lon="10.616765"><ele>1290.0</ele><time>2026-04-26T09:07:14.45Z</time></trkpt><trkpt lat="44.243205" lon="10.616685"><ele>1290.0</ele><time>2026-04-26T09:07:15.45Z</time></trkpt><trkpt lat="44.2431333" lon="10.6165867"><ele>1289.75</ele><time>2026-04-26T09:07:16.45Z</time></trkpt><trkpt lat="44.24306" lon="10.6164467"><ele>1289.5</ele><time>2026-04-26T09:07:17.45Z</time></trkpt><trkpt lat="44.242985" lon="10.6162867"><ele>1289.25</ele><time>2026-04-26T09:07:18.45Z</time></trkpt><trkpt lat="44.2429167" lon="10.616125"><ele>1289.0</ele><time>2026-04-26T09:07:19.45Z</time></trkpt><trkpt lat="44.242835" lon="10.6159817"><ele>1288.75</ele><time>2026-04-26T09:07:20.45Z</time></trkpt><trkpt lat="44.2427333" lon="10.6158717"><ele>1288.5</ele><time>2026-04-26T09:07:21.45Z</time></trkpt><trkpt lat="44.2426183" lon="10.6157733"><ele>1288.25</ele><time>2026-04-26T09:07:22.45Z</time></trkpt><trkpt lat="44.2425017" lon="10.6156983"><ele>1288.0</ele><time>2026-04-26T09:07:23.45Z</time></trkpt><trkpt lat="44.2423767" lon="10.6156167"><ele>1287.25</ele><time>2026-04-26T09:07:24.45Z</time></trkpt><trkpt lat="44.2422533" lon="10.61553"><ele>1286.5</ele><time>2026-04-26T09:07:25.45Z</time></trkpt><trkpt lat="44.242155" lon="10.6154417"><ele>1285.75</ele><time>2026-04-26T09:07:26.45Z</time></trkpt><trkpt lat="44.24205" lon="10.6153167"><ele>1285.0</ele><time>2026-04-26T09:07:27.45Z</time></trkpt><trkpt lat="44.2419517" lon="10.6151933"><ele>1284.0</ele><time>2026-04-26T09:07:28.45Z</time></trkpt><trkpt lat="44.2418617" lon="10.615065"><ele>1283.0</ele><time>2026-04-26T09:07:29.45Z</time></trkpt><trkpt lat="44.2417783" lon="10.6149383"><ele>1282.0</ele><time>2026-04-26T09:07:30.45Z</time></trkpt><trkpt lat="44.2416867" lon="10.6148117"><ele>1281.0</ele><time>2026-04-26T09:07:31.45Z</time></trkpt><trkpt lat="44.2415883" lon="10.614675"><ele>1280.6666666666667</ele><time>2026-04-26T09:07:32.45Z</time></trkpt><trkpt lat="44.2414633" lon="10.6145483"><ele>1280.3333333333335</ele><time>2026-04-26T09:07:33.45Z</time></trkpt><trkpt lat="44.2413283" lon="10.61441"><ele>1280.0</ele><time>2026-04-26T09:07:34.45Z</time></trkpt><trkpt lat="44.2411983" lon="10.6142767"><ele>1281.0</ele><time>2026-04-26T09:07:35.45Z</time></trkpt><trkpt lat="44.241065" lon="10.614175"><ele>1282.0</ele><time>2026-04-26T09:07:36.45Z</time></trkpt><trkpt lat="44.24095" lon="10.61409"><ele>1283.0</ele><time>2026-04-26T09:07:37.45Z</time></trkpt><trkpt lat="44.2408433" lon="10.6140183"><ele>1284.0</ele><time>2026-04-26T09:07:38.45Z</time></trkpt><trkpt lat="44.2407267" lon="10.6139683"><ele>1285.2</ele><time>2026-04-26T09:07:39.45Z</time></trkpt><trkpt lat="44.240605" lon="10.6139417"><ele>1286.4</ele><time>2026-04-26T09:07:40.451Z</time></trkpt><trkpt lat="44.2404933" lon="10.6139267"><ele>1287.6</ele><time>2026-04-26T09:07:41.45Z</time></trkpt><trkpt lat="44.2404017" lon="10.6139283"><ele>1288.8</ele><time>2026-04-26T09:07:42.45Z</time></trkpt><trkpt lat="44.240315" lon="10.61392"><ele>1290.0</ele><time>2026-04-26T09:07:43.45Z</time></trkpt><trkpt lat="44.240235" lon="10.61392"><ele>1290.0</ele><time>2026-04-26T09:07:44.45Z</time></trkpt><trkpt lat="44.2401583" lon="10.6139467"><ele>1290.0</ele><time>2026-04-26T09:07:45.45Z</time></trkpt><trkpt lat="44.2400683" lon="10.613985"><ele>1290.0</ele><time>2026-04-26T09:07:46.45Z</time></trkpt><trkpt lat="44.23998" lon="10.6140333"><ele>1290.0</ele><time>2026-04-26T09:07:47.45Z</time></trkpt><trkpt lat="44.23989" lon="10.614065"><ele>1290.0</ele><time>2026-04-26T09:07:48.451Z</time></trkpt><trkpt lat="44.239795" lon="10.6140883"><ele>1291.0</ele><time>2026-04-26T09:07:49.45Z</time></trkpt><trkpt lat="44.2396917" lon="10.6140967"><ele>1292.0</ele><time>2026-04-26T09:07:50.45Z</time></trkpt><trkpt lat="44.2395717" lon="10.6140933"><ele>1293.0</ele><time>2026-04-26T09:07:51.45Z</time></trkpt><trkpt lat="44.23945" lon="10.61407"><ele>1294.0</ele><time>2026-04-26T09:07:52.45Z</time></trkpt><trkpt lat="44.2393333" lon="10.6140383"><ele>1294.0</ele><time>2026-04-26T09:07:53.45Z</time></trkpt><trkpt lat="44.2392133" lon="10.6140017"><ele>1294.0</ele><time>2026-04-26T09:07:54.451Z</time></trkpt><trkpt lat="44.2391083" lon="10.613975"><ele>1294.0</ele><time>2026-04-26T09:07:55.45Z</time></trkpt><trkpt lat="44.2390117" lon="10.6139317"><ele>1294.0</ele><time>2026-04-26T09:07:56.45Z</time></trkpt><trkpt lat="44.238905" lon="10.61386"><ele>1294.0</ele><time>2026-04-26T09:07:57.45Z</time></trkpt><trkpt lat="44.2387833" lon="10.6137683"><ele>1298.6666666666665</ele><time>2026-04-26T09:07:58.45Z</time></trkpt><trkpt lat="44.2386533" lon="10.61365"><ele>1303.3333333333333</ele><time>2026-04-26T09:07:59.45Z</time></trkpt><trkpt lat="44.23851" lon="10.613525"><ele>1308.0</ele><time>2026-04-26T09:08:00.45Z</time></trkpt><trkpt lat="44.2383717" lon="10.613405"><ele>1308.0</ele><time>2026-04-26T09:08:01.45Z</time></trkpt><trkpt lat="44.2382317" lon="10.6133283"><ele>1308.0</ele><time>2026-04-26T09:08:02.45Z</time></trkpt><trkpt lat="44.2380867" lon="10.613265"><ele>1308.0</ele><time>2026-04-26T09:08:03.45Z</time></trkpt><trkpt lat="44.2379417" lon="10.6132267"><ele>1306.5</ele><time>2026-04-26T09:08:04.45Z</time></trkpt><trkpt lat="44.23781" lon="10.613205"><ele>1305.0</ele><time>2026-04-26T09:08:05.45Z</time></trkpt><trkpt lat="44.23769" lon="10.6131867"><ele>1303.5</ele><time>2026-04-26T09:08:06.45Z</time></trkpt><trkpt lat="44.23756" lon="10.6131583"><ele>1302.0</ele><time>2026-04-26T09:08:07.45Z</time></trkpt><trkpt lat="44.2374317" lon="10.6131133"><ele>1302.0</ele><time>2026-04-26T09:08:08.45Z</time></trkpt><trkpt lat="44.237325" lon="10.6130583"><ele>1302.0</ele><time>2026-04-26T09:08:09.45Z</time></trkpt><trkpt lat="44.2372183" lon="10.6129833"><ele>1302.0</ele><time>2026-04-26T09:08:10.45Z</time></trkpt><trkpt lat="44.2371133" lon="10.6128917"><ele>1302.0</ele><time>2026-04-26T09:08:11.45Z</time></trkpt><trkpt lat="44.237015" lon="10.6127733"><ele>1303.6</ele><time>2026-04-26T09:08:12.45Z</time></trkpt><trkpt lat="44.236925" lon="10.6126517"><ele>1305.1999999999998</ele><time>2026-04-26T09:08:13.45Z</time></trkpt><trkpt lat="44.2368367" lon="10.612555"><ele>1306.8</ele><time>2026-04-26T09:08:14.45Z</time></trkpt><trkpt lat="44.236745" lon="10.6124933"><ele>1308.4</ele><time>2026-04-26T09:08:15.45Z</time></trkpt><trkpt lat="44.2366467" lon="10.61246"><ele>1310.0</ele><time>2026-04-26T09:08:16.45Z</time></trkpt><trkpt lat="44.2365467" lon="10.6124433"><ele>1306.5</ele><time>2026-04-26T09:08:17.451Z</time></trkpt><trkpt lat="44.236455" lon="10.61243"><ele>1303.0</ele><time>2026-04-26T09:08:18.45Z</time></trkpt><trkpt lat="44.2363767" lon="10.61241"><ele>1299.5</ele><time>2026-04-26T09:08:19.45Z</time></trkpt><trkpt lat="44.2363133" lon="10.612385"><ele>1296.0</ele><time>2026-04-26T09:08:20.45Z</time></trkpt><trkpt lat="44.2362267" lon="10.6122983"><ele>1292.5</ele><time>2026-04-26T09:08:22.45Z</time></trkpt><trkpt lat="44.2361783" lon="10.61223"><ele>1289.0</ele><time>2026-04-26T09:08:25.45Z</time></trkpt><trkpt lat="44.235945" lon="10.6123167"><ele>1289.0</ele><time>2026-04-26T09:09:18.451Z</time></trkpt><trkpt lat="44.2360783" lon="10.6123183"><ele>1289.0</ele><time>2026-04-26T09:09:25.45Z</time></trkpt><trkpt lat="44.236165" lon="10.612255"><ele>1289.0</ele><time>2026-04-26T09:10:28.449Z</time></trkpt><trkpt lat="44.236155" lon="10.6121467"><ele>1289.0</ele><time>2026-04-26T09:21:33.446Z</time></trkpt><trkpt lat="44.2360917" lon="10.612"><ele>1289.0</ele><time>2026-04-26T09:21:35.446Z</time></trkpt><trkpt lat="44.2360633" lon="10.6119"><ele>1290.4</ele><time>2026-04-26T09:21:36.446Z</time></trkpt><trkpt lat="44.2360483" lon="10.6117867"><ele>1291.8000000000002</ele><time>2026-04-26T09:21:37.446Z</time></trkpt><trkpt lat="44.2360367" lon="10.611645"><ele>1293.1999999999998</ele><time>2026-04-26T09:21:38.446Z</time></trkpt><trkpt lat="44.236025" lon="10.6114883"><ele>1294.6</ele><time>2026-04-26T09:21:39.446Z</time></trkpt><trkpt lat="44.2360133" lon="10.6113183"><ele>1296.0</ele><time>2026-04-26T09:21:40.446Z</time></trkpt><trkpt lat="44.2359917" lon="10.61114"><ele>1298.25</ele><time>2026-04-26T09:21:41.446Z</time></trkpt><trkpt lat="44.2359567" lon="10.610945"><ele>1300.5</ele><time>2026-04-26T09:21:42.446Z</time></trkpt><trkpt lat="44.2359083" lon="10.61074"><ele>1302.75</ele><time>2026-04-26T09:21:43.446Z</time></trkpt><trkpt lat="44.2358633" lon="10.610545"><ele>1305.0</ele><time>2026-04-26T09:21:44.446Z</time></trkpt><trkpt lat="44.235815" lon="10.61036"><ele>1306.75</ele><time>2026-04-26T09:21:45.446Z</time></trkpt><trkpt lat="44.2357633" lon="10.6101833"><ele>1308.5</ele><time>2026-04-26T09:21:46.446Z</time></trkpt><trkpt lat="44.2357017" lon="10.6100217"><ele>1310.25</ele><time>2026-04-26T09:21:47.446Z</time></trkpt><trkpt lat="44.2356233" lon="10.6098817"><ele>1312.0</ele><time>2026-04-26T09:21:48.446Z</time></trkpt><trkpt lat="44.23554" lon="10.60975"><ele>1306.6</ele><time>2026-04-26T09:21:49.446Z</time></trkpt><trkpt lat="44.2354683" lon="10.60962"><ele>1301.1999999999998</ele><time>2026-04-26T09:21:50.446Z</time></trkpt><trkpt lat="44.2354067" lon="10.6094983"><ele>1295.8</ele><time>2026-04-26T09:21:51.446Z</time></trkpt><trkpt lat="44.2353567" lon="10.609375"><ele>1290.4</ele><time>2026-04-26T09:21:52.446Z</time></trkpt><trkpt lat="44.23532" lon="10.6092483"><ele>1285.0</ele><time>2026-04-26T09:21:53.446Z</time></trkpt><trkpt lat="44.2353017" lon="10.609115"><ele>1285.0</ele><time>2026-04-26T09:21:54.446Z</time></trkpt><trkpt lat="44.235305" lon="10.6089833"><ele>1285.0</ele><time>2026-04-26T09:21:55.446Z</time></trkpt><trkpt lat="44.2353233" lon="10.6088533"><ele>1285.0</ele><time>2026-04-26T09:21:56.446Z</time></trkpt><trkpt lat="44.2353567" lon="10.6087183"><ele>1285.0</ele><time>2026-04-26T09:21:57.446Z</time></trkpt><trkpt lat="44.2354017" lon="10.6085933"><ele>1285.0</ele><time>2026-04-26T09:21:58.447Z</time></trkpt><trkpt lat="44.2354583" lon="10.6084783"><ele>1282.5</ele><time>2026-04-26T09:21:59.446Z</time></trkpt><trkpt lat="44.2355333" lon="10.608365"><ele>1280.0</ele><time>2026-04-26T09:22:00.446Z</time></trkpt><trkpt lat="44.2356233" lon="10.6082483"><ele>1277.5</ele><time>2026-04-26T09:22:01.446Z</time></trkpt><trkpt lat="44.2357167" lon="10.608135"><ele>1275.0</ele><time>2026-04-26T09:22:02.446Z</time></trkpt><trkpt lat="44.235795" lon="10.6080217"><ele>1277.0</ele><time>2026-04-26T09:22:03.446Z</time></trkpt><trkpt lat="44.23586" lon="10.607915"><ele>1279.0</ele><time>2026-04-26T09:22:04.446Z</time></trkpt><trkpt lat="44.2359083" lon="10.6077883"><ele>1281.0</ele><time>2026-04-26T09:22:05.446Z</time></trkpt><trkpt lat="44.23594" lon="10.6076417"><ele>1283.0</ele><time>2026-04-26T09:22:06.446Z</time></trkpt><trkpt lat="44.2359567" lon="10.607505"><ele>1285.0</ele><time>2026-04-26T09:22:07.446Z</time></trkpt><trkpt lat="44.2359567" lon="10.6073583"><ele>1285.0</ele><time>2026-04-26T09:22:08.447Z</time></trkpt><trkpt lat="44.2359433" lon="10.6072217"><ele>1285.0</ele><time>2026-04-26T09:22:09.446Z</time></trkpt><trkpt lat="44.235905" lon="10.607075"><ele>1285.0</ele><time>2026-04-26T09:22:10.446Z</time></trkpt><trkpt lat="44.2358517" lon="10.60692"><ele>1285.0</ele><time>2026-04-26T09:22:11.446Z</time></trkpt><trkpt lat="44.2358" lon="10.6067683"><ele>1284.75</ele><time>2026-04-26T09:22:12.446Z</time></trkpt><trkpt lat="44.2357633" lon="10.6065983"><ele>1284.5</ele><time>2026-04-26T09:22:13.447Z</time></trkpt><trkpt lat="44.2357317" lon="10.6064217"><ele>1284.25</ele><time>2026-04-26T09:22:14.446Z</time></trkpt><trkpt lat="44.235695" lon="10.606245"><ele>1284.0</ele><time>2026-04-26T09:22:15.447Z</time></trkpt><trkpt lat="44.2356433" lon="10.6060667"><ele>1280.0</ele><time>2026-04-26T09:22:16.446Z</time></trkpt><trkpt lat="44.23556" lon="10.6059183"><ele>1276.0</ele><time>2026-04-26T09:22:17.446Z</time></trkpt><trkpt lat="44.2354567" lon="10.605765"><ele>1272.0</ele><time>2026-04-26T09:22:18.446Z</time></trkpt><trkpt lat="44.23535" lon="10.6055917"><ele>1272.0</ele><time>2026-04-26T09:22:19.446Z</time></trkpt><trkpt lat="44.2352567" lon="10.605435"><ele>1272.0</ele><time>2026-04-26T09:22:20.446Z</time></trkpt><trkpt lat="44.2351783" lon="10.605305"><ele>1272.0</ele><time>2026-04-26T09:22:21.446Z</time></trkpt><trkpt lat="44.2351183" lon="10.6052017"><ele>1272.0</ele><time>2026-04-26T09:22:22.447Z</time></trkpt><trkpt lat="44.2350767" lon="10.6051117"><ele>1272.0</ele><time>2026-04-26T09:22:23.446Z</time></trkpt><trkpt lat="44.235025" lon="10.6049733"><ele>1272.1666666666667</ele><time>2026-04-26T09:22:25.446Z</time></trkpt><trkpt lat="44.2350333" lon="10.604855"><ele>1272.3333333333333</ele><time>2026-04-26T09:22:27.446Z</time></trkpt><trkpt lat="44.2350583" lon="10.604725"><ele>1272.5</ele><time>2026-04-26T09:22:29.446Z</time></trkpt><trkpt lat="44.2350933" lon="10.60458"><ele>1272.6666666666665</ele><time>2026-04-26T09:22:31.446Z</time></trkpt><trkpt lat="44.2351217" lon="10.6044883"><ele>1272.8333333333333</ele><time>2026-04-26T09:22:32.446Z</time></trkpt><trkpt lat="44.23516" lon="10.604385"><ele>1273.0</ele><time>2026-04-26T09:22:33.447Z</time></trkpt><trkpt lat="44.2352183" lon="10.6042867"><ele>1272.5</ele><time>2026-04-26T09:22:34.446Z</time></trkpt><trkpt lat="44.2352867" lon="10.6042017"><ele>1272.0</ele><time>2026-04-26T09:22:35.446Z</time></trkpt><trkpt lat="44.235355" lon="10.6041267"><ele>1271.5</ele><time>2026-04-26T09:22:36.446Z</time></trkpt><trkpt lat="44.2354033" lon="10.604045"><ele>1271.0</ele><time>2026-04-26T09:22:37.446Z</time></trkpt><trkpt lat="44.2354417" lon="10.6039467"><ele>1270.5</ele><time>2026-04-26T09:22:38.446Z</time></trkpt><trkpt lat="44.2354667" lon="10.6038467"><ele>1270.0</ele><time>2026-04-26T09:22:39.446Z</time></trkpt><trkpt lat="44.23546" lon="10.6036767"><ele>1269.3333333333333</ele><time>2026-04-26T09:22:41.446Z</time></trkpt><trkpt lat="44.2354333" lon="10.60359"><ele>1268.6666666666665</ele><time>2026-04-26T09:22:42.446Z</time></trkpt><trkpt lat="44.235395" lon="10.6034917"><ele>1268.0</ele><time>2026-04-26T09:22:43.446Z</time></trkpt><trkpt lat="44.235355" lon="10.6033833"><ele>1267.3333333333333</ele><time>2026-04-26T09:22:44.446Z</time></trkpt><trkpt lat="44.2353267" lon="10.6032483"><ele>1266.6666666666667</ele><time>2026-04-26T09:22:45.446Z</time></trkpt><trkpt lat="44.2353183" lon="10.603095"><ele>1266.0</ele><time>2026-04-26T09:22:46.446Z</time></trkpt><trkpt lat="44.23532" lon="10.6029317"><ele>1265.5</ele><time>2026-04-26T09:22:47.446Z</time></trkpt><trkpt lat="44.2353317" lon="10.6027683"><ele>1265.0</ele><time>2026-04-26T09:22:48.447Z</time></trkpt><trkpt lat="44.235345" lon="10.6026033"><ele>1264.5</ele><time>2026-04-26T09:22:49.446Z</time></trkpt><trkpt lat="44.235365" lon="10.6024567"><ele>1264.0</ele><time>2026-04-26T09:22:50.446Z</time></trkpt><trkpt lat="44.2353967" lon="10.6023067"><ele>1264.0</ele><time>2026-04-26T09:22:51.447Z</time></trkpt><trkpt lat="44.2354333" lon="10.602175"><ele>1264.0</ele><time>2026-04-26T09:22:52.446Z</time></trkpt><trkpt lat="44.2354767" lon="10.602045"><ele>1264.0</ele><time>2026-04-26T09:22:53.446Z</time></trkpt><trkpt lat="44.23553" lon="10.6019267"><ele>1264.0</ele><time>2026-04-26T09:22:54.446Z</time></trkpt><trkpt lat="44.2355933" lon="10.6018183"><ele>1264.0</ele><time>2026-04-26T09:22:55.447Z</time></trkpt><trkpt lat="44.235645" lon="10.6017133"><ele>1265.8</ele><time>2026-04-26T09:22:56.446Z</time></trkpt><trkpt lat="44.2356967" lon="10.6015933"><ele>1267.6000000000001</ele><time>2026-04-26T09:22:57.446Z</time></trkpt><trkpt lat="44.2357383" lon="10.6014883"><ele>1269.4</ele><time>2026-04-26T09:22:58.446Z</time></trkpt><trkpt lat="44.2357733" lon="10.6014017"><ele>1271.2</ele><time>2026-04-26T09:22:59.446Z</time></trkpt><trkpt lat="44.23581" lon="10.6012533"><ele>1273.0</ele><time>2026-04-26T09:23:01.446Z</time></trkpt><trkpt lat="44.235735" lon="10.6011183"><ele>1273.0</ele><time>2026-04-26T09:23:03.446Z</time></trkpt><trkpt lat="44.2356767" lon="10.6010233"><ele>1273.0</ele><time>2026-04-26T09:23:04.446Z</time></trkpt><trkpt lat="44.2356117" lon="10.6009017"><ele>1273.0</ele><time>2026-04-26T09:23:05.446Z</time></trkpt><trkpt lat="44.2355467" lon="10.600775"><ele>1273.0</ele><time>2026-04-26T09:23:06.446Z</time></trkpt><trkpt lat="44.2354867" lon="10.6006683"><ele>1273.0</ele><time>2026-04-26T09:23:07.446Z</time></trkpt><trkpt lat="44.23542" lon="10.6005817"><ele>1270.8</ele><time>2026-04-26T09:23:08.446Z</time></trkpt><trkpt lat="44.2353433" lon="10.6005233"><ele>1268.6</ele><time>2026-04-26T09:23:09.446Z</time></trkpt><trkpt lat="44.2352517" lon="10.6004833"><ele>1266.4</ele><time>2026-04-26T09:23:10.446Z</time></trkpt><trkpt lat="44.2351617" lon="10.6004267"><ele>1264.2</ele><time>2026-04-26T09:23:11.446Z</time></trkpt><trkpt lat="44.2350767" lon="10.6003283"><ele>1262.0</ele><time>2026-04-26T09:23:12.446Z</time></trkpt><trkpt lat="44.2350033" lon="10.6002283"><ele>1262.0</ele><time>2026-04-26T09:23:13.446Z</time></trkpt><trkpt lat="44.2349417" lon="10.6001583"><ele>1262.0</ele><time>2026-04-26T09:23:14.446Z</time></trkpt><trkpt lat="44.23489" lon="10.6001067"><ele>1262.0</ele><time>2026-04-26T09:23:15.446Z</time></trkpt><trkpt lat="44.2348367" lon="10.6000333"><ele>1262.0</ele><time>2026-04-26T09:23:16.446Z</time></trkpt><trkpt lat="44.2348017" lon="10.5999533"><ele>1262.0</ele><time>2026-04-26T09:23:17.446Z</time></trkpt><trkpt lat="44.23479" lon="10.599865"><ele>1262.0</ele><time>2026-04-26T09:23:18.446Z</time></trkpt><trkpt lat="44.2348" lon="10.5997733"><ele>1262.0</ele><time>2026-04-26T09:23:19.446Z</time></trkpt><trkpt lat="44.234835" lon="10.5996583"><ele>1262.0</ele><time>2026-04-26T09:23:20.446Z</time></trkpt><trkpt lat="44.23487" lon="10.59954"><ele>1262.0</ele><time>2026-04-26T09:23:21.446Z</time></trkpt><trkpt lat="44.2348917" lon="10.59943"><ele>1262.0</ele><time>2026-04-26T09:23:22.446Z</time></trkpt><trkpt lat="44.2348983" lon="10.5993167"><ele>1262.0</ele><time>2026-04-26T09:23:23.446Z</time></trkpt><trkpt lat="44.2348817" lon="10.5992"><ele>1262.0</ele><time>2026-04-26T09:23:24.446Z</time></trkpt><trkpt lat="44.2348267" lon="10.5990833"><ele>1262.0</ele><time>2026-04-26T09:23:25.446Z</time></trkpt><trkpt lat="44.2347" lon="10.5990067"><ele>1260.0</ele><time>2026-04-26T09:23:26.447Z</time></trkpt><trkpt lat="44.23458" lon="10.5989283"><ele>1258.0</ele><time>2026-04-26T09:23:27.446Z</time></trkpt><trkpt lat="44.2344667" lon="10.5988617"><ele>1256.0</ele><time>2026-04-26T09:23:28.445Z</time></trkpt><trkpt lat="44.2343583" lon="10.5988083"><ele>1254.0</ele><time>2026-04-26T09:23:29.445Z</time></trkpt><trkpt lat="44.23426" lon="10.59875"><ele>1254.0</ele><time>2026-04-26T09:23:30.445Z</time></trkpt><trkpt lat="44.2341633" lon="10.5986767"><ele>1254.0</ele><time>2026-04-26T09:23:31.445Z</time></trkpt><trkpt lat="44.2340733" lon="10.5985917"><ele>1254.0</ele><time>2026-04-26T09:23:32.445Z</time></trkpt><trkpt lat="44.2339983" lon="10.5984983"><ele>1254.0</ele><time>2026-04-26T09:23:33.445Z</time></trkpt><trkpt lat="44.233945" lon="10.59838"><ele>1254.0</ele><time>2026-04-26T09:23:34.445Z</time></trkpt><trkpt lat="44.2339033" lon="10.5982367"><ele>1253.2</ele><time>2026-04-26T09:23:35.445Z</time></trkpt><trkpt lat="44.233865" lon="10.5980883"><ele>1252.4</ele><time>2026-04-26T09:23:36.445Z</time></trkpt><trkpt lat="44.2338333" lon="10.5979417"><ele>1251.6</ele><time>2026-04-26T09:23:37.445Z</time></trkpt><trkpt lat="44.233825" lon="10.5977967"><ele>1250.8</ele><time>2026-04-26T09:23:38.446Z</time></trkpt><trkpt lat="44.233835" lon="10.597655"><ele>1250.0</ele><time>2026-04-26T09:23:39.445Z</time></trkpt><trkpt lat="44.2338483" lon="10.5975383"><ele>1253.4</ele><time>2026-04-26T09:23:40.446Z</time></trkpt><trkpt lat="44.23386" lon="10.5973867"><ele>1256.8</ele><time>2026-04-26T09:23:42.445Z</time></trkpt><trkpt lat="44.2338083" lon="10.597295"><ele>1260.2</ele><time>2026-04-26T09:23:45.445Z</time></trkpt><trkpt lat="44.233685" lon="10.597345"><ele>1263.6</ele><time>2026-04-26T09:24:38.445Z</time></trkpt><trkpt lat="44.2335783" lon="10.5973583"><ele>1267.0</ele><time>2026-04-26T09:24:39.445Z</time></trkpt><trkpt lat="44.2334617" lon="10.5973367"><ele>1267.0</ele><time>2026-04-26T09:24:40.445Z</time></trkpt><trkpt lat="44.2333683" lon="10.597325"><ele>1267.0</ele><time>2026-04-26T09:24:41.445Z</time></trkpt><trkpt lat="44.233255" lon="10.5973183"><ele>1267.0</ele><time>2026-04-26T09:24:42.445Z</time></trkpt><trkpt lat="44.23316" lon="10.5973017"><ele>1267.0</ele><time>2026-04-26T09:24:43.445Z</time></trkpt><trkpt lat="44.2330717" lon="10.5972567"><ele>1267.0</ele><time>2026-04-26T09:24:44.445Z</time></trkpt><trkpt lat="44.23298" lon="10.5971567"><ele>1268.0</ele><time>2026-04-26T09:24:45.445Z</time></trkpt><trkpt lat="44.2329083" lon="10.5970083"><ele>1269.0</ele><time>2026-04-26T09:24:46.445Z</time></trkpt><trkpt lat="44.2328383" lon="10.5968733"><ele>1270.0</ele><time>2026-04-26T09:24:47.445Z</time></trkpt><trkpt lat="44.2327733" lon="10.5967617"><ele>1271.0</ele><time>2026-04-26T09:24:48.445Z</time></trkpt><trkpt lat="44.2327117" lon="10.59667"><ele>1272.0</ele><time>2026-04-26T09:24:49.445Z</time></trkpt><trkpt lat="44.2326483" lon="10.5965817"><ele>1272.0</ele><time>2026-04-26T09:24:50.445Z</time></trkpt><trkpt lat="44.2325783" lon="10.5964967"><ele>1272.0</ele><time>2026-04-26T09:24:51.445Z</time></trkpt><trkpt lat="44.2325017" lon="10.5964167"><ele>1272.0</ele><time>2026-04-26T09:24:52.445Z</time></trkpt><trkpt lat="44.232415" lon="10.596345"><ele>1272.0</ele><time>2026-04-26T09:24:53.445Z</time></trkpt><trkpt lat="44.2323283" lon="10.5962683"><ele>1272.0</ele><time>2026-04-26T09:24:54.445Z</time></trkpt><trkpt lat="44.2322417" lon="10.5961833"><ele>1272.8</ele><time>2026-04-26T09:24:55.445Z</time></trkpt><trkpt lat="44.2321633" lon="10.5960917"><ele>1273.6</ele><time>2026-04-26T09:24:56.445Z</time></trkpt><trkpt lat="44.2320917" lon="10.5959967"><ele>1274.3999999999999</ele><time>2026-04-26T09:24:57.445Z</time></trkpt><trkpt lat="44.2320317" lon="10.5958833"><ele>1275.2</ele><time>2026-04-26T09:24:58.445Z</time></trkpt><trkpt lat="44.23198" lon="10.59577"><ele>1276.0</ele><time>2026-04-26T09:24:59.445Z</time></trkpt><trkpt lat="44.2319283" lon="10.5956767"><ele>1276.0</ele><time>2026-04-26T09:25:00.445Z</time></trkpt><trkpt lat="44.231875" lon="10.59561"><ele>1276.0</ele><time>2026-04-26T09:25:01.445Z</time></trkpt><trkpt lat="44.2318083" lon="10.59555"><ele>1276.0</ele><time>2026-04-26T09:25:02.445Z</time></trkpt><trkpt lat="44.2317333" lon="10.5954983"><ele>1276.0</ele><time>2026-04-26T09:25:03.445Z</time></trkpt><trkpt lat="44.2316267" lon="10.5954667"><ele>1276.0</ele><time>2026-04-26T09:25:04.445Z</time></trkpt><trkpt lat="44.2314867" lon="10.5954517"><ele>1275.25</ele><time>2026-04-26T09:25:05.445Z</time></trkpt><trkpt lat="44.2313667" lon="10.595445"><ele>1274.5</ele><time>2026-04-26T09:25:06.445Z</time></trkpt><trkpt lat="44.23126" lon="10.5954367"><ele>1273.75</ele><time>2026-04-26T09:25:07.445Z</time></trkpt><trkpt lat="44.2311417" lon="10.59543"><ele>1273.0</ele><time>2026-04-26T09:25:08.446Z</time></trkpt><trkpt lat="44.2310083" lon="10.5954167"><ele>1273.0</ele><time>2026-04-26T09:25:09.445Z</time></trkpt><trkpt lat="44.2308783" lon="10.5954033"><ele>1273.0</ele><time>2026-04-26T09:25:10.445Z</time></trkpt><trkpt lat="44.2307467" lon="10.5953883"><ele>1273.0</ele><time>2026-04-26T09:25:11.445Z</time></trkpt><trkpt lat="44.2306267" lon="10.5953817"><ele>1273.0</ele><time>2026-04-26T09:25:12.445Z</time></trkpt><trkpt lat="44.23052" lon="10.59537"><ele>1273.8</ele><time>2026-04-26T09:25:13.445Z</time></trkpt><trkpt lat="44.230435" lon="10.5953433"><ele>1274.6</ele><time>2026-04-26T09:25:14.445Z</time></trkpt><trkpt lat="44.230355" lon="10.5953067"><ele>1275.4</ele><time>2026-04-26T09:25:15.445Z</time></trkpt><trkpt lat="44.23026" lon="10.595265"><ele>1276.2</ele><time>2026-04-26T09:25:16.445Z</time></trkpt><trkpt lat="44.23016" lon="10.5952117"><ele>1277.0</ele><time>2026-04-26T09:25:17.445Z</time></trkpt><trkpt lat="44.23006" lon="10.59514"><ele>1277.0</ele><time>2026-04-26T09:25:18.445Z</time></trkpt><trkpt lat="44.22997" lon="10.5950533"><ele>1277.0</ele><time>2026-04-26T09:25:19.445Z</time></trkpt><trkpt lat="44.229885" lon="10.5949483"><ele>1277.0</ele><time>2026-04-26T09:25:20.445Z</time></trkpt><trkpt lat="44.2297983" lon="10.59484"><ele>1277.0</ele><time>2026-04-26T09:25:21.445Z</time></trkpt><trkpt lat="44.229715" lon="10.5947417"><ele>1277.0</ele><time>2026-04-26T09:25:22.445Z</time></trkpt><trkpt lat="44.22964" lon="10.5946517"><ele>1274.1666666666667</ele><time>2026-04-26T09:25:23.445Z</time></trkpt><trkpt lat="44.2295767" lon="10.5945517"><ele>1271.3333333333335</ele><time>2026-04-26T09:25:24.445Z</time></trkpt><trkpt lat="44.2295183" lon="10.594465"><ele>1268.5</ele><time>2026-04-26T09:25:25.446Z</time></trkpt><trkpt lat="44.22946" lon="10.5943833"><ele>1265.6666666666667</ele><time>2026-04-26T09:25:26.445Z</time></trkpt><trkpt lat="44.2293983" lon="10.5942933"><ele>1262.8333333333333</ele><time>2026-04-26T09:25:27.445Z</time></trkpt><trkpt lat="44.2293433" lon="10.5941933"><ele>1260.0</ele><time>2026-04-26T09:25:28.445Z</time></trkpt><trkpt lat="44.2292967" lon="10.5940833"><ele>1260.0</ele><time>2026-04-26T09:25:29.445Z</time></trkpt><trkpt lat="44.2292517" lon="10.59397"><ele>1260.0</ele><time>2026-04-26T09:25:30.445Z</time></trkpt><trkpt lat="44.2292017" lon="10.593845"><ele>1260.0</ele><time>2026-04-26T09:25:31.445Z</time></trkpt><trkpt lat="44.229135" lon="10.5937133"><ele>1260.0</ele><time>2026-04-26T09:25:32.445Z</time></trkpt><trkpt lat="44.22906" lon="10.5935667"><ele>1260.0</ele><time>2026-04-26T09:25:33.445Z</time></trkpt><trkpt lat="44.228985" lon="10.5934083"><ele>1259.0</ele><time>2026-04-26T09:25:34.445Z</time></trkpt><trkpt lat="44.2289233" lon="10.59325"><ele>1258.0</ele><time>2026-04-26T09:25:35.445Z</time></trkpt><trkpt lat="44.2288683" lon="10.5930917"><ele>1257.0</ele><time>2026-04-26T09:25:36.445Z</time></trkpt><trkpt lat="44.2288417" lon="10.5929417"><ele>1256.0</ele><time>2026-04-26T09:25:37.445Z</time></trkpt><trkpt lat="44.2288217" lon="10.5928033"><ele>1256.0</ele><time>2026-04-26T09:25:38.445Z</time></trkpt><trkpt lat="44.22881" lon="10.5926683"><ele>1256.0</ele><time>2026-04-26T09:25:39.445Z</time></trkpt><trkpt lat="44.2288" lon="10.59256"><ele>1256.0</ele><time>2026-04-26T09:25:40.445Z</time></trkpt><trkpt lat="44.2287883" lon="10.59239"><ele>1256.0</ele><time>2026-04-26T09:25:42.445Z</time></trkpt><trkpt lat="44.2287867" lon="10.5922517"><ele>1256.0</ele><time>2026-04-26T09:25:44.445Z</time></trkpt><trkpt lat="44.2287383" lon="10.59216"><ele>1256.0</ele><time>2026-04-26T09:25:47.445Z</time></trkpt><trkpt lat="44.2286683" lon="10.592225"><ele>1256.0</ele><time>2026-04-26T09:25:50.445Z</time></trkpt><trkpt lat="44.2285833" lon="10.5923117"><ele>1256.0</ele><time>2026-04-26T09:25:52.445Z</time></trkpt><trkpt lat="44.2285267" lon="10.59236"><ele>1256.0</ele><time>2026-04-26T09:25:53.445Z</time></trkpt><trkpt lat="44.2284533" lon="10.59244"><ele>1256.0</ele><time>2026-04-26T09:25:54.445Z</time></trkpt><trkpt lat="44.228345" lon="10.5925667"><ele>1256.0</ele><time>2026-04-26T09:25:55.446Z</time></trkpt><trkpt lat="44.22823" lon="10.5926967"><ele>1256.0</ele><time>2026-04-26T09:25:56.445Z</time></trkpt><trkpt lat="44.2281283" lon="10.5928183"><ele>1256.0</ele><time>2026-04-26T09:25:57.446Z</time></trkpt><trkpt lat="44.2280183" lon="10.5929183"><ele>1256.0</ele><time>2026-04-26T09:25:58.445Z</time></trkpt><trkpt lat="44.2279317" lon="10.5929867"><ele>1254.1666666666667</ele><time>2026-04-26T09:25:59.445Z</time></trkpt><trkpt lat="44.2278517" lon="10.5930383"><ele>1252.3333333333335</ele><time>2026-04-26T09:26:00.445Z</time></trkpt><trkpt lat="44.22777" lon="10.5930817"><ele>1250.5</ele><time>2026-04-26T09:26:01.445Z</time></trkpt><trkpt lat="44.227685" lon="10.59312"><ele>1248.6666666666667</ele><time>2026-04-26T09:26:02.445Z</time></trkpt><trkpt lat="44.227605" lon="10.5931533"><ele>1246.8333333333333</ele><time>2026-04-26T09:26:03.446Z</time></trkpt><trkpt lat="44.2275217" lon="10.593185"><ele>1245.0</ele><time>2026-04-26T09:26:04.446Z</time></trkpt><trkpt lat="44.2274383" lon="10.5932017"><ele>1245.0</ele><time>2026-04-26T09:26:05.445Z</time></trkpt><trkpt lat="44.2273633" lon="10.5931983"><ele>1245.0</ele><time>2026-04-26T09:26:06.445Z</time></trkpt><trkpt lat="44.227295" lon="10.59318"><ele>1245.0</ele><time>2026-04-26T09:26:07.445Z</time></trkpt><trkpt lat="44.2271817" lon="10.5931133"><ele>1245.0</ele><time>2026-04-26T09:26:09.445Z</time></trkpt><trkpt lat="44.2271233" lon="10.59306"><ele>1245.0</ele><time>2026-04-26T09:26:10.445Z</time></trkpt><trkpt lat="44.2270767" lon="10.5929917"><ele>1245.0</ele><time>2026-04-26T09:26:11.446Z</time></trkpt><trkpt lat="44.22704" lon="10.5929067"><ele>1245.8333333333333</ele><time>2026-04-26T09:26:12.445Z</time></trkpt><trkpt lat="44.2270283" lon="10.5927967"><ele>1246.6666666666667</ele><time>2026-04-26T09:26:13.445Z</time></trkpt><trkpt lat="44.2270083" lon="10.5926967"><ele>1247.5</ele><time>2026-04-26T09:26:14.445Z</time></trkpt><trkpt lat="44.2269833" lon="10.5926083"><ele>1248.3333333333335</ele><time>2026-04-26T09:26:15.445Z</time></trkpt><trkpt lat="44.2269017" lon="10.59248"><ele>1249.1666666666667</ele><time>2026-04-26T09:26:17.445Z</time></trkpt><trkpt lat="44.2268367" lon="10.5924433"><ele>1250.0</ele><time>2026-04-26T09:26:18.445Z</time></trkpt><trkpt lat="44.22677" lon="10.5924017"><ele>1250.0</ele><time>2026-04-26T09:26:19.445Z</time></trkpt><trkpt lat="44.2266983" lon="10.5923533"><ele>1250.0</ele><time>2026-04-26T09:26:20.445Z</time></trkpt><trkpt lat="44.2266283" lon="10.5922917"><ele>1250.0</ele><time>2026-04-26T09:26:21.446Z</time></trkpt><trkpt lat="44.2265617" lon="10.5922117"><ele>1250.0</ele><time>2026-04-26T09:26:22.445Z</time></trkpt><trkpt lat="44.2264817" lon="10.5921133"><ele>1250.0</ele><time>2026-04-26T09:26:23.445Z</time></trkpt><trkpt lat="44.22639" lon="10.59201"><ele>1251.0</ele><time>2026-04-26T09:26:24.445Z</time></trkpt><trkpt lat="44.2263" lon="10.591895"><ele>1252.0</ele><time>2026-04-26T09:26:25.445Z</time></trkpt><trkpt lat="44.2262217" lon="10.59179"><ele>1253.0</ele><time>2026-04-26T09:26:26.445Z</time></trkpt><trkpt lat="44.2261433" lon="10.5917017"><ele>1254.0</ele><time>2026-04-26T09:26:27.445Z</time></trkpt><trkpt lat="44.22607" lon="10.5916267"><ele>1255.0</ele><time>2026-04-26T09:26:28.445Z</time></trkpt><trkpt lat="44.225995" lon="10.5915517"><ele>1255.0</ele><time>2026-04-26T09:26:29.446Z</time></trkpt><trkpt lat="44.225915" lon="10.59146"><ele>1255.0</ele><time>2026-04-26T09:26:30.445Z</time></trkpt><trkpt lat="44.2258233" lon="10.5913483"><ele>1255.0</ele><time>2026-04-26T09:26:31.445Z</time></trkpt><trkpt lat="44.2257183" lon="10.59122"><ele>1255.0</ele><time>2026-04-26T09:26:32.445Z</time></trkpt><trkpt lat="44.2256017" lon="10.5910717"><ele>1253.75</ele><time>2026-04-26T09:26:33.445Z</time></trkpt><trkpt lat="44.2254917" lon="10.590935"><ele>1252.5</ele><time>2026-04-26T09:26:34.445Z</time></trkpt><trkpt lat="44.2253917" lon="10.5908067"><ele>1251.25</ele><time>2026-04-26T09:26:35.445Z</time></trkpt><trkpt lat="44.2252983" lon="10.5906817"><ele>1250.0</ele><time>2026-04-26T09:26:36.445Z</time></trkpt><trkpt lat="44.22519" lon="10.5905533"><ele>1250.0</ele><time>2026-04-26T09:26:37.445Z</time></trkpt><trkpt lat="44.2251017" lon="10.590425"><ele>1250.0</ele><time>2026-04-26T09:26:38.445Z</time></trkpt><trkpt lat="44.22502" lon="10.5902983"><ele>1250.0</ele><time>2026-04-26T09:26:39.445Z</time></trkpt><trkpt lat="44.2249517" lon="10.590175"><ele>1250.0</ele><time>2026-04-26T09:26:40.445Z</time></trkpt><trkpt lat="44.2248883" lon="10.5900467"><ele>1251.8</ele><time>2026-04-26T09:26:41.445Z</time></trkpt><trkpt lat="44.2248317" lon="10.5899183"><ele>1253.6</ele><time>2026-04-26T09:26:42.445Z</time></trkpt><trkpt lat="44.2247883" lon="10.589775"><ele>1255.4</ele><time>2026-04-26T09:26:43.445Z</time></trkpt><trkpt lat="44.2247517" lon="10.58964"><ele>1257.2</ele><time>2026-04-26T09:26:44.445Z</time></trkpt><trkpt lat="44.2247183" lon="10.5894917"><ele>1259.0</ele><time>2026-04-26T09:26:45.445Z</time></trkpt><trkpt lat="44.2246883" lon="10.5893417"><ele>1251.25</ele><time>2026-04-26T09:26:46.445Z</time></trkpt><trkpt lat="44.22466" lon="10.589195"><ele>1243.5</ele><time>2026-04-26T09:26:47.445Z</time></trkpt><trkpt lat="44.2246367" lon="10.58905"><ele>1235.75</ele><time>2026-04-26T09:26:48.445Z</time></trkpt><trkpt lat="44.2246217" lon="10.588875"><ele>1228.0</ele><time>2026-04-26T09:26:49.445Z</time></trkpt><trkpt lat="44.2246217" lon="10.588685"><ele>1227.6666666666665</ele><time>2026-04-26T09:26:50.445Z</time></trkpt><trkpt lat="44.2246183" lon="10.588475"><ele>1227.3333333333333</ele><time>2026-04-26T09:26:51.445Z</time></trkpt><trkpt lat="44.22463" lon="10.588255"><ele>1227.0</ele><time>2026-04-26T09:26:52.445Z</time></trkpt><trkpt lat="44.2246383" lon="10.58805"><ele>1227.0</ele><time>2026-04-26T09:26:53.446Z</time></trkpt><trkpt lat="44.2246483" lon="10.5878733"><ele>1227.0</ele><time>2026-04-26T09:26:54.445Z</time></trkpt><trkpt lat="44.2246617" lon="10.5877233"><ele>1227.0</ele><time>2026-04-26T09:26:55.445Z</time></trkpt><trkpt lat="44.22469" lon="10.5875967"><ele>1227.0</ele><time>2026-04-26T09:26:56.445Z</time></trkpt><trkpt lat="44.22477" lon="10.5874117"><ele>1236.0</ele><time>2026-04-26T09:26:57.445Z</time></trkpt><trkpt lat="44.2248167" lon="10.5872817"><ele>1245.0</ele><time>2026-04-26T09:26:58.445Z</time></trkpt><trkpt lat="44.2248833" lon="10.5871417"><ele>1254.0</ele><time>2026-04-26T09:26:59.445Z</time></trkpt><trkpt lat="44.2249583" lon="10.5869917"><ele>1263.0</ele><time>2026-04-26T09:27:00.444Z</time></trkpt><trkpt lat="44.225025" lon="10.5868683"><ele>1263.0</ele><time>2026-04-26T09:27:01.444Z</time></trkpt><trkpt lat="44.225075" lon="10.5867633"><ele>1263.0</ele><time>2026-04-26T09:27:02.444Z</time></trkpt><trkpt lat="44.2251067" lon="10.58667"><ele>1263.0</ele><time>2026-04-26T09:27:03.444Z</time></trkpt><trkpt lat="44.22514" lon="10.5865667"><ele>1263.0</ele><time>2026-04-26T09:27:04.444Z</time></trkpt><trkpt lat="44.2251633" lon="10.5864583"><ele>1263.0</ele><time>2026-04-26T09:27:05.444Z</time></trkpt><trkpt lat="44.22518" lon="10.5863383"><ele>1263.0</ele><time>2026-04-26T09:27:06.444Z</time></trkpt><trkpt lat="44.2251583" lon="10.58624"><ele>1263.6666666666667</ele><time>2026-04-26T09:27:07.444Z</time></trkpt><trkpt lat="44.2251033" lon="10.58614"><ele>1264.3333333333333</ele><time>2026-04-26T09:27:08.444Z</time></trkpt><trkpt lat="44.22503" lon="10.5860717"><ele>1265.0</ele><time>2026-04-26T09:27:09.444Z</time></trkpt><trkpt lat="44.2250033" lon="10.5859833"><ele>1265.6666666666665</ele><time>2026-04-26T09:27:10.444Z</time></trkpt><trkpt lat="44.2249617" lon="10.5859167"><ele>1266.3333333333333</ele><time>2026-04-26T09:27:11.444Z</time></trkpt><trkpt lat="44.22491" lon="10.5857783"><ele>1267.0</ele><time>2026-04-26T09:27:13.444Z</time></trkpt><trkpt lat="44.224915" lon="10.5856017"><ele>1267.0</ele><time>2026-04-26T09:27:15.444Z</time></trkpt><trkpt lat="44.22494" lon="10.5855067"><ele>1267.0</ele><time>2026-04-26T09:27:16.444Z</time></trkpt><trkpt lat="44.22498" lon="10.585395"><ele>1267.0</ele><time>2026-04-26T09:27:17.444Z</time></trkpt><trkpt lat="44.2250283" lon="10.5852967"><ele>1267.0</ele><time>2026-04-26T09:27:18.444Z</time></trkpt><trkpt lat="44.2250783" lon="10.5851983"><ele>1267.0</ele><time>2026-04-26T09:27:19.444Z</time></trkpt><trkpt lat="44.22511" lon="10.5851017"><ele>1267.0</ele><time>2026-04-26T09:27:20.444Z</time></trkpt><trkpt lat="44.2251133" lon="10.5850117"><ele>1267.6</ele><time>2026-04-26T09:27:21.444Z</time></trkpt><trkpt lat="44.2250483" lon="10.5848917"><ele>1268.2</ele><time>2026-04-26T09:27:23.444Z</time></trkpt><trkpt lat="44.2249267" lon="10.584825"><ele>1268.8</ele><time>2026-04-26T09:27:25.444Z</time></trkpt><trkpt lat="44.2248567" lon="10.5847667"><ele>1269.4</ele><time>2026-04-26T09:27:26.444Z</time></trkpt><trkpt lat="44.2247817" lon="10.5846783"><ele>1270.0</ele><time>2026-04-26T09:27:27.444Z</time></trkpt><trkpt lat="44.224705" lon="10.5845583"><ele>1268.0</ele><time>2026-04-26T09:27:28.444Z</time></trkpt><trkpt lat="44.2246167" lon="10.58441"><ele>1266.0</ele><time>2026-04-26T09:27:29.444Z</time></trkpt><trkpt lat="44.2245433" lon="10.5842833"><ele>1264.0</ele><time>2026-04-26T09:27:30.444Z</time></trkpt><trkpt lat="44.2244917" lon="10.5841783"><ele>1262.0</ele><time>2026-04-26T09:27:31.444Z</time></trkpt><trkpt lat="44.2244567" lon="10.5840683"><ele>1260.0</ele><time>2026-04-26T09:27:32.444Z</time></trkpt><trkpt lat="44.2244317" lon="10.5839583"><ele>1260.0</ele><time>2026-04-26T09:27:33.444Z</time></trkpt><trkpt lat="44.2244217" lon="10.58384"><ele>1260.0</ele><time>2026-04-26T09:27:34.444Z</time></trkpt><trkpt lat="44.224415" lon="10.5837183"><ele>1260.0</ele><time>2026-04-26T09:27:35.444Z</time></trkpt><trkpt lat="44.224405" lon="10.5836033"><ele>1260.0</ele><time>2026-04-26T09:27:36.444Z</time></trkpt><trkpt lat="44.2244033" lon="10.583485"><ele>1260.0</ele><time>2026-04-26T09:27:37.444Z</time></trkpt><trkpt lat="44.2244017" lon="10.583365"><ele>1260.0</ele><time>2026-04-26T09:27:38.444Z</time></trkpt><trkpt lat="44.224395" lon="10.583245"><ele>1261.6666666666667</ele><time>2026-04-26T09:27:39.444Z</time></trkpt><trkpt lat="44.22438" lon="10.5831417"><ele>1263.3333333333333</ele><time>2026-04-26T09:27:40.444Z</time></trkpt><trkpt lat="44.2243583" lon="10.5830317"><ele>1265.0</ele><time>2026-04-26T09:27:41.444Z</time></trkpt><trkpt lat="44.2243283" lon="10.5829217"><ele>1266.6666666666665</ele><time>2026-04-26T09:27:42.444Z</time></trkpt><trkpt lat="44.224295" lon="10.582815"><ele>1268.3333333333333</ele><time>2026-04-26T09:27:43.444Z</time></trkpt><trkpt lat="44.224255" lon="10.5827183"><ele>1270.0</ele><time>2026-04-26T09:27:44.444Z</time></trkpt><trkpt lat="44.224215" lon="10.5826217"><ele>1271.8333333333333</ele><time>2026-04-26T09:27:45.444Z</time></trkpt><trkpt lat="44.2241667" lon="10.58254"><ele>1273.6666666666665</ele><time>2026-04-26T09:27:46.444Z</time></trkpt><trkpt lat="44.2241167" lon="10.582465"><ele>1275.5</ele><time>2026-04-26T09:27:47.444Z</time></trkpt><trkpt lat="44.2240667" lon="10.5823933"><ele>1277.3333333333333</ele><time>2026-04-26T09:27:48.444Z</time></trkpt><trkpt lat="44.22402" lon="10.58232"><ele>1279.1666666666667</ele><time>2026-04-26T09:27:49.444Z</time></trkpt><trkpt lat="44.2239783" lon="10.5822333"><ele>1281.0</ele><time>2026-04-26T09:27:50.444Z</time></trkpt><trkpt lat="44.2239267" lon="10.5821367"><ele>1277.2857142857142</ele><time>2026-04-26T09:27:51.444Z</time></trkpt><trkpt lat="44.2238933" lon="10.5820383"><ele>1273.5714285714284</ele><time>2026-04-26T09:27:52.444Z</time></trkpt><trkpt lat="44.2238683" lon="10.581945"><ele>1269.857142857143</ele><time>2026-04-26T09:27:53.444Z</time></trkpt><trkpt lat="44.2238617" lon="10.581855"><ele>1266.142857142857</ele><time>2026-04-26T09:27:54.444Z</time></trkpt><trkpt lat="44.2238783" lon="10.5817567"><ele>1262.4285714285713</ele><time>2026-04-26T09:27:55.444Z</time></trkpt><trkpt lat="44.2239" lon="10.58165"><ele>1258.7142857142858</ele><time>2026-04-26T09:27:56.444Z</time></trkpt><trkpt lat="44.2239317" lon="10.581555"><ele>1255.0</ele><time>2026-04-26T09:27:57.444Z</time></trkpt><trkpt lat="44.2239667" lon="10.58146"><ele>1254.6</ele><time>2026-04-26T09:27:58.444Z</time></trkpt><trkpt lat="44.2239967" lon="10.581365"><ele>1254.2</ele><time>2026-04-26T09:27:59.444Z</time></trkpt><trkpt lat="44.224005" lon="10.5812583"><ele>1253.8</ele><time>2026-04-26T09:28:00.445Z</time></trkpt><trkpt lat="44.2239983" lon="10.5811283"><ele>1253.4</ele><time>2026-04-26T09:28:01.444Z</time></trkpt><trkpt lat="44.223985" lon="10.5809717"><ele>1253.0</ele><time>2026-04-26T09:28:02.445Z</time></trkpt><trkpt lat="44.2239683" lon="10.5808067"><ele>1253.0</ele><time>2026-04-26T09:28:03.444Z</time></trkpt><trkpt lat="44.2239583" lon="10.58065"><ele>1253.0</ele><time>2026-04-26T09:28:04.444Z</time></trkpt><trkpt lat="44.2239467" lon="10.5805267"><ele>1253.0</ele><time>2026-04-26T09:28:05.444Z</time></trkpt><trkpt lat="44.2239283" lon="10.5804"><ele>1253.0</ele><time>2026-04-26T09:28:06.444Z</time></trkpt><trkpt lat="44.2239033" lon="10.58028"><ele>1253.0</ele><time>2026-04-26T09:28:07.444Z</time></trkpt><trkpt lat="44.2238917" lon="10.5801517"><ele>1255.5</ele><time>2026-04-26T09:28:08.444Z</time></trkpt><trkpt lat="44.2238867" lon="10.58003"><ele>1258.0</ele><time>2026-04-26T09:28:09.444Z</time></trkpt><trkpt lat="44.22389" lon="10.5799"><ele>1260.5</ele><time>2026-04-26T09:28:10.444Z</time></trkpt><trkpt lat="44.2238967" lon="10.579785"><ele>1263.0</ele><time>2026-04-26T09:28:11.444Z</time></trkpt><trkpt lat="44.223895" lon="10.57968"><ele>1265.5</ele><time>2026-04-26T09:28:12.444Z</time></trkpt><trkpt lat="44.22388" lon="10.5795883"><ele>1268.0</ele><time>2026-04-26T09:28:13.444Z</time></trkpt><trkpt lat="44.2238533" lon="10.5795033"><ele>1270.6666666666667</ele><time>2026-04-26T09:28:14.444Z</time></trkpt><trkpt lat="44.22378" lon="10.5793833"><ele>1273.3333333333335</ele><time>2026-04-26T09:28:16.444Z</time></trkpt><trkpt lat="44.2237017" lon="10.5793733"><ele>1276.0</ele><time>2026-04-26T09:28:17.444Z</time></trkpt><trkpt lat="44.2236283" lon="10.579345"><ele>1278.6666666666667</ele><time>2026-04-26T09:28:18.444Z</time></trkpt><trkpt lat="44.2235533" lon="10.5793"><ele>1281.3333333333333</ele><time>2026-04-26T09:28:19.444Z</time></trkpt><trkpt lat="44.2234667" lon="10.5792517"><ele>1284.0</ele><time>2026-04-26T09:28:20.444Z</time></trkpt><trkpt lat="44.2233817" lon="10.57918"><ele>1284.0</ele><time>2026-04-26T09:28:21.444Z</time></trkpt><trkpt lat="44.2232983" lon="10.5791133"><ele>1284.0</ele><time>2026-04-26T09:28:22.444Z</time></trkpt><trkpt lat="44.223215" lon="10.579045"><ele>1284.0</ele><time>2026-04-26T09:28:23.444Z</time></trkpt><trkpt lat="44.223125" lon="10.57897"><ele>1284.0</ele><time>2026-04-26T09:28:24.445Z</time></trkpt><trkpt lat="44.22301" lon="10.5789083"><ele>1284.0</ele><time>2026-04-26T09:28:25.444Z</time></trkpt><trkpt lat="44.2228983" lon="10.5788333"><ele>1283.5</ele><time>2026-04-26T09:28:26.444Z</time></trkpt><trkpt lat="44.2227817" lon="10.5787733"><ele>1283.0</ele><time>2026-04-26T09:28:27.444Z</time></trkpt><trkpt lat="44.222675" lon="10.578715"><ele>1282.5</ele><time>2026-04-26T09:28:28.444Z</time></trkpt><trkpt lat="44.2225783" lon="10.5786433"><ele>1282.0</ele><time>2026-04-26T09:28:29.444Z</time></trkpt><trkpt lat="44.2224933" lon="10.5785633"><ele>1282.0</ele><time>2026-04-26T09:28:30.445Z</time></trkpt><trkpt lat="44.222425" lon="10.5784683"><ele>1282.0</ele><time>2026-04-26T09:28:31.444Z</time></trkpt><trkpt lat="44.2223633" lon="10.57836"><ele>1282.0</ele><time>2026-04-26T09:28:32.445Z</time></trkpt><trkpt lat="44.2223167" lon="10.5782317"><ele>1282.0</ele><time>2026-04-26T09:28:33.444Z</time></trkpt><trkpt lat="44.22228" lon="10.5780983"><ele>1282.0</ele><time>2026-04-26T09:28:34.444Z</time></trkpt><trkpt lat="44.2222633" lon="10.5779683"><ele>1277.3999999999999</ele><time>2026-04-26T09:28:35.444Z</time></trkpt><trkpt lat="44.222255" lon="10.5778483"><ele>1272.8</ele><time>2026-04-26T09:28:36.444Z</time></trkpt><trkpt lat="44.2222567" lon="10.5777333"><ele>1268.2</ele><time>2026-04-26T09:28:37.444Z</time></trkpt><trkpt lat="44.2222667" lon="10.5776083"><ele>1263.6</ele><time>2026-04-26T09:28:38.444Z</time></trkpt><trkpt lat="44.2222833" lon="10.57746"><ele>1259.0</ele><time>2026-04-26T09:28:39.444Z</time></trkpt><trkpt lat="44.2223033" lon="10.5773067"><ele>1262.8</ele><time>2026-04-26T09:28:40.444Z</time></trkpt><trkpt lat="44.2223217" lon="10.5771617"><ele>1266.6000000000001</ele><time>2026-04-26T09:28:41.444Z</time></trkpt><trkpt lat="44.222345" lon="10.57702"><ele>1270.4</ele><time>2026-04-26T09:28:42.444Z</time></trkpt><trkpt lat="44.2223783" lon="10.5768933"><ele>1274.2</ele><time>2026-04-26T09:28:43.445Z</time></trkpt><trkpt lat="44.222425" lon="10.5767633"><ele>1278.0</ele><time>2026-04-26T09:28:44.444Z</time></trkpt><trkpt lat="44.2224767" lon="10.5766383"><ele>1278.0</ele><time>2026-04-26T09:28:45.444Z</time></trkpt><trkpt lat="44.22254" lon="10.5765183"><ele>1278.0</ele><time>2026-04-26T09:28:46.444Z</time></trkpt><trkpt lat="44.222625" lon="10.5763817"><ele>1278.0</ele><time>2026-04-26T09:28:47.444Z</time></trkpt><trkpt lat="44.2227117" lon="10.576255"><ele>1278.0</ele><time>2026-04-26T09:28:48.444Z</time></trkpt><trkpt lat="44.2227817" lon="10.5761583"><ele>1277.6666666666667</ele><time>2026-04-26T09:28:49.444Z</time></trkpt><trkpt lat="44.2228367" lon="10.576075"><ele>1277.3333333333333</ele><time>2026-04-26T09:28:50.444Z</time></trkpt><trkpt lat="44.2228817" lon="10.576005"><ele>1277.0</ele><time>2026-04-26T09:28:51.444Z</time></trkpt><trkpt lat="44.2229067" lon="10.57586"><ele>1276.6666666666665</ele><time>2026-04-26T09:28:53.444Z</time></trkpt><trkpt lat="44.2228733" lon="10.5757617"><ele>1276.3333333333333</ele><time>2026-04-26T09:28:54.445Z</time></trkpt><trkpt lat="44.2228433" lon="10.5756433"><ele>1276.0</ele><time>2026-04-26T09:28:55.444Z</time></trkpt><trkpt lat="44.22277" lon="10.5754983"><ele>1276.0</ele><time>2026-04-26T09:28:56.444Z</time></trkpt><trkpt lat="44.2227017" lon="10.575375"><ele>1276.0</ele><time>2026-04-26T09:28:57.444Z</time></trkpt><trkpt lat="44.22266" lon="10.57524"><ele>1276.0</ele><time>2026-04-26T09:28:58.445Z</time></trkpt><trkpt lat="44.2226267" lon="10.575115"><ele>1276.0</ele><time>2026-04-26T09:28:59.444Z</time></trkpt><trkpt lat="44.222605" lon="10.5749933"><ele>1276.0</ele><time>2026-04-26T09:29:00.444Z</time></trkpt><trkpt lat="44.222585" lon="10.5748683"><ele>1277.8</ele><time>2026-04-26T09:29:01.444Z</time></trkpt><trkpt lat="44.2225733" lon="10.5747317"><ele>1279.6</ele><time>2026-04-26T09:29:02.444Z</time></trkpt><trkpt lat="44.2225533" lon="10.5745983"><ele>1281.4</ele><time>2026-04-26T09:29:03.444Z</time></trkpt><trkpt lat="44.2225333" lon="10.5744467"><ele>1283.2</ele><time>2026-04-26T09:29:04.444Z</time></trkpt><trkpt lat="44.2225083" lon="10.5743067"><ele>1285.0</ele><time>2026-04-26T09:29:05.444Z</time></trkpt><trkpt lat="44.2224733" lon="10.5741933"><ele>1285.6</ele><time>2026-04-26T09:29:06.445Z</time></trkpt><trkpt lat="44.222435" lon="10.5740733"><ele>1286.2</ele><time>2026-04-26T09:29:07.444Z</time></trkpt><trkpt lat="44.222405" lon="10.57396"><ele>1286.8000000000002</ele><time>2026-04-26T09:29:08.444Z</time></trkpt><trkpt lat="44.22238" lon="10.57384"><ele>1287.4</ele><time>2026-04-26T09:29:09.444Z</time></trkpt><trkpt lat="44.222365" lon="10.573705"><ele>1288.0</ele><time>2026-04-26T09:29:10.444Z</time></trkpt><trkpt lat="44.22236" lon="10.5735617"><ele>1288.6000000000001</ele><time>2026-04-26T09:29:11.444Z</time></trkpt><trkpt lat="44.2223617" lon="10.573415"><ele>1289.2</ele><time>2026-04-26T09:29:12.444Z</time></trkpt><trkpt lat="44.2223717" lon="10.573285"><ele>1289.8</ele><time>2026-04-26T09:29:13.444Z</time></trkpt><trkpt lat="44.2223817" lon="10.5731767"><ele>1290.4</ele><time>2026-04-26T09:29:14.444Z</time></trkpt><trkpt lat="44.2223867" lon="10.5730833"><ele>1291.0</ele><time>2026-04-26T09:29:15.444Z</time></trkpt><trkpt lat="44.2223417" lon="10.5729267"><ele>1288.5</ele><time>2026-04-26T09:29:17.444Z</time></trkpt><trkpt lat="44.22228" lon="10.5728267"><ele>1286.0</ele><time>2026-04-26T09:29:18.444Z</time></trkpt><trkpt lat="44.2221933" lon="10.572695"><ele>1283.5</ele><time>2026-04-26T09:29:19.444Z</time></trkpt><trkpt lat="44.2221217" lon="10.5725517"><ele>1281.0</ele><time>2026-04-26T09:29:20.444Z</time></trkpt><trkpt lat="44.2220583" lon="10.5723967"><ele>1281.0</ele><time>2026-04-26T09:29:21.444Z</time></trkpt><trkpt lat="44.2220217" lon="10.5722567"><ele>1281.0</ele><time>2026-04-26T09:29:22.444Z</time></trkpt><trkpt lat="44.2219917" lon="10.5721583"><ele>1281.0</ele><time>2026-04-26T09:29:23.444Z</time></trkpt><trkpt lat="44.2219633" lon="10.5720783"><ele>1281.0</ele><time>2026-04-26T09:29:24.444Z</time></trkpt><trkpt lat="44.2219583" lon="10.5719833"><ele>1281.0</ele><time>2026-04-26T09:29:25.444Z</time></trkpt><trkpt lat="44.221975" lon="10.5718633"><ele>1281.0</ele><time>2026-04-26T09:29:26.444Z</time></trkpt><trkpt lat="44.2220283" lon="10.571745"><ele>1281.8</ele><time>2026-04-26T09:29:27.444Z</time></trkpt><trkpt lat="44.22209" lon="10.57163"><ele>1282.6</ele><time>2026-04-26T09:29:28.444Z</time></trkpt><trkpt lat="44.222135" lon="10.5715367"><ele>1283.4</ele><time>2026-04-26T09:29:29.444Z</time></trkpt><trkpt lat="44.2221633" lon="10.5714033"><ele>1284.2</ele><time>2026-04-26T09:29:31.444Z</time></trkpt><trkpt lat="44.22207" lon="10.571375"><ele>1285.0</ele><time>2026-04-26T09:29:34.444Z</time></trkpt><trkpt lat="44.22199" lon="10.5714167"><ele>1285.0</ele><time>2026-04-26T09:29:37.444Z</time></trkpt><trkpt lat="44.221895" lon="10.5714733"><ele>1285.0</ele><time>2026-04-26T09:31:36.443Z</time></trkpt><trkpt lat="44.2217317" lon="10.5714983"><ele>1285.0</ele><time>2026-04-26T09:31:38.443Z</time></trkpt><trkpt lat="44.2216417" lon="10.5714983"><ele>1285.0</ele><time>2026-04-26T09:31:39.443Z</time></trkpt><trkpt lat="44.2215483" lon="10.571475"><ele>1285.0</ele><time>2026-04-26T09:31:40.444Z</time></trkpt><trkpt lat="44.2214833" lon="10.5714517"><ele>1285.0</ele><time>2026-04-26T09:31:41.443Z</time></trkpt><trkpt lat="44.2214183" lon="10.5713383"><ele>1285.0</ele><time>2026-04-26T09:31:43.443Z</time></trkpt><trkpt lat="44.2214067" lon="10.5711533"><ele>1285.0</ele><time>2026-04-26T09:31:45.443Z</time></trkpt><trkpt lat="44.2214117" lon="10.57105"><ele>1285.0</ele><time>2026-04-26T09:31:46.443Z</time></trkpt><trkpt lat="44.2214167" lon="10.570935"><ele>1285.3333333333333</ele><time>2026-04-26T09:31:47.443Z</time></trkpt><trkpt lat="44.2214217" lon="10.5708067"><ele>1285.6666666666665</ele><time>2026-04-26T09:31:48.443Z</time></trkpt><trkpt lat="44.2214183" lon="10.5706867"><ele>1286.0</ele><time>2026-04-26T09:31:49.443Z</time></trkpt><trkpt lat="44.2214117" lon="10.5705733"><ele>1286.3333333333333</ele><time>2026-04-26T09:31:50.443Z</time></trkpt><trkpt lat="44.221405" lon="10.5704783"><ele>1286.6666666666667</ele><time>2026-04-26T09:31:51.443Z</time></trkpt><trkpt lat="44.2213767" lon="10.5703167"><ele>1287.0</ele><time>2026-04-26T09:31:53.444Z</time></trkpt><trkpt lat="44.2212933" lon="10.570205"><ele>1287.6666666666667</ele><time>2026-04-26T09:31:55.443Z</time></trkpt><trkpt lat="44.22125" lon="10.5701383"><ele>1288.3333333333333</ele><time>2026-04-26T09:31:56.443Z</time></trkpt><trkpt lat="44.22121" lon="10.57004"><ele>1289.0</ele><time>2026-04-26T09:31:57.443Z</time></trkpt><trkpt lat="44.22117" lon="10.5699217"><ele>1289.6666666666665</ele><time>2026-04-26T09:31:58.443Z</time></trkpt><trkpt lat="44.221125" lon="10.5698033"><ele>1290.3333333333333</ele><time>2026-04-26T09:31:59.443Z</time></trkpt><trkpt lat="44.2210883" lon="10.5696883"><ele>1291.0</ele><time>2026-04-26T09:32:00.444Z</time></trkpt><trkpt lat="44.2210633" lon="10.5695933"><ele>1292.3333333333333</ele><time>2026-04-26T09:32:01.443Z</time></trkpt><trkpt lat="44.221055" lon="10.5695"><ele>1293.6666666666665</ele><time>2026-04-26T09:32:02.443Z</time></trkpt><trkpt lat="44.2210667" lon="10.5694133"><ele>1295.0</ele><time>2026-04-26T09:32:03.443Z</time></trkpt><trkpt lat="44.2211217" lon="10.5692633"><ele>1296.3333333333333</ele><time>2026-04-26T09:32:05.444Z</time></trkpt><trkpt lat="44.221165" lon="10.56919"><ele>1297.6666666666667</ele><time>2026-04-26T09:32:06.443Z</time></trkpt><trkpt lat="44.2212183" lon="10.5691133"><ele>1299.0</ele><time>2026-04-26T09:32:07.443Z</time></trkpt><trkpt lat="44.2212733" lon="10.56905"><ele>1299.0</ele><time>2026-04-26T09:32:08.443Z</time></trkpt><trkpt lat="44.22133" lon="10.56898"><ele>1299.0</ele><time>2026-04-26T09:32:09.443Z</time></trkpt><trkpt lat="44.2213867" lon="10.5688883"><ele>1299.0</ele><time>2026-04-26T09:32:10.443Z</time></trkpt><trkpt lat="44.22145" lon="10.568795"><ele>1299.0</ele><time>2026-04-26T09:32:11.443Z</time></trkpt><trkpt lat="44.221515" lon="10.5686933"><ele>1299.0</ele><time>2026-04-26T09:32:12.443Z</time></trkpt><trkpt lat="44.221575" lon="10.568595"><ele>1299.0</ele><time>2026-04-26T09:32:13.443Z</time></trkpt><trkpt lat="44.221625" lon="10.5685067"><ele>1300.8000000000002</ele><time>2026-04-26T09:32:14.443Z</time></trkpt><trkpt lat="44.2216617" lon="10.56842"><ele>1302.6000000000001</ele><time>2026-04-26T09:32:15.443Z</time></trkpt><trkpt lat="44.2216717" lon="10.5682667"><ele>1304.4</ele><time>2026-04-26T09:32:17.444Z</time></trkpt><trkpt lat="44.2216167" lon="10.56812"><ele>1306.2</ele><time>2026-04-26T09:32:19.443Z</time></trkpt><trkpt lat="44.221555" lon="10.5680583"><ele>1308.0</ele><time>2026-04-26T09:32:20.444Z</time></trkpt><trkpt lat="44.22148" lon="10.567985"><ele>1308.0</ele><time>2026-04-26T09:32:21.443Z</time></trkpt><trkpt lat="44.221405" lon="10.5679083"><ele>1308.0</ele><time>2026-04-26T09:32:22.443Z</time></trkpt><trkpt lat="44.2213233" lon="10.567825"><ele>1308.0</ele><time>2026-04-26T09:32:23.443Z</time></trkpt><trkpt lat="44.22125" lon="10.56774"><ele>1308.0</ele><time>2026-04-26T09:32:24.443Z</time></trkpt><trkpt lat="44.221175" lon="10.5676617"><ele>1308.0</ele><time>2026-04-26T09:32:25.443Z</time></trkpt><trkpt lat="44.2210833" lon="10.56756"><ele>1310.0</ele><time>2026-04-26T09:32:26.443Z</time></trkpt><trkpt lat="44.220975" lon="10.5674533"><ele>1312.0</ele><time>2026-04-26T09:32:27.443Z</time></trkpt><trkpt lat="44.2208717" lon="10.5673633"><ele>1314.0</ele><time>2026-04-26T09:32:28.443Z</time></trkpt><trkpt lat="44.220775" lon="10.5672617"><ele>1316.0</ele><time>2026-04-26T09:32:29.443Z</time></trkpt><trkpt lat="44.220685" lon="10.56717"><ele>1316.5</ele><time>2026-04-26T09:32:30.443Z</time></trkpt><trkpt lat="44.2205967" lon="10.56706"><ele>1317.0</ele><time>2026-04-26T09:32:31.443Z</time></trkpt><trkpt lat="44.220515" lon="10.566945"><ele>1317.5</ele><time>2026-04-26T09:32:32.443Z</time></trkpt><trkpt lat="44.2204333" lon="10.566815"><ele>1318.0</ele><time>2026-04-26T09:32:33.443Z</time></trkpt><trkpt lat="44.2203483" lon="10.5666767"><ele>1318.0</ele><time>2026-04-26T09:32:34.443Z</time></trkpt><trkpt lat="44.2202633" lon="10.5665333"><ele>1318.0</ele><time>2026-04-26T09:32:35.443Z</time></trkpt><trkpt lat="44.2201733" lon="10.56641"><ele>1318.0</ele><time>2026-04-26T09:32:36.443Z</time></trkpt><trkpt lat="44.2200917" lon="10.5662983"><ele>1318.0</ele><time>2026-04-26T09:32:37.443Z</time></trkpt><trkpt lat="44.2200083" lon="10.5661917"><ele>1319.4</ele><time>2026-04-26T09:32:38.443Z</time></trkpt><trkpt lat="44.21992" lon="10.566085"><ele>1320.8000000000002</ele><time>2026-04-26T09:32:39.443Z</time></trkpt><trkpt lat="44.2198167" lon="10.5659883"><ele>1322.2</ele><time>2026-04-26T09:32:40.443Z</time></trkpt><trkpt lat="44.219735" lon="10.56591"><ele>1323.6</ele><time>2026-04-26T09:32:41.443Z</time></trkpt><trkpt lat="44.2196467" lon="10.5658333"><ele>1325.0</ele><time>2026-04-26T09:32:42.443Z</time></trkpt><trkpt lat="44.21956" lon="10.565755"><ele>1325.0</ele><time>2026-04-26T09:32:43.443Z</time></trkpt><trkpt lat="44.21948" lon="10.5656717"><ele>1325.0</ele><time>2026-04-26T09:32:44.443Z</time></trkpt><trkpt lat="44.219405" lon="10.5655767"><ele>1325.0</ele><time>2026-04-26T09:32:45.443Z</time></trkpt><trkpt lat="44.2193367" lon="10.5654967"><ele>1325.0</ele><time>2026-04-26T09:32:46.443Z</time></trkpt><trkpt lat="44.2192667" lon="10.5654467"><ele>1325.0</ele><time>2026-04-26T09:32:47.443Z</time></trkpt><trkpt lat="44.2192033" lon="10.5654217"><ele>1325.0</ele><time>2026-04-26T09:32:48.443Z</time></trkpt><trkpt lat="44.21913" lon="10.5654017"><ele>1325.0</ele><time>2026-04-26T09:32:49.443Z</time></trkpt><trkpt lat="44.2190467" lon="10.5654"><ele>1325.0</ele><time>2026-04-26T09:32:50.443Z</time></trkpt><trkpt lat="44.218945" lon="10.5654217"><ele>1325.0</ele><time>2026-04-26T09:32:51.443Z</time></trkpt><trkpt lat="44.2188383" lon="10.5654667"><ele>1325.0</ele><time>2026-04-26T09:32:52.443Z</time></trkpt><trkpt lat="44.218735" lon="10.5655167"><ele>1325.0</ele><time>2026-04-26T09:32:53.443Z</time></trkpt><trkpt lat="44.21864" lon="10.56556"><ele>1326.0</ele><time>2026-04-26T09:32:54.443Z</time></trkpt><trkpt lat="44.218545" lon="10.5655867"><ele>1327.0</ele><time>2026-04-26T09:32:55.443Z</time></trkpt><trkpt lat="44.2184567" lon="10.5655867"><ele>1328.0</ele><time>2026-04-26T09:32:56.443Z</time></trkpt><trkpt lat="44.21837" lon="10.5655733"><ele>1329.0</ele><time>2026-04-26T09:32:57.443Z</time></trkpt><trkpt lat="44.2182767" lon="10.56555"><ele>1330.0</ele><time>2026-04-26T09:32:58.443Z</time></trkpt><trkpt lat="44.2181733" lon="10.5655067"><ele>1330.25</ele><time>2026-04-26T09:32:59.443Z</time></trkpt><trkpt lat="44.2180667" lon="10.5654383"><ele>1330.5</ele><time>2026-04-26T09:33:00.443Z</time></trkpt><trkpt lat="44.2179417" lon="10.5653567"><ele>1330.75</ele><time>2026-04-26T09:33:01.443Z</time></trkpt><trkpt lat="44.2178333" lon="10.56529"><ele>1331.0</ele><time>2026-04-26T09:33:02.443Z</time></trkpt><trkpt lat="44.2177467" lon="10.5652317"><ele>1332.8</ele><time>2026-04-26T09:33:03.443Z</time></trkpt><trkpt lat="44.217665" lon="10.5652"><ele>1334.6</ele><time>2026-04-26T09:33:04.443Z</time></trkpt><trkpt lat="44.2175767" lon="10.565165"><ele>1336.4</ele><time>2026-04-26T09:33:05.443Z</time></trkpt><trkpt lat="44.2174717" lon="10.565135"><ele>1338.2</ele><time>2026-04-26T09:33:06.443Z</time></trkpt><trkpt lat="44.2173633" lon="10.565105"><ele>1340.0</ele><time>2026-04-26T09:33:07.443Z</time></trkpt><trkpt lat="44.21725" lon="10.565075"><ele>1340.5</ele><time>2026-04-26T09:33:08.444Z</time></trkpt><trkpt lat="44.2171367" lon="10.5650467"><ele>1341.0</ele><time>2026-04-26T09:33:09.443Z</time></trkpt><trkpt lat="44.2170117" lon="10.56502"><ele>1341.5</ele><time>2026-04-26T09:33:10.443Z</time></trkpt><trkpt lat="44.21689" lon="10.5649917"><ele>1342.0</ele><time>2026-04-26T09:33:11.443Z</time></trkpt><trkpt lat="44.216795" lon="10.5649617"><ele>1342.0</ele><time>2026-04-26T09:33:12.443Z</time></trkpt><trkpt lat="44.2167217" lon="10.564925"><ele>1342.0</ele><time>2026-04-26T09:33:13.443Z</time></trkpt><trkpt lat="44.216645" lon="10.56484"><ele>1342.0</ele><time>2026-04-26T09:33:15.443Z</time></trkpt><trkpt lat="44.2166367" lon="10.5647333"><ele>1342.0</ele><time>2026-04-26T09:33:17.443Z</time></trkpt><trkpt lat="44.216655" lon="10.5645933"><ele>1342.0</ele><time>2026-04-26T09:33:19.443Z</time></trkpt><trkpt lat="44.216655" lon="10.5644517"><ele>1341.1666666666665</ele><time>2026-04-26T09:33:21.443Z</time></trkpt><trkpt lat="44.2166383" lon="10.5643583"><ele>1340.3333333333333</ele><time>2026-04-26T09:33:22.443Z</time></trkpt><trkpt lat="44.216605" lon="10.56426"><ele>1339.5</ele><time>2026-04-26T09:33:23.443Z</time></trkpt><trkpt lat="44.2165517" lon="10.5641533"><ele>1338.6666666666667</ele><time>2026-04-26T09:33:24.443Z</time></trkpt><trkpt lat="44.2164933" lon="10.5640517"><ele>1337.8333333333335</ele><time>2026-04-26T09:33:25.443Z</time></trkpt><trkpt lat="44.2164383" lon="10.5639517"><ele>1337.0</ele><time>2026-04-26T09:33:26.443Z</time></trkpt><trkpt lat="44.2164" lon="10.5638483"><ele>1337.0</ele><time>2026-04-26T09:33:27.443Z</time></trkpt><trkpt lat="44.21638" lon="10.563745"><ele>1337.0</ele><time>2026-04-26T09:33:28.443Z</time></trkpt><trkpt lat="44.2163717" lon="10.5636283"><ele>1337.0</ele><time>2026-04-26T09:33:29.443Z</time></trkpt><trkpt lat="44.2163583" lon="10.5635217"><ele>1337.0</ele><time>2026-04-26T09:33:30.443Z</time></trkpt><trkpt lat="44.2163217" lon="10.56341"><ele>1337.0</ele><time>2026-04-26T09:33:31.443Z</time></trkpt><trkpt lat="44.2162733" lon="10.5632867"><ele>1337.0</ele><time>2026-04-26T09:33:32.443Z</time></trkpt><trkpt lat="44.2161833" lon="10.56314"><ele>1338.75</ele><time>2026-04-26T09:33:33.443Z</time></trkpt><trkpt lat="44.2160967" lon="10.562995"><ele>1340.5</ele><time>2026-04-26T09:33:34.443Z</time></trkpt><trkpt lat="44.2160217" lon="10.5628767"><ele>1342.25</ele><time>2026-04-26T09:33:35.443Z</time></trkpt><trkpt lat="44.2159433" lon="10.5627533"><ele>1344.0</ele><time>2026-04-26T09:33:36.443Z</time></trkpt><trkpt lat="44.2158767" lon="10.5626117"><ele>1344.5</ele><time>2026-04-26T09:33:37.443Z</time></trkpt><trkpt lat="44.2158083" lon="10.5624417"><ele>1345.0</ele><time>2026-04-26T09:33:38.443Z</time></trkpt><trkpt lat="44.21574" lon="10.5622633"><ele>1345.5</ele><time>2026-04-26T09:33:39.443Z</time></trkpt><trkpt lat="44.2156817" lon="10.5620967"><ele>1346.0</ele><time>2026-04-26T09:33:40.443Z</time></trkpt><trkpt lat="44.21563" lon="10.56194"><ele>1343.8</ele><time>2026-04-26T09:33:41.443Z</time></trkpt><trkpt lat="44.2155867" lon="10.5617883"><ele>1341.6</ele><time>2026-04-26T09:33:42.443Z</time></trkpt><trkpt lat="44.2155467" lon="10.5616467"><ele>1339.4</ele><time>2026-04-26T09:33:43.443Z</time></trkpt><trkpt lat="44.2155183" lon="10.5615017"><ele>1337.2</ele><time>2026-04-26T09:33:44.443Z</time></trkpt><trkpt lat="44.215505" lon="10.5613483"><ele>1335.0</ele><time>2026-04-26T09:33:45.443Z</time></trkpt><trkpt lat="44.2154917" lon="10.5611933"><ele>1335.0</ele><time>2026-04-26T09:33:46.443Z</time></trkpt><trkpt lat="44.2154683" lon="10.56105"><ele>1335.0</ele><time>2026-04-26T09:33:47.443Z</time></trkpt><trkpt lat="44.2154367" lon="10.56092"><ele>1335.0</ele><time>2026-04-26T09:33:48.443Z</time></trkpt><trkpt lat="44.2154083" lon="10.5608183"><ele>1335.0</ele><time>2026-04-26T09:33:49.443Z</time></trkpt><trkpt lat="44.21533" lon="10.5607167"><ele>1335.0</ele><time>2026-04-26T09:33:51.443Z</time></trkpt><trkpt lat="44.215265" lon="10.560685"><ele>1335.0</ele><time>2026-04-26T09:33:52.443Z</time></trkpt><trkpt lat="44.2151867" lon="10.5606567"><ele>1335.0</ele><time>2026-04-26T09:33:53.443Z</time></trkpt><trkpt lat="44.215105" lon="10.560615"><ele>1335.0</ele><time>2026-04-26T09:33:54.443Z</time></trkpt><trkpt lat="44.2150167" lon="10.5605483"><ele>1335.0</ele><time>2026-04-26T09:33:55.443Z</time></trkpt><trkpt lat="44.2149233" lon="10.56047"><ele>1335.0</ele><time>2026-04-26T09:33:56.443Z</time></trkpt><trkpt lat="44.21484" lon="10.5603967"><ele>1334.1666666666667</ele><time>2026-04-26T09:33:57.443Z</time></trkpt><trkpt lat="44.214755" lon="10.5603417"><ele>1333.3333333333333</ele><time>2026-04-26T09:33:58.443Z</time></trkpt><trkpt lat="44.2146767" lon="10.560305"><ele>1332.5</ele><time>2026-04-26T09:33:59.442Z</time></trkpt><trkpt lat="44.214595" lon="10.5602967"><ele>1331.6666666666665</ele><time>2026-04-26T09:34:00.442Z</time></trkpt><trkpt lat="44.21452" lon="10.5602817"><ele>1330.8333333333333</ele><time>2026-04-26T09:34:01.442Z</time></trkpt><trkpt lat="44.21444" lon="10.5602567"><ele>1330.0</ele><time>2026-04-26T09:34:02.442Z</time></trkpt><trkpt lat="44.2143533" lon="10.5602183"><ele>1330.0</ele><time>2026-04-26T09:34:03.442Z</time></trkpt><trkpt lat="44.21426" lon="10.5601633"><ele>1330.0</ele><time>2026-04-26T09:34:04.443Z</time></trkpt><trkpt lat="44.2141717" lon="10.5601083"><ele>1330.0</ele><time>2026-04-26T09:34:05.442Z</time></trkpt><trkpt lat="44.2140967" lon="10.5600817"><ele>1330.0</ele><time>2026-04-26T09:34:06.442Z</time></trkpt><trkpt lat="44.2140167" lon="10.560055"><ele>1330.0</ele><time>2026-04-26T09:34:07.442Z</time></trkpt><trkpt lat="44.21394" lon="10.5600267"><ele>1330.0</ele><time>2026-04-26T09:34:08.442Z</time></trkpt><trkpt lat="44.2138617" lon="10.5600117"><ele>1328.2857142857142</ele><time>2026-04-26T09:34:09.442Z</time></trkpt><trkpt lat="44.21378" lon="10.5600117"><ele>1326.5714285714284</ele><time>2026-04-26T09:34:10.442Z</time></trkpt><trkpt lat="44.2137133" lon="10.5599967"><ele>1324.857142857143</ele><time>2026-04-26T09:34:11.442Z</time></trkpt><trkpt lat="44.2136517" lon="10.55997"><ele>1323.142857142857</ele><time>2026-04-26T09:34:12.443Z</time></trkpt><trkpt lat="44.2135883" lon="10.5599283"><ele>1321.4285714285713</ele><time>2026-04-26T09:34:13.442Z</time></trkpt><trkpt lat="44.2135183" lon="10.5598617"><ele>1319.7142857142858</ele><time>2026-04-26T09:34:14.443Z</time></trkpt><trkpt lat="44.2134667" lon="10.559775"><ele>1318.0</ele><time>2026-04-26T09:34:15.442Z</time></trkpt><trkpt lat="44.2134" lon="10.559685"><ele>1318.0</ele><time>2026-04-26T09:34:16.442Z</time></trkpt><trkpt lat="44.2133317" lon="10.55961"><ele>1318.0</ele><time>2026-04-26T09:34:17.442Z</time></trkpt><trkpt lat="44.21327" lon="10.55955"><ele>1318.0</ele><time>2026-04-26T09:34:18.442Z</time></trkpt><trkpt lat="44.21318" lon="10.5594467"><ele>1318.0</ele><time>2026-04-26T09:34:20.442Z</time></trkpt><trkpt lat="44.2130917" lon="10.55945"><ele>1318.0</ele><time>2026-04-26T09:34:22.442Z</time></trkpt><trkpt lat="44.213035" lon="10.55949"><ele>1318.0</ele><time>2026-04-26T09:34:23.442Z</time></trkpt><trkpt lat="44.2129717" lon="10.55953"><ele>1318.5</ele><time>2026-04-26T09:34:24.442Z</time></trkpt><trkpt lat="44.2129033" lon="10.559555"><ele>1319.0</ele><time>2026-04-26T09:34:25.442Z</time></trkpt><trkpt lat="44.2128333" lon="10.5595583"><ele>1319.5</ele><time>2026-04-26T09:34:26.442Z</time></trkpt><trkpt lat="44.2127683" lon="10.5595467"><ele>1320.0</ele><time>2026-04-26T09:34:27.442Z</time></trkpt><trkpt lat="44.212685" lon="10.5594767"><ele>1320.5</ele><time>2026-04-26T09:34:29.442Z</time></trkpt><trkpt lat="44.212645" lon="10.55935"><ele>1321.0</ele><time>2026-04-26T09:34:31.442Z</time></trkpt><trkpt lat="44.21263" lon="10.5592467"><ele>1321.0</ele><time>2026-04-26T09:34:32.442Z</time></trkpt><trkpt lat="44.2126167" lon="10.5591283"><ele>1321.0</ele><time>2026-04-26T09:34:33.442Z</time></trkpt><trkpt lat="44.2126067" lon="10.55897"><ele>1321.0</ele><time>2026-04-26T09:34:34.442Z</time></trkpt><trkpt lat="44.2125783" lon="10.558785"><ele>1321.0</ele><time>2026-04-26T09:34:35.442Z</time></trkpt><trkpt lat="44.2125383" lon="10.558615"><ele>1321.0</ele><time>2026-04-26T09:34:36.443Z</time></trkpt><trkpt lat="44.2124967" lon="10.558485"><ele>1321.0</ele><time>2026-04-26T09:34:37.442Z</time></trkpt><trkpt lat="44.2124533" lon="10.5583417"><ele>1321.0</ele><time>2026-04-26T09:34:38.443Z</time></trkpt><trkpt lat="44.212405" lon="10.5581983"><ele>1321.0</ele><time>2026-04-26T09:34:39.442Z</time></trkpt><trkpt lat="44.2123533" lon="10.5580583"><ele>1321.0</ele><time>2026-04-26T09:34:40.443Z</time></trkpt><trkpt lat="44.2123033" lon="10.557915"><ele>1322.1999999999998</ele><time>2026-04-26T09:34:41.442Z</time></trkpt><trkpt lat="44.2122567" lon="10.55777"><ele>1323.3999999999999</ele><time>2026-04-26T09:34:42.442Z</time></trkpt><trkpt lat="44.2122183" lon="10.5576217"><ele>1324.6</ele><time>2026-04-26T09:34:43.442Z</time></trkpt><trkpt lat="44.2121867" lon="10.5574833"><ele>1325.8</ele><time>2026-04-26T09:34:44.442Z</time></trkpt><trkpt lat="44.2121517" lon="10.5573533"><ele>1327.0</ele><time>2026-04-26T09:34:45.442Z</time></trkpt><trkpt lat="44.2121067" lon="10.557235"><ele>1327.0</ele><time>2026-04-26T09:34:46.442Z</time></trkpt><trkpt lat="44.2120533" lon="10.5571083"><ele>1327.0</ele><time>2026-04-26T09:34:47.442Z</time></trkpt><trkpt lat="44.2119867" lon="10.5569817"><ele>1327.0</ele><time>2026-04-26T09:34:48.442Z</time></trkpt><trkpt lat="44.2119183" lon="10.55685"><ele>1327.0</ele><time>2026-04-26T09:34:49.442Z</time></trkpt><trkpt lat="44.2118533" lon="10.556715"><ele>1327.1999999999998</ele><time>2026-04-26T09:34:50.442Z</time></trkpt><trkpt lat="44.2117917" lon="10.5565967"><ele>1327.4</ele><time>2026-04-26T09:34:51.443Z</time></trkpt><trkpt lat="44.2117283" lon="10.5565033"><ele>1327.6</ele><time>2026-04-26T09:34:52.442Z</time></trkpt><trkpt lat="44.21166" lon="10.5564283"><ele>1327.8000000000002</ele><time>2026-04-26T09:34:53.443Z</time></trkpt><trkpt lat="44.21159" lon="10.55636"><ele>1328.0</ele><time>2026-04-26T09:34:54.442Z</time></trkpt><trkpt lat="44.2115" lon="10.5563017"><ele>1325.5</ele><time>2026-04-26T09:34:55.442Z</time></trkpt><trkpt lat="44.2113983" lon="10.5562483"><ele>1323.0</ele><time>2026-04-26T09:34:56.442Z</time></trkpt><trkpt lat="44.2112883" lon="10.556225"><ele>1320.5</ele><time>2026-04-26T09:34:57.442Z</time></trkpt><trkpt lat="44.2111683" lon="10.5562183"><ele>1318.0</ele><time>2026-04-26T09:34:58.443Z</time></trkpt><trkpt lat="44.211045" lon="10.55625"><ele>1318.0</ele><time>2026-04-26T09:34:59.443Z</time></trkpt><trkpt lat="44.2108967" lon="10.5563133"><ele>1318.0</ele><time>2026-04-26T09:35:00.442Z</time></trkpt><trkpt lat="44.2107333" lon="10.5563883"><ele>1318.0</ele><time>2026-04-26T09:35:01.442Z</time></trkpt><trkpt lat="44.210575" lon="10.5564517"><ele>1317.25</ele><time>2026-04-26T09:35:02.442Z</time></trkpt><trkpt lat="44.2104417" lon="10.5565267"><ele>1316.5</ele><time>2026-04-26T09:35:03.442Z</time></trkpt><trkpt lat="44.2103267" lon="10.556605"><ele>1315.75</ele><time>2026-04-26T09:35:04.442Z</time></trkpt><trkpt lat="44.210215" lon="10.5566533"><ele>1315.0</ele><time>2026-04-26T09:35:05.442Z</time></trkpt><trkpt lat="44.2101233" lon="10.5566867"><ele>1315.0</ele><time>2026-04-26T09:35:06.442Z</time></trkpt><trkpt lat="44.2100433" lon="10.5567183"><ele>1315.0</ele><time>2026-04-26T09:35:07.442Z</time></trkpt><trkpt lat="44.209955" lon="10.55672"><ele>1315.0</ele><time>2026-04-26T09:35:08.442Z</time></trkpt><trkpt lat="44.2098583" lon="10.5566867"><ele>1315.0</ele><time>2026-04-26T09:35:09.442Z</time></trkpt><trkpt lat="44.2097517" lon="10.5566383"><ele>1315.0</ele><time>2026-04-26T09:35:10.442Z</time></trkpt><trkpt lat="44.20963" lon="10.5565767"><ele>1313.75</ele><time>2026-04-26T09:35:11.442Z</time></trkpt><trkpt lat="44.2095083" lon="10.5565233"><ele>1312.5</ele><time>2026-04-26T09:35:12.442Z</time></trkpt><trkpt lat="44.2093917" lon="10.5564683"><ele>1311.25</ele><time>2026-04-26T09:35:13.442Z</time></trkpt><trkpt lat="44.20927" lon="10.5564"><ele>1310.0</ele><time>2026-04-26T09:35:14.442Z</time></trkpt><trkpt lat="44.2091433" lon="10.5563317"><ele>1310.0</ele><time>2026-04-26T09:35:15.442Z</time></trkpt><trkpt lat="44.209025" lon="10.55626"><ele>1310.0</ele><time>2026-04-26T09:35:16.443Z</time></trkpt><trkpt lat="44.208905" lon="10.556185"><ele>1310.0</ele><time>2026-04-26T09:35:17.442Z</time></trkpt><trkpt lat="44.2088067" lon="10.5561217"><ele>1310.0</ele><time>2026-04-26T09:35:18.442Z</time></trkpt><trkpt lat="44.2087117" lon="10.556095"><ele>1310.25</ele><time>2026-04-26T09:35:19.442Z</time></trkpt><trkpt lat="44.2086183" lon="10.5561033"><ele>1310.5</ele><time>2026-04-26T09:35:20.442Z</time></trkpt><trkpt lat="44.2085083" lon="10.5561467"><ele>1310.75</ele><time>2026-04-26T09:35:21.442Z</time></trkpt><trkpt lat="44.2083733" lon="10.5561833"><ele>1311.0</ele><time>2026-04-26T09:35:22.442Z</time></trkpt><trkpt lat="44.2082133" lon="10.5562067"><ele>1311.0</ele><time>2026-04-26T09:35:23.442Z</time></trkpt><trkpt lat="44.2080333" lon="10.55623"><ele>1311.0</ele><time>2026-04-26T09:35:24.442Z</time></trkpt><trkpt lat="44.2078517" lon="10.5562517"><ele>1311.0</ele><time>2026-04-26T09:35:25.442Z</time></trkpt><trkpt lat="44.2076867" lon="10.5562717"><ele>1311.0</ele><time>2026-04-26T09:35:26.442Z</time></trkpt><trkpt lat="44.2075367" lon="10.5562933"><ele>1311.0</ele><time>2026-04-26T09:35:27.443Z</time></trkpt><trkpt lat="44.2074017" lon="10.5563167"><ele>1311.0</ele><time>2026-04-26T09:35:28.442Z</time></trkpt><trkpt lat="44.2072733" lon="10.55635"><ele>1311.0</ele><time>2026-04-26T09:35:29.442Z</time></trkpt><trkpt lat="44.2071483" lon="10.556375"><ele>1309.75</ele><time>2026-04-26T09:35:30.442Z</time></trkpt><trkpt lat="44.2070133" lon="10.5563917"><ele>1308.5</ele><time>2026-04-26T09:35:31.442Z</time></trkpt><trkpt lat="44.206875" lon="10.5564033"><ele>1307.25</ele><time>2026-04-26T09:35:32.442Z</time></trkpt><trkpt lat="44.20673" lon="10.5564083"><ele>1306.0</ele><time>2026-04-26T09:35:33.442Z</time></trkpt><trkpt lat="44.206595" lon="10.5564167"><ele>1305.8</ele><time>2026-04-26T09:35:34.442Z</time></trkpt><trkpt lat="44.2064783" lon="10.5564283"><ele>1305.6</ele><time>2026-04-26T09:35:35.442Z</time></trkpt><trkpt lat="44.206385" lon="10.5564233"><ele>1305.4</ele><time>2026-04-26T09:35:36.442Z</time></trkpt><trkpt lat="44.206295" lon="10.5564267"><ele>1305.2</ele><time>2026-04-26T09:35:37.442Z</time></trkpt><trkpt lat="44.2062133" lon="10.5564267"><ele>1305.0</ele><time>2026-04-26T09:35:38.442Z</time></trkpt><trkpt lat="44.2061133" lon="10.5563883"><ele>1305.0</ele><time>2026-04-26T09:35:40.442Z</time></trkpt><trkpt lat="44.2060617" lon="10.55631"><ele>1305.0</ele><time>2026-04-26T09:35:43.442Z</time></trkpt><trkpt lat="44.2060717" lon="10.5562217"><ele>1305.0</ele><time>2026-04-26T09:41:41.44Z</time></trkpt><trkpt lat="44.2060783" lon="10.5560767"><ele>1305.0</ele><time>2026-04-26T09:41:44.44Z</time></trkpt><trkpt lat="44.20611" lon="10.5559283"><ele>1305.0</ele><time>2026-04-26T09:41:46.44Z</time></trkpt><trkpt lat="44.2061433" lon="10.5558367"><ele>1305.0</ele><time>2026-04-26T09:41:47.44Z</time></trkpt><trkpt lat="44.20618" lon="10.55573"><ele>1303.75</ele><time>2026-04-26T09:41:48.44Z</time></trkpt><trkpt lat="44.2062217" lon="10.5556"><ele>1302.5</ele><time>2026-04-26T09:41:49.44Z</time></trkpt><trkpt lat="44.206285" lon="10.5554483"><ele>1301.25</ele><time>2026-04-26T09:41:50.44Z</time></trkpt><trkpt lat="44.2063467" lon="10.5553117"><ele>1300.0</ele><time>2026-04-26T09:41:51.44Z</time></trkpt><trkpt lat="44.2064067" lon="10.5551767"><ele>1298.2</ele><time>2026-04-26T09:41:52.44Z</time></trkpt><trkpt lat="44.2064683" lon="10.555035"><ele>1296.4</ele><time>2026-04-26T09:41:53.44Z</time></trkpt><trkpt lat="44.206515" lon="10.5549133"><ele>1294.6</ele><time>2026-04-26T09:41:54.44Z</time></trkpt><trkpt lat="44.206555" lon="10.5548083"><ele>1292.8</ele><time>2026-04-26T09:41:55.44Z</time></trkpt><trkpt lat="44.2065967" lon="10.55471"><ele>1291.0</ele><time>2026-04-26T09:41:56.44Z</time></trkpt><trkpt lat="44.2066517" lon="10.5546167"><ele>1294.0</ele><time>2026-04-26T09:41:57.44Z</time></trkpt><trkpt lat="44.2067167" lon="10.554525"><ele>1297.0</ele><time>2026-04-26T09:41:58.44Z</time></trkpt><trkpt lat="44.2067833" lon="10.5544583"><ele>1300.0</ele><time>2026-04-26T09:41:59.44Z</time></trkpt><trkpt lat="44.2068817" lon="10.554345"><ele>1303.0</ele><time>2026-04-26T09:42:01.44Z</time></trkpt><trkpt lat="44.2069367" lon="10.5542617"><ele>1306.0</ele><time>2026-04-26T09:42:02.441Z</time></trkpt><trkpt lat="44.2069733" lon="10.55416"><ele>1306.0</ele><time>2026-04-26T09:42:03.441Z</time></trkpt><trkpt lat="44.207" lon="10.554045"><ele>1306.0</ele><time>2026-04-26T09:42:04.44Z</time></trkpt><trkpt lat="44.2070183" lon="10.553925"><ele>1306.0</ele><time>2026-04-26T09:42:05.44Z</time></trkpt><trkpt lat="44.2070317" lon="10.5538117"><ele>1306.0</ele><time>2026-04-26T09:42:06.44Z</time></trkpt><trkpt lat="44.2070533" lon="10.5536917"><ele>1306.0</ele><time>2026-04-26T09:42:07.44Z</time></trkpt><trkpt lat="44.207085" lon="10.553565"><ele>1306.0</ele><time>2026-04-26T09:42:08.44Z</time></trkpt><trkpt lat="44.2071267" lon="10.5534417"><ele>1304.8333333333333</ele><time>2026-04-26T09:42:09.44Z</time></trkpt><trkpt lat="44.2071717" lon="10.5533333"><ele>1303.6666666666665</ele><time>2026-04-26T09:42:10.44Z</time></trkpt><trkpt lat="44.2072283" lon="10.5532333"><ele>1302.5</ele><time>2026-04-26T09:42:11.44Z</time></trkpt><trkpt lat="44.2072783" lon="10.5531267"><ele>1301.3333333333333</ele><time>2026-04-26T09:42:12.44Z</time></trkpt><trkpt lat="44.20732" lon="10.5530317"><ele>1300.1666666666667</ele><time>2026-04-26T09:42:13.44Z</time></trkpt><trkpt lat="44.2073567" lon="10.5529117"><ele>1299.0</ele><time>2026-04-26T09:42:14.44Z</time></trkpt><trkpt lat="44.2073783" lon="10.5527933"><ele>1304.2</ele><time>2026-04-26T09:42:15.44Z</time></trkpt><trkpt lat="44.2073933" lon="10.5526733"><ele>1309.4</ele><time>2026-04-26T09:42:16.44Z</time></trkpt><trkpt lat="44.2074117" lon="10.55257"><ele>1314.6</ele><time>2026-04-26T09:42:17.44Z</time></trkpt><trkpt lat="44.207445" lon="10.552465"><ele>1319.8</ele><time>2026-04-26T09:42:18.44Z</time></trkpt><trkpt lat="44.2074933" lon="10.5523617"><ele>1325.0</ele><time>2026-04-26T09:42:19.44Z</time></trkpt><trkpt lat="44.207575" lon="10.5522433"><ele>1325.0</ele><time>2026-04-26T09:42:20.44Z</time></trkpt><trkpt lat="44.2076833" lon="10.5520983"><ele>1325.0</ele><time>2026-04-26T09:42:21.44Z</time></trkpt><trkpt lat="44.2077733" lon="10.55196"><ele>1325.0</ele><time>2026-04-26T09:42:22.44Z</time></trkpt><trkpt lat="44.2078317" lon="10.5518267"><ele>1325.0</ele><time>2026-04-26T09:42:23.44Z</time></trkpt><trkpt lat="44.207875" lon="10.551685"><ele>1322.8</ele><time>2026-04-26T09:42:24.441Z</time></trkpt><trkpt lat="44.2079033" lon="10.5515483"><ele>1320.6</ele><time>2026-04-26T09:42:25.44Z</time></trkpt><trkpt lat="44.207925" lon="10.551415"><ele>1318.4</ele><time>2026-04-26T09:42:26.44Z</time></trkpt><trkpt lat="44.2079333" lon="10.55129"><ele>1316.2</ele><time>2026-04-26T09:42:27.44Z</time></trkpt><trkpt lat="44.2079217" lon="10.551165"><ele>1314.0</ele><time>2026-04-26T09:42:28.44Z</time></trkpt><trkpt lat="44.2079067" lon="10.5510483"><ele>1312.6666666666667</ele><time>2026-04-26T09:42:29.44Z</time></trkpt><trkpt lat="44.2078883" lon="10.5509383"><ele>1311.3333333333333</ele><time>2026-04-26T09:42:30.44Z</time></trkpt><trkpt lat="44.20786" lon="10.5508467"><ele>1310.0</ele><time>2026-04-26T09:42:31.44Z</time></trkpt><trkpt lat="44.2078233" lon="10.550765"><ele>1308.6666666666665</ele><time>2026-04-26T09:42:32.44Z</time></trkpt><trkpt lat="44.207765" lon="10.5507083"><ele>1307.3333333333333</ele><time>2026-04-26T09:42:33.44Z</time></trkpt><trkpt lat="44.2076883" lon="10.5506717"><ele>1306.0</ele><time>2026-04-26T09:42:34.44Z</time></trkpt><trkpt lat="44.2075933" lon="10.5506583"><ele>1306.0</ele><time>2026-04-26T09:42:35.44Z</time></trkpt><trkpt lat="44.207495" lon="10.5506567"><ele>1306.0</ele><time>2026-04-26T09:42:36.44Z</time></trkpt><trkpt lat="44.2073983" lon="10.5506633"><ele>1306.0</ele><time>2026-04-26T09:42:37.44Z</time></trkpt><trkpt lat="44.2073167" lon="10.5506833"><ele>1306.0</ele><time>2026-04-26T09:42:38.44Z</time></trkpt><trkpt lat="44.2072467" lon="10.5507"><ele>1306.0</ele><time>2026-04-26T09:42:39.44Z</time></trkpt><trkpt lat="44.207135" lon="10.5507033"><ele>1303.0</ele><time>2026-04-26T09:42:41.44Z</time></trkpt><trkpt lat="44.207065" lon="10.5506767"><ele>1300.0</ele><time>2026-04-26T09:42:43.44Z</time></trkpt><trkpt lat="44.2069983" lon="10.5506233"><ele>1297.0</ele><time>2026-04-26T09:42:45.44Z</time></trkpt><trkpt lat="44.2069717" lon="10.5505417"><ele>1294.0</ele><time>2026-04-26T09:42:46.44Z</time></trkpt><trkpt lat="44.206955" lon="10.550445"><ele>1291.0</ele><time>2026-04-26T09:42:47.44Z</time></trkpt><trkpt lat="44.2069417" lon="10.5503317"><ele>1288.0</ele><time>2026-04-26T09:42:48.44Z</time></trkpt><trkpt lat="44.20695" lon="10.5501783"><ele>1288.0</ele><time>2026-04-26T09:42:49.44Z</time></trkpt><trkpt lat="44.20695" lon="10.5500183"><ele>1288.0</ele><time>2026-04-26T09:42:50.44Z</time></trkpt><trkpt lat="44.2069317" lon="10.54988"><ele>1288.0</ele><time>2026-04-26T09:42:51.44Z</time></trkpt><trkpt lat="44.206895" lon="10.5497433"><ele>1288.0</ele><time>2026-04-26T09:42:52.44Z</time></trkpt><trkpt lat="44.2068467" lon="10.5496183"><ele>1288.0</ele><time>2026-04-26T09:42:53.44Z</time></trkpt><trkpt lat="44.2068117" lon="10.5494917"><ele>1288.8000000000002</ele><time>2026-04-26T09:42:54.44Z</time></trkpt><trkpt lat="44.20679" lon="10.549355"><ele>1289.6</ele><time>2026-04-26T09:42:55.44Z</time></trkpt><trkpt lat="44.2067717" lon="10.5492233"><ele>1290.4</ele><time>2026-04-26T09:42:56.44Z</time></trkpt><trkpt lat="44.2067583" lon="10.54913"><ele>1291.1999999999998</ele><time>2026-04-26T09:42:57.44Z</time></trkpt><trkpt lat="44.2066983" lon="10.5489917"><ele>1292.0</ele><time>2026-04-26T09:42:59.44Z</time></trkpt><trkpt lat="44.2066367" lon="10.5489233"><ele>1292.0</ele><time>2026-04-26T09:43:00.44Z</time></trkpt><trkpt lat="44.2065583" lon="10.5488383"><ele>1292.0</ele><time>2026-04-26T09:43:01.44Z</time></trkpt><trkpt lat="44.2064633" lon="10.548745"><ele>1292.0</ele><time>2026-04-26T09:43:02.44Z</time></trkpt><trkpt lat="44.206355" lon="10.5486467"><ele>1292.0</ele><time>2026-04-26T09:43:03.44Z</time></trkpt><trkpt lat="44.206235" lon="10.54855"><ele>1289.3333333333335</ele><time>2026-04-26T09:43:04.44Z</time></trkpt><trkpt lat="44.20613" lon="10.54846"><ele>1286.6666666666667</ele><time>2026-04-26T09:43:05.44Z</time></trkpt><trkpt lat="44.206045" lon="10.548395"><ele>1284.0</ele><time>2026-04-26T09:43:06.44Z</time></trkpt><trkpt lat="44.2059717" lon="10.5483317"><ele>1281.3333333333333</ele><time>2026-04-26T09:43:07.44Z</time></trkpt><trkpt lat="44.2059133" lon="10.548285"><ele>1278.6666666666665</ele><time>2026-04-26T09:43:08.44Z</time></trkpt><trkpt lat="44.2058617" lon="10.54823"><ele>1276.0</ele><time>2026-04-26T09:43:09.44Z</time></trkpt><trkpt lat="44.20581" lon="10.5481683"><ele>1276.0</ele><time>2026-04-26T09:43:10.44Z</time></trkpt><trkpt lat="44.2057533" lon="10.548095"><ele>1276.0</ele><time>2026-04-26T09:43:11.44Z</time></trkpt><trkpt lat="44.2056967" lon="10.5480117"><ele>1276.0</ele><time>2026-04-26T09:43:12.44Z</time></trkpt><trkpt lat="44.2056467" lon="10.5479117"><ele>1276.0</ele><time>2026-04-26T09:43:13.44Z</time></trkpt><trkpt lat="44.2055967" lon="10.5477967"><ele>1276.0</ele><time>2026-04-26T09:43:14.44Z</time></trkpt><trkpt lat="44.2055367" lon="10.5476683"><ele>1272.3999999999999</ele><time>2026-04-26T09:43:15.44Z</time></trkpt><trkpt lat="44.2054667" lon="10.547545"><ele>1268.8</ele><time>2026-04-26T09:43:16.44Z</time></trkpt><trkpt lat="44.2053967" lon="10.5474367"><ele>1265.1999999999998</ele><time>2026-04-26T09:43:17.44Z</time></trkpt><trkpt lat="44.205335" lon="10.5473333"><ele>1261.6</ele><time>2026-04-26T09:43:18.44Z</time></trkpt><trkpt lat="44.2052817" lon="10.5472383"><ele>1258.0</ele><time>2026-04-26T09:43:19.441Z</time></trkpt><trkpt lat="44.205235" lon="10.5471383"><ele>1258.6666666666665</ele><time>2026-04-26T09:43:20.44Z</time></trkpt><trkpt lat="44.2052033" lon="10.547035"><ele>1259.3333333333333</ele><time>2026-04-26T09:43:21.44Z</time></trkpt><trkpt lat="44.2051717" lon="10.54693"><ele>1260.0</ele><time>2026-04-26T09:43:22.44Z</time></trkpt><trkpt lat="44.2051383" lon="10.5468317"><ele>1260.6666666666667</ele><time>2026-04-26T09:43:23.44Z</time></trkpt><trkpt lat="44.2051067" lon="10.5467333"><ele>1261.3333333333335</ele><time>2026-04-26T09:43:24.44Z</time></trkpt><trkpt lat="44.2050867" lon="10.5466283"><ele>1262.0</ele><time>2026-04-26T09:43:25.44Z</time></trkpt><trkpt lat="44.2050817" lon="10.5465367"><ele>1262.0</ele><time>2026-04-26T09:43:26.441Z</time></trkpt><trkpt lat="44.2050983" lon="10.5464383"><ele>1262.0</ele><time>2026-04-26T09:43:27.44Z</time></trkpt><trkpt lat="44.2051383" lon="10.5463233"><ele>1262.0</ele><time>2026-04-26T09:43:28.44Z</time></trkpt><trkpt lat="44.2051917" lon="10.5461967"><ele>1262.0</ele><time>2026-04-26T09:43:29.44Z</time></trkpt><trkpt lat="44.205255" lon="10.54607"><ele>1262.0</ele><time>2026-04-26T09:43:30.44Z</time></trkpt><trkpt lat="44.2053283" lon="10.5459567"><ele>1260.4</ele><time>2026-04-26T09:43:31.44Z</time></trkpt><trkpt lat="44.2054017" lon="10.5458433"><ele>1258.8000000000002</ele><time>2026-04-26T09:43:32.44Z</time></trkpt><trkpt lat="44.20548" lon="10.545735"><ele>1257.2</ele><time>2026-04-26T09:43:33.44Z</time></trkpt><trkpt lat="44.20555" lon="10.5456367"><ele>1255.6000000000001</ele><time>2026-04-26T09:43:34.44Z</time></trkpt><trkpt lat="44.205605" lon="10.5455567"><ele>1254.0</ele><time>2026-04-26T09:43:35.44Z</time></trkpt><trkpt lat="44.2056467" lon="10.5454767"><ele>1257.1666666666667</ele><time>2026-04-26T09:43:36.44Z</time></trkpt><trkpt lat="44.2056783" lon="10.5453933"><ele>1260.3333333333333</ele><time>2026-04-26T09:43:37.441Z</time></trkpt><trkpt lat="44.2056933" lon="10.5452967"><ele>1263.5</ele><time>2026-04-26T09:43:38.44Z</time></trkpt><trkpt lat="44.2057067" lon="10.5451917"><ele>1266.6666666666665</ele><time>2026-04-26T09:43:39.44Z</time></trkpt><trkpt lat="44.205725" lon="10.5450833"><ele>1269.8333333333333</ele><time>2026-04-26T09:43:40.44Z</time></trkpt><trkpt lat="44.2057283" lon="10.5449783"><ele>1273.0</ele><time>2026-04-26T09:43:41.44Z</time></trkpt><trkpt lat="44.2057183" lon="10.5448683"><ele>1273.0</ele><time>2026-04-26T09:43:42.44Z</time></trkpt><trkpt lat="44.2057" lon="10.5447467"><ele>1273.0</ele><time>2026-04-26T09:43:43.44Z</time></trkpt><trkpt lat="44.2056767" lon="10.5446233"><ele>1273.0</ele><time>2026-04-26T09:43:44.44Z</time></trkpt><trkpt lat="44.205655" lon="10.544505"><ele>1273.0</ele><time>2026-04-26T09:43:45.44Z</time></trkpt><trkpt lat="44.20564" lon="10.5443783"><ele>1273.0</ele><time>2026-04-26T09:43:46.44Z</time></trkpt><trkpt lat="44.205635" lon="10.54425"><ele>1273.8333333333333</ele><time>2026-04-26T09:43:47.44Z</time></trkpt><trkpt lat="44.2056467" lon="10.54416"><ele>1274.6666666666665</ele><time>2026-04-26T09:43:48.44Z</time></trkpt><trkpt lat="44.2056767" lon="10.544055"><ele>1275.5</ele><time>2026-04-26T09:43:50.44Z</time></trkpt><trkpt lat="44.205765" lon="10.5439683"><ele>1276.3333333333333</ele><time>2026-04-26T09:43:52.44Z</time></trkpt><trkpt lat="44.205825" lon="10.5439033"><ele>1277.1666666666667</ele><time>2026-04-26T09:43:53.44Z</time></trkpt><trkpt lat="44.2059" lon="10.5438367"><ele>1278.0</ele><time>2026-04-26T09:43:54.44Z</time></trkpt><trkpt lat="44.2059833" lon="10.54376"><ele>1275.75</ele><time>2026-04-26T09:43:55.44Z</time></trkpt><trkpt lat="44.2060883" lon="10.543675"><ele>1273.5</ele><time>2026-04-26T09:43:56.44Z</time></trkpt><trkpt lat="44.2062" lon="10.5435867"><ele>1271.25</ele><time>2026-04-26T09:43:57.44Z</time></trkpt><trkpt lat="44.2063133" lon="10.5435033"><ele>1269.0</ele><time>2026-04-26T09:43:58.44Z</time></trkpt><trkpt lat="44.206415" lon="10.54341"><ele>1271.8000000000002</ele><time>2026-04-26T09:43:59.44Z</time></trkpt><trkpt lat="44.206505" lon="10.5433167"><ele>1274.6000000000001</ele><time>2026-04-26T09:44:00.44Z</time></trkpt><trkpt lat="44.20658" lon="10.54323"><ele>1277.4</ele><time>2026-04-26T09:44:01.441Z</time></trkpt><trkpt lat="44.20664" lon="10.54314"><ele>1280.2</ele><time>2026-04-26T09:44:02.44Z</time></trkpt><trkpt lat="44.2066883" lon="10.5430417"><ele>1283.0</ele><time>2026-04-26T09:44:03.439Z</time></trkpt><trkpt lat="44.206715" lon="10.5429333"><ele>1282.6000000000001</ele><time>2026-04-26T09:44:04.439Z</time></trkpt><trkpt lat="44.2067367" lon="10.5428033"><ele>1282.2</ele><time>2026-04-26T09:44:05.439Z</time></trkpt><trkpt lat="44.206745" lon="10.5426817"><ele>1281.8</ele><time>2026-04-26T09:44:06.439Z</time></trkpt><trkpt lat="44.2067483" lon="10.542545"><ele>1281.4</ele><time>2026-04-26T09:44:07.439Z</time></trkpt><trkpt lat="44.206735" lon="10.5423983"><ele>1281.0</ele><time>2026-04-26T09:44:08.439Z</time></trkpt><trkpt lat="44.2067017" lon="10.5422567"><ele>1281.0</ele><time>2026-04-26T09:44:09.439Z</time></trkpt><trkpt lat="44.2066583" lon="10.54211"><ele>1281.0</ele><time>2026-04-26T09:44:10.439Z</time></trkpt><trkpt lat="44.206615" lon="10.5419583"><ele>1281.0</ele><time>2026-04-26T09:44:11.439Z</time></trkpt><trkpt lat="44.2065717" lon="10.5418167"><ele>1281.0</ele><time>2026-04-26T09:44:12.439Z</time></trkpt><trkpt lat="44.2065317" lon="10.5416967"><ele>1281.0</ele><time>2026-04-26T09:44:13.439Z</time></trkpt><trkpt lat="44.206495" lon="10.5415867"><ele>1278.2</ele><time>2026-04-26T09:44:14.439Z</time></trkpt><trkpt lat="44.2064533" lon="10.5414817"><ele>1275.3999999999999</ele><time>2026-04-26T09:44:15.439Z</time></trkpt><trkpt lat="44.2064117" lon="10.5413867"><ele>1272.6</ele><time>2026-04-26T09:44:16.439Z</time></trkpt><trkpt lat="44.2063767" lon="10.5412433"><ele>1269.8</ele><time>2026-04-26T09:44:18.439Z</time></trkpt><trkpt lat="44.2063967" lon="10.5410667"><ele>1267.0</ele><time>2026-04-26T09:44:20.439Z</time></trkpt><trkpt lat="44.2064267" lon="10.5409717"><ele>1266.8</ele><time>2026-04-26T09:44:21.439Z</time></trkpt><trkpt lat="44.2064833" lon="10.5408733"><ele>1266.6</ele><time>2026-04-26T09:44:22.439Z</time></trkpt><trkpt lat="44.20655" lon="10.540765"><ele>1266.3999999999999</ele><time>2026-04-26T09:44:23.439Z</time></trkpt><trkpt lat="44.206615" lon="10.5406717"><ele>1266.2</ele><time>2026-04-26T09:44:24.439Z</time></trkpt><trkpt lat="44.2066683" lon="10.54058"><ele>1266.0</ele><time>2026-04-26T09:44:25.44Z</time></trkpt><trkpt lat="44.2067383" lon="10.5404667"><ele>1268.0</ele><time>2026-04-26T09:44:26.439Z</time></trkpt><trkpt lat="44.206805" lon="10.5403583"><ele>1270.0</ele><time>2026-04-26T09:44:27.439Z</time></trkpt><trkpt lat="44.2068567" lon="10.5402533"><ele>1272.0</ele><time>2026-04-26T09:44:28.439Z</time></trkpt><trkpt lat="44.2068833" lon="10.54015"><ele>1274.0</ele><time>2026-04-26T09:44:29.439Z</time></trkpt><trkpt lat="44.2068933" lon="10.5400583"><ele>1276.0</ele><time>2026-04-26T09:44:30.439Z</time></trkpt><trkpt lat="44.2068817" lon="10.53989"><ele>1276.0</ele><time>2026-04-26T09:44:32.439Z</time></trkpt><trkpt lat="44.2068233" lon="10.5397533"><ele>1276.0</ele><time>2026-04-26T09:44:34.44Z</time></trkpt><trkpt lat="44.206775" lon="10.5396867"><ele>1276.0</ele><time>2026-04-26T09:44:35.439Z</time></trkpt><trkpt lat="44.20673" lon="10.539615"><ele>1276.0</ele><time>2026-04-26T09:44:36.439Z</time></trkpt><trkpt lat="44.20668" lon="10.5395533"><ele>1276.0</ele><time>2026-04-26T09:44:37.439Z</time></trkpt><trkpt lat="44.206625" lon="10.5395067"><ele>1276.0</ele><time>2026-04-26T09:44:38.439Z</time></trkpt><trkpt lat="44.20651" lon="10.5394567"><ele>1274.5</ele><time>2026-04-26T09:44:40.439Z</time></trkpt><trkpt lat="44.2064467" lon="10.5394317"><ele>1273.0</ele><time>2026-04-26T09:44:41.439Z</time></trkpt><trkpt lat="44.2063483" lon="10.539405"><ele>1271.5</ele><time>2026-04-26T09:44:42.439Z</time></trkpt><trkpt lat="44.206265" lon="10.5393783"><ele>1270.0</ele><time>2026-04-26T09:44:43.44Z</time></trkpt><trkpt lat="44.2061667" lon="10.539335"><ele>1268.5</ele><time>2026-04-26T09:44:44.439Z</time></trkpt><trkpt lat="44.2060783" lon="10.5392933"><ele>1267.0</ele><time>2026-04-26T09:44:45.439Z</time></trkpt><trkpt lat="44.2059783" lon="10.539245"><ele>1267.0</ele><time>2026-04-26T09:44:46.439Z</time></trkpt><trkpt lat="44.2058917" lon="10.5391867"><ele>1267.0</ele><time>2026-04-26T09:44:47.439Z</time></trkpt><trkpt lat="44.2057933" lon="10.5391367"><ele>1267.0</ele><time>2026-04-26T09:44:48.439Z</time></trkpt><trkpt lat="44.205695" lon="10.539075"><ele>1267.0</ele><time>2026-04-26T09:44:49.439Z</time></trkpt><trkpt lat="44.205615" lon="10.5390067"><ele>1267.0</ele><time>2026-04-26T09:44:50.439Z</time></trkpt><trkpt lat="44.2055417" lon="10.5389267"><ele>1265.0</ele><time>2026-04-26T09:44:51.439Z</time></trkpt><trkpt lat="44.205475" lon="10.53883"><ele>1263.0</ele><time>2026-04-26T09:44:52.439Z</time></trkpt><trkpt lat="44.2054167" lon="10.5387283"><ele>1261.0</ele><time>2026-04-26T09:44:53.439Z</time></trkpt><trkpt lat="44.205365" lon="10.5386417"><ele>1259.0</ele><time>2026-04-26T09:44:54.439Z</time></trkpt><trkpt lat="44.2053117" lon="10.538575"><ele>1257.0</ele><time>2026-04-26T09:44:55.439Z</time></trkpt><trkpt lat="44.2052083" lon="10.5385283"><ele>1257.0</ele><time>2026-04-26T09:44:57.439Z</time></trkpt><trkpt lat="44.20509" lon="10.538635"><ele>1257.0</ele><time>2026-04-26T09:44:59.439Z</time></trkpt><trkpt lat="44.2050267" lon="10.538715"><ele>1257.0</ele><time>2026-04-26T09:45:00.439Z</time></trkpt><trkpt lat="44.2049667" lon="10.5387867"><ele>1257.0</ele><time>2026-04-26T09:45:01.439Z</time></trkpt><trkpt lat="44.2049017" lon="10.5388333"><ele>1257.0</ele><time>2026-04-26T09:45:02.439Z</time></trkpt><trkpt lat="44.204825" lon="10.5388767"><ele>1252.6666666666667</ele><time>2026-04-26T09:45:03.439Z</time></trkpt><trkpt lat="44.20475" lon="10.53889"><ele>1248.3333333333333</ele><time>2026-04-26T09:45:04.439Z</time></trkpt><trkpt lat="44.2046767" lon="10.53889"><ele>1244.0</ele><time>2026-04-26T09:45:05.439Z</time></trkpt><trkpt lat="44.2045983" lon="10.5388617"><ele>1239.6666666666665</ele><time>2026-04-26T09:45:06.44Z</time></trkpt><trkpt lat="44.20453" lon="10.5388283"><ele>1235.3333333333333</ele><time>2026-04-26T09:45:07.44Z</time></trkpt><trkpt lat="44.2044583" lon="10.53875"><ele>1231.0</ele><time>2026-04-26T09:45:09.439Z</time></trkpt><trkpt lat="44.2044217" lon="10.5385883"><ele>1231.0</ele><time>2026-04-26T09:45:11.439Z</time></trkpt><trkpt lat="44.20442" lon="10.5384617"><ele>1231.0</ele><time>2026-04-26T09:45:12.439Z</time></trkpt><trkpt lat="44.2044283" lon="10.5383367"><ele>1231.0</ele><time>2026-04-26T09:45:13.439Z</time></trkpt><trkpt lat="44.204445" lon="10.5382283"><ele>1231.0</ele><time>2026-04-26T09:45:14.439Z</time></trkpt><trkpt lat="44.20444" lon="10.5381317"><ele>1231.0</ele><time>2026-04-26T09:45:15.439Z</time></trkpt><trkpt lat="44.2044167" lon="10.5380417"><ele>1231.0</ele><time>2026-04-26T09:45:16.439Z</time></trkpt><trkpt lat="44.2043917" lon="10.5379533"><ele>1231.0</ele><time>2026-04-26T09:45:17.439Z</time></trkpt><trkpt lat="44.2043683" lon="10.53782"><ele>1231.0</ele><time>2026-04-26T09:45:19.439Z</time></trkpt><trkpt lat="44.2043417" lon="10.5376683"><ele>1231.0</ele><time>2026-04-26T09:45:21.439Z</time></trkpt><trkpt lat="44.2043183" lon="10.5375683"><ele>1231.0</ele><time>2026-04-26T09:45:22.439Z</time></trkpt><trkpt lat="44.2042983" lon="10.5374533"><ele>1231.0</ele><time>2026-04-26T09:45:23.439Z</time></trkpt><trkpt lat="44.2042733" lon="10.537335"><ele>1231.0</ele><time>2026-04-26T09:45:24.439Z</time></trkpt><trkpt lat="44.2042483" lon="10.5372133"><ele>1231.0</ele><time>2026-04-26T09:45:25.439Z</time></trkpt><trkpt lat="44.2042167" lon="10.537095"><ele>1231.0</ele><time>2026-04-26T09:45:26.439Z</time></trkpt><trkpt lat="44.2041717" lon="10.5369867"><ele>1231.0</ele><time>2026-04-26T09:45:27.439Z</time></trkpt><trkpt lat="44.2041267" lon="10.5368767"><ele>1231.0</ele><time>2026-04-26T09:45:28.439Z</time></trkpt><trkpt lat="44.2040833" lon="10.5367767"><ele>1231.0</ele><time>2026-04-26T09:45:29.439Z</time></trkpt><trkpt lat="44.20404" lon="10.5366733"><ele>1230.8333333333333</ele><time>2026-04-26T09:45:30.439Z</time></trkpt><trkpt lat="44.2040067" lon="10.5365633"><ele>1230.6666666666665</ele><time>2026-04-26T09:45:31.439Z</time></trkpt><trkpt lat="44.203995" lon="10.5364283"><ele>1230.5</ele><time>2026-04-26T09:45:32.439Z</time></trkpt><trkpt lat="44.20399" lon="10.5362917"><ele>1230.3333333333333</ele><time>2026-04-26T09:45:33.439Z</time></trkpt><trkpt lat="44.2039867" lon="10.536175"><ele>1230.1666666666667</ele><time>2026-04-26T09:45:34.439Z</time></trkpt><trkpt lat="44.2039767" lon="10.5360683"><ele>1230.0</ele><time>2026-04-26T09:45:35.439Z</time></trkpt><trkpt lat="44.20394" lon="10.5359417"><ele>1227.6666666666667</ele><time>2026-04-26T09:45:37.439Z</time></trkpt><trkpt lat="44.2038733" lon="10.535885"><ele>1225.3333333333333</ele><time>2026-04-26T09:51:58.437Z</time></trkpt><trkpt lat="44.2038167" lon="10.5358317"><ele>1223.0</ele><time>2026-04-26T09:52:01.437Z</time></trkpt><trkpt lat="44.2037567" lon="10.5357533"><ele>1220.6666666666665</ele><time>2026-04-26T09:52:03.437Z</time></trkpt><trkpt lat="44.2036767" lon="10.5356417"><ele>1218.3333333333333</ele><time>2026-04-26T09:52:05.437Z</time></trkpt><trkpt lat="44.203625" lon="10.53557"><ele>1216.0</ele><time>2026-04-26T09:52:06.438Z</time></trkpt><trkpt lat="44.20357" lon="10.5354717"><ele>1217.25</ele><time>2026-04-26T09:52:07.437Z</time></trkpt><trkpt lat="44.2035067" lon="10.53533"><ele>1218.5</ele><time>2026-04-26T09:52:08.437Z</time></trkpt><trkpt lat="44.2034283" lon="10.5351583"><ele>1219.75</ele><time>2026-04-26T09:52:09.437Z</time></trkpt><trkpt lat="44.2033483" lon="10.534975"><ele>1221.0</ele><time>2026-04-26T09:52:10.437Z</time></trkpt><trkpt lat="44.2032633" lon="10.5347967"><ele>1221.0</ele><time>2026-04-26T09:52:11.437Z</time></trkpt><trkpt lat="44.2031817" lon="10.5346217"><ele>1221.0</ele><time>2026-04-26T09:52:12.437Z</time></trkpt><trkpt lat="44.203105" lon="10.5344567"><ele>1221.0</ele><time>2026-04-26T09:52:13.437Z</time></trkpt><trkpt lat="44.2030217" lon="10.534295"><ele>1221.0</ele><time>2026-04-26T09:52:14.437Z</time></trkpt><trkpt lat="44.20294" lon="10.5341217"><ele>1221.5</ele><time>2026-04-26T09:52:15.437Z</time></trkpt><trkpt lat="44.2028633" lon="10.5339433"><ele>1222.0</ele><time>2026-04-26T09:52:16.437Z</time></trkpt><trkpt lat="44.2027867" lon="10.5337783"><ele>1222.5</ele><time>2026-04-26T09:52:17.437Z</time></trkpt><trkpt lat="44.2026933" lon="10.5336167"><ele>1223.0</ele><time>2026-04-26T09:52:18.437Z</time></trkpt><trkpt lat="44.2026083" lon="10.533445"><ele>1223.0</ele><time>2026-04-26T09:52:19.437Z</time></trkpt><trkpt lat="44.2025033" lon="10.533265"><ele>1223.0</ele><time>2026-04-26T09:52:20.437Z</time></trkpt><trkpt lat="44.2024083" lon="10.5330783"><ele>1223.0</ele><time>2026-04-26T09:52:21.437Z</time></trkpt><trkpt lat="44.2023083" lon="10.5328783"><ele>1221.6666666666667</ele><time>2026-04-26T09:52:22.437Z</time></trkpt><trkpt lat="44.2022" lon="10.5326717"><ele>1220.3333333333333</ele><time>2026-04-26T09:52:23.437Z</time></trkpt><trkpt lat="44.2020967" lon="10.53246"><ele>1219.0</ele><time>2026-04-26T09:52:24.437Z</time></trkpt><trkpt lat="44.20199" lon="10.5322517"><ele>1221.3333333333333</ele><time>2026-04-26T09:52:25.437Z</time></trkpt><trkpt lat="44.2018783" lon="10.5320517"><ele>1223.6666666666667</ele><time>2026-04-26T09:52:26.437Z</time></trkpt><trkpt lat="44.2017733" lon="10.5318617"><ele>1226.0</ele><time>2026-04-26T09:52:27.437Z</time></trkpt><trkpt lat="44.2016683" lon="10.5316767"><ele>1226.0</ele><time>2026-04-26T09:52:28.437Z</time></trkpt><trkpt lat="44.2015667" lon="10.5315083"><ele>1226.0</ele><time>2026-04-26T09:52:29.437Z</time></trkpt><trkpt lat="44.2014767" lon="10.5313783"><ele>1226.0</ele><time>2026-04-26T09:52:30.438Z</time></trkpt><trkpt lat="44.2013683" lon="10.53127"><ele>1226.0</ele><time>2026-04-26T09:52:31.437Z</time></trkpt><trkpt lat="44.20125" lon="10.5311717"><ele>1228.0</ele><time>2026-04-26T09:52:32.437Z</time></trkpt><trkpt lat="44.2011133" lon="10.5310883"><ele>1230.0</ele><time>2026-04-26T09:52:33.437Z</time></trkpt><trkpt lat="44.2009567" lon="10.5310217"><ele>1232.0</ele><time>2026-04-26T09:52:34.437Z</time></trkpt><trkpt lat="44.2007967" lon="10.53096"><ele>1232.6666666666667</ele><time>2026-04-26T09:52:35.437Z</time></trkpt><trkpt lat="44.2006433" lon="10.5308967"><ele>1233.3333333333333</ele><time>2026-04-26T09:52:36.437Z</time></trkpt><trkpt lat="44.200485" lon="10.530835"><ele>1234.0</ele><time>2026-04-26T09:52:37.437Z</time></trkpt><trkpt lat="44.200335" lon="10.5307817"><ele>1234.0</ele><time>2026-04-26T09:52:38.437Z</time></trkpt><trkpt lat="44.2001983" lon="10.530745"><ele>1234.0</ele><time>2026-04-26T09:52:39.437Z</time></trkpt><trkpt lat="44.20007" lon="10.5306983"><ele>1234.0</ele><time>2026-04-26T09:52:40.437Z</time></trkpt><trkpt lat="44.1999433" lon="10.530625"><ele>1234.0</ele><time>2026-04-26T09:52:41.437Z</time></trkpt><trkpt lat="44.1998233" lon="10.5305217"><ele>1233.0</ele><time>2026-04-26T09:52:42.437Z</time></trkpt><trkpt lat="44.1996983" lon="10.5304133"><ele>1232.0</ele><time>2026-04-26T09:52:43.438Z</time></trkpt><trkpt lat="44.199565" lon="10.5303333"><ele>1231.0</ele><time>2026-04-26T09:52:44.437Z</time></trkpt><trkpt lat="44.1994317" lon="10.530275"><ele>1230.0</ele><time>2026-04-26T09:52:45.437Z</time></trkpt><trkpt lat="44.19931" lon="10.530195"><ele>1231.0</ele><time>2026-04-26T09:52:46.437Z</time></trkpt><trkpt lat="44.199205" lon="10.5300967"><ele>1232.0</ele><time>2026-04-26T09:52:47.437Z</time></trkpt><trkpt lat="44.1991133" lon="10.5299667"><ele>1233.0</ele><time>2026-04-26T09:52:48.437Z</time></trkpt><trkpt lat="44.199035" lon="10.5298167"><ele>1234.0</ele><time>2026-04-26T09:52:49.437Z</time></trkpt><trkpt lat="44.1989683" lon="10.5296783"><ele>1235.4</ele><time>2026-04-26T09:52:50.437Z</time></trkpt><trkpt lat="44.1989083" lon="10.5295533"><ele>1236.8000000000002</ele><time>2026-04-26T09:52:51.437Z</time></trkpt><trkpt lat="44.1988567" lon="10.5294433"><ele>1238.1999999999998</ele><time>2026-04-26T09:52:52.437Z</time></trkpt><trkpt lat="44.198815" lon="10.529355"><ele>1239.6</ele><time>2026-04-26T09:52:53.437Z</time></trkpt><trkpt lat="44.1987517" lon="10.5292383"><ele>1241.0</ele><time>2026-04-26T09:52:55.437Z</time></trkpt><trkpt lat="44.1986733" lon="10.5292"><ele>1241.0</ele><time>2026-04-26T09:52:57.437Z</time></trkpt><trkpt lat="44.19861" lon="10.5291933"><ele>1241.0</ele><time>2026-04-26T09:52:59.437Z</time></trkpt><trkpt lat="44.1985333" lon="10.529175"><ele>1241.0</ele><time>2026-04-26T09:53:18.437Z</time></trkpt><trkpt lat="44.1984567" lon="10.52914"><ele>1241.0</ele><time>2026-04-26T09:53:32.437Z</time></trkpt><trkpt lat="44.1983833" lon="10.5290467"><ele>1241.0</ele><time>2026-04-26T09:53:34.438Z</time></trkpt><trkpt lat="44.1983333" lon="10.5289783"><ele>1241.0</ele><time>2026-04-26T09:53:35.438Z</time></trkpt><trkpt lat="44.1982633" lon="10.5288983"><ele>1241.0</ele><time>2026-04-26T09:53:36.437Z</time></trkpt><trkpt lat="44.1981767" lon="10.52881"><ele>1241.0</ele><time>2026-04-26T09:53:37.437Z</time></trkpt><trkpt lat="44.1980883" lon="10.5287183"><ele>1241.0</ele><time>2026-04-26T09:53:38.437Z</time></trkpt><trkpt lat="44.197985" lon="10.5286283"><ele>1241.0</ele><time>2026-04-26T09:53:39.437Z</time></trkpt><trkpt lat="44.1978833" lon="10.5285417"><ele>1243.2</ele><time>2026-04-26T09:53:40.437Z</time></trkpt><trkpt lat="44.1977967" lon="10.528455"><ele>1245.3999999999999</ele><time>2026-04-26T09:53:41.438Z</time></trkpt><trkpt lat="44.1977267" lon="10.52838"><ele>1247.6</ele><time>2026-04-26T09:53:42.437Z</time></trkpt><trkpt lat="44.1976667" lon="10.5283033"><ele>1249.8</ele><time>2026-04-26T09:53:43.437Z</time></trkpt><trkpt lat="44.1976" lon="10.5282167"><ele>1252.0</ele><time>2026-04-26T09:53:44.437Z</time></trkpt><trkpt lat="44.197525" lon="10.52812"><ele>1252.0</ele><time>2026-04-26T09:53:45.437Z</time></trkpt><trkpt lat="44.1974567" lon="10.5280283"><ele>1252.0</ele><time>2026-04-26T09:53:46.437Z</time></trkpt><trkpt lat="44.1973933" lon="10.52796"><ele>1252.0</ele><time>2026-04-26T09:53:47.437Z</time></trkpt><trkpt lat="44.197325" lon="10.5279"><ele>1252.0</ele><time>2026-04-26T09:53:48.437Z</time></trkpt><trkpt lat="44.1972483" lon="10.5278533"><ele>1252.0</ele><time>2026-04-26T09:53:49.438Z</time></trkpt><trkpt lat="44.1971583" lon="10.5278"><ele>1252.0</ele><time>2026-04-26T09:53:50.437Z</time></trkpt><trkpt lat="44.197075" lon="10.52775"><ele>1254.3333333333333</ele><time>2026-04-26T09:53:51.437Z</time></trkpt><trkpt lat="44.196995" lon="10.5277067"><ele>1256.6666666666665</ele><time>2026-04-26T09:53:52.437Z</time></trkpt><trkpt lat="44.19692" lon="10.5276583"><ele>1259.0</ele><time>2026-04-26T09:53:53.437Z</time></trkpt><trkpt lat="44.1968583" lon="10.5275983"><ele>1261.3333333333333</ele><time>2026-04-26T09:53:54.437Z</time></trkpt><trkpt lat="44.1968033" lon="10.527525"><ele>1263.6666666666667</ele><time>2026-04-26T09:53:55.437Z</time></trkpt><trkpt lat="44.1967567" lon="10.527435"><ele>1266.0</ele><time>2026-04-26T09:53:56.437Z</time></trkpt><trkpt lat="44.1967083" lon="10.5273317"><ele>1266.0</ele><time>2026-04-26T09:53:57.437Z</time></trkpt><trkpt lat="44.1966533" lon="10.5272167"><ele>1266.0</ele><time>2026-04-26T09:53:58.437Z</time></trkpt><trkpt lat="44.1965917" lon="10.527105"><ele>1266.0</ele><time>2026-04-26T09:53:59.438Z</time></trkpt><trkpt lat="44.1965367" lon="10.527005"><ele>1266.0</ele><time>2026-04-26T09:54:00.437Z</time></trkpt><trkpt lat="44.196495" lon="10.5269283"><ele>1266.0</ele><time>2026-04-26T09:54:01.437Z</time></trkpt><trkpt lat="44.1964633" lon="10.52683"><ele>1266.0</ele><time>2026-04-26T09:54:03.437Z</time></trkpt><trkpt lat="44.1964733" lon="10.52674"><ele>1269.1666666666667</ele><time>2026-04-26T09:54:05.437Z</time></trkpt><trkpt lat="44.19648" lon="10.5266367"><ele>1272.3333333333333</ele><time>2026-04-26T09:54:07.437Z</time></trkpt><trkpt lat="44.1964733" lon="10.5265067"><ele>1275.5</ele><time>2026-04-26T09:54:09.438Z</time></trkpt><trkpt lat="44.1964717" lon="10.52635"><ele>1278.6666666666665</ele><time>2026-04-26T09:54:11.437Z</time></trkpt><trkpt lat="44.1964817" lon="10.526235"><ele>1281.8333333333333</ele><time>2026-04-26T09:54:12.436Z</time></trkpt><trkpt lat="44.1964833" lon="10.526145"><ele>1285.0</ele><time>2026-04-26T09:54:13.436Z</time></trkpt><trkpt lat="44.1964833" lon="10.52598"><ele>1285.0</ele><time>2026-04-26T09:54:15.436Z</time></trkpt><trkpt lat="44.1964983" lon="10.5258267"><ele>1285.0</ele><time>2026-04-26T09:54:17.436Z</time></trkpt><trkpt lat="44.1965267" lon="10.5256867"><ele>1285.0</ele><time>2026-04-26T09:54:19.436Z</time></trkpt><trkpt lat="44.1965583" lon="10.525535"><ele>1285.0</ele><time>2026-04-26T09:54:21.436Z</time></trkpt><trkpt lat="44.1965833" lon="10.5253733"><ele>1285.0</ele><time>2026-04-26T09:54:23.436Z</time></trkpt><trkpt lat="44.1966017" lon="10.525205"><ele>1285.0</ele><time>2026-04-26T09:54:25.436Z</time></trkpt><trkpt lat="44.1966167" lon="10.52507"><ele>1285.0</ele><time>2026-04-26T09:54:27.436Z</time></trkpt><trkpt lat="44.1966" lon="10.5249417"><ele>1285.0</ele><time>2026-04-26T09:54:32.436Z</time></trkpt><trkpt lat="44.19656" lon="10.5248467"><ele>1285.0</ele><time>2026-04-26T09:54:35.436Z</time></trkpt><trkpt lat="44.1965167" lon="10.5247483"><ele>1285.0</ele><time>2026-04-26T09:54:38.437Z</time></trkpt><trkpt lat="44.1965317" lon="10.5246217"><ele>1285.0</ele><time>2026-04-26T09:54:42.436Z</time></trkpt><trkpt lat="44.1965717" lon="10.524475"><ele>1285.8</ele><time>2026-04-26T09:54:44.436Z</time></trkpt><trkpt lat="44.19661" lon="10.52435"><ele>1286.6</ele><time>2026-04-26T09:54:46.436Z</time></trkpt><trkpt lat="44.19664" lon="10.5241383"><ele>1287.4</ele><time>2026-04-26T09:54:52.436Z</time></trkpt><trkpt lat="44.1966667" lon="10.524055"><ele>1288.2</ele><time>2026-04-26T09:54:55.436Z</time></trkpt><trkpt lat="44.19673" lon="10.52396"><ele>1289.0</ele><time>2026-04-26T09:54:58.436Z</time></trkpt><trkpt lat="44.1968117" lon="10.5238617"><ele>1289.0</ele><time>2026-04-26T09:55:00.436Z</time></trkpt><trkpt lat="44.1969" lon="10.523755"><ele>1289.0</ele><time>2026-04-26T09:55:02.436Z</time></trkpt><trkpt lat="44.1969383" lon="10.5236817"><ele>1289.0</ele><time>2026-04-26T09:55:03.436Z</time></trkpt><trkpt lat="44.1969767" lon="10.5236033"><ele>1289.0</ele><time>2026-04-26T09:55:04.436Z</time></trkpt><trkpt lat="44.1970183" lon="10.5235017"><ele>1289.0</ele><time>2026-04-26T09:55:05.436Z</time></trkpt><trkpt lat="44.19706" lon="10.52339"><ele>1289.0</ele><time>2026-04-26T09:55:06.436Z</time></trkpt><trkpt lat="44.197085" lon="10.523255"><ele>1289.6</ele><time>2026-04-26T09:55:07.436Z</time></trkpt><trkpt lat="44.1971067" lon="10.5231133"><ele>1290.2</ele><time>2026-04-26T09:55:08.436Z</time></trkpt><trkpt lat="44.1971383" lon="10.52296"><ele>1290.8</ele><time>2026-04-26T09:55:09.437Z</time></trkpt><trkpt lat="44.1971533" lon="10.5228233"><ele>1291.3999999999999</ele><time>2026-04-26T09:55:10.436Z</time></trkpt><trkpt lat="44.1971733" lon="10.5226967"><ele>1292.0</ele><time>2026-04-26T09:55:11.436Z</time></trkpt><trkpt lat="44.1971783" lon="10.5225867"><ele>1292.0</ele><time>2026-04-26T09:55:12.436Z</time></trkpt><trkpt lat="44.1971817" lon="10.5224783"><ele>1292.0</ele><time>2026-04-26T09:55:13.436Z</time></trkpt><trkpt lat="44.1971867" lon="10.5223617"><ele>1292.0</ele><time>2026-04-26T09:55:14.436Z</time></trkpt><trkpt lat="44.1971917" lon="10.5222433"><ele>1292.0</ele><time>2026-04-26T09:55:15.436Z</time></trkpt><trkpt lat="44.1972" lon="10.5221333"><ele>1292.0</ele><time>2026-04-26T09:55:16.436Z</time></trkpt><trkpt lat="44.1972117" lon="10.5220233"><ele>1292.0</ele><time>2026-04-26T09:55:17.436Z</time></trkpt><trkpt lat="44.1972083" lon="10.52186"><ele>1291.3333333333335</ele><time>2026-04-26T09:55:19.436Z</time></trkpt><trkpt lat="44.1971883" lon="10.521705"><ele>1290.6666666666667</ele><time>2026-04-26T09:55:21.436Z</time></trkpt><trkpt lat="44.1971917" lon="10.521525"><ele>1290.0</ele><time>2026-04-26T09:55:23.436Z</time></trkpt><trkpt lat="44.197215" lon="10.5214383"><ele>1289.3333333333333</ele><time>2026-04-26T09:55:24.436Z</time></trkpt><trkpt lat="44.1972533" lon="10.5213583"><ele>1288.6666666666665</ele><time>2026-04-26T09:55:25.436Z</time></trkpt><trkpt lat="44.197295" lon="10.5212917"><ele>1288.0</ele><time>2026-04-26T09:55:26.436Z</time></trkpt><trkpt lat="44.1973717" lon="10.521175"><ele>1285.4</ele><time>2026-04-26T09:55:28.436Z</time></trkpt><trkpt lat="44.1974183" lon="10.5210767"><ele>1282.8000000000002</ele><time>2026-04-26T09:55:30.436Z</time></trkpt><trkpt lat="44.197485" lon="10.52098"><ele>1280.2</ele><time>2026-04-26T09:56:15.436Z</time></trkpt><trkpt lat="44.19753" lon="10.52081"><ele>1277.6</ele><time>2026-04-26T09:56:17.436Z</time></trkpt><trkpt lat="44.19758" lon="10.520675"><ele>1275.0</ele><time>2026-04-26T09:56:18.436Z</time></trkpt><trkpt lat="44.197655" lon="10.5205217"><ele>1276.0</ele><time>2026-04-26T09:56:19.436Z</time></trkpt><trkpt lat="44.1977417" lon="10.52037"><ele>1277.0</ele><time>2026-04-26T09:56:20.436Z</time></trkpt><trkpt lat="44.1978217" lon="10.520225"><ele>1278.0</ele><time>2026-04-26T09:56:21.436Z</time></trkpt><trkpt lat="44.19789" lon="10.52009"><ele>1279.0</ele><time>2026-04-26T09:56:22.436Z</time></trkpt><trkpt lat="44.1979267" lon="10.51995"><ele>1279.0</ele><time>2026-04-26T09:56:23.436Z</time></trkpt><trkpt lat="44.1979383" lon="10.519785"><ele>1279.0</ele><time>2026-04-26T09:56:24.437Z</time></trkpt><trkpt lat="44.19792" lon="10.519605"><ele>1279.0</ele><time>2026-04-26T09:56:25.436Z</time></trkpt><trkpt lat="44.1978633" lon="10.5194167"><ele>1279.0</ele><time>2026-04-26T09:56:26.436Z</time></trkpt><trkpt lat="44.197795" lon="10.5192"><ele>1279.0</ele><time>2026-04-26T09:56:27.436Z</time></trkpt><trkpt lat="44.1977133" lon="10.5189717"><ele>1279.0</ele><time>2026-04-26T09:56:28.436Z</time></trkpt><trkpt lat="44.19762" lon="10.5187533"><ele>1279.0</ele><time>2026-04-26T09:56:29.436Z</time></trkpt><trkpt lat="44.19752" lon="10.5185383"><ele>1280.6666666666665</ele><time>2026-04-26T09:56:30.436Z</time></trkpt><trkpt lat="44.1974067" lon="10.5183233"><ele>1282.3333333333333</ele><time>2026-04-26T09:56:31.436Z</time></trkpt><trkpt lat="44.1973" lon="10.51812"><ele>1284.0</ele><time>2026-04-26T09:56:32.437Z</time></trkpt><trkpt lat="44.1971883" lon="10.5179417"><ele>1282.0</ele><time>2026-04-26T09:56:33.436Z</time></trkpt><trkpt lat="44.1970683" lon="10.5177933"><ele>1280.0</ele><time>2026-04-26T09:56:34.436Z</time></trkpt><trkpt lat="44.1969367" lon="10.5176367"><ele>1278.0</ele><time>2026-04-26T09:56:35.436Z</time></trkpt><trkpt lat="44.1967833" lon="10.517555"><ele>1278.0</ele><time>2026-04-26T09:56:36.436Z</time></trkpt><trkpt lat="44.1966367" lon="10.5174817"><ele>1278.0</ele><time>2026-04-26T09:56:37.436Z</time></trkpt><trkpt lat="44.1965133" lon="10.51741"><ele>1278.0</ele><time>2026-04-26T09:56:38.436Z</time></trkpt><trkpt lat="44.196415" lon="10.5173167"><ele>1278.0</ele><time>2026-04-26T09:56:39.436Z</time></trkpt><trkpt lat="44.1963417" lon="10.5172067"><ele>1279.6</ele><time>2026-04-26T09:56:40.436Z</time></trkpt><trkpt lat="44.196295" lon="10.51708"><ele>1281.1999999999998</ele><time>2026-04-26T09:56:41.436Z</time></trkpt><trkpt lat="44.19628" lon="10.516945"><ele>1282.8</ele><time>2026-04-26T09:56:42.436Z</time></trkpt><trkpt lat="44.1962967" lon="10.516815"><ele>1284.3999999999999</ele><time>2026-04-26T09:56:43.436Z</time></trkpt><trkpt lat="44.196335" lon="10.5167033"><ele>1286.0</ele><time>2026-04-26T09:56:44.436Z</time></trkpt><trkpt lat="44.1963833" lon="10.51661"><ele>1286.5</ele><time>2026-04-26T09:56:45.436Z</time></trkpt><trkpt lat="44.1964417" lon="10.51654"><ele>1287.0</ele><time>2026-04-26T09:56:46.436Z</time></trkpt><trkpt lat="44.1965017" lon="10.5164783"><ele>1287.5</ele><time>2026-04-26T09:56:47.436Z</time></trkpt><trkpt lat="44.19657" lon="10.516405"><ele>1288.0</ele><time>2026-04-26T09:56:48.436Z</time></trkpt><trkpt lat="44.1966383" lon="10.5163267"><ele>1288.5</ele><time>2026-04-26T09:56:49.436Z</time></trkpt><trkpt lat="44.196705" lon="10.5162467"><ele>1289.0</ele><time>2026-04-26T09:56:50.436Z</time></trkpt><trkpt lat="44.196765" lon="10.51618"><ele>1290.6666666666667</ele><time>2026-04-26T09:56:51.436Z</time></trkpt><trkpt lat="44.1968317" lon="10.516115"><ele>1292.3333333333335</ele><time>2026-04-26T09:56:52.436Z</time></trkpt><trkpt lat="44.1969117" lon="10.5160517"><ele>1294.0</ele><time>2026-04-26T09:56:53.436Z</time></trkpt><trkpt lat="44.1969867" lon="10.5159967"><ele>1295.6666666666667</ele><time>2026-04-26T09:56:54.436Z</time></trkpt><trkpt lat="44.1970583" lon="10.5159567"><ele>1297.3333333333333</ele><time>2026-04-26T09:56:55.436Z</time></trkpt><trkpt lat="44.1971417" lon="10.5159"><ele>1299.0</ele><time>2026-04-26T09:56:56.436Z</time></trkpt><trkpt lat="44.1972433" lon="10.5158233"><ele>1296.75</ele><time>2026-04-26T09:56:57.436Z</time></trkpt><trkpt lat="44.1973483" lon="10.5157217"><ele>1294.5</ele><time>2026-04-26T09:56:58.436Z</time></trkpt><trkpt lat="44.197465" lon="10.5156317"><ele>1292.25</ele><time>2026-04-26T09:56:59.436Z</time></trkpt><trkpt lat="44.1975733" lon="10.5155433"><ele>1290.0</ele><time>2026-04-26T09:57:00.437Z</time></trkpt><trkpt lat="44.1976783" lon="10.5154183"><ele>1296.0</ele><time>2026-04-26T09:57:01.436Z</time></trkpt><trkpt lat="44.197785" lon="10.5152667"><ele>1302.0</ele><time>2026-04-26T09:57:02.436Z</time></trkpt><trkpt lat="44.1978833" lon="10.5151083"><ele>1308.0</ele><time>2026-04-26T09:57:03.436Z</time></trkpt><trkpt lat="44.1979867" lon="10.514945"><ele>1308.0</ele><time>2026-04-26T09:57:04.436Z</time></trkpt><trkpt lat="44.1980933" lon="10.5147683"><ele>1308.0</ele><time>2026-04-26T09:57:05.436Z</time></trkpt><trkpt lat="44.198195" lon="10.5145967"><ele>1308.0</ele><time>2026-04-26T09:57:06.436Z</time></trkpt><trkpt lat="44.1982817" lon="10.5144567"><ele>1307.2</ele><time>2026-04-26T09:57:07.436Z</time></trkpt><trkpt lat="44.1983467" lon="10.51433"><ele>1306.4</ele><time>2026-04-26T09:57:08.436Z</time></trkpt><trkpt lat="44.1983967" lon="10.5142017"><ele>1305.6000000000001</ele><time>2026-04-26T09:57:09.436Z</time></trkpt><trkpt lat="44.1984" lon="10.514075"><ele>1304.8000000000002</ele><time>2026-04-26T09:57:10.436Z</time></trkpt><trkpt lat="44.19837" lon="10.5139683"><ele>1304.0</ele><time>2026-04-26T09:57:11.436Z</time></trkpt><trkpt lat="44.1983017" lon="10.51388"><ele>1304.0</ele><time>2026-04-26T09:57:12.436Z</time></trkpt><trkpt lat="44.1982267" lon="10.513775"><ele>1304.0</ele><time>2026-04-26T09:57:13.436Z</time></trkpt><trkpt lat="44.1981683" lon="10.513645"><ele>1304.0</ele><time>2026-04-26T09:57:14.437Z</time></trkpt><trkpt lat="44.1981467" lon="10.5134983"><ele>1304.0</ele><time>2026-04-26T09:57:15.436Z</time></trkpt><trkpt lat="44.1981617" lon="10.5133367"><ele>1304.0</ele><time>2026-04-26T09:57:16.436Z</time></trkpt><trkpt lat="44.19819" lon="10.5131583"><ele>1305.25</ele><time>2026-04-26T09:57:17.437Z</time></trkpt><trkpt lat="44.1982017" lon="10.5129417"><ele>1306.5</ele><time>2026-04-26T09:57:18.436Z</time></trkpt><trkpt lat="44.1981983" lon="10.512725"><ele>1307.75</ele><time>2026-04-26T09:57:19.436Z</time></trkpt><trkpt lat="44.198175" lon="10.51254"><ele>1309.0</ele><time>2026-04-26T09:57:20.436Z</time></trkpt><trkpt lat="44.1981333" lon="10.5124"><ele>1310.6</ele><time>2026-04-26T09:57:21.436Z</time></trkpt><trkpt lat="44.1980717" lon="10.5123083"><ele>1312.2</ele><time>2026-04-26T09:57:22.436Z</time></trkpt><trkpt lat="44.1979967" lon="10.5122617"><ele>1313.8</ele><time>2026-04-26T09:57:23.436Z</time></trkpt><trkpt lat="44.1979217" lon="10.5122467"><ele>1315.3999999999999</ele><time>2026-04-26T09:57:24.436Z</time></trkpt><trkpt lat="44.1978133" lon="10.5122967"><ele>1317.0</ele><time>2026-04-26T09:57:25.436Z</time></trkpt><trkpt lat="44.197695" lon="10.5124267"><ele>1317.0</ele><time>2026-04-26T09:57:26.436Z</time></trkpt><trkpt lat="44.1975783" lon="10.5125733"><ele>1317.0</ele><time>2026-04-26T09:57:27.436Z</time></trkpt><trkpt lat="44.19745" lon="10.51273"><ele>1317.0</ele><time>2026-04-26T09:57:28.436Z</time></trkpt><trkpt lat="44.19732" lon="10.512875"><ele>1319.6666666666667</ele><time>2026-04-26T09:57:29.437Z</time></trkpt><trkpt lat="44.1971983" lon="10.512965"><ele>1322.3333333333335</ele><time>2026-04-26T09:57:30.436Z</time></trkpt><trkpt lat="44.1970533" lon="10.5129983"><ele>1325.0</ele><time>2026-04-26T09:57:31.436Z</time></trkpt><trkpt lat="44.1968883" lon="10.5129617"><ele>1325.3333333333335</ele><time>2026-04-26T09:57:32.437Z</time></trkpt><trkpt lat="44.1967083" lon="10.5128517"><ele>1325.6666666666667</ele><time>2026-04-26T09:57:33.436Z</time></trkpt><trkpt lat="44.19652" lon="10.5127233"><ele>1326.0</ele><time>2026-04-26T09:57:34.436Z</time></trkpt><trkpt lat="44.1963433" lon="10.512595"><ele>1326.0</ele><time>2026-04-26T09:57:35.436Z</time></trkpt><trkpt lat="44.1961567" lon="10.5124733"><ele>1326.0</ele><time>2026-04-26T09:57:36.436Z</time></trkpt><trkpt lat="44.1960083" lon="10.5123433"><ele>1326.0</ele><time>2026-04-26T09:57:37.436Z</time></trkpt><trkpt lat="44.1959083" lon="10.5121583"><ele>1325.0</ele><time>2026-04-26T09:57:38.436Z</time></trkpt><trkpt lat="44.1958383" lon="10.5119333"><ele>1324.0</ele><time>2026-04-26T09:57:39.435Z</time></trkpt><trkpt lat="44.19579" lon="10.5116767"><ele>1323.0</ele><time>2026-04-26T09:57:40.435Z</time></trkpt><trkpt lat="44.195755" lon="10.5113817"><ele>1322.3333333333333</ele><time>2026-04-26T09:57:41.435Z</time></trkpt><trkpt lat="44.1957033" lon="10.511075"><ele>1321.6666666666665</ele><time>2026-04-26T09:57:42.435Z</time></trkpt><trkpt lat="44.19566" lon="10.5107733"><ele>1321.0</ele><time>2026-04-26T09:57:43.435Z</time></trkpt><trkpt lat="44.19565" lon="10.5104917"><ele>1323.6666666666665</ele><time>2026-04-26T09:57:44.435Z</time></trkpt><trkpt lat="44.1956633" lon="10.51021"><ele>1326.3333333333333</ele><time>2026-04-26T09:57:45.435Z</time></trkpt><trkpt lat="44.195685" lon="10.5099467"><ele>1329.0</ele><time>2026-04-26T09:57:46.435Z</time></trkpt><trkpt lat="44.1957033" lon="10.5097083"><ele>1332.3333333333333</ele><time>2026-04-26T09:57:47.435Z</time></trkpt><trkpt lat="44.1957333" lon="10.5094867"><ele>1335.6666666666665</ele><time>2026-04-26T09:57:48.435Z</time></trkpt><trkpt lat="44.19578" lon="10.509305"><ele>1339.0</ele><time>2026-04-26T09:57:49.435Z</time></trkpt><trkpt lat="44.195865" lon="10.5091333"><ele>1339.0</ele><time>2026-04-26T09:57:50.435Z</time></trkpt><trkpt lat="44.19598" lon="10.50895"><ele>1339.0</ele><time>2026-04-26T09:57:51.435Z</time></trkpt><trkpt lat="44.1960767" lon="10.50875"><ele>1339.0</ele><time>2026-04-26T09:57:52.435Z</time></trkpt><trkpt lat="44.1961467" lon="10.508535"><ele>1345.0</ele><time>2026-04-26T09:57:53.435Z</time></trkpt><trkpt lat="44.196195" lon="10.50831"><ele>1351.0</ele><time>2026-04-26T09:57:54.435Z</time></trkpt><trkpt lat="44.1962717" lon="10.50808"><ele>1357.0</ele><time>2026-04-26T09:57:55.436Z</time></trkpt><trkpt lat="44.1963483" lon="10.5078583"><ele>1353.5</ele><time>2026-04-26T09:57:56.435Z</time></trkpt><trkpt lat="44.19641" lon="10.50768"><ele>1350.0</ele><time>2026-04-26T09:57:57.435Z</time></trkpt><trkpt lat="44.1964733" lon="10.507525"><ele>1346.5</ele><time>2026-04-26T09:57:58.435Z</time></trkpt><trkpt lat="44.1965267" lon="10.507375"><ele>1343.0</ele><time>2026-04-26T09:57:59.435Z</time></trkpt><trkpt lat="44.1965583" lon="10.5071967"><ele>1346.0</ele><time>2026-04-26T09:58:00.435Z</time></trkpt><trkpt lat="44.196565" lon="10.5070267"><ele>1349.0</ele><time>2026-04-26T09:58:01.435Z</time></trkpt><trkpt lat="44.1965767" lon="10.50684"><ele>1352.0</ele><time>2026-04-26T09:58:02.435Z</time></trkpt><trkpt lat="44.19661" lon="10.5066717"><ele>1355.0</ele><time>2026-04-26T09:58:03.435Z</time></trkpt><trkpt lat="44.1966567" lon="10.5065333"><ele>1355.0</ele><time>2026-04-26T09:58:04.435Z</time></trkpt><trkpt lat="44.1967217" lon="10.5064067"><ele>1355.0</ele><time>2026-04-26T09:58:05.435Z</time></trkpt><trkpt lat="44.1967567" lon="10.5063067"><ele>1355.0</ele><time>2026-04-26T09:58:06.435Z</time></trkpt><trkpt lat="44.1967817" lon="10.5061817"><ele>1355.0</ele><time>2026-04-26T09:58:07.435Z</time></trkpt><trkpt lat="44.1968033" lon="10.506035"><ele>1355.0</ele><time>2026-04-26T09:58:08.435Z</time></trkpt><trkpt lat="44.1968217" lon="10.5058867"><ele>1357.25</ele><time>2026-04-26T09:58:09.435Z</time></trkpt><trkpt lat="44.1968317" lon="10.5057167"><ele>1359.5</ele><time>2026-04-26T09:58:10.435Z</time></trkpt><trkpt lat="44.1968383" lon="10.5055283"><ele>1361.75</ele><time>2026-04-26T09:58:11.435Z</time></trkpt><trkpt lat="44.1968733" lon="10.5053467"><ele>1364.0</ele><time>2026-04-26T09:58:12.435Z</time></trkpt><trkpt lat="44.1969083" lon="10.5051517"><ele>1366.5</ele><time>2026-04-26T09:58:13.435Z</time></trkpt><trkpt lat="44.1969467" lon="10.5049667"><ele>1369.0</ele><time>2026-04-26T09:58:14.435Z</time></trkpt><trkpt lat="44.19698" lon="10.5047867"><ele>1371.5</ele><time>2026-04-26T09:58:15.435Z</time></trkpt><trkpt lat="44.1970117" lon="10.5046033"><ele>1374.0</ele><time>2026-04-26T09:58:16.436Z</time></trkpt><trkpt lat="44.197045" lon="10.5044217"><ele>1376.4</ele><time>2026-04-26T09:58:17.435Z</time></trkpt><trkpt lat="44.197075" lon="10.5042617"><ele>1378.8000000000002</ele><time>2026-04-26T09:58:18.435Z</time></trkpt><trkpt lat="44.1971017" lon="10.5041033"><ele>1381.1999999999998</ele><time>2026-04-26T09:58:19.435Z</time></trkpt><trkpt lat="44.1971333" lon="10.5039633"><ele>1383.6</ele><time>2026-04-26T09:58:20.435Z</time></trkpt><trkpt lat="44.1971767" lon="10.503845"><ele>1386.0</ele><time>2026-04-26T09:58:21.435Z</time></trkpt><trkpt lat="44.1972217" lon="10.503745"><ele>1388.0</ele><time>2026-04-26T09:58:22.435Z</time></trkpt><trkpt lat="44.1972733" lon="10.5036583"><ele>1390.0</ele><time>2026-04-26T09:58:23.435Z</time></trkpt><trkpt lat="44.1973417" lon="10.50359"><ele>1392.0</ele><time>2026-04-26T09:58:24.435Z</time></trkpt><trkpt lat="44.1974283" lon="10.5035233"><ele>1394.0</ele><time>2026-04-26T09:58:25.435Z</time></trkpt><trkpt lat="44.1975133" lon="10.503465"><ele>1396.0</ele><time>2026-04-26T09:58:26.435Z</time></trkpt><trkpt lat="44.1975967" lon="10.5034183"><ele>1398.0</ele><time>2026-04-26T09:58:27.435Z</time></trkpt><trkpt lat="44.1976733" lon="10.50335"><ele>1396.0</ele><time>2026-04-26T09:58:28.436Z</time></trkpt><trkpt lat="44.1977383" lon="10.503275"><ele>1394.0</ele><time>2026-04-26T09:58:29.435Z</time></trkpt><trkpt lat="44.1977833" lon="10.503175"><ele>1392.0</ele><time>2026-04-26T09:58:30.435Z</time></trkpt><trkpt lat="44.1977733" lon="10.50306"><ele>1390.0</ele><time>2026-04-26T09:58:31.435Z</time></trkpt><trkpt lat="44.1977467" lon="10.5029383"><ele>1388.0</ele><time>2026-04-26T09:58:32.435Z</time></trkpt><trkpt lat="44.1977183" lon="10.50282"><ele>1386.0</ele><time>2026-04-26T09:58:33.435Z</time></trkpt><trkpt lat="44.1977067" lon="10.50271"><ele>1386.0</ele><time>2026-04-26T09:58:34.435Z</time></trkpt><trkpt lat="44.1977317" lon="10.5026167"><ele>1386.0</ele><time>2026-04-26T09:58:35.435Z</time></trkpt><trkpt lat="44.1977783" lon="10.5025233"><ele>1386.0</ele><time>2026-04-26T09:58:36.435Z</time></trkpt><trkpt lat="44.1978333" lon="10.5024183"><ele>1386.0</ele><time>2026-04-26T09:58:37.435Z</time></trkpt><trkpt lat="44.19788" lon="10.5023"><ele>1386.0</ele><time>2026-04-26T09:58:38.435Z</time></trkpt><trkpt lat="44.1979217" lon="10.5021233"><ele>1384.25</ele><time>2026-04-26T09:58:39.436Z</time></trkpt><trkpt lat="44.1979617" lon="10.5019433"><ele>1382.5</ele><time>2026-04-26T09:58:40.435Z</time></trkpt><trkpt lat="44.1980317" lon="10.5017833"><ele>1380.75</ele><time>2026-04-26T09:58:41.435Z</time></trkpt><trkpt lat="44.1981167" lon="10.5016533"><ele>1379.0</ele><time>2026-04-26T09:58:42.435Z</time></trkpt><trkpt lat="44.1982083" lon="10.5015417"><ele>1379.0</ele><time>2026-04-26T09:58:43.435Z</time></trkpt><trkpt lat="44.19837" lon="10.5014383"><ele>1379.0</ele><time>2026-04-26T09:58:44.435Z</time></trkpt><trkpt lat="44.1985017" lon="10.5013083"><ele>1379.0</ele><time>2026-04-26T09:58:45.435Z</time></trkpt><trkpt lat="44.198635" lon="10.50118"><ele>1381.3333333333335</ele><time>2026-04-26T09:58:46.435Z</time></trkpt><trkpt lat="44.1987767" lon="10.50102"><ele>1383.6666666666667</ele><time>2026-04-26T09:58:47.435Z</time></trkpt><trkpt lat="44.1989367" lon="10.5008783"><ele>1386.0</ele><time>2026-04-26T09:58:48.435Z</time></trkpt><trkpt lat="44.1990867" lon="10.5007517"><ele>1386.0</ele><time>2026-04-26T09:58:49.435Z</time></trkpt><trkpt lat="44.199215" lon="10.5006017"><ele>1386.0</ele><time>2026-04-26T09:58:50.435Z</time></trkpt><trkpt lat="44.1993267" lon="10.5004333"><ele>1386.0</ele><time>2026-04-26T09:58:51.435Z</time></trkpt><trkpt lat="44.1994067" lon="10.5002183"><ele>1393.6666666666667</ele><time>2026-04-26T09:58:52.435Z</time></trkpt><trkpt lat="44.199485" lon="10.4999883"><ele>1401.3333333333335</ele><time>2026-04-26T09:58:53.435Z</time></trkpt><trkpt lat="44.1995667" lon="10.4997883"><ele>1409.0</ele><time>2026-04-26T09:58:54.435Z</time></trkpt><trkpt lat="44.1996683" lon="10.49961"><ele>1409.6666666666667</ele><time>2026-04-26T09:58:55.435Z</time></trkpt><trkpt lat="44.19978" lon="10.499455"><ele>1410.3333333333333</ele><time>2026-04-26T09:58:56.435Z</time></trkpt><trkpt lat="44.1999033" lon="10.4992983"><ele>1411.0</ele><time>2026-04-26T09:58:57.435Z</time></trkpt><trkpt lat="44.20003" lon="10.4991367"><ele>1411.0</ele><time>2026-04-26T09:58:58.435Z</time></trkpt><trkpt lat="44.2001667" lon="10.498995"><ele>1411.0</ele><time>2026-04-26T09:58:59.435Z</time></trkpt><trkpt lat="44.200325" lon="10.4988667"><ele>1411.0</ele><time>2026-04-26T09:59:00.435Z</time></trkpt><trkpt lat="44.20049" lon="10.4987567"><ele>1414.3333333333333</ele><time>2026-04-26T09:59:01.435Z</time></trkpt><trkpt lat="44.2006667" lon="10.498645"><ele>1417.6666666666667</ele><time>2026-04-26T09:59:02.435Z</time></trkpt><trkpt lat="44.2008483" lon="10.4985167"><ele>1421.0</ele><time>2026-04-26T09:59:03.435Z</time></trkpt><trkpt lat="44.2010317" lon="10.498355"><ele>1421.0</ele><time>2026-04-26T09:59:04.435Z</time></trkpt><trkpt lat="44.2011767" lon="10.498185"><ele>1421.0</ele><time>2026-04-26T09:59:05.435Z</time></trkpt><trkpt lat="44.2013133" lon="10.49799"><ele>1421.0</ele><time>2026-04-26T09:59:06.435Z</time></trkpt><trkpt lat="44.201425" lon="10.49779"><ele>1420.5</ele><time>2026-04-26T09:59:07.435Z</time></trkpt><trkpt lat="44.201515" lon="10.4976033"><ele>1420.0</ele><time>2026-04-26T09:59:08.435Z</time></trkpt><trkpt lat="44.2016083" lon="10.4974333"><ele>1419.5</ele><time>2026-04-26T09:59:09.435Z</time></trkpt><trkpt lat="44.201685" lon="10.4973133"><ele>1419.0</ele><time>2026-04-26T09:59:10.435Z</time></trkpt><trkpt lat="44.2018117" lon="10.4971983"><ele>1419.0</ele><time>2026-04-26T09:59:11.435Z</time></trkpt><trkpt lat="44.20193" lon="10.497115"><ele>1419.0</ele><time>2026-04-26T09:59:12.435Z</time></trkpt><trkpt lat="44.2020483" lon="10.4969983"><ele>1419.0</ele><time>2026-04-26T09:59:13.435Z</time></trkpt><trkpt lat="44.2021883" lon="10.49685"><ele>1421.75</ele><time>2026-04-26T09:59:14.435Z</time></trkpt><trkpt lat="44.2022767" lon="10.4967017"><ele>1424.5</ele><time>2026-04-26T09:59:15.436Z</time></trkpt><trkpt lat="44.2022983" lon="10.4965083"><ele>1427.25</ele><time>2026-04-26T09:59:16.436Z</time></trkpt><trkpt lat="44.202305" lon="10.496315"><ele>1430.0</ele><time>2026-04-26T09:59:17.435Z</time></trkpt><trkpt lat="44.2023317" lon="10.4961633"><ele>1430.0</ele><time>2026-04-26T09:59:18.435Z</time></trkpt><trkpt lat="44.2023967" lon="10.4960283"><ele>1430.0</ele><time>2026-04-26T09:59:19.435Z</time></trkpt><trkpt lat="44.2024933" lon="10.4959183"><ele>1430.0</ele><time>2026-04-26T09:59:20.435Z</time></trkpt><trkpt lat="44.2026133" lon="10.49586"><ele>1430.0</ele><time>2026-04-26T09:59:21.435Z</time></trkpt><trkpt lat="44.202735" lon="10.495775"><ele>1430.0</ele><time>2026-04-26T09:59:22.435Z</time></trkpt><trkpt lat="44.2028517" lon="10.4956783"><ele>1430.0</ele><time>2026-04-26T09:59:23.435Z</time></trkpt><trkpt lat="44.20296" lon="10.4955233"><ele>1430.0</ele><time>2026-04-26T09:59:24.435Z</time></trkpt><trkpt lat="44.2030633" lon="10.4952967"><ele>1430.0</ele><time>2026-04-26T09:59:25.435Z</time></trkpt><trkpt lat="44.203145" lon="10.4950617"><ele>1430.0</ele><time>2026-04-26T09:59:26.435Z</time></trkpt><trkpt lat="44.20323" lon="10.4948167"><ele>1430.0</ele><time>2026-04-26T09:59:27.436Z</time></trkpt><trkpt lat="44.2033517" lon="10.494585"><ele>1439.0</ele><time>2026-04-26T09:59:28.435Z</time></trkpt><trkpt lat="44.20348" lon="10.4943767"><ele>1448.0</ele><time>2026-04-26T09:59:29.435Z</time></trkpt><trkpt lat="44.20361" lon="10.4942"><ele>1457.0</ele><time>2026-04-26T09:59:30.435Z</time></trkpt><trkpt lat="44.20373" lon="10.49405"><ele>1457.0</ele><time>2026-04-26T09:59:31.435Z</time></trkpt><trkpt lat="44.2038717" lon="10.4939183"><ele>1457.0</ele><time>2026-04-26T09:59:32.435Z</time></trkpt><trkpt lat="44.203975" lon="10.493795"><ele>1457.0</ele><time>2026-04-26T09:59:33.435Z</time></trkpt><trkpt lat="44.2040867" lon="10.49372"><ele>1457.0</ele><time>2026-04-26T09:59:34.435Z</time></trkpt><trkpt lat="44.2042133" lon="10.4937117"><ele>1453.0</ele><time>2026-04-26T09:59:35.435Z</time></trkpt><trkpt lat="44.2043233" lon="10.4937817"><ele>1449.0</ele><time>2026-04-26T09:59:36.435Z</time></trkpt><trkpt lat="44.2044383" lon="10.4938783"><ele>1445.0</ele><time>2026-04-26T09:59:37.435Z</time></trkpt><trkpt lat="44.204565" lon="10.4939517"><ele>1441.0</ele><time>2026-04-26T09:59:38.435Z</time></trkpt><trkpt lat="44.2047" lon="10.4939767"><ele>1443.25</ele><time>2026-04-26T09:59:39.435Z</time></trkpt><trkpt lat="44.2048567" lon="10.4939633"><ele>1445.5</ele><time>2026-04-26T09:59:40.435Z</time></trkpt><trkpt lat="44.205005" lon="10.4939317"><ele>1447.75</ele><time>2026-04-26T09:59:41.435Z</time></trkpt><trkpt lat="44.2051433" lon="10.4939183"><ele>1450.0</ele><time>2026-04-26T09:59:42.435Z</time></trkpt><trkpt lat="44.2052633" lon="10.4939517"><ele>1450.0</ele><time>2026-04-26T09:59:43.435Z</time></trkpt><trkpt lat="44.2053717" lon="10.4939883"><ele>1450.0</ele><time>2026-04-26T09:59:44.435Z</time></trkpt><trkpt lat="44.205485" lon="10.4939717"><ele>1450.0</ele><time>2026-04-26T09:59:45.435Z</time></trkpt><trkpt lat="44.2055967" lon="10.4938967"><ele>1450.0</ele><time>2026-04-26T09:59:46.435Z</time></trkpt><trkpt lat="44.20571" lon="10.4937867"><ele>1457.25</ele><time>2026-04-26T09:59:47.435Z</time></trkpt><trkpt lat="44.205825" lon="10.4936583"><ele>1464.5</ele><time>2026-04-26T09:59:48.435Z</time></trkpt><trkpt lat="44.2059567" lon="10.4935583"><ele>1471.75</ele><time>2026-04-26T09:59:49.435Z</time></trkpt><trkpt lat="44.20608" lon="10.4934783"><ele>1479.0</ele><time>2026-04-26T09:59:50.435Z</time></trkpt><trkpt lat="44.2061783" lon="10.4934033"><ele>1479.0</ele><time>2026-04-26T09:59:51.435Z</time></trkpt><trkpt lat="44.2062417" lon="10.4933183"><ele>1479.0</ele><time>2026-04-26T09:59:52.435Z</time></trkpt><trkpt lat="44.2062983" lon="10.493225"><ele>1479.0</ele><time>2026-04-26T09:59:53.435Z</time></trkpt><trkpt lat="44.2063267" lon="10.49312"><ele>1479.0</ele><time>2026-04-26T09:59:54.435Z</time></trkpt><trkpt lat="44.2063217" lon="10.492995"><ele>1479.0</ele><time>2026-04-26T09:59:55.435Z</time></trkpt><trkpt lat="44.20631" lon="10.4928783"><ele>1479.0</ele><time>2026-04-26T09:59:56.435Z</time></trkpt><trkpt lat="44.20618" lon="10.4927617"><ele>1478.6666666666667</ele><time>2026-04-26T09:59:57.435Z</time></trkpt><trkpt lat="44.2060417" lon="10.4926583"><ele>1478.3333333333335</ele><time>2026-04-26T09:59:58.435Z</time></trkpt><trkpt lat="44.2058583" lon="10.4925783"><ele>1478.0</ele><time>2026-04-26T09:59:59.435Z</time></trkpt><trkpt lat="44.2057033" lon="10.4925267"><ele>1480.75</ele><time>2026-04-26T10:00:00.435Z</time></trkpt><trkpt lat="44.2055733" lon="10.49245"><ele>1483.5</ele><time>2026-04-26T10:00:01.435Z</time></trkpt><trkpt lat="44.205465" lon="10.4923483"><ele>1486.25</ele><time>2026-04-26T10:00:02.435Z</time></trkpt><trkpt lat="44.2054033" lon="10.4922167"><ele>1489.0</ele><time>2026-04-26T10:00:03.435Z</time></trkpt><trkpt lat="44.2053783" lon="10.4920467"><ele>1491.3333333333333</ele><time>2026-04-26T10:00:04.435Z</time></trkpt><trkpt lat="44.2054017" lon="10.4918433"><ele>1493.6666666666667</ele><time>2026-04-26T10:00:05.435Z</time></trkpt><trkpt lat="44.2054683" lon="10.491625"><ele>1496.0</ele><time>2026-04-26T10:00:06.435Z</time></trkpt><trkpt lat="44.2055533" lon="10.4914033"><ele>1496.6666666666667</ele><time>2026-04-26T10:00:07.435Z</time></trkpt><trkpt lat="44.2056367" lon="10.4911567"><ele>1497.3333333333333</ele><time>2026-04-26T10:00:08.435Z</time></trkpt><trkpt lat="44.2057133" lon="10.4909233"><ele>1498.0</ele><time>2026-04-26T10:00:09.436Z</time></trkpt><trkpt lat="44.2058133" lon="10.4907"><ele>1498.0</ele><time>2026-04-26T10:00:10.435Z</time></trkpt><trkpt lat="44.2059217" lon="10.490515"><ele>1498.0</ele><time>2026-04-26T10:00:11.435Z</time></trkpt><trkpt lat="44.2060483" lon="10.4903733"><ele>1498.0</ele><time>2026-04-26T10:00:12.435Z</time></trkpt><trkpt lat="44.20617" lon="10.4902283"><ele>1499.6666666666665</ele><time>2026-04-26T10:00:13.435Z</time></trkpt><trkpt lat="44.2063" lon="10.4900767"><ele>1501.3333333333333</ele><time>2026-04-26T10:00:14.435Z</time></trkpt><trkpt lat="44.2064167" lon="10.4899217"><ele>1503.0</ele><time>2026-04-26T10:00:15.435Z</time></trkpt><trkpt lat="44.20653" lon="10.4898283"><ele>1503.0</ele><time>2026-04-26T10:00:16.435Z</time></trkpt><trkpt lat="44.2066583" lon="10.48978"><ele>1503.0</ele><time>2026-04-26T10:00:17.435Z</time></trkpt><trkpt lat="44.206805" lon="10.4897533"><ele>1503.0</ele><time>2026-04-26T10:00:18.436Z</time></trkpt><trkpt lat="44.20695" lon="10.4896883"><ele>1503.0</ele><time>2026-04-26T10:00:19.435Z</time></trkpt><trkpt lat="44.207075" lon="10.4895967"><ele>1505.75</ele><time>2026-04-26T10:00:20.435Z</time></trkpt><trkpt lat="44.2071867" lon="10.489455"><ele>1508.5</ele><time>2026-04-26T10:00:21.435Z</time></trkpt><trkpt lat="44.2072817" lon="10.4893017"><ele>1511.25</ele><time>2026-04-26T10:00:22.435Z</time></trkpt><trkpt lat="44.2073817" lon="10.4891567"><ele>1514.0</ele><time>2026-04-26T10:00:23.435Z</time></trkpt><trkpt lat="44.2075117" lon="10.4890533"><ele>1514.0</ele><time>2026-04-26T10:00:24.435Z</time></trkpt><trkpt lat="44.2076633" lon="10.4889583"><ele>1514.0</ele><time>2026-04-26T10:00:25.435Z</time></trkpt><trkpt lat="44.2078133" lon="10.4888467"><ele>1514.0</ele><time>2026-04-26T10:00:26.435Z</time></trkpt><trkpt lat="44.207955" lon="10.4887667"><ele>1512.6666666666667</ele><time>2026-04-26T10:00:27.435Z</time></trkpt><trkpt lat="44.2081" lon="10.4887283"><ele>1511.3333333333333</ele><time>2026-04-26T10:00:28.435Z</time></trkpt><trkpt lat="44.208255" lon="10.488735"><ele>1510.0</ele><time>2026-04-26T10:00:29.435Z</time></trkpt><trkpt lat="44.2084167" lon="10.4887833"><ele>1510.0</ele><time>2026-04-26T10:00:30.435Z</time></trkpt><trkpt lat="44.2085733" lon="10.4888517"><ele>1510.0</ele><time>2026-04-26T10:00:31.435Z</time></trkpt><trkpt lat="44.2087117" lon="10.48892"><ele>1510.0</ele><time>2026-04-26T10:00:32.435Z</time></trkpt><trkpt lat="44.208835" lon="10.4889817"><ele>1510.0</ele><time>2026-04-26T10:00:33.435Z</time></trkpt><trkpt lat="44.2089533" lon="10.4889767"><ele>1511.8333333333333</ele><time>2026-04-26T10:00:34.435Z</time></trkpt><trkpt lat="44.2090667" lon="10.4889233"><ele>1513.6666666666665</ele><time>2026-04-26T10:00:35.435Z</time></trkpt><trkpt lat="44.2091483" lon="10.488875"><ele>1515.5</ele><time>2026-04-26T10:00:36.435Z</time></trkpt><trkpt lat="44.20921" lon="10.4888383"><ele>1517.3333333333333</ele><time>2026-04-26T10:00:37.435Z</time></trkpt><trkpt lat="44.209295" lon="10.4887933"><ele>1519.1666666666667</ele><time>2026-04-26T10:00:39.435Z</time></trkpt><trkpt lat="44.2093717" lon="10.4887567"><ele>1521.0</ele><time>2026-04-26T10:00:42.435Z</time></trkpt><trkpt lat="44.2093067" lon="10.4887017"><ele>1522.25</ele><time>2026-04-26T10:01:25.434Z</time></trkpt><trkpt lat="44.2092217" lon="10.4886817"><ele>1523.5</ele><time>2026-04-26T10:01:26.434Z</time></trkpt><trkpt lat="44.20912" lon="10.4886533"><ele>1524.75</ele><time>2026-04-26T10:01:27.434Z</time></trkpt><trkpt lat="44.208975" lon="10.4886067"><ele>1526.0</ele><time>2026-04-26T10:01:28.434Z</time></trkpt><trkpt lat="44.2088317" lon="10.488545"><ele>1528.6666666666667</ele><time>2026-04-26T10:01:29.434Z</time></trkpt><trkpt lat="44.2086917" lon="10.4884817"><ele>1531.3333333333333</ele><time>2026-04-26T10:01:30.434Z</time></trkpt><trkpt lat="44.20855" lon="10.4884167"><ele>1534.0</ele><time>2026-04-26T10:01:31.434Z</time></trkpt><trkpt lat="44.208405" lon="10.488335"><ele>1534.0</ele><time>2026-04-26T10:01:32.435Z</time></trkpt><trkpt lat="44.20826" lon="10.4882633"><ele>1534.0</ele><time>2026-04-26T10:01:33.434Z</time></trkpt><trkpt lat="44.2081333" lon="10.488245"><ele>1534.0</ele><time>2026-04-26T10:01:34.434Z</time></trkpt><trkpt lat="44.2080117" lon="10.4882433"><ele>1534.0</ele><time>2026-04-26T10:01:35.434Z</time></trkpt><trkpt lat="44.2079067" lon="10.4882233"><ele>1534.8000000000002</ele><time>2026-04-26T10:01:36.434Z</time></trkpt><trkpt lat="44.2078" lon="10.48816"><ele>1535.6000000000001</ele><time>2026-04-26T10:01:37.434Z</time></trkpt><trkpt lat="44.2077183" lon="10.4880567"><ele>1536.4</ele><time>2026-04-26T10:01:38.434Z</time></trkpt><trkpt lat="44.2076367" lon="10.487955"><ele>1537.2</ele><time>2026-04-26T10:01:39.434Z</time></trkpt><trkpt lat="44.2075583" lon="10.4878633"><ele>1538.0</ele><time>2026-04-26T10:01:40.434Z</time></trkpt><trkpt lat="44.2074817" lon="10.4877783"><ele>1542.25</ele><time>2026-04-26T10:01:41.434Z</time></trkpt><trkpt lat="44.2073933" lon="10.4876983"><ele>1546.5</ele><time>2026-04-26T10:01:42.434Z</time></trkpt><trkpt lat="44.2072733" lon="10.4876533"><ele>1550.75</ele><time>2026-04-26T10:01:43.434Z</time></trkpt><trkpt lat="44.207135" lon="10.4876367"><ele>1555.0</ele><time>2026-04-26T10:01:44.434Z</time></trkpt><trkpt lat="44.2069967" lon="10.4876383"><ele>1557.75</ele><time>2026-04-26T10:01:45.434Z</time></trkpt><trkpt lat="44.2068717" lon="10.4876433"><ele>1560.5</ele><time>2026-04-26T10:01:46.434Z</time></trkpt><trkpt lat="44.20675" lon="10.4876333"><ele>1563.25</ele><time>2026-04-26T10:01:47.434Z</time></trkpt><trkpt lat="44.2066333" lon="10.4875917"><ele>1566.0</ele><time>2026-04-26T10:01:48.434Z</time></trkpt><trkpt lat="44.20652" lon="10.48755"><ele>1567.8</ele><time>2026-04-26T10:01:49.434Z</time></trkpt><trkpt lat="44.206415" lon="10.4875"><ele>1569.6</ele><time>2026-04-26T10:01:50.434Z</time></trkpt><trkpt lat="44.2063183" lon="10.4874567"><ele>1571.4</ele><time>2026-04-26T10:01:51.434Z</time></trkpt><trkpt lat="44.206225" lon="10.4874217"><ele>1573.2</ele><time>2026-04-26T10:01:52.434Z</time></trkpt><trkpt lat="44.2061333" lon="10.48739"><ele>1575.0</ele><time>2026-04-26T10:01:53.434Z</time></trkpt><trkpt lat="44.20603" lon="10.4873717"><ele>1575.0</ele><time>2026-04-26T10:01:54.434Z</time></trkpt><trkpt lat="44.2059217" lon="10.4873633"><ele>1575.0</ele><time>2026-04-26T10:01:55.434Z</time></trkpt><trkpt lat="44.2058083" lon="10.4873533"><ele>1575.0</ele><time>2026-04-26T10:01:56.434Z</time></trkpt><trkpt lat="44.2057" lon="10.4873233"><ele>1575.0</ele><time>2026-04-26T10:01:57.434Z</time></trkpt><trkpt lat="44.2056" lon="10.4872833"><ele>1575.0</ele><time>2026-04-26T10:01:58.434Z</time></trkpt><trkpt lat="44.2055133" lon="10.4872467"><ele>1578.2</ele><time>2026-04-26T10:01:59.435Z</time></trkpt><trkpt lat="44.2054217" lon="10.4872367"><ele>1581.4</ele><time>2026-04-26T10:02:00.434Z</time></trkpt><trkpt lat="44.205335" lon="10.4872583"><ele>1584.6</ele><time>2026-04-26T10:02:01.434Z</time></trkpt><trkpt lat="44.205255" lon="10.48729"><ele>1587.8</ele><time>2026-04-26T10:02:02.434Z</time></trkpt><trkpt lat="44.20516" lon="10.48735"><ele>1591.0</ele><time>2026-04-26T10:02:03.434Z</time></trkpt><trkpt lat="44.2050467" lon="10.48742"><ele>1591.0</ele><time>2026-04-26T10:02:04.434Z</time></trkpt><trkpt lat="44.2049117" lon="10.4875117"><ele>1591.0</ele><time>2026-04-26T10:02:05.434Z</time></trkpt><trkpt lat="44.2047683" lon="10.487565"><ele>1591.0</ele><time>2026-04-26T10:02:06.434Z</time></trkpt><trkpt lat="44.20463" lon="10.4875983"><ele>1591.0</ele><time>2026-04-26T10:02:07.434Z</time></trkpt><trkpt lat="44.2044817" lon="10.4876333"><ele>1594.5</ele><time>2026-04-26T10:02:08.434Z</time></trkpt><trkpt lat="44.204335" lon="10.4876667"><ele>1598.0</ele><time>2026-04-26T10:02:09.434Z</time></trkpt><trkpt lat="44.2041867" lon="10.4876867"><ele>1601.5</ele><time>2026-04-26T10:02:10.434Z</time></trkpt><trkpt lat="44.204055" lon="10.4877"><ele>1605.0</ele><time>2026-04-26T10:02:11.434Z</time></trkpt><trkpt lat="44.2039317" lon="10.4876867"><ele>1605.0</ele><time>2026-04-26T10:02:12.434Z</time></trkpt><trkpt lat="44.2038033" lon="10.4876483"><ele>1605.0</ele><time>2026-04-26T10:02:13.435Z</time></trkpt><trkpt lat="44.2036867" lon="10.4876067"><ele>1605.0</ele><time>2026-04-26T10:02:14.434Z</time></trkpt><trkpt lat="44.2035783" lon="10.487535"><ele>1605.0</ele><time>2026-04-26T10:02:15.434Z</time></trkpt><trkpt lat="44.2034717" lon="10.4874417"><ele>1605.0</ele><time>2026-04-26T10:02:16.434Z</time></trkpt><trkpt lat="44.2033583" lon="10.4873433"><ele>1605.0</ele><time>2026-04-26T10:02:17.434Z</time></trkpt><trkpt lat="44.2032317" lon="10.48726"><ele>1605.0</ele><time>2026-04-26T10:02:18.434Z</time></trkpt><trkpt lat="44.20309" lon="10.4872133"><ele>1605.0</ele><time>2026-04-26T10:02:19.434Z</time></trkpt><trkpt lat="44.20295" lon="10.4871767"><ele>1604.75</ele><time>2026-04-26T10:02:20.434Z</time></trkpt><trkpt lat="44.202795" lon="10.48715"><ele>1604.5</ele><time>2026-04-26T10:02:21.434Z</time></trkpt><trkpt lat="44.202655" lon="10.4871333"><ele>1604.25</ele><time>2026-04-26T10:02:22.434Z</time></trkpt><trkpt lat="44.202535" lon="10.4871283"><ele>1604.0</ele><time>2026-04-26T10:02:23.434Z</time></trkpt><trkpt lat="44.2024233" lon="10.4871333"><ele>1605.75</ele><time>2026-04-26T10:02:24.434Z</time></trkpt><trkpt lat="44.2023133" lon="10.4871683"><ele>1607.5</ele><time>2026-04-26T10:02:25.434Z</time></trkpt><trkpt lat="44.2021883" lon="10.487235"><ele>1609.25</ele><time>2026-04-26T10:02:26.434Z</time></trkpt><trkpt lat="44.2020617" lon="10.48732"><ele>1611.0</ele><time>2026-04-26T10:02:27.434Z</time></trkpt><trkpt lat="44.2019333" lon="10.4874167"><ele>1611.0</ele><time>2026-04-26T10:02:28.434Z</time></trkpt><trkpt lat="44.2018133" lon="10.48751"><ele>1611.0</ele><time>2026-04-26T10:02:29.434Z</time></trkpt><trkpt lat="44.2016867" lon="10.4875967"><ele>1611.0</ele><time>2026-04-26T10:02:30.434Z</time></trkpt><trkpt lat="44.20157" lon="10.4876883"><ele>1611.0</ele><time>2026-04-26T10:02:31.434Z</time></trkpt><trkpt lat="44.201465" lon="10.487765"><ele>1610.8</ele><time>2026-04-26T10:02:32.434Z</time></trkpt><trkpt lat="44.2013617" lon="10.4878483"><ele>1610.6</ele><time>2026-04-26T10:02:33.434Z</time></trkpt><trkpt lat="44.201265" lon="10.48792"><ele>1610.4</ele><time>2026-04-26T10:02:34.434Z</time></trkpt><trkpt lat="44.2011733" lon="10.4879733"><ele>1610.2</ele><time>2026-04-26T10:02:35.434Z</time></trkpt><trkpt lat="44.2010917" lon="10.4879917"><ele>1610.0</ele><time>2026-04-26T10:02:36.434Z</time></trkpt><trkpt lat="44.20101" lon="10.4879983"><ele>1612.4999999999998</ele><time>2026-04-26T10:02:37.434Z</time></trkpt><trkpt lat="44.2009233" lon="10.4879867"><ele>1615.0</ele><time>2026-04-26T10:02:38.434Z</time></trkpt><trkpt lat="44.2008433" lon="10.48798"><ele>1617.5</ele><time>2026-04-26T10:02:39.434Z</time></trkpt><trkpt lat="44.2007633" lon="10.4879883"><ele>1620.0</ele><time>2026-04-26T10:02:40.434Z</time></trkpt><trkpt lat="44.2006733" lon="10.4880033"><ele>1622.4999999999998</ele><time>2026-04-26T10:02:41.434Z</time></trkpt><trkpt lat="44.2005717" lon="10.4880217"><ele>1625.0</ele><time>2026-04-26T10:02:42.435Z</time></trkpt><trkpt lat="44.2004667" lon="10.4880317"><ele>1627.5</ele><time>2026-04-26T10:02:43.434Z</time></trkpt><trkpt lat="44.200355" lon="10.4880133"><ele>1630.0</ele><time>2026-04-26T10:02:44.434Z</time></trkpt><trkpt lat="44.200235" lon="10.4879867"><ele>1632.5</ele><time>2026-04-26T10:02:45.434Z</time></trkpt><trkpt lat="44.20011" lon="10.4879317"><ele>1635.0</ele><time>2026-04-26T10:02:46.434Z</time></trkpt><trkpt lat="44.1999783" lon="10.487845"><ele>1632.3333333333335</ele><time>2026-04-26T10:02:47.434Z</time></trkpt><trkpt lat="44.1998467" lon="10.4877417"><ele>1629.6666666666667</ele><time>2026-04-26T10:02:48.435Z</time></trkpt><trkpt lat="44.1997117" lon="10.487625"><ele>1627.0</ele><time>2026-04-26T10:02:49.434Z</time></trkpt><trkpt lat="44.1995767" lon="10.487505"><ele>1627.0</ele><time>2026-04-26T10:02:50.434Z</time></trkpt><trkpt lat="44.199445" lon="10.487385"><ele>1627.0</ele><time>2026-04-26T10:02:51.434Z</time></trkpt><trkpt lat="44.1993217" lon="10.4872717"><ele>1627.0</ele><time>2026-04-26T10:02:52.434Z</time></trkpt><trkpt lat="44.1992033" lon="10.4871433"><ele>1625.0</ele><time>2026-04-26T10:02:53.435Z</time></trkpt><trkpt lat="44.1990817" lon="10.4870033"><ele>1623.0</ele><time>2026-04-26T10:02:54.434Z</time></trkpt><trkpt lat="44.19897" lon="10.4868567"><ele>1621.0</ele><time>2026-04-26T10:02:55.434Z</time></trkpt><trkpt lat="44.1988583" lon="10.486715"><ele>1621.0</ele><time>2026-04-26T10:02:56.434Z</time></trkpt><trkpt lat="44.1987367" lon="10.48659"><ele>1621.0</ele><time>2026-04-26T10:02:57.434Z</time></trkpt><trkpt lat="44.1986167" lon="10.4864817"><ele>1621.0</ele><time>2026-04-26T10:02:58.434Z</time></trkpt><trkpt lat="44.1984917" lon="10.4863783"><ele>1621.0</ele><time>2026-04-26T10:02:59.434Z</time></trkpt><trkpt lat="44.1983683" lon="10.486285"><ele>1619.0</ele><time>2026-04-26T10:03:00.435Z</time></trkpt><trkpt lat="44.1982483" lon="10.48622"><ele>1617.0</ele><time>2026-04-26T10:03:01.434Z</time></trkpt><trkpt lat="44.19813" lon="10.4861517"><ele>1615.0</ele><time>2026-04-26T10:03:02.434Z</time></trkpt><trkpt lat="44.1980133" lon="10.48609"><ele>1613.0</ele><time>2026-04-26T10:03:03.434Z</time></trkpt><trkpt lat="44.1978717" lon="10.48604"><ele>1613.0</ele><time>2026-04-26T10:03:04.434Z</time></trkpt><trkpt lat="44.1977333" lon="10.4859783"><ele>1613.0</ele><time>2026-04-26T10:03:05.434Z</time></trkpt><trkpt lat="44.1975967" lon="10.4859133"><ele>1613.0</ele><time>2026-04-26T10:03:06.434Z</time></trkpt><trkpt lat="44.19747" lon="10.4858383"><ele>1613.0</ele><time>2026-04-26T10:03:07.434Z</time></trkpt><trkpt lat="44.1973683" lon="10.4857383"><ele>1615.25</ele><time>2026-04-26T10:03:08.434Z</time></trkpt><trkpt lat="44.1972783" lon="10.4856183"><ele>1617.5</ele><time>2026-04-26T10:03:09.434Z</time></trkpt><trkpt lat="44.1971917" lon="10.4854933"><ele>1619.75</ele><time>2026-04-26T10:03:10.434Z</time></trkpt><trkpt lat="44.1971017" lon="10.4853717"><ele>1622.0</ele><time>2026-04-26T10:03:11.434Z</time></trkpt><trkpt lat="44.1970083" lon="10.4852483"><ele>1616.75</ele><time>2026-04-26T10:03:12.434Z</time></trkpt><trkpt lat="44.1969133" lon="10.4851133"><ele>1611.5</ele><time>2026-04-26T10:03:13.434Z</time></trkpt><trkpt lat="44.1968183" lon="10.48497"><ele>1606.25</ele><time>2026-04-26T10:03:14.434Z</time></trkpt><trkpt lat="44.1967067" lon="10.4848583"><ele>1601.0</ele><time>2026-04-26T10:03:15.434Z</time></trkpt><trkpt lat="44.19659" lon="10.484745"><ele>1602.0</ele><time>2026-04-26T10:03:16.434Z</time></trkpt><trkpt lat="44.1964717" lon="10.4846517"><ele>1603.0</ele><time>2026-04-26T10:03:17.434Z</time></trkpt><trkpt lat="44.1963517" lon="10.4845883"><ele>1604.0</ele><time>2026-04-26T10:03:18.434Z</time></trkpt><trkpt lat="44.1962183" lon="10.4845667"><ele>1605.0</ele><time>2026-04-26T10:03:19.434Z</time></trkpt><trkpt lat="44.1960833" lon="10.48457"><ele>1605.0</ele><time>2026-04-26T10:03:20.434Z</time></trkpt><trkpt lat="44.1959433" lon="10.4845933"><ele>1605.0</ele><time>2026-04-26T10:03:21.434Z</time></trkpt><trkpt lat="44.1958167" lon="10.4846117"><ele>1605.0</ele><time>2026-04-26T10:03:22.434Z</time></trkpt><trkpt lat="44.1956783" lon="10.48459"><ele>1605.0</ele><time>2026-04-26T10:03:23.434Z</time></trkpt><trkpt lat="44.1955383" lon="10.4845233"><ele>1600.0</ele><time>2026-04-26T10:03:24.435Z</time></trkpt><trkpt lat="44.1954" lon="10.4844233"><ele>1595.0</ele><time>2026-04-26T10:03:25.434Z</time></trkpt><trkpt lat="44.1952717" lon="10.4842967"><ele>1590.0</ele><time>2026-04-26T10:03:26.434Z</time></trkpt><trkpt lat="44.1951533" lon="10.4841533"><ele>1590.0</ele><time>2026-04-26T10:03:27.434Z</time></trkpt><trkpt lat="44.19505" lon="10.483995"><ele>1590.0</ele><time>2026-04-26T10:03:28.434Z</time></trkpt><trkpt lat="44.194965" lon="10.483825"><ele>1590.0</ele><time>2026-04-26T10:03:29.435Z</time></trkpt><trkpt lat="44.1948933" lon="10.483635"><ele>1593.25</ele><time>2026-04-26T10:03:30.434Z</time></trkpt><trkpt lat="44.1948667" lon="10.4834367"><ele>1596.5</ele><time>2026-04-26T10:03:31.434Z</time></trkpt><trkpt lat="44.1948583" lon="10.4832567"><ele>1599.75</ele><time>2026-04-26T10:03:32.434Z</time></trkpt><trkpt lat="44.19483" lon="10.483105"><ele>1603.0</ele><time>2026-04-26T10:03:33.434Z</time></trkpt><trkpt lat="44.194765" lon="10.4829667"><ele>1595.0</ele><time>2026-04-26T10:03:34.434Z</time></trkpt><trkpt lat="44.1946633" lon="10.48286"><ele>1587.0</ele><time>2026-04-26T10:03:35.434Z</time></trkpt><trkpt lat="44.1945417" lon="10.48276"><ele>1579.0</ele><time>2026-04-26T10:03:36.434Z</time></trkpt><trkpt lat="44.1943967" lon="10.48266"><ele>1571.0</ele><time>2026-04-26T10:03:37.434Z</time></trkpt><trkpt lat="44.1942467" lon="10.4825617"><ele>1571.0</ele><time>2026-04-26T10:03:38.434Z</time></trkpt><trkpt lat="44.194095" lon="10.4824733"><ele>1571.0</ele><time>2026-04-26T10:03:39.434Z</time></trkpt><trkpt lat="44.1939417" lon="10.482375"><ele>1571.0</ele><time>2026-04-26T10:03:40.434Z</time></trkpt><trkpt lat="44.1937967" lon="10.4822867"><ele>1570.6</ele><time>2026-04-26T10:03:41.434Z</time></trkpt><trkpt lat="44.1936717" lon="10.4822083"><ele>1570.1999999999998</ele><time>2026-04-26T10:03:42.434Z</time></trkpt><trkpt lat="44.193565" lon="10.48215"><ele>1569.8000000000002</ele><time>2026-04-26T10:03:43.434Z</time></trkpt><trkpt lat="44.1934817" lon="10.482085"><ele>1569.4</ele><time>2026-04-26T10:03:44.434Z</time></trkpt><trkpt lat="44.193415" lon="10.482"><ele>1569.0</ele><time>2026-04-26T10:03:45.434Z</time></trkpt><trkpt lat="44.1933767" lon="10.4818583"><ele>1569.0</ele><time>2026-04-26T10:03:46.434Z</time></trkpt><trkpt lat="44.1933633" lon="10.4817017"><ele>1569.0</ele><time>2026-04-26T10:03:47.434Z</time></trkpt><trkpt lat="44.1933517" lon="10.481535"><ele>1569.0</ele><time>2026-04-26T10:03:48.434Z</time></trkpt><trkpt lat="44.193335" lon="10.4813933"><ele>1569.0</ele><time>2026-04-26T10:03:49.434Z</time></trkpt><trkpt lat="44.1933133" lon="10.48126"><ele>1569.0</ele><time>2026-04-26T10:03:50.434Z</time></trkpt><trkpt lat="44.1932733" lon="10.4811533"><ele>1565.0</ele><time>2026-04-26T10:03:51.434Z</time></trkpt><trkpt lat="44.1932133" lon="10.48109"><ele>1561.0</ele><time>2026-04-26T10:03:52.434Z</time></trkpt><trkpt lat="44.1931433" lon="10.481055"><ele>1557.0</ele><time>2026-04-26T10:03:53.434Z</time></trkpt><trkpt lat="44.1930617" lon="10.4810583"><ele>1553.0</ele><time>2026-04-26T10:03:54.434Z</time></trkpt><trkpt lat="44.1929533" lon="10.481085"><ele>1549.0</ele><time>2026-04-26T10:03:55.434Z</time></trkpt><trkpt lat="44.192835" lon="10.4811083"><ele>1549.0</ele><time>2026-04-26T10:03:56.434Z</time></trkpt><trkpt lat="44.1926917" lon="10.481135"><ele>1549.0</ele><time>2026-04-26T10:03:57.434Z</time></trkpt><trkpt lat="44.1925433" lon="10.4811433"><ele>1549.0</ele><time>2026-04-26T10:03:58.434Z</time></trkpt><trkpt lat="44.1923917" lon="10.4811417"><ele>1549.0</ele><time>2026-04-26T10:03:59.434Z</time></trkpt><trkpt lat="44.19224" lon="10.48113"><ele>1545.3333333333335</ele><time>2026-04-26T10:04:00.434Z</time></trkpt><trkpt lat="44.19207" lon="10.4811033"><ele>1541.6666666666665</ele><time>2026-04-26T10:04:01.434Z</time></trkpt><trkpt lat="44.1919017" lon="10.481055"><ele>1538.0</ele><time>2026-04-26T10:04:02.434Z</time></trkpt><trkpt lat="44.19173" lon="10.481015"><ele>1538.0</ele><time>2026-04-26T10:04:03.434Z</time></trkpt><trkpt lat="44.19156" lon="10.4809717"><ele>1538.0</ele><time>2026-04-26T10:04:04.434Z</time></trkpt><trkpt lat="44.1914133" lon="10.4809383"><ele>1538.0</ele><time>2026-04-26T10:04:05.434Z</time></trkpt><trkpt lat="44.19129" lon="10.4809033"><ele>1538.0</ele><time>2026-04-26T10:04:06.434Z</time></trkpt><trkpt lat="44.19117" lon="10.480865"><ele>1535.4</ele><time>2026-04-26T10:04:07.434Z</time></trkpt><trkpt lat="44.191055" lon="10.4808283"><ele>1532.8000000000002</ele><time>2026-04-26T10:04:08.434Z</time></trkpt><trkpt lat="44.1909483" lon="10.480795"><ele>1530.2</ele><time>2026-04-26T10:04:09.434Z</time></trkpt><trkpt lat="44.1908517" lon="10.4807667"><ele>1527.6</ele><time>2026-04-26T10:04:10.434Z</time></trkpt><trkpt lat="44.1907567" lon="10.4807433"><ele>1525.0</ele><time>2026-04-26T10:04:11.434Z</time></trkpt><trkpt lat="44.190665" lon="10.4807183"><ele>1523.8333333333333</ele><time>2026-04-26T10:04:12.434Z</time></trkpt><trkpt lat="44.1905783" lon="10.480695"><ele>1522.6666666666665</ele><time>2026-04-26T10:04:13.434Z</time></trkpt><trkpt lat="44.1904967" lon="10.480675"><ele>1521.5</ele><time>2026-04-26T10:04:14.434Z</time></trkpt><trkpt lat="44.1904183" lon="10.480655"><ele>1520.3333333333333</ele><time>2026-04-26T10:04:15.434Z</time></trkpt><trkpt lat="44.190345" lon="10.4806367"><ele>1519.1666666666667</ele><time>2026-04-26T10:04:16.434Z</time></trkpt><trkpt lat="44.1902817" lon="10.4806217"><ele>1518.0</ele><time>2026-04-26T10:04:17.434Z</time></trkpt><trkpt lat="44.190175" lon="10.4806217"><ele>1518.0</ele><time>2026-04-26T10:04:19.434Z</time></trkpt><trkpt lat="44.1900817" lon="10.48063"><ele>1518.0</ele><time>2026-04-26T10:04:21.434Z</time></trkpt><trkpt lat="44.19" lon="10.48065"><ele>1518.0</ele><time>2026-04-26T10:04:23.434Z</time></trkpt><trkpt lat="44.1899167" lon="10.4806767"><ele>1518.0</ele><time>2026-04-26T10:04:25.434Z</time></trkpt><trkpt lat="44.1898383" lon="10.4807033"><ele>1518.0</ele><time>2026-04-26T10:04:27.434Z</time></trkpt><trkpt lat="44.1897717" lon="10.4807583"><ele>1518.0</ele><time>2026-04-26T10:04:30.434Z</time></trkpt><trkpt lat="44.18977" lon="10.4808817"><ele>1517.3333333333333</ele><time>2026-04-26T10:04:33.434Z</time></trkpt><trkpt lat="44.1897867" lon="10.480995"><ele>1516.6666666666667</ele><time>2026-04-26T10:04:36.434Z</time></trkpt><trkpt lat="44.1898" lon="10.4811133"><ele>1516.0</ele><time>2026-04-26T10:04:39.433Z</time></trkpt><trkpt lat="44.1898217" lon="10.4812033"><ele>1515.3333333333335</ele><time>2026-04-26T10:04:41.433Z</time></trkpt><trkpt lat="44.18986" lon="10.4813117"><ele>1514.6666666666667</ele><time>2026-04-26T10:04:43.433Z</time></trkpt><trkpt lat="44.18993" lon="10.4814567"><ele>1514.0</ele><time>2026-04-26T10:04:45.433Z</time></trkpt><trkpt lat="44.1899833" lon="10.4815467"><ele>1514.0</ele><time>2026-04-26T10:04:46.433Z</time></trkpt><trkpt lat="44.1900467" lon="10.481645"><ele>1514.0</ele><time>2026-04-26T10:04:47.433Z</time></trkpt><trkpt lat="44.1901017" lon="10.4817483"><ele>1514.0</ele><time>2026-04-26T10:04:48.433Z</time></trkpt><trkpt lat="44.1901383" lon="10.48186"><ele>1514.0</ele><time>2026-04-26T10:04:49.433Z</time></trkpt><trkpt lat="44.1901517" lon="10.4819933"><ele>1514.0</ele><time>2026-04-26T10:04:50.433Z</time></trkpt><trkpt lat="44.1901533" lon="10.4821433"><ele>1511.0</ele><time>2026-04-26T10:04:51.433Z</time></trkpt><trkpt lat="44.1901367" lon="10.482275"><ele>1508.0</ele><time>2026-04-26T10:04:52.433Z</time></trkpt><trkpt lat="44.190135" lon="10.482395"><ele>1505.0</ele><time>2026-04-26T10:04:53.434Z</time></trkpt><trkpt lat="44.1901533" lon="10.48252"><ele>1502.0</ele><time>2026-04-26T10:04:54.433Z</time></trkpt><trkpt lat="44.1901867" lon="10.48265"><ele>1499.0</ele><time>2026-04-26T10:04:55.433Z</time></trkpt><trkpt lat="44.1902283" lon="10.4827817"><ele>1499.0</ele><time>2026-04-26T10:04:56.433Z</time></trkpt><trkpt lat="44.190275" lon="10.4829083"><ele>1499.0</ele><time>2026-04-26T10:04:57.433Z</time></trkpt><trkpt lat="44.190325" lon="10.4830333"><ele>1499.0</ele><time>2026-04-26T10:04:58.433Z</time></trkpt><trkpt lat="44.19038" lon="10.48315"><ele>1499.0</ele><time>2026-04-26T10:04:59.433Z</time></trkpt><trkpt lat="44.19044" lon="10.483255"><ele>1499.0</ele><time>2026-04-26T10:05:00.433Z</time></trkpt><trkpt lat="44.1904983" lon="10.4833617"><ele>1496.3333333333335</ele><time>2026-04-26T10:05:01.433Z</time></trkpt><trkpt lat="44.19055" lon="10.483465"><ele>1493.6666666666667</ele><time>2026-04-26T10:05:02.433Z</time></trkpt><trkpt lat="44.1905983" lon="10.4835533"><ele>1491.0</ele><time>2026-04-26T10:05:03.433Z</time></trkpt><trkpt lat="44.1906383" lon="10.4836333"><ele>1488.3333333333333</ele><time>2026-04-26T10:05:04.433Z</time></trkpt><trkpt lat="44.19067" lon="10.48371"><ele>1485.6666666666665</ele><time>2026-04-26T10:05:05.433Z</time></trkpt><trkpt lat="44.1906917" lon="10.4838517"><ele>1483.0</ele><time>2026-04-26T10:05:07.434Z</time></trkpt><trkpt lat="44.1906833" lon="10.483945"><ele>1480.0</ele><time>2026-04-26T10:05:08.433Z</time></trkpt><trkpt lat="44.1906583" lon="10.4840617"><ele>1477.0</ele><time>2026-04-26T10:05:09.433Z</time></trkpt><trkpt lat="44.1906083" lon="10.484195"><ele>1474.0</ele><time>2026-04-26T10:05:10.433Z</time></trkpt><trkpt lat="44.1905483" lon="10.484325"><ele>1471.0</ele><time>2026-04-26T10:05:11.433Z</time></trkpt><trkpt lat="44.1904933" lon="10.4844467"><ele>1468.0</ele><time>2026-04-26T10:05:12.433Z</time></trkpt><trkpt lat="44.19046" lon="10.4845667"><ele>1466.3333333333333</ele><time>2026-04-26T10:05:13.433Z</time></trkpt><trkpt lat="44.1904267" lon="10.4846867"><ele>1464.6666666666665</ele><time>2026-04-26T10:05:14.433Z</time></trkpt><trkpt lat="44.190415" lon="10.48481"><ele>1463.0</ele><time>2026-04-26T10:05:15.433Z</time></trkpt><trkpt lat="44.1904183" lon="10.484925"><ele>1461.3333333333333</ele><time>2026-04-26T10:05:16.433Z</time></trkpt><trkpt lat="44.190425" lon="10.4850283"><ele>1459.6666666666667</ele><time>2026-04-26T10:05:17.433Z</time></trkpt><trkpt lat="44.1904417" lon="10.485165"><ele>1458.0</ele><time>2026-04-26T10:05:19.433Z</time></trkpt><trkpt lat="44.19046" lon="10.4852533"><ele>1458.0</ele><time>2026-04-26T10:05:21.433Z</time></trkpt><trkpt lat="44.1904767" lon="10.4853467"><ele>1458.0</ele><time>2026-04-26T10:05:23.433Z</time></trkpt><trkpt lat="44.1904917" lon="10.48546"><ele>1458.0</ele><time>2026-04-26T10:05:25.433Z</time></trkpt><trkpt lat="44.19051" lon="10.4855717"><ele>1458.0</ele><time>2026-04-26T10:05:27.433Z</time></trkpt><trkpt lat="44.19054" lon="10.48572"><ele>1458.0</ele><time>2026-04-26T10:05:29.433Z</time></trkpt><trkpt lat="44.1905533" lon="10.485815"><ele>1458.0</ele><time>2026-04-26T10:05:30.433Z</time></trkpt><trkpt lat="44.1905617" lon="10.4859217"><ele>1459.3333333333333</ele><time>2026-04-26T10:05:31.433Z</time></trkpt><trkpt lat="44.1905717" lon="10.4860233"><ele>1460.6666666666667</ele><time>2026-04-26T10:05:32.433Z</time></trkpt><trkpt lat="44.190595" lon="10.4861133"><ele>1462.0</ele><time>2026-04-26T10:05:33.433Z</time></trkpt><trkpt lat="44.190625" lon="10.4861917"><ele>1463.3333333333335</ele><time>2026-04-26T10:05:34.433Z</time></trkpt><trkpt lat="44.1907067" lon="10.4863117"><ele>1464.6666666666667</ele><time>2026-04-26T10:05:36.433Z</time></trkpt><trkpt lat="44.1907633" lon="10.486375"><ele>1466.0</ele><time>2026-04-26T10:05:37.433Z</time></trkpt><trkpt lat="44.1908267" lon="10.4864517"><ele>1466.0</ele><time>2026-04-26T10:05:38.433Z</time></trkpt><trkpt lat="44.1909" lon="10.4865383"><ele>1466.0</ele><time>2026-04-26T10:05:39.433Z</time></trkpt><trkpt lat="44.19097" lon="10.48663"><ele>1466.0</ele><time>2026-04-26T10:05:40.433Z</time></trkpt><trkpt lat="44.1910467" lon="10.4867117"><ele>1466.0</ele><time>2026-04-26T10:05:41.434Z</time></trkpt><trkpt lat="44.1911333" lon="10.4867917"><ele>1466.0</ele><time>2026-04-26T10:05:42.433Z</time></trkpt><trkpt lat="44.191215" lon="10.4868567"><ele>1466.0</ele><time>2026-04-26T10:05:43.433Z</time></trkpt><trkpt lat="44.1913067" lon="10.48691"><ele>1466.0</ele><time>2026-04-26T10:05:44.433Z</time></trkpt><trkpt lat="44.1913933" lon="10.48697"><ele>1466.0</ele><time>2026-04-26T10:05:45.433Z</time></trkpt><trkpt lat="44.1914867" lon="10.48705"><ele>1466.0</ele><time>2026-04-26T10:05:46.433Z</time></trkpt><trkpt lat="44.1915817" lon="10.4871567"><ele>1466.0</ele><time>2026-04-26T10:05:47.433Z</time></trkpt><trkpt lat="44.1916683" lon="10.4872633"><ele>1468.1666666666667</ele><time>2026-04-26T10:05:48.434Z</time></trkpt><trkpt lat="44.1917383" lon="10.487365"><ele>1470.3333333333335</ele><time>2026-04-26T10:05:49.433Z</time></trkpt><trkpt lat="44.191795" lon="10.4874733"><ele>1472.5</ele><time>2026-04-26T10:05:50.433Z</time></trkpt><trkpt lat="44.1918417" lon="10.4875867"><ele>1474.6666666666667</ele><time>2026-04-26T10:05:51.433Z</time></trkpt><trkpt lat="44.1918883" lon="10.48769"><ele>1476.8333333333333</ele><time>2026-04-26T10:05:52.433Z</time></trkpt><trkpt lat="44.19193" lon="10.48777"><ele>1479.0</ele><time>2026-04-26T10:05:53.433Z</time></trkpt><trkpt lat="44.1920283" lon="10.4878567"><ele>1477.6</ele><time>2026-04-26T10:05:55.433Z</time></trkpt><trkpt lat="44.19214" lon="10.4879383"><ele>1476.2</ele><time>2026-04-26T10:05:57.433Z</time></trkpt><trkpt lat="44.192185" lon="10.4880117"><ele>1474.8</ele><time>2026-04-26T10:05:58.433Z</time></trkpt><trkpt lat="44.1922133" lon="10.4881067"><ele>1473.3999999999999</ele><time>2026-04-26T10:05:59.433Z</time></trkpt><trkpt lat="44.1922217" lon="10.4882267"><ele>1472.0</ele><time>2026-04-26T10:06:00.433Z</time></trkpt><trkpt lat="44.19221" lon="10.4883633"><ele>1472.0</ele><time>2026-04-26T10:06:01.433Z</time></trkpt><trkpt lat="44.1922" lon="10.4885017"><ele>1472.0</ele><time>2026-04-26T10:06:02.433Z</time></trkpt><trkpt lat="44.1921717" lon="10.4886567"><ele>1472.0</ele><time>2026-04-26T10:06:03.433Z</time></trkpt><trkpt lat="44.19213" lon="10.4887817"><ele>1472.0</ele><time>2026-04-26T10:06:04.433Z</time></trkpt><trkpt lat="44.1920767" lon="10.4888933"><ele>1472.0</ele><time>2026-04-26T10:06:05.433Z</time></trkpt><trkpt lat="44.1920117" lon="10.4890083"><ele>1472.5</ele><time>2026-04-26T10:06:06.433Z</time></trkpt><trkpt lat="44.1919367" lon="10.4891233"><ele>1473.0</ele><time>2026-04-26T10:06:07.433Z</time></trkpt><trkpt lat="44.1918633" lon="10.4892117"><ele>1473.5</ele><time>2026-04-26T10:06:08.433Z</time></trkpt><trkpt lat="44.191805" lon="10.489295"><ele>1474.0</ele><time>2026-04-26T10:06:09.433Z</time></trkpt><trkpt lat="44.1917617" lon="10.4893667"><ele>1474.5</ele><time>2026-04-26T10:06:10.433Z</time></trkpt><trkpt lat="44.1917167" lon="10.4894383"><ele>1475.0</ele><time>2026-04-26T10:06:11.433Z</time></trkpt><trkpt lat="44.1916733" lon="10.4895117"><ele>1478.2</ele><time>2026-04-26T10:06:12.433Z</time></trkpt><trkpt lat="44.191595" lon="10.4896267"><ele>1481.4</ele><time>2026-04-26T10:06:14.433Z</time></trkpt><trkpt lat="44.1915083" lon="10.4897267"><ele>1484.6</ele><time>2026-04-26T10:06:16.433Z</time></trkpt><trkpt lat="44.19142" lon="10.4898033"><ele>1487.8</ele><time>2026-04-26T10:06:18.433Z</time></trkpt><trkpt lat="44.19134" lon="10.48991"><ele>1491.0</ele><time>2026-04-26T10:06:20.433Z</time></trkpt><trkpt lat="44.19129" lon="10.4900333"><ele>1489.0</ele><time>2026-04-26T10:06:22.433Z</time></trkpt><trkpt lat="44.191265" lon="10.49019"><ele>1487.0</ele><time>2026-04-26T10:06:24.433Z</time></trkpt><trkpt lat="44.19122" lon="10.4903167"><ele>1485.0</ele><time>2026-04-26T10:06:26.433Z</time></trkpt><trkpt lat="44.1911033" lon="10.49042"><ele>1483.0</ele><time>2026-04-26T10:06:28.433Z</time></trkpt><trkpt lat="44.1910183" lon="10.4904983"><ele>1483.0</ele><time>2026-04-26T10:06:29.433Z</time></trkpt><trkpt lat="44.1909217" lon="10.4905967"><ele>1483.0</ele><time>2026-04-26T10:06:30.433Z</time></trkpt><trkpt lat="44.1908117" lon="10.490705"><ele>1483.0</ele><time>2026-04-26T10:06:31.433Z</time></trkpt><trkpt lat="44.1907033" lon="10.490795"><ele>1483.0</ele><time>2026-04-26T10:06:32.433Z</time></trkpt><trkpt lat="44.1906" lon="10.4908783"><ele>1478.2</ele><time>2026-04-26T10:06:33.433Z</time></trkpt><trkpt lat="44.1905167" lon="10.4909567"><ele>1473.4</ele><time>2026-04-26T10:06:34.433Z</time></trkpt><trkpt lat="44.1904433" lon="10.4910433"><ele>1468.6000000000001</ele><time>2026-04-26T10:06:35.433Z</time></trkpt><trkpt lat="44.190375" lon="10.4911383"><ele>1463.8000000000002</ele><time>2026-04-26T10:06:36.433Z</time></trkpt><trkpt lat="44.1903133" lon="10.491235"><ele>1459.0</ele><time>2026-04-26T10:06:37.433Z</time></trkpt><trkpt lat="44.190265" lon="10.4913167"><ele>1459.0</ele><time>2026-04-26T10:06:38.433Z</time></trkpt><trkpt lat="44.19023" lon="10.4914233"><ele>1459.0</ele><time>2026-04-26T10:06:39.433Z</time></trkpt><trkpt lat="44.1901917" lon="10.4915417"><ele>1459.0</ele><time>2026-04-26T10:06:40.433Z</time></trkpt><trkpt lat="44.1901533" lon="10.4916633"><ele>1459.0</ele><time>2026-04-26T10:06:41.433Z</time></trkpt><trkpt lat="44.1900967" lon="10.4917817"><ele>1459.0</ele><time>2026-04-26T10:06:42.433Z</time></trkpt><trkpt lat="44.19002" lon="10.4919017"><ele>1459.0</ele><time>2026-04-26T10:06:43.433Z</time></trkpt><trkpt lat="44.1899617" lon="10.4920117"><ele>1459.0</ele><time>2026-04-26T10:06:44.433Z</time></trkpt><trkpt lat="44.1899317" lon="10.492125"><ele>1459.0</ele><time>2026-04-26T10:06:45.433Z</time></trkpt><trkpt lat="44.189935" lon="10.4922417"><ele>1459.0</ele><time>2026-04-26T10:06:46.433Z</time></trkpt><trkpt lat="44.1899583" lon="10.4923733"><ele>1459.0</ele><time>2026-04-26T10:06:47.433Z</time></trkpt><trkpt lat="44.1899933" lon="10.49251"><ele>1460.4</ele><time>2026-04-26T10:06:48.433Z</time></trkpt><trkpt lat="44.190045" lon="10.49266"><ele>1461.8000000000002</ele><time>2026-04-26T10:06:49.433Z</time></trkpt><trkpt lat="44.1900883" lon="10.4928017"><ele>1463.1999999999998</ele><time>2026-04-26T10:06:50.433Z</time></trkpt><trkpt lat="44.19012" lon="10.4929217"><ele>1464.6</ele><time>2026-04-26T10:06:51.433Z</time></trkpt><trkpt lat="44.1901483" lon="10.4930167"><ele>1466.0</ele><time>2026-04-26T10:06:52.433Z</time></trkpt><trkpt lat="44.19015" lon="10.493105"><ele>1466.0</ele><time>2026-04-26T10:06:53.433Z</time></trkpt><trkpt lat="44.1900933" lon="10.4932367"><ele>1466.0</ele><time>2026-04-26T10:06:55.433Z</time></trkpt><trkpt lat="44.1899833" lon="10.4932867"><ele>1466.0</ele><time>2026-04-26T10:06:57.433Z</time></trkpt><trkpt lat="44.18986" lon="10.493335"><ele>1466.0</ele><time>2026-04-26T10:06:59.434Z</time></trkpt><trkpt lat="44.1898033" lon="10.49338"><ele>1466.0</ele><time>2026-04-26T10:07:00.433Z</time></trkpt><trkpt lat="44.189745" lon="10.4934417"><ele>1463.6666666666667</ele><time>2026-04-26T10:07:01.433Z</time></trkpt><trkpt lat="44.1896833" lon="10.4935183"><ele>1461.3333333333335</ele><time>2026-04-26T10:07:02.433Z</time></trkpt><trkpt lat="44.1896133" lon="10.493605"><ele>1459.0</ele><time>2026-04-26T10:07:03.433Z</time></trkpt><trkpt lat="44.1895483" lon="10.49368"><ele>1456.6666666666667</ele><time>2026-04-26T10:07:04.433Z</time></trkpt><trkpt lat="44.1894783" lon="10.4937383"><ele>1454.3333333333333</ele><time>2026-04-26T10:07:05.433Z</time></trkpt><trkpt lat="44.1894067" lon="10.4937733"><ele>1452.0</ele><time>2026-04-26T10:07:06.433Z</time></trkpt><trkpt lat="44.189335" lon="10.493795"><ele>1452.0</ele><time>2026-04-26T10:07:07.433Z</time></trkpt><trkpt lat="44.1892267" lon="10.4938383"><ele>1452.0</ele><time>2026-04-26T10:07:09.433Z</time></trkpt><trkpt lat="44.1891483" lon="10.49394"><ele>1452.0</ele><time>2026-04-26T10:07:11.433Z</time></trkpt><trkpt lat="44.189115" lon="10.4940283"><ele>1452.0</ele><time>2026-04-26T10:07:12.433Z</time></trkpt><trkpt lat="44.1890883" lon="10.494135"><ele>1452.0</ele><time>2026-04-26T10:07:13.433Z</time></trkpt><trkpt lat="44.18906" lon="10.4942533"><ele>1452.0</ele><time>2026-04-26T10:07:14.433Z</time></trkpt><trkpt lat="44.1890417" lon="10.4943783"><ele>1452.0</ele><time>2026-04-26T10:07:15.433Z</time></trkpt><trkpt lat="44.1890283" lon="10.4944933"><ele>1452.0</ele><time>2026-04-26T10:07:16.433Z</time></trkpt><trkpt lat="44.1890033" lon="10.4946083"><ele>1452.0</ele><time>2026-04-26T10:07:17.433Z</time></trkpt><trkpt lat="44.1889633" lon="10.49473"><ele>1452.0</ele><time>2026-04-26T10:07:18.434Z</time></trkpt><trkpt lat="44.1889033" lon="10.49485"><ele>1449.6</ele><time>2026-04-26T10:07:19.433Z</time></trkpt><trkpt lat="44.1888383" lon="10.4949667"><ele>1447.1999999999998</ele><time>2026-04-26T10:07:20.433Z</time></trkpt><trkpt lat="44.1887783" lon="10.4950633"><ele>1444.8</ele><time>2026-04-26T10:07:21.433Z</time></trkpt><trkpt lat="44.1886983" lon="10.4951717"><ele>1442.4</ele><time>2026-04-26T10:07:23.433Z</time></trkpt><trkpt lat="44.1886267" lon="10.4952183"><ele>1440.0</ele><time>2026-04-26T10:07:25.433Z</time></trkpt><trkpt lat="44.1885167" lon="10.4952433"><ele>1440.0</ele><time>2026-04-26T10:07:27.433Z</time></trkpt><trkpt lat="44.18839" lon="10.495245"><ele>1440.0</ele><time>2026-04-26T10:07:29.433Z</time></trkpt><trkpt lat="44.1883" lon="10.49526"><ele>1440.0</ele><time>2026-04-26T10:07:30.433Z</time></trkpt><trkpt lat="44.1882" lon="10.4952917"><ele>1440.0</ele><time>2026-04-26T10:07:31.433Z</time></trkpt><trkpt lat="44.1880967" lon="10.495345"><ele>1440.0</ele><time>2026-04-26T10:07:32.433Z</time></trkpt><trkpt lat="44.187995" lon="10.4954033"><ele>1444.0</ele><time>2026-04-26T10:07:33.433Z</time></trkpt><trkpt lat="44.1878983" lon="10.4954633"><ele>1448.0</ele><time>2026-04-26T10:07:34.433Z</time></trkpt><trkpt lat="44.1878033" lon="10.4955133"><ele>1452.0</ele><time>2026-04-26T10:07:35.433Z</time></trkpt><trkpt lat="44.1877017" lon="10.4955333"><ele>1456.0</ele><time>2026-04-26T10:07:36.433Z</time></trkpt><trkpt lat="44.1875917" lon="10.4955317"><ele>1460.0</ele><time>2026-04-26T10:07:37.433Z</time></trkpt><trkpt lat="44.1874883" lon="10.4955317"><ele>1460.0</ele><time>2026-04-26T10:07:38.433Z</time></trkpt><trkpt lat="44.1873867" lon="10.495525"><ele>1460.0</ele><time>2026-04-26T10:07:39.433Z</time></trkpt><trkpt lat="44.187295" lon="10.4955417"><ele>1460.0</ele><time>2026-04-26T10:07:40.433Z</time></trkpt><trkpt lat="44.18721" lon="10.495585"><ele>1460.0</ele><time>2026-04-26T10:07:41.434Z</time></trkpt><trkpt lat="44.1871367" lon="10.495635"><ele>1460.0</ele><time>2026-04-26T10:07:42.433Z</time></trkpt><trkpt lat="44.1870767" lon="10.4956783"><ele>1460.0</ele><time>2026-04-26T10:07:43.433Z</time></trkpt><trkpt lat="44.1870083" lon="10.4957"><ele>1461.2</ele><time>2026-04-26T10:07:44.433Z</time></trkpt><trkpt lat="44.1869417" lon="10.495705"><ele>1462.4</ele><time>2026-04-26T10:07:45.433Z</time></trkpt><trkpt lat="44.186845" lon="10.4955733"><ele>1463.6</ele><time>2026-04-26T10:07:47.433Z</time></trkpt><trkpt lat="44.1867683" lon="10.495475"><ele>1464.8</ele><time>2026-04-26T10:07:48.433Z</time></trkpt><trkpt lat="44.18667" lon="10.4953533"><ele>1466.0</ele><time>2026-04-26T10:07:49.433Z</time></trkpt><trkpt lat="44.18655" lon="10.4951867"><ele>1465.0</ele><time>2026-04-26T10:07:50.433Z</time></trkpt><trkpt lat="44.1864333" lon="10.495035"><ele>1464.0</ele><time>2026-04-26T10:07:51.433Z</time></trkpt><trkpt lat="44.1863117" lon="10.4949183"><ele>1463.0</ele><time>2026-04-26T10:07:52.433Z</time></trkpt><trkpt lat="44.1861867" lon="10.4948083"><ele>1463.0</ele><time>2026-04-26T10:07:53.433Z</time></trkpt><trkpt lat="44.1860583" lon="10.49471"><ele>1463.0</ele><time>2026-04-26T10:07:54.434Z</time></trkpt><trkpt lat="44.1859283" lon="10.4946233"><ele>1463.0</ele><time>2026-04-26T10:07:55.433Z</time></trkpt><trkpt lat="44.18579" lon="10.4945467"><ele>1463.0</ele><time>2026-04-26T10:07:56.433Z</time></trkpt><trkpt lat="44.185645" lon="10.4944633"><ele>1459.3333333333335</ele><time>2026-04-26T10:07:57.433Z</time></trkpt><trkpt lat="44.1854967" lon="10.4943633"><ele>1455.6666666666667</ele><time>2026-04-26T10:07:58.433Z</time></trkpt><trkpt lat="44.1853533" lon="10.494255"><ele>1452.0</ele><time>2026-04-26T10:07:59.433Z</time></trkpt><trkpt lat="44.1852217" lon="10.494135"><ele>1452.0</ele><time>2026-04-26T10:08:00.433Z</time></trkpt><trkpt lat="44.185095" lon="10.4940117"><ele>1452.0</ele><time>2026-04-26T10:08:01.433Z</time></trkpt><trkpt lat="44.1849733" lon="10.49387"><ele>1452.0</ele><time>2026-04-26T10:08:02.433Z</time></trkpt><trkpt lat="44.1848583" lon="10.4937533"><ele>1447.0</ele><time>2026-04-26T10:08:03.433Z</time></trkpt><trkpt lat="44.18476" lon="10.4936617"><ele>1442.0</ele><time>2026-04-26T10:08:04.433Z</time></trkpt><trkpt lat="44.1846617" lon="10.4935883"><ele>1437.0</ele><time>2026-04-26T10:08:05.433Z</time></trkpt><trkpt lat="44.1845633" lon="10.493525"><ele>1432.0</ele><time>2026-04-26T10:08:06.433Z</time></trkpt><trkpt lat="44.1844633" lon="10.4934833"><ele>1427.0</ele><time>2026-04-26T10:08:07.433Z</time></trkpt><trkpt lat="44.1843717" lon="10.4934567"><ele>1427.0</ele><time>2026-04-26T10:08:08.432Z</time></trkpt><trkpt lat="44.1842667" lon="10.4934583"><ele>1427.0</ele><time>2026-04-26T10:08:09.432Z</time></trkpt><trkpt lat="44.1841533" lon="10.4934767"><ele>1427.0</ele><time>2026-04-26T10:08:10.432Z</time></trkpt><trkpt lat="44.1840267" lon="10.4935083"><ele>1427.0</ele><time>2026-04-26T10:08:11.432Z</time></trkpt><trkpt lat="44.1839" lon="10.4935317"><ele>1423.3999999999999</ele><time>2026-04-26T10:08:12.432Z</time></trkpt><trkpt lat="44.1837817" lon="10.4935517"><ele>1419.8</ele><time>2026-04-26T10:08:13.432Z</time></trkpt><trkpt lat="44.1836883" lon="10.4935717"><ele>1416.2</ele><time>2026-04-26T10:08:14.432Z</time></trkpt><trkpt lat="44.1836" lon="10.4935967"><ele>1412.6</ele><time>2026-04-26T10:08:15.432Z</time></trkpt><trkpt lat="44.183525" lon="10.4936367"><ele>1409.0</ele><time>2026-04-26T10:08:16.433Z</time></trkpt><trkpt lat="44.1834583" lon="10.4936967"><ele>1411.3333333333335</ele><time>2026-04-26T10:08:17.432Z</time></trkpt><trkpt lat="44.1834033" lon="10.4937833"><ele>1413.6666666666667</ele><time>2026-04-26T10:08:18.432Z</time></trkpt><trkpt lat="44.1833533" lon="10.493885"><ele>1416.0</ele><time>2026-04-26T10:08:19.432Z</time></trkpt><trkpt lat="44.1833083" lon="10.4939767"><ele>1418.3333333333333</ele><time>2026-04-26T10:08:20.432Z</time></trkpt><trkpt lat="44.1832783" lon="10.494085"><ele>1420.6666666666665</ele><time>2026-04-26T10:08:21.432Z</time></trkpt><trkpt lat="44.183265" lon="10.4941983"><ele>1423.0</ele><time>2026-04-26T10:08:22.432Z</time></trkpt><trkpt lat="44.1832633" lon="10.4943267"><ele>1423.0</ele><time>2026-04-26T10:08:23.432Z</time></trkpt><trkpt lat="44.1832683" lon="10.4944833"><ele>1423.0</ele><time>2026-04-26T10:08:24.432Z</time></trkpt><trkpt lat="44.183255" lon="10.4946217"><ele>1423.0</ele><time>2026-04-26T10:08:25.432Z</time></trkpt><trkpt lat="44.1832383" lon="10.494755"><ele>1423.0</ele><time>2026-04-26T10:08:26.432Z</time></trkpt><trkpt lat="44.1832117" lon="10.4948967"><ele>1423.0</ele><time>2026-04-26T10:08:27.432Z</time></trkpt><trkpt lat="44.183205" lon="10.4950017"><ele>1423.2</ele><time>2026-04-26T10:08:28.432Z</time></trkpt><trkpt lat="44.18322" lon="10.4950917"><ele>1423.4</ele><time>2026-04-26T10:08:29.432Z</time></trkpt><trkpt lat="44.183245" lon="10.4951733"><ele>1423.6000000000001</ele><time>2026-04-26T10:08:30.432Z</time></trkpt><trkpt lat="44.183335" lon="10.495305"><ele>1423.8000000000002</ele><time>2026-04-26T10:08:32.432Z</time></trkpt><trkpt lat="44.1834" lon="10.49539"><ele>1424.0</ele><time>2026-04-26T10:08:33.432Z</time></trkpt><trkpt lat="44.183475" lon="10.4954883"><ele>1420.8000000000002</ele><time>2026-04-26T10:08:34.432Z</time></trkpt><trkpt lat="44.1835483" lon="10.4955967"><ele>1417.6000000000001</ele><time>2026-04-26T10:08:35.432Z</time></trkpt><trkpt lat="44.1836083" lon="10.4957133"><ele>1414.4</ele><time>2026-04-26T10:08:36.432Z</time></trkpt><trkpt lat="44.18365" lon="10.4958367"><ele>1411.2</ele><time>2026-04-26T10:08:37.432Z</time></trkpt><trkpt lat="44.18368" lon="10.49596"><ele>1408.0</ele><time>2026-04-26T10:08:38.432Z</time></trkpt><trkpt lat="44.18369" lon="10.4960867"><ele>1408.0</ele><time>2026-04-26T10:08:39.432Z</time></trkpt><trkpt lat="44.18369" lon="10.496205"><ele>1408.0</ele><time>2026-04-26T10:08:40.433Z</time></trkpt><trkpt lat="44.1836883" lon="10.4963217"><ele>1408.0</ele><time>2026-04-26T10:08:41.432Z</time></trkpt><trkpt lat="44.1836867" lon="10.4964283"><ele>1408.0</ele><time>2026-04-26T10:08:42.432Z</time></trkpt><trkpt lat="44.1836833" lon="10.4965217"><ele>1408.0</ele><time>2026-04-26T10:08:43.432Z</time></trkpt><trkpt lat="44.1836833" lon="10.4966533"><ele>1408.0</ele><time>2026-04-26T10:08:45.433Z</time></trkpt><trkpt lat="44.1836883" lon="10.4967583"><ele>1405.6000000000001</ele><time>2026-04-26T10:08:47.432Z</time></trkpt><trkpt lat="44.183705" lon="10.4968533"><ele>1403.2</ele><time>2026-04-26T10:08:49.432Z</time></trkpt><trkpt lat="44.1837433" lon="10.496945"><ele>1400.8</ele><time>2026-04-26T10:08:51.432Z</time></trkpt><trkpt lat="44.1838167" lon="10.4970533"><ele>1398.4</ele><time>2026-04-26T10:08:53.432Z</time></trkpt><trkpt lat="44.1839133" lon="10.4971783"><ele>1396.0</ele><time>2026-04-26T10:08:55.432Z</time></trkpt><trkpt lat="44.1839633" lon="10.497255"><ele>1393.6</ele><time>2026-04-26T10:08:56.432Z</time></trkpt><trkpt lat="44.1840133" lon="10.4973433"><ele>1391.1999999999998</ele><time>2026-04-26T10:08:57.432Z</time></trkpt><trkpt lat="44.1840533" lon="10.497445"><ele>1388.8000000000002</ele><time>2026-04-26T10:08:58.432Z</time></trkpt><trkpt lat="44.18408" lon="10.497565"><ele>1386.4</ele><time>2026-04-26T10:08:59.432Z</time></trkpt><trkpt lat="44.1840817" lon="10.4977167"><ele>1384.0</ele><time>2026-04-26T10:09:00.432Z</time></trkpt><trkpt lat="44.1840867" lon="10.4978717"><ele>1387.4</ele><time>2026-04-26T10:09:01.432Z</time></trkpt><trkpt lat="44.1840967" lon="10.4980233"><ele>1390.8000000000002</ele><time>2026-04-26T10:09:02.432Z</time></trkpt><trkpt lat="44.1841217" lon="10.49816"><ele>1394.1999999999998</ele><time>2026-04-26T10:09:03.433Z</time></trkpt><trkpt lat="44.18415" lon="10.498285"><ele>1397.6</ele><time>2026-04-26T10:09:04.432Z</time></trkpt><trkpt lat="44.1841867" lon="10.4983983"><ele>1401.0</ele><time>2026-04-26T10:09:05.432Z</time></trkpt><trkpt lat="44.18422" lon="10.4984867"><ele>1401.0</ele><time>2026-04-26T10:09:06.432Z</time></trkpt><trkpt lat="44.18428" lon="10.4986033"><ele>1401.0</ele><time>2026-04-26T10:09:08.432Z</time></trkpt><trkpt lat="44.18434" lon="10.4986783"><ele>1401.0</ele><time>2026-04-26T10:09:10.432Z</time></trkpt><trkpt lat="44.1843883" lon="10.49879"><ele>1401.0</ele><time>2026-04-26T10:09:12.432Z</time></trkpt><trkpt lat="44.1844417" lon="10.4989333"><ele>1401.0</ele><time>2026-04-26T10:09:14.432Z</time></trkpt><trkpt lat="44.1845017" lon="10.499065"><ele>1399.1999999999998</ele><time>2026-04-26T10:09:16.432Z</time></trkpt><trkpt lat="44.1845683" lon="10.499185"><ele>1397.3999999999999</ele><time>2026-04-26T10:09:18.432Z</time></trkpt><trkpt lat="44.18462" lon="10.4992967"><ele>1395.6</ele><time>2026-04-26T10:09:20.432Z</time></trkpt><trkpt lat="44.1846333" lon="10.49944"><ele>1393.8</ele><time>2026-04-26T10:09:22.432Z</time></trkpt><trkpt lat="44.1846083" lon="10.4995967"><ele>1392.0</ele><time>2026-04-26T10:09:24.432Z</time></trkpt><trkpt lat="44.1845933" lon="10.4996833"><ele>1391.8</ele><time>2026-04-26T10:09:25.432Z</time></trkpt><trkpt lat="44.1845617" lon="10.49985"><ele>1391.6</ele><time>2026-04-26T10:09:27.432Z</time></trkpt><trkpt lat="44.1845367" lon="10.4999367"><ele>1391.3999999999999</ele><time>2026-04-26T10:09:28.432Z</time></trkpt><trkpt lat="44.1844867" lon="10.50009"><ele>1391.1999999999998</ele><time>2026-04-26T10:09:30.432Z</time></trkpt><trkpt lat="44.1844233" lon="10.5002033"><ele>1391.0</ele><time>2026-04-26T10:09:32.432Z</time></trkpt><trkpt lat="44.1843567" lon="10.5000983"><ele>1391.0</ele><time>2026-04-26T10:10:59.432Z</time></trkpt><trkpt lat="44.1842967" lon="10.5000517"><ele>1391.0</ele><time>2026-04-26T10:11:01.432Z</time></trkpt><trkpt lat="44.1842933" lon="10.5001667"><ele>1391.0</ele><time>2026-04-26T10:11:04.432Z</time></trkpt><trkpt lat="44.1843717" lon="10.5001883"><ele>1391.0</ele><time>2026-04-26T10:11:19.432Z</time></trkpt><trkpt lat="44.184385" lon="10.5003033"><ele>1391.0</ele><time>2026-04-26T10:13:03.431Z</time></trkpt><trkpt lat="44.1843433" lon="10.50038"><ele>1391.0</ele><time>2026-04-26T10:13:04.431Z</time></trkpt><trkpt lat="44.1842983" lon="10.5004567"><ele>1392.8</ele><time>2026-04-26T10:13:05.431Z</time></trkpt><trkpt lat="44.1842383" lon="10.500595"><ele>1394.6</ele><time>2026-04-26T10:13:07.432Z</time></trkpt><trkpt lat="44.1842017" lon="10.5007017"><ele>1396.4</ele><time>2026-04-26T10:13:09.431Z</time></trkpt><trkpt lat="44.18417" lon="10.500825"><ele>1398.2</ele><time>2026-04-26T10:13:11.431Z</time></trkpt><trkpt lat="44.1841683" lon="10.501005"><ele>1400.0</ele><time>2026-04-26T10:13:13.431Z</time></trkpt><trkpt lat="44.18416" lon="10.5011167"><ele>1400.0</ele><time>2026-04-26T10:13:14.431Z</time></trkpt><trkpt lat="44.1841517" lon="10.5012317"><ele>1400.0</ele><time>2026-04-26T10:13:15.431Z</time></trkpt><trkpt lat="44.1841367" lon="10.501345"><ele>1400.0</ele><time>2026-04-26T10:13:16.432Z</time></trkpt><trkpt lat="44.1841367" lon="10.5014433"><ele>1400.0</ele><time>2026-04-26T10:13:17.431Z</time></trkpt><trkpt lat="44.1841517" lon="10.501535"><ele>1400.0</ele><time>2026-04-26T10:13:18.431Z</time></trkpt><trkpt lat="44.1842233" lon="10.50169"><ele>1400.0</ele><time>2026-04-26T10:13:20.431Z</time></trkpt><trkpt lat="44.1842683" lon="10.501765"><ele>1399.6666666666667</ele><time>2026-04-26T10:13:21.431Z</time></trkpt><trkpt lat="44.1843033" lon="10.5018433"><ele>1399.3333333333335</ele><time>2026-04-26T10:13:22.431Z</time></trkpt><trkpt lat="44.1843133" lon="10.50193"><ele>1399.0</ele><time>2026-04-26T10:13:23.431Z</time></trkpt><trkpt lat="44.184305" lon="10.5020283"><ele>1398.6666666666667</ele><time>2026-04-26T10:13:24.431Z</time></trkpt><trkpt lat="44.1843" lon="10.5021433"><ele>1398.3333333333333</ele><time>2026-04-26T10:13:25.431Z</time></trkpt><trkpt lat="44.1842983" lon="10.5022833"><ele>1398.0</ele><time>2026-04-26T10:13:26.431Z</time></trkpt><trkpt lat="44.1842967" lon="10.502465"><ele>1397.6000000000001</ele><time>2026-04-26T10:13:27.431Z</time></trkpt><trkpt lat="44.1842867" lon="10.5026217"><ele>1397.2</ele><time>2026-04-26T10:13:28.431Z</time></trkpt><trkpt lat="44.1842783" lon="10.5027583"><ele>1396.8</ele><time>2026-04-26T10:13:29.431Z</time></trkpt><trkpt lat="44.184285" lon="10.5028733"><ele>1396.4</ele><time>2026-04-26T10:13:30.431Z</time></trkpt><trkpt lat="44.18429" lon="10.5029933"><ele>1396.0</ele><time>2026-04-26T10:13:31.431Z</time></trkpt><trkpt lat="44.1842817" lon="10.50311"><ele>1397.0</ele><time>2026-04-26T10:13:32.431Z</time></trkpt><trkpt lat="44.184275" lon="10.5032117"><ele>1398.0</ele><time>2026-04-26T10:13:33.431Z</time></trkpt><trkpt lat="44.1842967" lon="10.5033717"><ele>1399.0</ele><time>2026-04-26T10:13:35.431Z</time></trkpt><trkpt lat="44.1843317" lon="10.5035217"><ele>1400.0</ele><time>2026-04-26T10:13:37.431Z</time></trkpt><trkpt lat="44.1843017" lon="10.5036817"><ele>1401.0</ele><time>2026-04-26T10:13:39.431Z</time></trkpt><trkpt lat="44.1842617" lon="10.503815"><ele>1401.8333333333333</ele><time>2026-04-26T10:13:41.431Z</time></trkpt><trkpt lat="44.1842917" lon="10.5039533"><ele>1402.6666666666667</ele><time>2026-04-26T10:13:43.431Z</time></trkpt><trkpt lat="44.1843367" lon="10.5040267"><ele>1403.5</ele><time>2026-04-26T10:13:44.431Z</time></trkpt><trkpt lat="44.184385" lon="10.5041033"><ele>1404.3333333333335</ele><time>2026-04-26T10:13:45.431Z</time></trkpt><trkpt lat="44.1844417" lon="10.5041767"><ele>1405.1666666666667</ele><time>2026-04-26T10:13:46.431Z</time></trkpt><trkpt lat="44.1844933" lon="10.5042433"><ele>1406.0</ele><time>2026-04-26T10:13:47.431Z</time></trkpt><trkpt lat="44.1845367" lon="10.5043083"><ele>1406.0</ele><time>2026-04-26T10:13:48.431Z</time></trkpt><trkpt lat="44.1845817" lon="10.504425"><ele>1406.0</ele><time>2026-04-26T10:13:50.431Z</time></trkpt><trkpt lat="44.1845733" lon="10.5045633"><ele>1406.0</ele><time>2026-04-26T10:13:52.431Z</time></trkpt><trkpt lat="44.184515" lon="10.50473"><ele>1406.0</ele><time>2026-04-26T10:13:54.431Z</time></trkpt><trkpt lat="44.1844717" lon="10.5048217"><ele>1406.0</ele><time>2026-04-26T10:13:55.431Z</time></trkpt><trkpt lat="44.184425" lon="10.50491"><ele>1407.8333333333335</ele><time>2026-04-26T10:13:56.431Z</time></trkpt><trkpt lat="44.1843717" lon="10.5049767"><ele>1409.6666666666667</ele><time>2026-04-26T10:13:57.431Z</time></trkpt><trkpt lat="44.1843217" lon="10.5050383"><ele>1411.5</ele><time>2026-04-26T10:13:58.431Z</time></trkpt><trkpt lat="44.1842167" lon="10.5050933"><ele>1413.3333333333333</ele><time>2026-04-26T10:14:00.431Z</time></trkpt><trkpt lat="44.1841283" lon="10.5051583"><ele>1415.1666666666665</ele><time>2026-04-26T10:14:02.431Z</time></trkpt><trkpt lat="44.1840917" lon="10.5052783"><ele>1417.0</ele><time>2026-04-26T10:14:04.431Z</time></trkpt><trkpt lat="44.1841367" lon="10.5054483"><ele>1417.8333333333333</ele><time>2026-04-26T10:14:06.431Z</time></trkpt><trkpt lat="44.1841667" lon="10.5055483"><ele>1418.6666666666665</ele><time>2026-04-26T10:14:07.431Z</time></trkpt><trkpt lat="44.1841917" lon="10.50564"><ele>1419.5</ele><time>2026-04-26T10:14:08.431Z</time></trkpt><trkpt lat="44.184205" lon="10.5057683"><ele>1420.3333333333333</ele><time>2026-04-26T10:14:10.431Z</time></trkpt><trkpt lat="44.1841417" lon="10.505855"><ele>1421.1666666666667</ele><time>2026-04-26T10:14:13.431Z</time></trkpt><trkpt lat="44.1842067" lon="10.5057583"><ele>1422.0</ele><time>2026-04-26T10:14:18.431Z</time></trkpt><trkpt lat="44.1836633" lon="10.505565"><ele>1422.0</ele><time>2026-04-26T10:14:21.431Z</time></trkpt><trkpt lat="44.1835717" lon="10.5055467"><ele>1422.0</ele><time>2026-04-26T10:14:24.431Z</time></trkpt><trkpt lat="44.183505" lon="10.5055667"><ele>1422.0</ele><time>2026-04-26T10:14:25.431Z</time></trkpt><trkpt lat="44.1834217" lon="10.5055967"><ele>1422.0</ele><time>2026-04-26T10:14:26.431Z</time></trkpt><trkpt lat="44.1833467" lon="10.505625"><ele>1422.0</ele><time>2026-04-26T10:14:27.431Z</time></trkpt><trkpt lat="44.1832583" lon="10.505665"><ele>1422.0</ele><time>2026-04-26T10:14:28.431Z</time></trkpt><trkpt lat="44.1831833" lon="10.505695"><ele>1423.3999999999999</ele><time>2026-04-26T10:14:29.431Z</time></trkpt><trkpt lat="44.1830917" lon="10.5057217"><ele>1424.8</ele><time>2026-04-26T10:14:30.431Z</time></trkpt><trkpt lat="44.18301" lon="10.50575"><ele>1426.2</ele><time>2026-04-26T10:14:31.431Z</time></trkpt><trkpt lat="44.1829117" lon="10.5057417"><ele>1427.6</ele><time>2026-04-26T10:14:32.431Z</time></trkpt><trkpt lat="44.18278" lon="10.5057117"><ele>1429.0</ele><time>2026-04-26T10:14:33.431Z</time></trkpt><trkpt lat="44.1826517" lon="10.5057"><ele>1429.0</ele><time>2026-04-26T10:14:34.431Z</time></trkpt><trkpt lat="44.182525" lon="10.5056917"><ele>1429.0</ele><time>2026-04-26T10:14:35.431Z</time></trkpt><trkpt lat="44.1824183" lon="10.5056817"><ele>1429.0</ele><time>2026-04-26T10:14:36.431Z</time></trkpt><trkpt lat="44.1823267" lon="10.5056667"><ele>1429.0</ele><time>2026-04-26T10:14:37.431Z</time></trkpt><trkpt lat="44.1822267" lon="10.5056533"><ele>1429.0</ele><time>2026-04-26T10:14:38.431Z</time></trkpt><trkpt lat="44.18212" lon="10.505665"><ele>1429.0</ele><time>2026-04-26T10:14:39.431Z</time></trkpt><trkpt lat="44.1820083" lon="10.5056767"><ele>1429.0</ele><time>2026-04-26T10:14:40.431Z</time></trkpt><trkpt lat="44.1819033" lon="10.50566"><ele>1429.0</ele><time>2026-04-26T10:14:41.432Z</time></trkpt><trkpt lat="44.181825" lon="10.5056383"><ele>1429.0</ele><time>2026-04-26T10:14:42.431Z</time></trkpt><trkpt lat="44.1816983" lon="10.5056367"><ele>1429.0</ele><time>2026-04-26T10:14:44.431Z</time></trkpt><trkpt lat="44.18164" lon="10.5056733"><ele>1429.0</ele><time>2026-04-26T10:14:45.431Z</time></trkpt><trkpt lat="44.1815533" lon="10.5058017"><ele>1429.0</ele><time>2026-04-26T10:14:47.432Z</time></trkpt><trkpt lat="44.1815283" lon="10.5058933"><ele>1429.0</ele><time>2026-04-26T10:14:48.432Z</time></trkpt><trkpt lat="44.1815117" lon="10.505995"><ele>1429.0</ele><time>2026-04-26T10:14:49.431Z</time></trkpt><trkpt lat="44.1815083" lon="10.5060967"><ele>1429.0</ele><time>2026-04-26T10:14:50.431Z</time></trkpt><trkpt lat="44.1814967" lon="10.5061833"><ele>1429.0</ele><time>2026-04-26T10:14:51.431Z</time></trkpt><trkpt lat="44.1814767" lon="10.50635"><ele>1428.6666666666665</ele><time>2026-04-26T10:14:53.431Z</time></trkpt><trkpt lat="44.1814667" lon="10.506515"><ele>1428.3333333333333</ele><time>2026-04-26T10:14:55.431Z</time></trkpt><trkpt lat="44.1814617" lon="10.5066133"><ele>1428.0</ele><time>2026-04-26T10:14:56.431Z</time></trkpt><trkpt lat="44.1814517" lon="10.5067183"><ele>1427.6666666666667</ele><time>2026-04-26T10:14:57.432Z</time></trkpt><trkpt lat="44.181425" lon="10.506815"><ele>1427.3333333333335</ele><time>2026-04-26T10:14:58.431Z</time></trkpt><trkpt lat="44.1813783" lon="10.5068883"><ele>1427.0</ele><time>2026-04-26T10:14:59.431Z</time></trkpt><trkpt lat="44.1813167" lon="10.5069333"><ele>1427.0</ele><time>2026-04-26T10:15:00.43Z</time></trkpt><trkpt lat="44.18125" lon="10.5069683"><ele>1427.0</ele><time>2026-04-26T10:15:01.43Z</time></trkpt><trkpt lat="44.1811683" lon="10.5070117"><ele>1427.0</ele><time>2026-04-26T10:15:02.431Z</time></trkpt><trkpt lat="44.1810817" lon="10.50705"><ele>1427.0</ele><time>2026-04-26T10:15:03.43Z</time></trkpt><trkpt lat="44.1809717" lon="10.50707"><ele>1427.0</ele><time>2026-04-26T10:15:04.43Z</time></trkpt><trkpt lat="44.1808533" lon="10.5070767"><ele>1427.0</ele><time>2026-04-26T10:15:05.43Z</time></trkpt><trkpt lat="44.18074" lon="10.5070517"><ele>1427.0</ele><time>2026-04-26T10:15:06.43Z</time></trkpt><trkpt lat="44.1806567" lon="10.5070183"><ele>1427.0</ele><time>2026-04-26T10:15:07.43Z</time></trkpt><trkpt lat="44.1805883" lon="10.5069933"><ele>1427.0</ele><time>2026-04-26T10:15:08.43Z</time></trkpt><trkpt lat="44.18047" lon="10.5069733"><ele>1427.0</ele><time>2026-04-26T10:15:10.43Z</time></trkpt><trkpt lat="44.1804017" lon="10.50699"><ele>1428.3333333333335</ele><time>2026-04-26T10:15:11.43Z</time></trkpt><trkpt lat="44.18033" lon="10.5070183"><ele>1429.6666666666667</ele><time>2026-04-26T10:15:12.43Z</time></trkpt><trkpt lat="44.1802517" lon="10.5070567"><ele>1431.0</ele><time>2026-04-26T10:15:13.43Z</time></trkpt><trkpt lat="44.18017" lon="10.5070833"><ele>1432.3333333333333</ele><time>2026-04-26T10:15:14.43Z</time></trkpt><trkpt lat="44.18009" lon="10.507105"><ele>1433.6666666666665</ele><time>2026-04-26T10:15:15.43Z</time></trkpt><trkpt lat="44.1800183" lon="10.5071233"><ele>1435.0</ele><time>2026-04-26T10:15:16.43Z</time></trkpt><trkpt lat="44.1799217" lon="10.5071817"><ele>1435.0</ele><time>2026-04-26T10:15:18.43Z</time></trkpt><trkpt lat="44.1798817" lon="10.5072867"><ele>1435.0</ele><time>2026-04-26T10:15:20.43Z</time></trkpt><trkpt lat="44.1798883" lon="10.5074767"><ele>1435.0</ele><time>2026-04-26T10:15:22.43Z</time></trkpt><trkpt lat="44.179865" lon="10.5075833"><ele>1435.0</ele><time>2026-04-26T10:15:23.43Z</time></trkpt><trkpt lat="44.1797933" lon="10.507675"><ele>1435.0</ele><time>2026-04-26T10:15:24.43Z</time></trkpt><trkpt lat="44.17968" lon="10.5077583"><ele>1435.25</ele><time>2026-04-26T10:15:25.43Z</time></trkpt><trkpt lat="44.1795533" lon="10.5078333"><ele>1435.5</ele><time>2026-04-26T10:15:26.431Z</time></trkpt><trkpt lat="44.1794267" lon="10.5078933"><ele>1435.75</ele><time>2026-04-26T10:15:27.43Z</time></trkpt><trkpt lat="44.1793083" lon="10.5079383"><ele>1436.0</ele><time>2026-04-26T10:15:28.43Z</time></trkpt><trkpt lat="44.1792033" lon="10.50798"><ele>1436.0</ele><time>2026-04-26T10:15:29.43Z</time></trkpt><trkpt lat="44.17911" lon="10.5080067"><ele>1436.0</ele><time>2026-04-26T10:15:30.43Z</time></trkpt><trkpt lat="44.17903" lon="10.5080417"><ele>1436.0</ele><time>2026-04-26T10:15:31.43Z</time></trkpt><trkpt lat="44.1789683" lon="10.508085"><ele>1436.0</ele><time>2026-04-26T10:15:32.43Z</time></trkpt><trkpt lat="44.178905" lon="10.50815"><ele>1436.0</ele><time>2026-04-26T10:15:33.43Z</time></trkpt><trkpt lat="44.1788483" lon="10.5082283"><ele>1436.0</ele><time>2026-04-26T10:15:34.43Z</time></trkpt><trkpt lat="44.1788017" lon="10.508315"><ele>1435.6666666666667</ele><time>2026-04-26T10:15:35.43Z</time></trkpt><trkpt lat="44.1787533" lon="10.5084033"><ele>1435.3333333333335</ele><time>2026-04-26T10:15:36.43Z</time></trkpt><trkpt lat="44.178715" lon="10.5084917"><ele>1435.0</ele><time>2026-04-26T10:15:37.431Z</time></trkpt><trkpt lat="44.1786917" lon="10.50858"><ele>1434.6666666666667</ele><time>2026-04-26T10:15:38.43Z</time></trkpt><trkpt lat="44.1786833" lon="10.5086717"><ele>1434.3333333333333</ele><time>2026-04-26T10:15:39.43Z</time></trkpt><trkpt lat="44.1786867" lon="10.5087633"><ele>1434.0</ele><time>2026-04-26T10:15:40.43Z</time></trkpt><trkpt lat="44.1786533" lon="10.5088967"><ele>1434.0</ele><time>2026-04-26T10:15:42.43Z</time></trkpt><trkpt lat="44.1785567" lon="10.5090083"><ele>1434.0</ele><time>2026-04-26T10:15:44.43Z</time></trkpt><trkpt lat="44.1785083" lon="10.5090667"><ele>1434.0</ele><time>2026-04-26T10:15:45.431Z</time></trkpt><trkpt lat="44.1784667" lon="10.5091417"><ele>1434.0</ele><time>2026-04-26T10:15:46.43Z</time></trkpt><trkpt lat="44.1784283" lon="10.5092367"><ele>1434.0</ele><time>2026-04-26T10:15:47.43Z</time></trkpt><trkpt lat="44.1784033" lon="10.5093417"><ele>1434.0</ele><time>2026-04-26T10:15:48.43Z</time></trkpt><trkpt lat="44.1783783" lon="10.5094417"><ele>1434.0</ele><time>2026-04-26T10:15:49.43Z</time></trkpt><trkpt lat="44.1783617" lon="10.5095333"><ele>1434.0</ele><time>2026-04-26T10:15:50.43Z</time></trkpt><trkpt lat="44.1783217" lon="10.509695"><ele>1434.0</ele><time>2026-04-26T10:15:52.43Z</time></trkpt><trkpt lat="44.17829" lon="10.50978"><ele>1434.0</ele><time>2026-04-26T10:15:53.43Z</time></trkpt><trkpt lat="44.178245" lon="10.5098683"><ele>1434.0</ele><time>2026-04-26T10:15:54.43Z</time></trkpt><trkpt lat="44.1781883" lon="10.5099717"><ele>1434.0</ele><time>2026-04-26T10:15:55.43Z</time></trkpt><trkpt lat="44.1781183" lon="10.51006"><ele>1433.1666666666667</ele><time>2026-04-26T10:15:56.43Z</time></trkpt><trkpt lat="44.178045" lon="10.5101433"><ele>1432.3333333333333</ele><time>2026-04-26T10:15:57.43Z</time></trkpt><trkpt lat="44.1779733" lon="10.5102133"><ele>1431.5</ele><time>2026-04-26T10:15:58.43Z</time></trkpt><trkpt lat="44.1779117" lon="10.510275"><ele>1430.6666666666665</ele><time>2026-04-26T10:15:59.43Z</time></trkpt><trkpt lat="44.1778617" lon="10.510335"><ele>1429.8333333333333</ele><time>2026-04-26T10:16:00.43Z</time></trkpt><trkpt lat="44.1778233" lon="10.510485"><ele>1429.0</ele><time>2026-04-26T10:16:02.43Z</time></trkpt><trkpt lat="44.177815" lon="10.5105733"><ele>1431.8333333333333</ele><time>2026-04-26T10:16:03.43Z</time></trkpt><trkpt lat="44.1778083" lon="10.51072"><ele>1434.6666666666665</ele><time>2026-04-26T10:16:05.43Z</time></trkpt><trkpt lat="44.17776" lon="10.5108067"><ele>1437.5</ele><time>2026-04-26T10:16:07.43Z</time></trkpt><trkpt lat="44.1776833" lon="10.51081"><ele>1440.3333333333333</ele><time>2026-04-26T10:16:09.431Z</time></trkpt><trkpt lat="44.1776233" lon="10.5107067"><ele>1443.1666666666667</ele><time>2026-04-26T10:16:11.43Z</time></trkpt><trkpt lat="44.1776033" lon="10.5105983"><ele>1446.0</ele><time>2026-04-26T10:16:12.43Z</time></trkpt><trkpt lat="44.17758" lon="10.510465"><ele>1443.1666666666667</ele><time>2026-04-26T10:16:13.43Z</time></trkpt><trkpt lat="44.1775667" lon="10.5103467"><ele>1440.3333333333333</ele><time>2026-04-26T10:16:14.43Z</time></trkpt><trkpt lat="44.1775583" lon="10.5102483"><ele>1437.5</ele><time>2026-04-26T10:16:15.43Z</time></trkpt><trkpt lat="44.177545" lon="10.5101333"><ele>1434.6666666666665</ele><time>2026-04-26T10:16:17.43Z</time></trkpt><trkpt lat="44.1774767" lon="10.5101633"><ele>1431.8333333333333</ele><time>2026-04-26T10:16:24.43Z</time></trkpt><trkpt lat="44.1774317" lon="10.51025"><ele>1429.0</ele><time>2026-04-26T10:16:26.43Z</time></trkpt><trkpt lat="44.1774" lon="10.5103583"><ele>1426.8000000000002</ele><time>2026-04-26T10:16:28.43Z</time></trkpt><trkpt lat="44.1773633" lon="10.5104467"><ele>1424.6000000000001</ele><time>2026-04-26T10:16:59.43Z</time></trkpt><trkpt lat="44.1773083" lon="10.5106033"><ele>1422.4</ele><time>2026-04-26T10:17:01.43Z</time></trkpt><trkpt lat="44.1772467" lon="10.5107233"><ele>1420.2</ele><time>2026-04-26T10:17:02.43Z</time></trkpt><trkpt lat="44.1771767" lon="10.5108583"><ele>1418.0</ele><time>2026-04-26T10:17:03.43Z</time></trkpt><trkpt lat="44.1771133" lon="10.5110017"><ele>1418.0</ele><time>2026-04-26T10:17:04.43Z</time></trkpt><trkpt lat="44.17706" lon="10.5111583"><ele>1418.0</ele><time>2026-04-26T10:17:05.43Z</time></trkpt><trkpt lat="44.1770217" lon="10.51131"><ele>1418.0</ele><time>2026-04-26T10:17:06.431Z</time></trkpt><trkpt lat="44.1769867" lon="10.511455"><ele>1418.0</ele><time>2026-04-26T10:17:07.43Z</time></trkpt><trkpt lat="44.1769533" lon="10.5116017"><ele>1421.2</ele><time>2026-04-26T10:17:08.43Z</time></trkpt><trkpt lat="44.17692" lon="10.5117583"><ele>1424.4</ele><time>2026-04-26T10:17:09.43Z</time></trkpt><trkpt lat="44.1768933" lon="10.5119217"><ele>1427.6000000000001</ele><time>2026-04-26T10:17:10.43Z</time></trkpt><trkpt lat="44.1768733" lon="10.5120617"><ele>1430.8000000000002</ele><time>2026-04-26T10:17:11.43Z</time></trkpt><trkpt lat="44.1768617" lon="10.512165"><ele>1434.0</ele><time>2026-04-26T10:17:12.431Z</time></trkpt><trkpt lat="44.1768617" lon="10.5122667"><ele>1436.1666666666667</ele><time>2026-04-26T10:17:13.43Z</time></trkpt><trkpt lat="44.176865" lon="10.5123917"><ele>1438.3333333333333</ele><time>2026-04-26T10:17:14.43Z</time></trkpt><trkpt lat="44.1768767" lon="10.5125267"><ele>1440.5</ele><time>2026-04-26T10:17:15.43Z</time></trkpt><trkpt lat="44.1768867" lon="10.512655"><ele>1442.6666666666665</ele><time>2026-04-26T10:17:16.43Z</time></trkpt><trkpt lat="44.1768917" lon="10.5127733"><ele>1444.8333333333333</ele><time>2026-04-26T10:17:17.43Z</time></trkpt><trkpt lat="44.176885" lon="10.51288"><ele>1447.0</ele><time>2026-04-26T10:17:18.43Z</time></trkpt><trkpt lat="44.1768683" lon="10.5129717"><ele>1448.6666666666665</ele><time>2026-04-26T10:17:19.43Z</time></trkpt><trkpt lat="44.1768467" lon="10.513055"><ele>1450.3333333333333</ele><time>2026-04-26T10:17:20.43Z</time></trkpt><trkpt lat="44.1768417" lon="10.51319"><ele>1452.0</ele><time>2026-04-26T10:17:22.43Z</time></trkpt><trkpt lat="44.1768467" lon="10.5132817"><ele>1453.6666666666667</ele><time>2026-04-26T10:17:24.43Z</time></trkpt><trkpt lat="44.1767733" lon="10.5133467"><ele>1455.3333333333335</ele><time>2026-04-26T10:17:28.43Z</time></trkpt><trkpt lat="44.17669" lon="10.513365"><ele>1457.0</ele><time>2026-04-26T10:17:30.431Z</time></trkpt><trkpt lat="44.1765933" lon="10.513415"><ele>1457.0</ele><time>2026-04-26T10:17:32.43Z</time></trkpt><trkpt lat="44.1765433" lon="10.5135"><ele>1457.0</ele><time>2026-04-26T10:17:34.43Z</time></trkpt><trkpt lat="44.17652" lon="10.5136283"><ele>1457.0</ele><time>2026-04-26T10:17:36.43Z</time></trkpt><trkpt lat="44.1764933" lon="10.5138017"><ele>1457.0</ele><time>2026-04-26T10:17:38.431Z</time></trkpt><trkpt lat="44.1764617" lon="10.51389"><ele>1457.0</ele><time>2026-04-26T10:17:39.43Z</time></trkpt><trkpt lat="44.1764233" lon="10.5139667"><ele>1457.0</ele><time>2026-04-26T10:17:40.431Z</time></trkpt><trkpt lat="44.1763717" lon="10.5140283"><ele>1455.8</ele><time>2026-04-26T10:17:41.43Z</time></trkpt><trkpt lat="44.1763167" lon="10.5140817"><ele>1454.6</ele><time>2026-04-26T10:17:42.43Z</time></trkpt><trkpt lat="44.1762633" lon="10.514145"><ele>1453.3999999999999</ele><time>2026-04-26T10:17:43.43Z</time></trkpt><trkpt lat="44.17621" lon="10.5141983"><ele>1452.1999999999998</ele><time>2026-04-26T10:17:44.431Z</time></trkpt><trkpt lat="44.176105" lon="10.5142617"><ele>1451.0</ele><time>2026-04-26T10:17:46.43Z</time></trkpt><trkpt lat="44.1759733" lon="10.514305"><ele>1451.0</ele><time>2026-04-26T10:17:48.431Z</time></trkpt><trkpt lat="44.1758983" lon="10.5143167"><ele>1451.0</ele><time>2026-04-26T10:17:49.43Z</time></trkpt><trkpt lat="44.1758333" lon="10.514325"><ele>1451.0</ele><time>2026-04-26T10:17:50.43Z</time></trkpt><trkpt lat="44.1757683" lon="10.51433"><ele>1451.0</ele><time>2026-04-26T10:17:51.43Z</time></trkpt><trkpt lat="44.1757033" lon="10.5143417"><ele>1451.0</ele><time>2026-04-26T10:17:52.43Z</time></trkpt><trkpt lat="44.175635" lon="10.514355"><ele>1451.0</ele><time>2026-04-26T10:17:53.43Z</time></trkpt><trkpt lat="44.1755683" lon="10.514385"><ele>1451.0</ele><time>2026-04-26T10:17:54.43Z</time></trkpt><trkpt lat="44.1755067" lon="10.514435"><ele>1453.5</ele><time>2026-04-26T10:17:55.43Z</time></trkpt><trkpt lat="44.1754483" lon="10.5145017"><ele>1456.0</ele><time>2026-04-26T10:17:56.43Z</time></trkpt><trkpt lat="44.17541" lon="10.5145883"><ele>1458.5</ele><time>2026-04-26T10:17:57.43Z</time></trkpt><trkpt lat="44.1753767" lon="10.5146833"><ele>1461.0</ele><time>2026-04-26T10:17:58.431Z</time></trkpt><trkpt lat="44.17535" lon="10.5147867"><ele>1463.5</ele><time>2026-04-26T10:17:59.43Z</time></trkpt><trkpt lat="44.1753233" lon="10.5148667"><ele>1466.0</ele><time>2026-04-26T10:18:00.43Z</time></trkpt><trkpt lat="44.175255" lon="10.5149933"><ele>1466.0</ele><time>2026-04-26T10:18:02.43Z</time></trkpt><trkpt lat="44.1751667" lon="10.5150867"><ele>1466.0</ele><time>2026-04-26T10:18:04.43Z</time></trkpt><trkpt lat="44.17508" lon="10.5151567"><ele>1466.0</ele><time>2026-04-26T10:18:06.431Z</time></trkpt><trkpt lat="44.1750267" lon="10.515215"><ele>1466.0</ele><time>2026-04-26T10:18:08.43Z</time></trkpt><trkpt lat="44.1749567" lon="10.51524"><ele>1466.0</ele><time>2026-04-26T10:18:10.43Z</time></trkpt><trkpt lat="44.174875" lon="10.5153083"><ele>1466.0</ele><time>2026-04-26T10:18:12.43Z</time></trkpt><trkpt lat="44.1748017" lon="10.5154433"><ele>1467.6666666666667</ele><time>2026-04-26T10:18:14.43Z</time></trkpt><trkpt lat="44.1747483" lon="10.515515"><ele>1469.3333333333335</ele><time>2026-04-26T10:18:15.43Z</time></trkpt><trkpt lat="44.1747" lon="10.51559"><ele>1471.0</ele><time>2026-04-26T10:18:16.431Z</time></trkpt><trkpt lat="44.174655" lon="10.5156567"><ele>1472.6666666666667</ele><time>2026-04-26T10:18:17.43Z</time></trkpt><trkpt lat="44.1745767" lon="10.515755"><ele>1474.3333333333333</ele><time>2026-04-26T10:18:19.429Z</time></trkpt><trkpt lat="44.174525" lon="10.5158083"><ele>1476.0</ele><time>2026-04-26T10:18:21.429Z</time></trkpt><trkpt lat="44.1746133" lon="10.5159033"><ele>1476.0</ele><time>2026-04-26T10:18:33.429Z</time></trkpt><trkpt lat="44.1746" lon="10.5159917"><ele>1476.0</ele><time>2026-04-26T10:18:36.429Z</time></trkpt><trkpt lat="44.1745783" lon="10.5160883"><ele>1476.0</ele><time>2026-04-26T10:18:38.429Z</time></trkpt><trkpt lat="44.174555" lon="10.5162033"><ele>1476.0</ele><time>2026-04-26T10:18:40.429Z</time></trkpt><trkpt lat="44.1745117" lon="10.5163217"><ele>1476.0</ele><time>2026-04-26T10:18:42.429Z</time></trkpt><trkpt lat="44.1744483" lon="10.5164633"><ele>1476.0</ele><time>2026-04-26T10:18:44.429Z</time></trkpt><trkpt lat="44.1744083" lon="10.516535"><ele>1479.4</ele><time>2026-04-26T10:18:45.429Z</time></trkpt><trkpt lat="44.174345" lon="10.5166767"><ele>1482.8</ele><time>2026-04-26T10:18:47.429Z</time></trkpt><trkpt lat="44.1743133" lon="10.5167567"><ele>1486.2</ele><time>2026-04-26T10:18:48.429Z</time></trkpt><trkpt lat="44.1742433" lon="10.5168733"><ele>1489.6000000000001</ele><time>2026-04-26T10:18:50.429Z</time></trkpt><trkpt lat="44.1741917" lon="10.516935"><ele>1493.0</ele><time>2026-04-26T10:18:52.429Z</time></trkpt><trkpt lat="44.174085" lon="10.5170017"><ele>1494.2</ele><time>2026-04-26T10:18:55.429Z</time></trkpt><trkpt lat="44.173995" lon="10.51707"><ele>1495.4</ele><time>2026-04-26T10:18:57.429Z</time></trkpt><trkpt lat="44.17391" lon="10.517205"><ele>1496.6000000000001</ele><time>2026-04-26T10:18:59.429Z</time></trkpt><trkpt lat="44.1738267" lon="10.51731"><ele>1497.8000000000002</ele><time>2026-04-26T10:19:01.429Z</time></trkpt><trkpt lat="44.17378" lon="10.5173833"><ele>1499.0</ele><time>2026-04-26T10:19:02.429Z</time></trkpt><trkpt lat="44.1737533" lon="10.5174667"><ele>1499.0</ele><time>2026-04-26T10:19:04.429Z</time></trkpt><trkpt lat="44.1736883" lon="10.5175867"><ele>1499.0</ele><time>2026-04-26T10:19:28.429Z</time></trkpt><trkpt lat="44.1736267" lon="10.517675"><ele>1499.0</ele><time>2026-04-26T10:22:57.429Z</time></trkpt><trkpt lat="44.1735533" lon="10.5177533"><ele>1499.0</ele><time>2026-04-26T10:22:59.428Z</time></trkpt><trkpt lat="44.1735067" lon="10.5178383"><ele>1499.0</ele><time>2026-04-26T10:23:00.428Z</time></trkpt><trkpt lat="44.173425" lon="10.5179383"><ele>1502.1666666666667</ele><time>2026-04-26T10:23:02.429Z</time></trkpt><trkpt lat="44.1733717" lon="10.518035"><ele>1505.3333333333335</ele><time>2026-04-26T10:23:05.429Z</time></trkpt><trkpt lat="44.1733217" lon="10.51811"><ele>1508.5</ele><time>2026-04-26T10:23:09.428Z</time></trkpt><trkpt lat="44.173375" lon="10.518185"><ele>1511.6666666666667</ele><time>2026-04-26T10:23:13.428Z</time></trkpt><trkpt lat="44.1734583" lon="10.5182167"><ele>1514.8333333333333</ele><time>2026-04-26T10:23:15.428Z</time></trkpt><trkpt lat="44.1735233" lon="10.5182533"><ele>1518.0</ele><time>2026-04-26T10:23:16.428Z</time></trkpt><trkpt lat="44.17359" lon="10.5182783"><ele>1518.0</ele><time>2026-04-26T10:23:17.428Z</time></trkpt><trkpt lat="44.17371" lon="10.51831"><ele>1518.0</ele><time>2026-04-26T10:23:19.428Z</time></trkpt><trkpt lat="44.17382" lon="10.5183017"><ele>1518.0</ele><time>2026-04-26T10:23:21.428Z</time></trkpt><trkpt lat="44.173885" lon="10.518285"><ele>1518.0</ele><time>2026-04-26T10:23:22.429Z</time></trkpt><trkpt lat="44.1739433" lon="10.5182467"><ele>1518.0</ele><time>2026-04-26T10:23:23.428Z</time></trkpt><trkpt lat="44.174" lon="10.5182"><ele>1518.0</ele><time>2026-04-26T10:23:24.428Z</time></trkpt><trkpt lat="44.1740633" lon="10.5181533"><ele>1517.5</ele><time>2026-04-26T10:23:25.429Z</time></trkpt><trkpt lat="44.1741217" lon="10.5181"><ele>1517.0</ele><time>2026-04-26T10:23:26.429Z</time></trkpt><trkpt lat="44.1741867" lon="10.51804"><ele>1516.5</ele><time>2026-04-26T10:23:27.428Z</time></trkpt><trkpt lat="44.1742433" lon="10.5179817"><ele>1516.0</ele><time>2026-04-26T10:23:28.428Z</time></trkpt><trkpt lat="44.174295" lon="10.517925"><ele>1515.5</ele><time>2026-04-26T10:23:29.428Z</time></trkpt><trkpt lat="44.1743933" lon="10.51783"><ele>1515.0</ele><time>2026-04-26T10:23:31.428Z</time></trkpt><trkpt lat="44.1744933" lon="10.5177733"><ele>1515.0</ele><time>2026-04-26T10:23:33.428Z</time></trkpt><trkpt lat="44.17459" lon="10.5177617"><ele>1515.0</ele><time>2026-04-26T10:23:35.428Z</time></trkpt><trkpt lat="44.174685" lon="10.517765"><ele>1515.0</ele><time>2026-04-26T10:23:37.428Z</time></trkpt><trkpt lat="44.17477" lon="10.5177667"><ele>1515.0</ele><time>2026-04-26T10:23:39.428Z</time></trkpt><trkpt lat="44.1748483" lon="10.517735"><ele>1515.0</ele><time>2026-04-26T10:23:42.428Z</time></trkpt><trkpt lat="44.17488" lon="10.5176517"><ele>1515.0</ele><time>2026-04-26T10:23:44.428Z</time></trkpt><trkpt lat="44.1749417" lon="10.5175467"><ele>1519.1666666666667</ele><time>2026-04-26T10:23:46.428Z</time></trkpt><trkpt lat="44.1749933" lon="10.5174883"><ele>1523.3333333333335</ele><time>2026-04-26T10:23:47.428Z</time></trkpt><trkpt lat="44.1750933" lon="10.517405"><ele>1527.5</ele><time>2026-04-26T10:23:49.428Z</time></trkpt><trkpt lat="44.17522" lon="10.51738"><ele>1531.6666666666667</ele><time>2026-04-26T10:23:51.428Z</time></trkpt><trkpt lat="44.1752867" lon="10.517385"><ele>1535.8333333333335</ele><time>2026-04-26T10:23:52.428Z</time></trkpt><trkpt lat="44.1753533" lon="10.51739"><ele>1540.0</ele><time>2026-04-26T10:23:53.428Z</time></trkpt><trkpt lat="44.17547" lon="10.5173833"><ele>1540.0000000000002</ele><time>2026-04-26T10:23:55.428Z</time></trkpt><trkpt lat="44.175585" lon="10.5173967"><ele>1540.0</ele><time>2026-04-26T10:23:57.428Z</time></trkpt><trkpt lat="44.175655" lon="10.5174167"><ele>1540.0</ele><time>2026-04-26T10:23:58.428Z</time></trkpt><trkpt lat="44.1757267" lon="10.5174333"><ele>1540.0</ele><time>2026-04-26T10:23:59.428Z</time></trkpt><trkpt lat="44.175805" lon="10.5174533"><ele>1540.0000000000002</ele><time>2026-04-26T10:24:00.428Z</time></trkpt><trkpt lat="44.175875" lon="10.5174733"><ele>1540.0</ele><time>2026-04-26T10:24:01.428Z</time></trkpt><trkpt lat="44.1759367" lon="10.5174933"><ele>1543.0</ele><time>2026-04-26T10:24:02.428Z</time></trkpt><trkpt lat="44.1760417" lon="10.51751"><ele>1546.0</ele><time>2026-04-26T10:24:04.428Z</time></trkpt><trkpt lat="44.1761283" lon="10.5175333"><ele>1549.0</ele><time>2026-04-26T10:24:06.429Z</time></trkpt><trkpt lat="44.1762117" lon="10.5175767"><ele>1552.0</ele><time>2026-04-26T10:24:08.428Z</time></trkpt><trkpt lat="44.1763033" lon="10.5176333"><ele>1555.0</ele><time>2026-04-26T10:24:10.428Z</time></trkpt><trkpt lat="44.176385" lon="10.517665"><ele>1555.0</ele><time>2026-04-26T10:24:12.428Z</time></trkpt><trkpt lat="44.1765" lon="10.51769"><ele>1555.0</ele><time>2026-04-26T10:24:14.428Z</time></trkpt><trkpt lat="44.1765633" lon="10.5176917"><ele>1555.0</ele><time>2026-04-26T10:24:15.428Z</time></trkpt><trkpt lat="44.1766683" lon="10.517705"><ele>1555.0</ele><time>2026-04-26T10:24:17.428Z</time></trkpt><trkpt lat="44.1767483" lon="10.517695"><ele>1555.0</ele><time>2026-04-26T10:24:19.428Z</time></trkpt><trkpt lat="44.176865" lon="10.51758"><ele>1555.6666666666667</ele><time>2026-04-26T10:24:48.428Z</time></trkpt><trkpt lat="44.1769183" lon="10.5175317"><ele>1556.3333333333335</ele><time>2026-04-26T10:24:49.427Z</time></trkpt><trkpt lat="44.1769767" lon="10.5174617"><ele>1557.0</ele><time>2026-04-26T10:24:50.428Z</time></trkpt><trkpt lat="44.17703" lon="10.5173733"><ele>1557.6666666666665</ele><time>2026-04-26T10:24:51.427Z</time></trkpt><trkpt lat="44.177105" lon="10.5172833"><ele>1558.3333333333333</ele><time>2026-04-26T10:24:52.427Z</time></trkpt><trkpt lat="44.1771933" lon="10.517205"><ele>1559.0</ele><time>2026-04-26T10:24:53.427Z</time></trkpt><trkpt lat="44.1772933" lon="10.5171067"><ele>1557.5</ele><time>2026-04-26T10:24:54.427Z</time></trkpt><trkpt lat="44.1773967" lon="10.5169767"><ele>1556.0</ele><time>2026-04-26T10:24:55.427Z</time></trkpt><trkpt lat="44.1774983" lon="10.5168567"><ele>1554.5</ele><time>2026-04-26T10:24:56.427Z</time></trkpt><trkpt lat="44.1775817" lon="10.5167633"><ele>1553.0</ele><time>2026-04-26T10:24:57.427Z</time></trkpt><trkpt lat="44.1776583" lon="10.5166917"><ele>1553.0</ele><time>2026-04-26T10:24:58.427Z</time></trkpt><trkpt lat="44.17774" lon="10.5166317"><ele>1553.0</ele><time>2026-04-26T10:24:59.427Z</time></trkpt><trkpt lat="44.1778467" lon="10.5165867"><ele>1553.0</ele><time>2026-04-26T10:25:00.427Z</time></trkpt><trkpt lat="44.1779717" lon="10.516545"><ele>1553.0</ele><time>2026-04-26T10:25:01.427Z</time></trkpt><trkpt lat="44.1781117" lon="10.516495"><ele>1552.5</ele><time>2026-04-26T10:25:02.427Z</time></trkpt><trkpt lat="44.17824" lon="10.5164017"><ele>1552.0</ele><time>2026-04-26T10:25:03.427Z</time></trkpt><trkpt lat="44.1783517" lon="10.5162833"><ele>1551.5</ele><time>2026-04-26T10:25:04.427Z</time></trkpt><trkpt lat="44.1784517" lon="10.516165"><ele>1551.0</ele><time>2026-04-26T10:25:05.427Z</time></trkpt><trkpt lat="44.17854" lon="10.5160417"><ele>1551.0</ele><time>2026-04-26T10:25:06.428Z</time></trkpt><trkpt lat="44.17861" lon="10.5159067"><ele>1551.0</ele><time>2026-04-26T10:25:07.427Z</time></trkpt><trkpt lat="44.178675" lon="10.5157883"><ele>1551.0</ele><time>2026-04-26T10:25:08.427Z</time></trkpt><trkpt lat="44.17873" lon="10.5157017"><ele>1551.0</ele><time>2026-04-26T10:25:09.427Z</time></trkpt><trkpt lat="44.1787833" lon="10.5156283"><ele>1551.0</ele><time>2026-04-26T10:25:10.427Z</time></trkpt><trkpt lat="44.17884" lon="10.5155667"><ele>1551.0</ele><time>2026-04-26T10:25:11.427Z</time></trkpt><trkpt lat="44.1789117" lon="10.5155133"><ele>1551.0</ele><time>2026-04-26T10:25:12.427Z</time></trkpt><trkpt lat="44.1789833" lon="10.5154367"><ele>1551.0</ele><time>2026-04-26T10:25:13.427Z</time></trkpt><trkpt lat="44.1790467" lon="10.515345"><ele>1551.0</ele><time>2026-04-26T10:25:14.427Z</time></trkpt><trkpt lat="44.1791017" lon="10.5152583"><ele>1551.0</ele><time>2026-04-26T10:25:15.427Z</time></trkpt><trkpt lat="44.1791617" lon="10.5151867"><ele>1551.0</ele><time>2026-04-26T10:25:16.427Z</time></trkpt><trkpt lat="44.1792283" lon="10.51512"><ele>1552.6</ele><time>2026-04-26T10:25:17.427Z</time></trkpt><trkpt lat="44.1793183" lon="10.515075"><ele>1554.1999999999998</ele><time>2026-04-26T10:25:18.427Z</time></trkpt><trkpt lat="44.1794117" lon="10.5150633"><ele>1555.8000000000002</ele><time>2026-04-26T10:25:19.427Z</time></trkpt><trkpt lat="44.1795083" lon="10.515075"><ele>1557.4</ele><time>2026-04-26T10:25:20.427Z</time></trkpt><trkpt lat="44.1796233" lon="10.5151033"><ele>1559.0</ele><time>2026-04-26T10:25:21.427Z</time></trkpt><trkpt lat="44.1797383" lon="10.5151267"><ele>1560.75</ele><time>2026-04-26T10:25:22.427Z</time></trkpt><trkpt lat="44.1798517" lon="10.5151383"><ele>1562.5</ele><time>2026-04-26T10:25:23.427Z</time></trkpt><trkpt lat="44.1799667" lon="10.515135"><ele>1564.25</ele><time>2026-04-26T10:25:24.427Z</time></trkpt><trkpt lat="44.1800767" lon="10.5150883"><ele>1566.0</ele><time>2026-04-26T10:25:25.427Z</time></trkpt><trkpt lat="44.18019" lon="10.5150017"><ele>1566.0</ele><time>2026-04-26T10:25:26.427Z</time></trkpt><trkpt lat="44.1803017" lon="10.5149083"><ele>1566.0</ele><time>2026-04-26T10:25:27.427Z</time></trkpt><trkpt lat="44.1804367" lon="10.5148"><ele>1566.0</ele><time>2026-04-26T10:25:28.427Z</time></trkpt><trkpt lat="44.1805667" lon="10.5146983"><ele>1566.0</ele><time>2026-04-26T10:25:29.427Z</time></trkpt><trkpt lat="44.1806733" lon="10.5146"><ele>1566.25</ele><time>2026-04-26T10:25:30.427Z</time></trkpt><trkpt lat="44.1807733" lon="10.5144883"><ele>1566.5</ele><time>2026-04-26T10:25:31.427Z</time></trkpt><trkpt lat="44.1808583" lon="10.514375"><ele>1566.75</ele><time>2026-04-26T10:25:32.427Z</time></trkpt><trkpt lat="44.1809483" lon="10.5142417"><ele>1567.0</ele><time>2026-04-26T10:25:33.427Z</time></trkpt><trkpt lat="44.18103" lon="10.5141017"><ele>1567.0</ele><time>2026-04-26T10:25:34.427Z</time></trkpt><trkpt lat="44.1810967" lon="10.5139767"><ele>1567.0</ele><time>2026-04-26T10:25:35.428Z</time></trkpt><trkpt lat="44.18115" lon="10.5138433"><ele>1567.0</ele><time>2026-04-26T10:25:36.427Z</time></trkpt><trkpt lat="44.1811783" lon="10.5136917"><ele>1567.0</ele><time>2026-04-26T10:25:37.427Z</time></trkpt><trkpt lat="44.1811983" lon="10.5135117"><ele>1565.0</ele><time>2026-04-26T10:25:38.427Z</time></trkpt><trkpt lat="44.1812183" lon="10.5133217"><ele>1563.0</ele><time>2026-04-26T10:25:39.427Z</time></trkpt><trkpt lat="44.18124" lon="10.51315"><ele>1561.0</ele><time>2026-04-26T10:25:40.427Z</time></trkpt><trkpt lat="44.1812767" lon="10.5129917"><ele>1559.0</ele><time>2026-04-26T10:25:41.427Z</time></trkpt><trkpt lat="44.1813067" lon="10.5128617"><ele>1557.2</ele><time>2026-04-26T10:25:42.427Z</time></trkpt><trkpt lat="44.1813417" lon="10.512745"><ele>1555.4</ele><time>2026-04-26T10:25:43.427Z</time></trkpt><trkpt lat="44.1813917" lon="10.5126317"><ele>1553.6</ele><time>2026-04-26T10:25:44.427Z</time></trkpt><trkpt lat="44.181465" lon="10.5125083"><ele>1551.8</ele><time>2026-04-26T10:25:45.428Z</time></trkpt><trkpt lat="44.181555" lon="10.5123867"><ele>1550.0</ele><time>2026-04-26T10:25:46.427Z</time></trkpt><trkpt lat="44.1816717" lon="10.5122633"><ele>1553.0</ele><time>2026-04-26T10:25:47.427Z</time></trkpt><trkpt lat="44.181795" lon="10.51215"><ele>1556.0</ele><time>2026-04-26T10:25:48.427Z</time></trkpt><trkpt lat="44.18192" lon="10.5120517"><ele>1559.0</ele><time>2026-04-26T10:25:49.427Z</time></trkpt><trkpt lat="44.18203" lon="10.5119783"><ele>1562.0</ele><time>2026-04-26T10:25:50.427Z</time></trkpt><trkpt lat="44.1821317" lon="10.511925"><ele>1562.0</ele><time>2026-04-26T10:25:51.427Z</time></trkpt><trkpt lat="44.1822417" lon="10.5118933"><ele>1562.0</ele><time>2026-04-26T10:25:52.427Z</time></trkpt><trkpt lat="44.1823633" lon="10.5118867"><ele>1562.0</ele><time>2026-04-26T10:25:53.427Z</time></trkpt><trkpt lat="44.1825067" lon="10.51189"><ele>1562.0</ele><time>2026-04-26T10:25:54.427Z</time></trkpt><trkpt lat="44.1826517" lon="10.511905"><ele>1563.5</ele><time>2026-04-26T10:25:55.427Z</time></trkpt><trkpt lat="44.1827967" lon="10.5119367"><ele>1565.0</ele><time>2026-04-26T10:25:56.427Z</time></trkpt><trkpt lat="44.1829333" lon="10.5119667"><ele>1566.5</ele><time>2026-04-26T10:25:57.427Z</time></trkpt><trkpt lat="44.18307" lon="10.5119917"><ele>1568.0</ele><time>2026-04-26T10:25:58.427Z</time></trkpt><trkpt lat="44.1832017" lon="10.511995"><ele>1568.5</ele><time>2026-04-26T10:25:59.427Z</time></trkpt><trkpt lat="44.183335" lon="10.5119783"><ele>1569.0</ele><time>2026-04-26T10:26:00.427Z</time></trkpt><trkpt lat="44.183465" lon="10.5119367"><ele>1569.5</ele><time>2026-04-26T10:26:01.427Z</time></trkpt><trkpt lat="44.1835917" lon="10.5118683"><ele>1570.0</ele><time>2026-04-26T10:26:02.427Z</time></trkpt><trkpt lat="44.1837067" lon="10.51179"><ele>1570.0</ele><time>2026-04-26T10:26:03.428Z</time></trkpt><trkpt lat="44.18381" lon="10.51168"><ele>1570.0</ele><time>2026-04-26T10:26:04.427Z</time></trkpt><trkpt lat="44.18391" lon="10.5115367"><ele>1570.0</ele><time>2026-04-26T10:26:05.427Z</time></trkpt><trkpt lat="44.1840117" lon="10.51136"><ele>1570.0</ele><time>2026-04-26T10:26:06.427Z</time></trkpt><trkpt lat="44.1841133" lon="10.5111833"><ele>1570.25</ele><time>2026-04-26T10:26:07.427Z</time></trkpt><trkpt lat="44.184205" lon="10.5110317"><ele>1570.5</ele><time>2026-04-26T10:26:08.427Z</time></trkpt><trkpt lat="44.1843" lon="10.5108933"><ele>1570.75</ele><time>2026-04-26T10:26:09.427Z</time></trkpt><trkpt lat="44.1844017" lon="10.51077"><ele>1571.0</ele><time>2026-04-26T10:26:10.427Z</time></trkpt><trkpt lat="44.1845" lon="10.5106583"><ele>1571.0</ele><time>2026-04-26T10:26:11.427Z</time></trkpt><trkpt lat="44.1845967" lon="10.5105683"><ele>1571.0</ele><time>2026-04-26T10:26:12.427Z</time></trkpt><trkpt lat="44.1846933" lon="10.5105017"><ele>1571.0</ele><time>2026-04-26T10:26:13.427Z</time></trkpt><trkpt lat="44.184795" lon="10.5104583"><ele>1571.0</ele><time>2026-04-26T10:26:14.427Z</time></trkpt><trkpt lat="44.1849033" lon="10.510435"><ele>1571.0</ele><time>2026-04-26T10:26:15.427Z</time></trkpt><trkpt lat="44.185035" lon="10.5104267"><ele>1569.0</ele><time>2026-04-26T10:26:16.427Z</time></trkpt><trkpt lat="44.1851767" lon="10.5104267"><ele>1567.0</ele><time>2026-04-26T10:26:17.427Z</time></trkpt><trkpt lat="44.1853183" lon="10.5104167"><ele>1565.0</ele><time>2026-04-26T10:26:18.427Z</time></trkpt><trkpt lat="44.1854567" lon="10.5104033"><ele>1563.0</ele><time>2026-04-26T10:26:19.427Z</time></trkpt><trkpt lat="44.1855833" lon="10.51038"><ele>1567.25</ele><time>2026-04-26T10:26:20.427Z</time></trkpt><trkpt lat="44.185695" lon="10.510335"><ele>1571.5</ele><time>2026-04-26T10:26:21.427Z</time></trkpt><trkpt lat="44.1857933" lon="10.510265"><ele>1575.75</ele><time>2026-04-26T10:26:22.427Z</time></trkpt><trkpt lat="44.1858883" lon="10.5101583"><ele>1580.0</ele><time>2026-04-26T10:26:23.427Z</time></trkpt><trkpt lat="44.18598" lon="10.5100183"><ele>1580.0</ele><time>2026-04-26T10:26:24.427Z</time></trkpt><trkpt lat="44.1860733" lon="10.5098417"><ele>1580.0</ele><time>2026-04-26T10:26:25.427Z</time></trkpt><trkpt lat="44.186165" lon="10.5096567"><ele>1580.0</ele><time>2026-04-26T10:26:26.427Z</time></trkpt><trkpt lat="44.1862517" lon="10.50948"><ele>1582.75</ele><time>2026-04-26T10:26:27.427Z</time></trkpt><trkpt lat="44.1863283" lon="10.5093167"><ele>1585.5</ele><time>2026-04-26T10:26:28.427Z</time></trkpt><trkpt lat="44.1864" lon="10.509165"><ele>1588.25</ele><time>2026-04-26T10:26:29.427Z</time></trkpt><trkpt lat="44.18647" lon="10.5090317"><ele>1591.0</ele><time>2026-04-26T10:26:30.427Z</time></trkpt><trkpt lat="44.1865467" lon="10.50891"><ele>1591.0</ele><time>2026-04-26T10:26:31.427Z</time></trkpt><trkpt lat="44.186625" lon="10.5087867"><ele>1591.0</ele><time>2026-04-26T10:26:32.427Z</time></trkpt><trkpt lat="44.186695" lon="10.5086683"><ele>1591.0</ele><time>2026-04-26T10:26:33.427Z</time></trkpt><trkpt lat="44.1867483" lon="10.5085533"><ele>1591.0</ele><time>2026-04-26T10:26:34.427Z</time></trkpt><trkpt lat="44.1867833" lon="10.508445"><ele>1591.0</ele><time>2026-04-26T10:26:35.427Z</time></trkpt><trkpt lat="44.1867983" lon="10.50834"><ele>1589.3333333333335</ele><time>2026-04-26T10:26:36.427Z</time></trkpt><trkpt lat="44.186805" lon="10.5082333"><ele>1587.6666666666667</ele><time>2026-04-26T10:26:37.427Z</time></trkpt><trkpt lat="44.1868083" lon="10.50814"><ele>1586.0</ele><time>2026-04-26T10:26:38.427Z</time></trkpt><trkpt lat="44.186805" lon="10.5080517"><ele>1584.3333333333335</ele><time>2026-04-26T10:26:39.427Z</time></trkpt><trkpt lat="44.1868083" lon="10.5078967"><ele>1582.6666666666667</ele><time>2026-04-26T10:26:41.427Z</time></trkpt><trkpt lat="44.1868133" lon="10.50774"><ele>1581.0</ele><time>2026-04-26T10:26:43.427Z</time></trkpt><trkpt lat="44.1868317" lon="10.5075767"><ele>1580.0</ele><time>2026-04-26T10:26:45.427Z</time></trkpt><trkpt lat="44.186865" lon="10.5074283"><ele>1579.0</ele><time>2026-04-26T10:26:47.427Z</time></trkpt><trkpt lat="44.1869033" lon="10.5073267"><ele>1578.0</ele><time>2026-04-26T10:26:49.427Z</time></trkpt><trkpt lat="44.1869383" lon="10.507235"><ele>1577.0</ele><time>2026-04-26T10:26:51.427Z</time></trkpt><trkpt lat="44.1869717" lon="10.5071517"><ele>1576.0</ele><time>2026-04-26T10:26:53.427Z</time></trkpt><trkpt lat="44.1870083" lon="10.5070617"><ele>1575.0</ele><time>2026-04-26T10:26:55.427Z</time></trkpt><trkpt lat="44.18704" lon="10.50697"><ele>1572.6</ele><time>2026-04-26T10:26:57.427Z</time></trkpt><trkpt lat="44.187075" lon="10.50687"><ele>1570.2</ele><time>2026-04-26T10:26:59.427Z</time></trkpt><trkpt lat="44.187115" lon="10.5067433"><ele>1567.8000000000002</ele><time>2026-04-26T10:27:30.427Z</time></trkpt><trkpt lat="44.1871783" lon="10.506595"><ele>1565.4</ele><time>2026-04-26T10:27:32.427Z</time></trkpt><trkpt lat="44.1872333" lon="10.5064833"><ele>1563.0</ele><time>2026-04-26T10:27:33.427Z</time></trkpt><trkpt lat="44.1873" lon="10.5063617"><ele>1568.25</ele><time>2026-04-26T10:27:34.427Z</time></trkpt><trkpt lat="44.1873883" lon="10.506225"><ele>1573.5</ele><time>2026-04-26T10:27:35.427Z</time></trkpt><trkpt lat="44.1874867" lon="10.50608"><ele>1578.75</ele><time>2026-04-26T10:27:36.427Z</time></trkpt><trkpt lat="44.187595" lon="10.5059267"><ele>1584.0</ele><time>2026-04-26T10:27:37.427Z</time></trkpt><trkpt lat="44.1877133" lon="10.50577"><ele>1584.0</ele><time>2026-04-26T10:27:38.427Z</time></trkpt><trkpt lat="44.1878267" lon="10.5056133"><ele>1584.0</ele><time>2026-04-26T10:27:39.427Z</time></trkpt><trkpt lat="44.187935" lon="10.505455"><ele>1584.0</ele><time>2026-04-26T10:27:40.427Z</time></trkpt><trkpt lat="44.1880433" lon="10.505295"><ele>1579.6666666666665</ele><time>2026-04-26T10:27:41.427Z</time></trkpt><trkpt lat="44.1881483" lon="10.5051333"><ele>1575.3333333333333</ele><time>2026-04-26T10:27:42.427Z</time></trkpt><trkpt lat="44.18825" lon="10.5049583"><ele>1571.0</ele><time>2026-04-26T10:27:43.427Z</time></trkpt><trkpt lat="44.1883417" lon="10.5047783"><ele>1578.6666666666665</ele><time>2026-04-26T10:27:44.427Z</time></trkpt><trkpt lat="44.1884283" lon="10.5045817"><ele>1586.3333333333335</ele><time>2026-04-26T10:27:45.427Z</time></trkpt><trkpt lat="44.1885017" lon="10.5043833"><ele>1594.0</ele><time>2026-04-26T10:27:46.427Z</time></trkpt><trkpt lat="44.1885833" lon="10.5041833"><ele>1594.0</ele><time>2026-04-26T10:27:47.427Z</time></trkpt><trkpt lat="44.1886617" lon="10.504"><ele>1594.0</ele><time>2026-04-26T10:27:48.428Z</time></trkpt><trkpt lat="44.1887383" lon="10.5038333"><ele>1594.0</ele><time>2026-04-26T10:27:49.427Z</time></trkpt><trkpt lat="44.1888233" lon="10.50368"><ele>1594.0</ele><time>2026-04-26T10:27:50.427Z</time></trkpt><trkpt lat="44.1889117" lon="10.50353"><ele>1592.0</ele><time>2026-04-26T10:27:51.427Z</time></trkpt><trkpt lat="44.1889983" lon="10.5033783"><ele>1590.0</ele><time>2026-04-26T10:27:52.427Z</time></trkpt><trkpt lat="44.1890783" lon="10.5032317"><ele>1588.0</ele><time>2026-04-26T10:27:53.427Z</time></trkpt><trkpt lat="44.18915" lon="10.50309"><ele>1586.0</ele><time>2026-04-26T10:27:54.427Z</time></trkpt><trkpt lat="44.18921" lon="10.5029467"><ele>1591.6</ele><time>2026-04-26T10:27:55.427Z</time></trkpt><trkpt lat="44.1892483" lon="10.5028067"><ele>1597.1999999999998</ele><time>2026-04-26T10:27:56.427Z</time></trkpt><trkpt lat="44.1892733" lon="10.5026733"><ele>1602.8000000000002</ele><time>2026-04-26T10:27:57.427Z</time></trkpt><trkpt lat="44.1893133" lon="10.5025333"><ele>1608.4</ele><time>2026-04-26T10:27:58.427Z</time></trkpt><trkpt lat="44.18936" lon="10.5023833"><ele>1614.0</ele><time>2026-04-26T10:27:59.427Z</time></trkpt><trkpt lat="44.1894067" lon="10.5022367"><ele>1613.25</ele><time>2026-04-26T10:28:00.427Z</time></trkpt><trkpt lat="44.1894517" lon="10.5020783"><ele>1612.5</ele><time>2026-04-26T10:28:01.427Z</time></trkpt><trkpt lat="44.1894783" lon="10.5019017"><ele>1611.75</ele><time>2026-04-26T10:28:02.427Z</time></trkpt><trkpt lat="44.1894867" lon="10.5017017"><ele>1611.0</ele><time>2026-04-26T10:28:03.427Z</time></trkpt><trkpt lat="44.1894883" lon="10.5015017"><ele>1611.0</ele><time>2026-04-26T10:28:04.427Z</time></trkpt><trkpt lat="44.189495" lon="10.50135"><ele>1611.0</ele><time>2026-04-26T10:28:05.427Z</time></trkpt><trkpt lat="44.189505" lon="10.501225"><ele>1611.0</ele><time>2026-04-26T10:28:06.427Z</time></trkpt><trkpt lat="44.1895283" lon="10.5010967"><ele>1611.0</ele><time>2026-04-26T10:28:07.427Z</time></trkpt><trkpt lat="44.189575" lon="10.50097"><ele>1611.0</ele><time>2026-04-26T10:28:08.427Z</time></trkpt><trkpt lat="44.1896433" lon="10.5008533"><ele>1610.6</ele><time>2026-04-26T10:28:09.427Z</time></trkpt><trkpt lat="44.1897183" lon="10.5007433"><ele>1610.1999999999998</ele><time>2026-04-26T10:28:10.428Z</time></trkpt><trkpt lat="44.1897983" lon="10.500645"><ele>1609.8000000000002</ele><time>2026-04-26T10:28:11.427Z</time></trkpt><trkpt lat="44.18989" lon="10.5005567"><ele>1609.4</ele><time>2026-04-26T10:28:12.426Z</time></trkpt><trkpt lat="44.18999" lon="10.5004833"><ele>1609.0</ele><time>2026-04-26T10:28:13.426Z</time></trkpt><trkpt lat="44.1900917" lon="10.50042"><ele>1610.5</ele><time>2026-04-26T10:28:14.426Z</time></trkpt><trkpt lat="44.190205" lon="10.5003683"><ele>1612.0</ele><time>2026-04-26T10:28:15.426Z</time></trkpt><trkpt lat="44.1903183" lon="10.5003167"><ele>1613.5</ele><time>2026-04-26T10:28:16.427Z</time></trkpt><trkpt lat="44.19043" lon="10.5002583"><ele>1615.0</ele><time>2026-04-26T10:28:17.426Z</time></trkpt><trkpt lat="44.1905367" lon="10.5001883"><ele>1615.0</ele><time>2026-04-26T10:28:18.426Z</time></trkpt><trkpt lat="44.1906333" lon="10.500105"><ele>1615.0</ele><time>2026-04-26T10:28:19.426Z</time></trkpt><trkpt lat="44.1907233" lon="10.5000233"><ele>1615.0</ele><time>2026-04-26T10:28:20.426Z</time></trkpt><trkpt lat="44.1908067" lon="10.4999417"><ele>1615.0</ele><time>2026-04-26T10:28:21.426Z</time></trkpt><trkpt lat="44.1909067" lon="10.4998833"><ele>1615.0</ele><time>2026-04-26T10:28:22.426Z</time></trkpt><trkpt lat="44.1910217" lon="10.4998283"><ele>1616.25</ele><time>2026-04-26T10:28:23.426Z</time></trkpt><trkpt lat="44.1911467" lon="10.4997617"><ele>1617.5</ele><time>2026-04-26T10:28:24.427Z</time></trkpt><trkpt lat="44.1912667" lon="10.4996833"><ele>1618.75</ele><time>2026-04-26T10:28:25.426Z</time></trkpt><trkpt lat="44.1913783" lon="10.4995833"><ele>1620.0</ele><time>2026-04-26T10:28:26.426Z</time></trkpt><trkpt lat="44.191495" lon="10.49946"><ele>1620.0</ele><time>2026-04-26T10:28:27.426Z</time></trkpt><trkpt lat="44.1916033" lon="10.4993183"><ele>1620.0</ele><time>2026-04-26T10:28:28.426Z</time></trkpt><trkpt lat="44.1916983" lon="10.4991667"><ele>1620.0</ele><time>2026-04-26T10:28:29.426Z</time></trkpt><trkpt lat="44.1917967" lon="10.4989883"><ele>1620.0</ele><time>2026-04-26T10:28:30.426Z</time></trkpt><trkpt lat="44.1918983" lon="10.498775"><ele>1620.0</ele><time>2026-04-26T10:28:31.426Z</time></trkpt><trkpt lat="44.1919917" lon="10.4985483"><ele>1620.0</ele><time>2026-04-26T10:28:32.426Z</time></trkpt><trkpt lat="44.19207" lon="10.4983217"><ele>1618.25</ele><time>2026-04-26T10:28:33.426Z</time></trkpt><trkpt lat="44.19214" lon="10.4981383"><ele>1616.5</ele><time>2026-04-26T10:28:34.426Z</time></trkpt><trkpt lat="44.1921933" lon="10.4979983"><ele>1614.75</ele><time>2026-04-26T10:28:35.426Z</time></trkpt><trkpt lat="44.1922467" lon="10.497865"><ele>1613.0</ele><time>2026-04-26T10:28:36.426Z</time></trkpt><trkpt lat="44.1923167" lon="10.4977433"><ele>1614.25</ele><time>2026-04-26T10:28:37.426Z</time></trkpt><trkpt lat="44.192415" lon="10.4976217"><ele>1615.5</ele><time>2026-04-26T10:28:38.426Z</time></trkpt><trkpt lat="44.19253" lon="10.4975083"><ele>1616.75</ele><time>2026-04-26T10:28:39.426Z</time></trkpt><trkpt lat="44.1926483" lon="10.4973767"><ele>1618.0</ele><time>2026-04-26T10:28:40.426Z</time></trkpt><trkpt lat="44.1927567" lon="10.4972483"><ele>1618.0</ele><time>2026-04-26T10:28:41.426Z</time></trkpt><trkpt lat="44.1928583" lon="10.4971367"><ele>1618.0</ele><time>2026-04-26T10:28:42.426Z</time></trkpt><trkpt lat="44.1929517" lon="10.497025"><ele>1618.0</ele><time>2026-04-26T10:28:43.426Z</time></trkpt><trkpt lat="44.19303" lon="10.49691"><ele>1618.0</ele><time>2026-04-26T10:28:44.426Z</time></trkpt><trkpt lat="44.1931083" lon="10.4967833"><ele>1618.4</ele><time>2026-04-26T10:28:45.426Z</time></trkpt><trkpt lat="44.1931767" lon="10.4966517"><ele>1618.8000000000002</ele><time>2026-04-26T10:28:46.426Z</time></trkpt><trkpt lat="44.193235" lon="10.4965283"><ele>1619.2</ele><time>2026-04-26T10:28:47.426Z</time></trkpt><trkpt lat="44.19329" lon="10.49642"><ele>1619.6</ele><time>2026-04-26T10:28:48.426Z</time></trkpt><trkpt lat="44.1933367" lon="10.4963183"><ele>1620.0</ele><time>2026-04-26T10:28:49.426Z</time></trkpt><trkpt lat="44.193385" lon="10.4962167"><ele>1618.5</ele><time>2026-04-26T10:28:50.426Z</time></trkpt><trkpt lat="44.1934267" lon="10.4961133"><ele>1617.0</ele><time>2026-04-26T10:28:51.426Z</time></trkpt><trkpt lat="44.193465" lon="10.4960117"><ele>1615.5</ele><time>2026-04-26T10:28:52.426Z</time></trkpt><trkpt lat="44.193495" lon="10.4958983"><ele>1614.0</ele><time>2026-04-26T10:28:53.427Z</time></trkpt><trkpt lat="44.1935133" lon="10.4957783"><ele>1612.5</ele><time>2026-04-26T10:28:54.426Z</time></trkpt><trkpt lat="44.1935267" lon="10.4956617"><ele>1611.0</ele><time>2026-04-26T10:28:55.426Z</time></trkpt><trkpt lat="44.19355" lon="10.4955583"><ele>1611.0</ele><time>2026-04-26T10:28:56.426Z</time></trkpt><trkpt lat="44.1935733" lon="10.495475"><ele>1611.0</ele><time>2026-04-26T10:28:57.426Z</time></trkpt><trkpt lat="44.1936517" lon="10.4953467"><ele>1611.0</ele><time>2026-04-26T10:28:59.426Z</time></trkpt><trkpt lat="44.19376" lon="10.4952767"><ele>1611.0</ele><time>2026-04-26T10:29:01.426Z</time></trkpt><trkpt lat="44.1938617" lon="10.4952283"><ele>1611.0</ele><time>2026-04-26T10:29:03.426Z</time></trkpt><trkpt lat="44.1939583" lon="10.49518"><ele>1613.8</ele><time>2026-04-26T10:29:05.426Z</time></trkpt><trkpt lat="44.1940383" lon="10.4950983"><ele>1616.6</ele><time>2026-04-26T10:29:07.427Z</time></trkpt><trkpt lat="44.19408" lon="10.4949767"><ele>1619.4</ele><time>2026-04-26T10:29:09.426Z</time></trkpt><trkpt lat="44.1940783" lon="10.4948283"><ele>1622.2</ele><time>2026-04-26T10:29:11.426Z</time></trkpt><trkpt lat="44.1940917" lon="10.49465"><ele>1625.0</ele><time>2026-04-26T10:29:13.426Z</time></trkpt><trkpt lat="44.194075" lon="10.4945517"><ele>1624.9999999999998</ele><time>2026-04-26T10:29:14.426Z</time></trkpt><trkpt lat="44.1940367" lon="10.494445"><ele>1625.0</ele><time>2026-04-26T10:29:15.426Z</time></trkpt><trkpt lat="44.1939983" lon="10.4943483"><ele>1625.0</ele><time>2026-04-26T10:29:16.426Z</time></trkpt><trkpt lat="44.1939717" lon="10.4942433"><ele>1625.0</ele><time>2026-04-26T10:29:17.426Z</time></trkpt><trkpt lat="44.1939633" lon="10.4941383"><ele>1624.9999999999998</ele><time>2026-04-26T10:29:18.426Z</time></trkpt><trkpt lat="44.1939717" lon="10.4940267"><ele>1625.0</ele><time>2026-04-26T10:29:19.426Z</time></trkpt><trkpt lat="44.194005" lon="10.4939183"><ele>1624.9999999999998</ele><time>2026-04-26T10:29:20.427Z</time></trkpt><trkpt lat="44.194035" lon="10.4938133"><ele>1625.0</ele><time>2026-04-26T10:29:21.426Z</time></trkpt><trkpt lat="44.1940833" lon="10.4937267"><ele>1625.0</ele><time>2026-04-26T10:29:22.426Z</time></trkpt><trkpt lat="44.1941433" lon="10.493645"><ele>1625.0</ele><time>2026-04-26T10:29:23.426Z</time></trkpt><trkpt lat="44.194215" lon="10.4935667"><ele>1624.9999999999998</ele><time>2026-04-26T10:29:24.426Z</time></trkpt><trkpt lat="44.1942933" lon="10.49346"><ele>1625.0</ele><time>2026-04-26T10:29:25.426Z</time></trkpt><trkpt lat="44.1943733" lon="10.493325"><ele>1624.0</ele><time>2026-04-26T10:29:26.426Z</time></trkpt><trkpt lat="44.194435" lon="10.4931683"><ele>1623.0</ele><time>2026-04-26T10:29:27.426Z</time></trkpt><trkpt lat="44.1944933" lon="10.4930033"><ele>1622.0</ele><time>2026-04-26T10:29:28.426Z</time></trkpt><trkpt lat="44.1945467" lon="10.4928233"><ele>1621.0</ele><time>2026-04-26T10:29:29.426Z</time></trkpt><trkpt lat="44.194615" lon="10.4926267"><ele>1618.6666666666667</ele><time>2026-04-26T10:29:30.426Z</time></trkpt><trkpt lat="44.1946917" lon="10.49242"><ele>1616.3333333333335</ele><time>2026-04-26T10:29:31.426Z</time></trkpt><trkpt lat="44.1947633" lon="10.4922267"><ele>1614.0</ele><time>2026-04-26T10:29:32.426Z</time></trkpt><trkpt lat="44.1948317" lon="10.49206"><ele>1617.6</ele><time>2026-04-26T10:29:33.426Z</time></trkpt><trkpt lat="44.1949" lon="10.491935"><ele>1621.2</ele><time>2026-04-26T10:29:34.426Z</time></trkpt><trkpt lat="44.1949617" lon="10.49182"><ele>1624.8</ele><time>2026-04-26T10:29:35.427Z</time></trkpt><trkpt lat="44.1950133" lon="10.49171"><ele>1628.3999999999999</ele><time>2026-04-26T10:29:36.426Z</time></trkpt><trkpt lat="44.1950467" lon="10.4916083"><ele>1632.0</ele><time>2026-04-26T10:29:37.426Z</time></trkpt><trkpt lat="44.1950933" lon="10.491485"><ele>1632.0</ele><time>2026-04-26T10:29:38.426Z</time></trkpt><trkpt lat="44.1951433" lon="10.491345"><ele>1632.0</ele><time>2026-04-26T10:29:39.426Z</time></trkpt><trkpt lat="44.1951933" lon="10.491195"><ele>1632.0</ele><time>2026-04-26T10:29:40.426Z</time></trkpt><trkpt lat="44.195255" lon="10.491025"><ele>1632.0</ele><time>2026-04-26T10:29:41.426Z</time></trkpt><trkpt lat="44.19532" lon="10.49084"><ele>1630.6666666666665</ele><time>2026-04-26T10:29:42.426Z</time></trkpt><trkpt lat="44.195385" lon="10.4906267"><ele>1629.3333333333333</ele><time>2026-04-26T10:29:43.427Z</time></trkpt><trkpt lat="44.19544" lon="10.49042"><ele>1628.0</ele><time>2026-04-26T10:29:44.426Z</time></trkpt><trkpt lat="44.1954917" lon="10.490225"><ele>1627.0</ele><time>2026-04-26T10:29:45.426Z</time></trkpt><trkpt lat="44.1955333" lon="10.49005"><ele>1626.0</ele><time>2026-04-26T10:29:46.426Z</time></trkpt><trkpt lat="44.1955683" lon="10.4899067"><ele>1625.0</ele><time>2026-04-26T10:29:47.426Z</time></trkpt><trkpt lat="44.1956017" lon="10.4897767"><ele>1624.0</ele><time>2026-04-26T10:29:48.426Z</time></trkpt><trkpt lat="44.1956367" lon="10.4896333"><ele>1623.0</ele><time>2026-04-26T10:29:49.426Z</time></trkpt><trkpt lat="44.19567" lon="10.4894733"><ele>1629.25</ele><time>2026-04-26T10:29:50.426Z</time></trkpt><trkpt lat="44.1956933" lon="10.489325"><ele>1635.5</ele><time>2026-04-26T10:29:51.426Z</time></trkpt><trkpt lat="44.19571" lon="10.4891833"><ele>1641.75</ele><time>2026-04-26T10:29:52.426Z</time></trkpt><trkpt lat="44.1957383" lon="10.4890183"><ele>1648.0</ele><time>2026-04-26T10:29:53.426Z</time></trkpt><trkpt lat="44.1957633" lon="10.4888433"><ele>1647.8000000000002</ele><time>2026-04-26T10:29:54.426Z</time></trkpt><trkpt lat="44.1957717" lon="10.48868"><ele>1647.6</ele><time>2026-04-26T10:29:55.426Z</time></trkpt><trkpt lat="44.1957717" lon="10.4885267"><ele>1647.4</ele><time>2026-04-26T10:29:56.426Z</time></trkpt><trkpt lat="44.1957683" lon="10.4883917"><ele>1647.1999999999998</ele><time>2026-04-26T10:29:57.426Z</time></trkpt><trkpt lat="44.1957517" lon="10.48829"><ele>1647.0</ele><time>2026-04-26T10:29:58.426Z</time></trkpt><trkpt lat="44.195735" lon="10.4882033"><ele>1647.0</ele><time>2026-04-26T10:29:59.427Z</time></trkpt><trkpt lat="44.1957267" lon="10.4880433"><ele>1647.0</ele><time>2026-04-26T10:30:01.426Z</time></trkpt><trkpt lat="44.1957133" lon="10.4879283"><ele>1647.0</ele><time>2026-04-26T10:30:03.426Z</time></trkpt><trkpt lat="44.1956967" lon="10.4878167"><ele>1647.0</ele><time>2026-04-26T10:30:05.426Z</time></trkpt><trkpt lat="44.1956833" lon="10.487695"><ele>1647.0</ele><time>2026-04-26T10:30:07.426Z</time></trkpt><trkpt lat="44.1956867" lon="10.4875783"><ele>1647.3999999999999</ele><time>2026-04-26T10:30:09.426Z</time></trkpt><trkpt lat="44.1957267" lon="10.4874933"><ele>1647.8</ele><time>2026-04-26T10:30:13.426Z</time></trkpt><trkpt lat="44.1956533" lon="10.4875233"><ele>1648.2</ele><time>2026-04-26T10:32:06.425Z</time></trkpt><trkpt lat="44.1957215" lon="10.4875255"><ele>1648.6</ele><time>2026-04-26T10:38:42.602Z</time></trkpt><trkpt lat="44.1958911" lon="10.4876819"><ele>1649.0</ele><time>2026-04-26T10:40:43.422Z</time></trkpt><trkpt lat="44.1959917" lon="10.4877855"><ele>1648.9999999999998</ele><time>2026-04-26T10:40:45.422Z</time></trkpt><trkpt lat="44.1960394" lon="10.4878466"><ele>1649.0</ele><time>2026-04-26T10:40:46.422Z</time></trkpt><trkpt lat="44.1960872" lon="10.487913"><ele>1649.0</ele><time>2026-04-26T10:40:47.422Z</time></trkpt><trkpt lat="44.1961894" lon="10.4879906"><ele>1649.0</ele><time>2026-04-26T10:40:49.422Z</time></trkpt><trkpt lat="44.1963" lon="10.487939"><ele>1648.9999999999998</ele><time>2026-04-26T10:40:51.422Z</time></trkpt><trkpt lat="44.1963583" lon="10.4878616"><ele>1649.0</ele><time>2026-04-26T10:40:52.422Z</time></trkpt><trkpt lat="44.196412" lon="10.4877565"><ele>1648.9999999999998</ele><time>2026-04-26T10:40:53.422Z</time></trkpt><trkpt lat="44.1964606" lon="10.4876572"><ele>1649.0</ele><time>2026-04-26T10:40:54.422Z</time></trkpt><trkpt lat="44.1965209" lon="10.4875747"><ele>1649.0</ele><time>2026-04-26T10:40:55.422Z</time></trkpt><trkpt lat="44.1965969" lon="10.4875176"><ele>1649.0</ele><time>2026-04-26T10:40:56.422Z</time></trkpt><trkpt lat="44.1966829" lon="10.4874758"><ele>1648.9999999999998</ele><time>2026-04-26T10:40:57.422Z</time></trkpt><trkpt lat="44.1967756" lon="10.4874389"><ele>1649.0</ele><time>2026-04-26T10:40:58.422Z</time></trkpt><trkpt lat="44.1968775" lon="10.4874071"><ele>1649.75</ele><time>2026-04-26T10:40:59.422Z</time></trkpt><trkpt lat="44.1969988" lon="10.4873874"><ele>1650.5</ele><time>2026-04-26T10:41:00.422Z</time></trkpt><trkpt lat="44.1971362" lon="10.4873768"><ele>1651.25</ele><time>2026-04-26T10:41:01.422Z</time></trkpt><trkpt lat="44.1972635" lon="10.4873673"><ele>1652.0</ele><time>2026-04-26T10:41:02.422Z</time></trkpt><trkpt lat="44.1973717" lon="10.4873535"><ele>1650.8</ele><time>2026-04-26T10:41:03.422Z</time></trkpt><trkpt lat="44.1974687" lon="10.4873478"><ele>1649.6</ele><time>2026-04-26T10:41:04.422Z</time></trkpt><trkpt lat="44.1975656" lon="10.487353"><ele>1648.3999999999999</ele><time>2026-04-26T10:41:05.422Z</time></trkpt><trkpt lat="44.1976667" lon="10.4873727"><ele>1647.1999999999998</ele><time>2026-04-26T10:41:06.422Z</time></trkpt><trkpt lat="44.1977734" lon="10.4874122"><ele>1646.0</ele><time>2026-04-26T10:41:07.422Z</time></trkpt><trkpt lat="44.1978971" lon="10.4874636"><ele>1646.0</ele><time>2026-04-26T10:41:08.423Z</time></trkpt><trkpt lat="44.1980321" lon="10.4875184"><ele>1646.0</ele><time>2026-04-26T10:41:09.422Z</time></trkpt><trkpt lat="44.1981766" lon="10.487581"><ele>1646.0</ele><time>2026-04-26T10:41:10.422Z</time></trkpt><trkpt lat="44.1983218" lon="10.4876587"><ele>1646.0</ele><time>2026-04-26T10:41:11.422Z</time></trkpt><trkpt lat="44.198458" lon="10.487734"><ele>1644.0</ele><time>2026-04-26T10:41:12.422Z</time></trkpt><trkpt lat="44.1985769" lon="10.4877873"><ele>1642.0</ele><time>2026-04-26T10:41:13.422Z</time></trkpt><trkpt lat="44.1986813" lon="10.4878158"><ele>1640.0</ele><time>2026-04-26T10:41:14.422Z</time></trkpt><trkpt lat="44.198775" lon="10.4878147"><ele>1638.0</ele><time>2026-04-26T10:41:15.422Z</time></trkpt><trkpt lat="44.1988681" lon="10.4877941"><ele>1636.0</ele><time>2026-04-26T10:41:16.422Z</time></trkpt><trkpt lat="44.1989629" lon="10.4877738"><ele>1634.1999999999998</ele><time>2026-04-26T10:41:17.422Z</time></trkpt><trkpt lat="44.1990549" lon="10.4877709"><ele>1632.3999999999999</ele><time>2026-04-26T10:41:18.423Z</time></trkpt><trkpt lat="44.1991523" lon="10.4877953"><ele>1630.6</ele><time>2026-04-26T10:41:19.422Z</time></trkpt><trkpt lat="44.1992571" lon="10.4878468"><ele>1628.8</ele><time>2026-04-26T10:41:20.422Z</time></trkpt><trkpt lat="44.1993594" lon="10.4879046"><ele>1627.0</ele><time>2026-04-26T10:41:21.422Z</time></trkpt><trkpt lat="44.1994579" lon="10.4879673"><ele>1628.6</ele><time>2026-04-26T10:41:22.422Z</time></trkpt><trkpt lat="44.199557" lon="10.4880357"><ele>1630.1999999999998</ele><time>2026-04-26T10:41:23.422Z</time></trkpt><trkpt lat="44.1996485" lon="10.4881035"><ele>1631.8</ele><time>2026-04-26T10:41:24.422Z</time></trkpt><trkpt lat="44.199731" lon="10.4881691"><ele>1633.4</ele><time>2026-04-26T10:41:25.422Z</time></trkpt><trkpt lat="44.1998058" lon="10.4882202"><ele>1635.0</ele><time>2026-04-26T10:41:26.422Z</time></trkpt><trkpt lat="44.1998803" lon="10.4882576"><ele>1635.0</ele><time>2026-04-26T10:41:27.422Z</time></trkpt><trkpt lat="44.1999613" lon="10.4882816"><ele>1635.0</ele><time>2026-04-26T10:41:28.422Z</time></trkpt><trkpt lat="44.2000442" lon="10.4882981"><ele>1635.0</ele><time>2026-04-26T10:41:29.422Z</time></trkpt><trkpt lat="44.2001226" lon="10.4883064"><ele>1635.0</ele><time>2026-04-26T10:41:30.422Z</time></trkpt><trkpt lat="44.2002007" lon="10.4883075"><ele>1635.0</ele><time>2026-04-26T10:41:31.422Z</time></trkpt><trkpt lat="44.2002752" lon="10.4882966"><ele>1635.0</ele><time>2026-04-26T10:41:32.422Z</time></trkpt><trkpt lat="44.2003409" lon="10.488272"><ele>1635.0</ele><time>2026-04-26T10:41:33.422Z</time></trkpt><trkpt lat="44.2004052" lon="10.4882386"><ele>1635.0</ele><time>2026-04-26T10:41:34.422Z</time></trkpt><trkpt lat="44.2004744" lon="10.4881938"><ele>1635.0</ele><time>2026-04-26T10:41:35.422Z</time></trkpt><trkpt lat="44.2005466" lon="10.4881496"><ele>1635.0</ele><time>2026-04-26T10:41:36.422Z</time></trkpt><trkpt lat="44.2006178" lon="10.4881085"><ele>1635.0</ele><time>2026-04-26T10:41:37.422Z</time></trkpt><trkpt lat="44.2006842" lon="10.4880786"><ele>1635.0</ele><time>2026-04-26T10:41:38.422Z</time></trkpt><trkpt lat="44.2007839" lon="10.488028"><ele>1633.3333333333333</ele><time>2026-04-26T10:41:40.423Z</time></trkpt><trkpt lat="44.2008588" lon="10.4879862"><ele>1631.6666666666665</ele><time>2026-04-26T10:41:42.422Z</time></trkpt><trkpt lat="44.2009493" lon="10.4879601"><ele>1630.0</ele><time>2026-04-26T10:41:44.422Z</time></trkpt><trkpt lat="44.2010479" lon="10.487972"><ele>1628.3333333333333</ele><time>2026-04-26T10:41:46.422Z</time></trkpt><trkpt lat="44.2011415" lon="10.4879764"><ele>1626.6666666666665</ele><time>2026-04-26T10:41:50.618Z</time></trkpt><trkpt lat="44.2012074" lon="10.487941"><ele>1625.0</ele><time>2026-04-26T10:41:52.437Z</time></trkpt><trkpt lat="44.2013102" lon="10.4878769"><ele>1622.6666666666665</ele><time>2026-04-26T10:41:54.422Z</time></trkpt><trkpt lat="44.2013671" lon="10.4878373"><ele>1620.3333333333333</ele><time>2026-04-26T10:41:55.422Z</time></trkpt><trkpt lat="44.2014248" lon="10.487791"><ele>1618.0</ele><time>2026-04-26T10:41:56.422Z</time></trkpt><trkpt lat="44.2014866" lon="10.4877347"><ele>1615.6666666666665</ele><time>2026-04-26T10:41:57.423Z</time></trkpt><trkpt lat="44.2015559" lon="10.4876739"><ele>1613.3333333333333</ele><time>2026-04-26T10:41:58.422Z</time></trkpt><trkpt lat="44.2016364" lon="10.4876063"><ele>1611.0</ele><time>2026-04-26T10:41:59.422Z</time></trkpt><trkpt lat="44.2017261" lon="10.4875345"><ele>1611.0</ele><time>2026-04-26T10:42:00.422Z</time></trkpt><trkpt lat="44.2018217" lon="10.487463"><ele>1611.0</ele><time>2026-04-26T10:42:01.422Z</time></trkpt><trkpt lat="44.2019295" lon="10.487392"><ele>1611.0</ele><time>2026-04-26T10:42:02.422Z</time></trkpt><trkpt lat="44.2020409" lon="10.4873159"><ele>1611.0</ele><time>2026-04-26T10:42:03.422Z</time></trkpt><trkpt lat="44.2021541" lon="10.4872338"><ele>1611.0</ele><time>2026-04-26T10:42:04.422Z</time></trkpt><trkpt lat="44.2022736" lon="10.4871617"><ele>1611.0</ele><time>2026-04-26T10:42:05.422Z</time></trkpt><trkpt lat="44.2023946" lon="10.4871217"><ele>1611.0</ele><time>2026-04-26T10:42:06.422Z</time></trkpt><trkpt lat="44.2025225" lon="10.487113"><ele>1611.0</ele><time>2026-04-26T10:42:07.422Z</time></trkpt><trkpt lat="44.2026599" lon="10.4871213"><ele>1608.6666666666665</ele><time>2026-04-26T10:42:08.422Z</time></trkpt><trkpt lat="44.2028093" lon="10.4871482"><ele>1606.3333333333333</ele><time>2026-04-26T10:42:09.422Z</time></trkpt><trkpt lat="44.2029572" lon="10.487183"><ele>1604.0</ele><time>2026-04-26T10:42:10.422Z</time></trkpt><trkpt lat="44.2031075" lon="10.4872233"><ele>1604.25</ele><time>2026-04-26T10:42:11.422Z</time></trkpt><trkpt lat="44.2032477" lon="10.4872793"><ele>1604.5</ele><time>2026-04-26T10:42:12.422Z</time></trkpt><trkpt lat="44.2033812" lon="10.4873659"><ele>1604.75</ele><time>2026-04-26T10:42:13.422Z</time></trkpt><trkpt lat="44.203497" lon="10.4874722"><ele>1605.0</ele><time>2026-04-26T10:42:14.422Z</time></trkpt><trkpt lat="44.2036131" lon="10.4875729"><ele>1605.0</ele><time>2026-04-26T10:42:15.422Z</time></trkpt><trkpt lat="44.203731" lon="10.4876514"><ele>1605.0</ele><time>2026-04-26T10:42:16.422Z</time></trkpt><trkpt lat="44.2038561" lon="10.4876974"><ele>1605.0</ele><time>2026-04-26T10:42:17.422Z</time></trkpt><trkpt lat="44.2039808" lon="10.4877201"><ele>1605.0</ele><time>2026-04-26T10:42:18.422Z</time></trkpt><trkpt lat="44.2041156" lon="10.48772"><ele>1605.5</ele><time>2026-04-26T10:42:19.423Z</time></trkpt><trkpt lat="44.2042533" lon="10.4877066"><ele>1606.0</ele><time>2026-04-26T10:42:20.422Z</time></trkpt><trkpt lat="44.2043855" lon="10.4876819"><ele>1606.5</ele><time>2026-04-26T10:42:21.423Z</time></trkpt><trkpt lat="44.2045162" lon="10.4876446"><ele>1607.0</ele><time>2026-04-26T10:42:22.422Z</time></trkpt><trkpt lat="44.2046465" lon="10.4876085"><ele>1607.0</ele><time>2026-04-26T10:42:23.422Z</time></trkpt><trkpt lat="44.204779" lon="10.4875702"><ele>1607.0</ele><time>2026-04-26T10:42:24.422Z</time></trkpt><trkpt lat="44.2049056" lon="10.4875124"><ele>1607.0</ele><time>2026-04-26T10:42:25.422Z</time></trkpt><trkpt lat="44.2050273" lon="10.4874288"><ele>1607.0</ele><time>2026-04-26T10:42:26.422Z</time></trkpt><trkpt lat="44.205136" lon="10.4873368"><ele>1603.0</ele><time>2026-04-26T10:42:27.423Z</time></trkpt><trkpt lat="44.2052336" lon="10.4872614"><ele>1599.0</ele><time>2026-04-26T10:42:28.422Z</time></trkpt><trkpt lat="44.2053411" lon="10.4872182"><ele>1595.0</ele><time>2026-04-26T10:42:29.422Z</time></trkpt><trkpt lat="44.2054573" lon="10.4872175"><ele>1591.0</ele><time>2026-04-26T10:42:30.422Z</time></trkpt><trkpt lat="44.205576" lon="10.487256"><ele>1585.6666666666667</ele><time>2026-04-26T10:42:31.422Z</time></trkpt><trkpt lat="44.2057115" lon="10.4873043"><ele>1580.3333333333335</ele><time>2026-04-26T10:42:32.422Z</time></trkpt><trkpt lat="44.20587" lon="10.487343"><ele>1575.0</ele><time>2026-04-26T10:42:33.422Z</time></trkpt><trkpt lat="44.2060428" lon="10.4873801"><ele>1575.0</ele><time>2026-04-26T10:42:34.422Z</time></trkpt><trkpt lat="44.2062142" lon="10.4874343"><ele>1575.0</ele><time>2026-04-26T10:42:35.422Z</time></trkpt><trkpt lat="44.2063779" lon="10.4875056"><ele>1575.0</ele><time>2026-04-26T10:42:36.422Z</time></trkpt><trkpt lat="44.2065344" lon="10.487581"><ele>1572.0</ele><time>2026-04-26T10:42:37.422Z</time></trkpt><trkpt lat="44.2066867" lon="10.4876281"><ele>1569.0</ele><time>2026-04-26T10:42:38.422Z</time></trkpt><trkpt lat="44.2068423" lon="10.4876363"><ele>1566.0</ele><time>2026-04-26T10:42:39.422Z</time></trkpt><trkpt lat="44.2069974" lon="10.4876251"><ele>1566.0</ele><time>2026-04-26T10:42:40.422Z</time></trkpt><trkpt lat="44.2071447" lon="10.4876114"><ele>1566.0</ele><time>2026-04-26T10:42:41.422Z</time></trkpt><trkpt lat="44.2072807" lon="10.4876341"><ele>1566.0</ele><time>2026-04-26T10:42:42.422Z</time></trkpt><trkpt lat="44.2074126" lon="10.4877165"><ele>1566.0</ele><time>2026-04-26T10:42:43.422Z</time></trkpt><trkpt lat="44.2075321" lon="10.4878462"><ele>1559.0</ele><time>2026-04-26T10:42:44.422Z</time></trkpt><trkpt lat="44.2076365" lon="10.4879845"><ele>1552.0</ele><time>2026-04-26T10:42:45.422Z</time></trkpt><trkpt lat="44.2077312" lon="10.4881197"><ele>1545.0</ele><time>2026-04-26T10:42:46.422Z</time></trkpt><trkpt lat="44.2078365" lon="10.4882306"><ele>1538.0</ele><time>2026-04-26T10:42:47.422Z</time></trkpt><trkpt lat="44.2079471" lon="10.4882835"><ele>1538.0</ele><time>2026-04-26T10:42:48.422Z</time></trkpt><trkpt lat="44.2080732" lon="10.48827"><ele>1538.0</ele><time>2026-04-26T10:42:49.422Z</time></trkpt><trkpt lat="44.2082058" lon="10.4882619"><ele>1538.0</ele><time>2026-04-26T10:42:50.422Z</time></trkpt><trkpt lat="44.2083315" lon="10.4882938"><ele>1538.0</ele><time>2026-04-26T10:42:51.422Z</time></trkpt><trkpt lat="44.2084578" lon="10.4883599"><ele>1537.0</ele><time>2026-04-26T10:42:52.422Z</time></trkpt><trkpt lat="44.2085816" lon="10.4884279"><ele>1536.0</ele><time>2026-04-26T10:42:53.422Z</time></trkpt><trkpt lat="44.2086919" lon="10.4884852"><ele>1535.0</ele><time>2026-04-26T10:42:54.422Z</time></trkpt><trkpt lat="44.2088002" lon="10.4885311"><ele>1534.0</ele><time>2026-04-26T10:42:55.422Z</time></trkpt><trkpt lat="44.2088958" lon="10.4885625"><ele>1534.0</ele><time>2026-04-26T10:42:56.422Z</time></trkpt><trkpt lat="44.2089762" lon="10.4885893"><ele>1534.0</ele><time>2026-04-26T10:42:57.422Z</time></trkpt><trkpt lat="44.2090514" lon="10.4886136"><ele>1534.0</ele><time>2026-04-26T10:42:58.422Z</time></trkpt><trkpt lat="44.2091148" lon="10.488643"><ele>1534.0</ele><time>2026-04-26T10:42:59.422Z</time></trkpt><trkpt lat="44.2091808" lon="10.488723"><ele>1534.0</ele><time>2026-04-26T10:43:01.423Z</time></trkpt><trkpt lat="44.2091741" lon="10.4888387"><ele>1534.0</ele><time>2026-04-26T10:43:03.422Z</time></trkpt><trkpt lat="44.2090609" lon="10.4889455"><ele>1528.0</ele><time>2026-04-26T10:43:05.422Z</time></trkpt><trkpt lat="44.2089519" lon="10.4889852"><ele>1522.0</ele><time>2026-04-26T10:43:06.422Z</time></trkpt><trkpt lat="44.2088127" lon="10.4890007"><ele>1516.0</ele><time>2026-04-26T10:43:07.422Z</time></trkpt><trkpt lat="44.2086451" lon="10.4889635"><ele>1510.0</ele><time>2026-04-26T10:43:08.422Z</time></trkpt><trkpt lat="44.2084454" lon="10.4888912"><ele>1510.0</ele><time>2026-04-26T10:43:09.422Z</time></trkpt><trkpt lat="44.2082633" lon="10.4888281"><ele>1510.0</ele><time>2026-04-26T10:43:10.422Z</time></trkpt><trkpt lat="44.2080979" lon="10.4888077"><ele>1510.0</ele><time>2026-04-26T10:43:11.422Z</time></trkpt><trkpt lat="44.2079474" lon="10.4888273"><ele>1511.3333333333333</ele><time>2026-04-26T10:43:12.421Z</time></trkpt><trkpt lat="44.2078059" lon="10.4888851"><ele>1512.6666666666667</ele><time>2026-04-26T10:43:13.421Z</time></trkpt><trkpt lat="44.2076638" lon="10.4889783"><ele>1514.0</ele><time>2026-04-26T10:43:14.421Z</time></trkpt><trkpt lat="44.2075252" lon="10.4890759"><ele>1514.0</ele><time>2026-04-26T10:43:15.421Z</time></trkpt><trkpt lat="44.2074009" lon="10.4891667"><ele>1514.0</ele><time>2026-04-26T10:43:16.421Z</time></trkpt><trkpt lat="44.2072968" lon="10.4892895"><ele>1514.0</ele><time>2026-04-26T10:43:17.421Z</time></trkpt><trkpt lat="44.2071977" lon="10.4894613"><ele>1514.0</ele><time>2026-04-26T10:43:18.422Z</time></trkpt><trkpt lat="44.2070891" lon="10.4896297"><ele>1511.25</ele><time>2026-04-26T10:43:19.421Z</time></trkpt><trkpt lat="44.2069624" lon="10.4897427"><ele>1508.5</ele><time>2026-04-26T10:43:20.421Z</time></trkpt><trkpt lat="44.206823" lon="10.4898146"><ele>1505.75</ele><time>2026-04-26T10:43:21.421Z</time></trkpt><trkpt lat="44.206678" lon="10.4898496"><ele>1503.0</ele><time>2026-04-26T10:43:22.421Z</time></trkpt><trkpt lat="44.2065478" lon="10.4898938"><ele>1508.0</ele><time>2026-04-26T10:43:23.421Z</time></trkpt><trkpt lat="44.2064276" lon="10.4899619"><ele>1513.0</ele><time>2026-04-26T10:43:24.421Z</time></trkpt><trkpt lat="44.2063428" lon="10.4900578"><ele>1518.0</ele><time>2026-04-26T10:43:25.421Z</time></trkpt><trkpt lat="44.2062639" lon="10.4902107"><ele>1523.0</ele><time>2026-04-26T10:43:26.421Z</time></trkpt><trkpt lat="44.2061597" lon="10.4903536"><ele>1516.75</ele><time>2026-04-26T10:43:27.421Z</time></trkpt><trkpt lat="44.2060414" lon="10.4904541"><ele>1510.5</ele><time>2026-04-26T10:43:28.421Z</time></trkpt><trkpt lat="44.2059355" lon="10.4905544"><ele>1504.25</ele><time>2026-04-26T10:43:29.421Z</time></trkpt><trkpt lat="44.2058382" lon="10.490692"><ele>1498.0</ele><time>2026-04-26T10:43:30.421Z</time></trkpt><trkpt lat="44.2057559" lon="10.4908867"><ele>1498.0</ele><time>2026-04-26T10:43:31.422Z</time></trkpt><trkpt lat="44.2056811" lon="10.4911037"><ele>1498.0</ele><time>2026-04-26T10:43:32.421Z</time></trkpt><trkpt lat="44.2056175" lon="10.4913153"><ele>1498.0</ele><time>2026-04-26T10:43:33.422Z</time></trkpt><trkpt lat="44.2055542" lon="10.4915039"><ele>1497.5</ele><time>2026-04-26T10:43:34.421Z</time></trkpt><trkpt lat="44.2054902" lon="10.4916831"><ele>1497.0</ele><time>2026-04-26T10:43:35.421Z</time></trkpt><trkpt lat="44.2054399" lon="10.4918551"><ele>1496.5</ele><time>2026-04-26T10:43:36.421Z</time></trkpt><trkpt lat="44.2054091" lon="10.4920155"><ele>1496.0</ele><time>2026-04-26T10:43:37.421Z</time></trkpt><trkpt lat="44.2054" lon="10.4921578"><ele>1494.6</ele><time>2026-04-26T10:43:38.421Z</time></trkpt><trkpt lat="44.2054147" lon="10.4922933"><ele>1493.1999999999998</ele><time>2026-04-26T10:43:39.421Z</time></trkpt><trkpt lat="44.205447" lon="10.4924151"><ele>1491.8000000000002</ele><time>2026-04-26T10:43:40.421Z</time></trkpt><trkpt lat="44.2054923" lon="10.4925254"><ele>1490.4</ele><time>2026-04-26T10:43:41.422Z</time></trkpt><trkpt lat="44.2055567" lon="10.4926025"><ele>1489.0</ele><time>2026-04-26T10:43:42.421Z</time></trkpt><trkpt lat="44.2056594" lon="10.4926579"><ele>1485.3333333333333</ele><time>2026-04-26T10:43:43.421Z</time></trkpt><trkpt lat="44.2058121" lon="10.4927026"><ele>1481.6666666666667</ele><time>2026-04-26T10:43:44.421Z</time></trkpt><trkpt lat="44.2059618" lon="10.4927701"><ele>1478.0</ele><time>2026-04-26T10:43:45.421Z</time></trkpt><trkpt lat="44.2060849" lon="10.4928552"><ele>1478.2</ele><time>2026-04-26T10:43:46.421Z</time></trkpt><trkpt lat="44.2061876" lon="10.4929585"><ele>1478.4</ele><time>2026-04-26T10:43:47.421Z</time></trkpt><trkpt lat="44.2062636" lon="10.4930794"><ele>1478.6000000000001</ele><time>2026-04-26T10:43:48.421Z</time></trkpt><trkpt lat="44.2063147" lon="10.4932075"><ele>1478.8000000000002</ele><time>2026-04-26T10:43:49.421Z</time></trkpt><trkpt lat="44.2063383" lon="10.4933256"><ele>1479.0</ele><time>2026-04-26T10:43:50.421Z</time></trkpt><trkpt lat="44.2063309" lon="10.4934297"><ele>1479.0</ele><time>2026-04-26T10:43:51.421Z</time></trkpt><trkpt lat="44.2063029" lon="10.4935213"><ele>1479.0</ele><time>2026-04-26T10:43:52.421Z</time></trkpt><trkpt lat="44.2062549" lon="10.4936003"><ele>1479.0</ele><time>2026-04-26T10:43:53.421Z</time></trkpt><trkpt lat="44.2061578" lon="10.4936713"><ele>1479.0</ele><time>2026-04-26T10:43:54.421Z</time></trkpt><trkpt lat="44.2060416" lon="10.4937491"><ele>1479.0</ele><time>2026-04-26T10:43:55.421Z</time></trkpt><trkpt lat="44.2059126" lon="10.4938356"><ele>1473.0</ele><time>2026-04-26T10:43:56.421Z</time></trkpt><trkpt lat="44.205802" lon="10.4939372"><ele>1467.0</ele><time>2026-04-26T10:43:57.421Z</time></trkpt><trkpt lat="44.2056902" lon="10.4940084"><ele>1461.0</ele><time>2026-04-26T10:43:58.421Z</time></trkpt><trkpt lat="44.2055735" lon="10.4940366"><ele>1455.0</ele><time>2026-04-26T10:43:59.421Z</time></trkpt><trkpt lat="44.205458" lon="10.4940368"><ele>1453.75</ele><time>2026-04-26T10:44:00.421Z</time></trkpt><trkpt lat="44.2053345" lon="10.4940098"><ele>1452.5</ele><time>2026-04-26T10:44:01.421Z</time></trkpt><trkpt lat="44.2052145" lon="10.493985"><ele>1451.25</ele><time>2026-04-26T10:44:02.421Z</time></trkpt><trkpt lat="44.2050905" lon="10.4939822"><ele>1450.0</ele><time>2026-04-26T10:44:03.421Z</time></trkpt><trkpt lat="44.2049593" lon="10.4940068"><ele>1447.75</ele><time>2026-04-26T10:44:04.421Z</time></trkpt><trkpt lat="44.2048235" lon="10.4940316"><ele>1445.5</ele><time>2026-04-26T10:44:05.421Z</time></trkpt><trkpt lat="44.2046759" lon="10.4940345"><ele>1443.25</ele><time>2026-04-26T10:44:06.422Z</time></trkpt><trkpt lat="44.2045253" lon="10.494"><ele>1441.0</ele><time>2026-04-26T10:44:07.421Z</time></trkpt><trkpt lat="44.2043923" lon="10.4939271"><ele>1441.0</ele><time>2026-04-26T10:44:08.421Z</time></trkpt><trkpt lat="44.2042767" lon="10.4938488"><ele>1441.0</ele><time>2026-04-26T10:44:09.422Z</time></trkpt><trkpt lat="44.2041729" lon="10.493808"><ele>1441.0</ele><time>2026-04-26T10:44:10.421Z</time></trkpt><trkpt lat="44.204068" lon="10.4938231"><ele>1441.0</ele><time>2026-04-26T10:44:11.421Z</time></trkpt><trkpt lat="44.2039633" lon="10.4939011"><ele>1446.3333333333333</ele><time>2026-04-26T10:44:12.421Z</time></trkpt><trkpt lat="44.2038524" lon="10.4940318"><ele>1451.6666666666667</ele><time>2026-04-26T10:44:13.421Z</time></trkpt><trkpt lat="44.203735" lon="10.4941607"><ele>1457.0</ele><time>2026-04-26T10:44:14.421Z</time></trkpt><trkpt lat="44.203605" lon="10.4942823"><ele>1457.0</ele><time>2026-04-26T10:44:15.421Z</time></trkpt><trkpt lat="44.2034905" lon="10.494414"><ele>1457.0</ele><time>2026-04-26T10:44:16.421Z</time></trkpt><trkpt lat="44.2033835" lon="10.4945716"><ele>1457.0</ele><time>2026-04-26T10:44:17.421Z</time></trkpt><trkpt lat="44.203291" lon="10.4947321"><ele>1459.75</ele><time>2026-04-26T10:44:18.421Z</time></trkpt><trkpt lat="44.2032215" lon="10.4948879"><ele>1462.5</ele><time>2026-04-26T10:44:19.421Z</time></trkpt><trkpt lat="44.2031577" lon="10.4950541"><ele>1465.25</ele><time>2026-04-26T10:44:20.421Z</time></trkpt><trkpt lat="44.2030964" lon="10.495219"><ele>1468.0</ele><time>2026-04-26T10:44:21.421Z</time></trkpt><trkpt lat="44.2030273" lon="10.4953815"><ele>1458.5</ele><time>2026-04-26T10:44:22.421Z</time></trkpt><trkpt lat="44.2029425" lon="10.4955342"><ele>1449.0</ele><time>2026-04-26T10:44:23.421Z</time></trkpt><trkpt lat="44.2028487" lon="10.4956803"><ele>1439.5</ele><time>2026-04-26T10:44:24.421Z</time></trkpt><trkpt lat="44.2027475" lon="10.4958031"><ele>1430.0</ele><time>2026-04-26T10:44:25.421Z</time></trkpt><trkpt lat="44.202652" lon="10.4959026"><ele>1430.0</ele><time>2026-04-26T10:44:26.421Z</time></trkpt><trkpt lat="44.202536" lon="10.4959744"><ele>1430.0</ele><time>2026-04-26T10:44:27.421Z</time></trkpt><trkpt lat="44.2024345" lon="10.4960489"><ele>1430.0</ele><time>2026-04-26T10:44:28.421Z</time></trkpt><trkpt lat="44.2023522" lon="10.4961438"><ele>1430.0</ele><time>2026-04-26T10:44:29.421Z</time></trkpt><trkpt lat="44.2023005" lon="10.4962683"><ele>1434.0</ele><time>2026-04-26T10:44:30.421Z</time></trkpt><trkpt lat="44.2022856" lon="10.4964212"><ele>1438.0</ele><time>2026-04-26T10:44:31.421Z</time></trkpt><trkpt lat="44.202293" lon="10.4966061"><ele>1442.0</ele><time>2026-04-26T10:44:32.421Z</time></trkpt><trkpt lat="44.2022891" lon="10.4967899"><ele>1446.0</ele><time>2026-04-26T10:44:33.421Z</time></trkpt><trkpt lat="44.2022683" lon="10.4969504"><ele>1439.25</ele><time>2026-04-26T10:44:34.421Z</time></trkpt><trkpt lat="44.2022057" lon="10.4970924"><ele>1432.5</ele><time>2026-04-26T10:44:35.421Z</time></trkpt><trkpt lat="44.2021101" lon="10.4972038"><ele>1425.75</ele><time>2026-04-26T10:44:36.421Z</time></trkpt><trkpt lat="44.2019898" lon="10.497297"><ele>1419.0</ele><time>2026-04-26T10:44:37.421Z</time></trkpt><trkpt lat="44.2018636" lon="10.4973789"><ele>1419.0</ele><time>2026-04-26T10:44:38.422Z</time></trkpt><trkpt lat="44.2017487" lon="10.4974726"><ele>1419.0</ele><time>2026-04-26T10:44:39.421Z</time></trkpt><trkpt lat="44.2016338" lon="10.4975895"><ele>1419.0</ele><time>2026-04-26T10:44:40.421Z</time></trkpt><trkpt lat="44.201534" lon="10.4977543"><ele>1419.0</ele><time>2026-04-26T10:44:41.421Z</time></trkpt><trkpt lat="44.2014301" lon="10.4979499"><ele>1419.6666666666667</ele><time>2026-04-26T10:44:42.421Z</time></trkpt><trkpt lat="44.2013158" lon="10.4981548"><ele>1420.3333333333335</ele><time>2026-04-26T10:44:43.421Z</time></trkpt><trkpt lat="44.2011834" lon="10.4983398"><ele>1421.0</ele><time>2026-04-26T10:44:44.421Z</time></trkpt><trkpt lat="44.2010384" lon="10.4985013"><ele>1421.0</ele><time>2026-04-26T10:44:45.421Z</time></trkpt><trkpt lat="44.2008852" lon="10.498631"><ele>1421.0</ele><time>2026-04-26T10:44:46.421Z</time></trkpt><trkpt lat="44.2007274" lon="10.4987363"><ele>1421.0</ele><time>2026-04-26T10:44:47.421Z</time></trkpt><trkpt lat="44.2005684" lon="10.498817"><ele>1418.5</ele><time>2026-04-26T10:44:48.421Z</time></trkpt><trkpt lat="44.2004278" lon="10.4988898"><ele>1416.0</ele><time>2026-04-26T10:44:49.421Z</time></trkpt><trkpt lat="44.2002908" lon="10.4989818"><ele>1413.5</ele><time>2026-04-26T10:44:50.421Z</time></trkpt><trkpt lat="44.2001765" lon="10.4990979"><ele>1411.0</ele><time>2026-04-26T10:44:51.421Z</time></trkpt><trkpt lat="44.2000731" lon="10.4992252"><ele>1411.0</ele><time>2026-04-26T10:44:52.421Z</time></trkpt><trkpt lat="44.1999718" lon="10.4993524"><ele>1411.0</ele><time>2026-04-26T10:44:53.421Z</time></trkpt><trkpt lat="44.1998568" lon="10.4994675"><ele>1411.0</ele><time>2026-04-26T10:44:54.421Z</time></trkpt><trkpt lat="44.1997424" lon="10.4995927"><ele>1411.0</ele><time>2026-04-26T10:44:55.421Z</time></trkpt><trkpt lat="44.1996368" lon="10.499742"><ele>1410.3333333333333</ele><time>2026-04-26T10:44:56.421Z</time></trkpt><trkpt lat="44.1995494" lon="10.4999163"><ele>1409.6666666666667</ele><time>2026-04-26T10:44:57.421Z</time></trkpt><trkpt lat="44.1994734" lon="10.5001035"><ele>1409.0</ele><time>2026-04-26T10:44:58.421Z</time></trkpt><trkpt lat="44.1994092" lon="10.500304"><ele>1401.3333333333335</ele><time>2026-04-26T10:44:59.421Z</time></trkpt><trkpt lat="44.1993316" lon="10.5005012"><ele>1393.6666666666667</ele><time>2026-04-26T10:45:00.421Z</time></trkpt><trkpt lat="44.1992413" lon="10.5006752"><ele>1386.0</ele><time>2026-04-26T10:45:01.421Z</time></trkpt><trkpt lat="44.1991287" lon="10.5008068"><ele>1393.3333333333333</ele><time>2026-04-26T10:45:02.421Z</time></trkpt><trkpt lat="44.1989963" lon="10.5009088"><ele>1400.6666666666665</ele><time>2026-04-26T10:45:03.421Z</time></trkpt><trkpt lat="44.1988645" lon="10.5010197"><ele>1408.0</ele><time>2026-04-26T10:45:04.421Z</time></trkpt><trkpt lat="44.1987464" lon="10.5011621"><ele>1398.3333333333333</ele><time>2026-04-26T10:45:05.421Z</time></trkpt><trkpt lat="44.198633" lon="10.5013159"><ele>1388.6666666666667</ele><time>2026-04-26T10:45:06.421Z</time></trkpt><trkpt lat="44.1985158" lon="10.5014382"><ele>1379.0</ele><time>2026-04-26T10:45:07.421Z</time></trkpt><trkpt lat="44.1983869" lon="10.5015328"><ele>1379.0</ele><time>2026-04-26T10:45:08.422Z</time></trkpt><trkpt lat="44.1982637" lon="10.5016042"><ele>1379.0</ele><time>2026-04-26T10:45:09.421Z</time></trkpt><trkpt lat="44.1981456" lon="10.5016633"><ele>1379.0</ele><time>2026-04-26T10:45:10.421Z</time></trkpt><trkpt lat="44.1980519" lon="10.5017377"><ele>1379.0</ele><time>2026-04-26T10:45:11.421Z</time></trkpt><trkpt lat="44.1979925" lon="10.5018437"><ele>1380.75</ele><time>2026-04-26T10:45:12.421Z</time></trkpt><trkpt lat="44.1979543" lon="10.5019796"><ele>1382.5</ele><time>2026-04-26T10:45:13.421Z</time></trkpt><trkpt lat="44.1979403" lon="10.5021478"><ele>1384.25</ele><time>2026-04-26T10:45:14.421Z</time></trkpt><trkpt lat="44.1979254" lon="10.5023203"><ele>1386.0</ele><time>2026-04-26T10:45:15.421Z</time></trkpt><trkpt lat="44.1978916" lon="10.5024788"><ele>1386.0</ele><time>2026-04-26T10:45:16.421Z</time></trkpt><trkpt lat="44.1978311" lon="10.5025945"><ele>1386.0</ele><time>2026-04-26T10:45:17.421Z</time></trkpt><trkpt lat="44.1977588" lon="10.5026819"><ele>1386.0</ele><time>2026-04-26T10:45:18.421Z</time></trkpt><trkpt lat="44.1976935" lon="10.5027668"><ele>1386.0</ele><time>2026-04-26T10:45:19.421Z</time></trkpt><trkpt lat="44.1976324" lon="10.5028547"><ele>1386.0</ele><time>2026-04-26T10:45:20.421Z</time></trkpt><trkpt lat="44.1976074" lon="10.5029524"><ele>1383.0</ele><time>2026-04-26T10:45:21.421Z</time></trkpt><trkpt lat="44.1976244" lon="10.5030706"><ele>1380.0</ele><time>2026-04-26T10:45:22.421Z</time></trkpt><trkpt lat="44.1976645" lon="10.503224"><ele>1377.0</ele><time>2026-04-26T10:45:23.421Z</time></trkpt><trkpt lat="44.1976803" lon="10.5033802"><ele>1374.0</ele><time>2026-04-26T10:45:24.421Z</time></trkpt><trkpt lat="44.1976627" lon="10.5035094"><ele>1371.0</ele><time>2026-04-26T10:45:25.421Z</time></trkpt><trkpt lat="44.1976133" lon="10.5036084"><ele>1371.0</ele><time>2026-04-26T10:45:26.421Z</time></trkpt><trkpt lat="44.1975464" lon="10.5036851"><ele>1371.0</ele><time>2026-04-26T10:45:27.421Z</time></trkpt><trkpt lat="44.1974653" lon="10.5037495"><ele>1371.0</ele><time>2026-04-26T10:45:28.421Z</time></trkpt><trkpt lat="44.1973734" lon="10.5038044"><ele>1371.0</ele><time>2026-04-26T10:45:29.421Z</time></trkpt><trkpt lat="44.197281" lon="10.503858"><ele>1371.0</ele><time>2026-04-26T10:45:30.421Z</time></trkpt><trkpt lat="44.1971972" lon="10.5039338"><ele>1374.75</ele><time>2026-04-26T10:45:31.421Z</time></trkpt><trkpt lat="44.197129" lon="10.5040419"><ele>1378.5</ele><time>2026-04-26T10:45:32.421Z</time></trkpt><trkpt lat="44.1970754" lon="10.5041745"><ele>1382.25</ele><time>2026-04-26T10:45:33.421Z</time></trkpt><trkpt lat="44.1970356" lon="10.5043349"><ele>1386.0</ele><time>2026-04-26T10:45:34.421Z</time></trkpt><trkpt lat="44.1969974" lon="10.5045523"><ele>1382.0</ele><time>2026-04-26T10:45:35.421Z</time></trkpt><trkpt lat="44.1969595" lon="10.5047767"><ele>1378.0</ele><time>2026-04-26T10:45:36.421Z</time></trkpt><trkpt lat="44.1969238" lon="10.5049882"><ele>1374.0</ele><time>2026-04-26T10:45:37.421Z</time></trkpt><trkpt lat="44.1968949" lon="10.5051833"><ele>1374.0</ele><time>2026-04-26T10:45:38.421Z</time></trkpt><trkpt lat="44.1968787" lon="10.505352"><ele>1374.0</ele><time>2026-04-26T10:45:39.422Z</time></trkpt><trkpt lat="44.1968588" lon="10.5055048"><ele>1374.0</ele><time>2026-04-26T10:45:40.421Z</time></trkpt><trkpt lat="44.196836" lon="10.5056472"><ele>1374.0</ele><time>2026-04-26T10:45:41.421Z</time></trkpt><trkpt lat="44.1968116" lon="10.5057836"><ele>1374.0</ele><time>2026-04-26T10:45:42.421Z</time></trkpt><trkpt lat="44.1967868" lon="10.5059221"><ele>1371.5</ele><time>2026-04-26T10:45:43.421Z</time></trkpt><trkpt lat="44.1967602" lon="10.5060661"><ele>1369.0</ele><time>2026-04-26T10:45:44.421Z</time></trkpt><trkpt lat="44.1967238" lon="10.5062233"><ele>1366.5</ele><time>2026-04-26T10:45:45.421Z</time></trkpt><trkpt lat="44.1966779" lon="10.5063866"><ele>1364.0</ele><time>2026-04-26T10:45:46.421Z</time></trkpt><trkpt lat="44.1966296" lon="10.5065524"><ele>1361.75</ele><time>2026-04-26T10:45:47.421Z</time></trkpt><trkpt lat="44.1965769" lon="10.5067199"><ele>1359.5</ele><time>2026-04-26T10:45:48.421Z</time></trkpt><trkpt lat="44.1965368" lon="10.5068938"><ele>1357.25</ele><time>2026-04-26T10:45:49.421Z</time></trkpt><trkpt lat="44.1965088" lon="10.5070703"><ele>1355.0</ele><time>2026-04-26T10:45:50.421Z</time></trkpt><trkpt lat="44.1964973" lon="10.5072311"><ele>1360.5</ele><time>2026-04-26T10:45:51.421Z</time></trkpt><trkpt lat="44.1964891" lon="10.507387"><ele>1366.0</ele><time>2026-04-26T10:45:52.421Z</time></trkpt><trkpt lat="44.1964626" lon="10.5075367"><ele>1371.5</ele><time>2026-04-26T10:45:53.421Z</time></trkpt><trkpt lat="44.1964139" lon="10.5076804"><ele>1377.0</ele><time>2026-04-26T10:45:54.421Z</time></trkpt><trkpt lat="44.1963489" lon="10.5078432"><ele>1370.3333333333333</ele><time>2026-04-26T10:45:55.422Z</time></trkpt><trkpt lat="44.1962733" lon="10.5080434"><ele>1363.6666666666665</ele><time>2026-04-26T10:45:56.421Z</time></trkpt><trkpt lat="44.1962045" lon="10.5082579"><ele>1357.0</ele><time>2026-04-26T10:45:57.421Z</time></trkpt><trkpt lat="44.1961395" lon="10.5084641"><ele>1357.0</ele><time>2026-04-26T10:45:58.422Z</time></trkpt><trkpt lat="44.1960758" lon="10.5086648"><ele>1357.0</ele><time>2026-04-26T10:45:59.421Z</time></trkpt><trkpt lat="44.1960024" lon="10.5088603"><ele>1357.0</ele><time>2026-04-26T10:46:00.421Z</time></trkpt><trkpt lat="44.195924" lon="10.5090328"><ele>1354.25</ele><time>2026-04-26T10:46:01.422Z</time></trkpt><trkpt lat="44.1958456" lon="10.5091818"><ele>1351.5</ele><time>2026-04-26T10:46:02.421Z</time></trkpt><trkpt lat="44.1957712" lon="10.5093239"><ele>1348.75</ele><time>2026-04-26T10:46:03.421Z</time></trkpt><trkpt lat="44.1956979" lon="10.5094924"><ele>1346.0</ele><time>2026-04-26T10:46:04.421Z</time></trkpt><trkpt lat="44.1956595" lon="10.5097006"><ele>1346.0</ele><time>2026-04-26T10:46:05.421Z</time></trkpt><trkpt lat="44.1956467" lon="10.5099531"><ele>1346.0</ele><time>2026-04-26T10:46:06.421Z</time></trkpt><trkpt lat="44.195641" lon="10.5102307"><ele>1346.0</ele><time>2026-04-26T10:46:07.421Z</time></trkpt><trkpt lat="44.19564" lon="10.5105159"><ele>1343.6666666666667</ele><time>2026-04-26T10:46:08.421Z</time></trkpt><trkpt lat="44.195654" lon="10.5108145"><ele>1341.3333333333333</ele><time>2026-04-26T10:46:09.421Z</time></trkpt><trkpt lat="44.1956811" lon="10.5111084"><ele>1339.0</ele><time>2026-04-26T10:46:10.421Z</time></trkpt><trkpt lat="44.1957222" lon="10.511382"><ele>1334.6666666666665</ele><time>2026-04-26T10:46:11.42Z</time></trkpt><trkpt lat="44.1957555" lon="10.5116464"><ele>1330.3333333333333</ele><time>2026-04-26T10:46:12.42Z</time></trkpt><trkpt lat="44.1957999" lon="10.5118806"><ele>1326.0</ele><time>2026-04-26T10:46:13.42Z</time></trkpt><trkpt lat="44.1958539" lon="10.5120824"><ele>1326.0</ele><time>2026-04-26T10:46:14.42Z</time></trkpt><trkpt lat="44.1959143" lon="10.5122416"><ele>1326.0</ele><time>2026-04-26T10:46:15.42Z</time></trkpt><trkpt lat="44.1959913" lon="10.5123741"><ele>1326.0</ele><time>2026-04-26T10:46:16.42Z</time></trkpt><trkpt lat="44.1960842" lon="10.5124773"><ele>1326.0</ele><time>2026-04-26T10:46:17.42Z</time></trkpt><trkpt lat="44.1961893" lon="10.5125601"><ele>1326.0</ele><time>2026-04-26T10:46:18.42Z</time></trkpt><trkpt lat="44.1963008" lon="10.5126283"><ele>1326.0</ele><time>2026-04-26T10:46:19.42Z</time></trkpt><trkpt lat="44.1964197" lon="10.5126935"><ele>1326.0</ele><time>2026-04-26T10:46:20.42Z</time></trkpt><trkpt lat="44.1965404" lon="10.5127643"><ele>1326.0</ele><time>2026-04-26T10:46:21.42Z</time></trkpt><trkpt lat="44.1966596" lon="10.5128365"><ele>1325.75</ele><time>2026-04-26T10:46:22.42Z</time></trkpt><trkpt lat="44.1967852" lon="10.512913"><ele>1325.5</ele><time>2026-04-26T10:46:23.42Z</time></trkpt><trkpt lat="44.1969151" lon="10.512978"><ele>1325.25</ele><time>2026-04-26T10:46:24.42Z</time></trkpt><trkpt lat="44.1970536" lon="10.5130024"><ele>1325.0</ele><time>2026-04-26T10:46:25.42Z</time></trkpt><trkpt lat="44.1971936" lon="10.5129747"><ele>1323.3333333333335</ele><time>2026-04-26T10:46:26.42Z</time></trkpt><trkpt lat="44.1973251" lon="10.5128756"><ele>1321.6666666666667</ele><time>2026-04-26T10:46:27.42Z</time></trkpt><trkpt lat="44.1974601" lon="10.5127204"><ele>1320.0</ele><time>2026-04-26T10:46:28.42Z</time></trkpt><trkpt lat="44.1975852" lon="10.5125511"><ele>1319.25</ele><time>2026-04-26T10:46:29.42Z</time></trkpt><trkpt lat="44.1977041" lon="10.5124019"><ele>1318.5</ele><time>2026-04-26T10:46:30.42Z</time></trkpt><trkpt lat="44.1978186" lon="10.5123011"><ele>1317.75</ele><time>2026-04-26T10:46:31.42Z</time></trkpt><trkpt lat="44.1979207" lon="10.5122592"><ele>1317.0</ele><time>2026-04-26T10:46:32.42Z</time></trkpt><trkpt lat="44.1980118" lon="10.5122707"><ele>1317.0</ele><time>2026-04-26T10:46:33.42Z</time></trkpt><trkpt lat="44.1980856" lon="10.5123134"><ele>1317.0</ele><time>2026-04-26T10:46:34.42Z</time></trkpt><trkpt lat="44.198144" lon="10.5124034"><ele>1317.0</ele><time>2026-04-26T10:46:35.42Z</time></trkpt><trkpt lat="44.1981893" lon="10.5125687"><ele>1317.0</ele><time>2026-04-26T10:46:36.42Z</time></trkpt><trkpt lat="44.1982087" lon="10.5128071"><ele>1318.0</ele><time>2026-04-26T10:46:37.42Z</time></trkpt><trkpt lat="44.1982079" lon="10.5130599"><ele>1319.0</ele><time>2026-04-26T10:46:38.42Z</time></trkpt><trkpt lat="44.1981716" lon="10.5132788"><ele>1320.0</ele><time>2026-04-26T10:46:39.42Z</time></trkpt><trkpt lat="44.1981321" lon="10.5134752"><ele>1320.0</ele><time>2026-04-26T10:46:40.42Z</time></trkpt><trkpt lat="44.1981248" lon="10.5136567"><ele>1320.0</ele><time>2026-04-26T10:46:41.42Z</time></trkpt><trkpt lat="44.1981778" lon="10.5138078"><ele>1320.0</ele><time>2026-04-26T10:46:42.42Z</time></trkpt><trkpt lat="44.1982574" lon="10.5139245"><ele>1320.0</ele><time>2026-04-26T10:46:43.42Z</time></trkpt><trkpt lat="44.1983266" lon="10.5140354"><ele>1316.0</ele><time>2026-04-26T10:46:44.42Z</time></trkpt><trkpt lat="44.1983656" lon="10.5141647"><ele>1312.0</ele><time>2026-04-26T10:46:45.42Z</time></trkpt><trkpt lat="44.1983812" lon="10.5142985"><ele>1308.0</ele><time>2026-04-26T10:46:46.42Z</time></trkpt><trkpt lat="44.198347" lon="10.514452"><ele>1304.0</ele><time>2026-04-26T10:46:47.42Z</time></trkpt><trkpt lat="44.1982601" lon="10.5146263"><ele>1305.3333333333335</ele><time>2026-04-26T10:46:48.42Z</time></trkpt><trkpt lat="44.1981462" lon="10.5148178"><ele>1306.6666666666667</ele><time>2026-04-26T10:46:49.42Z</time></trkpt><trkpt lat="44.1980383" lon="10.5149992"><ele>1308.0</ele><time>2026-04-26T10:46:50.42Z</time></trkpt><trkpt lat="44.1979445" lon="10.5151602"><ele>1308.0</ele><time>2026-04-26T10:46:51.42Z</time></trkpt><trkpt lat="44.1978546" lon="10.5153052"><ele>1308.0</ele><time>2026-04-26T10:46:52.42Z</time></trkpt><trkpt lat="44.1977714" lon="10.5154301"><ele>1308.0</ele><time>2026-04-26T10:46:53.42Z</time></trkpt><trkpt lat="44.1976876" lon="10.5155406"><ele>1308.0</ele><time>2026-04-26T10:46:54.42Z</time></trkpt><trkpt lat="44.1975967" lon="10.5156333"><ele>1305.75</ele><time>2026-04-26T10:46:55.42Z</time></trkpt><trkpt lat="44.1975024" lon="10.5157376"><ele>1303.5</ele><time>2026-04-26T10:46:56.42Z</time></trkpt><trkpt lat="44.1974058" lon="10.5158523"><ele>1301.25</ele><time>2026-04-26T10:46:57.42Z</time></trkpt><trkpt lat="44.1973028" lon="10.5159507"><ele>1299.0</ele><time>2026-04-26T10:46:58.42Z</time></trkpt><trkpt lat="44.1971834" lon="10.5160239"><ele>1299.0</ele><time>2026-04-26T10:46:59.42Z</time></trkpt><trkpt lat="44.1970573" lon="10.5160884"><ele>1299.0</ele><time>2026-04-26T10:47:00.42Z</time></trkpt><trkpt lat="44.1969268" lon="10.5161659"><ele>1299.0</ele><time>2026-04-26T10:47:01.42Z</time></trkpt><trkpt lat="44.196798" lon="10.516267"><ele>1299.0</ele><time>2026-04-26T10:47:02.42Z</time></trkpt><trkpt lat="44.1966581" lon="10.5163797"><ele>1296.5</ele><time>2026-04-26T10:47:03.421Z</time></trkpt><trkpt lat="44.1965248" lon="10.5164891"><ele>1294.0</ele><time>2026-04-26T10:47:04.42Z</time></trkpt><trkpt lat="44.1964024" lon="10.5165984"><ele>1291.5</ele><time>2026-04-26T10:47:05.42Z</time></trkpt><trkpt lat="44.1963151" lon="10.5167182"><ele>1289.0</ele><time>2026-04-26T10:47:06.42Z</time></trkpt><trkpt lat="44.1962636" lon="10.5168515"><ele>1289.0</ele><time>2026-04-26T10:47:07.42Z</time></trkpt><trkpt lat="44.1962515" lon="10.5169994"><ele>1289.0</ele><time>2026-04-26T10:47:08.42Z</time></trkpt><trkpt lat="44.1962736" lon="10.5171498"><ele>1289.0</ele><time>2026-04-26T10:47:09.42Z</time></trkpt><trkpt lat="44.1963273" lon="10.5172836"><ele>1289.0</ele><time>2026-04-26T10:47:10.42Z</time></trkpt><trkpt lat="44.1964107" lon="10.5173935"><ele>1289.0</ele><time>2026-04-26T10:47:11.42Z</time></trkpt><trkpt lat="44.1965549" lon="10.5174733"><ele>1285.3333333333335</ele><time>2026-04-26T10:47:12.42Z</time></trkpt><trkpt lat="44.19674" lon="10.5175615"><ele>1281.6666666666667</ele><time>2026-04-26T10:47:13.42Z</time></trkpt><trkpt lat="44.1969129" lon="10.517663"><ele>1278.0</ele><time>2026-04-26T10:47:14.42Z</time></trkpt><trkpt lat="44.1970439" lon="10.5177825"><ele>1276.75</ele><time>2026-04-26T10:47:15.42Z</time></trkpt><trkpt lat="44.1971505" lon="10.5179187"><ele>1275.5</ele><time>2026-04-26T10:47:16.42Z</time></trkpt><trkpt lat="44.1972423" lon="10.5180672"><ele>1274.25</ele><time>2026-04-26T10:47:17.42Z</time></trkpt><trkpt lat="44.1973313" lon="10.5182156"><ele>1273.0</ele><time>2026-04-26T10:47:18.42Z</time></trkpt><trkpt lat="44.1974178" lon="10.5183755"><ele>1273.0</ele><time>2026-04-26T10:47:19.42Z</time></trkpt><trkpt lat="44.1975037" lon="10.5185382"><ele>1273.0</ele><time>2026-04-26T10:47:20.42Z</time></trkpt><trkpt lat="44.1975884" lon="10.5187127"><ele>1273.0</ele><time>2026-04-26T10:47:21.42Z</time></trkpt><trkpt lat="44.1976686" lon="10.5188897"><ele>1273.0</ele><time>2026-04-26T10:47:22.42Z</time></trkpt><trkpt lat="44.197746" lon="10.5190675"><ele>1274.5</ele><time>2026-04-26T10:47:23.42Z</time></trkpt><trkpt lat="44.1978076" lon="10.5192523"><ele>1276.0</ele><time>2026-04-26T10:47:24.42Z</time></trkpt><trkpt lat="44.1978581" lon="10.5194416"><ele>1277.5</ele><time>2026-04-26T10:47:25.42Z</time></trkpt><trkpt lat="44.1979007" lon="10.5196215"><ele>1279.0</ele><time>2026-04-26T10:47:26.42Z</time></trkpt><trkpt lat="44.1979241" lon="10.5197972"><ele>1279.0</ele><time>2026-04-26T10:47:27.42Z</time></trkpt><trkpt lat="44.1979133" lon="10.5199698"><ele>1279.0</ele><time>2026-04-26T10:47:28.42Z</time></trkpt><trkpt lat="44.1978646" lon="10.5201388"><ele>1279.0</ele><time>2026-04-26T10:47:29.42Z</time></trkpt><trkpt lat="44.1977795" lon="10.5203228"><ele>1279.0</ele><time>2026-04-26T10:47:30.42Z</time></trkpt><trkpt lat="44.197692" lon="10.5204955"><ele>1278.0</ele><time>2026-04-26T10:47:31.42Z</time></trkpt><trkpt lat="44.1976021" lon="10.5206573"><ele>1277.0</ele><time>2026-04-26T10:47:32.42Z</time></trkpt><trkpt lat="44.1975342" lon="10.5208258"><ele>1276.0</ele><time>2026-04-26T10:47:33.42Z</time></trkpt><trkpt lat="44.1974945" lon="10.5210117"><ele>1275.0</ele><time>2026-04-26T10:47:34.42Z</time></trkpt><trkpt lat="44.1974774" lon="10.5212091"><ele>1274.0</ele><time>2026-04-26T10:47:35.42Z</time></trkpt><trkpt lat="44.1974874" lon="10.5214127"><ele>1273.0</ele><time>2026-04-26T10:47:36.42Z</time></trkpt><trkpt lat="44.197526" lon="10.5216253"><ele>1272.0</ele><time>2026-04-26T10:47:37.42Z</time></trkpt><trkpt lat="44.1975964" lon="10.521852"><ele>1273.0</ele><time>2026-04-26T10:47:38.42Z</time></trkpt><trkpt lat="44.1976763" lon="10.5220803"><ele>1274.0</ele><time>2026-04-26T10:47:39.42Z</time></trkpt><trkpt lat="44.1977479" lon="10.5222939"><ele>1275.0</ele><time>2026-04-26T10:47:40.42Z</time></trkpt><trkpt lat="44.1978066" lon="10.522493"><ele>1275.0</ele><time>2026-04-26T10:47:41.42Z</time></trkpt><trkpt lat="44.1978551" lon="10.5226765"><ele>1275.0</ele><time>2026-04-26T10:47:42.42Z</time></trkpt><trkpt lat="44.1978982" lon="10.5228354"><ele>1275.0</ele><time>2026-04-26T10:47:43.42Z</time></trkpt><trkpt lat="44.1979222" lon="10.5229988"><ele>1275.0</ele><time>2026-04-26T10:47:44.42Z</time></trkpt><trkpt lat="44.1979283" lon="10.523182"><ele>1275.0</ele><time>2026-04-26T10:47:45.42Z</time></trkpt><trkpt lat="44.1979201" lon="10.5234129"><ele>1275.0</ele><time>2026-04-26T10:47:46.42Z</time></trkpt><trkpt lat="44.1979023" lon="10.523669"><ele>1275.0</ele><time>2026-04-26T10:47:47.42Z</time></trkpt><trkpt lat="44.197869" lon="10.5239046"><ele>1273.25</ele><time>2026-04-26T10:47:48.42Z</time></trkpt><trkpt lat="44.1978471" lon="10.5241187"><ele>1271.5</ele><time>2026-04-26T10:47:49.42Z</time></trkpt><trkpt lat="44.1978358" lon="10.5242987"><ele>1269.75</ele><time>2026-04-26T10:47:50.42Z</time></trkpt><trkpt lat="44.1978485" lon="10.5244517"><ele>1268.0</ele><time>2026-04-26T10:47:51.42Z</time></trkpt><trkpt lat="44.1978725" lon="10.5245931"><ele>1267.2</ele><time>2026-04-26T10:47:52.42Z</time></trkpt><trkpt lat="44.1978922" lon="10.5247272"><ele>1266.4</ele><time>2026-04-26T10:47:53.42Z</time></trkpt><trkpt lat="44.1978936" lon="10.5248558"><ele>1265.6000000000001</ele><time>2026-04-26T10:47:54.421Z</time></trkpt><trkpt lat="44.1978697" lon="10.5249798"><ele>1264.8</ele><time>2026-04-26T10:47:55.42Z</time></trkpt><trkpt lat="44.197832" lon="10.5251096"><ele>1264.0</ele><time>2026-04-26T10:47:56.42Z</time></trkpt><trkpt lat="44.1977777" lon="10.5252405"><ele>1261.5</ele><time>2026-04-26T10:47:57.42Z</time></trkpt><trkpt lat="44.1976925" lon="10.5253985"><ele>1259.0</ele><time>2026-04-26T10:47:58.42Z</time></trkpt><trkpt lat="44.1976251" lon="10.5255852"><ele>1256.5</ele><time>2026-04-26T10:47:59.421Z</time></trkpt><trkpt lat="44.1975769" lon="10.525791"><ele>1254.0</ele><time>2026-04-26T10:48:00.42Z</time></trkpt><trkpt lat="44.1975346" lon="10.5260144"><ele>1252.6666666666667</ele><time>2026-04-26T10:48:01.42Z</time></trkpt><trkpt lat="44.1974893" lon="10.5262423"><ele>1251.3333333333335</ele><time>2026-04-26T10:48:02.42Z</time></trkpt><trkpt lat="44.1974236" lon="10.5264551"><ele>1250.0</ele><time>2026-04-26T10:48:03.42Z</time></trkpt><trkpt lat="44.1973819" lon="10.5266296"><ele>1250.0</ele><time>2026-04-26T10:48:04.42Z</time></trkpt><trkpt lat="44.1973642" lon="10.5267878"><ele>1250.0</ele><time>2026-04-26T10:48:05.42Z</time></trkpt><trkpt lat="44.1973792" lon="10.526974"><ele>1250.0</ele><time>2026-04-26T10:48:06.42Z</time></trkpt><trkpt lat="44.1974104" lon="10.5271611"><ele>1250.0</ele><time>2026-04-26T10:48:07.42Z</time></trkpt><trkpt lat="44.1974298" lon="10.5273253"><ele>1250.25</ele><time>2026-04-26T10:48:08.42Z</time></trkpt><trkpt lat="44.1974578" lon="10.5274748"><ele>1250.5</ele><time>2026-04-26T10:48:09.42Z</time></trkpt><trkpt lat="44.1975265" lon="10.5276201"><ele>1250.75</ele><time>2026-04-26T10:48:10.42Z</time></trkpt><trkpt lat="44.1976356" lon="10.5277752"><ele>1251.0</ele><time>2026-04-26T10:48:11.421Z</time></trkpt><trkpt lat="44.1977703" lon="10.5279311"><ele>1251.3333333333333</ele><time>2026-04-26T10:48:12.42Z</time></trkpt><trkpt lat="44.197899" lon="10.5280945"><ele>1251.6666666666665</ele><time>2026-04-26T10:48:13.42Z</time></trkpt><trkpt lat="44.1980128" lon="10.5282436"><ele>1252.0</ele><time>2026-04-26T10:48:14.42Z</time></trkpt><trkpt lat="44.1981228" lon="10.5283798"><ele>1250.0</ele><time>2026-04-26T10:48:15.42Z</time></trkpt><trkpt lat="44.1982304" lon="10.5284763"><ele>1248.0</ele><time>2026-04-26T10:48:16.42Z</time></trkpt><trkpt lat="44.1983386" lon="10.5285415"><ele>1246.0</ele><time>2026-04-26T10:48:17.42Z</time></trkpt><trkpt lat="44.1984478" lon="10.5285893"><ele>1244.0</ele><time>2026-04-26T10:48:18.42Z</time></trkpt><trkpt lat="44.1985528" lon="10.5286481"><ele>1243.4</ele><time>2026-04-26T10:48:19.42Z</time></trkpt><trkpt lat="44.198641" lon="10.5287528"><ele>1242.8000000000002</ele><time>2026-04-26T10:48:20.42Z</time></trkpt><trkpt lat="44.1986934" lon="10.5288831"><ele>1242.1999999999998</ele><time>2026-04-26T10:48:21.42Z</time></trkpt><trkpt lat="44.1987064" lon="10.5290321"><ele>1241.6</ele><time>2026-04-26T10:48:22.42Z</time></trkpt><trkpt lat="44.1986749" lon="10.5291804"><ele>1241.0</ele><time>2026-04-26T10:48:23.42Z</time></trkpt><trkpt lat="44.1986112" lon="10.5292942"><ele>1241.0</ele><time>2026-04-26T10:48:24.42Z</time></trkpt><trkpt lat="44.1985218" lon="10.5293653"><ele>1241.0</ele><time>2026-04-26T10:48:25.421Z</time></trkpt><trkpt lat="44.1984291" lon="10.5294341"><ele>1241.0</ele><time>2026-04-26T10:48:26.42Z</time></trkpt><trkpt lat="44.198353" lon="10.5295357"><ele>1241.0</ele><time>2026-04-26T10:48:27.42Z</time></trkpt><trkpt lat="44.1983149" lon="10.5296841"><ele>1241.0</ele><time>2026-04-26T10:48:28.42Z</time></trkpt><trkpt lat="44.1982887" lon="10.5298588"><ele>1239.25</ele><time>2026-04-26T10:48:29.42Z</time></trkpt><trkpt lat="44.1982519" lon="10.5300041"><ele>1237.5</ele><time>2026-04-26T10:48:30.42Z</time></trkpt><trkpt lat="44.1981801" lon="10.5301079"><ele>1235.75</ele><time>2026-04-26T10:48:31.42Z</time></trkpt><trkpt lat="44.1980756" lon="10.5301592"><ele>1234.0</ele><time>2026-04-26T10:48:32.42Z</time></trkpt><trkpt lat="44.1979473" lon="10.530188"><ele>1233.6666666666665</ele><time>2026-04-26T10:48:33.421Z</time></trkpt><trkpt lat="44.1978" lon="10.530243"><ele>1233.3333333333333</ele><time>2026-04-26T10:48:34.42Z</time></trkpt><trkpt lat="44.1976458" lon="10.530346"><ele>1233.0</ele><time>2026-04-26T10:48:35.42Z</time></trkpt><trkpt lat="44.1975029" lon="10.5304667"><ele>1231.5</ele><time>2026-04-26T10:48:36.421Z</time></trkpt><trkpt lat="44.1973792" lon="10.53059"><ele>1230.0</ele><time>2026-04-26T10:48:37.42Z</time></trkpt><trkpt lat="44.1972711" lon="10.5307362"><ele>1228.5</ele><time>2026-04-26T10:48:38.42Z</time></trkpt><trkpt lat="44.1971886" lon="10.5308967"><ele>1227.0</ele><time>2026-04-26T10:48:39.42Z</time></trkpt><trkpt lat="44.1971317" lon="10.5310583"><ele>1225.4</ele><time>2026-04-26T10:48:40.42Z</time></trkpt><trkpt lat="44.1971099" lon="10.5312304"><ele>1223.8000000000002</ele><time>2026-04-26T10:48:41.42Z</time></trkpt><trkpt lat="44.1971156" lon="10.5313917"><ele>1222.2</ele><time>2026-04-26T10:48:42.421Z</time></trkpt><trkpt lat="44.1971212" lon="10.5315311"><ele>1220.6000000000001</ele><time>2026-04-26T10:48:43.42Z</time></trkpt><trkpt lat="44.1971151" lon="10.5316527"><ele>1219.0</ele><time>2026-04-26T10:48:44.42Z</time></trkpt><trkpt lat="44.1970937" lon="10.5317574"><ele>1219.0</ele><time>2026-04-26T10:48:45.42Z</time></trkpt><trkpt lat="44.1970488" lon="10.5318337"><ele>1219.0</ele><time>2026-04-26T10:48:46.42Z</time></trkpt><trkpt lat="44.1969803" lon="10.5318751"><ele>1219.0</ele><time>2026-04-26T10:48:47.42Z</time></trkpt><trkpt lat="44.1968666" lon="10.5318719"><ele>1219.0</ele><time>2026-04-26T10:48:48.42Z</time></trkpt><trkpt lat="44.196727" lon="10.5318177"><ele>1219.0</ele><time>2026-04-26T10:48:49.42Z</time></trkpt><trkpt lat="44.1965972" lon="10.531712"><ele>1219.2</ele><time>2026-04-26T10:48:50.42Z</time></trkpt><trkpt lat="44.1964959" lon="10.5316142"><ele>1219.4</ele><time>2026-04-26T10:48:51.42Z</time></trkpt><trkpt lat="44.1964014" lon="10.5315673"><ele>1219.6</ele><time>2026-04-26T10:48:52.42Z</time></trkpt><trkpt lat="44.1963214" lon="10.5315716"><ele>1219.8</ele><time>2026-04-26T10:48:53.42Z</time></trkpt><trkpt lat="44.1962642" lon="10.5316201"><ele>1220.0</ele><time>2026-04-26T10:48:54.42Z</time></trkpt><trkpt lat="44.1962277" lon="10.5317668"><ele>1220.0</ele><time>2026-04-26T10:48:56.42Z</time></trkpt><trkpt lat="44.1962478" lon="10.5318806"><ele>1220.0</ele><time>2026-04-26T10:48:57.42Z</time></trkpt><trkpt lat="44.1962941" lon="10.5320466"><ele>1220.0</ele><time>2026-04-26T10:48:58.42Z</time></trkpt><trkpt lat="44.1963432" lon="10.5322876"><ele>1220.0</ele><time>2026-04-26T10:48:59.42Z</time></trkpt><trkpt lat="44.1963723" lon="10.532519"><ele>1220.0</ele><time>2026-04-26T10:49:00.42Z</time></trkpt><trkpt lat="44.196389" lon="10.5327087"><ele>1220.0</ele><time>2026-04-26T10:49:01.42Z</time></trkpt><trkpt lat="44.1964218" lon="10.5328716"><ele>1220.0</ele><time>2026-04-26T10:49:02.42Z</time></trkpt><trkpt lat="44.1964866" lon="10.5330239"><ele>1220.0</ele><time>2026-04-26T10:49:03.42Z</time></trkpt><trkpt lat="44.1965821" lon="10.5331654"><ele>1216.25</ele><time>2026-04-26T10:49:04.42Z</time></trkpt><trkpt lat="44.1966853" lon="10.5332936"><ele>1212.5</ele><time>2026-04-26T10:49:05.42Z</time></trkpt><trkpt lat="44.1967749" lon="10.5334211"><ele>1208.75</ele><time>2026-04-26T10:49:06.42Z</time></trkpt><trkpt lat="44.1968405" lon="10.533564"><ele>1205.0</ele><time>2026-04-26T10:49:07.42Z</time></trkpt><trkpt lat="44.1968738" lon="10.5337297"><ele>1203.5</ele><time>2026-04-26T10:49:08.42Z</time></trkpt><trkpt lat="44.1968833" lon="10.5339156"><ele>1202.0</ele><time>2026-04-26T10:49:09.42Z</time></trkpt><trkpt lat="44.1968708" lon="10.5341139"><ele>1200.5</ele><time>2026-04-26T10:49:10.42Z</time></trkpt><trkpt lat="44.1968554" lon="10.5343078"><ele>1199.0</ele><time>2026-04-26T10:49:11.419Z</time></trkpt><trkpt lat="44.1968479" lon="10.534499"><ele>1198.75</ele><time>2026-04-26T10:49:12.419Z</time></trkpt><trkpt lat="44.1968591" lon="10.5346866"><ele>1198.5</ele><time>2026-04-26T10:49:13.419Z</time></trkpt><trkpt lat="44.1968803" lon="10.5348692"><ele>1198.25</ele><time>2026-04-26T10:49:14.419Z</time></trkpt><trkpt lat="44.1969031" lon="10.535047"><ele>1198.0</ele><time>2026-04-26T10:49:15.419Z</time></trkpt><trkpt lat="44.1969265" lon="10.5352225"><ele>1196.75</ele><time>2026-04-26T10:49:16.419Z</time></trkpt><trkpt lat="44.1969415" lon="10.5353937"><ele>1195.5</ele><time>2026-04-26T10:49:17.419Z</time></trkpt><trkpt lat="44.1969474" lon="10.5355633"><ele>1194.25</ele><time>2026-04-26T10:49:18.419Z</time></trkpt><trkpt lat="44.1969449" lon="10.5357314"><ele>1193.0</ele><time>2026-04-26T10:49:19.419Z</time></trkpt><trkpt lat="44.1969314" lon="10.5358979"><ele>1193.0</ele><time>2026-04-26T10:49:20.419Z</time></trkpt><trkpt lat="44.1969074" lon="10.5360617"><ele>1193.0</ele><time>2026-04-26T10:49:21.419Z</time></trkpt><trkpt lat="44.1968678" lon="10.5362253"><ele>1193.0</ele><time>2026-04-26T10:49:22.419Z</time></trkpt><trkpt lat="44.1968112" lon="10.536393"><ele>1193.0</ele><time>2026-04-26T10:49:23.419Z</time></trkpt><trkpt lat="44.1967506" lon="10.53656"><ele>1190.75</ele><time>2026-04-26T10:49:24.419Z</time></trkpt><trkpt lat="44.1966923" lon="10.5367276"><ele>1188.5</ele><time>2026-04-26T10:49:25.419Z</time></trkpt><trkpt lat="44.1966357" lon="10.5368862"><ele>1186.25</ele><time>2026-04-26T10:49:26.419Z</time></trkpt><trkpt lat="44.196586" lon="10.5370388"><ele>1184.0</ele><time>2026-04-26T10:49:27.419Z</time></trkpt><trkpt lat="44.1965502" lon="10.537199"><ele>1181.75</ele><time>2026-04-26T10:49:28.419Z</time></trkpt><trkpt lat="44.1965428" lon="10.5373799"><ele>1179.5</ele><time>2026-04-26T10:49:29.419Z</time></trkpt><trkpt lat="44.1965651" lon="10.5375805"><ele>1177.25</ele><time>2026-04-26T10:49:30.419Z</time></trkpt><trkpt lat="44.1966043" lon="10.537784"><ele>1175.0</ele><time>2026-04-26T10:49:31.419Z</time></trkpt><trkpt lat="44.1966425" lon="10.5379766"><ele>1173.5</ele><time>2026-04-26T10:49:32.419Z</time></trkpt><trkpt lat="44.1966708" lon="10.5381643"><ele>1172.0</ele><time>2026-04-26T10:49:33.419Z</time></trkpt><trkpt lat="44.1966802" lon="10.5383531"><ele>1170.5</ele><time>2026-04-26T10:49:34.419Z</time></trkpt><trkpt lat="44.1966753" lon="10.5385357"><ele>1169.0</ele><time>2026-04-26T10:49:35.419Z</time></trkpt><trkpt lat="44.1966621" lon="10.5386987"><ele>1168.2</ele><time>2026-04-26T10:49:36.419Z</time></trkpt><trkpt lat="44.1966409" lon="10.5388359"><ele>1167.4</ele><time>2026-04-26T10:49:37.419Z</time></trkpt><trkpt lat="44.1966006" lon="10.5389648"><ele>1166.6</ele><time>2026-04-26T10:49:38.419Z</time></trkpt><trkpt lat="44.196534" lon="10.539075"><ele>1165.8</ele><time>2026-04-26T10:49:39.419Z</time></trkpt><trkpt lat="44.1964318" lon="10.5391619"><ele>1165.0</ele><time>2026-04-26T10:49:40.419Z</time></trkpt><trkpt lat="44.1963036" lon="10.5392475"><ele>1165.0</ele><time>2026-04-26T10:49:41.419Z</time></trkpt><trkpt lat="44.1961637" lon="10.5393584"><ele>1165.0</ele><time>2026-04-26T10:49:42.419Z</time></trkpt><trkpt lat="44.1960341" lon="10.5394919"><ele>1165.0</ele><time>2026-04-26T10:49:43.419Z</time></trkpt><trkpt lat="44.1959062" lon="10.5396125"><ele>1163.25</ele><time>2026-04-26T10:49:44.419Z</time></trkpt><trkpt lat="44.1957824" lon="10.5396923"><ele>1161.5</ele><time>2026-04-26T10:49:45.419Z</time></trkpt><trkpt lat="44.1956525" lon="10.539729"><ele>1159.75</ele><time>2026-04-26T10:49:46.419Z</time></trkpt><trkpt lat="44.19554" lon="10.5397242"><ele>1158.0</ele><time>2026-04-26T10:49:47.419Z</time></trkpt><trkpt lat="44.1954524" lon="10.5397113"><ele>1158.0</ele><time>2026-04-26T10:49:48.419Z</time></trkpt><trkpt lat="44.1953791" lon="10.5397251"><ele>1158.0</ele><time>2026-04-26T10:49:49.419Z</time></trkpt><trkpt lat="44.1953226" lon="10.5397687"><ele>1158.0</ele><time>2026-04-26T10:49:50.419Z</time></trkpt><trkpt lat="44.1953001" lon="10.5398584"><ele>1158.0</ele><time>2026-04-26T10:49:51.419Z</time></trkpt><trkpt lat="44.195299" lon="10.5399887"><ele>1158.0</ele><time>2026-04-26T10:49:52.419Z</time></trkpt><trkpt lat="44.1953309" lon="10.5401529"><ele>1158.0</ele><time>2026-04-26T10:49:53.419Z</time></trkpt><trkpt lat="44.1953797" lon="10.5403387"><ele>1156.6666666666667</ele><time>2026-04-26T10:49:54.419Z</time></trkpt><trkpt lat="44.1954625" lon="10.5405426"><ele>1155.3333333333335</ele><time>2026-04-26T10:49:55.419Z</time></trkpt><trkpt lat="44.1955691" lon="10.5407554"><ele>1154.0</ele><time>2026-04-26T10:49:56.419Z</time></trkpt><trkpt lat="44.1956646" lon="10.5409744"><ele>1152.75</ele><time>2026-04-26T10:49:57.419Z</time></trkpt><trkpt lat="44.1957281" lon="10.54118"><ele>1151.5</ele><time>2026-04-26T10:49:58.419Z</time></trkpt><trkpt lat="44.1957685" lon="10.5413802"><ele>1150.25</ele><time>2026-04-26T10:49:59.419Z</time></trkpt><trkpt lat="44.1957922" lon="10.5415717"><ele>1149.0</ele><time>2026-04-26T10:50:00.42Z</time></trkpt><trkpt lat="44.1958006" lon="10.5417609"><ele>1147.5</ele><time>2026-04-26T10:50:01.419Z</time></trkpt><trkpt lat="44.1958005" lon="10.5419452"><ele>1146.0</ele><time>2026-04-26T10:50:02.419Z</time></trkpt><trkpt lat="44.1958011" lon="10.5421256"><ele>1144.5</ele><time>2026-04-26T10:50:03.419Z</time></trkpt><trkpt lat="44.1957947" lon="10.5422999"><ele>1143.0</ele><time>2026-04-26T10:50:04.419Z</time></trkpt><trkpt lat="44.195782" lon="10.542463"><ele>1141.6</ele><time>2026-04-26T10:50:05.419Z</time></trkpt><trkpt lat="44.1957657" lon="10.5426196"><ele>1140.1999999999998</ele><time>2026-04-26T10:50:06.419Z</time></trkpt><trkpt lat="44.1957483" lon="10.5427688"><ele>1138.8</ele><time>2026-04-26T10:50:07.419Z</time></trkpt><trkpt lat="44.1957221" lon="10.5429092"><ele>1137.3999999999999</ele><time>2026-04-26T10:50:08.419Z</time></trkpt><trkpt lat="44.1956813" lon="10.5430415"><ele>1136.0</ele><time>2026-04-26T10:50:09.419Z</time></trkpt><trkpt lat="44.1956269" lon="10.5431742"><ele>1135.5</ele><time>2026-04-26T10:50:10.419Z</time></trkpt><trkpt lat="44.195565" lon="10.5433114"><ele>1135.0</ele><time>2026-04-26T10:50:11.419Z</time></trkpt><trkpt lat="44.195497" lon="10.5434548"><ele>1134.5</ele><time>2026-04-26T10:50:12.419Z</time></trkpt><trkpt lat="44.1954315" lon="10.543598"><ele>1134.0</ele><time>2026-04-26T10:50:13.419Z</time></trkpt><trkpt lat="44.1953603" lon="10.5437307"><ele>1132.5</ele><time>2026-04-26T10:50:14.419Z</time></trkpt><trkpt lat="44.1952771" lon="10.5438377"><ele>1131.0</ele><time>2026-04-26T10:50:15.419Z</time></trkpt><trkpt lat="44.195184" lon="10.5439141"><ele>1129.5</ele><time>2026-04-26T10:50:16.419Z</time></trkpt><trkpt lat="44.1950695" lon="10.5439692"><ele>1128.0</ele><time>2026-04-26T10:50:17.419Z</time></trkpt><trkpt lat="44.1949378" lon="10.5440062"><ele>1128.0</ele><time>2026-04-26T10:50:18.419Z</time></trkpt><trkpt lat="44.194808" lon="10.5440333"><ele>1128.0</ele><time>2026-04-26T10:50:19.419Z</time></trkpt><trkpt lat="44.1946932" lon="10.5440665"><ele>1128.0</ele><time>2026-04-26T10:50:20.419Z</time></trkpt><trkpt lat="44.194602" lon="10.5441326"><ele>1128.0</ele><time>2026-04-26T10:50:21.419Z</time></trkpt><trkpt lat="44.1945401" lon="10.5442334"><ele>1128.0</ele><time>2026-04-26T10:50:22.42Z</time></trkpt><trkpt lat="44.1945144" lon="10.5443596"><ele>1128.0</ele><time>2026-04-26T10:50:23.419Z</time></trkpt><trkpt lat="44.194531" lon="10.544512"><ele>1128.0</ele><time>2026-04-26T10:50:24.419Z</time></trkpt><trkpt lat="44.1945759" lon="10.5446847"><ele>1128.0</ele><time>2026-04-26T10:50:25.419Z</time></trkpt><trkpt lat="44.1946358" lon="10.544866"><ele>1128.0</ele><time>2026-04-26T10:50:26.419Z</time></trkpt><trkpt lat="44.1946842" lon="10.5450343"><ele>1126.6</ele><time>2026-04-26T10:50:27.419Z</time></trkpt><trkpt lat="44.194696" lon="10.5451894"><ele>1125.1999999999998</ele><time>2026-04-26T10:50:28.419Z</time></trkpt><trkpt lat="44.194673" lon="10.545336"><ele>1123.8</ele><time>2026-04-26T10:50:29.419Z</time></trkpt><trkpt lat="44.1946179" lon="10.5454583"><ele>1122.3999999999999</ele><time>2026-04-26T10:50:30.419Z</time></trkpt><trkpt lat="44.194529" lon="10.545557"><ele>1121.0</ele><time>2026-04-26T10:50:31.419Z</time></trkpt><trkpt lat="44.1944141" lon="10.5456474"><ele>1120.5</ele><time>2026-04-26T10:50:32.419Z</time></trkpt><trkpt lat="44.1942983" lon="10.5457381"><ele>1120.0</ele><time>2026-04-26T10:50:33.419Z</time></trkpt><trkpt lat="44.194181" lon="10.5458264"><ele>1119.5</ele><time>2026-04-26T10:50:34.419Z</time></trkpt><trkpt lat="44.1940622" lon="10.5459194"><ele>1119.0</ele><time>2026-04-26T10:50:35.419Z</time></trkpt><trkpt lat="44.1939511" lon="10.5460105"><ele>1119.0</ele><time>2026-04-26T10:50:36.419Z</time></trkpt><trkpt lat="44.1938517" lon="10.5460963"><ele>1119.0</ele><time>2026-04-26T10:50:37.419Z</time></trkpt><trkpt lat="44.1937649" lon="10.5461826"><ele>1119.0</ele><time>2026-04-26T10:50:38.419Z</time></trkpt><trkpt lat="44.1936955" lon="10.5462776"><ele>1119.0</ele><time>2026-04-26T10:50:39.419Z</time></trkpt><trkpt lat="44.1936535" lon="10.5463974"><ele>1119.0</ele><time>2026-04-26T10:50:40.419Z</time></trkpt><trkpt lat="44.193624" lon="10.5465509"><ele>1117.75</ele><time>2026-04-26T10:50:41.419Z</time></trkpt><trkpt lat="44.1936135" lon="10.5467198"><ele>1116.5</ele><time>2026-04-26T10:50:42.419Z</time></trkpt><trkpt lat="44.1935924" lon="10.5468864"><ele>1115.25</ele><time>2026-04-26T10:50:43.419Z</time></trkpt><trkpt lat="44.1935499" lon="10.5470455"><ele>1114.0</ele><time>2026-04-26T10:50:44.419Z</time></trkpt><trkpt lat="44.193496" lon="10.5472065"><ele>1111.75</ele><time>2026-04-26T10:50:45.419Z</time></trkpt><trkpt lat="44.1934285" lon="10.5473562"><ele>1109.5</ele><time>2026-04-26T10:50:46.419Z</time></trkpt><trkpt lat="44.1933534" lon="10.5475006"><ele>1107.25</ele><time>2026-04-26T10:50:47.419Z</time></trkpt><trkpt lat="44.1932788" lon="10.5476351"><ele>1105.0</ele><time>2026-04-26T10:50:48.419Z</time></trkpt><trkpt lat="44.1932077" lon="10.5477595"><ele>1104.0</ele><time>2026-04-26T10:50:49.419Z</time></trkpt><trkpt lat="44.1931465" lon="10.5478789"><ele>1103.0</ele><time>2026-04-26T10:50:50.419Z</time></trkpt><trkpt lat="44.1930945" lon="10.5480068"><ele>1102.0</ele><time>2026-04-26T10:50:51.419Z</time></trkpt><trkpt lat="44.1930611" lon="10.5481464"><ele>1101.0</ele><time>2026-04-26T10:50:52.419Z</time></trkpt><trkpt lat="44.1930499" lon="10.5482729"><ele>1100.0</ele><time>2026-04-26T10:50:53.419Z</time></trkpt><trkpt lat="44.1930415" lon="10.5483826"><ele>1100.0</ele><time>2026-04-26T10:50:54.419Z</time></trkpt><trkpt lat="44.1930245" lon="10.5484678"><ele>1100.0</ele><time>2026-04-26T10:50:55.419Z</time></trkpt><trkpt lat="44.1929332" lon="10.548577"><ele>1100.0</ele><time>2026-04-26T10:50:57.419Z</time></trkpt><trkpt lat="44.1928457" lon="10.5486021"><ele>1100.0</ele><time>2026-04-26T10:50:58.419Z</time></trkpt><trkpt lat="44.1927276" lon="10.5485957"><ele>1100.0</ele><time>2026-04-26T10:50:59.419Z</time></trkpt><trkpt lat="44.1925841" lon="10.5485639"><ele>1100.0</ele><time>2026-04-26T10:51:00.419Z</time></trkpt><trkpt lat="44.1924413" lon="10.5485225"><ele>1100.0</ele><time>2026-04-26T10:51:01.419Z</time></trkpt><trkpt lat="44.1923081" lon="10.5484992"><ele>1100.0</ele><time>2026-04-26T10:51:02.419Z</time></trkpt><trkpt lat="44.1921927" lon="10.5485313"><ele>1100.0</ele><time>2026-04-26T10:51:03.419Z</time></trkpt><trkpt lat="44.1920844" lon="10.5486057"><ele>1099.3333333333335</ele><time>2026-04-26T10:51:04.419Z</time></trkpt><trkpt lat="44.1919821" lon="10.5487463"><ele>1098.6666666666667</ele><time>2026-04-26T10:51:05.42Z</time></trkpt><trkpt lat="44.1918888" lon="10.5489368"><ele>1098.0</ele><time>2026-04-26T10:51:06.419Z</time></trkpt><trkpt lat="44.1918038" lon="10.5491378"><ele>1098.0</ele><time>2026-04-26T10:51:07.419Z</time></trkpt><trkpt lat="44.1917288" lon="10.5493177"><ele>1098.0</ele><time>2026-04-26T10:51:08.419Z</time></trkpt><trkpt lat="44.1916587" lon="10.5494726"><ele>1098.0</ele><time>2026-04-26T10:51:09.42Z</time></trkpt><trkpt lat="44.1915933" lon="10.5496103"><ele>1098.0</ele><time>2026-04-26T10:51:10.419Z</time></trkpt><trkpt lat="44.1915524" lon="10.5497482"><ele>1096.25</ele><time>2026-04-26T10:51:11.419Z</time></trkpt><trkpt lat="44.1915359" lon="10.5499024"><ele>1094.5</ele><time>2026-04-26T10:51:12.419Z</time></trkpt><trkpt lat="44.1915367" lon="10.5500687"><ele>1092.75</ele><time>2026-04-26T10:51:13.419Z</time></trkpt><trkpt lat="44.1915458" lon="10.5502422"><ele>1091.0</ele><time>2026-04-26T10:51:14.419Z</time></trkpt><trkpt lat="44.1915524" lon="10.550411"><ele>1091.3999999999999</ele><time>2026-04-26T10:51:15.419Z</time></trkpt><trkpt lat="44.1915379" lon="10.5505687"><ele>1091.8</ele><time>2026-04-26T10:51:16.419Z</time></trkpt><trkpt lat="44.1914943" lon="10.5507108"><ele>1092.1999999999998</ele><time>2026-04-26T10:51:17.419Z</time></trkpt><trkpt lat="44.1914359" lon="10.5508304"><ele>1092.6</ele><time>2026-04-26T10:51:18.419Z</time></trkpt><trkpt lat="44.191375" lon="10.5509384"><ele>1093.0</ele><time>2026-04-26T10:51:19.419Z</time></trkpt><trkpt lat="44.191311" lon="10.5510429"><ele>1093.0</ele><time>2026-04-26T10:51:20.419Z</time></trkpt><trkpt lat="44.1912467" lon="10.5511481"><ele>1093.0</ele><time>2026-04-26T10:51:21.419Z</time></trkpt><trkpt lat="44.1911846" lon="10.5512537"><ele>1093.0</ele><time>2026-04-26T10:51:22.419Z</time></trkpt><trkpt lat="44.1911413" lon="10.5513506"><ele>1093.0</ele><time>2026-04-26T10:51:23.419Z</time></trkpt><trkpt lat="44.1910996" lon="10.5514442"><ele>1093.0</ele><time>2026-04-26T10:51:24.419Z</time></trkpt><trkpt lat="44.1910776" lon="10.5515834"><ele>1090.8</ele><time>2026-04-26T10:51:26.42Z</time></trkpt><trkpt lat="44.1911574" lon="10.5516323"><ele>1088.6</ele><time>2026-04-26T10:51:28.419Z</time></trkpt><trkpt lat="44.1912367" lon="10.5516012"><ele>1086.4</ele><time>2026-04-26T10:51:29.419Z</time></trkpt><trkpt lat="44.1913262" lon="10.5515547"><ele>1084.2</ele><time>2026-04-26T10:51:30.419Z</time></trkpt><trkpt lat="44.1914175" lon="10.5515062"><ele>1082.0</ele><time>2026-04-26T10:51:31.419Z</time></trkpt><trkpt lat="44.1915135" lon="10.5514576"><ele>1081.0</ele><time>2026-04-26T10:51:32.419Z</time></trkpt><trkpt lat="44.1916078" lon="10.5514147"><ele>1080.0</ele><time>2026-04-26T10:51:33.419Z</time></trkpt><trkpt lat="44.1917058" lon="10.5513858"><ele>1079.0</ele><time>2026-04-26T10:51:34.419Z</time></trkpt><trkpt lat="44.1917997" lon="10.5513779"><ele>1078.0</ele><time>2026-04-26T10:51:35.419Z</time></trkpt><trkpt lat="44.1918825" lon="10.5513977"><ele>1077.0</ele><time>2026-04-26T10:51:36.419Z</time></trkpt><trkpt lat="44.1919584" lon="10.5514362"><ele>1077.0</ele><time>2026-04-26T10:51:37.419Z</time></trkpt><trkpt lat="44.1920198" lon="10.5515021"><ele>1077.0</ele><time>2026-04-26T10:51:38.419Z</time></trkpt><trkpt lat="44.1920689" lon="10.5515986"><ele>1077.0</ele><time>2026-04-26T10:51:39.419Z</time></trkpt><trkpt lat="44.192097" lon="10.5517358"><ele>1077.0</ele><time>2026-04-26T10:51:40.419Z</time></trkpt><trkpt lat="44.1921174" lon="10.5518772"><ele>1077.0</ele><time>2026-04-26T10:51:41.419Z</time></trkpt><trkpt lat="44.1921043" lon="10.5520151"><ele>1076.0</ele><time>2026-04-26T10:51:42.419Z</time></trkpt><trkpt lat="44.1920783" lon="10.5521413"><ele>1075.0</ele><time>2026-04-26T10:51:43.419Z</time></trkpt><trkpt lat="44.1920451" lon="10.5522647"><ele>1074.0</ele><time>2026-04-26T10:51:44.42Z</time></trkpt><trkpt lat="44.192009" lon="10.5523805"><ele>1073.0</ele><time>2026-04-26T10:51:45.419Z</time></trkpt><trkpt lat="44.1919758" lon="10.5524856"><ele>1072.0</ele><time>2026-04-26T10:51:46.419Z</time></trkpt><trkpt lat="44.1919373" lon="10.5525808"><ele>1071.0</ele><time>2026-04-26T10:51:47.419Z</time></trkpt><trkpt lat="44.1918945" lon="10.5526757"><ele>1071.0</ele><time>2026-04-26T10:51:48.419Z</time></trkpt><trkpt lat="44.1918433" lon="10.5527703"><ele>1071.0</ele><time>2026-04-26T10:51:49.419Z</time></trkpt><trkpt lat="44.1917936" lon="10.552872"><ele>1071.0</ele><time>2026-04-26T10:51:50.419Z</time></trkpt><trkpt lat="44.1917254" lon="10.5529547"><ele>1071.0</ele><time>2026-04-26T10:51:51.419Z</time></trkpt><trkpt lat="44.1916334" lon="10.5530146"><ele>1071.0</ele><time>2026-04-26T10:51:52.419Z</time></trkpt><trkpt lat="44.1915238" lon="10.5530564"><ele>1068.6</ele><time>2026-04-26T10:51:53.419Z</time></trkpt><trkpt lat="44.1914144" lon="10.5530881"><ele>1066.1999999999998</ele><time>2026-04-26T10:51:54.419Z</time></trkpt><trkpt lat="44.1913072" lon="10.5531129"><ele>1063.8000000000002</ele><time>2026-04-26T10:51:55.42Z</time></trkpt><trkpt lat="44.1912041" lon="10.5531382"><ele>1061.4</ele><time>2026-04-26T10:51:56.419Z</time></trkpt><trkpt lat="44.1911112" lon="10.5531723"><ele>1059.0</ele><time>2026-04-26T10:51:57.419Z</time></trkpt><trkpt lat="44.1910211" lon="10.5532078"><ele>1059.0</ele><time>2026-04-26T10:51:58.419Z</time></trkpt><trkpt lat="44.190933" lon="10.5532463"><ele>1059.0</ele><time>2026-04-26T10:51:59.419Z</time></trkpt><trkpt lat="44.1908479" lon="10.5532936"><ele>1059.0</ele><time>2026-04-26T10:52:00.419Z</time></trkpt><trkpt lat="44.1907598" lon="10.5533538"><ele>1059.0</ele><time>2026-04-26T10:52:01.419Z</time></trkpt><trkpt lat="44.1906705" lon="10.5534296"><ele>1059.0</ele><time>2026-04-26T10:52:02.419Z</time></trkpt><trkpt lat="44.190583" lon="10.5535213"><ele>1059.0</ele><time>2026-04-26T10:52:03.419Z</time></trkpt><trkpt lat="44.1904953" lon="10.5536182"><ele>1059.0</ele><time>2026-04-26T10:52:04.419Z</time></trkpt><trkpt lat="44.1904069" lon="10.5537193"><ele>1059.0</ele><time>2026-04-26T10:52:05.419Z</time></trkpt><trkpt lat="44.1903267" lon="10.5538219"><ele>1059.0</ele><time>2026-04-26T10:52:06.419Z</time></trkpt><trkpt lat="44.1902519" lon="10.5539223"><ele>1059.0</ele><time>2026-04-26T10:52:07.419Z</time></trkpt><trkpt lat="44.1901991" lon="10.5540298"><ele>1059.0</ele><time>2026-04-26T10:52:08.419Z</time></trkpt><trkpt lat="44.190168" lon="10.5541547"><ele>1059.0</ele><time>2026-04-26T10:52:09.419Z</time></trkpt><trkpt lat="44.1901616" lon="10.5542907"><ele>1059.0</ele><time>2026-04-26T10:52:10.419Z</time></trkpt><trkpt lat="44.1901724" lon="10.5544238"><ele>1059.0</ele><time>2026-04-26T10:52:11.419Z</time></trkpt><trkpt lat="44.1902009" lon="10.5545574"><ele>1059.0</ele><time>2026-04-26T10:52:12.419Z</time></trkpt><trkpt lat="44.1902382" lon="10.5546901"><ele>1058.6666666666667</ele><time>2026-04-26T10:52:13.419Z</time></trkpt><trkpt lat="44.1902804" lon="10.5548203"><ele>1058.3333333333333</ele><time>2026-04-26T10:52:14.418Z</time></trkpt><trkpt lat="44.1903335" lon="10.5549434"><ele>1058.0</ele><time>2026-04-26T10:52:15.418Z</time></trkpt><trkpt lat="44.1903792" lon="10.5550499"><ele>1057.6666666666665</ele><time>2026-04-26T10:52:16.418Z</time></trkpt><trkpt lat="44.1904213" lon="10.5551506"><ele>1057.3333333333333</ele><time>2026-04-26T10:52:17.418Z</time></trkpt><trkpt lat="44.190468" lon="10.5552224"><ele>1057.0</ele><time>2026-04-26T10:52:18.418Z</time></trkpt><trkpt lat="44.190561" lon="10.5553142"><ele>1057.142857142857</ele><time>2026-04-26T10:52:20.418Z</time></trkpt><trkpt lat="44.1906377" lon="10.5554016"><ele>1057.2857142857142</ele><time>2026-04-26T10:52:22.418Z</time></trkpt><trkpt lat="44.1906891" lon="10.5554577"><ele>1057.4285714285716</ele><time>2026-04-26T10:52:24.418Z</time></trkpt><trkpt lat="44.1907586" lon="10.5554913"><ele>1057.5714285714284</ele><time>2026-04-26T10:52:28.418Z</time></trkpt><trkpt lat="44.19079" lon="10.5555704"><ele>1057.7142857142858</ele><time>2026-04-26T10:54:07.418Z</time></trkpt><trkpt lat="44.1908195" lon="10.5556546"><ele>1057.857142857143</ele><time>2026-04-26T10:54:44.418Z</time></trkpt><trkpt lat="44.1908523" lon="10.5557316"><ele>1058.0</ele><time>2026-04-26T11:07:25.413Z</time></trkpt><trkpt lat="44.1907521" lon="10.5556795"><ele>1058.0</ele><time>2026-04-26T11:14:26.409Z</time></trkpt><trkpt lat="44.1908317" lon="10.555693"><ele>1058.0</ele><time>2026-04-26T11:20:11.406Z</time></trkpt><trkpt lat="44.190758" lon="10.5556817"><ele>1058.0</ele><time>2026-04-26T11:23:40.404Z</time></trkpt><trkpt lat="44.1906918" lon="10.5556737"><ele>1058.0</ele><time>2026-04-26T11:23:44.404Z</time></trkpt><trkpt lat="44.1905587" lon="10.5556832"><ele>1058.0</ele><time>2026-04-26T11:23:45.404Z</time></trkpt><trkpt lat="44.190675" lon="10.555695"><ele>1058.0</ele><time>2026-04-26T11:24:31.404Z</time></trkpt><trkpt lat="44.1907867" lon="10.55566"><ele>1058.0</ele><time>2026-04-26T11:25:43.404Z</time></trkpt><trkpt lat="44.1907067" lon="10.5556783"><ele>1058.0</ele><time>2026-04-26T11:40:49.398Z</time></trkpt><trkpt lat="44.190565" lon="10.555765"><ele>1058.0</ele><time>2026-04-26T11:40:50.398Z</time></trkpt><trkpt lat="44.1906117" lon="10.5556467"><ele>1058.0</ele><time>2026-04-26T11:41:13.398Z</time></trkpt><trkpt lat="44.1907" lon="10.5556017"><ele>1057.0</ele><time>2026-04-26T11:41:58.398Z</time></trkpt><trkpt lat="44.1907567" lon="10.5556633"><ele>1056.0</ele><time>2026-04-26T11:43:12.397Z</time></trkpt><trkpt lat="44.190855" lon="10.5556833"><ele>1055.0</ele><time>2026-04-26T11:48:31.396Z</time></trkpt><trkpt lat="44.1907917" lon="10.5557"><ele>1054.0</ele><time>2026-04-26T12:01:47.391Z</time></trkpt><trkpt lat="44.1906967" lon="10.5557267"><ele>1053.0</ele><time>2026-04-26T12:01:48.391Z</time></trkpt><trkpt lat="44.1907767" lon="10.555655"><ele>1052.0</ele><time>2026-04-26T12:02:38.391Z</time></trkpt><trkpt lat="44.1908883" lon="10.5557"><ele>1052.0</ele><time>2026-04-26T12:13:16.388Z</time></trkpt><trkpt lat="44.19077" lon="10.55572"><ele>1052.0</ele><time>2026-04-26T12:19:12.385Z</time></trkpt><trkpt lat="44.1906483" lon="10.5557167"><ele>1052.0</ele><time>2026-04-26T12:22:14.384Z</time></trkpt><trkpt lat="44.1908417" lon="10.5557217"><ele>1052.0</ele><time>2026-04-26T12:22:42.384Z</time></trkpt><trkpt lat="44.1907167" lon="10.5558617"><ele>1052.0</ele><time>2026-04-26T12:24:12.384Z</time></trkpt><trkpt lat="44.19058" lon="10.55597"><ele>1052.0</ele><time>2026-04-26T12:24:14.384Z</time></trkpt><trkpt lat="44.19074" lon="10.5557933"><ele>1052.0</ele><time>2026-04-26T12:24:34.384Z</time></trkpt><trkpt lat="44.1908333" lon="10.5557367"><ele>1052.0</ele><time>2026-04-26T12:25:13.383Z</time></trkpt><trkpt lat="44.1907833" lon="10.5556633"><ele>1052.0</ele><time>2026-04-26T12:38:27.379Z</time></trkpt><trkpt lat="44.19083" lon="10.5555667"><ele>1052.0</ele><time>2026-04-26T12:39:20.379Z</time></trkpt><trkpt lat="44.190785" lon="10.5555033"><ele>1052.0</ele><time>2026-04-26T12:39:28.379Z</time></trkpt><trkpt lat="44.1907433" lon="10.5556167"><ele>1052.0</ele><time>2026-04-26T12:44:58.377Z</time></trkpt><trkpt lat="44.19078" lon="10.555715"><ele>1052.0</ele><time>2026-04-26T12:45:00.377Z</time></trkpt><trkpt lat="44.19081" lon="10.5558483"><ele>1052.0</ele><time>2026-04-26T12:45:02.377Z</time></trkpt><trkpt lat="44.1908267" lon="10.556015"><ele>1052.0</ele><time>2026-04-26T12:45:04.377Z</time></trkpt><trkpt lat="44.1908133" lon="10.5561067"><ele>1052.0</ele><time>2026-04-26T12:45:05.377Z</time></trkpt><trkpt lat="44.1907817" lon="10.5562033"><ele>1052.0</ele><time>2026-04-26T12:45:06.377Z</time></trkpt><trkpt lat="44.1907317" lon="10.55628"><ele>1052.0</ele><time>2026-04-26T12:45:07.377Z</time></trkpt><trkpt lat="44.1906683" lon="10.556335"><ele>1052.0</ele><time>2026-04-26T12:45:08.377Z</time></trkpt><trkpt lat="44.1906017" lon="10.55637"><ele>1053.0</ele><time>2026-04-26T12:45:09.377Z</time></trkpt><trkpt lat="44.1905333" lon="10.55639"><ele>1054.0</ele><time>2026-04-26T12:45:10.377Z</time></trkpt><trkpt lat="44.190445" lon="10.5563917"><ele>1055.0</ele><time>2026-04-26T12:45:11.377Z</time></trkpt><trkpt lat="44.1903467" lon="10.5563917"><ele>1056.0</ele><time>2026-04-26T12:45:12.377Z</time></trkpt><trkpt lat="44.190245" lon="10.5563983"><ele>1057.0</ele><time>2026-04-26T12:45:13.377Z</time></trkpt><trkpt lat="44.1901517" lon="10.5564167"><ele>1057.0</ele><time>2026-04-26T12:45:14.377Z</time></trkpt><trkpt lat="44.190065" lon="10.5564567"><ele>1057.0</ele><time>2026-04-26T12:45:15.377Z</time></trkpt><trkpt lat="44.1899983" lon="10.55651"><ele>1057.0</ele><time>2026-04-26T12:45:16.377Z</time></trkpt><trkpt lat="44.189955" lon="10.556675"><ele>1057.0</ele><time>2026-04-26T12:45:18.377Z</time></trkpt><trkpt lat="44.18995" lon="10.5567717"><ele>1057.0</ele><time>2026-04-26T12:45:19.377Z</time></trkpt><trkpt lat="44.1899467" lon="10.556885"><ele>1057.0</ele><time>2026-04-26T12:45:20.377Z</time></trkpt><trkpt lat="44.18994" lon="10.5570233"><ele>1054.25</ele><time>2026-04-26T12:45:21.377Z</time></trkpt><trkpt lat="44.1899533" lon="10.5571933"><ele>1051.5</ele><time>2026-04-26T12:45:22.378Z</time></trkpt><trkpt lat="44.1899833" lon="10.5573683"><ele>1048.75</ele><time>2026-04-26T12:45:23.377Z</time></trkpt><trkpt lat="44.1899983" lon="10.5575367"><ele>1046.0</ele><time>2026-04-26T12:45:24.377Z</time></trkpt><trkpt lat="44.19" lon="10.5576983"><ele>1046.0</ele><time>2026-04-26T12:45:25.377Z</time></trkpt><trkpt lat="44.18999" lon="10.55786"><ele>1046.0</ele><time>2026-04-26T12:45:26.377Z</time></trkpt><trkpt lat="44.189965" lon="10.55801"><ele>1046.0</ele><time>2026-04-26T12:45:27.377Z</time></trkpt><trkpt lat="44.18993" lon="10.5581617"><ele>1046.0</ele><time>2026-04-26T12:45:28.377Z</time></trkpt><trkpt lat="44.1898883" lon="10.5583033"><ele>1045.5</ele><time>2026-04-26T12:45:29.377Z</time></trkpt><trkpt lat="44.1898367" lon="10.5584117"><ele>1045.0</ele><time>2026-04-26T12:45:30.377Z</time></trkpt><trkpt lat="44.1897917" lon="10.5585183"><ele>1044.5</ele><time>2026-04-26T12:45:31.377Z</time></trkpt><trkpt lat="44.1897533" lon="10.5586183"><ele>1044.0</ele><time>2026-04-26T12:45:32.377Z</time></trkpt><trkpt lat="44.189715" lon="10.5587217"><ele>1043.5</ele><time>2026-04-26T12:45:33.377Z</time></trkpt><trkpt lat="44.18968" lon="10.558825"><ele>1043.0</ele><time>2026-04-26T12:45:34.377Z</time></trkpt><trkpt lat="44.1896633" lon="10.5589417"><ele>1043.0</ele><time>2026-04-26T12:45:35.377Z</time></trkpt><trkpt lat="44.1896567" lon="10.559065"><ele>1043.0</ele><time>2026-04-26T12:45:36.377Z</time></trkpt><trkpt lat="44.18969" lon="10.55918"><ele>1043.0</ele><time>2026-04-26T12:45:37.378Z</time></trkpt><trkpt lat="44.1897283" lon="10.5593033"><ele>1043.0</ele><time>2026-04-26T12:45:38.377Z</time></trkpt><trkpt lat="44.1897667" lon="10.5594283"><ele>1043.0</ele><time>2026-04-26T12:45:39.377Z</time></trkpt><trkpt lat="44.1897817" lon="10.55956"><ele>1040.8</ele><time>2026-04-26T12:45:40.377Z</time></trkpt><trkpt lat="44.18977" lon="10.5596967"><ele>1038.6</ele><time>2026-04-26T12:45:41.377Z</time></trkpt><trkpt lat="44.1897583" lon="10.5598217"><ele>1036.4</ele><time>2026-04-26T12:45:42.377Z</time></trkpt><trkpt lat="44.1897567" lon="10.559955"><ele>1034.2</ele><time>2026-04-26T12:45:43.377Z</time></trkpt><trkpt lat="44.189765" lon="10.56008"><ele>1032.0</ele><time>2026-04-26T12:45:44.377Z</time></trkpt><trkpt lat="44.189785" lon="10.560195"><ele>1032.0</ele><time>2026-04-26T12:45:45.377Z</time></trkpt><trkpt lat="44.1898033" lon="10.5603217"><ele>1032.0</ele><time>2026-04-26T12:45:46.377Z</time></trkpt><trkpt lat="44.1898033" lon="10.5604517"><ele>1032.0</ele><time>2026-04-26T12:45:47.377Z</time></trkpt><trkpt lat="44.1897883" lon="10.560585"><ele>1032.0</ele><time>2026-04-26T12:45:48.377Z</time></trkpt><trkpt lat="44.1897417" lon="10.5607233"><ele>1032.0</ele><time>2026-04-26T12:45:49.377Z</time></trkpt><trkpt lat="44.18968" lon="10.5608483"><ele>1029.4</ele><time>2026-04-26T12:45:50.377Z</time></trkpt><trkpt lat="44.1896167" lon="10.5609617"><ele>1026.8000000000002</ele><time>2026-04-26T12:45:51.377Z</time></trkpt><trkpt lat="44.18954" lon="10.5610767"><ele>1024.2</ele><time>2026-04-26T12:45:52.377Z</time></trkpt><trkpt lat="44.18946" lon="10.5611867"><ele>1021.6</ele><time>2026-04-26T12:45:53.377Z</time></trkpt><trkpt lat="44.1893767" lon="10.5612883"><ele>1019.0</ele><time>2026-04-26T12:45:54.377Z</time></trkpt><trkpt lat="44.1892933" lon="10.56139"><ele>1017.3333333333334</ele><time>2026-04-26T12:45:55.377Z</time></trkpt><trkpt lat="44.18921" lon="10.561475"><ele>1015.6666666666667</ele><time>2026-04-26T12:45:56.376Z</time></trkpt><trkpt lat="44.189125" lon="10.56153"><ele>1014.0</ele><time>2026-04-26T12:45:57.377Z</time></trkpt><trkpt lat="44.189045" lon="10.5615683"><ele>1012.3333333333333</ele><time>2026-04-26T12:45:58.376Z</time></trkpt><trkpt lat="44.1889683" lon="10.561595"><ele>1010.6666666666666</ele><time>2026-04-26T12:45:59.376Z</time></trkpt><trkpt lat="44.1888883" lon="10.56161"><ele>1009.0</ele><time>2026-04-26T12:46:00.376Z</time></trkpt><trkpt lat="44.188815" lon="10.5616133"><ele>1008.9999999999999</ele><time>2026-04-26T12:46:01.376Z</time></trkpt><trkpt lat="44.1887317" lon="10.5616017"><ele>1009.0</ele><time>2026-04-26T12:46:02.376Z</time></trkpt><trkpt lat="44.1886617" lon="10.5615883"><ele>1009.0</ele><time>2026-04-26T12:46:03.377Z</time></trkpt><trkpt lat="44.1885867" lon="10.561585"><ele>1009.0</ele><time>2026-04-26T12:46:04.376Z</time></trkpt><trkpt lat="44.1885067" lon="10.5615917"><ele>1008.9999999999999</ele><time>2026-04-26T12:46:05.376Z</time></trkpt><trkpt lat="44.1884233" lon="10.561615"><ele>1009.0</ele><time>2026-04-26T12:46:06.376Z</time></trkpt><trkpt lat="44.18834" lon="10.5616517"><ele>1009.0</ele><time>2026-04-26T12:46:07.377Z</time></trkpt><trkpt lat="44.18828" lon="10.561715"><ele>1009.0000000000001</ele><time>2026-04-26T12:46:08.376Z</time></trkpt><trkpt lat="44.1882467" lon="10.5618167"><ele>1009.0000000000001</ele><time>2026-04-26T12:46:09.376Z</time></trkpt><trkpt lat="44.1882467" lon="10.5619533"><ele>1009.0</ele><time>2026-04-26T12:46:10.376Z</time></trkpt><trkpt lat="44.1882333" lon="10.5621267"><ele>1009.0</ele><time>2026-04-26T12:46:11.376Z</time></trkpt><trkpt lat="44.1882333" lon="10.562365"><ele>1005.3333333333333</ele><time>2026-04-26T12:46:12.376Z</time></trkpt><trkpt lat="44.1882283" lon="10.5626367"><ele>1001.6666666666667</ele><time>2026-04-26T12:46:13.376Z</time></trkpt><trkpt lat="44.1882083" lon="10.5629033"><ele>998.0</ele><time>2026-04-26T12:46:14.376Z</time></trkpt><trkpt lat="44.1881933" lon="10.56315"><ele>997.0</ele><time>2026-04-26T12:46:15.376Z</time></trkpt><trkpt lat="44.1881833" lon="10.563375"><ele>996.0</ele><time>2026-04-26T12:46:16.376Z</time></trkpt><trkpt lat="44.1881833" lon="10.5636"><ele>995.0</ele><time>2026-04-26T12:46:17.376Z</time></trkpt><trkpt lat="44.1881717" lon="10.563805"><ele>995.0</ele><time>2026-04-26T12:46:18.376Z</time></trkpt><trkpt lat="44.1881517" lon="10.5640017"><ele>995.0</ele><time>2026-04-26T12:46:19.376Z</time></trkpt><trkpt lat="44.188135" lon="10.5641783"><ele>995.0</ele><time>2026-04-26T12:46:20.376Z</time></trkpt><trkpt lat="44.18811" lon="10.564305"><ele>995.0</ele><time>2026-04-26T12:46:21.376Z</time></trkpt><trkpt lat="44.1880567" lon="10.564395"><ele>995.0</ele><time>2026-04-26T12:46:22.376Z</time></trkpt><trkpt lat="44.18798" lon="10.5644367"><ele>995.0</ele><time>2026-04-26T12:46:23.376Z</time></trkpt><trkpt lat="44.1878833" lon="10.5644433"><ele>995.0</ele><time>2026-04-26T12:46:24.376Z</time></trkpt><trkpt lat="44.1877733" lon="10.56446"><ele>995.0</ele><time>2026-04-26T12:46:25.376Z</time></trkpt><trkpt lat="44.18763" lon="10.56446"><ele>995.0</ele><time>2026-04-26T12:46:26.376Z</time></trkpt><trkpt lat="44.1874967" lon="10.56447"><ele>995.0</ele><time>2026-04-26T12:46:27.376Z</time></trkpt><trkpt lat="44.1873717" lon="10.5645067"><ele>995.0</ele><time>2026-04-26T12:46:28.376Z</time></trkpt><trkpt lat="44.1872467" lon="10.5645433"><ele>995.0</ele><time>2026-04-26T12:46:29.376Z</time></trkpt><trkpt lat="44.18713" lon="10.56459"><ele>995.0</ele><time>2026-04-26T12:46:30.376Z</time></trkpt><trkpt lat="44.1870217" lon="10.5646367"><ele>991.6</ele><time>2026-04-26T12:46:31.376Z</time></trkpt><trkpt lat="44.1869183" lon="10.5646767"><ele>988.2</ele><time>2026-04-26T12:46:32.376Z</time></trkpt><trkpt lat="44.1868167" lon="10.56471"><ele>984.8</ele><time>2026-04-26T12:46:33.376Z</time></trkpt><trkpt lat="44.1867117" lon="10.5647383"><ele>981.4</ele><time>2026-04-26T12:46:34.376Z</time></trkpt><trkpt lat="44.18661" lon="10.5647917"><ele>978.0</ele><time>2026-04-26T12:46:35.376Z</time></trkpt><trkpt lat="44.18652" lon="10.5648733"><ele>980.8</ele><time>2026-04-26T12:46:36.376Z</time></trkpt><trkpt lat="44.1864483" lon="10.56499"><ele>983.5999999999999</ele><time>2026-04-26T12:46:37.376Z</time></trkpt><trkpt lat="44.186415" lon="10.5651267"><ele>986.4000000000001</ele><time>2026-04-26T12:46:38.376Z</time></trkpt><trkpt lat="44.1863983" lon="10.56527"><ele>989.2</ele><time>2026-04-26T12:46:39.376Z</time></trkpt><trkpt lat="44.1864" lon="10.5654"><ele>992.0</ele><time>2026-04-26T12:46:40.376Z</time></trkpt><trkpt lat="44.186415" lon="10.5655267"><ele>992.4000000000001</ele><time>2026-04-26T12:46:41.376Z</time></trkpt><trkpt lat="44.1864533" lon="10.5656483"><ele>992.8000000000001</ele><time>2026-04-26T12:46:42.376Z</time></trkpt><trkpt lat="44.1865083" lon="10.5657483"><ele>993.2</ele><time>2026-04-26T12:46:43.376Z</time></trkpt><trkpt lat="44.1865517" lon="10.565835"><ele>993.6</ele><time>2026-04-26T12:46:44.376Z</time></trkpt><trkpt lat="44.1866383" lon="10.565905"><ele>994.0</ele><time>2026-04-26T12:46:45.376Z</time></trkpt><trkpt lat="44.1867383" lon="10.5659283"><ele>994.0</ele><time>2026-04-26T12:46:46.376Z</time></trkpt><trkpt lat="44.1868483" lon="10.565945"><ele>994.0</ele><time>2026-04-26T12:46:47.376Z</time></trkpt><trkpt lat="44.1869867" lon="10.56596"><ele>994.0</ele><time>2026-04-26T12:46:48.376Z</time></trkpt><trkpt lat="44.18712" lon="10.566005"><ele>994.0</ele><time>2026-04-26T12:46:49.376Z</time></trkpt><trkpt lat="44.1872383" lon="10.5661017"><ele>994.25</ele><time>2026-04-26T12:46:50.376Z</time></trkpt><trkpt lat="44.1873317" lon="10.5662383"><ele>994.5</ele><time>2026-04-26T12:46:51.376Z</time></trkpt><trkpt lat="44.1874033" lon="10.5663867"><ele>994.75</ele><time>2026-04-26T12:46:52.376Z</time></trkpt><trkpt lat="44.1874617" lon="10.5665317"><ele>995.0</ele><time>2026-04-26T12:46:53.376Z</time></trkpt><trkpt lat="44.1875133" lon="10.5666633"><ele>995.0</ele><time>2026-04-26T12:46:54.376Z</time></trkpt><trkpt lat="44.1875617" lon="10.5667983"><ele>995.0</ele><time>2026-04-26T12:46:55.376Z</time></trkpt><trkpt lat="44.18761" lon="10.5669267"><ele>995.0</ele><time>2026-04-26T12:46:56.376Z</time></trkpt><trkpt lat="44.1876683" lon="10.5670383"><ele>995.0</ele><time>2026-04-26T12:46:57.376Z</time></trkpt><trkpt lat="44.187725" lon="10.567135"><ele>995.0</ele><time>2026-04-26T12:46:58.376Z</time></trkpt><trkpt lat="44.1877933" lon="10.5672317"><ele>992.6</ele><time>2026-04-26T12:46:59.376Z</time></trkpt><trkpt lat="44.1878733" lon="10.5673117"><ele>990.2</ele><time>2026-04-26T12:47:00.376Z</time></trkpt><trkpt lat="44.18796" lon="10.5674017"><ele>987.8</ele><time>2026-04-26T12:47:01.376Z</time></trkpt><trkpt lat="44.1880467" lon="10.567485"><ele>985.4</ele><time>2026-04-26T12:47:02.376Z</time></trkpt><trkpt lat="44.1881317" lon="10.5675917"><ele>983.0</ele><time>2026-04-26T12:47:03.376Z</time></trkpt><trkpt lat="44.18821" lon="10.5677"><ele>983.0</ele><time>2026-04-26T12:47:04.376Z</time></trkpt><trkpt lat="44.1882867" lon="10.56781"><ele>983.0</ele><time>2026-04-26T12:47:05.376Z</time></trkpt><trkpt lat="44.1883567" lon="10.56792"><ele>983.0</ele><time>2026-04-26T12:47:06.376Z</time></trkpt><trkpt lat="44.1884183" lon="10.568045"><ele>983.0</ele><time>2026-04-26T12:47:07.376Z</time></trkpt><trkpt lat="44.188475" lon="10.5681717"><ele>983.0</ele><time>2026-04-26T12:47:08.376Z</time></trkpt><trkpt lat="44.1885217" lon="10.5683067"><ele>987.5999999999999</ele><time>2026-04-26T12:47:09.376Z</time></trkpt><trkpt lat="44.1885667" lon="10.5684383"><ele>992.1999999999999</ele><time>2026-04-26T12:47:10.376Z</time></trkpt><trkpt lat="44.1886117" lon="10.5685733"><ele>996.8</ele><time>2026-04-26T12:47:11.376Z</time></trkpt><trkpt lat="44.1886583" lon="10.56871"><ele>1001.4</ele><time>2026-04-26T12:47:12.376Z</time></trkpt><trkpt lat="44.1887017" lon="10.5688517"><ele>1006.0</ele><time>2026-04-26T12:47:13.376Z</time></trkpt><trkpt lat="44.18875" lon="10.56898"><ele>1009.75</ele><time>2026-04-26T12:47:14.376Z</time></trkpt><trkpt lat="44.1887883" lon="10.5691267"><ele>1013.5</ele><time>2026-04-26T12:47:15.376Z</time></trkpt><trkpt lat="44.188825" lon="10.5692833"><ele>1017.25</ele><time>2026-04-26T12:47:16.376Z</time></trkpt><trkpt lat="44.1888617" lon="10.5694517"><ele>1021.0</ele><time>2026-04-26T12:47:17.376Z</time></trkpt><trkpt lat="44.188895" lon="10.5696167"><ele>1022.75</ele><time>2026-04-26T12:47:18.376Z</time></trkpt><trkpt lat="44.18893" lon="10.56979"><ele>1024.5</ele><time>2026-04-26T12:47:19.376Z</time></trkpt><trkpt lat="44.1889567" lon="10.5699383"><ele>1026.25</ele><time>2026-04-26T12:47:20.376Z</time></trkpt><trkpt lat="44.1889733" lon="10.57009"><ele>1028.0</ele><time>2026-04-26T12:47:21.376Z</time></trkpt><trkpt lat="44.1889667" lon="10.570235"><ele>1025.5</ele><time>2026-04-26T12:47:22.376Z</time></trkpt><trkpt lat="44.1889267" lon="10.5703883"><ele>1023.0</ele><time>2026-04-26T12:47:23.376Z</time></trkpt><trkpt lat="44.1888667" lon="10.5705533"><ele>1020.5</ele><time>2026-04-26T12:47:24.376Z</time></trkpt><trkpt lat="44.1888" lon="10.5707483"><ele>1018.0</ele><time>2026-04-26T12:47:25.376Z</time></trkpt><trkpt lat="44.1887233" lon="10.57096"><ele>1018.0</ele><time>2026-04-26T12:47:26.376Z</time></trkpt><trkpt lat="44.1886467" lon="10.5711733"><ele>1018.0</ele><time>2026-04-26T12:47:27.376Z</time></trkpt><trkpt lat="44.1885767" lon="10.571355"><ele>1018.0</ele><time>2026-04-26T12:47:28.376Z</time></trkpt><trkpt lat="44.18847" lon="10.5715317"><ele>1013.0</ele><time>2026-04-26T12:47:29.376Z</time></trkpt><trkpt lat="44.1883617" lon="10.5716767"><ele>1008.0</ele><time>2026-04-26T12:47:30.376Z</time></trkpt><trkpt lat="44.18827" lon="10.57179"><ele>1003.0</ele><time>2026-04-26T12:47:31.376Z</time></trkpt><trkpt lat="44.18821" lon="10.57193"><ele>998.0</ele><time>2026-04-26T12:47:32.376Z</time></trkpt><trkpt lat="44.1881767" lon="10.5720783"><ele>997.0</ele><time>2026-04-26T12:47:33.376Z</time></trkpt><trkpt lat="44.188185" lon="10.5722383"><ele>996.0</ele><time>2026-04-26T12:47:34.376Z</time></trkpt><trkpt lat="44.1882117" lon="10.5724267"><ele>995.0</ele><time>2026-04-26T12:47:35.376Z</time></trkpt><trkpt lat="44.1882183" lon="10.5726217"><ele>994.0</ele><time>2026-04-26T12:47:36.376Z</time></trkpt><trkpt lat="44.18821" lon="10.5728083"><ele>998.5</ele><time>2026-04-26T12:47:37.376Z</time></trkpt><trkpt lat="44.18815" lon="10.5729783"><ele>1003.0</ele><time>2026-04-26T12:47:38.376Z</time></trkpt><trkpt lat="44.188085" lon="10.573145"><ele>1007.5</ele><time>2026-04-26T12:47:39.376Z</time></trkpt><trkpt lat="44.188055" lon="10.57333"><ele>1012.0</ele><time>2026-04-26T12:47:40.376Z</time></trkpt><trkpt lat="44.18805" lon="10.5735317"><ele>1013.3333333333333</ele><time>2026-04-26T12:47:41.376Z</time></trkpt><trkpt lat="44.188055" lon="10.57378"><ele>1014.6666666666667</ele><time>2026-04-26T12:47:42.377Z</time></trkpt><trkpt lat="44.188085" lon="10.5740267"><ele>1016.0</ele><time>2026-04-26T12:47:43.376Z</time></trkpt><trkpt lat="44.18812" lon="10.57426"><ele>1016.0</ele><time>2026-04-26T12:47:44.376Z</time></trkpt><trkpt lat="44.1881483" lon="10.5744767"><ele>1016.0</ele><time>2026-04-26T12:47:45.376Z</time></trkpt><trkpt lat="44.1881583" lon="10.5746933"><ele>1016.0</ele><time>2026-04-26T12:47:46.376Z</time></trkpt><trkpt lat="44.1881483" lon="10.5749083"><ele>1018.6666666666667</ele><time>2026-04-26T12:47:47.376Z</time></trkpt><trkpt lat="44.18813" lon="10.57513"><ele>1021.3333333333333</ele><time>2026-04-26T12:47:48.376Z</time></trkpt><trkpt lat="44.18812" lon="10.57535"><ele>1024.0</ele><time>2026-04-26T12:47:49.376Z</time></trkpt><trkpt lat="44.1881333" lon="10.57558"><ele>1024.3333333333333</ele><time>2026-04-26T12:47:50.376Z</time></trkpt><trkpt lat="44.1881583" lon="10.5757983"><ele>1024.6666666666667</ele><time>2026-04-26T12:47:51.376Z</time></trkpt><trkpt lat="44.188215" lon="10.576"><ele>1025.0</ele><time>2026-04-26T12:47:52.376Z</time></trkpt><trkpt lat="44.18828" lon="10.5761833"><ele>1018.25</ele><time>2026-04-26T12:47:53.376Z</time></trkpt><trkpt lat="44.1883433" lon="10.5763583"><ele>1011.5</ele><time>2026-04-26T12:47:54.377Z</time></trkpt><trkpt lat="44.1883783" lon="10.5765433"><ele>1004.75</ele><time>2026-04-26T12:47:55.376Z</time></trkpt><trkpt lat="44.1883883" lon="10.5767233"><ele>998.0</ele><time>2026-04-26T12:47:56.376Z</time></trkpt><trkpt lat="44.1883517" lon="10.5768783"><ele>998.0</ele><time>2026-04-26T12:47:57.376Z</time></trkpt><trkpt lat="44.18828" lon="10.5770033"><ele>998.0</ele><time>2026-04-26T12:47:58.376Z</time></trkpt><trkpt lat="44.1881617" lon="10.5770983"><ele>998.0</ele><time>2026-04-26T12:47:59.376Z</time></trkpt><trkpt lat="44.1880167" lon="10.57715"><ele>998.0</ele><time>2026-04-26T12:48:00.376Z</time></trkpt><trkpt lat="44.1878617" lon="10.577205"><ele>998.3333333333334</ele><time>2026-04-26T12:48:01.376Z</time></trkpt><trkpt lat="44.1877117" lon="10.5772633"><ele>998.6666666666667</ele><time>2026-04-26T12:48:02.376Z</time></trkpt><trkpt lat="44.1875633" lon="10.5773417"><ele>999.0</ele><time>2026-04-26T12:48:03.376Z</time></trkpt><trkpt lat="44.1874167" lon="10.5774367"><ele>1000.0</ele><time>2026-04-26T12:48:04.376Z</time></trkpt><trkpt lat="44.1872983" lon="10.577565"><ele>1001.0</ele><time>2026-04-26T12:48:05.376Z</time></trkpt><trkpt lat="44.1872017" lon="10.5776917"><ele>1002.0</ele><time>2026-04-26T12:48:06.376Z</time></trkpt><trkpt lat="44.1871183" lon="10.5778267"><ele>1003.0</ele><time>2026-04-26T12:48:07.376Z</time></trkpt><trkpt lat="44.187045" lon="10.5779817"><ele>1003.0</ele><time>2026-04-26T12:48:08.376Z</time></trkpt><trkpt lat="44.1870333" lon="10.5781617"><ele>1003.0</ele><time>2026-04-26T12:48:09.376Z</time></trkpt><trkpt lat="44.1870067" lon="10.57835"><ele>1003.0</ele><time>2026-04-26T12:48:10.376Z</time></trkpt><trkpt lat="44.1870217" lon="10.5785483"><ele>1003.0</ele><time>2026-04-26T12:48:11.376Z</time></trkpt><trkpt lat="44.1870483" lon="10.5787817"><ele>1003.6666666666666</ele><time>2026-04-26T12:48:12.376Z</time></trkpt><trkpt lat="44.1870583" lon="10.5790233"><ele>1004.3333333333333</ele><time>2026-04-26T12:48:13.376Z</time></trkpt><trkpt lat="44.1870733" lon="10.5792733"><ele>1005.0</ele><time>2026-04-26T12:48:14.376Z</time></trkpt><trkpt lat="44.187085" lon="10.579525"><ele>1006.3333333333333</ele><time>2026-04-26T12:48:15.376Z</time></trkpt><trkpt lat="44.18711" lon="10.5797533"><ele>1007.6666666666666</ele><time>2026-04-26T12:48:16.376Z</time></trkpt><trkpt lat="44.1871283" lon="10.579995"><ele>1009.0</ele><time>2026-04-26T12:48:17.376Z</time></trkpt><trkpt lat="44.1871117" lon="10.58024"><ele>1010.0</ele><time>2026-04-26T12:48:18.376Z</time></trkpt><trkpt lat="44.1870817" lon="10.5804717"><ele>1011.0</ele><time>2026-04-26T12:48:19.377Z</time></trkpt><trkpt lat="44.1870517" lon="10.58068"><ele>1012.0</ele><time>2026-04-26T12:48:20.377Z</time></trkpt><trkpt lat="44.1870317" lon="10.580875"><ele>1012.0</ele><time>2026-04-26T12:48:21.376Z</time></trkpt><trkpt lat="44.1870433" lon="10.5810517"><ele>1012.0</ele><time>2026-04-26T12:48:22.376Z</time></trkpt><trkpt lat="44.1871" lon="10.5811933"><ele>1012.0</ele><time>2026-04-26T12:48:23.377Z</time></trkpt><trkpt lat="44.1871833" lon="10.5813133"><ele>1012.0</ele><time>2026-04-26T12:48:24.376Z</time></trkpt><trkpt lat="44.1873067" lon="10.5813783"><ele>1009.0</ele><time>2026-04-26T12:48:25.376Z</time></trkpt><trkpt lat="44.18745" lon="10.581405"><ele>1006.0</ele><time>2026-04-26T12:48:26.376Z</time></trkpt><trkpt lat="44.1876033" lon="10.58144"><ele>1003.0</ele><time>2026-04-26T12:48:27.376Z</time></trkpt><trkpt lat="44.1877533" lon="10.5815"><ele>1003.0</ele><time>2026-04-26T12:48:28.376Z</time></trkpt><trkpt lat="44.187885" lon="10.5816133"><ele>1003.0</ele><time>2026-04-26T12:48:29.376Z</time></trkpt><trkpt lat="44.188015" lon="10.5817683"><ele>1003.0</ele><time>2026-04-26T12:48:30.376Z</time></trkpt><trkpt lat="44.188165" lon="10.5819367"><ele>1001.6666666666666</ele><time>2026-04-26T12:48:31.376Z</time></trkpt><trkpt lat="44.1883217" lon="10.5821133"><ele>1000.3333333333333</ele><time>2026-04-26T12:48:32.376Z</time></trkpt><trkpt lat="44.1885083" lon="10.5822833"><ele>999.0</ele><time>2026-04-26T12:48:33.376Z</time></trkpt><trkpt lat="44.188695" lon="10.582445"><ele>999.0</ele><time>2026-04-26T12:48:34.376Z</time></trkpt><trkpt lat="44.1888883" lon="10.5825983"><ele>999.0</ele><time>2026-04-26T12:48:35.376Z</time></trkpt><trkpt lat="44.1890633" lon="10.582735"><ele>999.0</ele><time>2026-04-26T12:48:36.376Z</time></trkpt><trkpt lat="44.1892217" lon="10.582835"><ele>998.0</ele><time>2026-04-26T12:48:37.376Z</time></trkpt><trkpt lat="44.1893717" lon="10.5829083"><ele>997.0</ele><time>2026-04-26T12:48:38.376Z</time></trkpt><trkpt lat="44.1895133" lon="10.5829433"><ele>996.0</ele><time>2026-04-26T12:48:39.376Z</time></trkpt><trkpt lat="44.1896533" lon="10.5829733"><ele>995.0</ele><time>2026-04-26T12:48:40.376Z</time></trkpt><trkpt lat="44.1897717" lon="10.58302"><ele>990.6</ele><time>2026-04-26T12:48:41.376Z</time></trkpt><trkpt lat="44.189855" lon="10.58308"><ele>986.2</ele><time>2026-04-26T12:48:42.376Z</time></trkpt><trkpt lat="44.1899067" lon="10.5831567"><ele>981.8</ele><time>2026-04-26T12:48:43.376Z</time></trkpt><trkpt lat="44.189955" lon="10.583315"><ele>977.4</ele><time>2026-04-26T12:48:44.377Z</time></trkpt><trkpt lat="44.1900017" lon="10.5834783"><ele>973.0</ele><time>2026-04-26T12:48:45.376Z</time></trkpt><trkpt lat="44.1900467" lon="10.58364"><ele>978.0</ele><time>2026-04-26T12:48:46.376Z</time></trkpt><trkpt lat="44.190115" lon="10.583775"><ele>983.0</ele><time>2026-04-26T12:48:47.376Z</time></trkpt><trkpt lat="44.1902267" lon="10.583875"><ele>988.0</ele><time>2026-04-26T12:48:48.376Z</time></trkpt><trkpt lat="44.1903783" lon="10.5839483"><ele>993.0</ele><time>2026-04-26T12:48:49.376Z</time></trkpt><trkpt lat="44.1905483" lon="10.583985"><ele>985.3333333333333</ele><time>2026-04-26T12:48:50.376Z</time></trkpt><trkpt lat="44.1907267" lon="10.5840083"><ele>977.6666666666666</ele><time>2026-04-26T12:48:51.376Z</time></trkpt><trkpt lat="44.1908733" lon="10.58407"><ele>970.0</ele><time>2026-04-26T12:48:52.376Z</time></trkpt><trkpt lat="44.19101" lon="10.5841767"><ele>970.0</ele><time>2026-04-26T12:48:53.376Z</time></trkpt><trkpt lat="44.19114" lon="10.584325"><ele>970.0</ele><time>2026-04-26T12:48:54.377Z</time></trkpt><trkpt lat="44.1912833" lon="10.5845267"><ele>970.0</ele><time>2026-04-26T12:48:55.376Z</time></trkpt><trkpt lat="44.1913833" lon="10.5847117"><ele>976.0</ele><time>2026-04-26T12:48:56.376Z</time></trkpt><trkpt lat="44.1914917" lon="10.5849067"><ele>982.0</ele><time>2026-04-26T12:48:57.376Z</time></trkpt><trkpt lat="44.1915817" lon="10.58511"><ele>988.0</ele><time>2026-04-26T12:48:58.376Z</time></trkpt><trkpt lat="44.1916483" lon="10.5853267"><ele>979.0</ele><time>2026-04-26T12:48:59.376Z</time></trkpt><trkpt lat="44.1916883" lon="10.5855617"><ele>970.0</ele><time>2026-04-26T12:49:00.375Z</time></trkpt><trkpt lat="44.19172" lon="10.5858067"><ele>961.0</ele><time>2026-04-26T12:49:01.375Z</time></trkpt><trkpt lat="44.19175" lon="10.5860567"><ele>959.0</ele><time>2026-04-26T12:49:02.375Z</time></trkpt><trkpt lat="44.191765" lon="10.5862933"><ele>957.0</ele><time>2026-04-26T12:49:03.375Z</time></trkpt><trkpt lat="44.1917517" lon="10.58653"><ele>955.0</ele><time>2026-04-26T12:49:04.375Z</time></trkpt><trkpt lat="44.1917" lon="10.5867367"><ele>955.0</ele><time>2026-04-26T12:49:05.375Z</time></trkpt><trkpt lat="44.191605" lon="10.586915"><ele>955.0</ele><time>2026-04-26T12:49:06.375Z</time></trkpt><trkpt lat="44.19149" lon="10.5870717"><ele>955.0</ele><time>2026-04-26T12:49:07.375Z</time></trkpt><trkpt lat="44.191365" lon="10.58719"><ele>960.0</ele><time>2026-04-26T12:49:08.375Z</time></trkpt><trkpt lat="44.19125" lon="10.5872817"><ele>965.0</ele><time>2026-04-26T12:49:09.375Z</time></trkpt><trkpt lat="44.1911417" lon="10.5873733"><ele>970.0</ele><time>2026-04-26T12:49:10.375Z</time></trkpt><trkpt lat="44.1910683" lon="10.5874867"><ele>975.0</ele><time>2026-04-26T12:49:11.375Z</time></trkpt><trkpt lat="44.1909983" lon="10.5875967"><ele>975.0</ele><time>2026-04-26T12:49:12.375Z</time></trkpt><trkpt lat="44.1909517" lon="10.5876933"><ele>975.0</ele><time>2026-04-26T12:49:13.375Z</time></trkpt><trkpt lat="44.1909167" lon="10.587805"><ele>975.0</ele><time>2026-04-26T12:49:14.375Z</time></trkpt><trkpt lat="44.1909733" lon="10.5879833"><ele>975.0</ele><time>2026-04-26T12:49:16.375Z</time></trkpt><trkpt lat="44.1912667" lon="10.588115"><ele>980.3333333333333</ele><time>2026-04-26T12:49:17.375Z</time></trkpt><trkpt lat="44.19143" lon="10.58826"><ele>985.6666666666666</ele><time>2026-04-26T12:49:18.375Z</time></trkpt><trkpt lat="44.19158" lon="10.5884083"><ele>991.0</ele><time>2026-04-26T12:49:19.375Z</time></trkpt><trkpt lat="44.1916883" lon="10.5885883"><ele>978.3333333333333</ele><time>2026-04-26T12:49:20.375Z</time></trkpt><trkpt lat="44.1917783" lon="10.5888067"><ele>965.6666666666667</ele><time>2026-04-26T12:49:21.375Z</time></trkpt><trkpt lat="44.1918767" lon="10.589055"><ele>953.0</ele><time>2026-04-26T12:49:22.375Z</time></trkpt><trkpt lat="44.1919317" lon="10.589305"><ele>955.3333333333334</ele><time>2026-04-26T12:49:23.375Z</time></trkpt><trkpt lat="44.191965" lon="10.58955"><ele>957.6666666666667</ele><time>2026-04-26T12:49:24.375Z</time></trkpt><trkpt lat="44.1919817" lon="10.5897683"><ele>960.0</ele><time>2026-04-26T12:49:25.375Z</time></trkpt><trkpt lat="44.1919933" lon="10.5899683"><ele>960.0</ele><time>2026-04-26T12:49:26.375Z</time></trkpt><trkpt lat="44.1920067" lon="10.59013"><ele>960.0</ele><time>2026-04-26T12:49:27.375Z</time></trkpt><trkpt lat="44.1920533" lon="10.59027"><ele>960.0</ele><time>2026-04-26T12:49:28.375Z</time></trkpt><trkpt lat="44.1921" lon="10.5903883"><ele>960.0</ele><time>2026-04-26T12:49:29.375Z</time></trkpt><trkpt lat="44.1921783" lon="10.5905017"><ele>960.0</ele><time>2026-04-26T12:49:30.375Z</time></trkpt><trkpt lat="44.19233" lon="10.590615"><ele>951.0</ele><time>2026-04-26T12:49:31.375Z</time></trkpt><trkpt lat="44.1925817" lon="10.5906283"><ele>942.0</ele><time>2026-04-26T12:49:32.375Z</time></trkpt><trkpt lat="44.1927933" lon="10.590725"><ele>942.0</ele><time>2026-04-26T12:49:33.375Z</time></trkpt><trkpt lat="44.1929667" lon="10.5908117"><ele>942.0</ele><time>2026-04-26T12:49:34.375Z</time></trkpt><trkpt lat="44.1931267" lon="10.5908867"><ele>942.0</ele><time>2026-04-26T12:49:35.375Z</time></trkpt><trkpt lat="44.1932567" lon="10.59099"><ele>937.3333333333333</ele><time>2026-04-26T12:49:36.375Z</time></trkpt><trkpt lat="44.1933733" lon="10.5911517"><ele>932.6666666666666</ele><time>2026-04-26T12:49:37.375Z</time></trkpt><trkpt lat="44.193445" lon="10.591345"><ele>928.0</ele><time>2026-04-26T12:49:38.375Z</time></trkpt><trkpt lat="44.1934683" lon="10.5915767"><ele>928.0</ele><time>2026-04-26T12:49:39.375Z</time></trkpt><trkpt lat="44.193485" lon="10.5918333"><ele>928.0</ele><time>2026-04-26T12:49:40.375Z</time></trkpt><trkpt lat="44.1935167" lon="10.5921167"><ele>928.0</ele><time>2026-04-26T12:49:41.375Z</time></trkpt><trkpt lat="44.1935517" lon="10.5924017"><ele>929.3333333333333</ele><time>2026-04-26T12:49:42.375Z</time></trkpt><trkpt lat="44.193555" lon="10.5926633"><ele>930.6666666666667</ele><time>2026-04-26T12:49:43.375Z</time></trkpt><trkpt lat="44.1935583" lon="10.59292"><ele>932.0</ele><time>2026-04-26T12:49:44.375Z</time></trkpt><trkpt lat="44.1935617" lon="10.5931433"><ele>932.75</ele><time>2026-04-26T12:49:45.375Z</time></trkpt><trkpt lat="44.1935667" lon="10.5933467"><ele>933.5</ele><time>2026-04-26T12:49:46.375Z</time></trkpt><trkpt lat="44.1936" lon="10.5935417"><ele>934.25</ele><time>2026-04-26T12:49:47.375Z</time></trkpt><trkpt lat="44.1936733" lon="10.5937167"><ele>935.0</ele><time>2026-04-26T12:49:48.375Z</time></trkpt><trkpt lat="44.1937917" lon="10.5938867"><ele>937.6666666666667</ele><time>2026-04-26T12:49:49.375Z</time></trkpt><trkpt lat="44.1939333" lon="10.5940633"><ele>940.3333333333333</ele><time>2026-04-26T12:49:50.375Z</time></trkpt><trkpt lat="44.19407" lon="10.5942467"><ele>943.0</ele><time>2026-04-26T12:49:51.375Z</time></trkpt><trkpt lat="44.1941817" lon="10.5944317"><ele>934.0</ele><time>2026-04-26T12:49:52.375Z</time></trkpt><trkpt lat="44.1942633" lon="10.5946333"><ele>925.0</ele><time>2026-04-26T12:49:53.375Z</time></trkpt><trkpt lat="44.1943083" lon="10.5948483"><ele>916.0</ele><time>2026-04-26T12:49:54.375Z</time></trkpt><trkpt lat="44.1943483" lon="10.5951017"><ele>915.3333333333333</ele><time>2026-04-26T12:49:55.375Z</time></trkpt><trkpt lat="44.1943617" lon="10.5953917"><ele>914.6666666666667</ele><time>2026-04-26T12:49:56.375Z</time></trkpt><trkpt lat="44.194375" lon="10.5956733"><ele>914.0</ele><time>2026-04-26T12:49:57.375Z</time></trkpt><trkpt lat="44.194375" lon="10.5959383"><ele>913.3333333333334</ele><time>2026-04-26T12:49:58.375Z</time></trkpt><trkpt lat="44.1943533" lon="10.5962"><ele>912.6666666666667</ele><time>2026-04-26T12:49:59.375Z</time></trkpt><trkpt lat="44.19435" lon="10.5964533"><ele>912.0</ele><time>2026-04-26T12:50:00.375Z</time></trkpt><trkpt lat="44.1943383" lon="10.5967117"><ele>912.0</ele><time>2026-04-26T12:50:01.375Z</time></trkpt><trkpt lat="44.1943" lon="10.5969617"><ele>912.0</ele><time>2026-04-26T12:50:02.375Z</time></trkpt><trkpt lat="44.194245" lon="10.5971817"><ele>912.0</ele><time>2026-04-26T12:50:03.375Z</time></trkpt><trkpt lat="44.1942" lon="10.5974083"><ele>910.6666666666667</ele><time>2026-04-26T12:50:04.375Z</time></trkpt><trkpt lat="44.1941767" lon="10.5976483"><ele>909.3333333333334</ele><time>2026-04-26T12:50:05.375Z</time></trkpt><trkpt lat="44.1941967" lon="10.597895"><ele>908.0</ele><time>2026-04-26T12:50:06.375Z</time></trkpt><trkpt lat="44.1942533" lon="10.59814"><ele>911.3333333333334</ele><time>2026-04-26T12:50:07.375Z</time></trkpt><trkpt lat="44.1943417" lon="10.5984"><ele>914.6666666666667</ele><time>2026-04-26T12:50:08.375Z</time></trkpt><trkpt lat="44.1944833" lon="10.5986233"><ele>918.0</ele><time>2026-04-26T12:50:09.375Z</time></trkpt><trkpt lat="44.19466" lon="10.5988267"><ele>925.5</ele><time>2026-04-26T12:50:10.375Z</time></trkpt><trkpt lat="44.1948367" lon="10.599025"><ele>933.0</ele><time>2026-04-26T12:50:11.375Z</time></trkpt><trkpt lat="44.195005" lon="10.59923"><ele>921.3333333333333</ele><time>2026-04-26T12:50:12.375Z</time></trkpt><trkpt lat="44.19515" lon="10.5994133"><ele>909.6666666666666</ele><time>2026-04-26T12:50:13.375Z</time></trkpt><trkpt lat="44.1952783" lon="10.5995833"><ele>898.0</ele><time>2026-04-26T12:50:14.375Z</time></trkpt><trkpt lat="44.19538" lon="10.5997733"><ele>898.0</ele><time>2026-04-26T12:50:15.375Z</time></trkpt><trkpt lat="44.1954483" lon="10.5999667"><ele>898.0</ele><time>2026-04-26T12:50:16.375Z</time></trkpt><trkpt lat="44.1954867" lon="10.6001683"><ele>898.0</ele><time>2026-04-26T12:50:17.375Z</time></trkpt><trkpt lat="44.19551" lon="10.60039"><ele>895.25</ele><time>2026-04-26T12:50:18.375Z</time></trkpt><trkpt lat="44.1955217" lon="10.6005767"><ele>892.5</ele><time>2026-04-26T12:50:19.375Z</time></trkpt><trkpt lat="44.1954917" lon="10.6007583"><ele>889.75</ele><time>2026-04-26T12:50:20.375Z</time></trkpt><trkpt lat="44.1954267" lon="10.600915"><ele>887.0</ele><time>2026-04-26T12:50:21.375Z</time></trkpt><trkpt lat="44.1953283" lon="10.6010467"><ele>887.0</ele><time>2026-04-26T12:50:22.375Z</time></trkpt><trkpt lat="44.1952067" lon="10.601115"><ele>887.0</ele><time>2026-04-26T12:50:23.375Z</time></trkpt><trkpt lat="44.1950833" lon="10.6011417"><ele>887.0</ele><time>2026-04-26T12:50:24.375Z</time></trkpt><trkpt lat="44.1949533" lon="10.601185"><ele>887.0</ele><time>2026-04-26T12:50:25.375Z</time></trkpt><trkpt lat="44.194845" lon="10.60126"><ele>887.5</ele><time>2026-04-26T12:50:26.375Z</time></trkpt><trkpt lat="44.1947883" lon="10.6014083"><ele>888.0</ele><time>2026-04-26T12:50:27.375Z</time></trkpt><trkpt lat="44.1947467" lon="10.6016083"><ele>888.5</ele><time>2026-04-26T12:50:28.375Z</time></trkpt><trkpt lat="44.1946967" lon="10.60183"><ele>889.0</ele><time>2026-04-26T12:50:29.375Z</time></trkpt><trkpt lat="44.1946383" lon="10.602025"><ele>889.0</ele><time>2026-04-26T12:50:30.375Z</time></trkpt><trkpt lat="44.1945933" lon="10.6022117"><ele>889.0</ele><time>2026-04-26T12:50:31.375Z</time></trkpt><trkpt lat="44.1945717" lon="10.6023883"><ele>889.0</ele><time>2026-04-26T12:50:32.375Z</time></trkpt><trkpt lat="44.1945867" lon="10.60255"><ele>889.0</ele><time>2026-04-26T12:50:33.375Z</time></trkpt><trkpt lat="44.1945983" lon="10.60271"><ele>886.6</ele><time>2026-04-26T12:50:34.375Z</time></trkpt><trkpt lat="44.1946267" lon="10.6028633"><ele>884.2</ele><time>2026-04-26T12:50:35.375Z</time></trkpt><trkpt lat="44.194625" lon="10.6030067"><ele>881.8000000000001</ele><time>2026-04-26T12:50:36.375Z</time></trkpt><trkpt lat="44.1945917" lon="10.6031433"><ele>879.4000000000001</ele><time>2026-04-26T12:50:37.375Z</time></trkpt><trkpt lat="44.194505" lon="10.6032633"><ele>877.0</ele><time>2026-04-26T12:50:38.375Z</time></trkpt><trkpt lat="44.1944267" lon="10.6033617"><ele>877.0</ele><time>2026-04-26T12:50:39.376Z</time></trkpt><trkpt lat="44.1943667" lon="10.60346"><ele>877.0</ele><time>2026-04-26T12:50:40.375Z</time></trkpt><trkpt lat="44.194325" lon="10.6035633"><ele>877.0</ele><time>2026-04-26T12:50:41.375Z</time></trkpt><trkpt lat="44.1943583" lon="10.6036783"><ele>877.0</ele><time>2026-04-26T12:50:42.375Z</time></trkpt><trkpt lat="44.1944033" lon="10.6037767"><ele>877.0</ele><time>2026-04-26T12:50:43.376Z</time></trkpt><trkpt lat="44.1944717" lon="10.6038817"><ele>876.75</ele><time>2026-04-26T12:50:44.375Z</time></trkpt><trkpt lat="44.1945583" lon="10.6040067"><ele>876.5</ele><time>2026-04-26T12:50:45.375Z</time></trkpt><trkpt lat="44.1946267" lon="10.6041583"><ele>876.25</ele><time>2026-04-26T12:50:46.375Z</time></trkpt><trkpt lat="44.1946583" lon="10.6043417"><ele>876.0</ele><time>2026-04-26T12:50:47.375Z</time></trkpt><trkpt lat="44.19466" lon="10.6045517"><ele>876.0</ele><time>2026-04-26T12:50:48.375Z</time></trkpt><trkpt lat="44.1946517" lon="10.6047867"><ele>876.0</ele><time>2026-04-26T12:50:49.376Z</time></trkpt><trkpt lat="44.1946367" lon="10.605005"><ele>876.0</ele><time>2026-04-26T12:50:50.375Z</time></trkpt><trkpt lat="44.1946417" lon="10.605205"><ele>874.0</ele><time>2026-04-26T12:50:51.375Z</time></trkpt><trkpt lat="44.1946467" lon="10.6054133"><ele>872.0</ele><time>2026-04-26T12:50:52.375Z</time></trkpt><trkpt lat="44.194635" lon="10.60562"><ele>870.0</ele><time>2026-04-26T12:50:53.375Z</time></trkpt><trkpt lat="44.1946" lon="10.6058133"><ele>868.0</ele><time>2026-04-26T12:50:54.375Z</time></trkpt><trkpt lat="44.1945583" lon="10.605985"><ele>868.0</ele><time>2026-04-26T12:50:55.375Z</time></trkpt><trkpt lat="44.1945467" lon="10.60614"><ele>868.0</ele><time>2026-04-26T12:50:56.375Z</time></trkpt><trkpt lat="44.1945683" lon="10.6063"><ele>868.0</ele><time>2026-04-26T12:50:57.375Z</time></trkpt><trkpt lat="44.1946033" lon="10.6064517"><ele>868.0</ele><time>2026-04-26T12:50:58.375Z</time></trkpt><trkpt lat="44.194685" lon="10.6065567"><ele>868.3333333333333</ele><time>2026-04-26T12:50:59.375Z</time></trkpt><trkpt lat="44.19479" lon="10.6066267"><ele>868.6666666666667</ele><time>2026-04-26T12:51:00.375Z</time></trkpt><trkpt lat="44.194955" lon="10.606645"><ele>869.0</ele><time>2026-04-26T12:51:01.375Z</time></trkpt><trkpt lat="44.195125" lon="10.6066333"><ele>863.25</ele><time>2026-04-26T12:51:02.375Z</time></trkpt><trkpt lat="44.195295" lon="10.6065867"><ele>857.5</ele><time>2026-04-26T12:51:03.375Z</time></trkpt><trkpt lat="44.1954183" lon="10.60653"><ele>851.75</ele><time>2026-04-26T12:51:04.375Z</time></trkpt><trkpt lat="44.1955533" lon="10.6065383"><ele>846.0</ele><time>2026-04-26T12:51:05.375Z</time></trkpt><trkpt lat="44.195685" lon="10.6066033"><ele>847.6666666666667</ele><time>2026-04-26T12:51:06.375Z</time></trkpt><trkpt lat="44.1958217" lon="10.6067233"><ele>849.3333333333334</ele><time>2026-04-26T12:51:07.375Z</time></trkpt><trkpt lat="44.1959417" lon="10.6068833"><ele>851.0</ele><time>2026-04-26T12:51:08.375Z</time></trkpt><trkpt lat="44.1960583" lon="10.6070783"><ele>851.0</ele><time>2026-04-26T12:51:09.375Z</time></trkpt><trkpt lat="44.196175" lon="10.6072783"><ele>851.0</ele><time>2026-04-26T12:51:10.375Z</time></trkpt><trkpt lat="44.1962833" lon="10.60747"><ele>851.0</ele><time>2026-04-26T12:51:11.375Z</time></trkpt><trkpt lat="44.1963783" lon="10.607665"><ele>856.3333333333334</ele><time>2026-04-26T12:51:12.375Z</time></trkpt><trkpt lat="44.1964717" lon="10.6078583"><ele>861.6666666666667</ele><time>2026-04-26T12:51:13.375Z</time></trkpt><trkpt lat="44.1965633" lon="10.608045"><ele>867.0</ele><time>2026-04-26T12:51:14.375Z</time></trkpt><trkpt lat="44.1966683" lon="10.6082417"><ele>857.3333333333333</ele><time>2026-04-26T12:51:15.375Z</time></trkpt><trkpt lat="44.19679" lon="10.6084217"><ele>847.6666666666666</ele><time>2026-04-26T12:51:16.375Z</time></trkpt><trkpt lat="44.196905" lon="10.6086033"><ele>838.0</ele><time>2026-04-26T12:51:17.375Z</time></trkpt><trkpt lat="44.1970333" lon="10.6087767"><ele>838.0</ele><time>2026-04-26T12:51:18.375Z</time></trkpt><trkpt lat="44.19717" lon="10.6089333"><ele>838.0</ele><time>2026-04-26T12:51:19.375Z</time></trkpt><trkpt lat="44.19731" lon="10.6090917"><ele>838.0</ele><time>2026-04-26T12:51:20.375Z</time></trkpt><trkpt lat="44.19745" lon="10.6092417"><ele>830.6666666666666</ele><time>2026-04-26T12:51:21.375Z</time></trkpt><trkpt lat="44.1975833" lon="10.6093617"><ele>823.3333333333333</ele><time>2026-04-26T12:51:22.375Z</time></trkpt><trkpt lat="44.1977233" lon="10.6094933"><ele>816.0</ele><time>2026-04-26T12:51:23.375Z</time></trkpt><trkpt lat="44.1978633" lon="10.6096"><ele>816.0</ele><time>2026-04-26T12:51:24.375Z</time></trkpt><trkpt lat="44.1980017" lon="10.6097183"><ele>816.0</ele><time>2026-04-26T12:51:25.375Z</time></trkpt><trkpt lat="44.1981283" lon="10.6098333"><ele>816.0</ele><time>2026-04-26T12:51:26.375Z</time></trkpt><trkpt lat="44.19824" lon="10.6099533"><ele>814.0</ele><time>2026-04-26T12:51:27.375Z</time></trkpt><trkpt lat="44.1983667" lon="10.6100667"><ele>812.0</ele><time>2026-04-26T12:51:28.375Z</time></trkpt><trkpt lat="44.1984867" lon="10.6101533"><ele>810.0</ele><time>2026-04-26T12:51:29.375Z</time></trkpt><trkpt lat="44.19862" lon="10.6102083"><ele>808.0</ele><time>2026-04-26T12:51:30.376Z</time></trkpt><trkpt lat="44.1987783" lon="10.6102317"><ele>808.0</ele><time>2026-04-26T12:51:31.375Z</time></trkpt><trkpt lat="44.198945" lon="10.61023"><ele>808.0</ele><time>2026-04-26T12:51:32.375Z</time></trkpt><trkpt lat="44.1991217" lon="10.610235"><ele>808.0</ele><time>2026-04-26T12:51:33.375Z</time></trkpt><trkpt lat="44.1992867" lon="10.6102567"><ele>806.3333333333333</ele><time>2026-04-26T12:51:34.375Z</time></trkpt><trkpt lat="44.1994467" lon="10.6103033"><ele>804.6666666666667</ele><time>2026-04-26T12:51:35.375Z</time></trkpt><trkpt lat="44.19959" lon="10.61037"><ele>803.0</ele><time>2026-04-26T12:51:36.375Z</time></trkpt><trkpt lat="44.1997217" lon="10.6104417"><ele>798.6666666666667</ele><time>2026-04-26T12:51:37.376Z</time></trkpt><trkpt lat="44.1998417" lon="10.6105617"><ele>794.3333333333333</ele><time>2026-04-26T12:51:38.375Z</time></trkpt><trkpt lat="44.1999383" lon="10.6107067"><ele>790.0</ele><time>2026-04-26T12:51:39.375Z</time></trkpt><trkpt lat="44.20003" lon="10.6109017"><ele>790.0</ele><time>2026-04-26T12:51:40.375Z</time></trkpt><trkpt lat="44.2001183" lon="10.6110867"><ele>790.0</ele><time>2026-04-26T12:51:41.375Z</time></trkpt><trkpt lat="44.200215" lon="10.6112617"><ele>790.0</ele><time>2026-04-26T12:51:42.375Z</time></trkpt><trkpt lat="44.2003117" lon="10.6114133"><ele>790.75</ele><time>2026-04-26T12:51:43.375Z</time></trkpt><trkpt lat="44.2003733" lon="10.6116017"><ele>791.5</ele><time>2026-04-26T12:51:44.375Z</time></trkpt><trkpt lat="44.2003917" lon="10.61179"><ele>792.25</ele><time>2026-04-26T12:51:45.375Z</time></trkpt><trkpt lat="44.200405" lon="10.6119817"><ele>793.0</ele><time>2026-04-26T12:51:46.375Z</time></trkpt><trkpt lat="44.200405" lon="10.6121817"><ele>794.0</ele><time>2026-04-26T12:51:47.375Z</time></trkpt><trkpt lat="44.2004217" lon="10.61238"><ele>795.0</ele><time>2026-04-26T12:51:48.375Z</time></trkpt><trkpt lat="44.2004483" lon="10.6125567"><ele>796.0</ele><time>2026-04-26T12:51:49.375Z</time></trkpt><trkpt lat="44.2005" lon="10.6127233"><ele>797.0</ele><time>2026-04-26T12:51:50.375Z</time></trkpt><trkpt lat="44.2005917" lon="10.61284"><ele>798.0</ele><time>2026-04-26T12:51:51.375Z</time></trkpt><trkpt lat="44.2006633" lon="10.6129417"><ele>799.0</ele><time>2026-04-26T12:51:52.375Z</time></trkpt><trkpt lat="44.20072" lon="10.6130617"><ele>800.0</ele><time>2026-04-26T12:51:53.375Z</time></trkpt><trkpt lat="44.2007467" lon="10.613205"><ele>801.0</ele><time>2026-04-26T12:51:54.375Z</time></trkpt><trkpt lat="44.2007467" lon="10.613365"><ele>802.0</ele><time>2026-04-26T12:51:55.375Z</time></trkpt><trkpt lat="44.2007317" lon="10.6135517"><ele>794.6666666666666</ele><time>2026-04-26T12:51:56.375Z</time></trkpt><trkpt lat="44.2007167" lon="10.61377"><ele>787.3333333333333</ele><time>2026-04-26T12:51:57.375Z</time></trkpt><trkpt lat="44.2007367" lon="10.6140067"><ele>780.0</ele><time>2026-04-26T12:51:58.375Z</time></trkpt><trkpt lat="44.200775" lon="10.6142233"><ele>780.0</ele><time>2026-04-26T12:51:59.375Z</time></trkpt><trkpt lat="44.2008233" lon="10.6144117"><ele>780.0</ele><time>2026-04-26T12:52:00.375Z</time></trkpt><trkpt lat="44.20087" lon="10.6145867"><ele>780.0</ele><time>2026-04-26T12:52:01.375Z</time></trkpt><trkpt lat="44.200905" lon="10.6147617"><ele>780.0</ele><time>2026-04-26T12:52:02.375Z</time></trkpt><trkpt lat="44.20094" lon="10.6149033"><ele>780.3333333333334</ele><time>2026-04-26T12:52:03.375Z</time></trkpt><trkpt lat="44.200975" lon="10.6150233"><ele>780.6666666666667</ele><time>2026-04-26T12:52:04.375Z</time></trkpt><trkpt lat="44.2010033" lon="10.615115"><ele>781.0</ele><time>2026-04-26T12:52:05.374Z</time></trkpt><trkpt lat="44.20106" lon="10.6152283"><ele>781.3333333333334</ele><time>2026-04-26T12:52:07.374Z</time></trkpt><trkpt lat="44.2011433" lon="10.6152467"><ele>781.6666666666667</ele><time>2026-04-26T12:52:09.374Z</time></trkpt><trkpt lat="44.2012067" lon="10.615235"><ele>782.0</ele><time>2026-04-26T12:52:10.374Z</time></trkpt><trkpt lat="44.201295" lon="10.615215"><ele>782.0</ele><time>2026-04-26T12:52:11.374Z</time></trkpt><trkpt lat="44.2014033" lon="10.61519"><ele>782.0</ele><time>2026-04-26T12:52:12.374Z</time></trkpt><trkpt lat="44.20154" lon="10.6151633"><ele>782.0</ele><time>2026-04-26T12:52:13.374Z</time></trkpt><trkpt lat="44.20168" lon="10.6151383"><ele>782.0</ele><time>2026-04-26T12:52:14.374Z</time></trkpt><trkpt lat="44.2018183" lon="10.61511"><ele>776.0</ele><time>2026-04-26T12:52:15.374Z</time></trkpt><trkpt lat="44.2019683" lon="10.6150667"><ele>770.0</ele><time>2026-04-26T12:52:16.374Z</time></trkpt><trkpt lat="44.2021233" lon="10.6150167"><ele>764.0</ele><time>2026-04-26T12:52:17.374Z</time></trkpt><trkpt lat="44.2022717" lon="10.615"><ele>765.25</ele><time>2026-04-26T12:52:18.374Z</time></trkpt><trkpt lat="44.2024133" lon="10.6150317"><ele>766.5</ele><time>2026-04-26T12:52:19.374Z</time></trkpt><trkpt lat="44.2025267" lon="10.6151333"><ele>767.75</ele><time>2026-04-26T12:52:20.374Z</time></trkpt><trkpt lat="44.2026067" lon="10.6153133"><ele>769.0</ele><time>2026-04-26T12:52:21.374Z</time></trkpt><trkpt lat="44.2026617" lon="10.61555"><ele>769.0</ele><time>2026-04-26T12:52:22.374Z</time></trkpt><trkpt lat="44.20275" lon="10.6157783"><ele>769.0</ele><time>2026-04-26T12:52:23.374Z</time></trkpt><trkpt lat="44.2028417" lon="10.6159767"><ele>769.0</ele><time>2026-04-26T12:52:24.374Z</time></trkpt><trkpt lat="44.2029133" lon="10.6161767"><ele>768.25</ele><time>2026-04-26T12:52:25.374Z</time></trkpt><trkpt lat="44.2029667" lon="10.6163917"><ele>767.5</ele><time>2026-04-26T12:52:26.374Z</time></trkpt><trkpt lat="44.2030017" lon="10.6165933"><ele>766.75</ele><time>2026-04-26T12:52:27.374Z</time></trkpt><trkpt lat="44.2030317" lon="10.61677"><ele>766.0</ele><time>2026-04-26T12:52:28.375Z</time></trkpt><trkpt lat="44.2030617" lon="10.6169117"><ele>764.4</ele><time>2026-04-26T12:52:29.374Z</time></trkpt><trkpt lat="44.203095" lon="10.617045"><ele>762.8</ele><time>2026-04-26T12:52:30.374Z</time></trkpt><trkpt lat="44.203165" lon="10.6171483"><ele>761.1999999999999</ele><time>2026-04-26T12:52:31.374Z</time></trkpt><trkpt lat="44.20324" lon="10.61721"><ele>759.5999999999999</ele><time>2026-04-26T12:52:32.374Z</time></trkpt><trkpt lat="44.203315" lon="10.617245"><ele>758.0</ele><time>2026-04-26T12:52:33.374Z</time></trkpt><trkpt lat="44.20341" lon="10.6172433"><ele>760.6666666666666</ele><time>2026-04-26T12:52:34.374Z</time></trkpt><trkpt lat="44.2035" lon="10.6172167"><ele>763.3333333333333</ele><time>2026-04-26T12:52:35.374Z</time></trkpt><trkpt lat="44.2035833" lon="10.61718"><ele>766.0</ele><time>2026-04-26T12:52:36.375Z</time></trkpt><trkpt lat="44.20366" lon="10.6171217"><ele>768.6666666666666</ele><time>2026-04-26T12:52:37.374Z</time></trkpt><trkpt lat="44.2037333" lon="10.61707"><ele>771.3333333333334</ele><time>2026-04-26T12:52:38.374Z</time></trkpt><trkpt lat="44.203795" lon="10.6170183"><ele>774.0</ele><time>2026-04-26T12:52:39.374Z</time></trkpt><trkpt lat="44.203855" lon="10.6169783"><ele>774.8000000000001</ele><time>2026-04-26T12:52:40.374Z</time></trkpt><trkpt lat="44.2039367" lon="10.6169033"><ele>775.6</ele><time>2026-04-26T12:52:42.375Z</time></trkpt><trkpt lat="44.20402" lon="10.61687"><ele>776.4</ele><time>2026-04-26T12:52:44.374Z</time></trkpt><trkpt lat="44.204085" lon="10.6169117"><ele>777.2</ele><time>2026-04-26T12:52:46.374Z</time></trkpt><trkpt lat="44.2041717" lon="10.6170583"><ele>778.0</ele><time>2026-04-26T12:52:48.374Z</time></trkpt><trkpt lat="44.20423" lon="10.6171667"><ele>778.0</ele><time>2026-04-26T12:52:49.374Z</time></trkpt><trkpt lat="44.2042933" lon="10.6172317"><ele>778.0</ele><time>2026-04-26T12:52:50.374Z</time></trkpt><trkpt lat="44.2043683" lon="10.61729"><ele>778.0</ele><time>2026-04-26T12:52:51.374Z</time></trkpt><trkpt lat="44.2044517" lon="10.6173167"><ele>778.0</ele><time>2026-04-26T12:52:52.374Z</time></trkpt><trkpt lat="44.2045667" lon="10.6173367"><ele>778.0</ele><time>2026-04-26T12:52:53.374Z</time></trkpt><trkpt lat="44.2047" lon="10.61734"><ele>776.5</ele><time>2026-04-26T12:52:54.374Z</time></trkpt><trkpt lat="44.2048317" lon="10.6173467"><ele>775.0</ele><time>2026-04-26T12:52:55.374Z</time></trkpt><trkpt lat="44.2049417" lon="10.61735"><ele>773.5</ele><time>2026-04-26T12:52:56.374Z</time></trkpt><trkpt lat="44.2050583" lon="10.6173617"><ele>772.0</ele><time>2026-04-26T12:52:57.375Z</time></trkpt><trkpt lat="44.2051667" lon="10.6174033"><ele>772.0</ele><time>2026-04-26T12:52:58.374Z</time></trkpt><trkpt lat="44.20527" lon="10.61746"><ele>772.0</ele><time>2026-04-26T12:52:59.375Z</time></trkpt><trkpt lat="44.2053633" lon="10.61752"><ele>772.0</ele><time>2026-04-26T12:53:00.374Z</time></trkpt><trkpt lat="44.2054567" lon="10.617575"><ele>772.0</ele><time>2026-04-26T12:53:01.374Z</time></trkpt><trkpt lat="44.205525" lon="10.6176217"><ele>772.0</ele><time>2026-04-26T12:53:02.374Z</time></trkpt><trkpt lat="44.205575" lon="10.617695"><ele>772.0</ele><time>2026-04-26T12:53:03.374Z</time></trkpt><trkpt lat="44.2055983" lon="10.61778"><ele>772.0</ele><time>2026-04-26T12:53:04.374Z</time></trkpt><trkpt lat="44.2055617" lon="10.6178717"><ele>772.0</ele><time>2026-04-26T12:53:06.374Z</time></trkpt><trkpt lat="44.20548" lon="10.61789"><ele>772.0</ele><time>2026-04-26T12:53:07.374Z</time></trkpt><trkpt lat="44.2053483" lon="10.6178817"><ele>772.0</ele><time>2026-04-26T12:53:08.374Z</time></trkpt><trkpt lat="44.2051817" lon="10.6178667"><ele>769.25</ele><time>2026-04-26T12:53:09.375Z</time></trkpt><trkpt lat="44.205025" lon="10.6178583"><ele>766.5</ele><time>2026-04-26T12:53:10.374Z</time></trkpt><trkpt lat="44.2048967" lon="10.61785"><ele>763.75</ele><time>2026-04-26T12:53:11.375Z</time></trkpt><trkpt lat="44.2047933" lon="10.61785"><ele>761.0</ele><time>2026-04-26T12:53:12.374Z</time></trkpt><trkpt lat="44.20471" lon="10.6178717"><ele>761.0</ele><time>2026-04-26T12:53:13.374Z</time></trkpt><trkpt lat="44.2046383" lon="10.6179033"><ele>761.0</ele><time>2026-04-26T12:53:14.374Z</time></trkpt><trkpt lat="44.2046017" lon="10.6179767"><ele>761.0</ele><time>2026-04-26T12:53:15.374Z</time></trkpt><trkpt lat="44.2046283" lon="10.6181033"><ele>761.0</ele><time>2026-04-26T12:53:17.374Z</time></trkpt><trkpt lat="44.204725" lon="10.6181433"><ele>761.0</ele><time>2026-04-26T12:53:18.374Z</time></trkpt><trkpt lat="44.2048367" lon="10.6181817"><ele>760.5999999999999</ele><time>2026-04-26T12:53:19.374Z</time></trkpt><trkpt lat="44.2049117" lon="10.6182533"><ele>760.2</ele><time>2026-04-26T12:53:20.374Z</time></trkpt><trkpt lat="44.2049533" lon="10.6183717"><ele>759.8</ele><time>2026-04-26T12:53:21.374Z</time></trkpt><trkpt lat="44.20496" lon="10.6184983"><ele>759.4000000000001</ele><time>2026-04-26T12:53:22.374Z</time></trkpt><trkpt lat="44.2049383" lon="10.6186133"><ele>759.0</ele><time>2026-04-26T12:53:23.374Z</time></trkpt><trkpt lat="44.2048967" lon="10.6187433"><ele>756.5</ele><time>2026-04-26T12:53:24.374Z</time></trkpt><trkpt lat="44.2048483" lon="10.6188867"><ele>754.0</ele><time>2026-04-26T12:53:25.374Z</time></trkpt><trkpt lat="44.2047983" lon="10.6190467"><ele>751.5</ele><time>2026-04-26T12:53:26.374Z</time></trkpt><trkpt lat="44.2047333" lon="10.6191983"><ele>749.0</ele><time>2026-04-26T12:53:27.374Z</time></trkpt><trkpt lat="44.2046667" lon="10.619355"><ele>748.8000000000001</ele><time>2026-04-26T12:53:28.374Z</time></trkpt><trkpt lat="44.2046" lon="10.619505"><ele>748.6</ele><time>2026-04-26T12:53:29.374Z</time></trkpt><trkpt lat="44.2045367" lon="10.6196467"><ele>748.4</ele><time>2026-04-26T12:53:30.374Z</time></trkpt><trkpt lat="44.2044833" lon="10.6197767"><ele>748.2</ele><time>2026-04-26T12:53:31.375Z</time></trkpt><trkpt lat="44.20444" lon="10.619885"><ele>748.0</ele><time>2026-04-26T12:53:32.374Z</time></trkpt><trkpt lat="44.20441" lon="10.6199633"><ele>748.0</ele><time>2026-04-26T12:53:33.374Z</time></trkpt><trkpt lat="44.2043883" lon="10.6200583"><ele>748.0</ele><time>2026-04-26T12:53:35.374Z</time></trkpt><trkpt lat="44.2044067" lon="10.6201833"><ele>748.0</ele><time>2026-04-26T12:53:38.375Z</time></trkpt><trkpt lat="44.20446" lon="10.6202483"><ele>748.0</ele><time>2026-04-26T12:53:39.374Z</time></trkpt><trkpt lat="44.2045367" lon="10.620315"><ele>748.0</ele><time>2026-04-26T12:53:40.374Z</time></trkpt><trkpt lat="44.204625" lon="10.6203917"><ele>748.0</ele><time>2026-04-26T12:53:41.374Z</time></trkpt><trkpt lat="44.2047233" lon="10.6204817"><ele>748.25</ele><time>2026-04-26T12:53:42.374Z</time></trkpt><trkpt lat="44.2048267" lon="10.620585"><ele>748.5</ele><time>2026-04-26T12:53:43.374Z</time></trkpt><trkpt lat="44.2049367" lon="10.6207033"><ele>748.75</ele><time>2026-04-26T12:53:44.374Z</time></trkpt><trkpt lat="44.2050533" lon="10.6208317"><ele>749.0</ele><time>2026-04-26T12:53:45.374Z</time></trkpt><trkpt lat="44.205165" lon="10.6209783"><ele>748.6666666666666</ele><time>2026-04-26T12:53:46.374Z</time></trkpt><trkpt lat="44.2052883" lon="10.6211333"><ele>748.3333333333334</ele><time>2026-04-26T12:53:47.374Z</time></trkpt><trkpt lat="44.2054133" lon="10.6212933"><ele>748.0</ele><time>2026-04-26T12:53:48.374Z</time></trkpt><trkpt lat="44.2055383" lon="10.6214417"><ele>748.0</ele><time>2026-04-26T12:53:49.375Z</time></trkpt><trkpt lat="44.20566" lon="10.6215817"><ele>748.0</ele><time>2026-04-26T12:53:50.374Z</time></trkpt><trkpt lat="44.2057817" lon="10.62173"><ele>748.0</ele><time>2026-04-26T12:53:51.374Z</time></trkpt><trkpt lat="44.2059033" lon="10.621885"><ele>748.6666666666667</ele><time>2026-04-26T12:53:52.375Z</time></trkpt><trkpt lat="44.20603" lon="10.6220367"><ele>749.3333333333334</ele><time>2026-04-26T12:53:53.374Z</time></trkpt><trkpt lat="44.206165" lon="10.622185"><ele>750.0</ele><time>2026-04-26T12:53:54.374Z</time></trkpt><trkpt lat="44.2063083" lon="10.6223167"><ele>750.0</ele><time>2026-04-26T12:53:55.374Z</time></trkpt><trkpt lat="44.2064517" lon="10.6224367"><ele>750.0</ele><time>2026-04-26T12:53:56.374Z</time></trkpt><trkpt lat="44.2066033" lon="10.6225433"><ele>750.0</ele><time>2026-04-26T12:53:57.374Z</time></trkpt><trkpt lat="44.2067467" lon="10.6226367"><ele>750.0</ele><time>2026-04-26T12:53:58.374Z</time></trkpt><trkpt lat="44.2068983" lon="10.6227283"><ele>750.0</ele><time>2026-04-26T12:53:59.374Z</time></trkpt><trkpt lat="44.207055" lon="10.6228167"><ele>750.0</ele><time>2026-04-26T12:54:00.374Z</time></trkpt><trkpt lat="44.2072233" lon="10.6228883"><ele>749.0</ele><time>2026-04-26T12:54:01.374Z</time></trkpt><trkpt lat="44.207385" lon="10.622955"><ele>748.0</ele><time>2026-04-26T12:54:02.374Z</time></trkpt><trkpt lat="44.2075517" lon="10.6229983"><ele>747.0</ele><time>2026-04-26T12:54:03.374Z</time></trkpt><trkpt lat="44.20772" lon="10.6230483"><ele>747.0</ele><time>2026-04-26T12:54:04.374Z</time></trkpt><trkpt lat="44.2078933" lon="10.6230933"><ele>747.0</ele><time>2026-04-26T12:54:05.374Z</time></trkpt><trkpt lat="44.2080617" lon="10.6231333"><ele>747.0</ele><time>2026-04-26T12:54:06.374Z</time></trkpt><trkpt lat="44.2082267" lon="10.6231717"><ele>745.6666666666666</ele><time>2026-04-26T12:54:07.374Z</time></trkpt><trkpt lat="44.2083933" lon="10.6232283"><ele>744.3333333333333</ele><time>2026-04-26T12:54:08.374Z</time></trkpt><trkpt lat="44.2085683" lon="10.6232717"><ele>743.0</ele><time>2026-04-26T12:54:09.374Z</time></trkpt><trkpt lat="44.2087417" lon="10.6233233"><ele>743.0</ele><time>2026-04-26T12:54:10.375Z</time></trkpt><trkpt lat="44.2089317" lon="10.62337"><ele>743.0</ele><time>2026-04-26T12:54:11.374Z</time></trkpt><trkpt lat="44.20913" lon="10.6234233"><ele>743.0</ele><time>2026-04-26T12:54:12.374Z</time></trkpt><trkpt lat="44.2093183" lon="10.6234817"><ele>743.0</ele><time>2026-04-26T12:54:13.374Z</time></trkpt><trkpt lat="44.2095083" lon="10.6235267"><ele>743.0</ele><time>2026-04-26T12:54:14.374Z</time></trkpt><trkpt lat="44.2096983" lon="10.6235933"><ele>743.0</ele><time>2026-04-26T12:54:15.374Z</time></trkpt><trkpt lat="44.2098967" lon="10.6236467"><ele>749.6666666666666</ele><time>2026-04-26T12:54:16.374Z</time></trkpt><trkpt lat="44.2100933" lon="10.6237067"><ele>756.3333333333334</ele><time>2026-04-26T12:54:17.374Z</time></trkpt><trkpt lat="44.210275" lon="10.623765"><ele>763.0</ele><time>2026-04-26T12:54:18.375Z</time></trkpt><trkpt lat="44.2104467" lon="10.6238233"><ele>763.0</ele><time>2026-04-26T12:54:19.374Z</time></trkpt><trkpt lat="44.2106167" lon="10.6238867"><ele>763.0</ele><time>2026-04-26T12:54:20.374Z</time></trkpt><trkpt lat="44.210785" lon="10.6239383"><ele>763.0</ele><time>2026-04-26T12:54:21.374Z</time></trkpt><trkpt lat="44.2109467" lon="10.62398"><ele>756.5</ele><time>2026-04-26T12:54:22.374Z</time></trkpt><trkpt lat="44.2110967" lon="10.6240217"><ele>750.0</ele><time>2026-04-26T12:54:23.374Z</time></trkpt><trkpt lat="44.211235" lon="10.6240533"><ele>743.5</ele><time>2026-04-26T12:54:24.374Z</time></trkpt><trkpt lat="44.211365" lon="10.6240933"><ele>737.0</ele><time>2026-04-26T12:54:25.374Z</time></trkpt><trkpt lat="44.21149" lon="10.6241383"><ele>737.6</ele><time>2026-04-26T12:54:26.374Z</time></trkpt><trkpt lat="44.2116133" lon="10.62419"><ele>738.2</ele><time>2026-04-26T12:54:27.374Z</time></trkpt><trkpt lat="44.2117367" lon="10.6242617"><ele>738.8</ele><time>2026-04-26T12:54:28.374Z</time></trkpt><trkpt lat="44.21182" lon="10.6243217"><ele>739.4</ele><time>2026-04-26T12:54:29.374Z</time></trkpt><trkpt lat="44.2118917" lon="10.624335"><ele>740.0</ele><time>2026-04-26T12:54:30.374Z</time></trkpt><trkpt lat="44.2119583" lon="10.624305"><ele>740.0</ele><time>2026-04-26T12:54:31.374Z</time></trkpt><trkpt lat="44.2120083" lon="10.6241417"><ele>740.0</ele><time>2026-04-26T12:54:33.374Z</time></trkpt><trkpt lat="44.2120067" lon="10.62402"><ele>740.0</ele><time>2026-04-26T12:54:34.374Z</time></trkpt><trkpt lat="44.2119767" lon="10.6238733"><ele>740.0</ele><time>2026-04-26T12:54:35.374Z</time></trkpt><trkpt lat="44.21189" lon="10.623725"><ele>748.0</ele><time>2026-04-26T12:54:36.374Z</time></trkpt><trkpt lat="44.2117833" lon="10.623585"><ele>756.0</ele><time>2026-04-26T12:54:37.374Z</time></trkpt><trkpt lat="44.211655" lon="10.6234717"><ele>764.0</ele><time>2026-04-26T12:54:38.374Z</time></trkpt><trkpt lat="44.2115" lon="10.62337"><ele>754.3333333333333</ele><time>2026-04-26T12:54:39.374Z</time></trkpt><trkpt lat="44.2113617" lon="10.6232483"><ele>744.6666666666666</ele><time>2026-04-26T12:54:40.374Z</time></trkpt><trkpt lat="44.2112417" lon="10.6231367"><ele>735.0</ele><time>2026-04-26T12:54:41.374Z</time></trkpt><trkpt lat="44.2111333" lon="10.6229967"><ele>735.0</ele><time>2026-04-26T12:54:42.374Z</time></trkpt><trkpt lat="44.21103" lon="10.6228467"><ele>735.0</ele><time>2026-04-26T12:54:43.374Z</time></trkpt><trkpt lat="44.2109317" lon="10.6226533"><ele>735.0</ele><time>2026-04-26T12:54:44.374Z</time></trkpt><trkpt lat="44.2108283" lon="10.6224583"><ele>735.75</ele><time>2026-04-26T12:54:45.374Z</time></trkpt><trkpt lat="44.2107267" lon="10.62228"><ele>736.5</ele><time>2026-04-26T12:54:46.374Z</time></trkpt><trkpt lat="44.2106367" lon="10.62212"><ele>737.25</ele><time>2026-04-26T12:54:47.374Z</time></trkpt><trkpt lat="44.21055" lon="10.6219667"><ele>738.0</ele><time>2026-04-26T12:54:48.375Z</time></trkpt><trkpt lat="44.21046" lon="10.6218217"><ele>740.6666666666666</ele><time>2026-04-26T12:54:49.374Z</time></trkpt><trkpt lat="44.210355" lon="10.6216817"><ele>743.3333333333333</ele><time>2026-04-26T12:54:50.374Z</time></trkpt><trkpt lat="44.2102417" lon="10.6215417"><ele>746.0</ele><time>2026-04-26T12:54:51.374Z</time></trkpt><trkpt lat="44.2101283" lon="10.62139"><ele>746.0</ele><time>2026-04-26T12:54:52.375Z</time></trkpt><trkpt lat="44.21001" lon="10.6212617"><ele>746.0</ele><time>2026-04-26T12:54:53.374Z</time></trkpt><trkpt lat="44.20989" lon="10.621135"><ele>746.0</ele><time>2026-04-26T12:54:54.374Z</time></trkpt><trkpt lat="44.2097717" lon="10.6210033"><ele>746.0</ele><time>2026-04-26T12:54:55.374Z</time></trkpt><trkpt lat="44.20966" lon="10.6208767"><ele>746.0</ele><time>2026-04-26T12:54:56.374Z</time></trkpt><trkpt lat="44.20955" lon="10.6207533"><ele>746.0</ele><time>2026-04-26T12:54:57.374Z</time></trkpt><trkpt lat="44.2094367" lon="10.6206317"><ele>746.0</ele><time>2026-04-26T12:54:58.374Z</time></trkpt><trkpt lat="44.2093233" lon="10.6205067"><ele>746.0</ele><time>2026-04-26T12:54:59.374Z</time></trkpt><trkpt lat="44.2092067" lon="10.6203883"><ele>746.0</ele><time>2026-04-26T12:55:00.374Z</time></trkpt><trkpt lat="44.2090933" lon="10.6202733"><ele>746.0</ele><time>2026-04-26T12:55:01.374Z</time></trkpt><trkpt lat="44.2089867" lon="10.620155"><ele>746.0</ele><time>2026-04-26T12:55:02.374Z</time></trkpt><trkpt lat="44.2088883" lon="10.6200417"><ele>748.25</ele><time>2026-04-26T12:55:03.374Z</time></trkpt><trkpt lat="44.208785" lon="10.6199317"><ele>750.5</ele><time>2026-04-26T12:55:04.374Z</time></trkpt><trkpt lat="44.2086933" lon="10.6198183"><ele>752.75</ele><time>2026-04-26T12:55:05.374Z</time></trkpt><trkpt lat="44.2085933" lon="10.61974"><ele>755.0</ele><time>2026-04-26T12:55:06.374Z</time></trkpt><trkpt lat="44.20851" lon="10.6196517"><ele>755.0</ele><time>2026-04-26T12:55:07.374Z</time></trkpt><trkpt lat="44.2084233" lon="10.6195733"><ele>755.0</ele><time>2026-04-26T12:55:08.374Z</time></trkpt><trkpt lat="44.2083483" lon="10.61947"><ele>755.0</ele><time>2026-04-26T12:55:09.374Z</time></trkpt><trkpt lat="44.2082633" lon="10.6193683"><ele>755.0</ele><time>2026-04-26T12:55:10.373Z</time></trkpt><trkpt lat="44.2081717" lon="10.6192783"><ele>755.0</ele><time>2026-04-26T12:55:11.373Z</time></trkpt><trkpt lat="44.2080867" lon="10.6191817"><ele>755.4</ele><time>2026-04-26T12:55:12.373Z</time></trkpt><trkpt lat="44.2080083" lon="10.6190767"><ele>755.8</ele><time>2026-04-26T12:55:13.373Z</time></trkpt><trkpt lat="44.20793" lon="10.618965"><ele>756.2</ele><time>2026-04-26T12:55:14.373Z</time></trkpt><trkpt lat="44.2078767" lon="10.6188333"><ele>756.6</ele><time>2026-04-26T12:55:15.373Z</time></trkpt><trkpt lat="44.20783" lon="10.6186867"><ele>757.0</ele><time>2026-04-26T12:55:16.373Z</time></trkpt><trkpt lat="44.2077683" lon="10.6185733"><ele>760.0</ele><time>2026-04-26T12:55:17.373Z</time></trkpt><trkpt lat="44.2076983" lon="10.6184783"><ele>763.0</ele><time>2026-04-26T12:55:18.373Z</time></trkpt><trkpt lat="44.2076217" lon="10.6183817"><ele>766.0</ele><time>2026-04-26T12:55:19.373Z</time></trkpt><trkpt lat="44.2075383" lon="10.61833"><ele>769.0</ele><time>2026-04-26T12:55:20.373Z</time></trkpt><trkpt lat="44.2074433" lon="10.6182867"><ele>772.0</ele><time>2026-04-26T12:55:21.373Z</time></trkpt><trkpt lat="44.2073283" lon="10.6182483"><ele>771.0</ele><time>2026-04-26T12:55:22.373Z</time></trkpt><trkpt lat="44.2071867" lon="10.6182067"><ele>770.0</ele><time>2026-04-26T12:55:23.373Z</time></trkpt><trkpt lat="44.207075" lon="10.6181533"><ele>769.0</ele><time>2026-04-26T12:55:24.373Z</time></trkpt><trkpt lat="44.206975" lon="10.6180917"><ele>768.0</ele><time>2026-04-26T12:55:25.373Z</time></trkpt><trkpt lat="44.206895" lon="10.6180333"><ele>768.0</ele><time>2026-04-26T12:55:26.373Z</time></trkpt><trkpt lat="44.20682" lon="10.6179683"><ele>768.0</ele><time>2026-04-26T12:55:27.373Z</time></trkpt><trkpt lat="44.2067433" lon="10.6179017"><ele>768.0</ele><time>2026-04-26T12:55:28.373Z</time></trkpt><trkpt lat="44.20667" lon="10.6178233"><ele>768.0</ele><time>2026-04-26T12:55:29.373Z</time></trkpt><trkpt lat="44.206595" lon="10.6177267"><ele>768.0</ele><time>2026-04-26T12:55:30.373Z</time></trkpt><trkpt lat="44.2065167" lon="10.6176283"><ele>769.5999999999999</ele><time>2026-04-26T12:55:31.373Z</time></trkpt><trkpt lat="44.2064383" lon="10.6175367"><ele>771.1999999999999</ele><time>2026-04-26T12:55:32.373Z</time></trkpt><trkpt lat="44.2063567" lon="10.617455"><ele>772.8</ele><time>2026-04-26T12:55:33.373Z</time></trkpt><trkpt lat="44.2062733" lon="10.6173733"><ele>774.4</ele><time>2026-04-26T12:55:34.373Z</time></trkpt><trkpt lat="44.2061817" lon="10.617285"><ele>776.0</ele><time>2026-04-26T12:55:35.374Z</time></trkpt><trkpt lat="44.2060867" lon="10.6172017"><ele>776.0000000000001</ele><time>2026-04-26T12:55:36.373Z</time></trkpt><trkpt lat="44.206025" lon="10.6171183"><ele>776.0</ele><time>2026-04-26T12:55:37.373Z</time></trkpt><trkpt lat="44.20598" lon="10.617055"><ele>776.0</ele><time>2026-04-26T12:55:38.373Z</time></trkpt><trkpt lat="44.2059317" lon="10.6169633"><ele>776.0</ele><time>2026-04-26T12:55:40.373Z</time></trkpt><trkpt lat="44.2059517" lon="10.61687"><ele>776.0000000000001</ele><time>2026-04-26T12:55:42.374Z</time></trkpt><trkpt lat="44.2059967" lon="10.6167983"><ele>776.0</ele><time>2026-04-26T12:55:43.373Z</time></trkpt><trkpt lat="44.2060683" lon="10.6167033"><ele>777.0</ele><time>2026-04-26T12:55:44.373Z</time></trkpt><trkpt lat="44.20618" lon="10.6165633"><ele>778.0</ele><time>2026-04-26T12:55:45.373Z</time></trkpt><trkpt lat="44.206295" lon="10.6164283"><ele>779.0</ele><time>2026-04-26T12:55:46.373Z</time></trkpt><trkpt lat="44.2063983" lon="10.6162917"><ele>780.0</ele><time>2026-04-26T12:55:47.373Z</time></trkpt><trkpt lat="44.2065017" lon="10.6161983"><ele>781.0</ele><time>2026-04-26T12:55:48.373Z</time></trkpt><trkpt lat="44.206595" lon="10.61608"><ele>782.0</ele><time>2026-04-26T12:55:49.373Z</time></trkpt><trkpt lat="44.2066817" lon="10.6159833"><ele>783.0</ele><time>2026-04-26T12:55:50.373Z</time></trkpt><trkpt lat="44.20676" lon="10.6158917"><ele>784.0</ele><time>2026-04-26T12:55:51.373Z</time></trkpt><trkpt lat="44.206845" lon="10.6158017"><ele>785.0</ele><time>2026-04-26T12:55:52.373Z</time></trkpt><trkpt lat="44.2069383" lon="10.6157067"><ele>785.0</ele><time>2026-04-26T12:55:53.373Z</time></trkpt><trkpt lat="44.2070317" lon="10.6155933"><ele>785.0</ele><time>2026-04-26T12:55:54.373Z</time></trkpt><trkpt lat="44.2071367" lon="10.615475"><ele>785.0</ele><time>2026-04-26T12:55:55.373Z</time></trkpt><trkpt lat="44.2072433" lon="10.615345"><ele>785.0</ele><time>2026-04-26T12:55:56.373Z</time></trkpt><trkpt lat="44.20735" lon="10.6152"><ele>786.0</ele><time>2026-04-26T12:55:57.373Z</time></trkpt><trkpt lat="44.2074533" lon="10.6150433"><ele>787.0</ele><time>2026-04-26T12:55:58.373Z</time></trkpt><trkpt lat="44.2075283" lon="10.614855"><ele>788.0</ele><time>2026-04-26T12:55:59.373Z</time></trkpt><trkpt lat="44.207585" lon="10.6146733"><ele>789.0</ele><time>2026-04-26T12:56:00.373Z</time></trkpt><trkpt lat="44.20763" lon="10.61444"><ele>793.3333333333333</ele><time>2026-04-26T12:56:01.373Z</time></trkpt><trkpt lat="44.2076833" lon="10.6142"><ele>797.6666666666666</ele><time>2026-04-26T12:56:02.373Z</time></trkpt><trkpt lat="44.207745" lon="10.613955"><ele>802.0</ele><time>2026-04-26T12:56:03.373Z</time></trkpt><trkpt lat="44.2078167" lon="10.6137117"><ele>806.0</ele><time>2026-04-26T12:56:04.373Z</time></trkpt><trkpt lat="44.207895" lon="10.6134683"><ele>810.0</ele><time>2026-04-26T12:56:05.373Z</time></trkpt><trkpt lat="44.2079783" lon="10.61323"><ele>814.0</ele><time>2026-04-26T12:56:06.373Z</time></trkpt><trkpt lat="44.208075" lon="10.6129983"><ele>812.6666666666666</ele><time>2026-04-26T12:56:07.373Z</time></trkpt><trkpt lat="44.208175" lon="10.61277"><ele>811.3333333333333</ele><time>2026-04-26T12:56:08.373Z</time></trkpt><trkpt lat="44.2082767" lon="10.6125533"><ele>810.0</ele><time>2026-04-26T12:56:09.373Z</time></trkpt><trkpt lat="44.2083683" lon="10.6123417"><ele>810.0</ele><time>2026-04-26T12:56:10.373Z</time></trkpt><trkpt lat="44.208425" lon="10.6121183"><ele>810.0</ele><time>2026-04-26T12:56:11.373Z</time></trkpt><trkpt lat="44.20846" lon="10.6118683"><ele>810.0</ele><time>2026-04-26T12:56:12.373Z</time></trkpt><trkpt lat="44.2084733" lon="10.6116133"><ele>815.6666666666667</ele><time>2026-04-26T12:56:13.373Z</time></trkpt><trkpt lat="44.2084717" lon="10.611365"><ele>821.3333333333334</ele><time>2026-04-26T12:56:14.373Z</time></trkpt><trkpt lat="44.2084917" lon="10.6111017"><ele>827.0</ele><time>2026-04-26T12:56:15.373Z</time></trkpt><trkpt lat="44.208545" lon="10.6108617"><ele>830.0</ele><time>2026-04-26T12:56:16.373Z</time></trkpt><trkpt lat="44.2086167" lon="10.6106133"><ele>833.0</ele><time>2026-04-26T12:56:17.373Z</time></trkpt><trkpt lat="44.2086933" lon="10.610365"><ele>836.0</ele><time>2026-04-26T12:56:18.373Z</time></trkpt><trkpt lat="44.208765" lon="10.6101317"><ele>836.3333333333334</ele><time>2026-04-26T12:56:19.373Z</time></trkpt><trkpt lat="44.2088433" lon="10.6098983"><ele>836.6666666666667</ele><time>2026-04-26T12:56:20.374Z</time></trkpt><trkpt lat="44.208935" lon="10.6096867"><ele>837.0</ele><time>2026-04-26T12:56:21.373Z</time></trkpt><trkpt lat="44.2090583" lon="10.609495"><ele>833.6666666666667</ele><time>2026-04-26T12:56:22.373Z</time></trkpt><trkpt lat="44.2092" lon="10.6093333"><ele>830.3333333333334</ele><time>2026-04-26T12:56:23.373Z</time></trkpt><trkpt lat="44.209345" lon="10.6092"><ele>827.0</ele><time>2026-04-26T12:56:24.373Z</time></trkpt><trkpt lat="44.20946" lon="10.6090717"><ele>827.0</ele><time>2026-04-26T12:56:25.373Z</time></trkpt><trkpt lat="44.2095767" lon="10.6089633"><ele>827.0</ele><time>2026-04-26T12:56:26.373Z</time></trkpt><trkpt lat="44.2096917" lon="10.6088967"><ele>827.0</ele><time>2026-04-26T12:56:27.374Z</time></trkpt><trkpt lat="44.209815" lon="10.608895"><ele>827.0</ele><time>2026-04-26T12:56:28.373Z</time></trkpt><trkpt lat="44.2099417" lon="10.60894"><ele>827.5</ele><time>2026-04-26T12:56:29.373Z</time></trkpt><trkpt lat="44.210055" lon="10.60901"><ele>828.0</ele><time>2026-04-26T12:56:30.373Z</time></trkpt><trkpt lat="44.210125" lon="10.609105"><ele>828.5</ele><time>2026-04-26T12:56:31.373Z</time></trkpt><trkpt lat="44.2101383" lon="10.6092617"><ele>829.0</ele><time>2026-04-26T12:56:32.373Z</time></trkpt><trkpt lat="44.2101333" lon="10.6094467"><ele>827.5</ele><time>2026-04-26T12:56:33.373Z</time></trkpt><trkpt lat="44.2101367" lon="10.609645"><ele>826.0</ele><time>2026-04-26T12:56:34.373Z</time></trkpt><trkpt lat="44.21016" lon="10.60983"><ele>824.5</ele><time>2026-04-26T12:56:35.373Z</time></trkpt><trkpt lat="44.2102317" lon="10.6100067"><ele>823.0</ele><time>2026-04-26T12:56:36.373Z</time></trkpt><trkpt lat="44.2103367" lon="10.6101783"><ele>821.3333333333333</ele><time>2026-04-26T12:56:37.374Z</time></trkpt><trkpt lat="44.2104533" lon="10.6103567"><ele>819.6666666666667</ele><time>2026-04-26T12:56:38.373Z</time></trkpt><trkpt lat="44.2105633" lon="10.6105317"><ele>818.0</ele><time>2026-04-26T12:56:39.373Z</time></trkpt><trkpt lat="44.2106767" lon="10.6107"><ele>824.6666666666667</ele><time>2026-04-26T12:56:40.374Z</time></trkpt><trkpt lat="44.2107817" lon="10.6108633"><ele>831.3333333333333</ele><time>2026-04-26T12:56:41.373Z</time></trkpt><trkpt lat="44.2108683" lon="10.6110283"><ele>838.0</ele><time>2026-04-26T12:56:42.373Z</time></trkpt><trkpt lat="44.21093" lon="10.6112383"><ele>838.0</ele><time>2026-04-26T12:56:43.373Z</time></trkpt><trkpt lat="44.2109633" lon="10.6114767"><ele>838.0</ele><time>2026-04-26T12:56:44.373Z</time></trkpt><trkpt lat="44.2109833" lon="10.61169"><ele>838.0</ele><time>2026-04-26T12:56:45.374Z</time></trkpt><trkpt lat="44.2110033" lon="10.6118917"><ele>835.0</ele><time>2026-04-26T12:56:46.373Z</time></trkpt><trkpt lat="44.2110567" lon="10.6120767"><ele>832.0</ele><time>2026-04-26T12:56:47.373Z</time></trkpt><trkpt lat="44.2111417" lon="10.6122667"><ele>829.0</ele><time>2026-04-26T12:56:48.373Z</time></trkpt><trkpt lat="44.2112317" lon="10.6124383"><ele>829.0</ele><time>2026-04-26T12:56:49.373Z</time></trkpt><trkpt lat="44.21135" lon="10.6126117"><ele>829.0</ele><time>2026-04-26T12:56:50.373Z</time></trkpt><trkpt lat="44.2114917" lon="10.6127683"><ele>829.0</ele><time>2026-04-26T12:56:51.373Z</time></trkpt><trkpt lat="44.2116183" lon="10.6129117"><ele>834.0</ele><time>2026-04-26T12:56:52.373Z</time></trkpt><trkpt lat="44.211735" lon="10.6130533"><ele>839.0</ele><time>2026-04-26T12:56:53.373Z</time></trkpt><trkpt lat="44.2118333" lon="10.613225"><ele>844.0</ele><time>2026-04-26T12:56:54.373Z</time></trkpt><trkpt lat="44.2119017" lon="10.6134183"><ele>844.0</ele><time>2026-04-26T12:56:55.373Z</time></trkpt><trkpt lat="44.2119733" lon="10.6136383"><ele>844.0</ele><time>2026-04-26T12:56:56.374Z</time></trkpt><trkpt lat="44.2120517" lon="10.613845"><ele>844.0</ele><time>2026-04-26T12:56:57.373Z</time></trkpt><trkpt lat="44.212135" lon="10.6140433"><ele>843.25</ele><time>2026-04-26T12:56:58.373Z</time></trkpt><trkpt lat="44.212215" lon="10.6142417"><ele>842.5</ele><time>2026-04-26T12:56:59.373Z</time></trkpt><trkpt lat="44.2122917" lon="10.6144067"><ele>841.75</ele><time>2026-04-26T12:57:00.373Z</time></trkpt><trkpt lat="44.2123833" lon="10.61456"><ele>841.0</ele><time>2026-04-26T12:57:01.373Z</time></trkpt><trkpt lat="44.2125083" lon="10.61465"><ele>844.0</ele><time>2026-04-26T12:57:02.373Z</time></trkpt><trkpt lat="44.2126667" lon="10.6147267"><ele>847.0</ele><time>2026-04-26T12:57:03.373Z</time></trkpt><trkpt lat="44.2128483" lon="10.6148017"><ele>850.0</ele><time>2026-04-26T12:57:04.373Z</time></trkpt><trkpt lat="44.2130483" lon="10.6148767"><ele>852.6666666666666</ele><time>2026-04-26T12:57:05.373Z</time></trkpt><trkpt lat="44.21325" lon="10.6149333"><ele>855.3333333333333</ele><time>2026-04-26T12:57:06.373Z</time></trkpt><trkpt lat="44.213425" lon="10.6149917"><ele>858.0</ele><time>2026-04-26T12:57:07.373Z</time></trkpt><trkpt lat="44.2135833" lon="10.6150383"><ele>858.0</ele><time>2026-04-26T12:57:08.373Z</time></trkpt><trkpt lat="44.21374" lon="10.6150483"><ele>858.0</ele><time>2026-04-26T12:57:09.373Z</time></trkpt><trkpt lat="44.2139083" lon="10.6150133"><ele>858.0</ele><time>2026-04-26T12:57:10.373Z</time></trkpt><trkpt lat="44.21408" lon="10.6149633"><ele>859.6666666666667</ele><time>2026-04-26T12:57:11.373Z</time></trkpt><trkpt lat="44.21426" lon="10.614905"><ele>861.3333333333334</ele><time>2026-04-26T12:57:12.373Z</time></trkpt><trkpt lat="44.214425" lon="10.6148517"><ele>863.0</ele><time>2026-04-26T12:57:13.373Z</time></trkpt><trkpt lat="44.21459" lon="10.6147967"><ele>863.0</ele><time>2026-04-26T12:57:14.373Z</time></trkpt><trkpt lat="44.214735" lon="10.6147333"><ele>863.0</ele><time>2026-04-26T12:57:15.373Z</time></trkpt><trkpt lat="44.2148583" lon="10.6146633"><ele>863.0</ele><time>2026-04-26T12:57:16.373Z</time></trkpt><trkpt lat="44.2149833" lon="10.6145817"><ele>863.0</ele><time>2026-04-26T12:57:17.373Z</time></trkpt><trkpt lat="44.2151067" lon="10.6145083"><ele>870.0</ele><time>2026-04-26T12:57:18.373Z</time></trkpt><trkpt lat="44.2152517" lon="10.6144733"><ele>877.0</ele><time>2026-04-26T12:57:19.373Z</time></trkpt><trkpt lat="44.215405" lon="10.6144633"><ele>884.0</ele><time>2026-04-26T12:57:20.373Z</time></trkpt><trkpt lat="44.2155617" lon="10.6144667"><ele>884.2</ele><time>2026-04-26T12:57:21.373Z</time></trkpt><trkpt lat="44.2156983" lon="10.6144767"><ele>884.4000000000001</ele><time>2026-04-26T12:57:22.374Z</time></trkpt><trkpt lat="44.2158217" lon="10.614485"><ele>884.6</ele><time>2026-04-26T12:57:23.373Z</time></trkpt><trkpt lat="44.215925" lon="10.6144883"><ele>884.8</ele><time>2026-04-26T12:57:24.373Z</time></trkpt><trkpt lat="44.2160033" lon="10.6145017"><ele>885.0</ele><time>2026-04-26T12:57:25.373Z</time></trkpt><trkpt lat="44.216105" lon="10.614465"><ele>885.0</ele><time>2026-04-26T12:57:27.373Z</time></trkpt><trkpt lat="44.2161083" lon="10.6143633"><ele>885.0</ele><time>2026-04-26T12:57:30.373Z</time></trkpt><trkpt lat="44.21601" lon="10.614275"><ele>885.0</ele><time>2026-04-26T12:57:32.373Z</time></trkpt><trkpt lat="44.2159283" lon="10.6142"><ele>885.0</ele><time>2026-04-26T12:57:33.373Z</time></trkpt><trkpt lat="44.21583" lon="10.6141433"><ele>885.0</ele><time>2026-04-26T12:57:34.373Z</time></trkpt><trkpt lat="44.2157133" lon="10.6141083"><ele>884.75</ele><time>2026-04-26T12:57:35.373Z</time></trkpt><trkpt lat="44.21557" lon="10.6141117"><ele>884.5</ele><time>2026-04-26T12:57:36.373Z</time></trkpt><trkpt lat="44.215425" lon="10.614105"><ele>884.25</ele><time>2026-04-26T12:57:37.373Z</time></trkpt><trkpt lat="44.2152933" lon="10.614065"><ele>884.0</ele><time>2026-04-26T12:57:38.374Z</time></trkpt><trkpt lat="44.2151517" lon="10.613995"><ele>884.0</ele><time>2026-04-26T12:57:39.373Z</time></trkpt><trkpt lat="44.21503" lon="10.6138983"><ele>884.0</ele><time>2026-04-26T12:57:40.374Z</time></trkpt><trkpt lat="44.2149217" lon="10.613765"><ele>884.0</ele><time>2026-04-26T12:57:41.373Z</time></trkpt><trkpt lat="44.2148233" lon="10.6136133"><ele>884.0</ele><time>2026-04-26T12:57:42.373Z</time></trkpt><trkpt lat="44.21475" lon="10.613465"><ele>885.0</ele><time>2026-04-26T12:57:43.373Z</time></trkpt><trkpt lat="44.21469" lon="10.6133233"><ele>886.0000000000001</ele><time>2026-04-26T12:57:44.373Z</time></trkpt><trkpt lat="44.2146317" lon="10.6132033"><ele>887.0000000000001</ele><time>2026-04-26T12:57:45.373Z</time></trkpt><trkpt lat="44.21458" lon="10.6130983"><ele>888.0</ele><time>2026-04-26T12:57:46.373Z</time></trkpt><trkpt lat="44.2145333" lon="10.6130017"><ele>889.0</ele><time>2026-04-26T12:57:47.374Z</time></trkpt><trkpt lat="44.214495" lon="10.6129033"><ele>890.8000000000001</ele><time>2026-04-26T12:57:48.373Z</time></trkpt><trkpt lat="44.214475" lon="10.6127867"><ele>892.6000000000001</ele><time>2026-04-26T12:57:49.373Z</time></trkpt><trkpt lat="44.21448" lon="10.61266"><ele>894.4</ele><time>2026-04-26T12:57:50.373Z</time></trkpt><trkpt lat="44.214505" lon="10.6125283"><ele>896.2</ele><time>2026-04-26T12:57:51.374Z</time></trkpt><trkpt lat="44.214545" lon="10.6123633"><ele>898.0</ele><time>2026-04-26T12:57:52.373Z</time></trkpt><trkpt lat="44.2145933" lon="10.6121833"><ele>898.0</ele><time>2026-04-26T12:57:53.373Z</time></trkpt><trkpt lat="44.2146417" lon="10.612025"><ele>898.0</ele><time>2026-04-26T12:57:54.373Z</time></trkpt><trkpt lat="44.2146817" lon="10.6118867"><ele>898.0</ele><time>2026-04-26T12:57:55.373Z</time></trkpt><trkpt lat="44.2147117" lon="10.6117633"><ele>898.0</ele><time>2026-04-26T12:57:56.373Z</time></trkpt><trkpt lat="44.2147467" lon="10.611645"><ele>898.0</ele><time>2026-04-26T12:57:57.373Z</time></trkpt><trkpt lat="44.214785" lon="10.6115317"><ele>900.3333333333333</ele><time>2026-04-26T12:57:58.373Z</time></trkpt><trkpt lat="44.214835" lon="10.6114417"><ele>902.6666666666666</ele><time>2026-04-26T12:57:59.373Z</time></trkpt><trkpt lat="44.2149133" lon="10.6113783"><ele>905.0</ele><time>2026-04-26T12:58:00.373Z</time></trkpt><trkpt lat="44.214995" lon="10.61134"><ele>907.3333333333333</ele><time>2026-04-26T12:58:01.373Z</time></trkpt><trkpt lat="44.21509" lon="10.6113033"><ele>909.6666666666666</ele><time>2026-04-26T12:58:02.373Z</time></trkpt><trkpt lat="44.2151767" lon="10.611275"><ele>912.0</ele><time>2026-04-26T12:58:03.373Z</time></trkpt><trkpt lat="44.21526" lon="10.611255"><ele>912.0</ele><time>2026-04-26T12:58:04.373Z</time></trkpt><trkpt lat="44.215325" lon="10.61122"><ele>912.0</ele><time>2026-04-26T12:58:05.373Z</time></trkpt><trkpt lat="44.2153883" lon="10.611195"><ele>912.0</ele><time>2026-04-26T12:58:06.373Z</time></trkpt><trkpt lat="44.2154583" lon="10.611175"><ele>912.0</ele><time>2026-04-26T12:58:07.373Z</time></trkpt><trkpt lat="44.2155317" lon="10.6111733"><ele>912.0</ele><time>2026-04-26T12:58:08.373Z</time></trkpt><trkpt lat="44.2156117" lon="10.61119"><ele>912.0</ele><time>2026-04-26T12:58:09.373Z</time></trkpt><trkpt lat="44.2157017" lon="10.611225"><ele>913.25</ele><time>2026-04-26T12:58:10.373Z</time></trkpt><trkpt lat="44.2158217" lon="10.6112967"><ele>914.5</ele><time>2026-04-26T12:58:11.372Z</time></trkpt><trkpt lat="44.2159567" lon="10.6113383"><ele>915.75</ele><time>2026-04-26T12:58:12.372Z</time></trkpt><trkpt lat="44.2161017" lon="10.6113617"><ele>917.0</ele><time>2026-04-26T12:58:13.372Z</time></trkpt><trkpt lat="44.216235" lon="10.6113683"><ele>917.0</ele><time>2026-04-26T12:58:14.372Z</time></trkpt><trkpt lat="44.2163467" lon="10.6113717"><ele>917.0</ele><time>2026-04-26T12:58:15.372Z</time></trkpt><trkpt lat="44.21645" lon="10.6113717"><ele>917.0</ele><time>2026-04-26T12:58:16.372Z</time></trkpt><trkpt lat="44.2165483" lon="10.6113367"><ele>917.0</ele><time>2026-04-26T12:58:17.372Z</time></trkpt><trkpt lat="44.2166367" lon="10.6112933"><ele>917.0</ele><time>2026-04-26T12:58:18.372Z</time></trkpt><trkpt lat="44.2167" lon="10.6112333"><ele>920.0</ele><time>2026-04-26T12:58:19.372Z</time></trkpt><trkpt lat="44.216735" lon="10.611145"><ele>923.0</ele><time>2026-04-26T12:58:20.372Z</time></trkpt><trkpt lat="44.21674" lon="10.61102"><ele>926.0</ele><time>2026-04-26T12:58:21.372Z</time></trkpt><trkpt lat="44.2167233" lon="10.6108933"><ele>929.0</ele><time>2026-04-26T12:58:22.372Z</time></trkpt><trkpt lat="44.2166167" lon="10.6107117"><ele>932.0</ele><time>2026-04-26T12:58:23.372Z</time></trkpt><trkpt lat="44.2165233" lon="10.6105367"><ele>931.25</ele><time>2026-04-26T12:58:24.372Z</time></trkpt><trkpt lat="44.216435" lon="10.6103783"><ele>930.5</ele><time>2026-04-26T12:58:25.372Z</time></trkpt><trkpt lat="44.2163483" lon="10.6102033"><ele>929.75</ele><time>2026-04-26T12:58:26.372Z</time></trkpt><trkpt lat="44.2162733" lon="10.6100533"><ele>929.0</ele><time>2026-04-26T12:58:27.372Z</time></trkpt><trkpt lat="44.2162067" lon="10.6099133"><ele>929.0</ele><time>2026-04-26T12:58:28.372Z</time></trkpt><trkpt lat="44.2161633" lon="10.6097717"><ele>929.0</ele><time>2026-04-26T12:58:29.372Z</time></trkpt><trkpt lat="44.21615" lon="10.609615"><ele>929.0</ele><time>2026-04-26T12:58:30.372Z</time></trkpt><trkpt lat="44.2161717" lon="10.6094517"><ele>929.0</ele><time>2026-04-26T12:58:31.372Z</time></trkpt><trkpt lat="44.216205" lon="10.6092833"><ele>930.25</ele><time>2026-04-26T12:58:32.372Z</time></trkpt><trkpt lat="44.216225" lon="10.60911"><ele>931.5</ele><time>2026-04-26T12:58:33.372Z</time></trkpt><trkpt lat="44.216215" lon="10.6089233"><ele>932.75</ele><time>2026-04-26T12:58:34.372Z</time></trkpt><trkpt lat="44.216185" lon="10.608735"><ele>934.0</ele><time>2026-04-26T12:58:35.372Z</time></trkpt><trkpt lat="44.21615" lon="10.6085483"><ele>934.75</ele><time>2026-04-26T12:58:36.373Z</time></trkpt><trkpt lat="44.2161117" lon="10.6083633"><ele>935.5</ele><time>2026-04-26T12:58:37.372Z</time></trkpt><trkpt lat="44.2160817" lon="10.608185"><ele>936.25</ele><time>2026-04-26T12:58:38.373Z</time></trkpt><trkpt lat="44.2160633" lon="10.6080333"><ele>937.0</ele><time>2026-04-26T12:58:39.372Z</time></trkpt><trkpt lat="44.2160717" lon="10.6078717"><ele>938.2</ele><time>2026-04-26T12:58:40.372Z</time></trkpt><trkpt lat="44.216105" lon="10.60773"><ele>939.4000000000001</ele><time>2026-04-26T12:58:41.372Z</time></trkpt><trkpt lat="44.2161617" lon="10.6076033"><ele>940.5999999999999</ele><time>2026-04-26T12:58:42.372Z</time></trkpt><trkpt lat="44.216245" lon="10.6075083"><ele>941.8</ele><time>2026-04-26T12:58:43.372Z</time></trkpt><trkpt lat="44.2163483" lon="10.60742"><ele>943.0</ele><time>2026-04-26T12:58:44.372Z</time></trkpt><trkpt lat="44.21646" lon="10.6073683"><ele>945.4</ele><time>2026-04-26T12:58:45.372Z</time></trkpt><trkpt lat="44.2165667" lon="10.6073267"><ele>947.8</ele><time>2026-04-26T12:58:46.372Z</time></trkpt><trkpt lat="44.2166633" lon="10.60735"><ele>950.2</ele><time>2026-04-26T12:58:47.372Z</time></trkpt><trkpt lat="44.2167467" lon="10.6074233"><ele>952.6</ele><time>2026-04-26T12:58:48.372Z</time></trkpt><trkpt lat="44.2168367" lon="10.6075383"><ele>955.0</ele><time>2026-04-26T12:58:49.372Z</time></trkpt><trkpt lat="44.2169333" lon="10.6076583"><ele>955.0</ele><time>2026-04-26T12:58:50.372Z</time></trkpt><trkpt lat="44.2170183" lon="10.60777"><ele>955.0</ele><time>2026-04-26T12:58:51.372Z</time></trkpt><trkpt lat="44.2171017" lon="10.607875"><ele>955.0</ele><time>2026-04-26T12:58:52.372Z</time></trkpt><trkpt lat="44.2171817" lon="10.6079317"><ele>955.0</ele><time>2026-04-26T12:58:53.372Z</time></trkpt><trkpt lat="44.2172567" lon="10.6079683"><ele>955.0</ele><time>2026-04-26T12:58:54.373Z</time></trkpt><trkpt lat="44.2173317" lon="10.6079767"><ele>956.75</ele><time>2026-04-26T12:58:55.373Z</time></trkpt><trkpt lat="44.2174067" lon="10.60793"><ele>958.5</ele><time>2026-04-26T12:58:56.372Z</time></trkpt><trkpt lat="44.2174917" lon="10.60783"><ele>960.25</ele><time>2026-04-26T12:58:57.372Z</time></trkpt><trkpt lat="44.2175867" lon="10.6076983"><ele>962.0</ele><time>2026-04-26T12:58:58.372Z</time></trkpt><trkpt lat="44.217675" lon="10.607545"><ele>962.25</ele><time>2026-04-26T12:58:59.372Z</time></trkpt><trkpt lat="44.21776" lon="10.60739"><ele>962.5</ele><time>2026-04-26T12:59:00.372Z</time></trkpt><trkpt lat="44.2178433" lon="10.60724"><ele>962.75</ele><time>2026-04-26T12:59:01.373Z</time></trkpt><trkpt lat="44.217915" lon="10.6070933"><ele>963.0</ele><time>2026-04-26T12:59:02.372Z</time></trkpt><trkpt lat="44.218" lon="10.606955"><ele>963.8</ele><time>2026-04-26T12:59:03.372Z</time></trkpt><trkpt lat="44.21808" lon="10.6068233"><ele>964.5999999999999</ele><time>2026-04-26T12:59:04.372Z</time></trkpt><trkpt lat="44.2181533" lon="10.606695"><ele>965.4000000000001</ele><time>2026-04-26T12:59:05.372Z</time></trkpt><trkpt lat="44.218225" lon="10.6066117"><ele>966.2</ele><time>2026-04-26T12:59:06.372Z</time></trkpt><trkpt lat="44.2183067" lon="10.606575"><ele>967.0</ele><time>2026-04-26T12:59:07.372Z</time></trkpt><trkpt lat="44.2184" lon="10.6065933"><ele>968.0</ele><time>2026-04-26T12:59:08.372Z</time></trkpt><trkpt lat="44.2185017" lon="10.6066533"><ele>969.0</ele><time>2026-04-26T12:59:09.372Z</time></trkpt><trkpt lat="44.21861" lon="10.60675"><ele>970.0</ele><time>2026-04-26T12:59:10.372Z</time></trkpt><trkpt lat="44.2187317" lon="10.6068733"><ele>971.0</ele><time>2026-04-26T12:59:11.372Z</time></trkpt><trkpt lat="44.2188633" lon="10.60701"><ele>973.25</ele><time>2026-04-26T12:59:12.372Z</time></trkpt><trkpt lat="44.2189883" lon="10.6071317"><ele>975.5</ele><time>2026-04-26T12:59:13.372Z</time></trkpt><trkpt lat="44.219105" lon="10.607235"><ele>977.75</ele><time>2026-04-26T12:59:14.372Z</time></trkpt><trkpt lat="44.219215" lon="10.60733"><ele>980.0</ele><time>2026-04-26T12:59:15.372Z</time></trkpt><trkpt lat="44.21932" lon="10.6074017"><ele>980.0</ele><time>2026-04-26T12:59:16.372Z</time></trkpt><trkpt lat="44.2194267" lon="10.6074283"><ele>980.0</ele><time>2026-04-26T12:59:17.372Z</time></trkpt><trkpt lat="44.2195317" lon="10.6074033"><ele>980.0</ele><time>2026-04-26T12:59:18.372Z</time></trkpt><trkpt lat="44.21962" lon="10.6073267"><ele>980.0</ele><time>2026-04-26T12:59:19.372Z</time></trkpt><trkpt lat="44.2196833" lon="10.6072267"><ele>980.0</ele><time>2026-04-26T12:59:20.372Z</time></trkpt><trkpt lat="44.2197283" lon="10.6071167"><ele>980.0000000000001</ele><time>2026-04-26T12:59:21.372Z</time></trkpt><trkpt lat="44.21973" lon="10.606995"><ele>980.0</ele><time>2026-04-26T12:59:22.372Z</time></trkpt><trkpt lat="44.21972" lon="10.6068983"><ele>980.0</ele><time>2026-04-26T12:59:23.372Z</time></trkpt><trkpt lat="44.2196983" lon="10.6068067"><ele>980.0</ele><time>2026-04-26T12:59:24.372Z</time></trkpt><trkpt lat="44.2196167" lon="10.60677"><ele>980.0000000000001</ele><time>2026-04-26T12:59:25.372Z</time></trkpt><trkpt lat="44.2195367" lon="10.606735"><ele>980.0</ele><time>2026-04-26T12:59:26.372Z</time></trkpt><trkpt lat="44.2194617" lon="10.6066933"><ele>981.0</ele><time>2026-04-26T12:59:27.372Z</time></trkpt><trkpt lat="44.219395" lon="10.6066367"><ele>982.0</ele><time>2026-04-26T12:59:28.372Z</time></trkpt><trkpt lat="44.21934" lon="10.606565"><ele>983.0</ele><time>2026-04-26T12:59:29.372Z</time></trkpt><trkpt lat="44.2193167" lon="10.606425"><ele>984.0</ele><time>2026-04-26T12:59:31.372Z</time></trkpt><trkpt lat="44.2193783" lon="10.60631"><ele>985.0</ele><time>2026-04-26T12:59:33.372Z</time></trkpt><trkpt lat="44.21952" lon="10.60626"><ele>985.0</ele><time>2026-04-26T12:59:35.372Z</time></trkpt><trkpt lat="44.21959" lon="10.6062433"><ele>985.0000000000001</ele><time>2026-04-26T12:59:36.372Z</time></trkpt><trkpt lat="44.219655" lon="10.6062267"><ele>985.0</ele><time>2026-04-26T12:59:37.372Z</time></trkpt><trkpt lat="44.2197217" lon="10.6062067"><ele>985.0</ele><time>2026-04-26T12:59:38.372Z</time></trkpt><trkpt lat="44.21979" lon="10.6061833"><ele>985.0000000000001</ele><time>2026-04-26T12:59:39.372Z</time></trkpt><trkpt lat="44.2198633" lon="10.60614"><ele>985.0</ele><time>2026-04-26T12:59:40.372Z</time></trkpt><trkpt lat="44.2199417" lon="10.606075"><ele>985.0</ele><time>2026-04-26T12:59:41.372Z</time></trkpt><trkpt lat="44.2200217" lon="10.6059883"><ele>987.75</ele><time>2026-04-26T12:59:42.372Z</time></trkpt><trkpt lat="44.2201167" lon="10.605865"><ele>990.5</ele><time>2026-04-26T12:59:43.372Z</time></trkpt><trkpt lat="44.22022" lon="10.605745"><ele>993.25</ele><time>2026-04-26T12:59:44.373Z</time></trkpt><trkpt lat="44.2203333" lon="10.6056283"><ele>996.0</ele><time>2026-04-26T12:59:45.372Z</time></trkpt><trkpt lat="44.2204433" lon="10.60551"><ele>996.0</ele><time>2026-04-26T12:59:46.372Z</time></trkpt><trkpt lat="44.2205583" lon="10.6054117"><ele>996.0</ele><time>2026-04-26T12:59:47.373Z</time></trkpt><trkpt lat="44.2206367" lon="10.6052817"><ele>996.0</ele><time>2026-04-26T12:59:48.372Z</time></trkpt><trkpt lat="44.2206967" lon="10.6051067"><ele>996.0</ele><time>2026-04-26T12:59:49.372Z</time></trkpt><trkpt lat="44.2207483" lon="10.604925"><ele>997.8</ele><time>2026-04-26T12:59:50.372Z</time></trkpt><trkpt lat="44.2207933" lon="10.6047633"><ele>999.5999999999999</ele><time>2026-04-26T12:59:51.372Z</time></trkpt><trkpt lat="44.22083" lon="10.6046167"><ele>1001.4</ele><time>2026-04-26T12:59:52.373Z</time></trkpt><trkpt lat="44.2208533" lon="10.6044867"><ele>1003.2</ele><time>2026-04-26T12:59:53.372Z</time></trkpt><trkpt lat="44.2208583" lon="10.604365"><ele>1005.0</ele><time>2026-04-26T12:59:54.372Z</time></trkpt><trkpt lat="44.2208483" lon="10.6042583"><ele>1005.4</ele><time>2026-04-26T12:59:55.372Z</time></trkpt><trkpt lat="44.220835" lon="10.60415"><ele>1005.8</ele><time>2026-04-26T12:59:56.372Z</time></trkpt><trkpt lat="44.2207317" lon="10.6040317"><ele>1006.2</ele><time>2026-04-26T12:59:58.372Z</time></trkpt><trkpt lat="44.2206467" lon="10.6040167"><ele>1006.6</ele><time>2026-04-26T12:59:59.372Z</time></trkpt><trkpt lat="44.2205383" lon="10.6040033"><ele>1007.0</ele><time>2026-04-26T13:00:00.372Z</time></trkpt><trkpt lat="44.2204333" lon="10.60397"><ele>1007.0000000000001</ele><time>2026-04-26T13:00:01.372Z</time></trkpt><trkpt lat="44.2203533" lon="10.6039117"><ele>1007.0</ele><time>2026-04-26T13:00:02.372Z</time></trkpt><trkpt lat="44.2202767" lon="10.6038267"><ele>1007.0</ele><time>2026-04-26T13:00:03.372Z</time></trkpt><trkpt lat="44.2202183" lon="10.6037283"><ele>1007.0</ele><time>2026-04-26T13:00:04.372Z</time></trkpt><trkpt lat="44.2202083" lon="10.603625"><ele>1007.0000000000001</ele><time>2026-04-26T13:00:05.372Z</time></trkpt><trkpt lat="44.220205" lon="10.6035333"><ele>1007.0</ele><time>2026-04-26T13:00:06.372Z</time></trkpt><trkpt lat="44.220215" lon="10.6034417"><ele>1008.1666666666667</ele><time>2026-04-26T13:00:07.372Z</time></trkpt><trkpt lat="44.22023" lon="10.603345"><ele>1009.3333333333334</ele><time>2026-04-26T13:00:08.372Z</time></trkpt><trkpt lat="44.2202767" lon="10.60327"><ele>1010.5</ele><time>2026-04-26T13:00:09.372Z</time></trkpt><trkpt lat="44.22034" lon="10.6032083"><ele>1011.6666666666667</ele><time>2026-04-26T13:00:10.372Z</time></trkpt><trkpt lat="44.22041" lon="10.6031767"><ele>1012.8333333333334</ele><time>2026-04-26T13:00:11.372Z</time></trkpt><trkpt lat="44.22053" lon="10.6032217"><ele>1014.0</ele><time>2026-04-26T13:00:12.373Z</time></trkpt><trkpt lat="44.2206233" lon="10.6032733"><ele>1015.4000000000001</ele><time>2026-04-26T13:00:13.372Z</time></trkpt><trkpt lat="44.2207183" lon="10.6033433"><ele>1016.8000000000001</ele><time>2026-04-26T13:00:14.372Z</time></trkpt><trkpt lat="44.2208317" lon="10.6034017"><ele>1018.1999999999999</ele><time>2026-04-26T13:00:15.372Z</time></trkpt><trkpt lat="44.2209333" lon="10.6034017"><ele>1019.5999999999999</ele><time>2026-04-26T13:00:16.372Z</time></trkpt><trkpt lat="44.2210333" lon="10.603365"><ele>1021.0</ele><time>2026-04-26T13:00:17.372Z</time></trkpt><trkpt lat="44.2210983" lon="10.6032917"><ele>1020.9999999999999</ele><time>2026-04-26T13:00:18.372Z</time></trkpt><trkpt lat="44.2211317" lon="10.6031983"><ele>1021.0</ele><time>2026-04-26T13:00:19.373Z</time></trkpt><trkpt lat="44.221155" lon="10.6031117"><ele>1021.0</ele><time>2026-04-26T13:00:20.372Z</time></trkpt><trkpt lat="44.2211067" lon="10.603"><ele>1021.0</ele><time>2026-04-26T13:00:22.373Z</time></trkpt><trkpt lat="44.2210433" lon="10.602965"><ele>1020.9999999999999</ele><time>2026-04-26T13:00:23.372Z</time></trkpt><trkpt lat="44.2209783" lon="10.602915"><ele>1021.0</ele><time>2026-04-26T13:00:24.372Z</time></trkpt><trkpt lat="44.2209017" lon="10.6028167"><ele>1023.0</ele><time>2026-04-26T13:00:25.372Z</time></trkpt><trkpt lat="44.2208417" lon="10.6026983"><ele>1025.0</ele><time>2026-04-26T13:00:26.372Z</time></trkpt><trkpt lat="44.2207933" lon="10.6025733"><ele>1027.0</ele><time>2026-04-26T13:00:27.372Z</time></trkpt><trkpt lat="44.2208017" lon="10.60242"><ele>1029.0</ele><time>2026-04-26T13:00:29.372Z</time></trkpt><trkpt lat="44.2208533" lon="10.602365"><ele>1031.0</ele><time>2026-04-26T13:00:30.372Z</time></trkpt><trkpt lat="44.220975" lon="10.6023217"><ele>1031.0</ele><time>2026-04-26T13:00:32.372Z</time></trkpt><trkpt lat="44.2210417" lon="10.602325"><ele>1031.0</ele><time>2026-04-26T13:00:33.372Z</time></trkpt><trkpt lat="44.2211467" lon="10.602415"><ele>1031.0</ele><time>2026-04-26T13:00:34.372Z</time></trkpt><trkpt lat="44.2212283" lon="10.6025"><ele>1031.0</ele><time>2026-04-26T13:00:35.373Z</time></trkpt><trkpt lat="44.2212867" lon="10.602575"><ele>1031.0</ele><time>2026-04-26T13:00:36.372Z</time></trkpt><trkpt lat="44.221355" lon="10.6027233"><ele>1032.25</ele><time>2026-04-26T13:00:37.372Z</time></trkpt><trkpt lat="44.22142" lon="10.602855"><ele>1033.5</ele><time>2026-04-26T13:00:38.372Z</time></trkpt><trkpt lat="44.2215133" lon="10.60299"><ele>1034.75</ele><time>2026-04-26T13:00:39.373Z</time></trkpt><trkpt lat="44.2216133" lon="10.6031483"><ele>1036.0</ele><time>2026-04-26T13:00:40.372Z</time></trkpt><trkpt lat="44.2217033" lon="10.6033033"><ele>1036.0</ele><time>2026-04-26T13:00:41.372Z</time></trkpt><trkpt lat="44.2218017" lon="10.6034983"><ele>1036.0</ele><time>2026-04-26T13:00:42.372Z</time></trkpt><trkpt lat="44.2219033" lon="10.60363"><ele>1036.0</ele><time>2026-04-26T13:00:43.372Z</time></trkpt><trkpt lat="44.2220233" lon="10.6037383"><ele>1035.75</ele><time>2026-04-26T13:00:44.372Z</time></trkpt><trkpt lat="44.2221567" lon="10.60381"><ele>1035.5</ele><time>2026-04-26T13:00:45.372Z</time></trkpt><trkpt lat="44.2222917" lon="10.6038367"><ele>1035.25</ele><time>2026-04-26T13:00:46.372Z</time></trkpt><trkpt lat="44.2224383" lon="10.603855"><ele>1035.0</ele><time>2026-04-26T13:00:47.372Z</time></trkpt><trkpt lat="44.2225767" lon="10.603865"><ele>1035.0</ele><time>2026-04-26T13:00:48.372Z</time></trkpt><trkpt lat="44.2227267" lon="10.6038683"><ele>1035.0</ele><time>2026-04-26T13:00:49.372Z</time></trkpt><trkpt lat="44.2228633" lon="10.60386"><ele>1035.0</ele><time>2026-04-26T13:00:50.372Z</time></trkpt><trkpt lat="44.223015" lon="10.6038633"><ele>1035.0</ele><time>2026-04-26T13:00:51.372Z</time></trkpt><trkpt lat="44.22316" lon="10.6038517"><ele>1037.5</ele><time>2026-04-26T13:00:52.372Z</time></trkpt><trkpt lat="44.2233017" lon="10.6038317"><ele>1040.0</ele><time>2026-04-26T13:00:53.372Z</time></trkpt><trkpt lat="44.22344" lon="10.603815"><ele>1042.5</ele><time>2026-04-26T13:00:54.372Z</time></trkpt><trkpt lat="44.22358" lon="10.6037917"><ele>1045.0</ele><time>2026-04-26T13:00:55.372Z</time></trkpt><trkpt lat="44.2237267" lon="10.6037867"><ele>1045.0</ele><time>2026-04-26T13:00:56.372Z</time></trkpt><trkpt lat="44.2238667" lon="10.6038033"><ele>1045.0</ele><time>2026-04-26T13:00:57.372Z</time></trkpt><trkpt lat="44.2239883" lon="10.60384"><ele>1045.0</ele><time>2026-04-26T13:00:58.372Z</time></trkpt><trkpt lat="44.22409" lon="10.60389"><ele>1045.0</ele><time>2026-04-26T13:00:59.372Z</time></trkpt><trkpt lat="44.2241733" lon="10.60395"><ele>1047.1666666666665</ele><time>2026-04-26T13:01:00.372Z</time></trkpt><trkpt lat="44.2242267" lon="10.6040183"><ele>1049.3333333333333</ele><time>2026-04-26T13:01:01.372Z</time></trkpt><trkpt lat="44.2242317" lon="10.6041167"><ele>1051.5</ele><time>2026-04-26T13:01:02.372Z</time></trkpt><trkpt lat="44.2242317" lon="10.6042183"><ele>1053.6666666666667</ele><time>2026-04-26T13:01:03.372Z</time></trkpt><trkpt lat="44.2242117" lon="10.604335"><ele>1055.8333333333335</ele><time>2026-04-26T13:01:04.372Z</time></trkpt><trkpt lat="44.224145" lon="10.6044867"><ele>1058.0</ele><time>2026-04-26T13:01:05.372Z</time></trkpt><trkpt lat="44.2240717" lon="10.6046683"><ele>1058.0</ele><time>2026-04-26T13:01:06.372Z</time></trkpt><trkpt lat="44.22402" lon="10.6049083"><ele>1058.0</ele><time>2026-04-26T13:01:07.372Z</time></trkpt><trkpt lat="44.2240167" lon="10.6051317"><ele>1058.0</ele><time>2026-04-26T13:01:08.372Z</time></trkpt><trkpt lat="44.2240317" lon="10.605325"><ele>1058.0</ele><time>2026-04-26T13:01:09.372Z</time></trkpt><trkpt lat="44.22406" lon="10.6054917"><ele>1058.0</ele><time>2026-04-26T13:01:10.372Z</time></trkpt><trkpt lat="44.2241233" lon="10.6056567"><ele>1058.0</ele><time>2026-04-26T13:01:11.371Z</time></trkpt><trkpt lat="44.224195" lon="10.6058117"><ele>1058.0</ele><time>2026-04-26T13:01:12.371Z</time></trkpt><trkpt lat="44.2242683" lon="10.6059533"><ele>1058.0</ele><time>2026-04-26T13:01:13.371Z</time></trkpt><trkpt lat="44.224335" lon="10.60607"><ele>1058.0</ele><time>2026-04-26T13:01:14.371Z</time></trkpt><trkpt lat="44.2243833" lon="10.6061383"><ele>1058.0</ele><time>2026-04-26T13:01:15.371Z</time></trkpt><trkpt lat="44.2244583" lon="10.6062017"><ele>1058.0</ele><time>2026-04-26T13:01:16.371Z</time></trkpt><trkpt lat="44.2245333" lon="10.6062133"><ele>1058.0</ele><time>2026-04-26T13:01:17.371Z</time></trkpt><trkpt lat="44.2246" lon="10.6061917"><ele>1058.0</ele><time>2026-04-26T13:01:18.371Z</time></trkpt><trkpt lat="44.22465" lon="10.6061383"><ele>1058.0</ele><time>2026-04-26T13:01:19.371Z</time></trkpt><trkpt lat="44.2246617" lon="10.6060383"><ele>1058.0</ele><time>2026-04-26T13:01:20.371Z</time></trkpt><trkpt lat="44.2246533" lon="10.6059167"><ele>1058.0</ele><time>2026-04-26T13:01:21.371Z</time></trkpt><trkpt lat="44.22465" lon="10.6057183"><ele>1058.0</ele><time>2026-04-26T13:01:22.371Z</time></trkpt><trkpt lat="44.22468" lon="10.6055033"><ele>1058.0</ele><time>2026-04-26T13:01:23.371Z</time></trkpt><trkpt lat="44.22472" lon="10.6052933"><ele>1058.0</ele><time>2026-04-26T13:01:24.372Z</time></trkpt><trkpt lat="44.224775" lon="10.6051133"><ele>1058.0</ele><time>2026-04-26T13:01:25.371Z</time></trkpt><trkpt lat="44.2248333" lon="10.604945"><ele>1058.0</ele><time>2026-04-26T13:01:26.371Z</time></trkpt><trkpt lat="44.22489" lon="10.60479"><ele>1060.8333333333335</ele><time>2026-04-26T13:01:27.372Z</time></trkpt><trkpt lat="44.2249417" lon="10.6046467"><ele>1063.6666666666667</ele><time>2026-04-26T13:01:28.371Z</time></trkpt><trkpt lat="44.2249917" lon="10.6045283"><ele>1066.5</ele><time>2026-04-26T13:01:29.371Z</time></trkpt><trkpt lat="44.2250483" lon="10.6044467"><ele>1069.3333333333333</ele><time>2026-04-26T13:01:30.371Z</time></trkpt><trkpt lat="44.225105" lon="10.6044017"><ele>1072.1666666666665</ele><time>2026-04-26T13:01:31.371Z</time></trkpt><trkpt lat="44.2251933" lon="10.6044067"><ele>1075.0</ele><time>2026-04-26T13:01:33.371Z</time></trkpt><trkpt lat="44.225225" lon="10.6045867"><ele>1075.0</ele><time>2026-04-26T13:01:35.371Z</time></trkpt><trkpt lat="44.2251783" lon="10.6047583"><ele>1075.0</ele><time>2026-04-26T13:01:36.371Z</time></trkpt><trkpt lat="44.225125" lon="10.6049333"><ele>1075.0</ele><time>2026-04-26T13:01:37.371Z</time></trkpt><trkpt lat="44.2250933" lon="10.6050933"><ele>1075.0</ele><time>2026-04-26T13:01:38.371Z</time></trkpt><trkpt lat="44.2250917" lon="10.60527"><ele>1075.0</ele><time>2026-04-26T13:01:39.371Z</time></trkpt><trkpt lat="44.225095" lon="10.6054633"><ele>1075.0</ele><time>2026-04-26T13:01:40.371Z</time></trkpt><trkpt lat="44.2251017" lon="10.6056167"><ele>1075.0</ele><time>2026-04-26T13:01:41.371Z</time></trkpt><trkpt lat="44.2251317" lon="10.6057283"><ele>1075.0</ele><time>2026-04-26T13:01:42.371Z</time></trkpt><trkpt lat="44.2251867" lon="10.605815"><ele>1075.0</ele><time>2026-04-26T13:01:43.371Z</time></trkpt><trkpt lat="44.2252617" lon="10.6058767"><ele>1075.0</ele><time>2026-04-26T13:01:44.371Z</time></trkpt><trkpt lat="44.22535" lon="10.6058983"><ele>1075.0</ele><time>2026-04-26T13:01:45.371Z</time></trkpt><trkpt lat="44.22545" lon="10.6058617"><ele>1075.0</ele><time>2026-04-26T13:01:46.371Z</time></trkpt><trkpt lat="44.2255633" lon="10.6057817"><ele>1075.0</ele><time>2026-04-26T13:01:47.371Z</time></trkpt><trkpt lat="44.2256533" lon="10.605625"><ele>1075.8</ele><time>2026-04-26T13:01:48.371Z</time></trkpt><trkpt lat="44.2256833" lon="10.6054517"><ele>1076.6</ele><time>2026-04-26T13:01:49.371Z</time></trkpt><trkpt lat="44.2256883" lon="10.6052883"><ele>1077.4</ele><time>2026-04-26T13:01:50.371Z</time></trkpt><trkpt lat="44.2257033" lon="10.605145"><ele>1078.2</ele><time>2026-04-26T13:01:51.371Z</time></trkpt><trkpt lat="44.225745" lon="10.6050383"><ele>1079.0</ele><time>2026-04-26T13:01:52.371Z</time></trkpt><trkpt lat="44.22581" lon="10.6049717"><ele>1081.4</ele><time>2026-04-26T13:01:53.371Z</time></trkpt><trkpt lat="44.2259117" lon="10.6049233"><ele>1083.8000000000002</ele><time>2026-04-26T13:01:54.371Z</time></trkpt><trkpt lat="44.2260267" lon="10.60491"><ele>1086.1999999999998</ele><time>2026-04-26T13:01:55.371Z</time></trkpt><trkpt lat="44.2261433" lon="10.60489"><ele>1088.6</ele><time>2026-04-26T13:01:56.371Z</time></trkpt><trkpt lat="44.226235" lon="10.6048267"><ele>1091.0</ele><time>2026-04-26T13:01:57.371Z</time></trkpt><trkpt lat="44.2263" lon="10.60476"><ele>1091.0</ele><time>2026-04-26T13:01:58.372Z</time></trkpt><trkpt lat="44.226335" lon="10.604655"><ele>1091.0</ele><time>2026-04-26T13:01:59.371Z</time></trkpt><trkpt lat="44.2263033" lon="10.6044983"><ele>1091.0</ele><time>2026-04-26T13:02:00.371Z</time></trkpt><trkpt lat="44.2262533" lon="10.6043133"><ele>1091.0</ele><time>2026-04-26T13:02:01.371Z</time></trkpt><trkpt lat="44.2262067" lon="10.60411"><ele>1091.5</ele><time>2026-04-26T13:02:02.371Z</time></trkpt><trkpt lat="44.2261783" lon="10.6038917"><ele>1092.0</ele><time>2026-04-26T13:02:03.371Z</time></trkpt><trkpt lat="44.2261683" lon="10.60369"><ele>1092.5</ele><time>2026-04-26T13:02:04.371Z</time></trkpt><trkpt lat="44.2261767" lon="10.6035267"><ele>1093.0</ele><time>2026-04-26T13:02:05.371Z</time></trkpt><trkpt lat="44.2262033" lon="10.6034"><ele>1093.8</ele><time>2026-04-26T13:02:06.371Z</time></trkpt><trkpt lat="44.2262467" lon="10.60331"><ele>1094.6</ele><time>2026-04-26T13:02:07.371Z</time></trkpt><trkpt lat="44.2263183" lon="10.6032117"><ele>1095.4</ele><time>2026-04-26T13:02:08.371Z</time></trkpt><trkpt lat="44.22641" lon="10.6031717"><ele>1096.2</ele><time>2026-04-26T13:02:10.371Z</time></trkpt><trkpt lat="44.2264383" lon="10.6032983"><ele>1097.0</ele><time>2026-04-26T13:02:13.371Z</time></trkpt><trkpt lat="44.226455" lon="10.6035"><ele>1101.0</ele><time>2026-04-26T13:02:15.371Z</time></trkpt><trkpt lat="44.226505" lon="10.6037217"><ele>1105.0</ele><time>2026-04-26T13:02:16.371Z</time></trkpt><trkpt lat="44.2265617" lon="10.603885"><ele>1109.0</ele><time>2026-04-26T13:02:17.371Z</time></trkpt><trkpt lat="44.2266633" lon="10.6040517"><ele>1109.0</ele><time>2026-04-26T13:02:18.372Z</time></trkpt><trkpt lat="44.226745" lon="10.6041467"><ele>1109.0</ele><time>2026-04-26T13:02:19.371Z</time></trkpt><trkpt lat="44.2268467" lon="10.6041267"><ele>1109.0</ele><time>2026-04-26T13:02:21.371Z</time></trkpt><trkpt lat="44.2268817" lon="10.60404"><ele>1109.0</ele><time>2026-04-26T13:02:22.372Z</time></trkpt><trkpt lat="44.2269067" lon="10.6038967"><ele>1109.0</ele><time>2026-04-26T13:02:23.371Z</time></trkpt><trkpt lat="44.2269283" lon="10.6037167"><ele>1110.3333333333335</ele><time>2026-04-26T13:02:24.371Z</time></trkpt><trkpt lat="44.2269717" lon="10.60353"><ele>1111.6666666666667</ele><time>2026-04-26T13:02:25.371Z</time></trkpt><trkpt lat="44.2270817" lon="10.6033067"><ele>1113.0</ele><time>2026-04-26T13:02:26.371Z</time></trkpt><trkpt lat="44.2272083" lon="10.6032083"><ele>1115.5</ele><time>2026-04-26T13:02:27.371Z</time></trkpt><trkpt lat="44.2273183" lon="10.6031633"><ele>1118.0</ele><time>2026-04-26T13:02:28.371Z</time></trkpt><trkpt lat="44.22741" lon="10.6031667"><ele>1120.5</ele><time>2026-04-26T13:02:29.371Z</time></trkpt><trkpt lat="44.2274783" lon="10.6032"><ele>1123.0</ele><time>2026-04-26T13:02:30.371Z</time></trkpt><trkpt lat="44.2275367" lon="10.6032583"><ele>1125.5</ele><time>2026-04-26T13:02:31.371Z</time></trkpt><trkpt lat="44.2275733" lon="10.603385"><ele>1128.0</ele><time>2026-04-26T13:02:32.371Z</time></trkpt><trkpt lat="44.227615" lon="10.603485"><ele>1128.0</ele><time>2026-04-26T13:02:33.371Z</time></trkpt><trkpt lat="44.2276817" lon="10.6035767"><ele>1128.0</ele><time>2026-04-26T13:02:34.372Z</time></trkpt><trkpt lat="44.2277567" lon="10.6035933"><ele>1128.0</ele><time>2026-04-26T13:02:35.371Z</time></trkpt><trkpt lat="44.22782" lon="10.6035167"><ele>1128.0</ele><time>2026-04-26T13:02:36.371Z</time></trkpt><trkpt lat="44.2278867" lon="10.6034"><ele>1128.0</ele><time>2026-04-26T13:02:37.371Z</time></trkpt><trkpt lat="44.2279783" lon="10.6032783"><ele>1128.0</ele><time>2026-04-26T13:02:38.371Z</time></trkpt><trkpt lat="44.2281067" lon="10.6032"><ele>1128.0</ele><time>2026-04-26T13:02:39.371Z</time></trkpt><trkpt lat="44.2282633" lon="10.6031283"><ele>1128.0</ele><time>2026-04-26T13:02:40.371Z</time></trkpt><trkpt lat="44.2284133" lon="10.60308"><ele>1130.0</ele><time>2026-04-26T13:02:41.371Z</time></trkpt><trkpt lat="44.22854" lon="10.6030333"><ele>1132.0</ele><time>2026-04-26T13:02:42.372Z</time></trkpt><trkpt lat="44.2286483" lon="10.6030083"><ele>1134.0</ele><time>2026-04-26T13:02:43.371Z</time></trkpt><trkpt lat="44.228735" lon="10.6030217"><ele>1136.0</ele><time>2026-04-26T13:02:44.371Z</time></trkpt><trkpt lat="44.2288067" lon="10.6030633"><ele>1138.0</ele><time>2026-04-26T13:02:45.371Z</time></trkpt><trkpt lat="44.22886" lon="10.603135"><ele>1138.0</ele><time>2026-04-26T13:02:46.371Z</time></trkpt><trkpt lat="44.22891" lon="10.6032283"><ele>1138.0</ele><time>2026-04-26T13:02:47.371Z</time></trkpt><trkpt lat="44.228965" lon="10.6033617"><ele>1138.0</ele><time>2026-04-26T13:02:48.371Z</time></trkpt><trkpt lat="44.229015" lon="10.6034833"><ele>1138.0</ele><time>2026-04-26T13:02:49.371Z</time></trkpt><trkpt lat="44.2290533" lon="10.6035633"><ele>1138.0</ele><time>2026-04-26T13:02:50.371Z</time></trkpt><trkpt lat="44.2291417" lon="10.6036067"><ele>1140.5</ele><time>2026-04-26T13:02:52.371Z</time></trkpt><trkpt lat="44.2291717" lon="10.6034033"><ele>1143.0</ele><time>2026-04-26T13:02:54.371Z</time></trkpt><trkpt lat="44.22917" lon="10.6032533"><ele>1145.5</ele><time>2026-04-26T13:02:55.371Z</time></trkpt><trkpt lat="44.2291033" lon="10.6030917"><ele>1148.0</ele><time>2026-04-26T13:02:56.371Z</time></trkpt><trkpt lat="44.2290183" lon="10.6029567"><ele>1148.8333333333335</ele><time>2026-04-26T13:02:57.371Z</time></trkpt><trkpt lat="44.2289467" lon="10.6028283"><ele>1149.6666666666667</ele><time>2026-04-26T13:02:58.371Z</time></trkpt><trkpt lat="44.2289083" lon="10.6027117"><ele>1150.5</ele><time>2026-04-26T13:02:59.371Z</time></trkpt><trkpt lat="44.22892" lon="10.6026167"><ele>1151.3333333333333</ele><time>2026-04-26T13:03:00.372Z</time></trkpt><trkpt lat="44.2289633" lon="10.6025517"><ele>1152.1666666666665</ele><time>2026-04-26T13:03:01.371Z</time></trkpt><trkpt lat="44.2290283" lon="10.6024967"><ele>1153.0</ele><time>2026-04-26T13:03:02.371Z</time></trkpt><trkpt lat="44.2291033" lon="10.6025167"><ele>1153.0</ele><time>2026-04-26T13:03:03.371Z</time></trkpt><trkpt lat="44.229175" lon="10.6025917"><ele>1153.0</ele><time>2026-04-26T13:03:04.371Z</time></trkpt><trkpt lat="44.2292383" lon="10.6027217"><ele>1153.0</ele><time>2026-04-26T13:03:05.371Z</time></trkpt><trkpt lat="44.2293183" lon="10.6028967"><ele>1153.0</ele><time>2026-04-26T13:03:06.371Z</time></trkpt><trkpt lat="44.2294" lon="10.6030517"><ele>1153.5</ele><time>2026-04-26T13:03:07.371Z</time></trkpt><trkpt lat="44.22949" lon="10.6031833"><ele>1154.0</ele><time>2026-04-26T13:03:08.371Z</time></trkpt><trkpt lat="44.2296017" lon="10.603275"><ele>1154.5</ele><time>2026-04-26T13:03:09.371Z</time></trkpt><trkpt lat="44.2297233" lon="10.6033233"><ele>1155.0</ele><time>2026-04-26T13:03:10.371Z</time></trkpt><trkpt lat="44.2298483" lon="10.6033533"><ele>1155.0</ele><time>2026-04-26T13:03:11.371Z</time></trkpt><trkpt lat="44.22996" lon="10.6033733"><ele>1155.0</ele><time>2026-04-26T13:03:12.371Z</time></trkpt><trkpt lat="44.2300483" lon="10.6034317"><ele>1155.0</ele><time>2026-04-26T13:03:13.371Z</time></trkpt><trkpt lat="44.2301033" lon="10.6035367"><ele>1155.0</ele><time>2026-04-26T13:03:14.371Z</time></trkpt><trkpt lat="44.2301317" lon="10.6036833"><ele>1155.0</ele><time>2026-04-26T13:03:15.371Z</time></trkpt><trkpt lat="44.2301317" lon="10.60386"><ele>1155.3333333333333</ele><time>2026-04-26T13:03:16.371Z</time></trkpt><trkpt lat="44.230105" lon="10.60405"><ele>1155.6666666666665</ele><time>2026-04-26T13:03:17.371Z</time></trkpt><trkpt lat="44.2300717" lon="10.6042667"><ele>1156.0</ele><time>2026-04-26T13:03:18.371Z</time></trkpt><trkpt lat="44.2300483" lon="10.6044967"><ele>1156.0</ele><time>2026-04-26T13:03:19.371Z</time></trkpt><trkpt lat="44.2300317" lon="10.604765"><ele>1156.0</ele><time>2026-04-26T13:03:20.371Z</time></trkpt><trkpt lat="44.2300283" lon="10.605035"><ele>1156.0</ele><time>2026-04-26T13:03:21.372Z</time></trkpt><trkpt lat="44.2300217" lon="10.6052867"><ele>1158.5</ele><time>2026-04-26T13:03:22.371Z</time></trkpt><trkpt lat="44.23002" lon="10.6055183"><ele>1161.0</ele><time>2026-04-26T13:03:23.371Z</time></trkpt><trkpt lat="44.2300267" lon="10.605715"><ele>1163.5</ele><time>2026-04-26T13:03:24.371Z</time></trkpt><trkpt lat="44.2300233" lon="10.6058917"><ele>1166.0</ele><time>2026-04-26T13:03:25.371Z</time></trkpt><trkpt lat="44.2300217" lon="10.6060717"><ele>1166.5</ele><time>2026-04-26T13:03:26.371Z</time></trkpt><trkpt lat="44.2300117" lon="10.6062483"><ele>1167.0</ele><time>2026-04-26T13:03:27.371Z</time></trkpt><trkpt lat="44.2299933" lon="10.6064117"><ele>1167.5</ele><time>2026-04-26T13:03:28.371Z</time></trkpt><trkpt lat="44.22996" lon="10.6065783"><ele>1168.0</ele><time>2026-04-26T13:03:29.371Z</time></trkpt><trkpt lat="44.2299117" lon="10.60672"><ele>1168.0</ele><time>2026-04-26T13:03:30.371Z</time></trkpt><trkpt lat="44.2298717" lon="10.60684"><ele>1168.0</ele><time>2026-04-26T13:03:31.371Z</time></trkpt><trkpt lat="44.2298617" lon="10.60695"><ele>1168.0</ele><time>2026-04-26T13:03:32.371Z</time></trkpt><trkpt lat="44.229875" lon="10.6070467"><ele>1168.0</ele><time>2026-04-26T13:03:33.371Z</time></trkpt><trkpt lat="44.22991" lon="10.6071267"><ele>1168.0</ele><time>2026-04-26T13:03:34.371Z</time></trkpt><trkpt lat="44.2300183" lon="10.6071517"><ele>1168.0</ele><time>2026-04-26T13:03:36.371Z</time></trkpt><trkpt lat="44.2300817" lon="10.60708"><ele>1168.0</ele><time>2026-04-26T13:03:37.371Z</time></trkpt><trkpt lat="44.2301317" lon="10.6069683"><ele>1168.0</ele><time>2026-04-26T13:03:38.371Z</time></trkpt><trkpt lat="44.2301667" lon="10.606795"><ele>1168.0</ele><time>2026-04-26T13:03:39.371Z</time></trkpt><trkpt lat="44.2302" lon="10.6065667"><ele>1168.0</ele><time>2026-04-26T13:03:40.371Z</time></trkpt><trkpt lat="44.2302333" lon="10.606315"><ele>1167.3333333333333</ele><time>2026-04-26T13:03:41.371Z</time></trkpt><trkpt lat="44.2302717" lon="10.6060583"><ele>1166.6666666666667</ele><time>2026-04-26T13:03:42.371Z</time></trkpt><trkpt lat="44.2303067" lon="10.6058183"><ele>1166.0</ele><time>2026-04-26T13:03:43.371Z</time></trkpt><trkpt lat="44.2303417" lon="10.60562"><ele>1166.0</ele><time>2026-04-26T13:03:44.371Z</time></trkpt><trkpt lat="44.2304017" lon="10.6054333"><ele>1166.0</ele><time>2026-04-26T13:03:45.371Z</time></trkpt><trkpt lat="44.2304733" lon="10.6052767"><ele>1166.0</ele><time>2026-04-26T13:03:46.371Z</time></trkpt><trkpt lat="44.2305533" lon="10.6051017"><ele>1166.0</ele><time>2026-04-26T13:03:47.371Z</time></trkpt><trkpt lat="44.230635" lon="10.604915"><ele>1168.0</ele><time>2026-04-26T13:03:48.371Z</time></trkpt><trkpt lat="44.2307133" lon="10.6047467"><ele>1170.0</ele><time>2026-04-26T13:03:49.371Z</time></trkpt><trkpt lat="44.2307917" lon="10.60458"><ele>1172.0</ele><time>2026-04-26T13:03:50.371Z</time></trkpt><trkpt lat="44.2308683" lon="10.6044367"><ele>1174.0</ele><time>2026-04-26T13:03:51.371Z</time></trkpt><trkpt lat="44.230945" lon="10.60432"><ele>1174.0</ele><time>2026-04-26T13:03:52.371Z</time></trkpt><trkpt lat="44.231035" lon="10.6042417"><ele>1174.0</ele><time>2026-04-26T13:03:53.371Z</time></trkpt><trkpt lat="44.2311183" lon="10.6042033"><ele>1174.0</ele><time>2026-04-26T13:03:54.371Z</time></trkpt><trkpt lat="44.2311883" lon="10.6042067"><ele>1174.0</ele><time>2026-04-26T13:03:55.371Z</time></trkpt><trkpt lat="44.2312533" lon="10.6042433"><ele>1174.0</ele><time>2026-04-26T13:03:56.371Z</time></trkpt><trkpt lat="44.2313033" lon="10.6043183"><ele>1174.0</ele><time>2026-04-26T13:03:57.371Z</time></trkpt><trkpt lat="44.2313367" lon="10.60441"><ele>1175.6000000000001</ele><time>2026-04-26T13:03:58.371Z</time></trkpt><trkpt lat="44.2313333" lon="10.6045367"><ele>1177.2</ele><time>2026-04-26T13:03:59.371Z</time></trkpt><trkpt lat="44.2312983" lon="10.6046883"><ele>1178.8000000000002</ele><time>2026-04-26T13:04:00.371Z</time></trkpt><trkpt lat="44.2312617" lon="10.6048333"><ele>1180.4</ele><time>2026-04-26T13:04:01.371Z</time></trkpt><trkpt lat="44.2312333" lon="10.6050067"><ele>1182.0</ele><time>2026-04-26T13:04:02.371Z</time></trkpt><trkpt lat="44.2312167" lon="10.6052117"><ele>1184.3333333333333</ele><time>2026-04-26T13:04:03.371Z</time></trkpt><trkpt lat="44.2312" lon="10.6054417"><ele>1186.6666666666665</ele><time>2026-04-26T13:04:04.371Z</time></trkpt><trkpt lat="44.231195" lon="10.6056817"><ele>1189.0</ele><time>2026-04-26T13:04:05.371Z</time></trkpt><trkpt lat="44.2312" lon="10.6059167"><ele>1189.0</ele><time>2026-04-26T13:04:06.372Z</time></trkpt><trkpt lat="44.2312083" lon="10.6061533"><ele>1189.0</ele><time>2026-04-26T13:04:07.371Z</time></trkpt><trkpt lat="44.2312067" lon="10.6063767"><ele>1189.0</ele><time>2026-04-26T13:04:08.371Z</time></trkpt><trkpt lat="44.23121" lon="10.6065633"><ele>1189.0</ele><time>2026-04-26T13:04:09.371Z</time></trkpt><trkpt lat="44.23123" lon="10.6067367"><ele>1189.0</ele><time>2026-04-26T13:04:10.371Z</time></trkpt><trkpt lat="44.2312733" lon="10.60691"><ele>1189.0</ele><time>2026-04-26T13:04:11.371Z</time></trkpt><trkpt lat="44.2313383" lon="10.6070883"><ele>1189.0</ele><time>2026-04-26T13:04:12.371Z</time></trkpt><trkpt lat="44.2313983" lon="10.6072533"><ele>1186.8</ele><time>2026-04-26T13:04:13.371Z</time></trkpt><trkpt lat="44.2314467" lon="10.6073767"><ele>1184.6000000000001</ele><time>2026-04-26T13:04:14.371Z</time></trkpt><trkpt lat="44.2314883" lon="10.6074533"><ele>1182.4</ele><time>2026-04-26T13:04:15.371Z</time></trkpt><trkpt lat="44.2315683" lon="10.6074483"><ele>1180.2</ele><time>2026-04-26T13:04:17.37Z</time></trkpt><trkpt lat="44.2316067" lon="10.60737"><ele>1178.0</ele><time>2026-04-26T13:04:19.37Z</time></trkpt><trkpt lat="44.2315867" lon="10.607185"><ele>1183.0</ele><time>2026-04-26T13:04:21.37Z</time></trkpt><trkpt lat="44.2315633" lon="10.6070683"><ele>1188.0</ele><time>2026-04-26T13:04:22.37Z</time></trkpt><trkpt lat="44.2315483" lon="10.60695"><ele>1193.0</ele><time>2026-04-26T13:04:23.37Z</time></trkpt><trkpt lat="44.2315533" lon="10.6068267"><ele>1198.0</ele><time>2026-04-26T13:04:24.37Z</time></trkpt><trkpt lat="44.2315767" lon="10.606705"><ele>1203.0</ele><time>2026-04-26T13:04:25.37Z</time></trkpt><trkpt lat="44.2316167" lon="10.6065683"><ele>1203.4</ele><time>2026-04-26T13:04:26.37Z</time></trkpt><trkpt lat="44.2316583" lon="10.6064333"><ele>1203.8</ele><time>2026-04-26T13:04:27.371Z</time></trkpt><trkpt lat="44.2317033" lon="10.6063017"><ele>1204.2</ele><time>2026-04-26T13:04:28.37Z</time></trkpt><trkpt lat="44.2317533" lon="10.60617"><ele>1204.6</ele><time>2026-04-26T13:04:29.37Z</time></trkpt><trkpt lat="44.2317983" lon="10.6060233"><ele>1205.0</ele><time>2026-04-26T13:04:30.37Z</time></trkpt><trkpt lat="44.2318483" lon="10.6058783"><ele>1205.0</ele><time>2026-04-26T13:04:31.37Z</time></trkpt><trkpt lat="44.2319117" lon="10.6057167"><ele>1205.0</ele><time>2026-04-26T13:04:32.37Z</time></trkpt><trkpt lat="44.2319733" lon="10.605545"><ele>1205.0</ele><time>2026-04-26T13:04:33.37Z</time></trkpt><trkpt lat="44.2320317" lon="10.6053717"><ele>1205.0</ele><time>2026-04-26T13:04:34.371Z</time></trkpt><trkpt lat="44.232095" lon="10.6051933"><ele>1204.0</ele><time>2026-04-26T13:04:35.37Z</time></trkpt><trkpt lat="44.2321567" lon="10.60503"><ele>1203.0</ele><time>2026-04-26T13:04:36.37Z</time></trkpt><trkpt lat="44.23221" lon="10.6048983"><ele>1202.0</ele><time>2026-04-26T13:04:37.37Z</time></trkpt><trkpt lat="44.23227" lon="10.6047983"><ele>1201.0</ele><time>2026-04-26T13:04:38.37Z</time></trkpt><trkpt lat="44.2323433" lon="10.6047133"><ele>1200.0</ele><time>2026-04-26T13:04:39.37Z</time></trkpt><trkpt lat="44.2324233" lon="10.6046533"><ele>1203.3333333333333</ele><time>2026-04-26T13:04:40.37Z</time></trkpt><trkpt lat="44.23251" lon="10.604625"><ele>1206.6666666666667</ele><time>2026-04-26T13:04:41.37Z</time></trkpt><trkpt lat="44.2325983" lon="10.6046167"><ele>1210.0</ele><time>2026-04-26T13:04:42.37Z</time></trkpt><trkpt lat="44.232675" lon="10.60464"><ele>1213.3333333333335</ele><time>2026-04-26T13:04:43.37Z</time></trkpt><trkpt lat="44.232745" lon="10.6046983"><ele>1216.6666666666667</ele><time>2026-04-26T13:04:44.37Z</time></trkpt><trkpt lat="44.2328067" lon="10.6047867"><ele>1220.0</ele><time>2026-04-26T13:04:45.37Z</time></trkpt><trkpt lat="44.232855" lon="10.604915"><ele>1220.0</ele><time>2026-04-26T13:04:46.37Z</time></trkpt><trkpt lat="44.2329017" lon="10.605075"><ele>1220.0</ele><time>2026-04-26T13:04:47.37Z</time></trkpt><trkpt lat="44.2329583" lon="10.60524"><ele>1220.0</ele><time>2026-04-26T13:04:48.37Z</time></trkpt><trkpt lat="44.2330183" lon="10.6054183"><ele>1220.0</ele><time>2026-04-26T13:04:49.37Z</time></trkpt><trkpt lat="44.2330733" lon="10.6056033"><ele>1221.0</ele><time>2026-04-26T13:04:50.37Z</time></trkpt><trkpt lat="44.2331167" lon="10.605805"><ele>1222.0</ele><time>2026-04-26T13:04:51.37Z</time></trkpt><trkpt lat="44.2331467" lon="10.6060233"><ele>1223.0</ele><time>2026-04-26T13:04:52.37Z</time></trkpt><trkpt lat="44.2331767" lon="10.6062467"><ele>1227.0</ele><time>2026-04-26T13:04:53.37Z</time></trkpt><trkpt lat="44.2332017" lon="10.606455"><ele>1231.0</ele><time>2026-04-26T13:04:54.37Z</time></trkpt><trkpt lat="44.2332283" lon="10.6066483"><ele>1235.0</ele><time>2026-04-26T13:04:55.37Z</time></trkpt><trkpt lat="44.2332583" lon="10.6068333"><ele>1239.0</ele><time>2026-04-26T13:04:56.37Z</time></trkpt><trkpt lat="44.2333083" lon="10.607025"><ele>1239.0</ele><time>2026-04-26T13:04:57.37Z</time></trkpt><trkpt lat="44.2333667" lon="10.6071883"><ele>1239.0</ele><time>2026-04-26T13:04:58.37Z</time></trkpt><trkpt lat="44.233425" lon="10.6073383"><ele>1239.0</ele><time>2026-04-26T13:04:59.37Z</time></trkpt><trkpt lat="44.2334783" lon="10.6074717"><ele>1239.0</ele><time>2026-04-26T13:05:00.37Z</time></trkpt><trkpt lat="44.2335217" lon="10.607555"><ele>1239.0</ele><time>2026-04-26T13:05:01.37Z</time></trkpt><trkpt lat="44.2336217" lon="10.6075817"><ele>1239.0</ele><time>2026-04-26T13:05:03.37Z</time></trkpt><trkpt lat="44.2336917" lon="10.6074733"><ele>1239.0</ele><time>2026-04-26T13:05:05.37Z</time></trkpt><trkpt lat="44.2337" lon="10.6073667"><ele>1239.0</ele><time>2026-04-26T13:05:06.37Z</time></trkpt><trkpt lat="44.2336967" lon="10.6072367"><ele>1239.0</ele><time>2026-04-26T13:05:07.37Z</time></trkpt><trkpt lat="44.2336883" lon="10.6070767"><ele>1239.0</ele><time>2026-04-26T13:05:08.37Z</time></trkpt><trkpt lat="44.2336783" lon="10.606895"><ele>1239.5</ele><time>2026-04-26T13:05:09.37Z</time></trkpt><trkpt lat="44.2336783" lon="10.6067083"><ele>1240.0</ele><time>2026-04-26T13:05:10.37Z</time></trkpt><trkpt lat="44.23368" lon="10.60652"><ele>1240.5</ele><time>2026-04-26T13:05:11.37Z</time></trkpt><trkpt lat="44.2336833" lon="10.6063367"><ele>1241.0</ele><time>2026-04-26T13:05:12.37Z</time></trkpt><trkpt lat="44.233695" lon="10.6061717"><ele>1241.75</ele><time>2026-04-26T13:05:13.371Z</time></trkpt><trkpt lat="44.2337033" lon="10.6060017"><ele>1242.5</ele><time>2026-04-26T13:05:14.371Z</time></trkpt><trkpt lat="44.2337217" lon="10.6058433"><ele>1243.25</ele><time>2026-04-26T13:05:15.37Z</time></trkpt><trkpt lat="44.2337467" lon="10.6056883"><ele>1244.0</ele><time>2026-04-26T13:05:16.37Z</time></trkpt><trkpt lat="44.2337883" lon="10.605545"><ele>1244.0</ele><time>2026-04-26T13:05:17.371Z</time></trkpt><trkpt lat="44.2338617" lon="10.6053933"><ele>1244.0</ele><time>2026-04-26T13:05:18.37Z</time></trkpt><trkpt lat="44.2339367" lon="10.6052383"><ele>1244.0</ele><time>2026-04-26T13:05:19.37Z</time></trkpt><trkpt lat="44.2339983" lon="10.60509"><ele>1244.0</ele><time>2026-04-26T13:05:20.37Z</time></trkpt><trkpt lat="44.2340567" lon="10.6049733"><ele>1247.4</ele><time>2026-04-26T13:05:21.37Z</time></trkpt><trkpt lat="44.23412" lon="10.6048783"><ele>1250.8000000000002</ele><time>2026-04-26T13:05:22.37Z</time></trkpt><trkpt lat="44.234195" lon="10.60482"><ele>1254.1999999999998</ele><time>2026-04-26T13:05:23.37Z</time></trkpt><trkpt lat="44.234285" lon="10.60479"><ele>1257.6</ele><time>2026-04-26T13:05:24.37Z</time></trkpt><trkpt lat="44.2343833" lon="10.6047867"><ele>1261.0</ele><time>2026-04-26T13:05:25.37Z</time></trkpt><trkpt lat="44.2344883" lon="10.6048067"><ele>1261.0</ele><time>2026-04-26T13:05:26.37Z</time></trkpt><trkpt lat="44.2346133" lon="10.6048483"><ele>1261.0</ele><time>2026-04-26T13:05:27.37Z</time></trkpt><trkpt lat="44.2347333" lon="10.6049033"><ele>1261.0</ele><time>2026-04-26T13:05:28.37Z</time></trkpt><trkpt lat="44.2348333" lon="10.6049417"><ele>1261.0</ele><time>2026-04-26T13:05:29.37Z</time></trkpt><trkpt lat="44.2349167" lon="10.6049733"><ele>1261.0</ele><time>2026-04-26T13:05:30.37Z</time></trkpt><trkpt lat="44.2349917" lon="10.6050183"><ele>1263.75</ele><time>2026-04-26T13:05:31.37Z</time></trkpt><trkpt lat="44.2350767" lon="10.6050967"><ele>1266.5</ele><time>2026-04-26T13:05:32.371Z</time></trkpt><trkpt lat="44.2351483" lon="10.6052083"><ele>1269.25</ele><time>2026-04-26T13:05:33.37Z</time></trkpt><trkpt lat="44.2352133" lon="10.6053417"><ele>1272.0</ele><time>2026-04-26T13:05:34.37Z</time></trkpt><trkpt lat="44.2352967" lon="10.605495"><ele>1272.0</ele><time>2026-04-26T13:05:35.37Z</time></trkpt><trkpt lat="44.2354" lon="10.6056433"><ele>1272.0</ele><time>2026-04-26T13:05:36.37Z</time></trkpt><trkpt lat="44.2355167" lon="10.6057917"><ele>1272.0</ele><time>2026-04-26T13:05:37.37Z</time></trkpt><trkpt lat="44.23562" lon="10.6059433"><ele>1274.5</ele><time>2026-04-26T13:05:38.37Z</time></trkpt><trkpt lat="44.2356883" lon="10.606085"><ele>1277.0</ele><time>2026-04-26T13:05:39.371Z</time></trkpt><trkpt lat="44.2357367" lon="10.6062433"><ele>1279.5</ele><time>2026-04-26T13:05:40.37Z</time></trkpt><trkpt lat="44.2357683" lon="10.6064283"><ele>1282.0</ele><time>2026-04-26T13:05:41.37Z</time></trkpt><trkpt lat="44.2358" lon="10.6066333"><ele>1282.0</ele><time>2026-04-26T13:05:42.37Z</time></trkpt><trkpt lat="44.2358467" lon="10.60683"><ele>1282.0</ele><time>2026-04-26T13:05:43.371Z</time></trkpt><trkpt lat="44.2359067" lon="10.6070067"><ele>1282.0</ele><time>2026-04-26T13:05:44.37Z</time></trkpt><trkpt lat="44.2359567" lon="10.607165"><ele>1282.0</ele><time>2026-04-26T13:05:45.37Z</time></trkpt><trkpt lat="44.2360017" lon="10.6073167"><ele>1282.6</ele><time>2026-04-26T13:05:46.37Z</time></trkpt><trkpt lat="44.2360167" lon="10.6074767"><ele>1283.1999999999998</ele><time>2026-04-26T13:05:47.37Z</time></trkpt><trkpt lat="44.236015" lon="10.6076117"><ele>1283.8</ele><time>2026-04-26T13:05:48.371Z</time></trkpt><trkpt lat="44.236005" lon="10.60774"><ele>1284.4</ele><time>2026-04-26T13:05:49.37Z</time></trkpt><trkpt lat="44.235995" lon="10.6078417"><ele>1285.0</ele><time>2026-04-26T13:05:50.37Z</time></trkpt><trkpt lat="44.235935" lon="10.608"><ele>1283.3333333333333</ele><time>2026-04-26T13:05:52.37Z</time></trkpt><trkpt lat="44.235885" lon="10.6080933"><ele>1281.6666666666665</ele><time>2026-04-26T13:05:53.371Z</time></trkpt><trkpt lat="44.2358233" lon="10.6081783"><ele>1280.0</ele><time>2026-04-26T13:05:54.37Z</time></trkpt><trkpt lat="44.2357683" lon="10.60825"><ele>1278.3333333333333</ele><time>2026-04-26T13:05:55.37Z</time></trkpt><trkpt lat="44.2357033" lon="10.6083017"><ele>1276.6666666666667</ele><time>2026-04-26T13:05:56.371Z</time></trkpt><trkpt lat="44.2356417" lon="10.6083483"><ele>1275.0</ele><time>2026-04-26T13:05:57.37Z</time></trkpt><trkpt lat="44.2355683" lon="10.6084183"><ele>1275.0</ele><time>2026-04-26T13:05:59.37Z</time></trkpt><trkpt lat="44.23551" lon="10.6084783"><ele>1275.0</ele><time>2026-04-26T13:06:01.37Z</time></trkpt><trkpt lat="44.2354467" lon="10.6085467"><ele>1275.0</ele><time>2026-04-26T13:06:03.371Z</time></trkpt><trkpt lat="44.2353717" lon="10.6086883"><ele>1275.0</ele><time>2026-04-26T13:06:05.37Z</time></trkpt><trkpt lat="44.2353433" lon="10.608785"><ele>1275.0</ele><time>2026-04-26T13:06:06.37Z</time></trkpt><trkpt lat="44.2353083" lon="10.6089117"><ele>1275.5</ele><time>2026-04-26T13:06:07.37Z</time></trkpt><trkpt lat="44.2352983" lon="10.609065"><ele>1276.0</ele><time>2026-04-26T13:06:08.37Z</time></trkpt><trkpt lat="44.2353133" lon="10.6092383"><ele>1276.5</ele><time>2026-04-26T13:06:09.37Z</time></trkpt><trkpt lat="44.2353617" lon="10.6094183"><ele>1277.0</ele><time>2026-04-26T13:06:10.37Z</time></trkpt><trkpt lat="44.23543" lon="10.60959"><ele>1277.0</ele><time>2026-04-26T13:06:11.37Z</time></trkpt><trkpt lat="44.2355367" lon="10.6097933"><ele>1277.0</ele><time>2026-04-26T13:06:12.37Z</time></trkpt><trkpt lat="44.2356283" lon="10.6099717"><ele>1277.0</ele><time>2026-04-26T13:06:13.37Z</time></trkpt><trkpt lat="44.235715" lon="10.6101567"><ele>1286.3333333333335</ele><time>2026-04-26T13:06:14.37Z</time></trkpt><trkpt lat="44.2357883" lon="10.6103533"><ele>1295.6666666666667</ele><time>2026-04-26T13:06:15.37Z</time></trkpt><trkpt lat="44.23585" lon="10.6105883"><ele>1305.0</ele><time>2026-04-26T13:06:16.37Z</time></trkpt><trkpt lat="44.235915" lon="10.6108467"><ele>1305.0</ele><time>2026-04-26T13:06:17.371Z</time></trkpt><trkpt lat="44.2359667" lon="10.6110983"><ele>1305.0</ele><time>2026-04-26T13:06:18.37Z</time></trkpt><trkpt lat="44.2359967" lon="10.61134"><ele>1305.0</ele><time>2026-04-26T13:06:19.37Z</time></trkpt><trkpt lat="44.2360117" lon="10.6115567"><ele>1302.75</ele><time>2026-04-26T13:06:20.37Z</time></trkpt><trkpt lat="44.2360333" lon="10.6117583"><ele>1300.5</ele><time>2026-04-26T13:06:21.37Z</time></trkpt><trkpt lat="44.2360667" lon="10.6119217"><ele>1298.25</ele><time>2026-04-26T13:06:22.37Z</time></trkpt><trkpt lat="44.2361117" lon="10.612075"><ele>1296.0</ele><time>2026-04-26T13:06:23.37Z</time></trkpt><trkpt lat="44.2361667" lon="10.6121933"><ele>1294.8333333333333</ele><time>2026-04-26T13:06:24.37Z</time></trkpt><trkpt lat="44.2362217" lon="10.6122917"><ele>1293.6666666666667</ele><time>2026-04-26T13:06:25.37Z</time></trkpt><trkpt lat="44.2362767" lon="10.6123633"><ele>1292.5</ele><time>2026-04-26T13:06:26.37Z</time></trkpt><trkpt lat="44.2363233" lon="10.6124367"><ele>1291.3333333333335</ele><time>2026-04-26T13:06:27.37Z</time></trkpt><trkpt lat="44.2364083" lon="10.6125033"><ele>1290.1666666666667</ele><time>2026-04-26T13:06:29.37Z</time></trkpt><trkpt lat="44.2364917" lon="10.612515"><ele>1289.0</ele><time>2026-04-26T13:06:32.37Z</time></trkpt><trkpt lat="44.23657" lon="10.6125117"><ele>1289.0</ele><time>2026-04-26T13:08:22.369Z</time></trkpt><trkpt lat="44.236685" lon="10.6125233"><ele>1289.0</ele><time>2026-04-26T13:08:24.369Z</time></trkpt><trkpt lat="44.2367617" lon="10.6125567"><ele>1289.0</ele><time>2026-04-26T13:08:25.369Z</time></trkpt><trkpt lat="44.2368367" lon="10.6125967"><ele>1289.0</ele><time>2026-04-26T13:08:26.369Z</time></trkpt><trkpt lat="44.236905" lon="10.612665"><ele>1289.0</ele><time>2026-04-26T13:08:27.369Z</time></trkpt><trkpt lat="44.2369667" lon="10.612755"><ele>1289.0</ele><time>2026-04-26T13:08:28.369Z</time></trkpt><trkpt lat="44.2370367" lon="10.612845"><ele>1289.0</ele><time>2026-04-26T13:08:29.369Z</time></trkpt><trkpt lat="44.2371117" lon="10.612925"><ele>1289.0</ele><time>2026-04-26T13:08:30.369Z</time></trkpt><trkpt lat="44.2372067" lon="10.613"><ele>1289.0</ele><time>2026-04-26T13:08:31.369Z</time></trkpt><trkpt lat="44.237325" lon="10.6130733"><ele>1289.0</ele><time>2026-04-26T13:08:32.369Z</time></trkpt><trkpt lat="44.2374483" lon="10.6131267"><ele>1292.25</ele><time>2026-04-26T13:08:33.369Z</time></trkpt><trkpt lat="44.23757" lon="10.6131633"><ele>1295.5</ele><time>2026-04-26T13:08:34.369Z</time></trkpt><trkpt lat="44.2377" lon="10.6132033"><ele>1298.75</ele><time>2026-04-26T13:08:35.369Z</time></trkpt><trkpt lat="44.23784" lon="10.613225"><ele>1302.0</ele><time>2026-04-26T13:08:36.369Z</time></trkpt><trkpt lat="44.23796" lon="10.6132467"><ele>1302.0</ele><time>2026-04-26T13:08:37.369Z</time></trkpt><trkpt lat="44.2381067" lon="10.6133"><ele>1302.0</ele><time>2026-04-26T13:08:38.369Z</time></trkpt><trkpt lat="44.2382583" lon="10.61337"><ele>1302.0</ele><time>2026-04-26T13:08:39.369Z</time></trkpt><trkpt lat="44.2384017" lon="10.613455"><ele>1300.3333333333333</ele><time>2026-04-26T13:08:40.37Z</time></trkpt><trkpt lat="44.2385433" lon="10.61356"><ele>1298.6666666666665</ele><time>2026-04-26T13:08:41.369Z</time></trkpt><trkpt lat="44.238675" lon="10.6136633"><ele>1297.0</ele><time>2026-04-26T13:08:42.369Z</time></trkpt><trkpt lat="44.2388033" lon="10.6137633"><ele>1297.0</ele><time>2026-04-26T13:08:43.369Z</time></trkpt><trkpt lat="44.2389333" lon="10.6138383"><ele>1297.0</ele><time>2026-04-26T13:08:44.369Z</time></trkpt><trkpt lat="44.23905" lon="10.6139083"><ele>1297.0</ele><time>2026-04-26T13:08:45.369Z</time></trkpt><trkpt lat="44.23916" lon="10.613985"><ele>1297.0</ele><time>2026-04-26T13:08:46.369Z</time></trkpt><trkpt lat="44.239265" lon="10.6140533"><ele>1296.25</ele><time>2026-04-26T13:08:47.369Z</time></trkpt><trkpt lat="44.2393783" lon="10.6140867"><ele>1295.5</ele><time>2026-04-26T13:08:48.369Z</time></trkpt><trkpt lat="44.2395017" lon="10.61411"><ele>1294.75</ele><time>2026-04-26T13:08:49.369Z</time></trkpt><trkpt lat="44.2396133" lon="10.61413"><ele>1294.0</ele><time>2026-04-26T13:08:50.369Z</time></trkpt><trkpt lat="44.2397233" lon="10.6141417"><ele>1293.2</ele><time>2026-04-26T13:08:51.369Z</time></trkpt><trkpt lat="44.2398233" lon="10.6141417"><ele>1292.4</ele><time>2026-04-26T13:08:52.369Z</time></trkpt><trkpt lat="44.2399167" lon="10.61412"><ele>1291.6</ele><time>2026-04-26T13:08:53.369Z</time></trkpt><trkpt lat="44.2400067" lon="10.61408"><ele>1290.8</ele><time>2026-04-26T13:08:54.369Z</time></trkpt><trkpt lat="44.2400967" lon="10.6140283"><ele>1290.0</ele><time>2026-04-26T13:08:55.369Z</time></trkpt><trkpt lat="44.2401883" lon="10.61397"><ele>1290.0</ele><time>2026-04-26T13:08:56.369Z</time></trkpt><trkpt lat="44.2402833" lon="10.613925"><ele>1290.0</ele><time>2026-04-26T13:08:57.369Z</time></trkpt><trkpt lat="44.2403833" lon="10.613905"><ele>1290.0</ele><time>2026-04-26T13:08:58.369Z</time></trkpt><trkpt lat="44.2404867" lon="10.6139133"><ele>1290.0</ele><time>2026-04-26T13:08:59.369Z</time></trkpt><trkpt lat="44.2405983" lon="10.6139417"><ele>1290.0</ele><time>2026-04-26T13:09:00.369Z</time></trkpt><trkpt lat="44.2407017" lon="10.61397"><ele>1288.5</ele><time>2026-04-26T13:09:01.369Z</time></trkpt><trkpt lat="44.2408017" lon="10.6140017"><ele>1287.0</ele><time>2026-04-26T13:09:02.369Z</time></trkpt><trkpt lat="44.2408983" lon="10.6140583"><ele>1285.5</ele><time>2026-04-26T13:09:03.369Z</time></trkpt><trkpt lat="44.2410033" lon="10.614145"><ele>1284.0</ele><time>2026-04-26T13:09:04.369Z</time></trkpt><trkpt lat="44.2411217" lon="10.6142583"><ele>1284.0</ele><time>2026-04-26T13:09:05.37Z</time></trkpt><trkpt lat="44.24125" lon="10.6143817"><ele>1284.0</ele><time>2026-04-26T13:09:06.369Z</time></trkpt><trkpt lat="44.2413883" lon="10.6144967"><ele>1284.0</ele><time>2026-04-26T13:09:07.369Z</time></trkpt><trkpt lat="44.241515" lon="10.61461"><ele>1283.25</ele><time>2026-04-26T13:09:08.369Z</time></trkpt><trkpt lat="44.2416433" lon="10.61473"><ele>1282.5</ele><time>2026-04-26T13:09:09.369Z</time></trkpt><trkpt lat="44.2417467" lon="10.6148617"><ele>1281.75</ele><time>2026-04-26T13:09:10.369Z</time></trkpt><trkpt lat="44.2418283" lon="10.6149817"><ele>1281.0</ele><time>2026-04-26T13:09:11.369Z</time></trkpt><trkpt lat="44.2419167" lon="10.6151217"><ele>1281.0</ele><time>2026-04-26T13:09:12.369Z</time></trkpt><trkpt lat="44.2419967" lon="10.6152467"><ele>1281.0</ele><time>2026-04-26T13:09:13.37Z</time></trkpt><trkpt lat="44.2420883" lon="10.615345"><ele>1281.0</ele><time>2026-04-26T13:09:14.369Z</time></trkpt><trkpt lat="44.24221" lon="10.6154617"><ele>1281.0</ele><time>2026-04-26T13:09:15.369Z</time></trkpt><trkpt lat="44.24233" lon="10.615575"><ele>1282.75</ele><time>2026-04-26T13:09:16.369Z</time></trkpt><trkpt lat="44.24248" lon="10.6156817"><ele>1284.5</ele><time>2026-04-26T13:09:17.369Z</time></trkpt><trkpt lat="44.2426167" lon="10.6157683"><ele>1286.25</ele><time>2026-04-26T13:09:18.369Z</time></trkpt><trkpt lat="44.24273" lon="10.6158567"><ele>1288.0</ele><time>2026-04-26T13:09:19.369Z</time></trkpt><trkpt lat="44.2428417" lon="10.6159467"><ele>1288.0</ele><time>2026-04-26T13:09:20.369Z</time></trkpt><trkpt lat="44.242925" lon="10.6160517"><ele>1288.0</ele><time>2026-04-26T13:09:21.369Z</time></trkpt><trkpt lat="44.24301" lon="10.6161817"><ele>1288.0</ele><time>2026-04-26T13:09:22.369Z</time></trkpt><trkpt lat="44.243085" lon="10.6163617"><ele>1288.0</ele><time>2026-04-26T13:09:23.369Z</time></trkpt><trkpt lat="44.2431517" lon="10.6165267"><ele>1288.4</ele><time>2026-04-26T13:09:24.369Z</time></trkpt><trkpt lat="44.243195" lon="10.6166183"><ele>1288.8000000000002</ele><time>2026-04-26T13:09:25.369Z</time></trkpt><trkpt lat="44.2432733" lon="10.6167417"><ele>1289.2</ele><time>2026-04-26T13:09:26.369Z</time></trkpt><trkpt lat="44.243355" lon="10.6168033"><ele>1289.6</ele><time>2026-04-26T13:09:27.369Z</time></trkpt><trkpt lat="44.2434533" lon="10.6168417"><ele>1290.0</ele><time>2026-04-26T13:09:28.369Z</time></trkpt><trkpt lat="44.2435617" lon="10.616865"><ele>1290.0</ele><time>2026-04-26T13:09:29.369Z</time></trkpt><trkpt lat="44.2436817" lon="10.6168667"><ele>1290.0</ele><time>2026-04-26T13:09:30.369Z</time></trkpt><trkpt lat="44.2437983" lon="10.6168667"><ele>1290.0</ele><time>2026-04-26T13:09:31.369Z</time></trkpt><trkpt lat="44.243905" lon="10.61686"><ele>1290.0</ele><time>2026-04-26T13:09:32.369Z</time></trkpt><trkpt lat="44.2439917" lon="10.6168683"><ele>1290.0</ele><time>2026-04-26T13:09:33.37Z</time></trkpt><trkpt lat="44.24407" lon="10.6168767"><ele>1290.2</ele><time>2026-04-26T13:09:34.369Z</time></trkpt><trkpt lat="44.244145" lon="10.6168983"><ele>1290.4</ele><time>2026-04-26T13:09:35.369Z</time></trkpt><trkpt lat="44.24421" lon="10.61696"><ele>1290.6</ele><time>2026-04-26T13:09:36.369Z</time></trkpt><trkpt lat="44.2442783" lon="10.6170483"><ele>1290.8</ele><time>2026-04-26T13:09:37.369Z</time></trkpt><trkpt lat="44.24435" lon="10.617145"><ele>1291.0</ele><time>2026-04-26T13:09:38.369Z</time></trkpt><trkpt lat="44.2444333" lon="10.61725"><ele>1291.0</ele><time>2026-04-26T13:09:39.369Z</time></trkpt><trkpt lat="44.24451" lon="10.6173533"><ele>1291.0</ele><time>2026-04-26T13:09:40.369Z</time></trkpt><trkpt lat="44.244585" lon="10.6174717"><ele>1291.0</ele><time>2026-04-26T13:09:41.369Z</time></trkpt><trkpt lat="44.2446383" lon="10.6176283"><ele>1291.0</ele><time>2026-04-26T13:09:42.369Z</time></trkpt><trkpt lat="44.24467" lon="10.6177817"><ele>1290.25</ele><time>2026-04-26T13:09:43.369Z</time></trkpt><trkpt lat="44.244705" lon="10.6179483"><ele>1289.5</ele><time>2026-04-26T13:09:44.369Z</time></trkpt><trkpt lat="44.2447433" lon="10.6181117"><ele>1288.75</ele><time>2026-04-26T13:09:45.369Z</time></trkpt><trkpt lat="44.2447817" lon="10.6182583"><ele>1288.0</ele><time>2026-04-26T13:09:46.37Z</time></trkpt><trkpt lat="44.2448283" lon="10.618385"><ele>1290.5</ele><time>2026-04-26T13:09:47.369Z</time></trkpt><trkpt lat="44.2449033" lon="10.61851"><ele>1293.0</ele><time>2026-04-26T13:09:48.369Z</time></trkpt><trkpt lat="44.2450083" lon="10.61864"><ele>1295.5</ele><time>2026-04-26T13:09:49.369Z</time></trkpt><trkpt lat="44.2451383" lon="10.6187817"><ele>1298.0</ele><time>2026-04-26T13:09:50.369Z</time></trkpt><trkpt lat="44.24526" lon="10.6189217"><ele>1298.0</ele><time>2026-04-26T13:09:51.369Z</time></trkpt><trkpt lat="44.2453633" lon="10.61904"><ele>1298.0</ele><time>2026-04-26T13:09:52.37Z</time></trkpt><trkpt lat="44.245445" lon="10.61911"><ele>1298.0</ele><time>2026-04-26T13:09:53.369Z</time></trkpt><trkpt lat="44.2455233" lon="10.61915"><ele>1298.0</ele><time>2026-04-26T13:09:54.369Z</time></trkpt><trkpt lat="44.2456017" lon="10.61917"><ele>1298.0</ele><time>2026-04-26T13:09:55.369Z</time></trkpt><trkpt lat="44.245685" lon="10.61917"><ele>1299.6000000000001</ele><time>2026-04-26T13:09:56.369Z</time></trkpt><trkpt lat="44.245775" lon="10.6191683"><ele>1301.2</ele><time>2026-04-26T13:09:57.369Z</time></trkpt><trkpt lat="44.2458667" lon="10.619155"><ele>1302.8</ele><time>2026-04-26T13:09:58.369Z</time></trkpt><trkpt lat="44.2459683" lon="10.6191383"><ele>1304.4</ele><time>2026-04-26T13:09:59.369Z</time></trkpt><trkpt lat="44.2460717" lon="10.6191017"><ele>1306.0</ele><time>2026-04-26T13:10:00.369Z</time></trkpt><trkpt lat="44.24618" lon="10.61903"><ele>1306.0</ele><time>2026-04-26T13:10:01.369Z</time></trkpt><trkpt lat="44.2462967" lon="10.6189233"><ele>1306.0</ele><time>2026-04-26T13:10:02.369Z</time></trkpt><trkpt lat="44.246435" lon="10.6187883"><ele>1306.0</ele><time>2026-04-26T13:10:03.369Z</time></trkpt><trkpt lat="44.24657" lon="10.6186567"><ele>1305.5</ele><time>2026-04-26T13:10:04.369Z</time></trkpt><trkpt lat="44.2466933" lon="10.6185283"><ele>1305.0</ele><time>2026-04-26T13:10:05.369Z</time></trkpt><trkpt lat="44.2468133" lon="10.6184133"><ele>1304.5</ele><time>2026-04-26T13:10:06.369Z</time></trkpt><trkpt lat="44.246935" lon="10.6183117"><ele>1304.0</ele><time>2026-04-26T13:10:07.369Z</time></trkpt><trkpt lat="44.2470617" lon="10.6182017"><ele>1304.0</ele><time>2026-04-26T13:10:08.369Z</time></trkpt><trkpt lat="44.2471683" lon="10.618105"><ele>1304.0</ele><time>2026-04-26T13:10:09.369Z</time></trkpt><trkpt lat="44.247265" lon="10.6179983"><ele>1304.0</ele><time>2026-04-26T13:10:10.369Z</time></trkpt><trkpt lat="44.24735" lon="10.6178883"><ele>1304.0</ele><time>2026-04-26T13:10:11.369Z</time></trkpt><trkpt lat="44.2474417" lon="10.6177583"><ele>1304.0</ele><time>2026-04-26T13:10:12.37Z</time></trkpt><trkpt lat="44.24754" lon="10.6176283"><ele>1304.0</ele><time>2026-04-26T13:10:13.369Z</time></trkpt><trkpt lat="44.247645" lon="10.617505"><ele>1304.0</ele><time>2026-04-26T13:10:14.369Z</time></trkpt><trkpt lat="44.247745" lon="10.6174033"><ele>1304.0</ele><time>2026-04-26T13:10:15.37Z</time></trkpt><trkpt lat="44.247845" lon="10.61732"><ele>1304.0</ele><time>2026-04-26T13:10:16.369Z</time></trkpt><trkpt lat="44.2479533" lon="10.61725"><ele>1304.0</ele><time>2026-04-26T13:10:17.369Z</time></trkpt><trkpt lat="44.248075" lon="10.61721"><ele>1304.0</ele><time>2026-04-26T13:10:18.369Z</time></trkpt><trkpt lat="44.248215" lon="10.6172"><ele>1304.0</ele><time>2026-04-26T13:10:19.369Z</time></trkpt><trkpt lat="44.2483767" lon="10.617195"><ele>1295.0</ele><time>2026-04-26T13:10:20.369Z</time></trkpt><trkpt lat="44.248535" lon="10.6172033"><ele>1286.0</ele><time>2026-04-26T13:10:21.369Z</time></trkpt><trkpt lat="44.2486867" lon="10.6172183"><ele>1277.0</ele><time>2026-04-26T13:10:22.369Z</time></trkpt><trkpt lat="44.2488283" lon="10.6172333"><ele>1276.0</ele><time>2026-04-26T13:10:23.369Z</time></trkpt><trkpt lat="44.2489633" lon="10.6172317"><ele>1275.0</ele><time>2026-04-26T13:10:24.369Z</time></trkpt><trkpt lat="44.249085" lon="10.6172217"><ele>1274.0</ele><time>2026-04-26T13:10:25.369Z</time></trkpt><trkpt lat="44.249205" lon="10.617205"><ele>1273.0</ele><time>2026-04-26T13:10:26.369Z</time></trkpt><trkpt lat="44.2493217" lon="10.6171567"><ele>1273.0</ele><time>2026-04-26T13:10:27.369Z</time></trkpt><trkpt lat="44.2494417" lon="10.617095"><ele>1273.0</ele><time>2026-04-26T13:10:28.369Z</time></trkpt><trkpt lat="44.24958" lon="10.6170317"><ele>1273.0</ele><time>2026-04-26T13:10:29.37Z</time></trkpt><trkpt lat="44.2497183" lon="10.61696"><ele>1273.0</ele><time>2026-04-26T13:10:30.368Z</time></trkpt><trkpt lat="44.2498683" lon="10.6168833"><ele>1272.6666666666665</ele><time>2026-04-26T13:10:31.368Z</time></trkpt><trkpt lat="44.2500267" lon="10.6167867"><ele>1272.3333333333333</ele><time>2026-04-26T13:10:32.368Z</time></trkpt><trkpt lat="44.25019" lon="10.6167017"><ele>1272.0</ele><time>2026-04-26T13:10:33.368Z</time></trkpt><trkpt lat="44.2503317" lon="10.6166333"><ele>1272.0</ele><time>2026-04-26T13:10:34.368Z</time></trkpt><trkpt lat="44.250465" lon="10.6165633"><ele>1272.0</ele><time>2026-04-26T13:10:35.368Z</time></trkpt><trkpt lat="44.250585" lon="10.6165133"><ele>1272.0</ele><time>2026-04-26T13:10:36.368Z</time></trkpt><trkpt lat="44.2506917" lon="10.6164967"><ele>1272.0</ele><time>2026-04-26T13:10:37.368Z</time></trkpt><trkpt lat="44.25079" lon="10.61651"><ele>1270.0</ele><time>2026-04-26T13:10:38.368Z</time></trkpt><trkpt lat="44.2508917" lon="10.6165717"><ele>1268.0</ele><time>2026-04-26T13:10:39.368Z</time></trkpt><trkpt lat="44.2509933" lon="10.6166567"><ele>1266.0</ele><time>2026-04-26T13:10:40.368Z</time></trkpt><trkpt lat="44.2511067" lon="10.6167367"><ele>1264.0</ele><time>2026-04-26T13:10:41.368Z</time></trkpt><trkpt lat="44.251225" lon="10.6167983"><ele>1264.0</ele><time>2026-04-26T13:10:42.368Z</time></trkpt><trkpt lat="44.2513433" lon="10.61682"><ele>1264.0</ele><time>2026-04-26T13:10:43.368Z</time></trkpt><trkpt lat="44.2514633" lon="10.6168133"><ele>1264.0</ele><time>2026-04-26T13:10:44.368Z</time></trkpt><trkpt lat="44.251585" lon="10.6167867"><ele>1264.0</ele><time>2026-04-26T13:10:45.368Z</time></trkpt><trkpt lat="44.2516967" lon="10.6167567"><ele>1263.8</ele><time>2026-04-26T13:10:46.368Z</time></trkpt><trkpt lat="44.2517967" lon="10.6167517"><ele>1263.6000000000001</ele><time>2026-04-26T13:10:47.368Z</time></trkpt><trkpt lat="44.2519033" lon="10.61678"><ele>1263.4</ele><time>2026-04-26T13:10:48.368Z</time></trkpt><trkpt lat="44.252015" lon="10.6168183"><ele>1263.2</ele><time>2026-04-26T13:10:49.369Z</time></trkpt><trkpt lat="44.25213" lon="10.6168483"><ele>1263.0</ele><time>2026-04-26T13:10:50.368Z</time></trkpt><trkpt lat="44.2522467" lon="10.6168317"><ele>1262.75</ele><time>2026-04-26T13:10:51.369Z</time></trkpt><trkpt lat="44.25237" lon="10.616785"><ele>1262.5</ele><time>2026-04-26T13:10:52.368Z</time></trkpt><trkpt lat="44.2525017" lon="10.6167317"><ele>1262.25</ele><time>2026-04-26T13:10:53.368Z</time></trkpt><trkpt lat="44.2526417" lon="10.6166733"><ele>1262.0</ele><time>2026-04-26T13:10:54.368Z</time></trkpt><trkpt lat="44.2527867" lon="10.6166083"><ele>1262.0</ele><time>2026-04-26T13:10:55.368Z</time></trkpt><trkpt lat="44.25292" lon="10.6165367"><ele>1262.0</ele><time>2026-04-26T13:10:56.368Z</time></trkpt><trkpt lat="44.2530483" lon="10.6164917"><ele>1262.0</ele><time>2026-04-26T13:10:57.368Z</time></trkpt><trkpt lat="44.2531583" lon="10.61648"><ele>1262.0</ele><time>2026-04-26T13:10:58.368Z</time></trkpt><trkpt lat="44.2532717" lon="10.6164933"><ele>1263.0</ele><time>2026-04-26T13:10:59.368Z</time></trkpt><trkpt lat="44.2534033" lon="10.6165317"><ele>1264.0</ele><time>2026-04-26T13:11:00.368Z</time></trkpt><trkpt lat="44.25353" lon="10.6165983"><ele>1265.0</ele><time>2026-04-26T13:11:01.368Z</time></trkpt><trkpt lat="44.2536517" lon="10.61667"><ele>1266.0</ele><time>2026-04-26T13:11:02.368Z</time></trkpt><trkpt lat="44.25378" lon="10.61673"><ele>1266.0</ele><time>2026-04-26T13:11:03.368Z</time></trkpt><trkpt lat="44.2538967" lon="10.6167767"><ele>1266.0</ele><time>2026-04-26T13:11:04.368Z</time></trkpt><trkpt lat="44.2539967" lon="10.6168033"><ele>1266.0</ele><time>2026-04-26T13:11:05.368Z</time></trkpt><trkpt lat="44.25409" lon="10.6167967"><ele>1266.0</ele><time>2026-04-26T13:11:06.368Z</time></trkpt><trkpt lat="44.2541917" lon="10.6167683"><ele>1266.0</ele><time>2026-04-26T13:11:07.368Z</time></trkpt><trkpt lat="44.2543117" lon="10.6167283"><ele>1268.0</ele><time>2026-04-26T13:11:08.368Z</time></trkpt><trkpt lat="44.25445" lon="10.6166633"><ele>1270.0</ele><time>2026-04-26T13:11:09.368Z</time></trkpt><trkpt lat="44.254605" lon="10.6165983"><ele>1272.0</ele><time>2026-04-26T13:11:10.368Z</time></trkpt><trkpt lat="44.2547633" lon="10.61653"><ele>1270.0</ele><time>2026-04-26T13:11:11.369Z</time></trkpt><trkpt lat="44.2549267" lon="10.61644"><ele>1268.0</ele><time>2026-04-26T13:11:12.368Z</time></trkpt><trkpt lat="44.2550917" lon="10.616345"><ele>1266.0</ele><time>2026-04-26T13:11:13.368Z</time></trkpt><trkpt lat="44.2552317" lon="10.6162967"><ele>1266.0</ele><time>2026-04-26T13:11:14.368Z</time></trkpt><trkpt lat="44.2553633" lon="10.616275"><ele>1266.0</ele><time>2026-04-26T13:11:15.368Z</time></trkpt><trkpt lat="44.2554983" lon="10.6162767"><ele>1266.0</ele><time>2026-04-26T13:11:16.368Z</time></trkpt><trkpt lat="44.2556567" lon="10.616305"><ele>1266.0</ele><time>2026-04-26T13:11:17.369Z</time></trkpt><trkpt lat="44.2558167" lon="10.6163383"><ele>1264.3333333333333</ele><time>2026-04-26T13:11:18.368Z</time></trkpt><trkpt lat="44.2559733" lon="10.6163617"><ele>1262.6666666666665</ele><time>2026-04-26T13:11:19.368Z</time></trkpt><trkpt lat="44.2561233" lon="10.61638"><ele>1261.0</ele><time>2026-04-26T13:11:20.368Z</time></trkpt><trkpt lat="44.25627" lon="10.6163933"><ele>1261.0</ele><time>2026-04-26T13:11:21.368Z</time></trkpt><trkpt lat="44.2563983" lon="10.6164017"><ele>1261.0</ele><time>2026-04-26T13:11:22.368Z</time></trkpt><trkpt lat="44.256505" lon="10.61642"><ele>1261.0</ele><time>2026-04-26T13:11:23.368Z</time></trkpt><trkpt lat="44.25659" lon="10.6164783"><ele>1261.0</ele><time>2026-04-26T13:11:24.368Z</time></trkpt><trkpt lat="44.2566517" lon="10.616585"><ele>1261.0</ele><time>2026-04-26T13:11:25.368Z</time></trkpt><trkpt lat="44.2566967" lon="10.6167333"><ele>1260.0</ele><time>2026-04-26T13:11:26.368Z</time></trkpt><trkpt lat="44.25673" lon="10.6169"><ele>1259.0</ele><time>2026-04-26T13:11:27.368Z</time></trkpt><trkpt lat="44.2567583" lon="10.617075"><ele>1258.0</ele><time>2026-04-26T13:11:28.368Z</time></trkpt><trkpt lat="44.2567783" lon="10.6172367"><ele>1257.0</ele><time>2026-04-26T13:11:29.368Z</time></trkpt><trkpt lat="44.256805" lon="10.6173633"><ele>1257.0</ele><time>2026-04-26T13:11:30.368Z</time></trkpt><trkpt lat="44.256855" lon="10.617475"><ele>1257.0</ele><time>2026-04-26T13:11:31.369Z</time></trkpt><trkpt lat="44.2569367" lon="10.6175683"><ele>1257.0</ele><time>2026-04-26T13:11:32.368Z</time></trkpt><trkpt lat="44.2570367" lon="10.617635"><ele>1257.0</ele><time>2026-04-26T13:11:33.368Z</time></trkpt><trkpt lat="44.2571517" lon="10.617685"><ele>1257.0</ele><time>2026-04-26T13:11:34.368Z</time></trkpt><trkpt lat="44.2572833" lon="10.61772"><ele>1256.0</ele><time>2026-04-26T13:11:35.368Z</time></trkpt><trkpt lat="44.257425" lon="10.6177817"><ele>1255.0</ele><time>2026-04-26T13:11:36.368Z</time></trkpt><trkpt lat="44.2575767" lon="10.6178533"><ele>1254.0</ele><time>2026-04-26T13:11:37.368Z</time></trkpt><trkpt lat="44.257745" lon="10.6179233"><ele>1253.3333333333333</ele><time>2026-04-26T13:11:38.368Z</time></trkpt><trkpt lat="44.257935" lon="10.6179883"><ele>1252.6666666666665</ele><time>2026-04-26T13:11:39.368Z</time></trkpt><trkpt lat="44.2581317" lon="10.6180417"><ele>1252.0</ele><time>2026-04-26T13:11:40.368Z</time></trkpt><trkpt lat="44.2583183" lon="10.61809"><ele>1253.6666666666665</ele><time>2026-04-26T13:11:41.368Z</time></trkpt><trkpt lat="44.2584817" lon="10.61814"><ele>1255.3333333333333</ele><time>2026-04-26T13:11:42.368Z</time></trkpt><trkpt lat="44.2586283" lon="10.6182067"><ele>1257.0</ele><time>2026-04-26T13:11:43.368Z</time></trkpt><trkpt lat="44.2587533" lon="10.6183"><ele>1257.0</ele><time>2026-04-26T13:11:44.368Z</time></trkpt><trkpt lat="44.258855" lon="10.6184217"><ele>1257.0</ele><time>2026-04-26T13:11:45.368Z</time></trkpt><trkpt lat="44.2589533" lon="10.618585"><ele>1257.0</ele><time>2026-04-26T13:11:46.368Z</time></trkpt><trkpt lat="44.2590483" lon="10.6187767"><ele>1259.6666666666667</ele><time>2026-04-26T13:11:47.368Z</time></trkpt><trkpt lat="44.2591483" lon="10.6189867"><ele>1262.3333333333335</ele><time>2026-04-26T13:11:48.368Z</time></trkpt><trkpt lat="44.25925" lon="10.6191683"><ele>1265.0</ele><time>2026-04-26T13:11:49.368Z</time></trkpt><trkpt lat="44.2593533" lon="10.619315"><ele>1265.0</ele><time>2026-04-26T13:11:50.368Z</time></trkpt><trkpt lat="44.2594617" lon="10.6194283"><ele>1265.0</ele><time>2026-04-26T13:11:51.368Z</time></trkpt><trkpt lat="44.2595817" lon="10.6195217"><ele>1265.0</ele><time>2026-04-26T13:11:52.368Z</time></trkpt><trkpt lat="44.259705" lon="10.6196067"><ele>1265.0</ele><time>2026-04-26T13:11:53.368Z</time></trkpt><trkpt lat="44.2598267" lon="10.6196917"><ele>1264.75</ele><time>2026-04-26T13:11:54.368Z</time></trkpt><trkpt lat="44.2599367" lon="10.6197733"><ele>1264.5</ele><time>2026-04-26T13:11:55.368Z</time></trkpt><trkpt lat="44.2600417" lon="10.6198517"><ele>1264.25</ele><time>2026-04-26T13:11:56.368Z</time></trkpt><trkpt lat="44.260145" lon="10.6199233"><ele>1264.0</ele><time>2026-04-26T13:11:57.368Z</time></trkpt><trkpt lat="44.2602433" lon="10.6199867"><ele>1264.0</ele><time>2026-04-26T13:11:58.368Z</time></trkpt><trkpt lat="44.2603233" lon="10.6200417"><ele>1264.0</ele><time>2026-04-26T13:11:59.368Z</time></trkpt><trkpt lat="44.2603933" lon="10.620085"><ele>1264.0</ele><time>2026-04-26T13:12:00.368Z</time></trkpt><trkpt lat="44.2604967" lon="10.620115"><ele>1264.0</ele><time>2026-04-26T13:12:02.368Z</time></trkpt><trkpt lat="44.2605917" lon="10.620145"><ele>1264.0</ele><time>2026-04-26T13:12:04.368Z</time></trkpt><trkpt lat="44.2606783" lon="10.6202033"><ele>1263.8333333333333</ele><time>2026-04-26T13:12:06.368Z</time></trkpt><trkpt lat="44.26076" lon="10.6202467"><ele>1263.6666666666665</ele><time>2026-04-26T13:12:08.368Z</time></trkpt><trkpt lat="44.2608267" lon="10.6202617"><ele>1263.5</ele><time>2026-04-26T13:12:10.368Z</time></trkpt><trkpt lat="44.2609033" lon="10.6202533"><ele>1263.3333333333333</ele><time>2026-04-26T13:12:12.368Z</time></trkpt><trkpt lat="44.2610017" lon="10.6202783"><ele>1263.1666666666667</ele><time>2026-04-26T13:12:14.368Z</time></trkpt><trkpt lat="44.2610667" lon="10.6203567"><ele>1263.0</ele><time>2026-04-26T13:12:16.368Z</time></trkpt><trkpt lat="44.2610983" lon="10.6204467"><ele>1262.8</ele><time>2026-04-26T13:12:19.368Z</time></trkpt><trkpt lat="44.2611617" lon="10.6205267"><ele>1262.6</ele><time>2026-04-26T13:14:31.367Z</time></trkpt><trkpt lat="44.2611933" lon="10.6206533"><ele>1262.4</ele><time>2026-04-26T13:14:33.367Z</time></trkpt><trkpt lat="44.2612283" lon="10.62074"><ele>1262.2</ele><time>2026-04-26T13:14:34.367Z</time></trkpt><trkpt lat="44.261285" lon="10.62085"><ele>1262.0</ele><time>2026-04-26T13:14:35.367Z</time></trkpt><trkpt lat="44.26134" lon="10.620975"><ele>1262.0</ele><time>2026-04-26T13:14:36.367Z</time></trkpt><trkpt lat="44.2613883" lon="10.6211167"><ele>1262.0</ele><time>2026-04-26T13:14:37.367Z</time></trkpt><trkpt lat="44.261445" lon="10.62127"><ele>1262.0</ele><time>2026-04-26T13:14:38.367Z</time></trkpt><trkpt lat="44.2614967" lon="10.6214317"><ele>1262.0</ele><time>2026-04-26T13:14:39.367Z</time></trkpt><trkpt lat="44.2615483" lon="10.62159"><ele>1264.8</ele><time>2026-04-26T13:14:40.367Z</time></trkpt><trkpt lat="44.261585" lon="10.6217283"><ele>1267.6</ele><time>2026-04-26T13:14:41.367Z</time></trkpt><trkpt lat="44.2616217" lon="10.6218317"><ele>1270.3999999999999</ele><time>2026-04-26T13:14:42.368Z</time></trkpt><trkpt lat="44.26166" lon="10.6219417"><ele>1273.2</ele><time>2026-04-26T13:14:43.367Z</time></trkpt><trkpt lat="44.2617167" lon="10.62206"><ele>1276.0</ele><time>2026-04-26T13:14:44.367Z</time></trkpt><trkpt lat="44.2617817" lon="10.62217"><ele>1276.0</ele><time>2026-04-26T13:14:45.367Z</time></trkpt><trkpt lat="44.2618467" lon="10.6222633"><ele>1276.0</ele><time>2026-04-26T13:14:46.367Z</time></trkpt><trkpt lat="44.261905" lon="10.6223283"><ele>1276.0</ele><time>2026-04-26T13:14:47.367Z</time></trkpt><trkpt lat="44.26196" lon="10.6223733"><ele>1276.0</ele><time>2026-04-26T13:14:48.367Z</time></trkpt><trkpt lat="44.2620783" lon="10.62241"><ele>1276.0</ele><time>2026-04-26T13:14:50.367Z</time></trkpt><trkpt lat="44.2621433" lon="10.6224183"><ele>1276.0</ele><time>2026-04-26T13:14:51.367Z</time></trkpt><trkpt lat="44.2622217" lon="10.6224017"><ele>1278.5</ele><time>2026-04-26T13:14:52.367Z</time></trkpt><trkpt lat="44.26229" lon="10.6223717"><ele>1281.0</ele><time>2026-04-26T13:14:53.367Z</time></trkpt><trkpt lat="44.2624067" lon="10.6223117"><ele>1283.5</ele><time>2026-04-26T13:14:55.367Z</time></trkpt><trkpt lat="44.262475" lon="10.6222833"><ele>1286.0</ele><time>2026-04-26T13:14:56.367Z</time></trkpt><trkpt lat="44.2625583" lon="10.6222483"><ele>1288.5</ele><time>2026-04-26T13:14:57.367Z</time></trkpt><trkpt lat="44.2626417" lon="10.622235"><ele>1291.0</ele><time>2026-04-26T13:14:58.367Z</time></trkpt><trkpt lat="44.2627117" lon="10.6222267"><ele>1291.0</ele><time>2026-04-26T13:14:59.367Z</time></trkpt><trkpt lat="44.262775" lon="10.622225"><ele>1291.0</ele><time>2026-04-26T13:15:00.367Z</time></trkpt><trkpt lat="44.2628683" lon="10.6223017"><ele>1291.0</ele><time>2026-04-26T13:15:02.367Z</time></trkpt><trkpt lat="44.2629467" lon="10.6224667"><ele>1291.0</ele><time>2026-04-26T13:15:04.367Z</time></trkpt><trkpt lat="44.2629683" lon="10.62258"><ele>1291.0</ele><time>2026-04-26T13:15:05.367Z</time></trkpt><trkpt lat="44.2629867" lon="10.62271"><ele>1292.6666666666665</ele><time>2026-04-26T13:15:06.367Z</time></trkpt><trkpt lat="44.26301" lon="10.62285"><ele>1294.3333333333333</ele><time>2026-04-26T13:15:07.367Z</time></trkpt><trkpt lat="44.26304" lon="10.6229883"><ele>1296.0</ele><time>2026-04-26T13:15:08.367Z</time></trkpt><trkpt lat="44.2630767" lon="10.6231067"><ele>1297.6666666666667</ele><time>2026-04-26T13:15:09.367Z</time></trkpt><trkpt lat="44.2631117" lon="10.6232067"><ele>1299.3333333333335</ele><time>2026-04-26T13:15:10.367Z</time></trkpt><trkpt lat="44.2631283" lon="10.6233017"><ele>1301.0</ele><time>2026-04-26T13:15:11.367Z</time></trkpt><trkpt lat="44.2631367" lon="10.6233933"><ele>1301.0</ele><time>2026-04-26T13:15:12.367Z</time></trkpt><trkpt lat="44.2631267" lon="10.623495"><ele>1301.0</ele><time>2026-04-26T13:15:13.367Z</time></trkpt><trkpt lat="44.263105" lon="10.6235983"><ele>1301.0</ele><time>2026-04-26T13:15:14.367Z</time></trkpt><trkpt lat="44.2630683" lon="10.6237033"><ele>1301.0</ele><time>2026-04-26T13:15:15.367Z</time></trkpt><trkpt lat="44.2630267" lon="10.6238133"><ele>1301.0</ele><time>2026-04-26T13:15:16.367Z</time></trkpt><trkpt lat="44.2629983" lon="10.6239283"><ele>1301.0</ele><time>2026-04-26T13:15:17.367Z</time></trkpt><trkpt lat="44.2629733" lon="10.62405"><ele>1303.1999999999998</ele><time>2026-04-26T13:15:18.367Z</time></trkpt><trkpt lat="44.2629183" lon="10.6242017"><ele>1305.3999999999999</ele><time>2026-04-26T13:15:19.367Z</time></trkpt><trkpt lat="44.2628933" lon="10.624335"><ele>1307.6</ele><time>2026-04-26T13:15:20.367Z</time></trkpt><trkpt lat="44.2628867" lon="10.6244733"><ele>1309.8</ele><time>2026-04-26T13:15:21.367Z</time></trkpt><trkpt lat="44.2628783" lon="10.6246133"><ele>1312.0</ele><time>2026-04-26T13:15:22.367Z</time></trkpt><trkpt lat="44.262885" lon="10.6247283"><ele>1312.25</ele><time>2026-04-26T13:15:23.367Z</time></trkpt><trkpt lat="44.2629117" lon="10.6248567"><ele>1312.5</ele><time>2026-04-26T13:15:24.368Z</time></trkpt><trkpt lat="44.26296" lon="10.6250067"><ele>1312.75</ele><time>2026-04-26T13:15:25.367Z</time></trkpt><trkpt lat="44.2630183" lon="10.625175"><ele>1313.0</ele><time>2026-04-26T13:15:26.367Z</time></trkpt><trkpt lat="44.2630733" lon="10.6253117"><ele>1313.1666666666667</ele><time>2026-04-26T13:15:27.367Z</time></trkpt><trkpt lat="44.2631133" lon="10.6254217"><ele>1313.3333333333335</ele><time>2026-04-26T13:15:28.367Z</time></trkpt><trkpt lat="44.2631383" lon="10.6255333"><ele>1313.5</ele><time>2026-04-26T13:15:29.367Z</time></trkpt><trkpt lat="44.2631533" lon="10.6256583"><ele>1313.6666666666667</ele><time>2026-04-26T13:15:30.367Z</time></trkpt><trkpt lat="44.2631517" lon="10.62578"><ele>1313.8333333333333</ele><time>2026-04-26T13:15:31.367Z</time></trkpt><trkpt lat="44.2631417" lon="10.6259"><ele>1314.0</ele><time>2026-04-26T13:15:32.367Z</time></trkpt><trkpt lat="44.2631167" lon="10.626005"><ele>1314.0</ele><time>2026-04-26T13:15:33.367Z</time></trkpt><trkpt lat="44.26307" lon="10.6261117"><ele>1314.0</ele><time>2026-04-26T13:15:34.367Z</time></trkpt><trkpt lat="44.26301" lon="10.6262017"><ele>1314.0</ele><time>2026-04-26T13:15:35.368Z</time></trkpt><trkpt lat="44.2629717" lon="10.6262917"><ele>1314.0</ele><time>2026-04-26T13:15:36.367Z</time></trkpt><trkpt lat="44.262955" lon="10.626385"><ele>1314.0</ele><time>2026-04-26T13:15:37.367Z</time></trkpt><trkpt lat="44.26301" lon="10.6265417"><ele>1314.0</ele><time>2026-04-26T13:15:39.367Z</time></trkpt><trkpt lat="44.2630583" lon="10.6266017"><ele>1317.4285714285713</ele><time>2026-04-26T13:15:40.367Z</time></trkpt><trkpt lat="44.2631183" lon="10.6266383"><ele>1320.857142857143</ele><time>2026-04-26T13:15:41.367Z</time></trkpt><trkpt lat="44.2631917" lon="10.6266517"><ele>1324.2857142857142</ele><time>2026-04-26T13:15:42.367Z</time></trkpt><trkpt lat="44.2632667" lon="10.62668"><ele>1327.7142857142858</ele><time>2026-04-26T13:15:43.367Z</time></trkpt><trkpt lat="44.26332" lon="10.6267433"><ele>1331.142857142857</ele><time>2026-04-26T13:15:44.367Z</time></trkpt><trkpt lat="44.2633617" lon="10.6268317"><ele>1334.5714285714287</ele><time>2026-04-26T13:15:45.367Z</time></trkpt><trkpt lat="44.2633683" lon="10.6269467"><ele>1338.0</ele><time>2026-04-26T13:15:46.367Z</time></trkpt><trkpt lat="44.2633583" lon="10.6270683"><ele>1339.5</ele><time>2026-04-26T13:15:47.367Z</time></trkpt><trkpt lat="44.2633433" lon="10.627205"><ele>1341.0</ele><time>2026-04-26T13:15:48.367Z</time></trkpt><trkpt lat="44.2633017" lon="10.6273567"><ele>1342.5</ele><time>2026-04-26T13:15:49.367Z</time></trkpt><trkpt lat="44.2632467" lon="10.6275117"><ele>1344.0</ele><time>2026-04-26T13:15:50.367Z</time></trkpt><trkpt lat="44.263195" lon="10.627685"><ele>1345.6</ele><time>2026-04-26T13:15:51.367Z</time></trkpt><trkpt lat="44.2631467" lon="10.6278433"><ele>1347.2</ele><time>2026-04-26T13:15:52.367Z</time></trkpt><trkpt lat="44.2631033" lon="10.6279933"><ele>1348.8</ele><time>2026-04-26T13:15:53.367Z</time></trkpt><trkpt lat="44.2630733" lon="10.6281"><ele>1350.3999999999999</ele><time>2026-04-26T13:15:54.367Z</time></trkpt><trkpt lat="44.2630233" lon="10.62825"><ele>1352.0</ele><time>2026-04-26T13:15:56.367Z</time></trkpt><trkpt lat="44.26299" lon="10.6283433"><ele>1350.1999999999998</ele><time>2026-04-26T13:15:57.367Z</time></trkpt><trkpt lat="44.2629783" lon="10.6284367"><ele>1348.4</ele><time>2026-04-26T13:15:58.367Z</time></trkpt><trkpt lat="44.2629483" lon="10.6286133"><ele>1346.6</ele><time>2026-04-26T13:16:00.367Z</time></trkpt><trkpt lat="44.2628867" lon="10.6287667"><ele>1344.8000000000002</ele><time>2026-04-26T13:16:02.367Z</time></trkpt><trkpt lat="44.2628533" lon="10.6288433"><ele>1343.0</ele><time>2026-04-26T13:16:03.367Z</time></trkpt><trkpt lat="44.2628017" lon="10.6289317"><ele>1343.0</ele><time>2026-04-26T13:16:04.367Z</time></trkpt><trkpt lat="44.26275" lon="10.6290367"><ele>1343.0</ele><time>2026-04-26T13:16:05.367Z</time></trkpt><trkpt lat="44.2626933" lon="10.62911"><ele>1343.0</ele><time>2026-04-26T13:16:06.367Z</time></trkpt><trkpt lat="44.2626483" lon="10.6291817"><ele>1343.0</ele><time>2026-04-26T13:16:07.367Z</time></trkpt><trkpt lat="44.2625883" lon="10.6292967"><ele>1343.0</ele><time>2026-04-26T13:16:09.367Z</time></trkpt><trkpt lat="44.2625317" lon="10.629385"><ele>1343.0</ele><time>2026-04-26T13:16:12.367Z</time></trkpt><trkpt lat="44.2624783" lon="10.6294567"><ele>1342.4</ele><time>2026-04-26T13:16:14.367Z</time></trkpt><trkpt lat="44.2623983" lon="10.6295283"><ele>1341.8000000000002</ele><time>2026-04-26T13:16:16.367Z</time></trkpt><trkpt lat="44.262275" lon="10.6296333"><ele>1341.2</ele><time>2026-04-26T13:16:18.368Z</time></trkpt><trkpt lat="44.2621883" lon="10.62969"><ele>1340.6</ele><time>2026-04-26T13:16:19.367Z</time></trkpt><trkpt lat="44.2621083" lon="10.6297433"><ele>1340.0</ele><time>2026-04-26T13:16:20.367Z</time></trkpt><trkpt lat="44.2620417" lon="10.62979"><ele>1340.0</ele><time>2026-04-26T13:16:21.367Z</time></trkpt><trkpt lat="44.261985" lon="10.6298283"><ele>1340.0</ele><time>2026-04-26T13:16:22.367Z</time></trkpt><trkpt lat="44.261895" lon="10.6299117"><ele>1340.0</ele><time>2026-04-26T13:16:24.367Z</time></trkpt><trkpt lat="44.2618767" lon="10.6300317"><ele>1340.0</ele><time>2026-04-26T13:16:26.367Z</time></trkpt><trkpt lat="44.2619" lon="10.6301933"><ele>1340.0</ele><time>2026-04-26T13:16:28.367Z</time></trkpt><trkpt lat="44.2619467" lon="10.63033"><ele>1338.5</ele><time>2026-04-26T13:16:30.367Z</time></trkpt><trkpt lat="44.26199" lon="10.6304017"><ele>1337.0</ele><time>2026-04-26T13:16:31.367Z</time></trkpt><trkpt lat="44.262035" lon="10.6304633"><ele>1335.5</ele><time>2026-04-26T13:16:32.367Z</time></trkpt><trkpt lat="44.2621" lon="10.6305333"><ele>1334.0</ele><time>2026-04-26T13:16:33.367Z</time></trkpt><trkpt lat="44.26217" lon="10.6305883"><ele>1332.5</ele><time>2026-04-26T13:16:34.367Z</time></trkpt><trkpt lat="44.2622517" lon="10.6306467"><ele>1331.0</ele><time>2026-04-26T13:16:35.367Z</time></trkpt><trkpt lat="44.2623367" lon="10.6307017"><ele>1331.0</ele><time>2026-04-26T13:16:36.367Z</time></trkpt><trkpt lat="44.2624083" lon="10.6307617"><ele>1331.0</ele><time>2026-04-26T13:16:37.368Z</time></trkpt><trkpt lat="44.26248" lon="10.63082"><ele>1331.0</ele><time>2026-04-26T13:16:38.367Z</time></trkpt><trkpt lat="44.262555" lon="10.6308967"><ele>1331.0</ele><time>2026-04-26T13:16:39.367Z</time></trkpt><trkpt lat="44.2626317" lon="10.6309867"><ele>1331.0</ele><time>2026-04-26T13:16:40.367Z</time></trkpt><trkpt lat="44.2627183" lon="10.6310867"><ele>1328.8</ele><time>2026-04-26T13:16:41.367Z</time></trkpt><trkpt lat="44.2628117" lon="10.6312017"><ele>1326.6</ele><time>2026-04-26T13:16:42.368Z</time></trkpt><trkpt lat="44.262895" lon="10.631305"><ele>1324.4</ele><time>2026-04-26T13:16:43.367Z</time></trkpt><trkpt lat="44.2629783" lon="10.6313983"><ele>1322.2</ele><time>2026-04-26T13:16:44.367Z</time></trkpt><trkpt lat="44.2630567" lon="10.6314867"><ele>1320.0</ele><time>2026-04-26T13:16:45.367Z</time></trkpt><trkpt lat="44.263125" lon="10.631565"><ele>1320.0</ele><time>2026-04-26T13:16:46.367Z</time></trkpt><trkpt lat="44.2631883" lon="10.6316433"><ele>1320.0</ele><time>2026-04-26T13:16:47.367Z</time></trkpt><trkpt lat="44.2632433" lon="10.631725"><ele>1320.0</ele><time>2026-04-26T13:16:48.367Z</time></trkpt><trkpt lat="44.263295" lon="10.63181"><ele>1320.0</ele><time>2026-04-26T13:16:49.367Z</time></trkpt><trkpt lat="44.2633517" lon="10.6319167"><ele>1320.0</ele><time>2026-04-26T13:16:50.367Z</time></trkpt><trkpt lat="44.26341" lon="10.6320367"><ele>1320.0</ele><time>2026-04-26T13:16:51.367Z</time></trkpt><trkpt lat="44.2634667" lon="10.632185"><ele>1318.4</ele><time>2026-04-26T13:16:52.366Z</time></trkpt><trkpt lat="44.2635183" lon="10.6323267"><ele>1316.8</ele><time>2026-04-26T13:16:53.366Z</time></trkpt><trkpt lat="44.2635683" lon="10.6324617"><ele>1315.1999999999998</ele><time>2026-04-26T13:16:54.366Z</time></trkpt><trkpt lat="44.2636017" lon="10.63259"><ele>1313.6</ele><time>2026-04-26T13:16:55.366Z</time></trkpt><trkpt lat="44.2636117" lon="10.6327317"><ele>1312.0</ele><time>2026-04-26T13:16:56.366Z</time></trkpt><trkpt lat="44.263615" lon="10.6328733"><ele>1310.8333333333333</ele><time>2026-04-26T13:16:57.366Z</time></trkpt><trkpt lat="44.263625" lon="10.6329833"><ele>1309.6666666666665</ele><time>2026-04-26T13:16:58.366Z</time></trkpt><trkpt lat="44.2636317" lon="10.6330783"><ele>1308.5</ele><time>2026-04-26T13:16:59.366Z</time></trkpt><trkpt lat="44.2636517" lon="10.6331617"><ele>1307.3333333333333</ele><time>2026-04-26T13:17:00.366Z</time></trkpt><trkpt lat="44.2636917" lon="10.6332467"><ele>1306.1666666666667</ele><time>2026-04-26T13:17:01.366Z</time></trkpt><trkpt lat="44.263755" lon="10.633335"><ele>1305.0</ele><time>2026-04-26T13:17:02.366Z</time></trkpt><trkpt lat="44.2638433" lon="10.6334333"><ele>1305.0</ele><time>2026-04-26T13:17:03.366Z</time></trkpt><trkpt lat="44.2639467" lon="10.6335467"><ele>1305.0</ele><time>2026-04-26T13:17:04.366Z</time></trkpt><trkpt lat="44.26406" lon="10.6336533"><ele>1305.0</ele><time>2026-04-26T13:17:05.366Z</time></trkpt><trkpt lat="44.26417" lon="10.63376"><ele>1305.0</ele><time>2026-04-26T13:17:06.366Z</time></trkpt><trkpt lat="44.2642883" lon="10.633875"><ele>1305.25</ele><time>2026-04-26T13:17:07.366Z</time></trkpt><trkpt lat="44.2643967" lon="10.6339967"><ele>1305.5</ele><time>2026-04-26T13:17:08.366Z</time></trkpt><trkpt lat="44.2644933" lon="10.6341117"><ele>1305.75</ele><time>2026-04-26T13:17:09.366Z</time></trkpt><trkpt lat="44.2645833" lon="10.6342517"><ele>1306.0</ele><time>2026-04-26T13:17:10.366Z</time></trkpt><trkpt lat="44.2646617" lon="10.634405"><ele>1304.4</ele><time>2026-04-26T13:17:11.366Z</time></trkpt><trkpt lat="44.2647283" lon="10.6345467"><ele>1302.8</ele><time>2026-04-26T13:17:12.366Z</time></trkpt><trkpt lat="44.2647917" lon="10.6346617"><ele>1301.2</ele><time>2026-04-26T13:17:13.366Z</time></trkpt><trkpt lat="44.264855" lon="10.6347567"><ele>1299.6000000000001</ele><time>2026-04-26T13:17:14.366Z</time></trkpt><trkpt lat="44.2649267" lon="10.63484"><ele>1298.0</ele><time>2026-04-26T13:17:15.366Z</time></trkpt><trkpt lat="44.2650083" lon="10.6349017"><ele>1298.8333333333335</ele><time>2026-04-26T13:17:16.366Z</time></trkpt><trkpt lat="44.2650783" lon="10.634955"><ele>1299.6666666666667</ele><time>2026-04-26T13:17:17.366Z</time></trkpt><trkpt lat="44.2651433" lon="10.635015"><ele>1300.5</ele><time>2026-04-26T13:17:18.367Z</time></trkpt><trkpt lat="44.2651983" lon="10.6350917"><ele>1301.3333333333333</ele><time>2026-04-26T13:17:19.366Z</time></trkpt><trkpt lat="44.26525" lon="10.6351767"><ele>1302.1666666666665</ele><time>2026-04-26T13:17:20.366Z</time></trkpt><trkpt lat="44.2653" lon="10.63527"><ele>1303.0</ele><time>2026-04-26T13:17:21.366Z</time></trkpt><trkpt lat="44.2653367" lon="10.6353983"><ele>1303.0</ele><time>2026-04-26T13:17:22.366Z</time></trkpt><trkpt lat="44.2653583" lon="10.6355417"><ele>1303.0</ele><time>2026-04-26T13:17:23.366Z</time></trkpt><trkpt lat="44.2653683" lon="10.6356567"><ele>1303.0</ele><time>2026-04-26T13:17:24.367Z</time></trkpt><trkpt lat="44.2653733" lon="10.635775"><ele>1303.0</ele><time>2026-04-26T13:17:25.366Z</time></trkpt><trkpt lat="44.2653867" lon="10.6359117"><ele>1303.0</ele><time>2026-04-26T13:17:26.366Z</time></trkpt><trkpt lat="44.2653983" lon="10.6360733"><ele>1300.75</ele><time>2026-04-26T13:17:27.366Z</time></trkpt><trkpt lat="44.265415" lon="10.63625"><ele>1298.5</ele><time>2026-04-26T13:17:28.366Z</time></trkpt><trkpt lat="44.265435" lon="10.6364267"><ele>1296.25</ele><time>2026-04-26T13:17:29.366Z</time></trkpt><trkpt lat="44.26546" lon="10.636585"><ele>1294.0</ele><time>2026-04-26T13:17:30.366Z</time></trkpt><trkpt lat="44.2654867" lon="10.636735"><ele>1294.0</ele><time>2026-04-26T13:17:31.367Z</time></trkpt><trkpt lat="44.2655" lon="10.636875"><ele>1294.0</ele><time>2026-04-26T13:17:32.366Z</time></trkpt><trkpt lat="44.265495" lon="10.63699"><ele>1294.0</ele><time>2026-04-26T13:17:33.366Z</time></trkpt><trkpt lat="44.2655033" lon="10.63708"><ele>1294.0</ele><time>2026-04-26T13:17:34.366Z</time></trkpt><trkpt lat="44.2655667" lon="10.6372283"><ele>1294.0</ele><time>2026-04-26T13:17:36.367Z</time></trkpt><trkpt lat="44.2656117" lon="10.6373033"><ele>1294.0</ele><time>2026-04-26T13:17:37.366Z</time></trkpt><trkpt lat="44.2656683" lon="10.6373833"><ele>1297.6</ele><time>2026-04-26T13:17:38.366Z</time></trkpt><trkpt lat="44.2657417" lon="10.63746"><ele>1301.2</ele><time>2026-04-26T13:17:39.366Z</time></trkpt><trkpt lat="44.2658283" lon="10.6375317"><ele>1304.8</ele><time>2026-04-26T13:17:40.366Z</time></trkpt><trkpt lat="44.265925" lon="10.6375883"><ele>1308.3999999999999</ele><time>2026-04-26T13:17:41.366Z</time></trkpt><trkpt lat="44.26602" lon="10.63763"><ele>1312.0</ele><time>2026-04-26T13:17:42.366Z</time></trkpt><trkpt lat="44.2661083" lon="10.63766"><ele>1312.0</ele><time>2026-04-26T13:17:43.366Z</time></trkpt><trkpt lat="44.2661933" lon="10.6376917"><ele>1312.0</ele><time>2026-04-26T13:17:44.366Z</time></trkpt><trkpt lat="44.26627" lon="10.6377367"><ele>1312.0</ele><time>2026-04-26T13:17:45.366Z</time></trkpt><trkpt lat="44.2663317" lon="10.637805"><ele>1312.0</ele><time>2026-04-26T13:17:46.366Z</time></trkpt><trkpt lat="44.266375" lon="10.6378733"><ele>1312.0</ele><time>2026-04-26T13:17:47.366Z</time></trkpt><trkpt lat="44.266425" lon="10.63797"><ele>1312.0</ele><time>2026-04-26T13:17:48.366Z</time></trkpt><trkpt lat="44.2664533" lon="10.6380817"><ele>1315.0</ele><time>2026-04-26T13:17:49.366Z</time></trkpt><trkpt lat="44.26646" lon="10.6382117"><ele>1318.0</ele><time>2026-04-26T13:17:50.366Z</time></trkpt><trkpt lat="44.266465" lon="10.6383533"><ele>1321.0</ele><time>2026-04-26T13:17:51.366Z</time></trkpt><trkpt lat="44.266475" lon="10.638475"><ele>1324.0</ele><time>2026-04-26T13:17:52.366Z</time></trkpt><trkpt lat="44.2664817" lon="10.6385883"><ele>1327.0</ele><time>2026-04-26T13:17:53.366Z</time></trkpt><trkpt lat="44.2664867" lon="10.6386883"><ele>1330.0</ele><time>2026-04-26T13:17:54.366Z</time></trkpt><trkpt lat="44.26653" lon="10.6388417"><ele>1330.0</ele><time>2026-04-26T13:17:56.366Z</time></trkpt><trkpt lat="44.2665667" lon="10.6389217"><ele>1330.0</ele><time>2026-04-26T13:17:57.366Z</time></trkpt><trkpt lat="44.2666167" lon="10.6390167"><ele>1330.0</ele><time>2026-04-26T13:17:58.366Z</time></trkpt><trkpt lat="44.2666683" lon="10.639105"><ele>1330.0</ele><time>2026-04-26T13:17:59.366Z</time></trkpt><trkpt lat="44.2667167" lon="10.6392233"><ele>1330.0</ele><time>2026-04-26T13:18:01.366Z</time></trkpt><trkpt lat="44.2667167" lon="10.6393533"><ele>1330.0</ele><time>2026-04-26T13:18:03.366Z</time></trkpt><trkpt lat="44.2666817" lon="10.6395033"><ele>1329.5</ele><time>2026-04-26T13:18:05.366Z</time></trkpt><trkpt lat="44.2666433" lon="10.6396083"><ele>1329.0</ele><time>2026-04-26T13:18:06.366Z</time></trkpt><trkpt lat="44.26661" lon="10.6397517"><ele>1328.5</ele><time>2026-04-26T13:18:07.366Z</time></trkpt><trkpt lat="44.26656" lon="10.639915"><ele>1328.0</ele><time>2026-04-26T13:18:08.366Z</time></trkpt><trkpt lat="44.2665067" lon="10.6400867"><ele>1328.0</ele><time>2026-04-26T13:18:09.366Z</time></trkpt><trkpt lat="44.2664567" lon="10.6402283"><ele>1328.0</ele><time>2026-04-26T13:18:10.366Z</time></trkpt><trkpt lat="44.2664017" lon="10.640355"><ele>1328.0</ele><time>2026-04-26T13:18:11.366Z</time></trkpt><trkpt lat="44.2663383" lon="10.6404867"><ele>1328.0</ele><time>2026-04-26T13:18:12.367Z</time></trkpt><trkpt lat="44.266285" lon="10.6406233"><ele>1328.0</ele><time>2026-04-26T13:18:13.366Z</time></trkpt><trkpt lat="44.2662433" lon="10.6407383"><ele>1327.5</ele><time>2026-04-26T13:18:14.366Z</time></trkpt><trkpt lat="44.2662183" lon="10.640845"><ele>1327.0</ele><time>2026-04-26T13:18:15.366Z</time></trkpt><trkpt lat="44.26621" lon="10.6409467"><ele>1326.5</ele><time>2026-04-26T13:18:16.366Z</time></trkpt><trkpt lat="44.266215" lon="10.641045"><ele>1326.0</ele><time>2026-04-26T13:18:17.366Z</time></trkpt><trkpt lat="44.2662367" lon="10.64115"><ele>1325.5</ele><time>2026-04-26T13:18:18.366Z</time></trkpt><trkpt lat="44.2662667" lon="10.64125"><ele>1325.0</ele><time>2026-04-26T13:18:19.366Z</time></trkpt><trkpt lat="44.2662967" lon="10.6413433"><ele>1325.0</ele><time>2026-04-26T13:18:20.366Z</time></trkpt><trkpt lat="44.2663383" lon="10.6414417"><ele>1325.0</ele><time>2026-04-26T13:18:21.366Z</time></trkpt><trkpt lat="44.2663883" lon="10.6415533"><ele>1325.0</ele><time>2026-04-26T13:18:22.366Z</time></trkpt><trkpt lat="44.2664333" lon="10.641665"><ele>1325.0</ele><time>2026-04-26T13:18:23.366Z</time></trkpt><trkpt lat="44.2664683" lon="10.6417783"><ele>1325.0</ele><time>2026-04-26T13:18:24.366Z</time></trkpt><trkpt lat="44.2665" lon="10.6418867"><ele>1325.0</ele><time>2026-04-26T13:18:25.366Z</time></trkpt><trkpt lat="44.2665467" lon="10.6420067"><ele>1327.5</ele><time>2026-04-26T13:18:26.366Z</time></trkpt><trkpt lat="44.2665967" lon="10.6421433"><ele>1330.0</ele><time>2026-04-26T13:18:27.366Z</time></trkpt><trkpt lat="44.2666583" lon="10.6422833"><ele>1332.5</ele><time>2026-04-26T13:18:28.366Z</time></trkpt><trkpt lat="44.266715" lon="10.642425"><ele>1335.0</ele><time>2026-04-26T13:18:29.366Z</time></trkpt><trkpt lat="44.2667667" lon="10.642575"><ele>1335.0</ele><time>2026-04-26T13:18:30.366Z</time></trkpt><trkpt lat="44.2667967" lon="10.6427267"><ele>1335.0</ele><time>2026-04-26T13:18:31.366Z</time></trkpt><trkpt lat="44.26682" lon="10.6428933"><ele>1335.0</ele><time>2026-04-26T13:18:32.366Z</time></trkpt><trkpt lat="44.266825" lon="10.6430683"><ele>1335.0</ele><time>2026-04-26T13:18:33.366Z</time></trkpt><trkpt lat="44.2668217" lon="10.643255"><ele>1335.0</ele><time>2026-04-26T13:18:34.366Z</time></trkpt><trkpt lat="44.2668033" lon="10.6434383"><ele>1335.0</ele><time>2026-04-26T13:18:35.366Z</time></trkpt><trkpt lat="44.2667783" lon="10.6436"><ele>1335.0</ele><time>2026-04-26T13:18:36.366Z</time></trkpt><trkpt lat="44.2667467" lon="10.6437617"><ele>1335.0</ele><time>2026-04-26T13:18:37.366Z</time></trkpt><trkpt lat="44.26672" lon="10.6439067"><ele>1335.6</ele><time>2026-04-26T13:18:38.366Z</time></trkpt><trkpt lat="44.266695" lon="10.6440233"><ele>1336.2</ele><time>2026-04-26T13:18:39.366Z</time></trkpt><trkpt lat="44.266685" lon="10.64412"><ele>1336.8000000000002</ele><time>2026-04-26T13:18:40.366Z</time></trkpt><trkpt lat="44.26668" lon="10.6442117"><ele>1337.4</ele><time>2026-04-26T13:18:41.366Z</time></trkpt><trkpt lat="44.26674" lon="10.64436"><ele>1338.0</ele><time>2026-04-26T13:18:43.367Z</time></trkpt><trkpt lat="44.26684" lon="10.644485"><ele>1333.6666666666667</ele><time>2026-04-26T13:18:44.366Z</time></trkpt><trkpt lat="44.2669517" lon="10.6446333"><ele>1329.3333333333335</ele><time>2026-04-26T13:18:45.366Z</time></trkpt><trkpt lat="44.267065" lon="10.6447967"><ele>1325.0</ele><time>2026-04-26T13:18:46.366Z</time></trkpt><trkpt lat="44.2671517" lon="10.6449433"><ele>1325.0</ele><time>2026-04-26T13:18:47.366Z</time></trkpt><trkpt lat="44.2672267" lon="10.6450883"><ele>1325.0</ele><time>2026-04-26T13:18:48.367Z</time></trkpt><trkpt lat="44.2673017" lon="10.6452067"><ele>1325.0</ele><time>2026-04-26T13:18:49.366Z</time></trkpt><trkpt lat="44.267365" lon="10.6452717"><ele>1325.0</ele><time>2026-04-26T13:18:50.366Z</time></trkpt><trkpt lat="44.2674233" lon="10.6453083"><ele>1325.0</ele><time>2026-04-26T13:18:51.366Z</time></trkpt><trkpt lat="44.26749" lon="10.6453317"><ele>1325.3333333333335</ele><time>2026-04-26T13:18:52.366Z</time></trkpt><trkpt lat="44.2675617" lon="10.6453283"><ele>1325.6666666666667</ele><time>2026-04-26T13:18:53.366Z</time></trkpt><trkpt lat="44.2676317" lon="10.6453533"><ele>1326.0</ele><time>2026-04-26T13:18:54.366Z</time></trkpt><trkpt lat="44.2676967" lon="10.64541"><ele>1326.3333333333333</ele><time>2026-04-26T13:18:55.366Z</time></trkpt><trkpt lat="44.2677667" lon="10.645485"><ele>1326.6666666666665</ele><time>2026-04-26T13:18:56.366Z</time></trkpt><trkpt lat="44.2678533" lon="10.6455517"><ele>1327.0</ele><time>2026-04-26T13:18:57.366Z</time></trkpt><trkpt lat="44.26795" lon="10.645625"><ele>1327.0</ele><time>2026-04-26T13:18:58.366Z</time></trkpt><trkpt lat="44.2680467" lon="10.64569"><ele>1327.0</ele><time>2026-04-26T13:18:59.366Z</time></trkpt><trkpt lat="44.26813" lon="10.64575"><ele>1327.0</ele><time>2026-04-26T13:19:00.366Z</time></trkpt><trkpt lat="44.2682017" lon="10.6458167"><ele>1327.0</ele><time>2026-04-26T13:19:01.367Z</time></trkpt><trkpt lat="44.2682667" lon="10.6458983"><ele>1327.0</ele><time>2026-04-26T13:19:02.366Z</time></trkpt><trkpt lat="44.2683283" lon="10.646"><ele>1328.1999999999998</ele><time>2026-04-26T13:19:03.366Z</time></trkpt><trkpt lat="44.268385" lon="10.64612"><ele>1329.4</ele><time>2026-04-26T13:19:04.366Z</time></trkpt><trkpt lat="44.268435" lon="10.646235"><ele>1330.6</ele><time>2026-04-26T13:19:05.367Z</time></trkpt><trkpt lat="44.2684733" lon="10.64636"><ele>1331.8000000000002</ele><time>2026-04-26T13:19:06.366Z</time></trkpt><trkpt lat="44.2685117" lon="10.646475"><ele>1333.0</ele><time>2026-04-26T13:19:07.366Z</time></trkpt><trkpt lat="44.2685383" lon="10.6465783"><ele>1333.0</ele><time>2026-04-26T13:19:08.366Z</time></trkpt><trkpt lat="44.268575" lon="10.6466633"><ele>1333.0</ele><time>2026-04-26T13:19:09.366Z</time></trkpt><trkpt lat="44.2686083" lon="10.646825"><ele>1333.0</ele><time>2026-04-26T13:19:11.366Z</time></trkpt><trkpt lat="44.26861" lon="10.6469283"><ele>1333.0</ele><time>2026-04-26T13:19:12.366Z</time></trkpt><trkpt lat="44.2685917" lon="10.6470583"><ele>1333.0</ele><time>2026-04-26T13:19:13.366Z</time></trkpt><trkpt lat="44.2685767" lon="10.6471933"><ele>1331.8333333333333</ele><time>2026-04-26T13:19:14.366Z</time></trkpt><trkpt lat="44.2685733" lon="10.6473217"><ele>1330.6666666666665</ele><time>2026-04-26T13:19:15.366Z</time></trkpt><trkpt lat="44.2685767" lon="10.6474383"><ele>1329.5</ele><time>2026-04-26T13:19:16.366Z</time></trkpt><trkpt lat="44.2685883" lon="10.6475467"><ele>1328.3333333333333</ele><time>2026-04-26T13:19:17.366Z</time></trkpt><trkpt lat="44.2686033" lon="10.6476567"><ele>1327.1666666666667</ele><time>2026-04-26T13:19:18.366Z</time></trkpt><trkpt lat="44.2686183" lon="10.647765"><ele>1326.0</ele><time>2026-04-26T13:19:19.366Z</time></trkpt><trkpt lat="44.268625" lon="10.6478767"><ele>1325.4</ele><time>2026-04-26T13:19:20.366Z</time></trkpt><trkpt lat="44.2686117" lon="10.6479917"><ele>1324.8</ele><time>2026-04-26T13:19:21.366Z</time></trkpt><trkpt lat="44.2685933" lon="10.6481133"><ele>1324.2</ele><time>2026-04-26T13:19:22.366Z</time></trkpt><trkpt lat="44.2685683" lon="10.64821"><ele>1323.6000000000001</ele><time>2026-04-26T13:19:23.366Z</time></trkpt><trkpt lat="44.2685433" lon="10.6483633"><ele>1323.0</ele><time>2026-04-26T13:19:25.366Z</time></trkpt><trkpt lat="44.2685567" lon="10.64851"><ele>1323.0</ele><time>2026-04-26T13:19:27.366Z</time></trkpt><trkpt lat="44.268585" lon="10.64859"><ele>1323.0</ele><time>2026-04-26T13:19:28.366Z</time></trkpt><trkpt lat="44.268625" lon="10.648665"><ele>1323.0</ele><time>2026-04-26T13:19:29.366Z</time></trkpt><trkpt lat="44.2686783" lon="10.6487467"><ele>1323.0</ele><time>2026-04-26T13:19:30.366Z</time></trkpt><trkpt lat="44.2687533" lon="10.6488583"><ele>1323.0</ele><time>2026-04-26T13:19:31.366Z</time></trkpt><trkpt lat="44.268825" lon="10.64898"><ele>1323.0</ele><time>2026-04-26T13:19:32.366Z</time></trkpt><trkpt lat="44.2688867" lon="10.6490683"><ele>1323.6666666666667</ele><time>2026-04-26T13:19:33.366Z</time></trkpt><trkpt lat="44.268945" lon="10.6491483"><ele>1324.3333333333333</ele><time>2026-04-26T13:19:34.366Z</time></trkpt><trkpt lat="44.26899" lon="10.6492383"><ele>1325.0</ele><time>2026-04-26T13:19:35.366Z</time></trkpt><trkpt lat="44.2690183" lon="10.64933"><ele>1325.6666666666665</ele><time>2026-04-26T13:19:36.366Z</time></trkpt><trkpt lat="44.26903" lon="10.6494267"><ele>1326.3333333333333</ele><time>2026-04-26T13:19:37.366Z</time></trkpt><trkpt lat="44.2690317" lon="10.649545"><ele>1327.0</ele><time>2026-04-26T13:19:38.366Z</time></trkpt><trkpt lat="44.2690367" lon="10.6496733"><ele>1327.0</ele><time>2026-04-26T13:19:39.366Z</time></trkpt><trkpt lat="44.2690367" lon="10.649815"><ele>1327.0</ele><time>2026-04-26T13:19:40.366Z</time></trkpt><trkpt lat="44.2690417" lon="10.649965"><ele>1327.0</ele><time>2026-04-26T13:19:41.366Z</time></trkpt><trkpt lat="44.2690683" lon="10.6500983"><ele>1327.0</ele><time>2026-04-26T13:19:42.366Z</time></trkpt><trkpt lat="44.2690983" lon="10.6502167"><ele>1327.0</ele><time>2026-04-26T13:19:43.366Z</time></trkpt><trkpt lat="44.26913" lon="10.6503083"><ele>1326.5714285714287</ele><time>2026-04-26T13:19:44.366Z</time></trkpt><trkpt lat="44.2691733" lon="10.6503867"><ele>1326.142857142857</ele><time>2026-04-26T13:19:45.366Z</time></trkpt><trkpt lat="44.2692183" lon="10.6504583"><ele>1325.7142857142858</ele><time>2026-04-26T13:19:46.366Z</time></trkpt><trkpt lat="44.26926" lon="10.6505333"><ele>1325.2857142857142</ele><time>2026-04-26T13:19:47.366Z</time></trkpt><trkpt lat="44.2692933" lon="10.6506083"><ele>1324.857142857143</ele><time>2026-04-26T13:19:48.366Z</time></trkpt><trkpt lat="44.2693017" lon="10.6506967"><ele>1324.4285714285716</ele><time>2026-04-26T13:19:49.366Z</time></trkpt><trkpt lat="44.2693117" lon="10.6508033"><ele>1324.0</ele><time>2026-04-26T13:19:50.366Z</time></trkpt><trkpt lat="44.2693117" lon="10.6509183"><ele>1324.0</ele><time>2026-04-26T13:19:51.366Z</time></trkpt><trkpt lat="44.2693083" lon="10.6510333"><ele>1324.0</ele><time>2026-04-26T13:19:52.366Z</time></trkpt><trkpt lat="44.2693167" lon="10.65114"><ele>1324.0</ele><time>2026-04-26T13:19:53.366Z</time></trkpt><trkpt lat="44.26933" lon="10.6512567"><ele>1324.0</ele><time>2026-04-26T13:19:54.367Z</time></trkpt><trkpt lat="44.2693533" lon="10.6513733"><ele>1324.0</ele><time>2026-04-26T13:19:55.367Z</time></trkpt><trkpt lat="44.2693933" lon="10.6515133"><ele>1324.0</ele><time>2026-04-26T13:19:56.366Z</time></trkpt><trkpt lat="44.26944" lon="10.651655"><ele>1323.0</ele><time>2026-04-26T13:19:57.366Z</time></trkpt><trkpt lat="44.2694867" lon="10.6517983"><ele>1322.0</ele><time>2026-04-26T13:19:58.366Z</time></trkpt><trkpt lat="44.269525" lon="10.651925"><ele>1321.0</ele><time>2026-04-26T13:19:59.366Z</time></trkpt><trkpt lat="44.2695567" lon="10.652045"><ele>1320.0</ele><time>2026-04-26T13:20:00.365Z</time></trkpt><trkpt lat="44.26958" lon="10.6521567"><ele>1319.0</ele><time>2026-04-26T13:20:01.365Z</time></trkpt><trkpt lat="44.269595" lon="10.6522717"><ele>1316.8333333333335</ele><time>2026-04-26T13:20:02.365Z</time></trkpt><trkpt lat="44.269605" lon="10.6523933"><ele>1314.6666666666667</ele><time>2026-04-26T13:20:03.365Z</time></trkpt><trkpt lat="44.269605" lon="10.65252"><ele>1312.5</ele><time>2026-04-26T13:20:04.365Z</time></trkpt><trkpt lat="44.2695867" lon="10.6526433"><ele>1310.3333333333333</ele><time>2026-04-26T13:20:05.365Z</time></trkpt><trkpt lat="44.2695617" lon="10.6527433"><ele>1308.1666666666665</ele><time>2026-04-26T13:20:06.365Z</time></trkpt><trkpt lat="44.2695283" lon="10.6528367"><ele>1306.0</ele><time>2026-04-26T13:20:07.365Z</time></trkpt><trkpt lat="44.269475" lon="10.652935"><ele>1305.8333333333333</ele><time>2026-04-26T13:20:09.365Z</time></trkpt><trkpt lat="44.26945" lon="10.6530367"><ele>1305.6666666666665</ele><time>2026-04-26T13:56:38.354Z</time></trkpt><trkpt lat="44.2694017" lon="10.6531683"><ele>1305.5</ele><time>2026-04-26T13:56:40.354Z</time></trkpt><trkpt lat="44.2693833" lon="10.65327"><ele>1305.3333333333333</ele><time>2026-04-26T13:56:41.354Z</time></trkpt><trkpt lat="44.2693767" lon="10.6533767"><ele>1305.1666666666667</ele><time>2026-04-26T13:56:42.355Z</time></trkpt><trkpt lat="44.2693867" lon="10.6534883"><ele>1305.0</ele><time>2026-04-26T13:56:43.355Z</time></trkpt><trkpt lat="44.2693967" lon="10.65363"><ele>1305.6</ele><time>2026-04-26T13:56:44.354Z</time></trkpt><trkpt lat="44.26941" lon="10.6537667"><ele>1306.2</ele><time>2026-04-26T13:56:45.354Z</time></trkpt><trkpt lat="44.2694083" lon="10.65391"><ele>1306.8000000000002</ele><time>2026-04-26T13:56:46.354Z</time></trkpt><trkpt lat="44.2694033" lon="10.65406"><ele>1307.4</ele><time>2026-04-26T13:56:47.355Z</time></trkpt><trkpt lat="44.2693767" lon="10.65422"><ele>1308.0</ele><time>2026-04-26T13:56:48.354Z</time></trkpt><trkpt lat="44.2693383" lon="10.6543967"><ele>1308.75</ele><time>2026-04-26T13:56:49.355Z</time></trkpt><trkpt lat="44.26928" lon="10.6545467"><ele>1309.5</ele><time>2026-04-26T13:56:50.355Z</time></trkpt><trkpt lat="44.269255" lon="10.6547183"><ele>1310.25</ele><time>2026-04-26T13:56:51.354Z</time></trkpt><trkpt lat="44.2692317" lon="10.6548833"><ele>1311.0</ele><time>2026-04-26T13:56:52.354Z</time></trkpt><trkpt lat="44.2692133" lon="10.6550633"><ele>1311.0</ele><time>2026-04-26T13:56:53.354Z</time></trkpt><trkpt lat="44.2692" lon="10.655245"><ele>1311.0</ele><time>2026-04-26T13:56:54.354Z</time></trkpt><trkpt lat="44.2691683" lon="10.6554067"><ele>1311.0</ele><time>2026-04-26T13:56:55.354Z</time></trkpt><trkpt lat="44.2691217" lon="10.6555583"><ele>1311.0</ele><time>2026-04-26T13:56:56.354Z</time></trkpt><trkpt lat="44.26907" lon="10.6556933"><ele>1312.6</ele><time>2026-04-26T13:56:57.354Z</time></trkpt><trkpt lat="44.2690017" lon="10.6558283"><ele>1314.1999999999998</ele><time>2026-04-26T13:56:58.354Z</time></trkpt><trkpt lat="44.2689183" lon="10.6559383"><ele>1315.8000000000002</ele><time>2026-04-26T13:56:59.354Z</time></trkpt><trkpt lat="44.2688367" lon="10.6560233"><ele>1317.4</ele><time>2026-04-26T13:57:00.353Z</time></trkpt><trkpt lat="44.2687617" lon="10.6560717"><ele>1319.0</ele><time>2026-04-26T13:57:01.353Z</time></trkpt><trkpt lat="44.2686983" lon="10.6561033"><ele>1317.3333333333335</ele><time>2026-04-26T13:57:02.353Z</time></trkpt><trkpt lat="44.2686283" lon="10.6561483"><ele>1315.6666666666667</ele><time>2026-04-26T13:57:04.353Z</time></trkpt><trkpt lat="44.26859" lon="10.656235"><ele>1314.0</ele><time>2026-04-26T13:57:07.353Z</time></trkpt><trkpt lat="44.2685583" lon="10.6563133"><ele>1312.3333333333333</ele><time>2026-04-26T13:57:09.353Z</time></trkpt><trkpt lat="44.2685317" lon="10.6564517"><ele>1310.6666666666665</ele><time>2026-04-26T13:57:11.353Z</time></trkpt><trkpt lat="44.2685283" lon="10.65656"><ele>1309.0</ele><time>2026-04-26T13:57:12.353Z</time></trkpt><trkpt lat="44.26853" lon="10.6566883"><ele>1309.0</ele><time>2026-04-26T13:57:13.353Z</time></trkpt><trkpt lat="44.268535" lon="10.6568217"><ele>1309.0</ele><time>2026-04-26T13:57:14.353Z</time></trkpt><trkpt lat="44.2685433" lon="10.6569433"><ele>1309.0</ele><time>2026-04-26T13:57:15.353Z</time></trkpt><trkpt lat="44.268555" lon="10.65705"><ele>1309.0</ele><time>2026-04-26T13:57:16.353Z</time></trkpt><trkpt lat="44.268555" lon="10.6572"><ele>1309.0</ele><time>2026-04-26T13:57:18.353Z</time></trkpt><trkpt lat="44.268535" lon="10.657365"><ele>1309.5</ele><time>2026-04-26T13:57:20.353Z</time></trkpt><trkpt lat="44.2685117" lon="10.6574667"><ele>1310.0</ele><time>2026-04-26T13:57:21.353Z</time></trkpt><trkpt lat="44.2684717" lon="10.65756"><ele>1310.5</ele><time>2026-04-26T13:57:22.353Z</time></trkpt><trkpt lat="44.268425" lon="10.6576617"><ele>1311.0</ele><time>2026-04-26T13:57:23.354Z</time></trkpt><trkpt lat="44.26838" lon="10.6577617"><ele>1311.5</ele><time>2026-04-26T13:57:24.353Z</time></trkpt><trkpt lat="44.26834" lon="10.6578483"><ele>1312.0</ele><time>2026-04-26T13:57:25.353Z</time></trkpt><trkpt lat="44.26831" lon="10.65794"><ele>1312.6666666666665</ele><time>2026-04-26T13:57:26.353Z</time></trkpt><trkpt lat="44.2682917" lon="10.6580283"><ele>1313.3333333333333</ele><time>2026-04-26T13:57:27.353Z</time></trkpt><trkpt lat="44.2682883" lon="10.6581267"><ele>1314.0</ele><time>2026-04-26T13:57:28.353Z</time></trkpt><trkpt lat="44.2682917" lon="10.6582367"><ele>1314.6666666666667</ele><time>2026-04-26T13:57:29.353Z</time></trkpt><trkpt lat="44.2682883" lon="10.658335"><ele>1315.3333333333335</ele><time>2026-04-26T13:57:30.353Z</time></trkpt><trkpt lat="44.2682767" lon="10.6584233"><ele>1316.0</ele><time>2026-04-26T13:57:31.353Z</time></trkpt><trkpt lat="44.2682617" lon="10.6585767"><ele>1314.4</ele><time>2026-04-26T13:57:33.353Z</time></trkpt><trkpt lat="44.2682533" lon="10.658735"><ele>1312.8</ele><time>2026-04-26T13:57:35.354Z</time></trkpt><trkpt lat="44.2682283" lon="10.658935"><ele>1311.2</ele><time>2026-04-26T13:57:37.353Z</time></trkpt><trkpt lat="44.26822" lon="10.659065"><ele>1309.6000000000001</ele><time>2026-04-26T13:57:38.353Z</time></trkpt><trkpt lat="44.268225" lon="10.6591767"><ele>1308.0</ele><time>2026-04-26T13:57:39.353Z</time></trkpt><trkpt lat="44.2682383" lon="10.6592767"><ele>1308.0</ele><time>2026-04-26T13:57:40.353Z</time></trkpt><trkpt lat="44.268265" lon="10.6593617"><ele>1308.0</ele><time>2026-04-26T13:57:41.353Z</time></trkpt><trkpt lat="44.2683067" lon="10.6594517"><ele>1308.0</ele><time>2026-04-26T13:57:42.353Z</time></trkpt><trkpt lat="44.268355" lon="10.65951"><ele>1308.0</ele><time>2026-04-26T13:57:43.353Z</time></trkpt><trkpt lat="44.26845" lon="10.6595933"><ele>1308.0</ele><time>2026-04-26T13:57:45.353Z</time></trkpt><trkpt lat="44.26854" lon="10.6596467"><ele>1308.0</ele><time>2026-04-26T13:57:47.353Z</time></trkpt><trkpt lat="44.268615" lon="10.6597367"><ele>1306.0</ele><time>2026-04-26T13:57:49.353Z</time></trkpt><trkpt lat="44.26863" lon="10.6599033"><ele>1304.0</ele><time>2026-04-26T13:57:51.354Z</time></trkpt><trkpt lat="44.2686283" lon="10.6600033"><ele>1302.0</ele><time>2026-04-26T13:57:52.353Z</time></trkpt><trkpt lat="44.2686" lon="10.660115"><ele>1300.0</ele><time>2026-04-26T13:57:54.353Z</time></trkpt><trkpt lat="44.2685767" lon="10.6602233"><ele>1298.0</ele><time>2026-04-26T13:57:57.353Z</time></trkpt><trkpt lat="44.26859" lon="10.6603583"><ele>1297.2</ele><time>2026-04-26T13:57:59.353Z</time></trkpt><trkpt lat="44.2686183" lon="10.6604417"><ele>1296.4</ele><time>2026-04-26T13:58:00.353Z</time></trkpt><trkpt lat="44.2686567" lon="10.6605983"><ele>1295.6000000000001</ele><time>2026-04-26T13:58:02.353Z</time></trkpt><trkpt lat="44.2686917" lon="10.6607283"><ele>1294.8000000000002</ele><time>2026-04-26T13:58:04.353Z</time></trkpt><trkpt lat="44.2687017" lon="10.6608267"><ele>1294.0</ele><time>2026-04-26T13:58:07.353Z</time></trkpt><trkpt lat="44.2686633" lon="10.6609533"><ele>1294.0</ele><time>2026-04-26T13:58:11.353Z</time></trkpt><trkpt lat="44.2686367" lon="10.66109"><ele>1294.0</ele><time>2026-04-26T13:58:13.353Z</time></trkpt><trkpt lat="44.268645" lon="10.6611783"><ele>1294.0</ele><time>2026-04-26T13:58:14.353Z</time></trkpt><trkpt lat="44.268645" lon="10.6612717"><ele>1294.0</ele><time>2026-04-26T13:58:15.353Z</time></trkpt><trkpt lat="44.26865" lon="10.6613767"><ele>1294.0</ele><time>2026-04-26T13:58:16.353Z</time></trkpt><trkpt lat="44.26866" lon="10.66148"><ele>1294.0</ele><time>2026-04-26T13:58:17.353Z</time></trkpt><trkpt lat="44.268685" lon="10.66162"><ele>1293.5</ele><time>2026-04-26T13:58:18.353Z</time></trkpt><trkpt lat="44.26871" lon="10.661745"><ele>1293.0</ele><time>2026-04-26T13:58:19.353Z</time></trkpt><trkpt lat="44.26873" lon="10.6618567"><ele>1292.5</ele><time>2026-04-26T13:58:20.353Z</time></trkpt><trkpt lat="44.26876" lon="10.661965"><ele>1292.0</ele><time>2026-04-26T13:58:21.353Z</time></trkpt><trkpt lat="44.2687867" lon="10.6620633"><ele>1291.5</ele><time>2026-04-26T13:58:22.354Z</time></trkpt><trkpt lat="44.2688117" lon="10.66215"><ele>1291.0</ele><time>2026-04-26T13:58:23.353Z</time></trkpt><trkpt lat="44.2688417" lon="10.6623083"><ele>1288.0</ele><time>2026-04-26T13:58:25.353Z</time></trkpt><trkpt lat="44.268835" lon="10.6624567"><ele>1285.0</ele><time>2026-04-26T13:58:27.353Z</time></trkpt><trkpt lat="44.26881" lon="10.6625833"><ele>1282.0</ele><time>2026-04-26T13:58:29.353Z</time></trkpt><trkpt lat="44.2687833" lon="10.6626867"><ele>1279.0</ele><time>2026-04-26T13:58:31.353Z</time></trkpt><trkpt lat="44.2687867" lon="10.66278"><ele>1276.0</ele><time>2026-04-26T13:58:33.353Z</time></trkpt><trkpt lat="44.2688067" lon="10.662885"><ele>1273.0</ele><time>2026-04-26T13:58:35.353Z</time></trkpt><trkpt lat="44.2688233" lon="10.6629933"><ele>1270.2857142857142</ele><time>2026-04-26T13:58:37.353Z</time></trkpt><trkpt lat="44.268835" lon="10.6630983"><ele>1267.5714285714287</ele><time>2026-04-26T13:58:39.353Z</time></trkpt><trkpt lat="44.2688567" lon="10.6631917"><ele>1264.857142857143</ele><time>2026-04-26T13:58:41.353Z</time></trkpt><trkpt lat="44.268905" lon="10.6632683"><ele>1262.142857142857</ele><time>2026-04-26T13:58:43.353Z</time></trkpt><trkpt lat="44.2689733" lon="10.6633083"><ele>1259.4285714285713</ele><time>2026-04-26T13:58:45.353Z</time></trkpt><trkpt lat="44.2690417" lon="10.6633117"><ele>1256.7142857142858</ele><time>2026-04-26T13:58:47.353Z</time></trkpt><trkpt lat="44.2691033" lon="10.66328"><ele>1254.0</ele><time>2026-04-26T13:58:49.353Z</time></trkpt><trkpt lat="44.2691583" lon="10.6632233"><ele>1254.0</ele><time>2026-04-26T13:58:51.353Z</time></trkpt><trkpt lat="44.2692117" lon="10.66316"><ele>1254.0</ele><time>2026-04-26T13:58:53.353Z</time></trkpt><trkpt lat="44.269265" lon="10.6630733"><ele>1254.0</ele><time>2026-04-26T13:58:55.353Z</time></trkpt><trkpt lat="44.2693283" lon="10.6629683"><ele>1254.0</ele><time>2026-04-26T13:58:57.353Z</time></trkpt><trkpt lat="44.269415" lon="10.6628433"><ele>1254.0</ele><time>2026-04-26T13:58:59.353Z</time></trkpt><trkpt lat="44.2695067" lon="10.6627317"><ele>1253.2</ele><time>2026-04-26T13:59:01.353Z</time></trkpt><trkpt lat="44.2695717" lon="10.6626317"><ele>1252.4</ele><time>2026-04-26T13:59:03.353Z</time></trkpt><trkpt lat="44.2696433" lon="10.662555"><ele>1251.6</ele><time>2026-04-26T13:59:05.353Z</time></trkpt><trkpt lat="44.26973" lon="10.6625367"><ele>1250.8</ele><time>2026-04-26T13:59:07.353Z</time></trkpt><trkpt lat="44.26982" lon="10.6625733"><ele>1250.0</ele><time>2026-04-26T13:59:09.353Z</time></trkpt><trkpt lat="44.26992" lon="10.6626417"><ele>1250.0</ele><time>2026-04-26T13:59:11.353Z</time></trkpt><trkpt lat="44.2699983" lon="10.6627517"><ele>1250.0</ele><time>2026-04-26T13:59:22.353Z</time></trkpt><trkpt lat="44.27001" lon="10.662845"><ele>1250.0</ele><time>2026-04-26T13:59:24.354Z</time></trkpt><trkpt lat="44.2700367" lon="10.662995"><ele>1250.0</ele><time>2026-04-26T13:59:26.353Z</time></trkpt><trkpt lat="44.2700717" lon="10.6630833"><ele>1250.0</ele><time>2026-04-26T13:59:27.353Z</time></trkpt><trkpt lat="44.2701017" lon="10.6631667"><ele>1250.0</ele><time>2026-04-26T13:59:28.353Z</time></trkpt><trkpt lat="44.2701133" lon="10.6632567"><ele>1247.5</ele><time>2026-04-26T13:59:29.353Z</time></trkpt><trkpt lat="44.2701433" lon="10.6633483"><ele>1245.0</ele><time>2026-04-26T13:59:30.353Z</time></trkpt><trkpt lat="44.2701917" lon="10.6634467"><ele>1242.5</ele><time>2026-04-26T13:59:31.353Z</time></trkpt><trkpt lat="44.2702417" lon="10.663555"><ele>1240.0</ele><time>2026-04-26T13:59:32.353Z</time></trkpt><trkpt lat="44.27028" lon="10.6636667"><ele>1237.5</ele><time>2026-04-26T13:59:33.353Z</time></trkpt><trkpt lat="44.2703133" lon="10.6637817"><ele>1235.0</ele><time>2026-04-26T13:59:34.353Z</time></trkpt><trkpt lat="44.2703483" lon="10.66389"><ele>1232.6666666666667</ele><time>2026-04-26T13:59:35.353Z</time></trkpt><trkpt lat="44.2703717" lon="10.6639917"><ele>1230.3333333333335</ele><time>2026-04-26T13:59:36.353Z</time></trkpt><trkpt lat="44.2703917" lon="10.6640767"><ele>1228.0</ele><time>2026-04-26T13:59:37.353Z</time></trkpt><trkpt lat="44.270435" lon="10.6642267"><ele>1225.6666666666667</ele><time>2026-04-26T13:59:39.353Z</time></trkpt><trkpt lat="44.2704467" lon="10.6643617"><ele>1223.3333333333333</ele><time>2026-04-26T13:59:41.353Z</time></trkpt><trkpt lat="44.270445" lon="10.6644767"><ele>1221.0</ele><time>2026-04-26T13:59:43.353Z</time></trkpt><trkpt lat="44.27049" lon="10.6645383"><ele>1220.0</ele><time>2026-04-26T13:59:45.353Z</time></trkpt><trkpt lat="44.2705733" lon="10.6644917"><ele>1219.0</ele><time>2026-04-26T13:59:48.353Z</time></trkpt><trkpt lat="44.27061" lon="10.664415"><ele>1218.0</ele><time>2026-04-26T13:59:50.353Z</time></trkpt><trkpt lat="44.2706817" lon="10.664355"><ele>1217.0</ele><time>2026-04-26T13:59:53.353Z</time></trkpt><trkpt lat="44.2707817" lon="10.6644033"><ele>1216.0</ele><time>2026-04-26T13:59:56.354Z</time></trkpt><trkpt lat="44.27087" lon="10.6645167"><ele>1216.0</ele><time>2026-04-26T13:59:58.353Z</time></trkpt><trkpt lat="44.2709067" lon="10.6646017"><ele>1216.0</ele><time>2026-04-26T13:59:59.353Z</time></trkpt><trkpt lat="44.2709483" lon="10.664735"><ele>1216.0</ele><time>2026-04-26T14:00:00.353Z</time></trkpt><trkpt lat="44.2709833" lon="10.66489"><ele>1216.0</ele><time>2026-04-26T14:00:01.353Z</time></trkpt><trkpt lat="44.27101" lon="10.6650533"><ele>1216.0</ele><time>2026-04-26T14:00:02.353Z</time></trkpt><trkpt lat="44.27103" lon="10.6652017"><ele>1213.2</ele><time>2026-04-26T14:00:03.353Z</time></trkpt><trkpt lat="44.2710483" lon="10.6653433"><ele>1210.3999999999999</ele><time>2026-04-26T14:00:04.353Z</time></trkpt><trkpt lat="44.2710633" lon="10.665475"><ele>1207.6</ele><time>2026-04-26T14:00:05.353Z</time></trkpt><trkpt lat="44.27108" lon="10.665605"><ele>1204.8</ele><time>2026-04-26T14:00:06.353Z</time></trkpt><trkpt lat="44.2710933" lon="10.6657233"><ele>1202.0</ele><time>2026-04-26T14:00:07.353Z</time></trkpt><trkpt lat="44.2711067" lon="10.6658333"><ele>1202.0</ele><time>2026-04-26T14:00:08.354Z</time></trkpt><trkpt lat="44.271115" lon="10.6659383"><ele>1202.0</ele><time>2026-04-26T14:00:09.353Z</time></trkpt><trkpt lat="44.271125" lon="10.666045"><ele>1202.0</ele><time>2026-04-26T14:00:10.353Z</time></trkpt><trkpt lat="44.2711483" lon="10.66614"><ele>1202.0</ele><time>2026-04-26T14:00:11.354Z</time></trkpt><trkpt lat="44.2711917" lon="10.66624"><ele>1202.0</ele><time>2026-04-26T14:00:12.353Z</time></trkpt><trkpt lat="44.2712333" lon="10.6663433"><ele>1202.0</ele><time>2026-04-26T14:00:13.353Z</time></trkpt><trkpt lat="44.2712717" lon="10.6664567"><ele>1199.857142857143</ele><time>2026-04-26T14:00:14.353Z</time></trkpt><trkpt lat="44.2713" lon="10.6665483"><ele>1197.7142857142858</ele><time>2026-04-26T14:00:15.352Z</time></trkpt><trkpt lat="44.2713217" lon="10.6666483"><ele>1195.5714285714287</ele><time>2026-04-26T14:00:16.352Z</time></trkpt><trkpt lat="44.2713367" lon="10.6667383"><ele>1193.4285714285716</ele><time>2026-04-26T14:00:17.352Z</time></trkpt><trkpt lat="44.2713383" lon="10.6668283"><ele>1191.2857142857142</ele><time>2026-04-26T14:00:18.352Z</time></trkpt><trkpt lat="44.2713183" lon="10.666915"><ele>1189.1428571428573</ele><time>2026-04-26T14:00:19.352Z</time></trkpt><trkpt lat="44.2712783" lon="10.6669867"><ele>1187.0</ele><time>2026-04-26T14:00:20.352Z</time></trkpt><trkpt lat="44.2712533" lon="10.6671167"><ele>1186.5</ele><time>2026-04-26T14:00:22.352Z</time></trkpt><trkpt lat="44.2712883" lon="10.6672383"><ele>1186.0</ele><time>2026-04-26T14:00:24.352Z</time></trkpt><trkpt lat="44.271335" lon="10.6673"><ele>1185.5</ele><time>2026-04-26T14:00:25.352Z</time></trkpt><trkpt lat="44.2713967" lon="10.667375"><ele>1185.0</ele><time>2026-04-26T14:00:26.352Z</time></trkpt><trkpt lat="44.2714733" lon="10.667455"><ele>1184.5</ele><time>2026-04-26T14:00:27.352Z</time></trkpt><trkpt lat="44.2715517" lon="10.6675417"><ele>1184.0</ele><time>2026-04-26T14:00:28.352Z</time></trkpt><trkpt lat="44.2716267" lon="10.6676483"><ele>1184.0</ele><time>2026-04-26T14:00:29.352Z</time></trkpt><trkpt lat="44.2717017" lon="10.6677683"><ele>1184.0</ele><time>2026-04-26T14:00:30.352Z</time></trkpt><trkpt lat="44.271775" lon="10.667895"><ele>1184.0</ele><time>2026-04-26T14:00:31.352Z</time></trkpt><trkpt lat="44.2718483" lon="10.6680233"><ele>1184.0</ele><time>2026-04-26T14:00:32.352Z</time></trkpt><trkpt lat="44.2719283" lon="10.6681767"><ele>1181.75</ele><time>2026-04-26T14:00:33.352Z</time></trkpt><trkpt lat="44.2719933" lon="10.6683417"><ele>1179.5</ele><time>2026-04-26T14:00:34.352Z</time></trkpt><trkpt lat="44.27205" lon="10.6685083"><ele>1177.25</ele><time>2026-04-26T14:00:35.352Z</time></trkpt><trkpt lat="44.2720983" lon="10.6686467"><ele>1175.0</ele><time>2026-04-26T14:00:36.353Z</time></trkpt><trkpt lat="44.2721317" lon="10.6687683"><ele>1174.0</ele><time>2026-04-26T14:00:37.352Z</time></trkpt><trkpt lat="44.272165" lon="10.6688633"><ele>1173.0</ele><time>2026-04-26T14:00:38.352Z</time></trkpt><trkpt lat="44.2722067" lon="10.6690167"><ele>1172.0</ele><time>2026-04-26T14:00:40.352Z</time></trkpt><trkpt lat="44.2722317" lon="10.669105"><ele>1171.0</ele><time>2026-04-26T14:00:42.352Z</time></trkpt><trkpt lat="44.2721633" lon="10.669085"><ele>1170.0</ele><time>2026-04-26T14:00:49.352Z</time></trkpt><trkpt lat="44.2720517" lon="10.6690383"><ele>1169.0</ele><time>2026-04-26T14:01:30.352Z</time></trkpt><trkpt lat="44.2720083" lon="10.66892"><ele>1169.0</ele><time>2026-04-26T14:01:49.352Z</time></trkpt><trkpt lat="44.2719683" lon="10.66885"><ele>1169.0</ele><time>2026-04-26T14:01:50.352Z</time></trkpt><trkpt lat="44.2719167" lon="10.6687717"><ele>1169.0</ele><time>2026-04-26T14:01:51.352Z</time></trkpt><trkpt lat="44.2718633" lon="10.6687"><ele>1169.0</ele><time>2026-04-26T14:01:52.352Z</time></trkpt><trkpt lat="44.27181" lon="10.668635"><ele>1169.0</ele><time>2026-04-26T14:01:53.352Z</time></trkpt><trkpt lat="44.27176" lon="10.6685783"><ele>1169.0</ele><time>2026-04-26T14:01:54.352Z</time></trkpt><trkpt lat="44.27168" lon="10.6684883"><ele>1169.0</ele><time>2026-04-26T14:01:56.352Z</time></trkpt><trkpt lat="44.2716117" lon="10.668445"><ele>1169.0</ele><time>2026-04-26T14:01:58.352Z</time></trkpt><trkpt lat="44.2715717" lon="10.6685583"><ele>1169.0</ele><time>2026-04-26T14:02:01.352Z</time></trkpt><trkpt lat="44.2716067" lon="10.6686583"><ele>1169.0</ele><time>2026-04-26T14:02:02.352Z</time></trkpt><trkpt lat="44.2716417" lon="10.6687767"><ele>1169.0</ele><time>2026-04-26T14:02:03.353Z</time></trkpt><trkpt lat="44.27168" lon="10.6689267"><ele>1169.0</ele><time>2026-04-26T14:02:04.352Z</time></trkpt><trkpt lat="44.2717233" lon="10.6691117"><ele>1169.0</ele><time>2026-04-26T14:02:05.352Z</time></trkpt><trkpt lat="44.2717683" lon="10.6693233"><ele>1169.0</ele><time>2026-04-26T14:02:06.352Z</time></trkpt><trkpt lat="44.2718033" lon="10.6695283"><ele>1169.0</ele><time>2026-04-26T14:02:07.352Z</time></trkpt><trkpt lat="44.2718317" lon="10.6697333"><ele>1167.5</ele><time>2026-04-26T14:02:08.352Z</time></trkpt><trkpt lat="44.2718483" lon="10.6699317"><ele>1166.0</ele><time>2026-04-26T14:02:09.352Z</time></trkpt><trkpt lat="44.2718683" lon="10.670125"><ele>1164.5</ele><time>2026-04-26T14:02:10.352Z</time></trkpt><trkpt lat="44.27188" lon="10.670315"><ele>1163.0</ele><time>2026-04-26T14:02:11.352Z</time></trkpt><trkpt lat="44.2718667" lon="10.6705117"><ele>1162.5</ele><time>2026-04-26T14:02:12.352Z</time></trkpt><trkpt lat="44.2718617" lon="10.6707117"><ele>1162.0</ele><time>2026-04-26T14:02:13.352Z</time></trkpt><trkpt lat="44.2718467" lon="10.6708983"><ele>1161.5</ele><time>2026-04-26T14:02:14.352Z</time></trkpt><trkpt lat="44.27183" lon="10.67108"><ele>1161.0</ele><time>2026-04-26T14:02:15.352Z</time></trkpt><trkpt lat="44.2718333" lon="10.6712517"><ele>1160.75</ele><time>2026-04-26T14:02:16.352Z</time></trkpt><trkpt lat="44.2718417" lon="10.671425"><ele>1160.5</ele><time>2026-04-26T14:02:17.352Z</time></trkpt><trkpt lat="44.271855" lon="10.6715933"><ele>1160.25</ele><time>2026-04-26T14:02:18.352Z</time></trkpt><trkpt lat="44.2718783" lon="10.6717683"><ele>1160.0</ele><time>2026-04-26T14:02:19.352Z</time></trkpt><trkpt lat="44.2719133" lon="10.6719433"><ele>1158.25</ele><time>2026-04-26T14:02:20.352Z</time></trkpt><trkpt lat="44.27195" lon="10.6721183"><ele>1156.5</ele><time>2026-04-26T14:02:21.352Z</time></trkpt><trkpt lat="44.2719783" lon="10.67229"><ele>1154.75</ele><time>2026-04-26T14:02:22.353Z</time></trkpt><trkpt lat="44.2719983" lon="10.6724467"><ele>1153.0</ele><time>2026-04-26T14:02:23.352Z</time></trkpt><trkpt lat="44.2720233" lon="10.6726333"><ele>1152.0</ele><time>2026-04-26T14:02:24.352Z</time></trkpt><trkpt lat="44.272045" lon="10.672795"><ele>1151.0</ele><time>2026-04-26T14:02:25.352Z</time></trkpt><trkpt lat="44.2720717" lon="10.6729733"><ele>1150.0</ele><time>2026-04-26T14:02:26.352Z</time></trkpt><trkpt lat="44.2720983" lon="10.6731633"><ele>1149.0</ele><time>2026-04-26T14:02:27.352Z</time></trkpt><trkpt lat="44.2721183" lon="10.6733533"><ele>1149.0</ele><time>2026-04-26T14:02:28.352Z</time></trkpt><trkpt lat="44.272135" lon="10.673555"><ele>1149.0</ele><time>2026-04-26T14:02:29.352Z</time></trkpt><trkpt lat="44.2721433" lon="10.67375"><ele>1149.0</ele><time>2026-04-26T14:02:30.352Z</time></trkpt><trkpt lat="44.2721533" lon="10.6739367"><ele>1149.0</ele><time>2026-04-26T14:02:31.352Z</time></trkpt><trkpt lat="44.2721633" lon="10.6741283"><ele>1147.25</ele><time>2026-04-26T14:02:32.352Z</time></trkpt><trkpt lat="44.2721817" lon="10.6743117"><ele>1145.5</ele><time>2026-04-26T14:02:33.352Z</time></trkpt><trkpt lat="44.2722017" lon="10.6744983"><ele>1143.75</ele><time>2026-04-26T14:02:34.352Z</time></trkpt><trkpt lat="44.2722133" lon="10.6746883"><ele>1142.0</ele><time>2026-04-26T14:02:35.352Z</time></trkpt><trkpt lat="44.27223" lon="10.67488"><ele>1142.0</ele><time>2026-04-26T14:02:36.352Z</time></trkpt><trkpt lat="44.27225" lon="10.675075"><ele>1142.0</ele><time>2026-04-26T14:02:37.352Z</time></trkpt><trkpt lat="44.2722533" lon="10.6752767"><ele>1142.0</ele><time>2026-04-26T14:02:38.352Z</time></trkpt><trkpt lat="44.272235" lon="10.6754617"><ele>1142.0</ele><time>2026-04-26T14:02:39.352Z</time></trkpt><trkpt lat="44.2721883" lon="10.6756467"><ele>1143.5</ele><time>2026-04-26T14:02:40.352Z</time></trkpt><trkpt lat="44.272125" lon="10.6758083"><ele>1145.0</ele><time>2026-04-26T14:02:41.352Z</time></trkpt><trkpt lat="44.272035" lon="10.6759633"><ele>1146.5</ele><time>2026-04-26T14:02:42.352Z</time></trkpt><trkpt lat="44.2719517" lon="10.676125"><ele>1148.0</ele><time>2026-04-26T14:02:43.352Z</time></trkpt><trkpt lat="44.27188" lon="10.6762983"><ele>1149.75</ele><time>2026-04-26T14:02:44.352Z</time></trkpt><trkpt lat="44.2718133" lon="10.6764867"><ele>1151.5</ele><time>2026-04-26T14:02:45.352Z</time></trkpt><trkpt lat="44.2717583" lon="10.6766867"><ele>1153.25</ele><time>2026-04-26T14:02:46.352Z</time></trkpt><trkpt lat="44.2717133" lon="10.67688"><ele>1155.0</ele><time>2026-04-26T14:02:47.352Z</time></trkpt><trkpt lat="44.27166" lon="10.6770517"><ele>1155.5</ele><time>2026-04-26T14:02:48.352Z</time></trkpt><trkpt lat="44.2716317" lon="10.6772383"><ele>1156.0</ele><time>2026-04-26T14:02:49.352Z</time></trkpt><trkpt lat="44.27163" lon="10.6774417"><ele>1156.5</ele><time>2026-04-26T14:02:50.353Z</time></trkpt><trkpt lat="44.2716267" lon="10.6776383"><ele>1157.0</ele><time>2026-04-26T14:02:51.352Z</time></trkpt><trkpt lat="44.2716467" lon="10.6778483"><ele>1157.3333333333335</ele><time>2026-04-26T14:02:52.352Z</time></trkpt><trkpt lat="44.2716583" lon="10.6780733"><ele>1157.6666666666667</ele><time>2026-04-26T14:02:53.352Z</time></trkpt><trkpt lat="44.271665" lon="10.6783"><ele>1158.0</ele><time>2026-04-26T14:02:54.352Z</time></trkpt><trkpt lat="44.271665" lon="10.6785267"><ele>1157.3333333333333</ele><time>2026-04-26T14:02:55.352Z</time></trkpt><trkpt lat="44.2716617" lon="10.6787583"><ele>1156.6666666666665</ele><time>2026-04-26T14:02:56.352Z</time></trkpt><trkpt lat="44.2716583" lon="10.6789883"><ele>1156.0</ele><time>2026-04-26T14:02:57.352Z</time></trkpt><trkpt lat="44.271655" lon="10.6792117"><ele>1156.0</ele><time>2026-04-26T14:02:58.352Z</time></trkpt><trkpt lat="44.271655" lon="10.67943"><ele>1156.0</ele><time>2026-04-26T14:02:59.352Z</time></trkpt><trkpt lat="44.27166" lon="10.679645"><ele>1156.0</ele><time>2026-04-26T14:03:00.352Z</time></trkpt><trkpt lat="44.27167" lon="10.679845"><ele>1154.75</ele><time>2026-04-26T14:03:01.352Z</time></trkpt><trkpt lat="44.2716783" lon="10.68004"><ele>1153.5</ele><time>2026-04-26T14:03:02.352Z</time></trkpt><trkpt lat="44.27172" lon="10.680235"><ele>1152.25</ele><time>2026-04-26T14:03:03.352Z</time></trkpt><trkpt lat="44.271785" lon="10.680425"><ele>1151.0</ele><time>2026-04-26T14:03:04.352Z</time></trkpt><trkpt lat="44.2718633" lon="10.680605"><ele>1148.3333333333335</ele><time>2026-04-26T14:03:05.353Z</time></trkpt><trkpt lat="44.27194" lon="10.68079"><ele>1145.6666666666667</ele><time>2026-04-26T14:03:06.352Z</time></trkpt><trkpt lat="44.2720017" lon="10.6809817"><ele>1143.0</ele><time>2026-04-26T14:03:07.352Z</time></trkpt><trkpt lat="44.2720633" lon="10.6811817"><ele>1139.3333333333333</ele><time>2026-04-26T14:03:08.352Z</time></trkpt><trkpt lat="44.27212" lon="10.68138"><ele>1135.6666666666665</ele><time>2026-04-26T14:03:09.352Z</time></trkpt><trkpt lat="44.272165" lon="10.6815883"><ele>1132.0</ele><time>2026-04-26T14:03:10.352Z</time></trkpt><trkpt lat="44.2722067" lon="10.681795"><ele>1129.0</ele><time>2026-04-26T14:03:11.352Z</time></trkpt><trkpt lat="44.272255" lon="10.68201"><ele>1126.0</ele><time>2026-04-26T14:03:12.353Z</time></trkpt><trkpt lat="44.2723017" lon="10.682215"><ele>1123.0</ele><time>2026-04-26T14:03:13.352Z</time></trkpt><trkpt lat="44.2723567" lon="10.6824067"><ele>1128.5</ele><time>2026-04-26T14:03:14.352Z</time></trkpt><trkpt lat="44.2723883" lon="10.6825883"><ele>1134.0</ele><time>2026-04-26T14:03:15.352Z</time></trkpt><trkpt lat="44.2724267" lon="10.6827617"><ele>1139.5</ele><time>2026-04-26T14:03:16.352Z</time></trkpt><trkpt lat="44.2724467" lon="10.6829317"><ele>1145.0</ele><time>2026-04-26T14:03:17.352Z</time></trkpt><trkpt lat="44.27242" lon="10.68311"><ele>1145.0</ele><time>2026-04-26T14:03:18.352Z</time></trkpt><trkpt lat="44.27237" lon="10.68328"><ele>1145.0</ele><time>2026-04-26T14:03:19.352Z</time></trkpt><trkpt lat="44.27233" lon="10.6834683"><ele>1145.0</ele><time>2026-04-26T14:03:20.352Z</time></trkpt><trkpt lat="44.27229" lon="10.6836583"><ele>1145.0</ele><time>2026-04-26T14:03:21.352Z</time></trkpt><trkpt lat="44.2722783" lon="10.6838367"><ele>1143.0</ele><time>2026-04-26T14:03:22.352Z</time></trkpt><trkpt lat="44.2722917" lon="10.6840067"><ele>1141.0</ele><time>2026-04-26T14:03:23.352Z</time></trkpt><trkpt lat="44.2723233" lon="10.6841617"><ele>1139.0</ele><time>2026-04-26T14:03:24.352Z</time></trkpt><trkpt lat="44.2723733" lon="10.6843217"><ele>1137.0</ele><time>2026-04-26T14:03:25.353Z</time></trkpt><trkpt lat="44.2724483" lon="10.6844567"><ele>1133.5</ele><time>2026-04-26T14:03:26.352Z</time></trkpt><trkpt lat="44.27255" lon="10.6845283"><ele>1130.0</ele><time>2026-04-26T14:03:27.352Z</time></trkpt><trkpt lat="44.272655" lon="10.6845767"><ele>1126.5</ele><time>2026-04-26T14:03:28.352Z</time></trkpt><trkpt lat="44.2728033" lon="10.6846133"><ele>1123.0</ele><time>2026-04-26T14:03:29.352Z</time></trkpt><trkpt lat="44.272955" lon="10.6846367"><ele>1125.0</ele><time>2026-04-26T14:03:30.352Z</time></trkpt><trkpt lat="44.2731117" lon="10.684675"><ele>1127.0</ele><time>2026-04-26T14:03:31.351Z</time></trkpt><trkpt lat="44.2732683" lon="10.6847033"><ele>1129.0</ele><time>2026-04-26T14:03:32.352Z</time></trkpt><trkpt lat="44.2734183" lon="10.68473"><ele>1129.0</ele><time>2026-04-26T14:03:33.351Z</time></trkpt><trkpt lat="44.2735617" lon="10.6847817"><ele>1129.0</ele><time>2026-04-26T14:03:34.351Z</time></trkpt><trkpt lat="44.273695" lon="10.68489"><ele>1129.0</ele><time>2026-04-26T14:03:35.351Z</time></trkpt><trkpt lat="44.2738117" lon="10.68502"><ele>1129.0</ele><time>2026-04-26T14:03:36.351Z</time></trkpt><trkpt lat="44.2739317" lon="10.68513"><ele>1129.0</ele><time>2026-04-26T14:03:37.351Z</time></trkpt><trkpt lat="44.274075" lon="10.68523"><ele>1129.0</ele><time>2026-04-26T14:03:38.351Z</time></trkpt><trkpt lat="44.2742217" lon="10.6852833"><ele>1124.3333333333333</ele><time>2026-04-26T14:03:39.351Z</time></trkpt><trkpt lat="44.2743767" lon="10.6853317"><ele>1119.6666666666667</ele><time>2026-04-26T14:03:40.351Z</time></trkpt><trkpt lat="44.2745333" lon="10.685375"><ele>1115.0</ele><time>2026-04-26T14:03:41.352Z</time></trkpt><trkpt lat="44.274685" lon="10.68541"><ele>1116.75</ele><time>2026-04-26T14:03:42.351Z</time></trkpt><trkpt lat="44.2748333" lon="10.6854533"><ele>1118.5</ele><time>2026-04-26T14:03:43.351Z</time></trkpt><trkpt lat="44.2749767" lon="10.6855217"><ele>1120.25</ele><time>2026-04-26T14:03:44.351Z</time></trkpt><trkpt lat="44.2750967" lon="10.6855633"><ele>1122.0</ele><time>2026-04-26T14:03:45.351Z</time></trkpt><trkpt lat="44.27521" lon="10.685565"><ele>1122.0</ele><time>2026-04-26T14:03:46.351Z</time></trkpt><trkpt lat="44.2753267" lon="10.6855117"><ele>1122.0</ele><time>2026-04-26T14:03:47.352Z</time></trkpt><trkpt lat="44.2754467" lon="10.6854367"><ele>1122.0</ele><time>2026-04-26T14:03:48.351Z</time></trkpt><trkpt lat="44.2755733" lon="10.6853517"><ele>1122.0</ele><time>2026-04-26T14:03:49.351Z</time></trkpt><trkpt lat="44.2757017" lon="10.6852633"><ele>1127.75</ele><time>2026-04-26T14:03:50.351Z</time></trkpt><trkpt lat="44.2758283" lon="10.6851883"><ele>1133.5</ele><time>2026-04-26T14:03:51.351Z</time></trkpt><trkpt lat="44.2759617" lon="10.6851433"><ele>1139.25</ele><time>2026-04-26T14:03:52.351Z</time></trkpt><trkpt lat="44.2760983" lon="10.68512"><ele>1145.0</ele><time>2026-04-26T14:03:53.351Z</time></trkpt><trkpt lat="44.27624" lon="10.6851217"><ele>1145.0</ele><time>2026-04-26T14:03:54.351Z</time></trkpt><trkpt lat="44.2763883" lon="10.68513"><ele>1145.0</ele><time>2026-04-26T14:03:55.351Z</time></trkpt><trkpt lat="44.2765383" lon="10.6851283"><ele>1145.0</ele><time>2026-04-26T14:03:56.352Z</time></trkpt><trkpt lat="44.2767017" lon="10.6851167"><ele>1142.3333333333335</ele><time>2026-04-26T14:03:57.351Z</time></trkpt><trkpt lat="44.2768667" lon="10.6851067"><ele>1139.6666666666667</ele><time>2026-04-26T14:03:58.351Z</time></trkpt><trkpt lat="44.2770283" lon="10.6850933"><ele>1137.0</ele><time>2026-04-26T14:03:59.351Z</time></trkpt><trkpt lat="44.2771867" lon="10.68508"><ele>1136.0</ele><time>2026-04-26T14:04:00.351Z</time></trkpt><trkpt lat="44.2773533" lon="10.6850467"><ele>1135.0</ele><time>2026-04-26T14:04:01.351Z</time></trkpt><trkpt lat="44.2775067" lon="10.6850483"><ele>1134.0</ele><time>2026-04-26T14:04:02.351Z</time></trkpt><trkpt lat="44.2776567" lon="10.68506"><ele>1134.0</ele><time>2026-04-26T14:04:03.351Z</time></trkpt><trkpt lat="44.2778" lon="10.685085"><ele>1134.0</ele><time>2026-04-26T14:04:04.351Z</time></trkpt><trkpt lat="44.277945" lon="10.6851383"><ele>1134.0</ele><time>2026-04-26T14:04:05.351Z</time></trkpt><trkpt lat="44.2780983" lon="10.6851883"><ele>1129.0</ele><time>2026-04-26T14:04:06.351Z</time></trkpt><trkpt lat="44.278245" lon="10.6852933"><ele>1124.0</ele><time>2026-04-26T14:04:07.351Z</time></trkpt><trkpt lat="44.27837" lon="10.68541"><ele>1119.0</ele><time>2026-04-26T14:04:08.351Z</time></trkpt><trkpt lat="44.2784983" lon="10.6855317"><ele>1119.0</ele><time>2026-04-26T14:04:09.351Z</time></trkpt><trkpt lat="44.2786217" lon="10.68567"><ele>1119.0</ele><time>2026-04-26T14:04:10.351Z</time></trkpt><trkpt lat="44.2787383" lon="10.6858183"><ele>1119.0</ele><time>2026-04-26T14:04:11.351Z</time></trkpt><trkpt lat="44.2788483" lon="10.685965"><ele>1120.6666666666667</ele><time>2026-04-26T14:04:12.351Z</time></trkpt><trkpt lat="44.2789483" lon="10.6861283"><ele>1122.3333333333335</ele><time>2026-04-26T14:04:13.351Z</time></trkpt><trkpt lat="44.2790417" lon="10.6863017"><ele>1124.0</ele><time>2026-04-26T14:04:14.351Z</time></trkpt><trkpt lat="44.27913" lon="10.686485"><ele>1124.0</ele><time>2026-04-26T14:04:15.351Z</time></trkpt><trkpt lat="44.2792167" lon="10.6866667"><ele>1124.0</ele><time>2026-04-26T14:04:16.351Z</time></trkpt><trkpt lat="44.2792883" lon="10.6868533"><ele>1124.0</ele><time>2026-04-26T14:04:17.351Z</time></trkpt><trkpt lat="44.279345" lon="10.6870467"><ele>1119.6666666666667</ele><time>2026-04-26T14:04:18.352Z</time></trkpt><trkpt lat="44.2794033" lon="10.68724"><ele>1115.3333333333333</ele><time>2026-04-26T14:04:19.351Z</time></trkpt><trkpt lat="44.2794767" lon="10.6874283"><ele>1111.0</ele><time>2026-04-26T14:04:20.351Z</time></trkpt><trkpt lat="44.2795617" lon="10.6876067"><ele>1110.3333333333333</ele><time>2026-04-26T14:04:21.352Z</time></trkpt><trkpt lat="44.2796567" lon="10.6877783"><ele>1109.6666666666667</ele><time>2026-04-26T14:04:22.351Z</time></trkpt><trkpt lat="44.2797667" lon="10.68793"><ele>1109.0</ele><time>2026-04-26T14:04:23.351Z</time></trkpt><trkpt lat="44.279895" lon="10.688055"><ele>1109.0</ele><time>2026-04-26T14:04:24.351Z</time></trkpt><trkpt lat="44.28003" lon="10.6881733"><ele>1109.0</ele><time>2026-04-26T14:04:25.351Z</time></trkpt><trkpt lat="44.2801683" lon="10.6882883"><ele>1109.0</ele><time>2026-04-26T14:04:26.351Z</time></trkpt><trkpt lat="44.2803067" lon="10.688425"><ele>1109.0</ele><time>2026-04-26T14:04:27.351Z</time></trkpt><trkpt lat="44.28044" lon="10.688575"><ele>1109.0</ele><time>2026-04-26T14:04:28.351Z</time></trkpt><trkpt lat="44.2805817" lon="10.6887533"><ele>1109.0</ele><time>2026-04-26T14:04:29.351Z</time></trkpt><trkpt lat="44.280715" lon="10.6889433"><ele>1109.3333333333335</ele><time>2026-04-26T14:04:30.351Z</time></trkpt><trkpt lat="44.2808333" lon="10.6891033"><ele>1109.6666666666667</ele><time>2026-04-26T14:04:31.351Z</time></trkpt><trkpt lat="44.280945" lon="10.68926"><ele>1110.0</ele><time>2026-04-26T14:04:32.351Z</time></trkpt><trkpt lat="44.2810533" lon="10.68942"><ele>1108.5</ele><time>2026-04-26T14:04:33.351Z</time></trkpt><trkpt lat="44.2811733" lon="10.689535"><ele>1107.0</ele><time>2026-04-26T14:04:34.351Z</time></trkpt><trkpt lat="44.2813017" lon="10.6896117"><ele>1105.5</ele><time>2026-04-26T14:04:35.351Z</time></trkpt><trkpt lat="44.281445" lon="10.6896717"><ele>1104.0</ele><time>2026-04-26T14:04:36.351Z</time></trkpt><trkpt lat="44.2815717" lon="10.6897317"><ele>1104.0</ele><time>2026-04-26T14:04:37.351Z</time></trkpt><trkpt lat="44.2817067" lon="10.6898117"><ele>1104.0</ele><time>2026-04-26T14:04:38.352Z</time></trkpt><trkpt lat="44.2818417" lon="10.6899167"><ele>1104.0</ele><time>2026-04-26T14:04:39.351Z</time></trkpt><trkpt lat="44.281965" lon="10.69004"><ele>1104.0</ele><time>2026-04-26T14:04:40.351Z</time></trkpt><trkpt lat="44.2820733" lon="10.6901783"><ele>1104.0</ele><time>2026-04-26T14:04:41.351Z</time></trkpt><trkpt lat="44.2821633" lon="10.6903433"><ele>1104.0</ele><time>2026-04-26T14:04:42.351Z</time></trkpt><trkpt lat="44.282255" lon="10.6905217"><ele>1103.0</ele><time>2026-04-26T14:04:43.351Z</time></trkpt><trkpt lat="44.2823467" lon="10.69071"><ele>1102.0</ele><time>2026-04-26T14:04:44.352Z</time></trkpt><trkpt lat="44.2824333" lon="10.6909017"><ele>1101.0</ele><time>2026-04-26T14:04:45.351Z</time></trkpt><trkpt lat="44.2825133" lon="10.69109"><ele>1099.5</ele><time>2026-04-26T14:04:46.351Z</time></trkpt><trkpt lat="44.2825917" lon="10.69128"><ele>1098.0</ele><time>2026-04-26T14:04:47.351Z</time></trkpt><trkpt lat="44.282655" lon="10.6914567"><ele>1096.5</ele><time>2026-04-26T14:04:48.351Z</time></trkpt><trkpt lat="44.2826867" lon="10.69164"><ele>1095.0</ele><time>2026-04-26T14:04:49.351Z</time></trkpt><trkpt lat="44.2826767" lon="10.69182"><ele>1094.5</ele><time>2026-04-26T14:04:50.351Z</time></trkpt><trkpt lat="44.28263" lon="10.691985"><ele>1094.0</ele><time>2026-04-26T14:04:51.351Z</time></trkpt><trkpt lat="44.2825533" lon="10.69213"><ele>1093.5</ele><time>2026-04-26T14:04:52.351Z</time></trkpt><trkpt lat="44.28245" lon="10.692255"><ele>1093.0</ele><time>2026-04-26T14:04:53.351Z</time></trkpt><trkpt lat="44.2823567" lon="10.69237"><ele>1093.0</ele><time>2026-04-26T14:04:54.351Z</time></trkpt><trkpt lat="44.28229" lon="10.6925033"><ele>1093.0</ele><time>2026-04-26T14:04:55.351Z</time></trkpt><trkpt lat="44.2822483" lon="10.69265"><ele>1093.0</ele><time>2026-04-26T14:04:56.351Z</time></trkpt><trkpt lat="44.2822367" lon="10.6928"><ele>1093.0</ele><time>2026-04-26T14:04:57.351Z</time></trkpt><trkpt lat="44.282255" lon="10.6929533"><ele>1093.0</ele><time>2026-04-26T14:04:58.351Z</time></trkpt><trkpt lat="44.282305" lon="10.6931117"><ele>1091.75</ele><time>2026-04-26T14:04:59.351Z</time></trkpt><trkpt lat="44.2823867" lon="10.693245"><ele>1090.5</ele><time>2026-04-26T14:05:00.351Z</time></trkpt><trkpt lat="44.2824833" lon="10.6933583"><ele>1089.25</ele><time>2026-04-26T14:05:01.351Z</time></trkpt><trkpt lat="44.2825867" lon="10.6934583"><ele>1088.0</ele><time>2026-04-26T14:05:02.351Z</time></trkpt><trkpt lat="44.2826983" lon="10.6935567"><ele>1084.8</ele><time>2026-04-26T14:05:03.351Z</time></trkpt><trkpt lat="44.2827933" lon="10.693665"><ele>1081.6</ele><time>2026-04-26T14:05:04.351Z</time></trkpt><trkpt lat="44.282855" lon="10.6937883"><ele>1078.4</ele><time>2026-04-26T14:05:05.352Z</time></trkpt><trkpt lat="44.282885" lon="10.6939267"><ele>1075.2</ele><time>2026-04-26T14:05:06.351Z</time></trkpt><trkpt lat="44.2828767" lon="10.6940817"><ele>1072.0</ele><time>2026-04-26T14:05:07.351Z</time></trkpt><trkpt lat="44.2828417" lon="10.6942217"><ele>1072.0</ele><time>2026-04-26T14:05:08.351Z</time></trkpt><trkpt lat="44.2828033" lon="10.6943617"><ele>1072.0</ele><time>2026-04-26T14:05:09.351Z</time></trkpt><trkpt lat="44.2827717" lon="10.6944967"><ele>1072.0</ele><time>2026-04-26T14:05:10.352Z</time></trkpt><trkpt lat="44.282765" lon="10.6946317"><ele>1072.0</ele><time>2026-04-26T14:05:11.351Z</time></trkpt><trkpt lat="44.28278" lon="10.6947717"><ele>1072.0</ele><time>2026-04-26T14:05:12.351Z</time></trkpt><trkpt lat="44.2828167" lon="10.6949"><ele>1072.0</ele><time>2026-04-26T14:05:13.351Z</time></trkpt><trkpt lat="44.282895" lon="10.695"><ele>1072.0</ele><time>2026-04-26T14:05:14.351Z</time></trkpt><trkpt lat="44.2829933" lon="10.695075"><ele>1072.0</ele><time>2026-04-26T14:05:15.351Z</time></trkpt><trkpt lat="44.2831133" lon="10.6951433"><ele>1072.0</ele><time>2026-04-26T14:05:16.351Z</time></trkpt><trkpt lat="44.2832417" lon="10.6952033"><ele>1068.75</ele><time>2026-04-26T14:05:17.352Z</time></trkpt><trkpt lat="44.2833683" lon="10.69526"><ele>1065.5</ele><time>2026-04-26T14:05:18.351Z</time></trkpt><trkpt lat="44.2834883" lon="10.69532"><ele>1062.25</ele><time>2026-04-26T14:05:19.351Z</time></trkpt><trkpt lat="44.2836" lon="10.6954117"><ele>1059.0</ele><time>2026-04-26T14:05:20.351Z</time></trkpt><trkpt lat="44.2836983" lon="10.6955333"><ele>1059.0</ele><time>2026-04-26T14:05:21.351Z</time></trkpt><trkpt lat="44.283785" lon="10.695665"><ele>1059.0</ele><time>2026-04-26T14:05:22.351Z</time></trkpt><trkpt lat="44.2838733" lon="10.695795"><ele>1059.0</ele><time>2026-04-26T14:05:23.351Z</time></trkpt><trkpt lat="44.2839617" lon="10.6959067"><ele>1059.0</ele><time>2026-04-26T14:05:24.351Z</time></trkpt><trkpt lat="44.28407" lon="10.6960183"><ele>1055.6666666666667</ele><time>2026-04-26T14:05:25.351Z</time></trkpt><trkpt lat="44.284215" lon="10.6961017"><ele>1052.3333333333335</ele><time>2026-04-26T14:05:26.351Z</time></trkpt><trkpt lat="44.2843883" lon="10.6961867"><ele>1049.0</ele><time>2026-04-26T14:05:27.352Z</time></trkpt><trkpt lat="44.2845783" lon="10.696305"><ele>1049.0</ele><time>2026-04-26T14:05:28.351Z</time></trkpt><trkpt lat="44.284745" lon="10.6964567"><ele>1049.0</ele><time>2026-04-26T14:05:29.351Z</time></trkpt><trkpt lat="44.2848817" lon="10.6965983"><ele>1049.0</ele><time>2026-04-26T14:05:30.351Z</time></trkpt><trkpt lat="44.2850133" lon="10.6967267"><ele>1047.5</ele><time>2026-04-26T14:05:31.351Z</time></trkpt><trkpt lat="44.2851183" lon="10.6968383"><ele>1046.0</ele><time>2026-04-26T14:05:32.352Z</time></trkpt><trkpt lat="44.2852183" lon="10.6969283"><ele>1044.5</ele><time>2026-04-26T14:05:33.351Z</time></trkpt><trkpt lat="44.2853067" lon="10.6970533"><ele>1043.0</ele><time>2026-04-26T14:05:34.351Z</time></trkpt><trkpt lat="44.28537" lon="10.6972017"><ele>1043.0</ele><time>2026-04-26T14:05:35.351Z</time></trkpt><trkpt lat="44.2853867" lon="10.6974"><ele>1043.0</ele><time>2026-04-26T14:05:36.351Z</time></trkpt><trkpt lat="44.2853683" lon="10.6976283"><ele>1043.0</ele><time>2026-04-26T14:05:37.351Z</time></trkpt><trkpt lat="44.2853417" lon="10.6979017"><ele>1040.6666666666667</ele><time>2026-04-26T14:05:38.351Z</time></trkpt><trkpt lat="44.2853217" lon="10.6981733"><ele>1038.3333333333333</ele><time>2026-04-26T14:05:39.351Z</time></trkpt><trkpt lat="44.2853183" lon="10.6984417"><ele>1036.0</ele><time>2026-04-26T14:05:40.351Z</time></trkpt><trkpt lat="44.2853117" lon="10.698675"><ele>1035.0</ele><time>2026-04-26T14:05:41.351Z</time></trkpt><trkpt lat="44.2853133" lon="10.69888"><ele>1034.0</ele><time>2026-04-26T14:05:42.351Z</time></trkpt><trkpt lat="44.2853" lon="10.6990733"><ele>1033.0</ele><time>2026-04-26T14:05:43.352Z</time></trkpt><trkpt lat="44.285315" lon="10.69926"><ele>1032.0</ele><time>2026-04-26T14:05:44.351Z</time></trkpt><trkpt lat="44.28537" lon="10.699445"><ele>1033.25</ele><time>2026-04-26T14:05:45.351Z</time></trkpt><trkpt lat="44.2854483" lon="10.6996317"><ele>1034.5</ele><time>2026-04-26T14:05:46.351Z</time></trkpt><trkpt lat="44.28553" lon="10.6998033"><ele>1035.75</ele><time>2026-04-26T14:05:47.351Z</time></trkpt><trkpt lat="44.2856033" lon="10.699955"><ele>1037.0</ele><time>2026-04-26T14:05:48.351Z</time></trkpt><trkpt lat="44.2856833" lon="10.7000933"><ele>1037.0</ele><time>2026-04-26T14:05:49.351Z</time></trkpt><trkpt lat="44.2857767" lon="10.7002267"><ele>1037.0</ele><time>2026-04-26T14:05:50.351Z</time></trkpt><trkpt lat="44.2858717" lon="10.700335"><ele>1037.0</ele><time>2026-04-26T14:05:51.351Z</time></trkpt><trkpt lat="44.285985" lon="10.7004167"><ele>1037.0</ele><time>2026-04-26T14:05:52.351Z</time></trkpt><trkpt lat="44.2860917" lon="10.700465"><ele>1033.25</ele><time>2026-04-26T14:05:53.351Z</time></trkpt><trkpt lat="44.2862017" lon="10.70048"><ele>1029.5</ele><time>2026-04-26T14:05:54.351Z</time></trkpt><trkpt lat="44.2863167" lon="10.7004467"><ele>1025.75</ele><time>2026-04-26T14:05:55.351Z</time></trkpt><trkpt lat="44.2864217" lon="10.7003967"><ele>1022.0</ele><time>2026-04-26T14:05:56.351Z</time></trkpt><trkpt lat="44.2865333" lon="10.7003517"><ele>1022.0</ele><time>2026-04-26T14:05:57.351Z</time></trkpt><trkpt lat="44.28664" lon="10.700345"><ele>1022.0</ele><time>2026-04-26T14:05:58.352Z</time></trkpt><trkpt lat="44.28674" lon="10.7003983"><ele>1022.0</ele><time>2026-04-26T14:05:59.351Z</time></trkpt><trkpt lat="44.2868317" lon="10.700505"><ele>1022.0</ele><time>2026-04-26T14:06:00.351Z</time></trkpt><trkpt lat="44.28691" lon="10.7006583"><ele>1022.0</ele><time>2026-04-26T14:06:01.351Z</time></trkpt><trkpt lat="44.28698" lon="10.7008283"><ele>1022.0</ele><time>2026-04-26T14:06:02.351Z</time></trkpt><trkpt lat="44.2870183" lon="10.7010133"><ele>1022.0</ele><time>2026-04-26T14:06:03.351Z</time></trkpt><trkpt lat="44.2870283" lon="10.70122"><ele>1022.0</ele><time>2026-04-26T14:06:04.351Z</time></trkpt><trkpt lat="44.287" lon="10.7014033"><ele>1020.25</ele><time>2026-04-26T14:06:05.351Z</time></trkpt><trkpt lat="44.2869667" lon="10.7016083"><ele>1018.5</ele><time>2026-04-26T14:06:06.351Z</time></trkpt><trkpt lat="44.2869333" lon="10.7018083"><ele>1016.75</ele><time>2026-04-26T14:06:07.351Z</time></trkpt><trkpt lat="44.2869067" lon="10.702015"><ele>1015.0</ele><time>2026-04-26T14:06:08.351Z</time></trkpt><trkpt lat="44.286885" lon="10.702245"><ele>1015.0</ele><time>2026-04-26T14:06:09.351Z</time></trkpt><trkpt lat="44.2868583" lon="10.7024783"><ele>1015.0</ele><time>2026-04-26T14:06:10.351Z</time></trkpt><trkpt lat="44.2868033" lon="10.7026817"><ele>1015.0</ele><time>2026-04-26T14:06:11.351Z</time></trkpt><trkpt lat="44.2867433" lon="10.702885"><ele>1015.0</ele><time>2026-04-26T14:06:12.351Z</time></trkpt><trkpt lat="44.2866783" lon="10.7030733"><ele>1015.0</ele><time>2026-04-26T14:06:13.351Z</time></trkpt><trkpt lat="44.2866083" lon="10.7032517"><ele>1015.0</ele><time>2026-04-26T14:06:14.351Z</time></trkpt><trkpt lat="44.2865517" lon="10.7034183"><ele>1015.0</ele><time>2026-04-26T14:06:15.351Z</time></trkpt><trkpt lat="44.2865217" lon="10.7035967"><ele>1015.0</ele><time>2026-04-26T14:06:16.351Z</time></trkpt><trkpt lat="44.2865167" lon="10.7037883"><ele>1015.0</ele><time>2026-04-26T14:06:17.352Z</time></trkpt><trkpt lat="44.2865033" lon="10.7039917"><ele>1015.0</ele><time>2026-04-26T14:06:18.351Z</time></trkpt><trkpt lat="44.2864617" lon="10.7041867"><ele>1015.0</ele><time>2026-04-26T14:06:19.351Z</time></trkpt><trkpt lat="44.2864" lon="10.7043617"><ele>1007.5</ele><time>2026-04-26T14:06:20.351Z</time></trkpt><trkpt lat="44.28633" lon="10.7045133"><ele>1000.0</ele><time>2026-04-26T14:06:21.351Z</time></trkpt><trkpt lat="44.286275" lon="10.70467"><ele>992.5</ele><time>2026-04-26T14:06:22.351Z</time></trkpt><trkpt lat="44.2862483" lon="10.704845"><ele>985.0</ele><time>2026-04-26T14:06:23.351Z</time></trkpt><trkpt lat="44.28624" lon="10.7049917"><ele>985.0</ele><time>2026-04-26T14:06:24.351Z</time></trkpt><trkpt lat="44.286265" lon="10.7051467"><ele>985.0</ele><time>2026-04-26T14:06:25.351Z</time></trkpt><trkpt lat="44.2863117" lon="10.70528"><ele>985.0</ele><time>2026-04-26T14:06:26.351Z</time></trkpt><trkpt lat="44.286395" lon="10.7053583"><ele>985.0</ele><time>2026-04-26T14:06:27.351Z</time></trkpt><trkpt lat="44.28651" lon="10.7053867"><ele>985.0</ele><time>2026-04-26T14:06:28.351Z</time></trkpt><trkpt lat="44.2866367" lon="10.7053983"><ele>986.3333333333333</ele><time>2026-04-26T14:06:29.351Z</time></trkpt><trkpt lat="44.2867817" lon="10.7054183"><ele>987.6666666666667</ele><time>2026-04-26T14:06:30.351Z</time></trkpt><trkpt lat="44.286935" lon="10.7054683"><ele>989.0</ele><time>2026-04-26T14:06:31.351Z</time></trkpt><trkpt lat="44.2870883" lon="10.70554"><ele>989.0</ele><time>2026-04-26T14:06:32.352Z</time></trkpt><trkpt lat="44.2872133" lon="10.7056583"><ele>989.0</ele><time>2026-04-26T14:06:33.351Z</time></trkpt><trkpt lat="44.287325" lon="10.7057917"><ele>989.0</ele><time>2026-04-26T14:06:34.351Z</time></trkpt><trkpt lat="44.2873867" lon="10.705945"><ele>989.0</ele><time>2026-04-26T14:06:35.352Z</time></trkpt><trkpt lat="44.28741" lon="10.7061283"><ele>986.5</ele><time>2026-04-26T14:06:36.351Z</time></trkpt><trkpt lat="44.2874" lon="10.7062917"><ele>984.0</ele><time>2026-04-26T14:06:37.351Z</time></trkpt><trkpt lat="44.2874017" lon="10.7064567"><ele>981.5</ele><time>2026-04-26T14:06:38.351Z</time></trkpt><trkpt lat="44.28745" lon="10.7066033"><ele>979.0</ele><time>2026-04-26T14:06:39.351Z</time></trkpt><trkpt lat="44.2875383" lon="10.7067283"><ele>979.0</ele><time>2026-04-26T14:06:40.351Z</time></trkpt><trkpt lat="44.287655" lon="10.7068417"><ele>979.0</ele><time>2026-04-26T14:06:41.352Z</time></trkpt><trkpt lat="44.2877867" lon="10.7069533"><ele>979.0</ele><time>2026-04-26T14:06:42.351Z</time></trkpt><trkpt lat="44.2879217" lon="10.70702"><ele>979.0</ele><time>2026-04-26T14:06:43.351Z</time></trkpt><trkpt lat="44.288075" lon="10.7070317"><ele>981.3333333333333</ele><time>2026-04-26T14:06:44.351Z</time></trkpt><trkpt lat="44.288235" lon="10.706995"><ele>983.6666666666667</ele><time>2026-04-26T14:06:45.35Z</time></trkpt><trkpt lat="44.2883917" lon="10.7069183"><ele>986.0</ele><time>2026-04-26T14:06:46.35Z</time></trkpt><trkpt lat="44.2885367" lon="10.70682"><ele>986.0</ele><time>2026-04-26T14:06:47.35Z</time></trkpt><trkpt lat="44.2886833" lon="10.70673"><ele>986.0</ele><time>2026-04-26T14:06:48.35Z</time></trkpt><trkpt lat="44.288815" lon="10.7066517"><ele>986.0</ele><time>2026-04-26T14:06:49.35Z</time></trkpt><trkpt lat="44.2889517" lon="10.7065933"><ele>986.0</ele><time>2026-04-26T14:06:50.35Z</time></trkpt><trkpt lat="44.2891" lon="10.7065517"><ele>982.6666666666667</ele><time>2026-04-26T14:06:51.35Z</time></trkpt><trkpt lat="44.2892583" lon="10.7065017"><ele>979.3333333333333</ele><time>2026-04-26T14:06:52.35Z</time></trkpt><trkpt lat="44.2894133" lon="10.7064633"><ele>976.0</ele><time>2026-04-26T14:06:53.35Z</time></trkpt><trkpt lat="44.2895683" lon="10.706445"><ele>976.0</ele><time>2026-04-26T14:06:54.35Z</time></trkpt><trkpt lat="44.2897333" lon="10.7064517"><ele>976.0</ele><time>2026-04-26T14:06:55.35Z</time></trkpt><trkpt lat="44.2898933" lon="10.706465"><ele>976.0</ele><time>2026-04-26T14:06:56.35Z</time></trkpt><trkpt lat="44.2900467" lon="10.7064783"><ele>973.3333333333333</ele><time>2026-04-26T14:06:57.35Z</time></trkpt><trkpt lat="44.2902033" lon="10.7064983"><ele>970.6666666666667</ele><time>2026-04-26T14:06:58.35Z</time></trkpt><trkpt lat="44.2903567" lon="10.7065033"><ele>968.0</ele><time>2026-04-26T14:06:59.35Z</time></trkpt><trkpt lat="44.2905183" lon="10.7064983"><ele>967.0</ele><time>2026-04-26T14:07:00.35Z</time></trkpt><trkpt lat="44.29067" lon="10.7065067"><ele>966.0</ele><time>2026-04-26T14:07:01.35Z</time></trkpt><trkpt lat="44.2908233" lon="10.706525"><ele>965.0</ele><time>2026-04-26T14:07:02.35Z</time></trkpt><trkpt lat="44.29097" lon="10.7065667"><ele>965.0</ele><time>2026-04-26T14:07:03.35Z</time></trkpt><trkpt lat="44.2911083" lon="10.706625"><ele>965.0</ele><time>2026-04-26T14:07:04.35Z</time></trkpt><trkpt lat="44.291235" lon="10.706725"><ele>965.0</ele><time>2026-04-26T14:07:05.35Z</time></trkpt><trkpt lat="44.291345" lon="10.706865"><ele>965.0</ele><time>2026-04-26T14:07:06.35Z</time></trkpt><trkpt lat="44.2914583" lon="10.707035"><ele>962.0</ele><time>2026-04-26T14:07:07.35Z</time></trkpt><trkpt lat="44.291575" lon="10.7071983"><ele>959.0</ele><time>2026-04-26T14:07:08.35Z</time></trkpt><trkpt lat="44.291685" lon="10.7073333"><ele>956.0</ele><time>2026-04-26T14:07:09.35Z</time></trkpt><trkpt lat="44.2918083" lon="10.7074883"><ele>956.0</ele><time>2026-04-26T14:07:10.35Z</time></trkpt><trkpt lat="44.29191" lon="10.7076467"><ele>956.0</ele><time>2026-04-26T14:07:11.35Z</time></trkpt><trkpt lat="44.2920033" lon="10.7078267"><ele>956.0</ele><time>2026-04-26T14:07:12.35Z</time></trkpt><trkpt lat="44.29208" lon="10.7079967"><ele>954.0</ele><time>2026-04-26T14:07:13.35Z</time></trkpt><trkpt lat="44.2921617" lon="10.7081683"><ele>952.0</ele><time>2026-04-26T14:07:14.35Z</time></trkpt><trkpt lat="44.292265" lon="10.7083167"><ele>950.0</ele><time>2026-04-26T14:07:15.35Z</time></trkpt><trkpt lat="44.2923883" lon="10.70843"><ele>948.0</ele><time>2026-04-26T14:07:16.351Z</time></trkpt><trkpt lat="44.2925183" lon="10.7085233"><ele>948.0</ele><time>2026-04-26T14:07:17.35Z</time></trkpt><trkpt lat="44.29266" lon="10.7085733"><ele>948.0</ele><time>2026-04-26T14:07:18.35Z</time></trkpt><trkpt lat="44.2928133" lon="10.7086383"><ele>948.0</ele><time>2026-04-26T14:07:19.35Z</time></trkpt><trkpt lat="44.2929683" lon="10.7087133"><ele>945.3333333333333</ele><time>2026-04-26T14:07:20.35Z</time></trkpt><trkpt lat="44.2931267" lon="10.7087883"><ele>942.6666666666666</ele><time>2026-04-26T14:07:21.35Z</time></trkpt><trkpt lat="44.2932817" lon="10.70887"><ele>940.0</ele><time>2026-04-26T14:07:22.35Z</time></trkpt><trkpt lat="44.29343" lon="10.7089517"><ele>940.0</ele><time>2026-04-26T14:07:23.35Z</time></trkpt><trkpt lat="44.2935717" lon="10.70903"><ele>940.0</ele><time>2026-04-26T14:07:24.35Z</time></trkpt><trkpt lat="44.293695" lon="10.709095"><ele>940.0</ele><time>2026-04-26T14:07:25.35Z</time></trkpt><trkpt lat="44.29381" lon="10.7091617"><ele>940.0</ele><time>2026-04-26T14:07:26.35Z</time></trkpt><trkpt lat="44.2939483" lon="10.7092333"><ele>940.0</ele><time>2026-04-26T14:07:27.35Z</time></trkpt><trkpt lat="44.29409" lon="10.7093133"><ele>940.0</ele><time>2026-04-26T14:07:28.35Z</time></trkpt><trkpt lat="44.29424" lon="10.7093817"><ele>940.0</ele><time>2026-04-26T14:07:29.35Z</time></trkpt><trkpt lat="44.2943767" lon="10.7094467"><ele>938.0</ele><time>2026-04-26T14:07:30.35Z</time></trkpt><trkpt lat="44.294515" lon="10.7094783"><ele>936.0</ele><time>2026-04-26T14:07:31.35Z</time></trkpt><trkpt lat="44.2946467" lon="10.7094833"><ele>934.0</ele><time>2026-04-26T14:07:32.35Z</time></trkpt><trkpt lat="44.2947767" lon="10.7095033"><ele>932.0</ele><time>2026-04-26T14:07:33.35Z</time></trkpt><trkpt lat="44.2948917" lon="10.7095683"><ele>932.0</ele><time>2026-04-26T14:07:34.35Z</time></trkpt><trkpt lat="44.2949717" lon="10.70968"><ele>932.0</ele><time>2026-04-26T14:07:35.35Z</time></trkpt><trkpt lat="44.295055" lon="10.7098483"><ele>932.0</ele><time>2026-04-26T14:07:36.35Z</time></trkpt><trkpt lat="44.2951517" lon="10.710035"><ele>932.0</ele><time>2026-04-26T14:07:37.35Z</time></trkpt><trkpt lat="44.295265" lon="10.7102133"><ele>930.3333333333334</ele><time>2026-04-26T14:07:38.35Z</time></trkpt><trkpt lat="44.295405" lon="10.7103483"><ele>928.6666666666667</ele><time>2026-04-26T14:07:39.35Z</time></trkpt><trkpt lat="44.2955517" lon="10.7104667"><ele>927.0</ele><time>2026-04-26T14:07:40.35Z</time></trkpt><trkpt lat="44.29568" lon="10.7105483"><ele>927.0</ele><time>2026-04-26T14:07:41.35Z</time></trkpt><trkpt lat="44.2958167" lon="10.7106267"><ele>927.0</ele><time>2026-04-26T14:07:42.35Z</time></trkpt><trkpt lat="44.2959517" lon="10.7106817"><ele>927.0</ele><time>2026-04-26T14:07:43.35Z</time></trkpt><trkpt lat="44.2960917" lon="10.710685"><ele>927.0</ele><time>2026-04-26T14:07:44.35Z</time></trkpt><trkpt lat="44.2962383" lon="10.7106617"><ele>927.0</ele><time>2026-04-26T14:07:45.35Z</time></trkpt><trkpt lat="44.2964" lon="10.7106683"><ele>927.0</ele><time>2026-04-26T14:07:46.35Z</time></trkpt><trkpt lat="44.29656" lon="10.710705"><ele>927.0</ele><time>2026-04-26T14:07:47.35Z</time></trkpt><trkpt lat="44.296705" lon="10.71077"><ele>926.6666666666667</ele><time>2026-04-26T14:07:48.35Z</time></trkpt><trkpt lat="44.2968433" lon="10.7108383"><ele>926.3333333333334</ele><time>2026-04-26T14:07:49.351Z</time></trkpt><trkpt lat="44.2969833" lon="10.7109067"><ele>926.0</ele><time>2026-04-26T14:07:50.35Z</time></trkpt><trkpt lat="44.2971267" lon="10.7110067"><ele>921.6666666666667</ele><time>2026-04-26T14:07:51.35Z</time></trkpt><trkpt lat="44.297265" lon="10.7111167"><ele>917.3333333333333</ele><time>2026-04-26T14:07:52.35Z</time></trkpt><trkpt lat="44.2974083" lon="10.7112283"><ele>913.0</ele><time>2026-04-26T14:07:53.35Z</time></trkpt><trkpt lat="44.2975417" lon="10.71136"><ele>913.0</ele><time>2026-04-26T14:07:54.35Z</time></trkpt><trkpt lat="44.2976733" lon="10.7114917"><ele>913.0</ele><time>2026-04-26T14:07:55.35Z</time></trkpt><trkpt lat="44.2978017" lon="10.71162"><ele>913.0</ele><time>2026-04-26T14:07:56.35Z</time></trkpt><trkpt lat="44.2979317" lon="10.711755"><ele>913.0</ele><time>2026-04-26T14:07:57.35Z</time></trkpt><trkpt lat="44.298055" lon="10.7118983"><ele>913.0</ele><time>2026-04-26T14:07:58.35Z</time></trkpt><trkpt lat="44.298175" lon="10.7120483"><ele>913.0</ele><time>2026-04-26T14:07:59.35Z</time></trkpt><trkpt lat="44.2982883" lon="10.7121917"><ele>912.6666666666666</ele><time>2026-04-26T14:08:00.35Z</time></trkpt><trkpt lat="44.2984133" lon="10.7123133"><ele>912.3333333333333</ele><time>2026-04-26T14:08:01.35Z</time></trkpt><trkpt lat="44.2985467" lon="10.7124283"><ele>912.0</ele><time>2026-04-26T14:08:02.35Z</time></trkpt><trkpt lat="44.2986767" lon="10.7125467"><ele>912.0</ele><time>2026-04-26T14:08:03.35Z</time></trkpt><trkpt lat="44.2987917" lon="10.712675"><ele>912.0</ele><time>2026-04-26T14:08:04.35Z</time></trkpt><trkpt lat="44.2989" lon="10.7128183"><ele>912.0</ele><time>2026-04-26T14:08:05.35Z</time></trkpt><trkpt lat="44.2990067" lon="10.7129633"><ele>912.0</ele><time>2026-04-26T14:08:06.35Z</time></trkpt><trkpt lat="44.2990833" lon="10.7131133"><ele>911.25</ele><time>2026-04-26T14:08:07.35Z</time></trkpt><trkpt lat="44.299135" lon="10.713275"><ele>910.5</ele><time>2026-04-26T14:08:08.35Z</time></trkpt><trkpt lat="44.29915" lon="10.713435"><ele>909.75</ele><time>2026-04-26T14:08:09.35Z</time></trkpt><trkpt lat="44.29917" lon="10.7136083"><ele>909.0</ele><time>2026-04-26T14:08:10.35Z</time></trkpt><trkpt lat="44.2992383" lon="10.7137567"><ele>905.75</ele><time>2026-04-26T14:08:11.35Z</time></trkpt><trkpt lat="44.2993367" lon="10.7138983"><ele>902.5</ele><time>2026-04-26T14:08:12.35Z</time></trkpt><trkpt lat="44.2994417" lon="10.7140267"><ele>899.25</ele><time>2026-04-26T14:08:13.35Z</time></trkpt><trkpt lat="44.299545" lon="10.7141517"><ele>896.0</ele><time>2026-04-26T14:08:14.35Z</time></trkpt><trkpt lat="44.2996533" lon="10.714295"><ele>896.5</ele><time>2026-04-26T14:08:15.35Z</time></trkpt><trkpt lat="44.2997567" lon="10.714425"><ele>897.0</ele><time>2026-04-26T14:08:16.35Z</time></trkpt><trkpt lat="44.2998433" lon="10.7145433"><ele>897.5</ele><time>2026-04-26T14:08:17.35Z</time></trkpt><trkpt lat="44.2999267" lon="10.7146567"><ele>898.0</ele><time>2026-04-26T14:08:18.35Z</time></trkpt><trkpt lat="44.3000083" lon="10.7147667"><ele>898.0</ele><time>2026-04-26T14:08:19.35Z</time></trkpt><trkpt lat="44.3000933" lon="10.7148767"><ele>898.0</ele><time>2026-04-26T14:08:20.35Z</time></trkpt><trkpt lat="44.3001767" lon="10.7149883"><ele>898.0</ele><time>2026-04-26T14:08:21.35Z</time></trkpt><trkpt lat="44.3002517" lon="10.7151117"><ele>898.0</ele><time>2026-04-26T14:08:22.35Z</time></trkpt><trkpt lat="44.3003283" lon="10.7152417"><ele>898.3333333333333</ele><time>2026-04-26T14:08:23.35Z</time></trkpt><trkpt lat="44.3003967" lon="10.7153867"><ele>898.6666666666667</ele><time>2026-04-26T14:08:24.35Z</time></trkpt><trkpt lat="44.300455" lon="10.7155817"><ele>899.0</ele><time>2026-04-26T14:08:25.35Z</time></trkpt><trkpt lat="44.30052" lon="10.7158083"><ele>899.0</ele><time>2026-04-26T14:08:26.35Z</time></trkpt><trkpt lat="44.30059" lon="10.7160567"><ele>899.0</ele><time>2026-04-26T14:08:27.35Z</time></trkpt><trkpt lat="44.30067" lon="10.7162833"><ele>899.0</ele><time>2026-04-26T14:08:28.35Z</time></trkpt><trkpt lat="44.300755" lon="10.7164967"><ele>899.0</ele><time>2026-04-26T14:08:29.35Z</time></trkpt><trkpt lat="44.3008533" lon="10.716695"><ele>899.0</ele><time>2026-04-26T14:08:30.35Z</time></trkpt><trkpt lat="44.300975" lon="10.7168633"><ele>899.0</ele><time>2026-04-26T14:08:31.35Z</time></trkpt><trkpt lat="44.3011083" lon="10.7169867"><ele>901.3333333333334</ele><time>2026-04-26T14:08:32.35Z</time></trkpt><trkpt lat="44.3012633" lon="10.7170733"><ele>903.6666666666667</ele><time>2026-04-26T14:08:33.35Z</time></trkpt><trkpt lat="44.3014333" lon="10.7171217"><ele>906.0</ele><time>2026-04-26T14:08:34.35Z</time></trkpt><trkpt lat="44.3016067" lon="10.7171283"><ele>906.0</ele><time>2026-04-26T14:08:35.35Z</time></trkpt><trkpt lat="44.3017933" lon="10.7171233"><ele>906.0</ele><time>2026-04-26T14:08:36.35Z</time></trkpt><trkpt lat="44.3019633" lon="10.7171167"><ele>906.0</ele><time>2026-04-26T14:08:37.35Z</time></trkpt><trkpt lat="44.30212" lon="10.7171083"><ele>900.5</ele><time>2026-04-26T14:08:38.35Z</time></trkpt><trkpt lat="44.30225" lon="10.7171083"><ele>895.0</ele><time>2026-04-26T14:08:39.35Z</time></trkpt><trkpt lat="44.3023517" lon="10.7171433"><ele>889.5</ele><time>2026-04-26T14:08:40.35Z</time></trkpt><trkpt lat="44.30244" lon="10.7172217"><ele>884.0</ele><time>2026-04-26T14:08:41.35Z</time></trkpt><trkpt lat="44.3025083" lon="10.71735"><ele>884.0</ele><time>2026-04-26T14:08:42.35Z</time></trkpt><trkpt lat="44.3025467" lon="10.7175167"><ele>884.0</ele><time>2026-04-26T14:08:43.35Z</time></trkpt><trkpt lat="44.3025867" lon="10.71773"><ele>884.0</ele><time>2026-04-26T14:08:44.35Z</time></trkpt><trkpt lat="44.30263" lon="10.7179567"><ele>885.3333333333334</ele><time>2026-04-26T14:08:45.35Z</time></trkpt><trkpt lat="44.302685" lon="10.7181883"><ele>886.6666666666667</ele><time>2026-04-26T14:08:46.35Z</time></trkpt><trkpt lat="44.3027533" lon="10.7184067"><ele>888.0</ele><time>2026-04-26T14:08:47.35Z</time></trkpt><trkpt lat="44.3028383" lon="10.7186167"><ele>888.3333333333333</ele><time>2026-04-26T14:08:48.35Z</time></trkpt><trkpt lat="44.3029317" lon="10.7188033"><ele>888.6666666666666</ele><time>2026-04-26T14:08:49.35Z</time></trkpt><trkpt lat="44.3029917" lon="10.718995"><ele>889.0</ele><time>2026-04-26T14:08:50.35Z</time></trkpt><trkpt lat="44.303035" lon="10.719185"><ele>889.0</ele><time>2026-04-26T14:08:51.35Z</time></trkpt><trkpt lat="44.3030583" lon="10.7193467"><ele>889.0000000000001</ele><time>2026-04-26T14:08:52.35Z</time></trkpt><trkpt lat="44.3030833" lon="10.7194883"><ele>889.0000000000001</ele><time>2026-04-26T14:08:53.35Z</time></trkpt><trkpt lat="44.3031017" lon="10.71961"><ele>889.0</ele><time>2026-04-26T14:08:54.35Z</time></trkpt><trkpt lat="44.30314" lon="10.7196933"><ele>889.0</ele><time>2026-04-26T14:08:55.35Z</time></trkpt><trkpt lat="44.303215" lon="10.7197683"><ele>883.5</ele><time>2026-04-26T14:08:57.35Z</time></trkpt><trkpt lat="44.3032417" lon="10.7196633"><ele>878.0</ele><time>2026-04-26T14:08:59.35Z</time></trkpt><trkpt lat="44.303215" lon="10.7194867"><ele>872.5</ele><time>2026-04-26T14:09:00.35Z</time></trkpt><trkpt lat="44.3031867" lon="10.7192983"><ele>867.0</ele><time>2026-04-26T14:09:01.35Z</time></trkpt><trkpt lat="44.30319" lon="10.7191417"><ele>867.0</ele><time>2026-04-26T14:09:02.35Z</time></trkpt><trkpt lat="44.303225" lon="10.7190333"><ele>867.0</ele><time>2026-04-26T14:09:03.35Z</time></trkpt><trkpt lat="44.3032967" lon="10.7189583"><ele>867.0</ele><time>2026-04-26T14:09:05.35Z</time></trkpt><trkpt lat="44.303325" lon="10.7191083"><ele>867.0</ele><time>2026-04-26T14:09:06.35Z</time></trkpt><trkpt lat="44.3033317" lon="10.71929"><ele>867.0</ele><time>2026-04-26T14:09:07.35Z</time></trkpt><trkpt lat="44.30336" lon="10.7194933"><ele>866.75</ele><time>2026-04-26T14:09:08.35Z</time></trkpt><trkpt lat="44.30342" lon="10.719695"><ele>866.5</ele><time>2026-04-26T14:09:09.35Z</time></trkpt><trkpt lat="44.3035067" lon="10.7198733"><ele>866.25</ele><time>2026-04-26T14:09:10.35Z</time></trkpt><trkpt lat="44.3035917" lon="10.7200267"><ele>866.0</ele><time>2026-04-26T14:09:11.35Z</time></trkpt><trkpt lat="44.3036617" lon="10.720185"><ele>864.0</ele><time>2026-04-26T14:09:12.35Z</time></trkpt><trkpt lat="44.303715" lon="10.7203567"><ele>862.0</ele><time>2026-04-26T14:09:13.35Z</time></trkpt><trkpt lat="44.3037367" lon="10.7205383"><ele>860.0</ele><time>2026-04-26T14:09:14.35Z</time></trkpt><trkpt lat="44.3037233" lon="10.7207167"><ele>858.0</ele><time>2026-04-26T14:09:15.35Z</time></trkpt><trkpt lat="44.3037033" lon="10.7209133"><ele>855.5</ele><time>2026-04-26T14:09:16.35Z</time></trkpt><trkpt lat="44.3036883" lon="10.7210983"><ele>853.0</ele><time>2026-04-26T14:09:17.35Z</time></trkpt><trkpt lat="44.30371" lon="10.7212717"><ele>850.5</ele><time>2026-04-26T14:09:18.35Z</time></trkpt><trkpt lat="44.3037533" lon="10.7214117"><ele>848.0</ele><time>2026-04-26T14:09:19.35Z</time></trkpt><trkpt lat="44.3038217" lon="10.72154"><ele>848.0</ele><time>2026-04-26T14:09:20.35Z</time></trkpt><trkpt lat="44.3038983" lon="10.7216617"><ele>848.0</ele><time>2026-04-26T14:09:21.35Z</time></trkpt><trkpt lat="44.3039733" lon="10.721775"><ele>848.0</ele><time>2026-04-26T14:09:22.35Z</time></trkpt><trkpt lat="44.3040517" lon="10.7218967"><ele>848.0</ele><time>2026-04-26T14:09:23.35Z</time></trkpt><trkpt lat="44.3041383" lon="10.72201"><ele>846.5</ele><time>2026-04-26T14:09:24.35Z</time></trkpt><trkpt lat="44.3042317" lon="10.7221283"><ele>845.0</ele><time>2026-04-26T14:09:25.35Z</time></trkpt><trkpt lat="44.3043383" lon="10.7222417"><ele>843.5</ele><time>2026-04-26T14:09:26.35Z</time></trkpt><trkpt lat="44.304465" lon="10.7223467"><ele>842.0</ele><time>2026-04-26T14:09:27.35Z</time></trkpt><trkpt lat="44.304605" lon="10.7224367"><ele>842.0</ele><time>2026-04-26T14:09:28.35Z</time></trkpt><trkpt lat="44.3047683" lon="10.7225183"><ele>842.0</ele><time>2026-04-26T14:09:29.35Z</time></trkpt><trkpt lat="44.3049483" lon="10.7226"><ele>842.0</ele><time>2026-04-26T14:09:30.35Z</time></trkpt><trkpt lat="44.305105" lon="10.7226467"><ele>842.0</ele><time>2026-04-26T14:09:31.35Z</time></trkpt><trkpt lat="44.30526" lon="10.7226867"><ele>842.0</ele><time>2026-04-26T14:09:32.35Z</time></trkpt><trkpt lat="44.3053933" lon="10.7227083"><ele>842.0</ele><time>2026-04-26T14:09:33.351Z</time></trkpt><trkpt lat="44.305495" lon="10.7227483"><ele>842.0</ele><time>2026-04-26T14:09:34.35Z</time></trkpt><trkpt lat="44.3055867" lon="10.72284"><ele>842.5</ele><time>2026-04-26T14:09:35.35Z</time></trkpt><trkpt lat="44.3056683" lon="10.7229883"><ele>843.0</ele><time>2026-04-26T14:09:36.35Z</time></trkpt><trkpt lat="44.3057417" lon="10.72317"><ele>843.5</ele><time>2026-04-26T14:09:37.35Z</time></trkpt><trkpt lat="44.30582" lon="10.72335"><ele>844.0</ele><time>2026-04-26T14:09:38.35Z</time></trkpt><trkpt lat="44.3059217" lon="10.7235167"><ele>845.6666666666666</ele><time>2026-04-26T14:09:39.35Z</time></trkpt><trkpt lat="44.306045" lon="10.7236733"><ele>847.3333333333333</ele><time>2026-04-26T14:09:40.35Z</time></trkpt><trkpt lat="44.306175" lon="10.723815"><ele>849.0</ele><time>2026-04-26T14:09:41.35Z</time></trkpt><trkpt lat="44.3062917" lon="10.7239467"><ele>849.0</ele><time>2026-04-26T14:09:42.35Z</time></trkpt><trkpt lat="44.3063883" lon="10.7240683"><ele>849.0</ele><time>2026-04-26T14:09:43.35Z</time></trkpt><trkpt lat="44.3064467" lon="10.724195"><ele>849.0</ele><time>2026-04-26T14:09:44.35Z</time></trkpt><trkpt lat="44.30648" lon="10.72432"><ele>849.0</ele><time>2026-04-26T14:09:45.35Z</time></trkpt><trkpt lat="44.3064717" lon="10.7244567"><ele>849.0</ele><time>2026-04-26T14:09:46.35Z</time></trkpt><trkpt lat="44.3064133" lon="10.7245833"><ele>847.75</ele><time>2026-04-26T14:09:47.35Z</time></trkpt><trkpt lat="44.30632" lon="10.7247033"><ele>846.5</ele><time>2026-04-26T14:09:48.35Z</time></trkpt><trkpt lat="44.306225" lon="10.7248383"><ele>845.25</ele><time>2026-04-26T14:09:49.35Z</time></trkpt><trkpt lat="44.3061433" lon="10.7249883"><ele>844.0</ele><time>2026-04-26T14:09:50.35Z</time></trkpt><trkpt lat="44.3060983" lon="10.725185"><ele>842.6666666666666</ele><time>2026-04-26T14:09:51.35Z</time></trkpt><trkpt lat="44.3061033" lon="10.725405"><ele>841.3333333333333</ele><time>2026-04-26T14:09:52.35Z</time></trkpt><trkpt lat="44.306115" lon="10.7256417"><ele>840.0</ele><time>2026-04-26T14:09:53.35Z</time></trkpt><trkpt lat="44.3061033" lon="10.7259033"><ele>839.3333333333333</ele><time>2026-04-26T14:09:54.35Z</time></trkpt><trkpt lat="44.3060817" lon="10.7261533"><ele>838.6666666666666</ele><time>2026-04-26T14:09:55.35Z</time></trkpt><trkpt lat="44.30607" lon="10.726405"><ele>838.0</ele><time>2026-04-26T14:09:56.35Z</time></trkpt><trkpt lat="44.30607" lon="10.7266433"><ele>838.0</ele><time>2026-04-26T14:09:57.349Z</time></trkpt><trkpt lat="44.3061133" lon="10.7268767"><ele>838.0</ele><time>2026-04-26T14:09:58.349Z</time></trkpt><trkpt lat="44.3061717" lon="10.7271183"><ele>838.0</ele><time>2026-04-26T14:09:59.349Z</time></trkpt><trkpt lat="44.30624" lon="10.7273633"><ele>837.3333333333333</ele><time>2026-04-26T14:10:00.35Z</time></trkpt><trkpt lat="44.30631" lon="10.72758"><ele>836.6666666666667</ele><time>2026-04-26T14:10:01.349Z</time></trkpt><trkpt lat="44.306395" lon="10.7277833"><ele>836.0</ele><time>2026-04-26T14:10:02.349Z</time></trkpt><trkpt lat="44.3064983" lon="10.72797"><ele>837.3333333333334</ele><time>2026-04-26T14:10:03.349Z</time></trkpt><trkpt lat="44.3065967" lon="10.728165"><ele>838.6666666666667</ele><time>2026-04-26T14:10:04.349Z</time></trkpt><trkpt lat="44.3066817" lon="10.72836"><ele>840.0</ele><time>2026-04-26T14:10:05.349Z</time></trkpt><trkpt lat="44.3067567" lon="10.7285617"><ele>840.25</ele><time>2026-04-26T14:10:06.349Z</time></trkpt><trkpt lat="44.3068233" lon="10.728765"><ele>840.5</ele><time>2026-04-26T14:10:07.349Z</time></trkpt><trkpt lat="44.3068867" lon="10.72895"><ele>840.75</ele><time>2026-04-26T14:10:08.349Z</time></trkpt><trkpt lat="44.3069433" lon="10.7291233"><ele>841.0</ele><time>2026-04-26T14:10:09.35Z</time></trkpt><trkpt lat="44.3069833" lon="10.7293017"><ele>841.25</ele><time>2026-04-26T14:10:10.349Z</time></trkpt><trkpt lat="44.30702" lon="10.7294733"><ele>841.5</ele><time>2026-04-26T14:10:11.349Z</time></trkpt><trkpt lat="44.3070383" lon="10.72964"><ele>841.75</ele><time>2026-04-26T14:10:12.349Z</time></trkpt><trkpt lat="44.3070417" lon="10.7298033"><ele>842.0</ele><time>2026-04-26T14:10:13.349Z</time></trkpt><trkpt lat="44.3070333" lon="10.729935"><ele>842.0</ele><time>2026-04-26T14:10:14.35Z</time></trkpt><trkpt lat="44.3070367" lon="10.7300883"><ele>842.0</ele><time>2026-04-26T14:10:15.349Z</time></trkpt><trkpt lat="44.307035" lon="10.730245"><ele>842.0</ele><time>2026-04-26T14:10:16.349Z</time></trkpt><trkpt lat="44.3070283" lon="10.7304033"><ele>842.0</ele><time>2026-04-26T14:10:17.349Z</time></trkpt><trkpt lat="44.30702" lon="10.7305583"><ele>842.0</ele><time>2026-04-26T14:10:18.349Z</time></trkpt><trkpt lat="44.307025" lon="10.73072"><ele>842.25</ele><time>2026-04-26T14:10:19.349Z</time></trkpt><trkpt lat="44.3070333" lon="10.7308783"><ele>842.5</ele><time>2026-04-26T14:10:20.349Z</time></trkpt><trkpt lat="44.30706" lon="10.7310433"><ele>842.75</ele><time>2026-04-26T14:10:21.349Z</time></trkpt><trkpt lat="44.3070933" lon="10.731215"><ele>843.0</ele><time>2026-04-26T14:10:22.349Z</time></trkpt><trkpt lat="44.3071267" lon="10.7313833"><ele>843.0</ele><time>2026-04-26T14:10:23.349Z</time></trkpt><trkpt lat="44.3071583" lon="10.7315333"><ele>843.0</ele><time>2026-04-26T14:10:24.349Z</time></trkpt><trkpt lat="44.307195" lon="10.7316767"><ele>843.0</ele><time>2026-04-26T14:10:25.349Z</time></trkpt><trkpt lat="44.3072483" lon="10.73181"><ele>843.0</ele><time>2026-04-26T14:10:26.349Z</time></trkpt><trkpt lat="44.3073" lon="10.7319467"><ele>843.0</ele><time>2026-04-26T14:10:27.349Z</time></trkpt><trkpt lat="44.3073483" lon="10.7321"><ele>843.5</ele><time>2026-04-26T14:10:28.349Z</time></trkpt><trkpt lat="44.3074067" lon="10.7322783"><ele>844.0</ele><time>2026-04-26T14:10:29.349Z</time></trkpt><trkpt lat="44.3074833" lon="10.73246"><ele>844.5</ele><time>2026-04-26T14:10:30.349Z</time></trkpt><trkpt lat="44.30755" lon="10.7326517"><ele>845.0</ele><time>2026-04-26T14:10:31.349Z</time></trkpt><trkpt lat="44.3076033" lon="10.7328133"><ele>845.0</ele><time>2026-04-26T14:10:32.349Z</time></trkpt><trkpt lat="44.3076717" lon="10.7329683"><ele>845.0</ele><time>2026-04-26T14:10:33.349Z</time></trkpt><trkpt lat="44.30774" lon="10.733125"><ele>845.0</ele><time>2026-04-26T14:10:34.349Z</time></trkpt><trkpt lat="44.307795" lon="10.7332867"><ele>845.0</ele><time>2026-04-26T14:10:35.349Z</time></trkpt><trkpt lat="44.3078283" lon="10.733455"><ele>844.75</ele><time>2026-04-26T14:10:36.349Z</time></trkpt><trkpt lat="44.30785" lon="10.73365"><ele>844.5</ele><time>2026-04-26T14:10:37.349Z</time></trkpt><trkpt lat="44.3078583" lon="10.733845"><ele>844.25</ele><time>2026-04-26T14:10:38.349Z</time></trkpt><trkpt lat="44.3078633" lon="10.7340383"><ele>844.0</ele><time>2026-04-26T14:10:39.349Z</time></trkpt><trkpt lat="44.307865" lon="10.734235"><ele>844.75</ele><time>2026-04-26T14:10:40.349Z</time></trkpt><trkpt lat="44.3078633" lon="10.7344317"><ele>845.5</ele><time>2026-04-26T14:10:41.349Z</time></trkpt><trkpt lat="44.307875" lon="10.7346233"><ele>846.25</ele><time>2026-04-26T14:10:42.349Z</time></trkpt><trkpt lat="44.30789" lon="10.7348083"><ele>847.0</ele><time>2026-04-26T14:10:43.349Z</time></trkpt><trkpt lat="44.3079" lon="10.7349967"><ele>847.0</ele><time>2026-04-26T14:10:44.349Z</time></trkpt><trkpt lat="44.3078983" lon="10.735185"><ele>847.0</ele><time>2026-04-26T14:10:45.349Z</time></trkpt><trkpt lat="44.3079117" lon="10.735375"><ele>847.0</ele><time>2026-04-26T14:10:46.349Z</time></trkpt><trkpt lat="44.3079117" lon="10.735565"><ele>847.0</ele><time>2026-04-26T14:10:47.349Z</time></trkpt><trkpt lat="44.3079167" lon="10.7357633"><ele>847.5</ele><time>2026-04-26T14:10:48.349Z</time></trkpt><trkpt lat="44.307945" lon="10.7359633"><ele>848.0</ele><time>2026-04-26T14:10:49.349Z</time></trkpt><trkpt lat="44.3079667" lon="10.7361583"><ele>848.5</ele><time>2026-04-26T14:10:50.349Z</time></trkpt><trkpt lat="44.3080033" lon="10.7363667"><ele>849.0</ele><time>2026-04-26T14:10:51.349Z</time></trkpt><trkpt lat="44.3080417" lon="10.736575"><ele>849.3333333333333</ele><time>2026-04-26T14:10:52.349Z</time></trkpt><trkpt lat="44.3080833" lon="10.73677"><ele>849.6666666666666</ele><time>2026-04-26T14:10:53.35Z</time></trkpt><trkpt lat="44.3081117" lon="10.7369733"><ele>850.0</ele><time>2026-04-26T14:10:54.349Z</time></trkpt><trkpt lat="44.308165" lon="10.7371783"><ele>850.0</ele><time>2026-04-26T14:10:55.349Z</time></trkpt><trkpt lat="44.3082117" lon="10.7374"><ele>850.0</ele><time>2026-04-26T14:10:56.349Z</time></trkpt><trkpt lat="44.3082667" lon="10.7376217"><ele>850.0</ele><time>2026-04-26T14:10:57.349Z</time></trkpt><trkpt lat="44.3083233" lon="10.7378217"><ele>851.6666666666666</ele><time>2026-04-26T14:10:58.349Z</time></trkpt><trkpt lat="44.3083867" lon="10.7380283"><ele>853.3333333333333</ele><time>2026-04-26T14:10:59.349Z</time></trkpt><trkpt lat="44.3084617" lon="10.738215"><ele>855.0</ele><time>2026-04-26T14:11:00.349Z</time></trkpt><trkpt lat="44.3085467" lon="10.7383833"><ele>855.0</ele><time>2026-04-26T14:11:01.349Z</time></trkpt><trkpt lat="44.3086333" lon="10.7385417"><ele>855.0</ele><time>2026-04-26T14:11:02.349Z</time></trkpt><trkpt lat="44.3087217" lon="10.7387117"><ele>855.0</ele><time>2026-04-26T14:11:03.349Z</time></trkpt><trkpt lat="44.308815" lon="10.738875"><ele>855.0</ele><time>2026-04-26T14:11:04.349Z</time></trkpt><trkpt lat="44.3088967" lon="10.73905"><ele>857.0</ele><time>2026-04-26T14:11:05.349Z</time></trkpt><trkpt lat="44.3089767" lon="10.7392433"><ele>859.0</ele><time>2026-04-26T14:11:06.349Z</time></trkpt><trkpt lat="44.30904" lon="10.7394483"><ele>861.0</ele><time>2026-04-26T14:11:07.349Z</time></trkpt><trkpt lat="44.3090933" lon="10.73964"><ele>862.0</ele><time>2026-04-26T14:11:08.349Z</time></trkpt><trkpt lat="44.3091233" lon="10.7398167"><ele>863.0</ele><time>2026-04-26T14:11:09.349Z</time></trkpt><trkpt lat="44.3091617" lon="10.739985"><ele>864.0</ele><time>2026-04-26T14:11:10.349Z</time></trkpt><trkpt lat="44.3091883" lon="10.74012"><ele>865.0</ele><time>2026-04-26T14:11:11.349Z</time></trkpt><trkpt lat="44.30921" lon="10.7402467"><ele>864.9999999999999</ele><time>2026-04-26T14:11:12.349Z</time></trkpt><trkpt lat="44.30923" lon="10.740375"><ele>865.0</ele><time>2026-04-26T14:11:13.35Z</time></trkpt><trkpt lat="44.3092483" lon="10.7404917"><ele>865.0</ele><time>2026-04-26T14:11:14.349Z</time></trkpt><trkpt lat="44.30927" lon="10.740595"><ele>865.0</ele><time>2026-04-26T14:11:15.349Z</time></trkpt><trkpt lat="44.309305" lon="10.7406967"><ele>864.9999999999999</ele><time>2026-04-26T14:11:16.349Z</time></trkpt><trkpt lat="44.309345" lon="10.7407883"><ele>865.0</ele><time>2026-04-26T14:11:17.349Z</time></trkpt><trkpt lat="44.3094" lon="10.7408667"><ele>865.0</ele><time>2026-04-26T14:11:18.349Z</time></trkpt><trkpt lat="44.30947" lon="10.74094"><ele>865.0</ele><time>2026-04-26T14:11:19.349Z</time></trkpt><trkpt lat="44.3095533" lon="10.740995"><ele>865.0</ele><time>2026-04-26T14:11:20.349Z</time></trkpt><trkpt lat="44.3096683" lon="10.7410283"><ele>865.0</ele><time>2026-04-26T14:11:21.349Z</time></trkpt><trkpt lat="44.3097933" lon="10.741045"><ele>865.0</ele><time>2026-04-26T14:11:22.349Z</time></trkpt><trkpt lat="44.3099183" lon="10.7410633"><ele>864.0</ele><time>2026-04-26T14:11:23.349Z</time></trkpt><trkpt lat="44.3100233" lon="10.7410883"><ele>863.0</ele><time>2026-04-26T14:11:24.349Z</time></trkpt><trkpt lat="44.3101333" lon="10.7411083"><ele>862.0</ele><time>2026-04-26T14:11:25.349Z</time></trkpt><trkpt lat="44.3102433" lon="10.7411567"><ele>861.0</ele><time>2026-04-26T14:11:26.35Z</time></trkpt><trkpt lat="44.310345" lon="10.7412333"><ele>860.0</ele><time>2026-04-26T14:11:27.349Z</time></trkpt><trkpt lat="44.3104383" lon="10.741325"><ele>860.0</ele><time>2026-04-26T14:11:28.349Z</time></trkpt><trkpt lat="44.31052" lon="10.7414367"><ele>860.0</ele><time>2026-04-26T14:11:29.349Z</time></trkpt><trkpt lat="44.3105883" lon="10.74158"><ele>860.0</ele><time>2026-04-26T14:11:30.35Z</time></trkpt><trkpt lat="44.31066" lon="10.74173"><ele>860.0</ele><time>2026-04-26T14:11:31.349Z</time></trkpt><trkpt lat="44.310725" lon="10.7418783"><ele>863.0</ele><time>2026-04-26T14:11:32.349Z</time></trkpt><trkpt lat="44.3107817" lon="10.742025"><ele>866.0</ele><time>2026-04-26T14:11:33.349Z</time></trkpt><trkpt lat="44.3108317" lon="10.7422083"><ele>869.0</ele><time>2026-04-26T14:11:34.349Z</time></trkpt><trkpt lat="44.3108917" lon="10.742415"><ele>872.0</ele><time>2026-04-26T14:11:35.349Z</time></trkpt><trkpt lat="44.3109433" lon="10.7426733"><ele>871.0</ele><time>2026-04-26T14:11:36.349Z</time></trkpt><trkpt lat="44.3109767" lon="10.742945"><ele>870.0</ele><time>2026-04-26T14:11:37.349Z</time></trkpt><trkpt lat="44.3109867" lon="10.7431967"><ele>869.0</ele><time>2026-04-26T14:11:38.349Z</time></trkpt><trkpt lat="44.3109683" lon="10.74345"><ele>869.0</ele><time>2026-04-26T14:11:39.349Z</time></trkpt><trkpt lat="44.3109283" lon="10.7436983"><ele>869.0</ele><time>2026-04-26T14:11:40.349Z</time></trkpt><trkpt lat="44.310885" lon="10.743945"><ele>869.0</ele><time>2026-04-26T14:11:41.349Z</time></trkpt><trkpt lat="44.3108483" lon="10.7441817"><ele>870.0</ele><time>2026-04-26T14:11:42.349Z</time></trkpt><trkpt lat="44.310815" lon="10.74441"><ele>871.0</ele><time>2026-04-26T14:11:43.349Z</time></trkpt><trkpt lat="44.310805" lon="10.7446417"><ele>872.0</ele><time>2026-04-26T14:11:44.349Z</time></trkpt><trkpt lat="44.3108117" lon="10.7448733"><ele>872.0</ele><time>2026-04-26T14:11:45.349Z</time></trkpt><trkpt lat="44.3108167" lon="10.7451283"><ele>872.0</ele><time>2026-04-26T14:11:46.349Z</time></trkpt><trkpt lat="44.31081" lon="10.7453683"><ele>872.0</ele><time>2026-04-26T14:11:47.349Z</time></trkpt><trkpt lat="44.3107867" lon="10.7456033"><ele>872.3333333333334</ele><time>2026-04-26T14:11:48.349Z</time></trkpt><trkpt lat="44.3107617" lon="10.7458567"><ele>872.6666666666667</ele><time>2026-04-26T14:11:49.349Z</time></trkpt><trkpt lat="44.31073" lon="10.7461"><ele>873.0</ele><time>2026-04-26T14:11:50.349Z</time></trkpt><trkpt lat="44.3107033" lon="10.746335"><ele>873.0</ele><time>2026-04-26T14:11:51.349Z</time></trkpt><trkpt lat="44.310685" lon="10.7465567"><ele>873.0</ele><time>2026-04-26T14:11:52.349Z</time></trkpt><trkpt lat="44.3106733" lon="10.7467567"><ele>873.0</ele><time>2026-04-26T14:11:53.349Z</time></trkpt><trkpt lat="44.3106717" lon="10.7469667"><ele>872.0</ele><time>2026-04-26T14:11:54.349Z</time></trkpt><trkpt lat="44.310675" lon="10.7471867"><ele>871.0</ele><time>2026-04-26T14:11:55.349Z</time></trkpt><trkpt lat="44.3106517" lon="10.74742"><ele>870.0</ele><time>2026-04-26T14:11:56.35Z</time></trkpt><trkpt lat="44.3105983" lon="10.74764"><ele>863.75</ele><time>2026-04-26T14:11:57.349Z</time></trkpt><trkpt lat="44.3105217" lon="10.74782"><ele>857.5</ele><time>2026-04-26T14:11:58.349Z</time></trkpt><trkpt lat="44.31043" lon="10.74797"><ele>851.25</ele><time>2026-04-26T14:11:59.349Z</time></trkpt><trkpt lat="44.3103633" lon="10.748115"><ele>845.0</ele><time>2026-04-26T14:12:00.349Z</time></trkpt><trkpt lat="44.3103317" lon="10.7482633"><ele>845.0</ele><time>2026-04-26T14:12:01.349Z</time></trkpt><trkpt lat="44.3103333" lon="10.7484183"><ele>845.0</ele><time>2026-04-26T14:12:02.349Z</time></trkpt><trkpt lat="44.3103833" lon="10.7485717"><ele>845.0</ele><time>2026-04-26T14:12:03.349Z</time></trkpt><trkpt lat="44.310475" lon="10.74871"><ele>845.0</ele><time>2026-04-26T14:12:04.349Z</time></trkpt><trkpt lat="44.3105833" lon="10.74884"><ele>846.0</ele><time>2026-04-26T14:12:05.349Z</time></trkpt><trkpt lat="44.3107117" lon="10.7489283"><ele>847.0</ele><time>2026-04-26T14:12:06.35Z</time></trkpt><trkpt lat="44.3108467" lon="10.74895"><ele>848.0</ele><time>2026-04-26T14:12:07.349Z</time></trkpt><trkpt lat="44.3109867" lon="10.74893"><ele>849.0</ele><time>2026-04-26T14:12:08.349Z</time></trkpt><trkpt lat="44.3111267" lon="10.74888"><ele>849.0</ele><time>2026-04-26T14:12:09.349Z</time></trkpt><trkpt lat="44.3112567" lon="10.7488367"><ele>849.0</ele><time>2026-04-26T14:12:10.349Z</time></trkpt><trkpt lat="44.3113733" lon="10.7488167"><ele>849.0</ele><time>2026-04-26T14:12:11.349Z</time></trkpt><trkpt lat="44.31147" lon="10.748835"><ele>849.0</ele><time>2026-04-26T14:12:12.35Z</time></trkpt><trkpt lat="44.3115317" lon="10.7488917"><ele>849.0</ele><time>2026-04-26T14:12:13.349Z</time></trkpt><trkpt lat="44.311555" lon="10.7489983"><ele>849.0</ele><time>2026-04-26T14:12:14.349Z</time></trkpt><trkpt lat="44.3115083" lon="10.7491167"><ele>849.0</ele><time>2026-04-26T14:12:15.349Z</time></trkpt><trkpt lat="44.3114183" lon="10.7492433"><ele>849.0</ele><time>2026-04-26T14:12:16.349Z</time></trkpt><trkpt lat="44.3113" lon="10.7493617"><ele>849.0</ele><time>2026-04-26T14:12:17.35Z</time></trkpt><trkpt lat="44.311205" lon="10.7494917"><ele>847.3333333333333</ele><time>2026-04-26T14:12:18.349Z</time></trkpt><trkpt lat="44.3111267" lon="10.7496567"><ele>845.6666666666666</ele><time>2026-04-26T14:12:19.349Z</time></trkpt><trkpt lat="44.3110733" lon="10.749865"><ele>844.0</ele><time>2026-04-26T14:12:20.35Z</time></trkpt><trkpt lat="44.3110383" lon="10.7500733"><ele>841.3333333333333</ele><time>2026-04-26T14:12:21.349Z</time></trkpt><trkpt lat="44.3110133" lon="10.7502817"><ele>838.6666666666667</ele><time>2026-04-26T14:12:22.349Z</time></trkpt><trkpt lat="44.3109767" lon="10.750495"><ele>836.0</ele><time>2026-04-26T14:12:23.349Z</time></trkpt><trkpt lat="44.3109" lon="10.7506667"><ele>836.0</ele><time>2026-04-26T14:12:24.349Z</time></trkpt><trkpt lat="44.3107967" lon="10.7507983"><ele>836.0</ele><time>2026-04-26T14:12:25.349Z</time></trkpt><trkpt lat="44.3107117" lon="10.7509117"><ele>836.0</ele><time>2026-04-26T14:12:26.349Z</time></trkpt><trkpt lat="44.3106567" lon="10.7510683"><ele>836.0</ele><time>2026-04-26T14:12:27.349Z</time></trkpt><trkpt lat="44.310615" lon="10.751255"><ele>834.3333333333334</ele><time>2026-04-26T14:12:28.349Z</time></trkpt><trkpt lat="44.310625" lon="10.7514467"><ele>832.6666666666667</ele><time>2026-04-26T14:12:29.349Z</time></trkpt><trkpt lat="44.3106867" lon="10.751655"><ele>831.0</ele><time>2026-04-26T14:12:30.35Z</time></trkpt><trkpt lat="44.3107933" lon="10.7518367"><ele>832.0</ele><time>2026-04-26T14:12:31.349Z</time></trkpt><trkpt lat="44.3109033" lon="10.75201"><ele>833.0</ele><time>2026-04-26T14:12:32.349Z</time></trkpt><trkpt lat="44.3109933" lon="10.752185"><ele>834.0</ele><time>2026-04-26T14:12:33.349Z</time></trkpt><trkpt lat="44.311065" lon="10.7523667"><ele>834.0</ele><time>2026-04-26T14:12:34.349Z</time></trkpt><trkpt lat="44.311095" lon="10.7525567"><ele>834.0</ele><time>2026-04-26T14:12:35.349Z</time></trkpt><trkpt lat="44.3111067" lon="10.7527467"><ele>834.0</ele><time>2026-04-26T14:12:36.349Z</time></trkpt><trkpt lat="44.3111217" lon="10.75294"><ele>834.0</ele><time>2026-04-26T14:12:37.349Z</time></trkpt><trkpt lat="44.3111567" lon="10.753115"><ele>833.5</ele><time>2026-04-26T14:12:38.349Z</time></trkpt><trkpt lat="44.3112383" lon="10.7532833"><ele>833.0</ele><time>2026-04-26T14:12:39.349Z</time></trkpt><trkpt lat="44.31135" lon="10.7534083"><ele>832.5</ele><time>2026-04-26T14:12:40.349Z</time></trkpt><trkpt lat="44.311485" lon="10.753495"><ele>832.0</ele><time>2026-04-26T14:12:41.35Z</time></trkpt><trkpt lat="44.311605" lon="10.7535883"><ele>829.0</ele><time>2026-04-26T14:12:42.349Z</time></trkpt><trkpt lat="44.3117117" lon="10.7536983"><ele>826.0</ele><time>2026-04-26T14:12:43.349Z</time></trkpt><trkpt lat="44.3118033" lon="10.753835"><ele>823.0</ele><time>2026-04-26T14:12:44.349Z</time></trkpt><trkpt lat="44.31189" lon="10.753985"><ele>820.0</ele><time>2026-04-26T14:12:45.349Z</time></trkpt><trkpt lat="44.3119933" lon="10.7541417"><ele>820.0</ele><time>2026-04-26T14:12:46.349Z</time></trkpt><trkpt lat="44.3120967" lon="10.754295"><ele>820.0</ele><time>2026-04-26T14:12:47.349Z</time></trkpt><trkpt lat="44.3122067" lon="10.75443"><ele>820.0</ele><time>2026-04-26T14:12:48.35Z</time></trkpt><trkpt lat="44.3123133" lon="10.7545533"><ele>820.0</ele><time>2026-04-26T14:12:49.349Z</time></trkpt><trkpt lat="44.3124083" lon="10.754675"><ele>818.75</ele><time>2026-04-26T14:12:50.349Z</time></trkpt><trkpt lat="44.3124967" lon="10.7548033"><ele>817.5</ele><time>2026-04-26T14:12:51.349Z</time></trkpt><trkpt lat="44.312575" lon="10.75494"><ele>816.25</ele><time>2026-04-26T14:12:52.349Z</time></trkpt><trkpt lat="44.3126383" lon="10.7550783"><ele>815.0</ele><time>2026-04-26T14:12:53.349Z</time></trkpt><trkpt lat="44.312695" lon="10.7552117"><ele>815.0</ele><time>2026-04-26T14:12:54.349Z</time></trkpt><trkpt lat="44.3127483" lon="10.7553333"><ele>815.0</ele><time>2026-04-26T14:12:55.349Z</time></trkpt><trkpt lat="44.3128017" lon="10.75545"><ele>815.0</ele><time>2026-04-26T14:12:56.349Z</time></trkpt><trkpt lat="44.3128533" lon="10.7555533"><ele>815.0</ele><time>2026-04-26T14:12:57.349Z</time></trkpt><trkpt lat="44.3129017" lon="10.7556667"><ele>815.0</ele><time>2026-04-26T14:12:58.349Z</time></trkpt><trkpt lat="44.3129333" lon="10.7557633"><ele>815.0000000000001</ele><time>2026-04-26T14:12:59.349Z</time></trkpt><trkpt lat="44.3129433" lon="10.7558567"><ele>815.0</ele><time>2026-04-26T14:13:00.349Z</time></trkpt><trkpt lat="44.3129333" lon="10.7559517"><ele>815.0</ele><time>2026-04-26T14:13:01.349Z</time></trkpt><trkpt lat="44.3129167" lon="10.7560633"><ele>815.0</ele><time>2026-04-26T14:13:02.349Z</time></trkpt><trkpt lat="44.3128733" lon="10.7561833"><ele>815.0000000000001</ele><time>2026-04-26T14:13:03.35Z</time></trkpt><trkpt lat="44.3128183" lon="10.7563167"><ele>815.0</ele><time>2026-04-26T14:13:04.349Z</time></trkpt><trkpt lat="44.3127467" lon="10.7564517"><ele>814.5</ele><time>2026-04-26T14:13:05.349Z</time></trkpt><trkpt lat="44.3126617" lon="10.756605"><ele>814.0</ele><time>2026-04-26T14:13:06.349Z</time></trkpt><trkpt lat="44.3125883" lon="10.7567567"><ele>813.5</ele><time>2026-04-26T14:13:07.349Z</time></trkpt><trkpt lat="44.312545" lon="10.7568933"><ele>813.0</ele><time>2026-04-26T14:13:08.349Z</time></trkpt><trkpt lat="44.312535" lon="10.757035"><ele>812.25</ele><time>2026-04-26T14:13:09.348Z</time></trkpt><trkpt lat="44.31254" lon="10.7571883"><ele>811.5</ele><time>2026-04-26T14:13:10.349Z</time></trkpt><trkpt lat="44.312575" lon="10.7573417"><ele>810.75</ele><time>2026-04-26T14:13:11.348Z</time></trkpt><trkpt lat="44.3126383" lon="10.7574867"><ele>810.0</ele><time>2026-04-26T14:13:12.348Z</time></trkpt><trkpt lat="44.3127133" lon="10.7576233"><ele>809.25</ele><time>2026-04-26T14:13:13.349Z</time></trkpt><trkpt lat="44.3128067" lon="10.7577517"><ele>808.5</ele><time>2026-04-26T14:13:14.348Z</time></trkpt><trkpt lat="44.31289" lon="10.75788"><ele>807.75</ele><time>2026-04-26T14:13:15.348Z</time></trkpt><trkpt lat="44.31297" lon="10.7580033"><ele>807.0</ele><time>2026-04-26T14:13:16.348Z</time></trkpt><trkpt lat="44.3130533" lon="10.7581267"><ele>805.8</ele><time>2026-04-26T14:13:17.348Z</time></trkpt><trkpt lat="44.3131217" lon="10.7582517"><ele>804.6</ele><time>2026-04-26T14:13:18.348Z</time></trkpt><trkpt lat="44.3131883" lon="10.75837"><ele>803.4</ele><time>2026-04-26T14:13:19.348Z</time></trkpt><trkpt lat="44.3132517" lon="10.7584817"><ele>802.1999999999999</ele><time>2026-04-26T14:13:20.348Z</time></trkpt><trkpt lat="44.3133033" lon="10.7585917"><ele>801.0</ele><time>2026-04-26T14:13:21.348Z</time></trkpt><trkpt lat="44.313335" lon="10.7586983"><ele>800.8333333333334</ele><time>2026-04-26T14:13:22.349Z</time></trkpt><trkpt lat="44.3133483" lon="10.7588083"><ele>800.6666666666667</ele><time>2026-04-26T14:13:23.348Z</time></trkpt><trkpt lat="44.3133283" lon="10.7589067"><ele>800.5</ele><time>2026-04-26T14:13:24.348Z</time></trkpt><trkpt lat="44.3132767" lon="10.759"><ele>800.3333333333334</ele><time>2026-04-26T14:13:25.348Z</time></trkpt><trkpt lat="44.3131917" lon="10.759075"><ele>800.1666666666667</ele><time>2026-04-26T14:13:26.349Z</time></trkpt><trkpt lat="44.3131117" lon="10.759145"><ele>800.0</ele><time>2026-04-26T14:13:27.348Z</time></trkpt><trkpt lat="44.31304" lon="10.7592233"><ele>800.0</ele><time>2026-04-26T14:13:28.348Z</time></trkpt><trkpt lat="44.312995" lon="10.759325"><ele>800.0</ele><time>2026-04-26T14:13:29.348Z</time></trkpt><trkpt lat="44.31297" lon="10.7594483"><ele>800.0</ele><time>2026-04-26T14:13:30.348Z</time></trkpt><trkpt lat="44.3129667" lon="10.759575"><ele>800.0</ele><time>2026-04-26T14:13:31.348Z</time></trkpt><trkpt lat="44.312985" lon="10.7597017"><ele>800.0</ele><time>2026-04-26T14:13:32.349Z</time></trkpt><trkpt lat="44.31302" lon="10.759835"><ele>798.25</ele><time>2026-04-26T14:13:33.348Z</time></trkpt><trkpt lat="44.3130683" lon="10.7599767"><ele>796.5</ele><time>2026-04-26T14:13:34.348Z</time></trkpt><trkpt lat="44.3131267" lon="10.7601183"><ele>794.75</ele><time>2026-04-26T14:13:35.348Z</time></trkpt><trkpt lat="44.3132" lon="10.7602467"><ele>793.0</ele><time>2026-04-26T14:13:36.348Z</time></trkpt><trkpt lat="44.3132667" lon="10.7603567"><ele>792.8</ele><time>2026-04-26T14:13:37.348Z</time></trkpt><trkpt lat="44.313325" lon="10.76046"><ele>792.5999999999999</ele><time>2026-04-26T14:13:38.348Z</time></trkpt><trkpt lat="44.3133683" lon="10.7605533"><ele>792.4000000000001</ele><time>2026-04-26T14:13:39.348Z</time></trkpt><trkpt lat="44.31339" lon="10.7606533"><ele>792.2</ele><time>2026-04-26T14:13:40.348Z</time></trkpt><trkpt lat="44.3133333" lon="10.7608167"><ele>792.0</ele><time>2026-04-26T14:13:42.348Z</time></trkpt><trkpt lat="44.3132517" lon="10.7609083"><ele>792.0</ele><time>2026-04-26T14:13:43.348Z</time></trkpt><trkpt lat="44.3131583" lon="10.7610017"><ele>792.0</ele><time>2026-04-26T14:13:44.348Z</time></trkpt><trkpt lat="44.313075" lon="10.7610983"><ele>792.0</ele><time>2026-04-26T14:13:45.348Z</time></trkpt><trkpt lat="44.3130117" lon="10.761205"><ele>792.0</ele><time>2026-04-26T14:13:46.348Z</time></trkpt><trkpt lat="44.3129683" lon="10.7613167"><ele>792.0</ele><time>2026-04-26T14:13:47.348Z</time></trkpt><trkpt lat="44.3129183" lon="10.7614267"><ele>791.6</ele><time>2026-04-26T14:13:48.348Z</time></trkpt><trkpt lat="44.312845" lon="10.761515"><ele>791.2</ele><time>2026-04-26T14:13:49.348Z</time></trkpt><trkpt lat="44.3127617" lon="10.7615933"><ele>790.8</ele><time>2026-04-26T14:13:50.348Z</time></trkpt><trkpt lat="44.31267" lon="10.7616517"><ele>790.4</ele><time>2026-04-26T14:13:51.348Z</time></trkpt><trkpt lat="44.3125817" lon="10.76171"><ele>790.0</ele><time>2026-04-26T14:13:52.348Z</time></trkpt><trkpt lat="44.3124917" lon="10.7617667"><ele>790.0</ele><time>2026-04-26T14:13:53.348Z</time></trkpt><trkpt lat="44.3124067" lon="10.7618583"><ele>790.0</ele><time>2026-04-26T14:13:54.348Z</time></trkpt><trkpt lat="44.312345" lon="10.7619717"><ele>790.0</ele><time>2026-04-26T14:13:55.348Z</time></trkpt><trkpt lat="44.3123183" lon="10.7621117"><ele>790.0</ele><time>2026-04-26T14:13:56.348Z</time></trkpt><trkpt lat="44.3123067" lon="10.7622683"><ele>790.0</ele><time>2026-04-26T14:13:57.348Z</time></trkpt><trkpt lat="44.3123267" lon="10.7624267"><ele>787.0</ele><time>2026-04-26T14:13:58.349Z</time></trkpt><trkpt lat="44.3123633" lon="10.76258"><ele>784.0</ele><time>2026-04-26T14:13:59.348Z</time></trkpt><trkpt lat="44.31242" lon="10.7627183"><ele>781.0</ele><time>2026-04-26T14:14:00.348Z</time></trkpt><trkpt lat="44.312475" lon="10.7628583"><ele>778.0</ele><time>2026-04-26T14:14:01.348Z</time></trkpt><trkpt lat="44.3125283" lon="10.76299"><ele>777.5999999999999</ele><time>2026-04-26T14:14:02.348Z</time></trkpt><trkpt lat="44.3125583" lon="10.7631167"><ele>777.1999999999999</ele><time>2026-04-26T14:14:03.348Z</time></trkpt><trkpt lat="44.312565" lon="10.7632433"><ele>776.8</ele><time>2026-04-26T14:14:04.349Z</time></trkpt><trkpt lat="44.3125367" lon="10.7633617"><ele>776.4</ele><time>2026-04-26T14:14:05.348Z</time></trkpt><trkpt lat="44.3124783" lon="10.7634867"><ele>776.0</ele><time>2026-04-26T14:14:06.348Z</time></trkpt><trkpt lat="44.3124083" lon="10.76361"><ele>776.0</ele><time>2026-04-26T14:14:07.348Z</time></trkpt><trkpt lat="44.31234" lon="10.7637333"><ele>776.0</ele><time>2026-04-26T14:14:08.348Z</time></trkpt><trkpt lat="44.3122867" lon="10.7638817"><ele>776.0</ele><time>2026-04-26T14:14:09.348Z</time></trkpt><trkpt lat="44.312245" lon="10.7640467"><ele>776.0</ele><time>2026-04-26T14:14:10.348Z</time></trkpt><trkpt lat="44.3122217" lon="10.7642183"><ele>774.25</ele><time>2026-04-26T14:14:11.348Z</time></trkpt><trkpt lat="44.3122033" lon="10.7643833"><ele>772.5</ele><time>2026-04-26T14:14:12.348Z</time></trkpt><trkpt lat="44.312195" lon="10.7645617"><ele>770.75</ele><time>2026-04-26T14:14:13.348Z</time></trkpt><trkpt lat="44.3121933" lon="10.7647317"><ele>769.0</ele><time>2026-04-26T14:14:14.348Z</time></trkpt><trkpt lat="44.31219" lon="10.7649"><ele>769.0</ele><time>2026-04-26T14:14:15.348Z</time></trkpt><trkpt lat="44.3121867" lon="10.765055"><ele>769.0</ele><time>2026-04-26T14:14:16.348Z</time></trkpt><trkpt lat="44.3121767" lon="10.765225"><ele>769.0</ele><time>2026-04-26T14:14:17.348Z</time></trkpt><trkpt lat="44.3121783" lon="10.7653833"><ele>769.0</ele><time>2026-04-26T14:14:18.348Z</time></trkpt><trkpt lat="44.3121633" lon="10.7655517"><ele>767.8000000000001</ele><time>2026-04-26T14:14:19.348Z</time></trkpt><trkpt lat="44.312145" lon="10.765695"><ele>766.6</ele><time>2026-04-26T14:14:20.348Z</time></trkpt><trkpt lat="44.3121183" lon="10.7658433"><ele>765.4</ele><time>2026-04-26T14:14:21.348Z</time></trkpt><trkpt lat="44.3120867" lon="10.76597"><ele>764.2</ele><time>2026-04-26T14:14:22.348Z</time></trkpt><trkpt lat="44.3120467" lon="10.76607"><ele>763.0</ele><time>2026-04-26T14:14:23.349Z</time></trkpt><trkpt lat="44.3119883" lon="10.7661567"><ele>762.6666666666667</ele><time>2026-04-26T14:14:24.348Z</time></trkpt><trkpt lat="44.31194" lon="10.7662333"><ele>762.3333333333334</ele><time>2026-04-26T14:14:25.348Z</time></trkpt><trkpt lat="44.311875" lon="10.766285"><ele>762.0</ele><time>2026-04-26T14:14:26.348Z</time></trkpt><trkpt lat="44.3117817" lon="10.766335"><ele>761.6666666666666</ele><time>2026-04-26T14:14:27.349Z</time></trkpt><trkpt lat="44.31172" lon="10.7663933"><ele>761.3333333333333</ele><time>2026-04-26T14:14:28.348Z</time></trkpt><trkpt lat="44.3116533" lon="10.7664483"><ele>761.0</ele><time>2026-04-26T14:14:29.348Z</time></trkpt><trkpt lat="44.311595" lon="10.7665167"><ele>761.0</ele><time>2026-04-26T14:14:30.348Z</time></trkpt><trkpt lat="44.311555" lon="10.7666167"><ele>761.0</ele><time>2026-04-26T14:14:31.348Z</time></trkpt><trkpt lat="44.3115417" lon="10.7667417"><ele>761.0</ele><time>2026-04-26T14:14:32.349Z</time></trkpt><trkpt lat="44.3115433" lon="10.7668867"><ele>761.0</ele><time>2026-04-26T14:14:33.348Z</time></trkpt><trkpt lat="44.3115417" lon="10.7670233"><ele>761.0</ele><time>2026-04-26T14:14:34.348Z</time></trkpt><trkpt lat="44.3115417" lon="10.76716"><ele>760.5999999999999</ele><time>2026-04-26T14:14:35.348Z</time></trkpt><trkpt lat="44.3115483" lon="10.7673"><ele>760.2</ele><time>2026-04-26T14:14:36.348Z</time></trkpt><trkpt lat="44.31156" lon="10.76745"><ele>759.8</ele><time>2026-04-26T14:14:37.348Z</time></trkpt><trkpt lat="44.3115917" lon="10.7676017"><ele>759.4000000000001</ele><time>2026-04-26T14:14:38.348Z</time></trkpt><trkpt lat="44.3116367" lon="10.76776"><ele>759.0</ele><time>2026-04-26T14:14:39.349Z</time></trkpt><trkpt lat="44.31169" lon="10.7679233"><ele>759.0</ele><time>2026-04-26T14:14:40.348Z</time></trkpt><trkpt lat="44.3117567" lon="10.768105"><ele>759.0</ele><time>2026-04-26T14:14:41.348Z</time></trkpt><trkpt lat="44.3118183" lon="10.7683017"><ele>759.0</ele><time>2026-04-26T14:14:42.348Z</time></trkpt><trkpt lat="44.31188" lon="10.7684967"><ele>759.0</ele><time>2026-04-26T14:14:43.348Z</time></trkpt><trkpt lat="44.31193" lon="10.768695"><ele>759.0</ele><time>2026-04-26T14:14:44.348Z</time></trkpt><trkpt lat="44.311975" lon="10.768885"><ele>759.0</ele><time>2026-04-26T14:14:45.348Z</time></trkpt><trkpt lat="44.3120083" lon="10.769065"><ele>759.0</ele><time>2026-04-26T14:14:46.348Z</time></trkpt><trkpt lat="44.3120517" lon="10.7692483"><ele>757.5</ele><time>2026-04-26T14:14:47.348Z</time></trkpt><trkpt lat="44.312095" lon="10.76944"><ele>756.0</ele><time>2026-04-26T14:14:48.348Z</time></trkpt><trkpt lat="44.3121167" lon="10.7696317"><ele>754.5</ele><time>2026-04-26T14:14:49.348Z</time></trkpt><trkpt lat="44.3121433" lon="10.769815"><ele>753.0</ele><time>2026-04-26T14:14:50.348Z</time></trkpt><trkpt lat="44.312165" lon="10.7700033"><ele>751.25</ele><time>2026-04-26T14:14:51.348Z</time></trkpt><trkpt lat="44.3121783" lon="10.7702017"><ele>749.5</ele><time>2026-04-26T14:14:52.348Z</time></trkpt><trkpt lat="44.3121817" lon="10.77041"><ele>747.75</ele><time>2026-04-26T14:14:53.348Z</time></trkpt><trkpt lat="44.31218" lon="10.7706117"><ele>746.0</ele><time>2026-04-26T14:14:54.348Z</time></trkpt><trkpt lat="44.312175" lon="10.7708117"><ele>746.0</ele><time>2026-04-26T14:14:55.348Z</time></trkpt><trkpt lat="44.31215" lon="10.7710117"><ele>746.0</ele><time>2026-04-26T14:14:56.348Z</time></trkpt><trkpt lat="44.31209" lon="10.77119"><ele>746.0</ele><time>2026-04-26T14:14:57.348Z</time></trkpt><trkpt lat="44.3120083" lon="10.7713617"><ele>746.0</ele><time>2026-04-26T14:14:58.348Z</time></trkpt><trkpt lat="44.31191" lon="10.77153"><ele>744.3333333333333</ele><time>2026-04-26T14:14:59.348Z</time></trkpt><trkpt lat="44.3118183" lon="10.7717133"><ele>742.6666666666666</ele><time>2026-04-26T14:15:00.348Z</time></trkpt><trkpt lat="44.3117333" lon="10.7719033"><ele>741.0</ele><time>2026-04-26T14:15:01.348Z</time></trkpt><trkpt lat="44.31166" lon="10.7721167"><ele>738.3333333333334</ele><time>2026-04-26T14:15:02.348Z</time></trkpt><trkpt lat="44.3115933" lon="10.772325"><ele>735.6666666666667</ele><time>2026-04-26T14:15:03.348Z</time></trkpt><trkpt lat="44.3115467" lon="10.77255"><ele>733.0</ele><time>2026-04-26T14:15:04.348Z</time></trkpt><trkpt lat="44.3115417" lon="10.7727967"><ele>732.3333333333334</ele><time>2026-04-26T14:15:05.348Z</time></trkpt><trkpt lat="44.3115433" lon="10.77306"><ele>731.6666666666666</ele><time>2026-04-26T14:15:06.348Z</time></trkpt><trkpt lat="44.31153" lon="10.7733617"><ele>731.0</ele><time>2026-04-26T14:15:07.348Z</time></trkpt><trkpt lat="44.3115283" lon="10.7736717"><ele>729.5</ele><time>2026-04-26T14:15:08.348Z</time></trkpt><trkpt lat="44.311525" lon="10.7739917"><ele>728.0</ele><time>2026-04-26T14:15:09.348Z</time></trkpt><trkpt lat="44.31156" lon="10.7743117"><ele>730.0</ele><time>2026-04-26T14:15:10.348Z</time></trkpt><trkpt lat="44.3116267" lon="10.774625"><ele>732.0</ele><time>2026-04-26T14:15:11.348Z</time></trkpt><trkpt lat="44.311695" lon="10.7749517"><ele>735.5</ele><time>2026-04-26T14:15:12.348Z</time></trkpt><trkpt lat="44.3117383" lon="10.7752817"><ele>739.0</ele><time>2026-04-26T14:15:13.348Z</time></trkpt><trkpt lat="44.31177" lon="10.7756017"><ele>739.0</ele><time>2026-04-26T14:15:14.348Z</time></trkpt><trkpt lat="44.3117717" lon="10.7759"><ele>739.0</ele><time>2026-04-26T14:15:15.348Z</time></trkpt><trkpt lat="44.3117383" lon="10.7761783"><ele>739.0</ele><time>2026-04-26T14:15:16.348Z</time></trkpt><trkpt lat="44.3116867" lon="10.77642"><ele>740.6666666666667</ele><time>2026-04-26T14:15:17.348Z</time></trkpt><trkpt lat="44.311605" lon="10.77662"><ele>742.3333333333334</ele><time>2026-04-26T14:15:18.348Z</time></trkpt><trkpt lat="44.311495" lon="10.776765"><ele>744.0</ele><time>2026-04-26T14:15:19.348Z</time></trkpt><trkpt lat="44.3113633" lon="10.77687"><ele>744.3333333333334</ele><time>2026-04-26T14:15:20.348Z</time></trkpt><trkpt lat="44.31123" lon="10.7769817"><ele>744.6666666666667</ele><time>2026-04-26T14:15:21.348Z</time></trkpt><trkpt lat="44.311125" lon="10.7771567"><ele>745.0</ele><time>2026-04-26T14:15:22.348Z</time></trkpt><trkpt lat="44.3110717" lon="10.7773517"><ele>745.0</ele><time>2026-04-26T14:15:23.348Z</time></trkpt><trkpt lat="44.31106" lon="10.7775783"><ele>745.0</ele><time>2026-04-26T14:15:24.348Z</time></trkpt><trkpt lat="44.3110783" lon="10.777835"><ele>745.0</ele><time>2026-04-26T14:15:25.348Z</time></trkpt><trkpt lat="44.3111017" lon="10.77812"><ele>745.0</ele><time>2026-04-26T14:15:26.348Z</time></trkpt><trkpt lat="44.311125" lon="10.778425"><ele>745.0</ele><time>2026-04-26T14:15:27.348Z</time></trkpt><trkpt lat="44.3111167" lon="10.778735"><ele>745.0</ele><time>2026-04-26T14:15:28.348Z</time></trkpt><trkpt lat="44.3110817" lon="10.7790033"><ele>745.6666666666667</ele><time>2026-04-26T14:15:29.348Z</time></trkpt><trkpt lat="44.3110133" lon="10.7792233"><ele>746.3333333333334</ele><time>2026-04-26T14:15:30.348Z</time></trkpt><trkpt lat="44.3109467" lon="10.7794183"><ele>747.0</ele><time>2026-04-26T14:15:31.348Z</time></trkpt><trkpt lat="44.31093" lon="10.77961"><ele>747.0</ele><time>2026-04-26T14:15:32.348Z</time></trkpt><trkpt lat="44.31097" lon="10.7797833"><ele>747.0</ele><time>2026-04-26T14:15:33.348Z</time></trkpt><trkpt lat="44.3110533" lon="10.7799333"><ele>747.0</ele><time>2026-04-26T14:15:34.348Z</time></trkpt><trkpt lat="44.3111783" lon="10.7800317"><ele>747.0</ele><time>2026-04-26T14:15:35.348Z</time></trkpt><trkpt lat="44.311345" lon="10.780165"><ele>746.6666666666666</ele><time>2026-04-26T14:15:36.348Z</time></trkpt><trkpt lat="44.3115083" lon="10.78035"><ele>746.3333333333333</ele><time>2026-04-26T14:15:37.348Z</time></trkpt><trkpt lat="44.31164" lon="10.78059"><ele>746.0</ele><time>2026-04-26T14:15:38.348Z</time></trkpt><trkpt lat="44.3117317" lon="10.7808783"><ele>744.3333333333333</ele><time>2026-04-26T14:15:39.348Z</time></trkpt><trkpt lat="44.31178" lon="10.7811683"><ele>742.6666666666666</ele><time>2026-04-26T14:15:40.348Z</time></trkpt><trkpt lat="44.31181" lon="10.7814633"><ele>741.0</ele><time>2026-04-26T14:15:41.348Z</time></trkpt><trkpt lat="44.3118333" lon="10.7817533"><ele>739.6666666666666</ele><time>2026-04-26T14:15:42.348Z</time></trkpt><trkpt lat="44.31183" lon="10.7820317"><ele>738.3333333333333</ele><time>2026-04-26T14:15:43.348Z</time></trkpt><trkpt lat="44.3118167" lon="10.782305"><ele>737.0</ele><time>2026-04-26T14:15:44.348Z</time></trkpt><trkpt lat="44.3118033" lon="10.7825833"><ele>737.6666666666666</ele><time>2026-04-26T14:15:45.348Z</time></trkpt><trkpt lat="44.311785" lon="10.7828533"><ele>738.3333333333334</ele><time>2026-04-26T14:15:46.348Z</time></trkpt><trkpt lat="44.31177" lon="10.7831067"><ele>739.0</ele><time>2026-04-26T14:15:47.348Z</time></trkpt><trkpt lat="44.3117667" lon="10.78336"><ele>739.6666666666667</ele><time>2026-04-26T14:15:48.348Z</time></trkpt><trkpt lat="44.3117833" lon="10.78362"><ele>740.3333333333334</ele><time>2026-04-26T14:15:49.348Z</time></trkpt><trkpt lat="44.3118133" lon="10.7838917"><ele>741.0</ele><time>2026-04-26T14:15:50.348Z</time></trkpt><trkpt lat="44.31186" lon="10.7841733"><ele>739.6666666666666</ele><time>2026-04-26T14:15:51.348Z</time></trkpt><trkpt lat="44.311915" lon="10.7844383"><ele>738.3333333333333</ele><time>2026-04-26T14:15:52.348Z</time></trkpt><trkpt lat="44.3119533" lon="10.7846817"><ele>737.0</ele><time>2026-04-26T14:15:53.348Z</time></trkpt><trkpt lat="44.3119917" lon="10.7849283"><ele>737.3333333333333</ele><time>2026-04-26T14:15:54.348Z</time></trkpt><trkpt lat="44.31202" lon="10.785185"><ele>737.6666666666666</ele><time>2026-04-26T14:15:55.348Z</time></trkpt><trkpt lat="44.3120133" lon="10.7854367"><ele>738.0</ele><time>2026-04-26T14:15:56.348Z</time></trkpt><trkpt lat="44.3119567" lon="10.785675"><ele>738.0</ele><time>2026-04-26T14:15:57.348Z</time></trkpt><trkpt lat="44.3118633" lon="10.78589"><ele>738.0</ele><time>2026-04-26T14:15:58.348Z</time></trkpt><trkpt lat="44.31177" lon="10.7861017"><ele>738.0</ele><time>2026-04-26T14:15:59.348Z</time></trkpt><trkpt lat="44.3116967" lon="10.7863183"><ele>739.6666666666666</ele><time>2026-04-26T14:16:00.348Z</time></trkpt><trkpt lat="44.3116517" lon="10.7865617"><ele>741.3333333333333</ele><time>2026-04-26T14:16:01.349Z</time></trkpt><trkpt lat="44.311625" lon="10.7868133"><ele>743.0</ele><time>2026-04-26T14:16:02.348Z</time></trkpt><trkpt lat="44.3115883" lon="10.7870433"><ele>743.3333333333333</ele><time>2026-04-26T14:16:03.348Z</time></trkpt><trkpt lat="44.3115533" lon="10.7872617"><ele>743.6666666666666</ele><time>2026-04-26T14:16:04.348Z</time></trkpt><trkpt lat="44.311515" lon="10.787465"><ele>744.0</ele><time>2026-04-26T14:16:05.348Z</time></trkpt><trkpt lat="44.3114667" lon="10.7876667"><ele>741.5</ele><time>2026-04-26T14:16:06.349Z</time></trkpt><trkpt lat="44.3113917" lon="10.7878433"><ele>739.0</ele><time>2026-04-26T14:16:07.348Z</time></trkpt><trkpt lat="44.3112967" lon="10.7879783"><ele>736.5</ele><time>2026-04-26T14:16:08.348Z</time></trkpt><trkpt lat="44.3112233" lon="10.7881067"><ele>734.0</ele><time>2026-04-26T14:16:09.348Z</time></trkpt><trkpt lat="44.3111817" lon="10.7882467"><ele>734.0</ele><time>2026-04-26T14:16:10.348Z</time></trkpt><trkpt lat="44.3111917" lon="10.7883833"><ele>734.0</ele><time>2026-04-26T14:16:11.348Z</time></trkpt><trkpt lat="44.31125" lon="10.788505"><ele>734.0</ele><time>2026-04-26T14:16:12.348Z</time></trkpt><trkpt lat="44.3113567" lon="10.78863"><ele>734.0</ele><time>2026-04-26T14:16:13.348Z</time></trkpt><trkpt lat="44.3114617" lon="10.78879"><ele>736.0</ele><time>2026-04-26T14:16:14.348Z</time></trkpt><trkpt lat="44.3115333" lon="10.7889717"><ele>738.0</ele><time>2026-04-26T14:16:15.348Z</time></trkpt><trkpt lat="44.3115483" lon="10.78918"><ele>740.0</ele><time>2026-04-26T14:16:16.348Z</time></trkpt><trkpt lat="44.311525" lon="10.7893983"><ele>740.0</ele><time>2026-04-26T14:16:17.348Z</time></trkpt><trkpt lat="44.3114717" lon="10.7895967"><ele>740.0</ele><time>2026-04-26T14:16:18.348Z</time></trkpt><trkpt lat="44.3114067" lon="10.7897683"><ele>740.0</ele><time>2026-04-26T14:16:19.348Z</time></trkpt><trkpt lat="44.3113567" lon="10.789955"><ele>740.0</ele><time>2026-04-26T14:16:20.348Z</time></trkpt><trkpt lat="44.3113467" lon="10.7901383"><ele>737.0</ele><time>2026-04-26T14:16:21.347Z</time></trkpt><trkpt lat="44.3113833" lon="10.79035"><ele>734.0</ele><time>2026-04-26T14:16:22.347Z</time></trkpt><trkpt lat="44.31145" lon="10.7905783"><ele>731.0</ele><time>2026-04-26T14:16:23.347Z</time></trkpt><trkpt lat="44.31152" lon="10.790825"><ele>729.3333333333333</ele><time>2026-04-26T14:16:24.347Z</time></trkpt><trkpt lat="44.3115833" lon="10.7910617"><ele>727.6666666666666</ele><time>2026-04-26T14:16:25.347Z</time></trkpt><trkpt lat="44.3116367" lon="10.7912933"><ele>726.0</ele><time>2026-04-26T14:16:26.347Z</time></trkpt><trkpt lat="44.311695" lon="10.7915117"><ele>726.0</ele><time>2026-04-26T14:16:27.348Z</time></trkpt><trkpt lat="44.31175" lon="10.7917233"><ele>726.0</ele><time>2026-04-26T14:16:28.347Z</time></trkpt><trkpt lat="44.3118033" lon="10.791935"><ele>726.0</ele><time>2026-04-26T14:16:29.347Z</time></trkpt><trkpt lat="44.3118483" lon="10.7921433"><ele>724.0</ele><time>2026-04-26T14:16:30.347Z</time></trkpt><trkpt lat="44.3118933" lon="10.79237"><ele>722.0</ele><time>2026-04-26T14:16:31.347Z</time></trkpt><trkpt lat="44.3119383" lon="10.7925867"><ele>720.0</ele><time>2026-04-26T14:16:32.347Z</time></trkpt><trkpt lat="44.3119883" lon="10.7928133"><ele>717.6666666666666</ele><time>2026-04-26T14:16:33.347Z</time></trkpt><trkpt lat="44.3120367" lon="10.793045"><ele>715.3333333333333</ele><time>2026-04-26T14:16:34.347Z</time></trkpt><trkpt lat="44.3120883" lon="10.7932783"><ele>713.0</ele><time>2026-04-26T14:16:35.347Z</time></trkpt><trkpt lat="44.3121433" lon="10.7935117"><ele>712.6666666666666</ele><time>2026-04-26T14:16:36.347Z</time></trkpt><trkpt lat="44.3122033" lon="10.7937517"><ele>712.3333333333334</ele><time>2026-04-26T14:16:37.347Z</time></trkpt><trkpt lat="44.3122633" lon="10.7939883"><ele>712.0</ele><time>2026-04-26T14:16:38.347Z</time></trkpt><trkpt lat="44.31233" lon="10.79423"><ele>714.3333333333334</ele><time>2026-04-26T14:16:39.347Z</time></trkpt><trkpt lat="44.312415" lon="10.794485"><ele>716.6666666666666</ele><time>2026-04-26T14:16:40.347Z</time></trkpt><trkpt lat="44.312515" lon="10.7947283"><ele>719.0</ele><time>2026-04-26T14:16:41.347Z</time></trkpt><trkpt lat="44.31264" lon="10.7949733"><ele>717.0</ele><time>2026-04-26T14:16:42.347Z</time></trkpt><trkpt lat="44.3127733" lon="10.7952217"><ele>715.0</ele><time>2026-04-26T14:16:43.347Z</time></trkpt><trkpt lat="44.3129083" lon="10.7954583"><ele>713.0</ele><time>2026-04-26T14:16:44.347Z</time></trkpt><trkpt lat="44.3130367" lon="10.7956933"><ele>714.3333333333333</ele><time>2026-04-26T14:16:45.347Z</time></trkpt><trkpt lat="44.3131583" lon="10.7959283"><ele>715.6666666666666</ele><time>2026-04-26T14:16:46.347Z</time></trkpt><trkpt lat="44.3132817" lon="10.796155"><ele>717.0</ele><time>2026-04-26T14:16:47.347Z</time></trkpt><trkpt lat="44.3134017" lon="10.7963767"><ele>717.0</ele><time>2026-04-26T14:16:48.347Z</time></trkpt><trkpt lat="44.3135333" lon="10.7965867"><ele>717.0</ele><time>2026-04-26T14:16:49.347Z</time></trkpt><trkpt lat="44.31367" lon="10.796805"><ele>717.0</ele><time>2026-04-26T14:16:50.347Z</time></trkpt><trkpt lat="44.3138033" lon="10.7970133"><ele>717.0</ele><time>2026-04-26T14:16:51.347Z</time></trkpt><trkpt lat="44.3139417" lon="10.7972233"><ele>717.0</ele><time>2026-04-26T14:16:52.347Z</time></trkpt><trkpt lat="44.3140833" lon="10.79742"><ele>717.0</ele><time>2026-04-26T14:16:53.347Z</time></trkpt><trkpt lat="44.3142217" lon="10.7976"><ele>714.0</ele><time>2026-04-26T14:16:54.347Z</time></trkpt><trkpt lat="44.3143667" lon="10.7977817"><ele>711.0</ele><time>2026-04-26T14:16:55.347Z</time></trkpt><trkpt lat="44.3145067" lon="10.7979467"><ele>708.0</ele><time>2026-04-26T14:16:56.347Z</time></trkpt><trkpt lat="44.31464" lon="10.7981067"><ele>708.6666666666666</ele><time>2026-04-26T14:16:57.347Z</time></trkpt><trkpt lat="44.31477" lon="10.7982683"><ele>709.3333333333333</ele><time>2026-04-26T14:16:58.348Z</time></trkpt><trkpt lat="44.3148917" lon="10.7984333"><ele>710.0</ele><time>2026-04-26T14:16:59.347Z</time></trkpt><trkpt lat="44.3150117" lon="10.79861"><ele>710.0</ele><time>2026-04-26T14:17:00.347Z</time></trkpt><trkpt lat="44.3150883" lon="10.798805"><ele>710.0</ele><time>2026-04-26T14:17:01.347Z</time></trkpt><trkpt lat="44.31515" lon="10.7989933"><ele>710.0</ele><time>2026-04-26T14:17:02.347Z</time></trkpt><trkpt lat="44.3152017" lon="10.7991667"><ele>710.0</ele><time>2026-04-26T14:17:03.347Z</time></trkpt><trkpt lat="44.3152417" lon="10.7993417"><ele>708.75</ele><time>2026-04-26T14:17:04.347Z</time></trkpt><trkpt lat="44.315265" lon="10.7995083"><ele>707.5</ele><time>2026-04-26T14:17:05.347Z</time></trkpt><trkpt lat="44.3152667" lon="10.7996833"><ele>706.25</ele><time>2026-04-26T14:17:06.347Z</time></trkpt><trkpt lat="44.315235" lon="10.7998467"><ele>705.0</ele><time>2026-04-26T14:17:07.347Z</time></trkpt><trkpt lat="44.3151817" lon="10.8000167"><ele>706.0</ele><time>2026-04-26T14:17:08.348Z</time></trkpt><trkpt lat="44.3151233" lon="10.8002017"><ele>707.0</ele><time>2026-04-26T14:17:09.347Z</time></trkpt><trkpt lat="44.3150617" lon="10.8003767"><ele>708.0</ele><time>2026-04-26T14:17:10.347Z</time></trkpt><trkpt lat="44.3150083" lon="10.8006117"><ele>708.0</ele><time>2026-04-26T14:17:11.347Z</time></trkpt><trkpt lat="44.31495" lon="10.8008617"><ele>708.0</ele><time>2026-04-26T14:17:12.347Z</time></trkpt><trkpt lat="44.3148833" lon="10.801095"><ele>708.0</ele><time>2026-04-26T14:17:13.347Z</time></trkpt><trkpt lat="44.3148117" lon="10.80132"><ele>710.3333333333334</ele><time>2026-04-26T14:17:14.347Z</time></trkpt><trkpt lat="44.3147583" lon="10.8015133"><ele>712.6666666666667</ele><time>2026-04-26T14:17:15.347Z</time></trkpt><trkpt lat="44.3147483" lon="10.8017233"><ele>715.0</ele><time>2026-04-26T14:17:16.347Z</time></trkpt><trkpt lat="44.3147783" lon="10.801955"><ele>715.0</ele><time>2026-04-26T14:17:17.347Z</time></trkpt><trkpt lat="44.3148467" lon="10.8022133"><ele>715.0</ele><time>2026-04-26T14:17:18.347Z</time></trkpt><trkpt lat="44.31492" lon="10.8024717"><ele>715.0</ele><time>2026-04-26T14:17:19.347Z</time></trkpt><trkpt lat="44.3150017" lon="10.8027533"><ele>714.3333333333334</ele><time>2026-04-26T14:17:20.347Z</time></trkpt><trkpt lat="44.3150633" lon="10.8030317"><ele>713.6666666666666</ele><time>2026-04-26T14:17:21.347Z</time></trkpt><trkpt lat="44.3150933" lon="10.803285"><ele>713.0</ele><time>2026-04-26T14:17:22.347Z</time></trkpt><trkpt lat="44.3151033" lon="10.8035617"><ele>713.0</ele><time>2026-04-26T14:17:23.347Z</time></trkpt><trkpt lat="44.3151117" lon="10.8038267"><ele>713.0</ele><time>2026-04-26T14:17:24.347Z</time></trkpt><trkpt lat="44.3151417" lon="10.8040717"><ele>713.0</ele><time>2026-04-26T14:17:25.347Z</time></trkpt><trkpt lat="44.3151833" lon="10.8042867"><ele>711.75</ele><time>2026-04-26T14:17:26.348Z</time></trkpt><trkpt lat="44.3152467" lon="10.8044717"><ele>710.5</ele><time>2026-04-26T14:17:27.347Z</time></trkpt><trkpt lat="44.315345" lon="10.804615"><ele>709.25</ele><time>2026-04-26T14:17:28.347Z</time></trkpt><trkpt lat="44.315485" lon="10.8047217"><ele>708.0</ele><time>2026-04-26T14:17:29.347Z</time></trkpt><trkpt lat="44.3156417" lon="10.8048"><ele>712.3333333333334</ele><time>2026-04-26T14:17:30.347Z</time></trkpt><trkpt lat="44.3158083" lon="10.8048733"><ele>716.6666666666667</ele><time>2026-04-26T14:17:31.347Z</time></trkpt><trkpt lat="44.3159717" lon="10.8049633"><ele>721.0</ele><time>2026-04-26T14:17:32.347Z</time></trkpt><trkpt lat="44.31613" lon="10.8050583"><ele>721.0</ele><time>2026-04-26T14:17:33.347Z</time></trkpt><trkpt lat="44.3162783" lon="10.8051517"><ele>721.0</ele><time>2026-04-26T14:17:34.347Z</time></trkpt><trkpt lat="44.3164167" lon="10.80525"><ele>721.0</ele><time>2026-04-26T14:17:35.347Z</time></trkpt><trkpt lat="44.316545" lon="10.805355"><ele>721.0</ele><time>2026-04-26T14:17:36.347Z</time></trkpt><trkpt lat="44.3166617" lon="10.8054933"><ele>721.0</ele><time>2026-04-26T14:17:37.347Z</time></trkpt><trkpt lat="44.3167567" lon="10.805655"><ele>721.0</ele><time>2026-04-26T14:17:38.347Z</time></trkpt><trkpt lat="44.3168383" lon="10.80586"><ele>718.0</ele><time>2026-04-26T14:17:39.347Z</time></trkpt><trkpt lat="44.316915" lon="10.80608"><ele>715.0</ele><time>2026-04-26T14:17:40.347Z</time></trkpt><trkpt lat="44.316995" lon="10.806315"><ele>712.0</ele><time>2026-04-26T14:17:41.347Z</time></trkpt><trkpt lat="44.3170633" lon="10.80655"><ele>712.0</ele><time>2026-04-26T14:17:42.347Z</time></trkpt><trkpt lat="44.3171367" lon="10.8067933"><ele>712.0</ele><time>2026-04-26T14:17:43.347Z</time></trkpt><trkpt lat="44.3171983" lon="10.8070283"><ele>712.0</ele><time>2026-04-26T14:17:44.347Z</time></trkpt><trkpt lat="44.3172583" lon="10.8072683"><ele>713.0</ele><time>2026-04-26T14:17:45.347Z</time></trkpt><trkpt lat="44.31731" lon="10.8074967"><ele>714.0</ele><time>2026-04-26T14:17:46.347Z</time></trkpt><trkpt lat="44.31735" lon="10.8077283"><ele>715.0</ele><time>2026-04-26T14:17:47.347Z</time></trkpt><trkpt lat="44.3173717" lon="10.807955"><ele>713.6666666666667</ele><time>2026-04-26T14:17:48.347Z</time></trkpt><trkpt lat="44.3173433" lon="10.8081367"><ele>712.3333333333334</ele><time>2026-04-26T14:17:49.347Z</time></trkpt><trkpt lat="44.3173033" lon="10.8083483"><ele>711.0</ele><time>2026-04-26T14:17:50.347Z</time></trkpt><trkpt lat="44.3172267" lon="10.8085517"><ele>711.0</ele><time>2026-04-26T14:17:51.347Z</time></trkpt><trkpt lat="44.31716" lon="10.808765"><ele>711.0</ele><time>2026-04-26T14:17:52.348Z</time></trkpt><trkpt lat="44.317075" lon="10.8089417"><ele>711.0</ele><time>2026-04-26T14:17:53.347Z</time></trkpt><trkpt lat="44.31703" lon="10.809175"><ele>710.75</ele><time>2026-04-26T14:17:54.347Z</time></trkpt><trkpt lat="44.3169983" lon="10.8093833"><ele>710.5</ele><time>2026-04-26T14:17:55.347Z</time></trkpt><trkpt lat="44.316995" lon="10.809595"><ele>710.25</ele><time>2026-04-26T14:17:56.347Z</time></trkpt><trkpt lat="44.31701" lon="10.809795"><ele>710.0</ele><time>2026-04-26T14:17:57.347Z</time></trkpt><trkpt lat="44.3170383" lon="10.8099917"><ele>710.6</ele><time>2026-04-26T14:17:58.347Z</time></trkpt><trkpt lat="44.3170633" lon="10.810175"><ele>711.2</ele><time>2026-04-26T14:17:59.347Z</time></trkpt><trkpt lat="44.3170867" lon="10.8103433"><ele>711.8</ele><time>2026-04-26T14:18:00.347Z</time></trkpt><trkpt lat="44.317105" lon="10.810475"><ele>712.4</ele><time>2026-04-26T14:18:01.347Z</time></trkpt><trkpt lat="44.3171117" lon="10.8105967"><ele>713.0</ele><time>2026-04-26T14:18:02.347Z</time></trkpt><trkpt lat="44.3171383" lon="10.8106967"><ele>713.0</ele><time>2026-04-26T14:18:03.347Z</time></trkpt><trkpt lat="44.3171933" lon="10.8107617"><ele>713.0</ele><time>2026-04-26T14:18:04.347Z</time></trkpt><trkpt lat="44.3172583" lon="10.8108033"><ele>713.0</ele><time>2026-04-26T14:18:05.347Z</time></trkpt><trkpt lat="44.317335" lon="10.810805"><ele>713.0</ele><time>2026-04-26T14:18:06.347Z</time></trkpt><trkpt lat="44.31742" lon="10.8108183"><ele>713.0</ele><time>2026-04-26T14:18:07.347Z</time></trkpt><trkpt lat="44.3175083" lon="10.81085"><ele>713.0</ele><time>2026-04-26T14:18:08.347Z</time></trkpt><trkpt lat="44.3176017" lon="10.8109117"><ele>718.5</ele><time>2026-04-26T14:18:09.347Z</time></trkpt><trkpt lat="44.3177083" lon="10.8110083"><ele>724.0</ele><time>2026-04-26T14:18:10.347Z</time></trkpt><trkpt lat="44.317835" lon="10.8111217"><ele>729.5</ele><time>2026-04-26T14:18:11.347Z</time></trkpt><trkpt lat="44.317985" lon="10.8112217"><ele>735.0</ele><time>2026-04-26T14:18:12.348Z</time></trkpt><trkpt lat="44.3181317" lon="10.81129"><ele>735.0</ele><time>2026-04-26T14:18:13.347Z</time></trkpt><trkpt lat="44.3182767" lon="10.8113133"><ele>735.0</ele><time>2026-04-26T14:18:14.347Z</time></trkpt><trkpt lat="44.3184217" lon="10.8113083"><ele>735.0</ele><time>2026-04-26T14:18:15.347Z</time></trkpt><trkpt lat="44.3185633" lon="10.8112983"><ele>735.0</ele><time>2026-04-26T14:18:16.347Z</time></trkpt><trkpt lat="44.318695" lon="10.8113133"><ele>735.0</ele><time>2026-04-26T14:18:17.347Z</time></trkpt><trkpt lat="44.3188117" lon="10.8113883"><ele>735.0</ele><time>2026-04-26T14:18:18.347Z</time></trkpt><trkpt lat="44.3189183" lon="10.8115033"><ele>735.0</ele><time>2026-04-26T14:18:19.347Z</time></trkpt><trkpt lat="44.3190217" lon="10.8116217"><ele>735.0</ele><time>2026-04-26T14:18:20.347Z</time></trkpt><trkpt lat="44.31914" lon="10.8117017"><ele>732.75</ele><time>2026-04-26T14:18:21.347Z</time></trkpt><trkpt lat="44.31927" lon="10.8117367"><ele>730.5</ele><time>2026-04-26T14:18:22.347Z</time></trkpt><trkpt lat="44.31941" lon="10.8117467"><ele>728.25</ele><time>2026-04-26T14:18:23.348Z</time></trkpt><trkpt lat="44.3195433" lon="10.8117583"><ele>726.0</ele><time>2026-04-26T14:18:24.347Z</time></trkpt><trkpt lat="44.3196717" lon="10.8117567"><ele>725.0</ele><time>2026-04-26T14:18:25.347Z</time></trkpt><trkpt lat="44.3197967" lon="10.8117567"><ele>724.0</ele><time>2026-04-26T14:18:26.347Z</time></trkpt><trkpt lat="44.3198983" lon="10.8117117"><ele>723.0</ele><time>2026-04-26T14:18:27.347Z</time></trkpt><trkpt lat="44.3199933" lon="10.8116383"><ele>722.0</ele><time>2026-04-26T14:18:28.347Z</time></trkpt><trkpt lat="44.3200733" lon="10.811555"><ele>721.0</ele><time>2026-04-26T14:18:29.347Z</time></trkpt><trkpt lat="44.32015" lon="10.811445"><ele>721.0</ele><time>2026-04-26T14:18:30.347Z</time></trkpt><trkpt lat="44.3202267" lon="10.8113517"><ele>721.0</ele><time>2026-04-26T14:18:31.347Z</time></trkpt><trkpt lat="44.3203117" lon="10.8112767"><ele>721.0</ele><time>2026-04-26T14:18:32.347Z</time></trkpt><trkpt lat="44.3203983" lon="10.81123"><ele>721.0</ele><time>2026-04-26T14:18:33.347Z</time></trkpt><trkpt lat="44.3204917" lon="10.8112167"><ele>721.0</ele><time>2026-04-26T14:18:34.347Z</time></trkpt><trkpt lat="44.3205967" lon="10.8112367"><ele>721.0</ele><time>2026-04-26T14:18:35.347Z</time></trkpt><trkpt lat="44.3207117" lon="10.8113067"><ele>721.0</ele><time>2026-04-26T14:18:36.348Z</time></trkpt><trkpt lat="44.3208383" lon="10.8114133"><ele>721.0</ele><time>2026-04-26T14:18:37.347Z</time></trkpt><trkpt lat="44.3209883" lon="10.81154"><ele>721.0</ele><time>2026-04-26T14:18:38.347Z</time></trkpt><trkpt lat="44.321165" lon="10.811645"><ele>721.0</ele><time>2026-04-26T14:18:39.347Z</time></trkpt><trkpt lat="44.3213467" lon="10.8117417"><ele>721.0</ele><time>2026-04-26T14:18:40.348Z</time></trkpt><trkpt lat="44.3215217" lon="10.811835"><ele>721.0</ele><time>2026-04-26T14:18:41.347Z</time></trkpt><trkpt lat="44.3216867" lon="10.8119317"><ele>723.0</ele><time>2026-04-26T14:18:42.347Z</time></trkpt><trkpt lat="44.3218333" lon="10.8120717"><ele>725.0</ele><time>2026-04-26T14:18:43.347Z</time></trkpt><trkpt lat="44.32197" lon="10.8122633"><ele>727.0</ele><time>2026-04-26T14:18:44.347Z</time></trkpt><trkpt lat="44.32208" lon="10.81246"><ele>727.0</ele><time>2026-04-26T14:18:45.347Z</time></trkpt><trkpt lat="44.3221883" lon="10.812615"><ele>727.0</ele><time>2026-04-26T14:18:46.347Z</time></trkpt><trkpt lat="44.3223233" lon="10.8127117"><ele>727.0</ele><time>2026-04-26T14:18:47.347Z</time></trkpt><trkpt lat="44.3224967" lon="10.8127567"><ele>729.3333333333334</ele><time>2026-04-26T14:18:48.347Z</time></trkpt><trkpt lat="44.3226733" lon="10.8127417"><ele>731.6666666666666</ele><time>2026-04-26T14:18:49.347Z</time></trkpt><trkpt lat="44.32286" lon="10.81275"><ele>734.0</ele><time>2026-04-26T14:18:50.347Z</time></trkpt><trkpt lat="44.323045" lon="10.8128167"><ele>734.3333333333333</ele><time>2026-04-26T14:18:51.348Z</time></trkpt><trkpt lat="44.3232333" lon="10.8129283"><ele>734.6666666666666</ele><time>2026-04-26T14:18:52.347Z</time></trkpt><trkpt lat="44.323405" lon="10.8130433"><ele>735.0</ele><time>2026-04-26T14:18:53.347Z</time></trkpt><trkpt lat="44.3235683" lon="10.81312"><ele>735.0</ele><time>2026-04-26T14:18:54.347Z</time></trkpt><trkpt lat="44.32372" lon="10.813175"><ele>735.0</ele><time>2026-04-26T14:18:55.347Z</time></trkpt><trkpt lat="44.3238683" lon="10.8132283"><ele>735.0</ele><time>2026-04-26T14:18:56.347Z</time></trkpt><trkpt lat="44.324025" lon="10.81327"><ele>736.6666666666666</ele><time>2026-04-26T14:18:57.347Z</time></trkpt><trkpt lat="44.3242017" lon="10.8132917"><ele>738.3333333333333</ele><time>2026-04-26T14:18:58.347Z</time></trkpt><trkpt lat="44.3243733" lon="10.8132733"><ele>740.0</ele><time>2026-04-26T14:18:59.347Z</time></trkpt><trkpt lat="44.32457" lon="10.8132367"><ele>742.0</ele><time>2026-04-26T14:19:00.347Z</time></trkpt><trkpt lat="44.32477" lon="10.8132083"><ele>744.0</ele><time>2026-04-26T14:19:01.347Z</time></trkpt><trkpt lat="44.3249667" lon="10.8132133"><ele>746.0</ele><time>2026-04-26T14:19:02.347Z</time></trkpt><trkpt lat="44.3251567" lon="10.813235"><ele>746.0</ele><time>2026-04-26T14:19:03.347Z</time></trkpt><trkpt lat="44.3253217" lon="10.81327"><ele>746.0</ele><time>2026-04-26T14:19:04.347Z</time></trkpt><trkpt lat="44.3254867" lon="10.8133017"><ele>746.0</ele><time>2026-04-26T14:19:05.347Z</time></trkpt><trkpt lat="44.325655" lon="10.8132933"><ele>748.6666666666666</ele><time>2026-04-26T14:19:06.347Z</time></trkpt><trkpt lat="44.325825" lon="10.8132533"><ele>751.3333333333334</ele><time>2026-04-26T14:19:07.348Z</time></trkpt><trkpt lat="44.32599" lon="10.8131833"><ele>754.0</ele><time>2026-04-26T14:19:08.347Z</time></trkpt><trkpt lat="44.3261383" lon="10.8131083"><ele>754.0</ele><time>2026-04-26T14:19:09.347Z</time></trkpt><trkpt lat="44.3262883" lon="10.8130567"><ele>754.0</ele><time>2026-04-26T14:19:10.347Z</time></trkpt><trkpt lat="44.3264283" lon="10.813045"><ele>754.0</ele><time>2026-04-26T14:19:11.347Z</time></trkpt><trkpt lat="44.3265683" lon="10.8130783"><ele>754.0</ele><time>2026-04-26T14:19:12.347Z</time></trkpt><trkpt lat="44.3267083" lon="10.8131517"><ele>754.0</ele><time>2026-04-26T14:19:13.347Z</time></trkpt><trkpt lat="44.3268233" lon="10.8132867"><ele>754.0</ele><time>2026-04-26T14:19:14.347Z</time></trkpt><trkpt lat="44.32691" lon="10.8134583"><ele>754.0</ele><time>2026-04-26T14:19:15.347Z</time></trkpt><trkpt lat="44.3269667" lon="10.8136533"><ele>757.3333333333334</ele><time>2026-04-26T14:19:16.347Z</time></trkpt><trkpt lat="44.3270133" lon="10.8138633"><ele>760.6666666666666</ele><time>2026-04-26T14:19:17.347Z</time></trkpt><trkpt lat="44.327065" lon="10.8140633"><ele>764.0</ele><time>2026-04-26T14:19:18.347Z</time></trkpt><trkpt lat="44.3271333" lon="10.8142633"><ele>762.3333333333333</ele><time>2026-04-26T14:19:19.348Z</time></trkpt><trkpt lat="44.3272317" lon="10.8144383"><ele>760.6666666666666</ele><time>2026-04-26T14:19:20.347Z</time></trkpt><trkpt lat="44.327365" lon="10.8145817"><ele>759.0</ele><time>2026-04-26T14:19:21.348Z</time></trkpt><trkpt lat="44.32751" lon="10.8146933"><ele>759.0</ele><time>2026-04-26T14:19:22.347Z</time></trkpt><trkpt lat="44.32766" lon="10.8147633"><ele>759.0</ele><time>2026-04-26T14:19:23.347Z</time></trkpt><trkpt lat="44.32781" lon="10.8147783"><ele>759.0</ele><time>2026-04-26T14:19:24.347Z</time></trkpt><trkpt lat="44.3279583" lon="10.8147433"><ele>760.6666666666666</ele><time>2026-04-26T14:19:25.347Z</time></trkpt><trkpt lat="44.3281033" lon="10.8146533"><ele>762.3333333333333</ele><time>2026-04-26T14:19:26.347Z</time></trkpt><trkpt lat="44.3282433" lon="10.8145283"><ele>764.0</ele><time>2026-04-26T14:19:27.347Z</time></trkpt><trkpt lat="44.3283583" lon="10.8143833"><ele>759.0</ele><time>2026-04-26T14:19:28.347Z</time></trkpt><trkpt lat="44.328465" lon="10.8142533"><ele>754.0</ele><time>2026-04-26T14:19:29.347Z</time></trkpt><trkpt lat="44.3285717" lon="10.8141467"><ele>749.0</ele><time>2026-04-26T14:19:30.347Z</time></trkpt><trkpt lat="44.328695" lon="10.814075"><ele>744.0</ele><time>2026-04-26T14:19:31.346Z</time></trkpt><trkpt lat="44.328825" lon="10.8140517"><ele>745.75</ele><time>2026-04-26T14:19:32.347Z</time></trkpt><trkpt lat="44.3289567" lon="10.81409"><ele>747.5</ele><time>2026-04-26T14:19:33.346Z</time></trkpt><trkpt lat="44.3290683" lon="10.81417"><ele>749.25</ele><time>2026-04-26T14:19:34.347Z</time></trkpt><trkpt lat="44.3291567" lon="10.814305"><ele>751.0</ele><time>2026-04-26T14:19:35.346Z</time></trkpt><trkpt lat="44.329245" lon="10.8144667"><ele>751.0</ele><time>2026-04-26T14:19:36.346Z</time></trkpt><trkpt lat="44.32934" lon="10.8146167"><ele>751.0</ele><time>2026-04-26T14:19:37.346Z</time></trkpt><trkpt lat="44.3294567" lon="10.814725"><ele>751.0</ele><time>2026-04-26T14:19:38.347Z</time></trkpt><trkpt lat="44.329595" lon="10.8147617"><ele>751.0</ele><time>2026-04-26T14:19:39.347Z</time></trkpt><trkpt lat="44.329755" lon="10.8147617"><ele>747.0</ele><time>2026-04-26T14:19:40.346Z</time></trkpt><trkpt lat="44.3299433" lon="10.8147183"><ele>743.0</ele><time>2026-04-26T14:19:41.346Z</time></trkpt><trkpt lat="44.33014" lon="10.8146683"><ele>739.0</ele><time>2026-04-26T14:19:42.346Z</time></trkpt><trkpt lat="44.3303267" lon="10.8146583"><ele>739.0</ele><time>2026-04-26T14:19:43.346Z</time></trkpt><trkpt lat="44.3305133" lon="10.8146733"><ele>739.0</ele><time>2026-04-26T14:19:44.346Z</time></trkpt><trkpt lat="44.3306933" lon="10.8147233"><ele>739.0</ele><time>2026-04-26T14:19:45.346Z</time></trkpt><trkpt lat="44.3308683" lon="10.8148"><ele>736.6666666666667</ele><time>2026-04-26T14:19:46.346Z</time></trkpt><trkpt lat="44.331035" lon="10.814875"><ele>734.3333333333334</ele><time>2026-04-26T14:19:47.346Z</time></trkpt><trkpt lat="44.331195" lon="10.81494"><ele>732.0</ele><time>2026-04-26T14:19:48.346Z</time></trkpt><trkpt lat="44.331355" lon="10.8149683"><ele>730.6666666666666</ele><time>2026-04-26T14:19:49.346Z</time></trkpt><trkpt lat="44.331515" lon="10.8149617"><ele>729.3333333333333</ele><time>2026-04-26T14:19:50.346Z</time></trkpt><trkpt lat="44.3316783" lon="10.8149267"><ele>728.0</ele><time>2026-04-26T14:19:51.346Z</time></trkpt><trkpt lat="44.3318383" lon="10.814885"><ele>728.0</ele><time>2026-04-26T14:19:52.346Z</time></trkpt><trkpt lat="44.3319933" lon="10.8148317"><ele>728.0</ele><time>2026-04-26T14:19:53.346Z</time></trkpt><trkpt lat="44.3321417" lon="10.8147817"><ele>728.0</ele><time>2026-04-26T14:19:54.347Z</time></trkpt><trkpt lat="44.332285" lon="10.8147167"><ele>731.3333333333333</ele><time>2026-04-26T14:19:55.346Z</time></trkpt><trkpt lat="44.3324233" lon="10.81461"><ele>734.6666666666666</ele><time>2026-04-26T14:19:56.346Z</time></trkpt><trkpt lat="44.332555" lon="10.8144867"><ele>738.0</ele><time>2026-04-26T14:19:57.346Z</time></trkpt><trkpt lat="44.332685" lon="10.8143817"><ele>738.0</ele><time>2026-04-26T14:19:58.346Z</time></trkpt><trkpt lat="44.3328217" lon="10.8143233"><ele>738.0</ele><time>2026-04-26T14:19:59.346Z</time></trkpt><trkpt lat="44.3329667" lon="10.8142933"><ele>738.0</ele><time>2026-04-26T14:20:00.346Z</time></trkpt><trkpt lat="44.333105" lon="10.81428"><ele>738.0</ele><time>2026-04-26T14:20:01.346Z</time></trkpt><trkpt lat="44.33323" lon="10.8142717"><ele>736.5</ele><time>2026-04-26T14:20:02.346Z</time></trkpt><trkpt lat="44.3333583" lon="10.8142617"><ele>735.0</ele><time>2026-04-26T14:20:03.346Z</time></trkpt><trkpt lat="44.33348" lon="10.814245"><ele>733.5</ele><time>2026-04-26T14:20:04.346Z</time></trkpt><trkpt lat="44.3336067" lon="10.8142317"><ele>732.0</ele><time>2026-04-26T14:20:05.346Z</time></trkpt><trkpt lat="44.3337383" lon="10.8142267"><ele>732.0</ele><time>2026-04-26T14:20:06.346Z</time></trkpt><trkpt lat="44.33387" lon="10.8142367"><ele>732.0</ele><time>2026-04-26T14:20:07.347Z</time></trkpt><trkpt lat="44.334005" lon="10.8142467"><ele>732.0</ele><time>2026-04-26T14:20:08.346Z</time></trkpt><trkpt lat="44.3341367" lon="10.81426"><ele>732.0</ele><time>2026-04-26T14:20:09.346Z</time></trkpt><trkpt lat="44.3342617" lon="10.8142817"><ele>732.6</ele><time>2026-04-26T14:20:10.346Z</time></trkpt><trkpt lat="44.3343733" lon="10.8142967"><ele>733.2</ele><time>2026-04-26T14:20:11.346Z</time></trkpt><trkpt lat="44.3344817" lon="10.81431"><ele>733.8</ele><time>2026-04-26T14:20:12.346Z</time></trkpt><trkpt lat="44.3345867" lon="10.8143133"><ele>734.4</ele><time>2026-04-26T14:20:13.346Z</time></trkpt><trkpt lat="44.3346833" lon="10.81431"><ele>735.0</ele><time>2026-04-26T14:20:14.346Z</time></trkpt><trkpt lat="44.3347633" lon="10.814295"><ele>735.8</ele><time>2026-04-26T14:20:15.346Z</time></trkpt><trkpt lat="44.3348317" lon="10.8142783"><ele>736.6</ele><time>2026-04-26T14:20:16.346Z</time></trkpt><trkpt lat="44.3349317" lon="10.8142617"><ele>737.4000000000001</ele><time>2026-04-26T14:20:18.346Z</time></trkpt><trkpt lat="44.3350283" lon="10.8142867"><ele>738.2</ele><time>2026-04-26T14:20:20.346Z</time></trkpt><trkpt lat="44.3351217" lon="10.8143483"><ele>739.0</ele><time>2026-04-26T14:20:22.346Z</time></trkpt><trkpt lat="44.3352233" lon="10.8144017"><ele>739.0</ele><time>2026-04-26T14:20:24.346Z</time></trkpt><trkpt lat="44.335325" lon="10.81444"><ele>739.0</ele><time>2026-04-26T14:20:26.346Z</time></trkpt><trkpt lat="44.3354267" lon="10.8144733"><ele>739.0</ele><time>2026-04-26T14:20:28.346Z</time></trkpt><trkpt lat="44.3355217" lon="10.8144967"><ele>739.0</ele><time>2026-04-26T14:20:30.346Z</time></trkpt><trkpt lat="44.3356333" lon="10.8145"><ele>739.0</ele><time>2026-04-26T14:20:32.346Z</time></trkpt><trkpt lat="44.3357033" lon="10.8145067"><ele>738.3333333333334</ele><time>2026-04-26T14:20:33.346Z</time></trkpt><trkpt lat="44.3357717" lon="10.8145217"><ele>737.6666666666667</ele><time>2026-04-26T14:20:34.346Z</time></trkpt><trkpt lat="44.33585" lon="10.81454"><ele>737.0</ele><time>2026-04-26T14:20:35.346Z</time></trkpt><trkpt lat="44.3359317" lon="10.8145483"><ele>736.3333333333334</ele><time>2026-04-26T14:20:36.346Z</time></trkpt><trkpt lat="44.3360083" lon="10.81455"><ele>735.6666666666666</ele><time>2026-04-26T14:20:37.346Z</time></trkpt><trkpt lat="44.3360967" lon="10.8145367"><ele>735.0</ele><time>2026-04-26T14:20:38.347Z</time></trkpt><trkpt lat="44.336185" lon="10.8145233"><ele>735.0</ele><time>2026-04-26T14:20:39.346Z</time></trkpt><trkpt lat="44.33627" lon="10.81452"><ele>735.0</ele><time>2026-04-26T14:20:40.346Z</time></trkpt><trkpt lat="44.3363583" lon="10.814505"><ele>735.0</ele><time>2026-04-26T14:20:41.346Z</time></trkpt><trkpt lat="44.3364383" lon="10.814475"><ele>735.0</ele><time>2026-04-26T14:20:42.346Z</time></trkpt><trkpt lat="44.336515" lon="10.8144333"><ele>735.0</ele><time>2026-04-26T14:20:43.346Z</time></trkpt><trkpt lat="44.3365783" lon="10.8143783"><ele>735.0</ele><time>2026-04-26T14:20:44.346Z</time></trkpt><trkpt lat="44.3366733" lon="10.8142567"><ele>734.1666666666666</ele><time>2026-04-26T14:20:46.346Z</time></trkpt><trkpt lat="44.336725" lon="10.8141917"><ele>733.3333333333334</ele><time>2026-04-26T14:20:47.346Z</time></trkpt><trkpt lat="44.3367917" lon="10.8141367"><ele>732.5</ele><time>2026-04-26T14:20:48.346Z</time></trkpt><trkpt lat="44.3368667" lon="10.8140917"><ele>731.6666666666667</ele><time>2026-04-26T14:20:49.347Z</time></trkpt><trkpt lat="44.336945" lon="10.8140667"><ele>730.8333333333334</ele><time>2026-04-26T14:20:50.346Z</time></trkpt><trkpt lat="44.3370217" lon="10.8140467"><ele>730.0</ele><time>2026-04-26T14:20:51.346Z</time></trkpt><trkpt lat="44.3371033" lon="10.81403"><ele>730.0</ele><time>2026-04-26T14:20:52.346Z</time></trkpt><trkpt lat="44.3371767" lon="10.814015"><ele>730.0</ele><time>2026-04-26T14:20:53.346Z</time></trkpt><trkpt lat="44.337245" lon="10.814015"><ele>730.0</ele><time>2026-04-26T14:20:54.346Z</time></trkpt><trkpt lat="44.3373583" lon="10.8140767"><ele>730.0</ele><time>2026-04-26T14:20:56.346Z</time></trkpt><trkpt lat="44.3374233" lon="10.8142033"><ele>730.0</ele><time>2026-04-26T14:20:58.346Z</time></trkpt><trkpt lat="44.3374317" lon="10.8143517"><ele>732.1666666666667</ele><time>2026-04-26T14:21:00.347Z</time></trkpt><trkpt lat="44.337415" lon="10.8145133"><ele>734.3333333333334</ele><time>2026-04-26T14:21:02.346Z</time></trkpt><trkpt lat="44.3374183" lon="10.8146083"><ele>736.5</ele><time>2026-04-26T14:21:03.346Z</time></trkpt><trkpt lat="44.3374717" lon="10.81476"><ele>738.6666666666666</ele><time>2026-04-26T14:21:05.346Z</time></trkpt><trkpt lat="44.3375267" lon="10.8148033"><ele>740.8333333333333</ele><time>2026-04-26T14:21:06.346Z</time></trkpt><trkpt lat="44.337595" lon="10.8148017"><ele>743.0</ele><time>2026-04-26T14:21:07.346Z</time></trkpt><trkpt lat="44.3376667" lon="10.8147883"><ele>743.0</ele><time>2026-04-26T14:21:08.347Z</time></trkpt><trkpt lat="44.337745" lon="10.814785"><ele>743.0</ele><time>2026-04-26T14:21:09.346Z</time></trkpt><trkpt lat="44.3378167" lon="10.8147883"><ele>743.0</ele><time>2026-04-26T14:21:10.346Z</time></trkpt><trkpt lat="44.3378817" lon="10.8147983"><ele>743.0</ele><time>2026-04-26T14:21:11.346Z</time></trkpt><trkpt lat="44.338005" lon="10.8148383"><ele>743.0</ele><time>2026-04-26T14:21:13.346Z</time></trkpt><trkpt lat="44.338115" lon="10.814875"><ele>742.0</ele><time>2026-04-26T14:21:15.346Z</time></trkpt><trkpt lat="44.338205" lon="10.8148983"><ele>741.0</ele><time>2026-04-26T14:21:17.346Z</time></trkpt><trkpt lat="44.338295" lon="10.8149133"><ele>740.0</ele><time>2026-04-26T14:21:19.346Z</time></trkpt><trkpt lat="44.3383883" lon="10.8149417"><ele>739.0</ele><time>2026-04-26T14:21:21.347Z</time></trkpt><trkpt lat="44.33848" lon="10.814975"><ele>738.0</ele><time>2026-04-26T14:21:23.346Z</time></trkpt><trkpt lat="44.338565" lon="10.815025"><ele>738.0</ele><time>2026-04-26T14:21:25.346Z</time></trkpt><trkpt lat="44.3386333" lon="10.8150833"><ele>738.0</ele><time>2026-04-26T14:21:27.346Z</time></trkpt><trkpt lat="44.3387133" lon="10.8151383"><ele>738.0</ele><time>2026-04-26T14:21:29.347Z</time></trkpt><trkpt lat="44.3388217" lon="10.8151817"><ele>738.0</ele><time>2026-04-26T14:21:31.346Z</time></trkpt><trkpt lat="44.338885" lon="10.8152017"><ele>738.0</ele><time>2026-04-26T14:21:32.346Z</time></trkpt><trkpt lat="44.3389617" lon="10.8152283"><ele>738.0</ele><time>2026-04-26T14:21:33.346Z</time></trkpt><trkpt lat="44.33906" lon="10.8152583"><ele>741.8</ele><time>2026-04-26T14:21:34.346Z</time></trkpt><trkpt lat="44.339165" lon="10.8152917"><ele>745.5999999999999</ele><time>2026-04-26T14:21:35.346Z</time></trkpt><trkpt lat="44.3392633" lon="10.815325"><ele>749.4000000000001</ele><time>2026-04-26T14:21:36.347Z</time></trkpt><trkpt lat="44.3393567" lon="10.815365"><ele>753.2</ele><time>2026-04-26T14:21:37.346Z</time></trkpt><trkpt lat="44.3394567" lon="10.8154067"><ele>757.0</ele><time>2026-04-26T14:21:38.346Z</time></trkpt><trkpt lat="44.3395533" lon="10.8154533"><ele>757.0</ele><time>2026-04-26T14:21:39.346Z</time></trkpt><trkpt lat="44.33964" lon="10.8155"><ele>757.0</ele><time>2026-04-26T14:21:40.346Z</time></trkpt><trkpt lat="44.3397117" lon="10.8155367"><ele>757.0</ele><time>2026-04-26T14:21:41.346Z</time></trkpt><trkpt lat="44.3397867" lon="10.8155417"><ele>757.0</ele><time>2026-04-26T14:21:42.346Z</time></trkpt><trkpt lat="44.3398567" lon="10.81554"><ele>757.0</ele><time>2026-04-26T14:21:43.346Z</time></trkpt><trkpt lat="44.3399317" lon="10.8155533"><ele>757.0</ele><time>2026-04-26T14:21:44.346Z</time></trkpt><trkpt lat="44.340005" lon="10.81558"><ele>754.3333333333334</ele><time>2026-04-26T14:21:45.346Z</time></trkpt><trkpt lat="44.34008" lon="10.815615"><ele>751.6666666666667</ele><time>2026-04-26T14:21:46.347Z</time></trkpt><trkpt lat="44.34016" lon="10.8156533"><ele>749.0</ele><time>2026-04-26T14:21:47.346Z</time></trkpt><trkpt lat="44.3402333" lon="10.8156833"><ele>746.3333333333334</ele><time>2026-04-26T14:21:48.346Z</time></trkpt><trkpt lat="44.3403017" lon="10.8156867"><ele>743.6666666666666</ele><time>2026-04-26T14:21:49.346Z</time></trkpt><trkpt lat="44.3403717" lon="10.8156733"><ele>741.0</ele><time>2026-04-26T14:21:50.346Z</time></trkpt><trkpt lat="44.3404533" lon="10.8156417"><ele>741.0</ele><time>2026-04-26T14:21:51.346Z</time></trkpt><trkpt lat="44.3405317" lon="10.8156183"><ele>741.0</ele><time>2026-04-26T14:21:52.346Z</time></trkpt><trkpt lat="44.3406117" lon="10.8155817"><ele>741.0</ele><time>2026-04-26T14:21:53.346Z</time></trkpt><trkpt lat="44.3406833" lon="10.8155333"><ele>741.0</ele><time>2026-04-26T14:21:54.346Z</time></trkpt><trkpt lat="44.340755" lon="10.8154667"><ele>741.0</ele><time>2026-04-26T14:21:55.346Z</time></trkpt><trkpt lat="44.3408333" lon="10.815395"><ele>741.0</ele><time>2026-04-26T14:21:56.346Z</time></trkpt><trkpt lat="44.340915" lon="10.8153367"><ele>739.1666666666666</ele><time>2026-04-26T14:21:57.346Z</time></trkpt><trkpt lat="44.3409917" lon="10.81527"><ele>737.3333333333334</ele><time>2026-04-26T14:21:58.346Z</time></trkpt><trkpt lat="44.34106" lon="10.8152033"><ele>735.5</ele><time>2026-04-26T14:21:59.346Z</time></trkpt><trkpt lat="44.3411233" lon="10.81514"><ele>733.6666666666667</ele><time>2026-04-26T14:22:00.346Z</time></trkpt><trkpt lat="44.3411817" lon="10.8150883"><ele>731.8333333333334</ele><time>2026-04-26T14:22:01.347Z</time></trkpt><trkpt lat="44.34124" lon="10.8150467"><ele>730.0</ele><time>2026-04-26T14:22:02.346Z</time></trkpt><trkpt lat="44.3413317" lon="10.8150083"><ele>724.8</ele><time>2026-04-26T14:22:04.346Z</time></trkpt><trkpt lat="44.3414267" lon="10.81498"><ele>719.6</ele><time>2026-04-26T14:22:06.346Z</time></trkpt><trkpt lat="44.3415" lon="10.8149933"><ele>714.4000000000001</ele><time>2026-04-26T14:22:08.346Z</time></trkpt><trkpt lat="44.341565" lon="10.814965"><ele>709.2</ele><time>2026-04-26T14:22:10.346Z</time></trkpt><trkpt lat="44.3416067" lon="10.81484"><ele>704.0</ele><time>2026-04-26T14:22:12.346Z</time></trkpt><trkpt lat="44.341655" lon="10.8146983"><ele>704.0</ele><time>2026-04-26T14:22:14.346Z</time></trkpt><trkpt lat="44.3416967" lon="10.8146183"><ele>704.0</ele><time>2026-04-26T14:22:16.346Z</time></trkpt><trkpt lat="44.3417633" lon="10.8146117"><ele>704.0</ele><time>2026-04-26T14:22:18.346Z</time></trkpt><trkpt lat="44.3418267" lon="10.8146717"><ele>704.0</ele><time>2026-04-26T14:22:20.347Z</time></trkpt><trkpt lat="44.34189" lon="10.8147167"><ele>704.0</ele><time>2026-04-26T14:22:22.346Z</time></trkpt><trkpt lat="44.341965" lon="10.8147333"><ele>704.0</ele><time>2026-04-26T14:22:24.346Z</time></trkpt><trkpt lat="44.3420583" lon="10.8147267"><ele>704.0</ele><time>2026-04-26T14:22:26.346Z</time></trkpt><trkpt lat="44.3421483" lon="10.8147433"><ele>704.0</ele><time>2026-04-26T14:22:28.346Z</time></trkpt><trkpt lat="44.342285" lon="10.8147367"><ele>704.0</ele><time>2026-04-26T14:22:30.347Z</time></trkpt><trkpt lat="44.3423517" lon="10.8147317"><ele>704.0</ele><time>2026-04-26T14:22:31.346Z</time></trkpt><trkpt lat="44.3424317" lon="10.8147267"><ele>704.0</ele><time>2026-04-26T14:22:32.346Z</time></trkpt><trkpt lat="44.3425067" lon="10.814725"><ele>704.0</ele><time>2026-04-26T14:22:33.346Z</time></trkpt><trkpt lat="44.3425833" lon="10.8147383"><ele>702.5</ele><time>2026-04-26T14:22:34.346Z</time></trkpt><trkpt lat="44.3426633" lon="10.8147517"><ele>701.0</ele><time>2026-04-26T14:22:35.346Z</time></trkpt><trkpt lat="44.3427417" lon="10.8147733"><ele>699.5</ele><time>2026-04-26T14:22:36.346Z</time></trkpt><trkpt lat="44.3428167" lon="10.8148017"><ele>698.0</ele><time>2026-04-26T14:22:37.346Z</time></trkpt><trkpt lat="44.3428983" lon="10.81482"><ele>696.5</ele><time>2026-04-26T14:22:38.346Z</time></trkpt><trkpt lat="44.342985" lon="10.814845"><ele>695.0</ele><time>2026-04-26T14:22:39.345Z</time></trkpt><trkpt lat="44.3430717" lon="10.8148667"><ele>693.8333333333333</ele><time>2026-04-26T14:22:40.345Z</time></trkpt><trkpt lat="44.3431483" lon="10.8148967"><ele>692.6666666666666</ele><time>2026-04-26T14:22:41.345Z</time></trkpt><trkpt lat="44.3432133" lon="10.8149217"><ele>691.5</ele><time>2026-04-26T14:22:42.345Z</time></trkpt><trkpt lat="44.3433333" lon="10.8149717"><ele>690.3333333333334</ele><time>2026-04-26T14:22:44.345Z</time></trkpt><trkpt lat="44.3434" lon="10.815"><ele>689.1666666666667</ele><time>2026-04-26T14:22:45.345Z</time></trkpt><trkpt lat="44.3434717" lon="10.815035"><ele>688.0</ele><time>2026-04-26T14:22:46.345Z</time></trkpt><trkpt lat="44.3435483" lon="10.81508"><ele>688.0</ele><time>2026-04-26T14:22:47.345Z</time></trkpt><trkpt lat="44.3436383" lon="10.815135"><ele>688.0</ele><time>2026-04-26T14:22:48.345Z</time></trkpt><trkpt lat="44.3437417" lon="10.81519"><ele>688.0</ele><time>2026-04-26T14:22:49.345Z</time></trkpt><trkpt lat="44.3438633" lon="10.8152583"><ele>688.0</ele><time>2026-04-26T14:22:50.345Z</time></trkpt><trkpt lat="44.3439883" lon="10.8153433"><ele>687.5</ele><time>2026-04-26T14:22:51.345Z</time></trkpt><trkpt lat="44.3440833" lon="10.8154417"><ele>687.0</ele><time>2026-04-26T14:22:52.345Z</time></trkpt><trkpt lat="44.3441517" lon="10.8155617"><ele>686.5</ele><time>2026-04-26T14:22:53.345Z</time></trkpt><trkpt lat="44.3442" lon="10.815695"><ele>686.0</ele><time>2026-04-26T14:22:54.345Z</time></trkpt><trkpt lat="44.3442367" lon="10.8158717"><ele>687.25</ele><time>2026-04-26T14:22:55.345Z</time></trkpt><trkpt lat="44.3442617" lon="10.8160667"><ele>688.5</ele><time>2026-04-26T14:22:56.345Z</time></trkpt><trkpt lat="44.3442617" lon="10.816255"><ele>689.75</ele><time>2026-04-26T14:22:57.345Z</time></trkpt><trkpt lat="44.3442467" lon="10.81643"><ele>691.0</ele><time>2026-04-26T14:22:58.345Z</time></trkpt><trkpt lat="44.3442133" lon="10.8165917"><ele>691.0</ele><time>2026-04-26T14:22:59.346Z</time></trkpt><trkpt lat="44.3441667" lon="10.8167367"><ele>691.0</ele><time>2026-04-26T14:23:00.345Z</time></trkpt><trkpt lat="44.3441183" lon="10.81688"><ele>691.0</ele><time>2026-04-26T14:23:01.345Z</time></trkpt><trkpt lat="44.34407" lon="10.8170067"><ele>691.0</ele><time>2026-04-26T14:23:02.345Z</time></trkpt><trkpt lat="44.3440283" lon="10.81713"><ele>691.0</ele><time>2026-04-26T14:23:03.345Z</time></trkpt><trkpt lat="44.34399" lon="10.817245"><ele>691.0</ele><time>2026-04-26T14:23:04.345Z</time></trkpt><trkpt lat="44.3439517" lon="10.8173483"><ele>691.0</ele><time>2026-04-26T14:23:05.345Z</time></trkpt><trkpt lat="44.3439133" lon="10.8174233"><ele>691.0</ele><time>2026-04-26T14:23:06.345Z</time></trkpt><trkpt lat="44.3438233" lon="10.817515"><ele>691.0</ele><time>2026-04-26T14:23:08.345Z</time></trkpt><trkpt lat="44.343715" lon="10.8175583"><ele>691.0</ele><time>2026-04-26T14:23:10.345Z</time></trkpt><trkpt lat="44.3436433" lon="10.8175917"><ele>691.0</ele><time>2026-04-26T14:23:12.345Z</time></trkpt><trkpt lat="44.3435933" lon="10.8176783"><ele>690.8</ele><time>2026-04-26T14:23:16.345Z</time></trkpt><trkpt lat="44.3436117" lon="10.8177633"><ele>690.5999999999999</ele><time>2026-04-26T14:23:18.345Z</time></trkpt><trkpt lat="44.34367" lon="10.8178333"><ele>690.4</ele><time>2026-04-26T14:23:20.345Z</time></trkpt><trkpt lat="44.3437533" lon="10.8179233"><ele>690.2</ele><time>2026-04-26T14:23:22.345Z</time></trkpt><trkpt lat="44.34383" lon="10.8180233"><ele>690.0</ele><time>2026-04-26T14:23:24.345Z</time></trkpt><trkpt lat="44.3439233" lon="10.818165"><ele>690.0</ele><time>2026-04-26T14:23:26.345Z</time></trkpt><trkpt lat="44.3439833" lon="10.81826"><ele>690.0</ele><time>2026-04-26T14:23:27.345Z</time></trkpt><trkpt lat="44.3440483" lon="10.8183533"><ele>690.0</ele><time>2026-04-26T14:23:28.345Z</time></trkpt><trkpt lat="44.344115" lon="10.8184383"><ele>690.0</ele><time>2026-04-26T14:23:29.345Z</time></trkpt><trkpt lat="44.3441917" lon="10.81852"><ele>690.0</ele><time>2026-04-26T14:23:30.345Z</time></trkpt><trkpt lat="44.344275" lon="10.8186"><ele>690.5</ele><time>2026-04-26T14:23:31.345Z</time></trkpt><trkpt lat="44.344385" lon="10.81868"><ele>691.0</ele><time>2026-04-26T14:23:32.345Z</time></trkpt><trkpt lat="44.3445117" lon="10.8187583"><ele>691.5</ele><time>2026-04-26T14:23:33.345Z</time></trkpt><trkpt lat="44.34465" lon="10.8188317"><ele>692.0</ele><time>2026-04-26T14:23:34.345Z</time></trkpt><trkpt lat="44.344795" lon="10.81889"><ele>690.0</ele><time>2026-04-26T14:23:35.345Z</time></trkpt><trkpt lat="44.3449283" lon="10.8189433"><ele>688.0</ele><time>2026-04-26T14:23:36.345Z</time></trkpt><trkpt lat="44.3450633" lon="10.8189983"><ele>686.0</ele><time>2026-04-26T14:23:37.345Z</time></trkpt><trkpt lat="44.3451917" lon="10.81905"><ele>684.0</ele><time>2026-04-26T14:23:38.345Z</time></trkpt><trkpt lat="44.34531" lon="10.8190867"><ele>684.0</ele><time>2026-04-26T14:23:39.345Z</time></trkpt><trkpt lat="44.345425" lon="10.8191017"><ele>684.0</ele><time>2026-04-26T14:23:40.346Z</time></trkpt><trkpt lat="44.3455367" lon="10.8190833"><ele>684.0</ele><time>2026-04-26T14:23:41.345Z</time></trkpt><trkpt lat="44.345645" lon="10.819035"><ele>684.0</ele><time>2026-04-26T14:23:42.345Z</time></trkpt><trkpt lat="44.34575" lon="10.8189583"><ele>682.25</ele><time>2026-04-26T14:23:43.345Z</time></trkpt><trkpt lat="44.3458567" lon="10.8188617"><ele>680.5</ele><time>2026-04-26T14:23:44.346Z</time></trkpt><trkpt lat="44.3459633" lon="10.818755"><ele>678.75</ele><time>2026-04-26T14:23:45.345Z</time></trkpt><trkpt lat="44.346065" lon="10.8186383"><ele>677.0</ele><time>2026-04-26T14:23:46.345Z</time></trkpt><trkpt lat="44.3461667" lon="10.8185233"><ele>677.0</ele><time>2026-04-26T14:23:47.345Z</time></trkpt><trkpt lat="44.3462683" lon="10.818415"><ele>677.0</ele><time>2026-04-26T14:23:48.345Z</time></trkpt><trkpt lat="44.3463817" lon="10.8183183"><ele>677.0</ele><time>2026-04-26T14:23:49.345Z</time></trkpt><trkpt lat="44.3464967" lon="10.8182567"><ele>677.0</ele><time>2026-04-26T14:23:50.345Z</time></trkpt><trkpt lat="44.346615" lon="10.8182167"><ele>674.25</ele><time>2026-04-26T14:23:51.345Z</time></trkpt><trkpt lat="44.346735" lon="10.8182083"><ele>671.5</ele><time>2026-04-26T14:23:52.346Z</time></trkpt><trkpt lat="44.3468533" lon="10.81821"><ele>668.75</ele><time>2026-04-26T14:23:53.345Z</time></trkpt><trkpt lat="44.346975" lon="10.8182033"><ele>666.0</ele><time>2026-04-26T14:23:54.345Z</time></trkpt><trkpt lat="44.3470867" lon="10.8181533"><ele>666.0</ele><time>2026-04-26T14:23:55.345Z</time></trkpt><trkpt lat="44.3472017" lon="10.8180767"><ele>666.0</ele><time>2026-04-26T14:23:56.345Z</time></trkpt><trkpt lat="44.3473083" lon="10.8179783"><ele>666.0</ele><time>2026-04-26T14:23:57.345Z</time></trkpt><trkpt lat="44.3474083" lon="10.8178767"><ele>666.0</ele><time>2026-04-26T14:23:58.345Z</time></trkpt><trkpt lat="44.3475067" lon="10.8177717"><ele>664.5</ele><time>2026-04-26T14:23:59.346Z</time></trkpt><trkpt lat="44.347605" lon="10.81767"><ele>663.0</ele><time>2026-04-26T14:24:00.345Z</time></trkpt><trkpt lat="44.3477017" lon="10.8175733"><ele>661.5</ele><time>2026-04-26T14:24:01.345Z</time></trkpt><trkpt lat="44.3478017" lon="10.81749"><ele>660.0</ele><time>2026-04-26T14:24:02.345Z</time></trkpt><trkpt lat="44.3478933" lon="10.8174183"><ele>660.0</ele><time>2026-04-26T14:24:03.345Z</time></trkpt><trkpt lat="44.3479917" lon="10.8173533"><ele>660.0</ele><time>2026-04-26T14:24:04.345Z</time></trkpt><trkpt lat="44.348085" lon="10.81729"><ele>660.0</ele><time>2026-04-26T14:24:05.345Z</time></trkpt><trkpt lat="44.348165" lon="10.8172283"><ele>660.0</ele><time>2026-04-26T14:24:06.345Z</time></trkpt><trkpt lat="44.348235" lon="10.8171567"><ele>660.0</ele><time>2026-04-26T14:24:07.345Z</time></trkpt><trkpt lat="44.3482833" lon="10.8170783"><ele>659.3333333333334</ele><time>2026-04-26T14:24:08.345Z</time></trkpt><trkpt lat="44.348315" lon="10.8169983"><ele>658.6666666666666</ele><time>2026-04-26T14:24:09.345Z</time></trkpt><trkpt lat="44.3482517" lon="10.81687"><ele>658.0</ele><time>2026-04-26T14:24:11.345Z</time></trkpt><trkpt lat="44.348185" lon="10.8168367"><ele>657.3333333333333</ele><time>2026-04-26T14:24:12.345Z</time></trkpt><trkpt lat="44.348125" lon="10.81678"><ele>656.6666666666666</ele><time>2026-04-26T14:24:13.345Z</time></trkpt><trkpt lat="44.3480883" lon="10.8166967"><ele>656.0</ele><time>2026-04-26T14:24:14.345Z</time></trkpt><trkpt lat="44.3480833" lon="10.8165767"><ele>656.0</ele><time>2026-04-26T14:24:15.345Z</time></trkpt><trkpt lat="44.3481" lon="10.816455"><ele>656.0</ele><time>2026-04-26T14:24:16.345Z</time></trkpt><trkpt lat="44.3481333" lon="10.8163167"><ele>656.0</ele><time>2026-04-26T14:24:17.346Z</time></trkpt><trkpt lat="44.348175" lon="10.8161733"><ele>656.0</ele><time>2026-04-26T14:24:18.345Z</time></trkpt><trkpt lat="44.3482083" lon="10.8160267"><ele>656.0</ele><time>2026-04-26T14:24:19.345Z</time></trkpt><trkpt lat="44.34824" lon="10.815875"><ele>655.0</ele><time>2026-04-26T14:24:20.345Z</time></trkpt><trkpt lat="44.3482717" lon="10.8157317"><ele>654.0</ele><time>2026-04-26T14:24:21.345Z</time></trkpt><trkpt lat="44.3483067" lon="10.8156017"><ele>653.0</ele><time>2026-04-26T14:24:22.345Z</time></trkpt><trkpt lat="44.34834" lon="10.8154883"><ele>652.0</ele><time>2026-04-26T14:24:23.345Z</time></trkpt><trkpt lat="44.3483683" lon="10.81539"><ele>651.0</ele><time>2026-04-26T14:24:24.345Z</time></trkpt><trkpt lat="44.3483933" lon="10.8152833"><ele>651.0</ele><time>2026-04-26T14:24:25.345Z</time></trkpt><trkpt lat="44.348405" lon="10.8151833"><ele>651.0</ele><time>2026-04-26T14:24:26.345Z</time></trkpt><trkpt lat="44.3484067" lon="10.8150867"><ele>651.0</ele><time>2026-04-26T14:24:27.345Z</time></trkpt><trkpt lat="44.3483433" lon="10.8149517"><ele>651.0</ele><time>2026-04-26T14:24:29.345Z</time></trkpt><trkpt lat="44.348285" lon="10.8149067"><ele>651.0</ele><time>2026-04-26T14:24:30.345Z</time></trkpt><trkpt lat="44.3482067" lon="10.8147867"><ele>651.0</ele><time>2026-04-26T14:24:32.345Z</time></trkpt><trkpt lat="44.3482083" lon="10.8146583"><ele>650.5714285714286</ele><time>2026-04-26T14:24:34.345Z</time></trkpt><trkpt lat="44.3482417" lon="10.8145817"><ele>650.1428571428571</ele><time>2026-04-26T14:24:35.345Z</time></trkpt><trkpt lat="44.3482833" lon="10.8145067"><ele>649.7142857142858</ele><time>2026-04-26T14:24:36.345Z</time></trkpt><trkpt lat="44.3483267" lon="10.814435"><ele>649.2857142857142</ele><time>2026-04-26T14:24:37.345Z</time></trkpt><trkpt lat="44.3483667" lon="10.814355"><ele>648.8571428571429</ele><time>2026-04-26T14:24:38.345Z</time></trkpt><trkpt lat="44.3484133" lon="10.8142733"><ele>648.4285714285714</ele><time>2026-04-26T14:24:39.345Z</time></trkpt><trkpt lat="44.348465" lon="10.81419"><ele>648.0</ele><time>2026-04-26T14:24:40.345Z</time></trkpt><trkpt lat="44.3485367" lon="10.8141017"><ele>647.2</ele><time>2026-04-26T14:24:41.345Z</time></trkpt><trkpt lat="44.3486083" lon="10.8140067"><ele>646.4</ele><time>2026-04-26T14:24:42.345Z</time></trkpt><trkpt lat="44.3486867" lon="10.8139033"><ele>645.6</ele><time>2026-04-26T14:24:43.345Z</time></trkpt><trkpt lat="44.3487633" lon="10.8137933"><ele>644.8000000000001</ele><time>2026-04-26T14:24:44.345Z</time></trkpt><trkpt lat="44.348845" lon="10.813685"><ele>644.0</ele><time>2026-04-26T14:24:45.345Z</time></trkpt><trkpt lat="44.348925" lon="10.8135783"><ele>641.2</ele><time>2026-04-26T14:24:46.345Z</time></trkpt><trkpt lat="44.3490083" lon="10.813475"><ele>638.4000000000001</ele><time>2026-04-26T14:24:47.345Z</time></trkpt><trkpt lat="44.3490983" lon="10.8134017"><ele>635.6</ele><time>2026-04-26T14:24:48.345Z</time></trkpt><trkpt lat="44.3491933" lon="10.81335"><ele>632.8</ele><time>2026-04-26T14:24:49.345Z</time></trkpt><trkpt lat="44.349305" lon="10.8133133"><ele>630.0</ele><time>2026-04-26T14:24:50.345Z</time></trkpt><trkpt lat="44.349405" lon="10.8133"><ele>630.0</ele><time>2026-04-26T14:24:51.345Z</time></trkpt><trkpt lat="44.3495" lon="10.8132983"><ele>630.0</ele><time>2026-04-26T14:24:52.345Z</time></trkpt><trkpt lat="44.349595" lon="10.813285"><ele>630.0</ele><time>2026-04-26T14:24:53.345Z</time></trkpt><trkpt lat="44.3496867" lon="10.8132717"><ele>630.0</ele><time>2026-04-26T14:24:54.345Z</time></trkpt><trkpt lat="44.3497733" lon="10.8132633"><ele>630.0</ele><time>2026-04-26T14:24:55.345Z</time></trkpt><trkpt lat="44.3498633" lon="10.8132517"><ele>630.2</ele><time>2026-04-26T14:24:56.345Z</time></trkpt><trkpt lat="44.3499533" lon="10.8132417"><ele>630.4</ele><time>2026-04-26T14:24:57.345Z</time></trkpt><trkpt lat="44.3500383" lon="10.8132217"><ele>630.6</ele><time>2026-04-26T14:24:58.345Z</time></trkpt><trkpt lat="44.3501267" lon="10.8132017"><ele>630.8</ele><time>2026-04-26T14:24:59.345Z</time></trkpt><trkpt lat="44.35022" lon="10.8131833"><ele>631.0</ele><time>2026-04-26T14:25:00.345Z</time></trkpt><trkpt lat="44.350315" lon="10.813155"><ele>631.0</ele><time>2026-04-26T14:25:01.345Z</time></trkpt><trkpt lat="44.3504233" lon="10.8131417"><ele>631.0</ele><time>2026-04-26T14:25:02.345Z</time></trkpt><trkpt lat="44.3505333" lon="10.8131283"><ele>631.0</ele><time>2026-04-26T14:25:03.345Z</time></trkpt><trkpt lat="44.3506383" lon="10.813115"><ele>631.0</ele><time>2026-04-26T14:25:04.345Z</time></trkpt><trkpt lat="44.3507383" lon="10.8131067"><ele>631.0</ele><time>2026-04-26T14:25:05.345Z</time></trkpt><trkpt lat="44.3508333" lon="10.81309"><ele>628.6666666666667</ele><time>2026-04-26T14:25:06.345Z</time></trkpt><trkpt lat="44.3509217" lon="10.813065"><ele>626.3333333333334</ele><time>2026-04-26T14:25:07.345Z</time></trkpt><trkpt lat="44.3509967" lon="10.81304"><ele>624.0</ele><time>2026-04-26T14:25:08.345Z</time></trkpt><trkpt lat="44.351075" lon="10.8130283"><ele>621.6666666666666</ele><time>2026-04-26T14:25:09.345Z</time></trkpt><trkpt lat="44.3511483" lon="10.8130167"><ele>619.3333333333333</ele><time>2026-04-26T14:25:10.345Z</time></trkpt><trkpt lat="44.3512683" lon="10.81297"><ele>617.0</ele><time>2026-04-26T14:25:12.345Z</time></trkpt><trkpt lat="44.3513233" lon="10.8129217"><ele>615.5</ele><time>2026-04-26T14:25:13.345Z</time></trkpt><trkpt lat="44.3513967" lon="10.8127783"><ele>614.0</ele><time>2026-04-26T14:25:15.345Z</time></trkpt><trkpt lat="44.3514217" lon="10.812695"><ele>612.5</ele><time>2026-04-26T14:25:16.346Z</time></trkpt><trkpt lat="44.3514333" lon="10.812595"><ele>611.0</ele><time>2026-04-26T14:25:17.345Z</time></trkpt><trkpt lat="44.3514267" lon="10.8124833"><ele>609.5</ele><time>2026-04-26T14:25:18.345Z</time></trkpt><trkpt lat="44.3514" lon="10.8123683"><ele>608.0</ele><time>2026-04-26T14:25:19.345Z</time></trkpt><trkpt lat="44.351365" lon="10.8122567"><ele>608.0</ele><time>2026-04-26T14:25:20.345Z</time></trkpt><trkpt lat="44.3513233" lon="10.8121567"><ele>608.0</ele><time>2026-04-26T14:25:21.345Z</time></trkpt><trkpt lat="44.351275" lon="10.8120767"><ele>608.0</ele><time>2026-04-26T14:25:22.345Z</time></trkpt><trkpt lat="44.3512133" lon="10.8120133"><ele>608.0</ele><time>2026-04-26T14:25:23.345Z</time></trkpt><trkpt lat="44.3511467" lon="10.811975"><ele>608.0</ele><time>2026-04-26T14:25:24.345Z</time></trkpt><trkpt lat="44.351085" lon="10.811935"><ele>608.0</ele><time>2026-04-26T14:25:25.345Z</time></trkpt><trkpt lat="44.3510133" lon="10.8118133"><ele>605.0</ele><time>2026-04-26T14:25:27.345Z</time></trkpt><trkpt lat="44.35105" lon="10.8116633"><ele>602.0</ele><time>2026-04-26T14:25:29.345Z</time></trkpt><trkpt lat="44.3511133" lon="10.8116233"><ele>599.0</ele><time>2026-04-26T14:25:30.345Z</time></trkpt><trkpt lat="44.3512" lon="10.811615"><ele>596.0</ele><time>2026-04-26T14:25:31.345Z</time></trkpt><trkpt lat="44.3513" lon="10.8116217"><ele>593.0</ele><time>2026-04-26T14:25:32.345Z</time></trkpt><trkpt lat="44.3514083" lon="10.8116267"><ele>592.0</ele><time>2026-04-26T14:25:33.345Z</time></trkpt><trkpt lat="44.35152" lon="10.8116433"><ele>591.0</ele><time>2026-04-26T14:25:34.345Z</time></trkpt><trkpt lat="44.3516283" lon="10.81166"><ele>590.0</ele><time>2026-04-26T14:25:35.345Z</time></trkpt><trkpt lat="44.3517483" lon="10.811685"><ele>589.0</ele><time>2026-04-26T14:25:36.345Z</time></trkpt><trkpt lat="44.3518683" lon="10.8116983"><ele>589.0</ele><time>2026-04-26T14:25:37.345Z</time></trkpt><trkpt lat="44.3519883" lon="10.8117317"><ele>589.0</ele><time>2026-04-26T14:25:38.345Z</time></trkpt><trkpt lat="44.3520967" lon="10.8117567"><ele>589.0</ele><time>2026-04-26T14:25:39.345Z</time></trkpt><trkpt lat="44.352205" lon="10.8117533"><ele>589.0</ele><time>2026-04-26T14:25:40.345Z</time></trkpt><trkpt lat="44.3523133" lon="10.81174"><ele>589.0</ele><time>2026-04-26T14:25:41.345Z</time></trkpt><trkpt lat="44.3524283" lon="10.811725"><ele>589.4</ele><time>2026-04-26T14:25:42.344Z</time></trkpt><trkpt lat="44.352535" lon="10.8116983"><ele>589.8</ele><time>2026-04-26T14:25:43.344Z</time></trkpt><trkpt lat="44.3526283" lon="10.8117033"><ele>590.2</ele><time>2026-04-26T14:25:44.344Z</time></trkpt><trkpt lat="44.352715" lon="10.8117383"><ele>590.6</ele><time>2026-04-26T14:25:45.344Z</time></trkpt><trkpt lat="44.3527883" lon="10.8117917"><ele>591.0</ele><time>2026-04-26T14:25:46.344Z</time></trkpt><trkpt lat="44.352855" lon="10.811855"><ele>592.1666666666666</ele><time>2026-04-26T14:25:47.344Z</time></trkpt><trkpt lat="44.3529067" lon="10.8119267"><ele>593.3333333333334</ele><time>2026-04-26T14:25:48.344Z</time></trkpt><trkpt lat="44.3529567" lon="10.8120167"><ele>594.5</ele><time>2026-04-26T14:25:49.344Z</time></trkpt><trkpt lat="44.3530017" lon="10.8121317"><ele>595.6666666666667</ele><time>2026-04-26T14:25:50.344Z</time></trkpt><trkpt lat="44.35305" lon="10.8122417"><ele>596.8333333333334</ele><time>2026-04-26T14:25:51.344Z</time></trkpt><trkpt lat="44.353095" lon="10.81235"><ele>598.0</ele><time>2026-04-26T14:25:52.344Z</time></trkpt><trkpt lat="44.3531383" lon="10.8124467"><ele>599.8</ele><time>2026-04-26T14:25:53.344Z</time></trkpt><trkpt lat="44.3531883" lon="10.8125567"><ele>601.5999999999999</ele><time>2026-04-26T14:25:54.344Z</time></trkpt><trkpt lat="44.3532483" lon="10.81268"><ele>603.4000000000001</ele><time>2026-04-26T14:25:55.344Z</time></trkpt><trkpt lat="44.3532967" lon="10.8127867"><ele>605.2</ele><time>2026-04-26T14:25:56.344Z</time></trkpt><trkpt lat="44.35334" lon="10.8129033"><ele>607.0</ele><time>2026-04-26T14:25:57.344Z</time></trkpt><trkpt lat="44.35338" lon="10.81301"><ele>607.8000000000001</ele><time>2026-04-26T14:25:58.344Z</time></trkpt><trkpt lat="44.353425" lon="10.8131083"><ele>608.6</ele><time>2026-04-26T14:25:59.344Z</time></trkpt><trkpt lat="44.35348" lon="10.8131917"><ele>609.4000000000001</ele><time>2026-04-26T14:26:00.344Z</time></trkpt><trkpt lat="44.3535467" lon="10.8132667"><ele>610.2</ele><time>2026-04-26T14:26:01.344Z</time></trkpt><trkpt lat="44.3536283" lon="10.8133283"><ele>611.0</ele><time>2026-04-26T14:26:02.344Z</time></trkpt><trkpt lat="44.353735" lon="10.8133683"><ele>611.0</ele><time>2026-04-26T14:26:03.344Z</time></trkpt><trkpt lat="44.3538467" lon="10.813405"><ele>611.0</ele><time>2026-04-26T14:26:04.344Z</time></trkpt><trkpt lat="44.3539583" lon="10.813445"><ele>611.0</ele><time>2026-04-26T14:26:05.344Z</time></trkpt><trkpt lat="44.354075" lon="10.8134933"><ele>611.0</ele><time>2026-04-26T14:26:06.344Z</time></trkpt><trkpt lat="44.3541983" lon="10.8135533"><ele>614.75</ele><time>2026-04-26T14:26:07.344Z</time></trkpt><trkpt lat="44.3543217" lon="10.8136167"><ele>618.5</ele><time>2026-04-26T14:26:08.344Z</time></trkpt><trkpt lat="44.3544417" lon="10.8136817"><ele>622.25</ele><time>2026-04-26T14:26:09.344Z</time></trkpt><trkpt lat="44.3545667" lon="10.8137533"><ele>626.0</ele><time>2026-04-26T14:26:10.344Z</time></trkpt><trkpt lat="44.35469" lon="10.8138367"><ele>628.0</ele><time>2026-04-26T14:26:11.344Z</time></trkpt><trkpt lat="44.35481" lon="10.81392"><ele>630.0</ele><time>2026-04-26T14:26:12.345Z</time></trkpt><trkpt lat="44.3549333" lon="10.8139983"><ele>632.0</ele><time>2026-04-26T14:26:13.344Z</time></trkpt><trkpt lat="44.3550567" lon="10.81408"><ele>634.0</ele><time>2026-04-26T14:26:14.345Z</time></trkpt><trkpt lat="44.355175" lon="10.814155"><ele>634.0</ele><time>2026-04-26T14:26:15.344Z</time></trkpt><trkpt lat="44.3553017" lon="10.8142233"><ele>634.0</ele><time>2026-04-26T14:26:16.344Z</time></trkpt><trkpt lat="44.355425" lon="10.8142817"><ele>634.0</ele><time>2026-04-26T14:26:17.344Z</time></trkpt><trkpt lat="44.3555467" lon="10.8143317"><ele>634.0</ele><time>2026-04-26T14:26:18.344Z</time></trkpt><trkpt lat="44.3556517" lon="10.8143817"><ele>637.4</ele><time>2026-04-26T14:26:19.344Z</time></trkpt><trkpt lat="44.35574" lon="10.8144367"><ele>640.8</ele><time>2026-04-26T14:26:20.344Z</time></trkpt><trkpt lat="44.3558" lon="10.81452"><ele>644.1999999999999</ele><time>2026-04-26T14:26:21.344Z</time></trkpt><trkpt lat="44.35584" lon="10.8146217"><ele>647.5999999999999</ele><time>2026-04-26T14:26:22.344Z</time></trkpt><trkpt lat="44.3558517" lon="10.8147533"><ele>651.0</ele><time>2026-04-26T14:26:23.344Z</time></trkpt><trkpt lat="44.35587" lon="10.8149233"><ele>651.0</ele><time>2026-04-26T14:26:24.344Z</time></trkpt><trkpt lat="44.3558817" lon="10.8151217"><ele>651.0</ele><time>2026-04-26T14:26:25.344Z</time></trkpt><trkpt lat="44.3558983" lon="10.8153283"><ele>651.0</ele><time>2026-04-26T14:26:26.344Z</time></trkpt><trkpt lat="44.35591" lon="10.81556"><ele>652.5</ele><time>2026-04-26T14:26:27.344Z</time></trkpt><trkpt lat="44.35593" lon="10.8157717"><ele>654.0</ele><time>2026-04-26T14:26:28.344Z</time></trkpt><trkpt lat="44.3559483" lon="10.815965"><ele>655.5</ele><time>2026-04-26T14:26:29.344Z</time></trkpt><trkpt lat="44.3559617" lon="10.8161167"><ele>657.0</ele><time>2026-04-26T14:26:30.344Z</time></trkpt><trkpt lat="44.3559683" lon="10.81624"><ele>658.2857142857142</ele><time>2026-04-26T14:26:31.344Z</time></trkpt><trkpt lat="44.35598" lon="10.81636"><ele>659.5714285714287</ele><time>2026-04-26T14:26:32.345Z</time></trkpt><trkpt lat="44.3559917" lon="10.81646"><ele>660.8571428571429</ele><time>2026-04-26T14:26:33.344Z</time></trkpt><trkpt lat="44.3560033" lon="10.8165467"><ele>662.1428571428571</ele><time>2026-04-26T14:26:34.344Z</time></trkpt><trkpt lat="44.3560233" lon="10.8166317"><ele>663.4285714285713</ele><time>2026-04-26T14:26:35.344Z</time></trkpt><trkpt lat="44.3560683" lon="10.8167233"><ele>664.7142857142858</ele><time>2026-04-26T14:26:36.344Z</time></trkpt><trkpt lat="44.3561317" lon="10.81678"><ele>666.0</ele><time>2026-04-26T14:26:37.344Z</time></trkpt><trkpt lat="44.3562083" lon="10.8168067"><ele>666.0</ele><time>2026-04-26T14:26:38.344Z</time></trkpt><trkpt lat="44.3562867" lon="10.8167817"><ele>666.0</ele><time>2026-04-26T14:26:39.344Z</time></trkpt><trkpt lat="44.35639" lon="10.816735"><ele>666.0</ele><time>2026-04-26T14:26:40.344Z</time></trkpt><trkpt lat="44.3565083" lon="10.81665"><ele>666.0</ele><time>2026-04-26T14:26:41.344Z</time></trkpt><trkpt lat="44.35665" lon="10.81656"><ele>670.3333333333334</ele><time>2026-04-26T14:26:42.344Z</time></trkpt><trkpt lat="44.3567883" lon="10.8164733"><ele>674.6666666666667</ele><time>2026-04-26T14:26:43.344Z</time></trkpt><trkpt lat="44.35693" lon="10.8163883"><ele>679.0</ele><time>2026-04-26T14:26:44.344Z</time></trkpt><trkpt lat="44.3570783" lon="10.8163033"><ele>683.6666666666667</ele><time>2026-04-26T14:26:45.344Z</time></trkpt><trkpt lat="44.3572117" lon="10.816215"><ele>688.3333333333334</ele><time>2026-04-26T14:26:46.344Z</time></trkpt><trkpt lat="44.3573533" lon="10.8161283"><ele>693.0</ele><time>2026-04-26T14:26:47.344Z</time></trkpt><trkpt lat="44.3574933" lon="10.8160517"><ele>692.0</ele><time>2026-04-26T14:26:48.344Z</time></trkpt><trkpt lat="44.3576183" lon="10.815985"><ele>691.0</ele><time>2026-04-26T14:26:49.345Z</time></trkpt><trkpt lat="44.3577383" lon="10.8159267"><ele>690.0</ele><time>2026-04-26T14:26:50.344Z</time></trkpt><trkpt lat="44.3578617" lon="10.8158683"><ele>689.0</ele><time>2026-04-26T14:26:51.344Z</time></trkpt><trkpt lat="44.3579733" lon="10.81584"><ele>692.0</ele><time>2026-04-26T14:26:52.344Z</time></trkpt><trkpt lat="44.35807" lon="10.8158367"><ele>695.0</ele><time>2026-04-26T14:26:53.344Z</time></trkpt><trkpt lat="44.3581767" lon="10.8158683"><ele>698.0</ele><time>2026-04-26T14:26:54.344Z</time></trkpt><trkpt lat="44.3582883" lon="10.8159217"><ele>701.0</ele><time>2026-04-26T14:26:55.344Z</time></trkpt><trkpt lat="44.358405" lon="10.81599"><ele>702.5</ele><time>2026-04-26T14:26:56.344Z</time></trkpt><trkpt lat="44.3585267" lon="10.8160583"><ele>704.0</ele><time>2026-04-26T14:26:57.344Z</time></trkpt><trkpt lat="44.3586367" lon="10.81612"><ele>705.5</ele><time>2026-04-26T14:26:58.344Z</time></trkpt><trkpt lat="44.3587467" lon="10.8161917"><ele>707.0</ele><time>2026-04-26T14:26:59.344Z</time></trkpt><trkpt lat="44.3588583" lon="10.81626"><ele>709.75</ele><time>2026-04-26T14:27:00.344Z</time></trkpt><trkpt lat="44.3589667" lon="10.81633"><ele>712.5</ele><time>2026-04-26T14:27:01.344Z</time></trkpt><trkpt lat="44.3590717" lon="10.8163933"><ele>715.25</ele><time>2026-04-26T14:27:02.344Z</time></trkpt><trkpt lat="44.3591883" lon="10.8164667"><ele>718.0</ele><time>2026-04-26T14:27:03.344Z</time></trkpt><trkpt lat="44.3592983" lon="10.8165483"><ele>718.0</ele><time>2026-04-26T14:27:04.344Z</time></trkpt><trkpt lat="44.3594017" lon="10.8166467"><ele>718.0</ele><time>2026-04-26T14:27:05.344Z</time></trkpt><trkpt lat="44.3594883" lon="10.81677"><ele>718.0</ele><time>2026-04-26T14:27:06.344Z</time></trkpt><trkpt lat="44.3595533" lon="10.8169067"><ele>718.0</ele><time>2026-04-26T14:27:07.344Z</time></trkpt><trkpt lat="44.3596167" lon="10.8170533"><ele>718.25</ele><time>2026-04-26T14:27:08.344Z</time></trkpt><trkpt lat="44.3596683" lon="10.817205"><ele>718.5</ele><time>2026-04-26T14:27:09.344Z</time></trkpt><trkpt lat="44.35973" lon="10.817365"><ele>718.75</ele><time>2026-04-26T14:27:10.345Z</time></trkpt><trkpt lat="44.359805" lon="10.8175033"><ele>719.0</ele><time>2026-04-26T14:27:11.344Z</time></trkpt><trkpt lat="44.359895" lon="10.8176"><ele>721.0</ele><time>2026-04-26T14:27:12.344Z</time></trkpt><trkpt lat="44.359995" lon="10.817705"><ele>723.0</ele><time>2026-04-26T14:27:13.344Z</time></trkpt><trkpt lat="44.360105" lon="10.8177533"><ele>725.0</ele><time>2026-04-26T14:27:14.344Z</time></trkpt><trkpt lat="44.3602183" lon="10.8177917"><ele>727.0</ele><time>2026-04-26T14:27:15.344Z</time></trkpt><trkpt lat="44.3603433" lon="10.8177817"><ele>727.0</ele><time>2026-04-26T14:27:16.344Z</time></trkpt><trkpt lat="44.36048" lon="10.8177583"><ele>727.0</ele><time>2026-04-26T14:27:17.344Z</time></trkpt><trkpt lat="44.3606283" lon="10.8177317"><ele>727.0</ele><time>2026-04-26T14:27:18.344Z</time></trkpt><trkpt lat="44.360805" lon="10.81768"><ele>729.0</ele><time>2026-04-26T14:27:19.344Z</time></trkpt><trkpt lat="44.3609583" lon="10.8176533"><ele>731.0</ele><time>2026-04-26T14:27:20.344Z</time></trkpt><trkpt lat="44.3610983" lon="10.8176217"><ele>733.0</ele><time>2026-04-26T14:27:21.344Z</time></trkpt><trkpt lat="44.36123" lon="10.817605"><ele>735.0</ele><time>2026-04-26T14:27:22.344Z</time></trkpt><trkpt lat="44.36137" lon="10.8176167"><ele>736.25</ele><time>2026-04-26T14:27:23.344Z</time></trkpt><trkpt lat="44.3615083" lon="10.81765"><ele>737.5</ele><time>2026-04-26T14:27:24.344Z</time></trkpt><trkpt lat="44.3616383" lon="10.8176867"><ele>738.75</ele><time>2026-04-26T14:27:25.344Z</time></trkpt><trkpt lat="44.3617583" lon="10.8177233"><ele>740.0</ele><time>2026-04-26T14:27:26.344Z</time></trkpt><trkpt lat="44.361855" lon="10.817765"><ele>740.0</ele><time>2026-04-26T14:27:27.344Z</time></trkpt><trkpt lat="44.3619483" lon="10.817805"><ele>740.0</ele><time>2026-04-26T14:27:28.344Z</time></trkpt><trkpt lat="44.3620417" lon="10.8178383"><ele>740.0</ele><time>2026-04-26T14:27:29.344Z</time></trkpt><trkpt lat="44.3621333" lon="10.8178733"><ele>740.0</ele><time>2026-04-26T14:27:30.344Z</time></trkpt><trkpt lat="44.3622283" lon="10.817905"><ele>740.0</ele><time>2026-04-26T14:27:31.344Z</time></trkpt><trkpt lat="44.36233" lon="10.8179483"><ele>740.2</ele><time>2026-04-26T14:27:32.344Z</time></trkpt><trkpt lat="44.3624417" lon="10.817995"><ele>740.4</ele><time>2026-04-26T14:27:33.344Z</time></trkpt><trkpt lat="44.3625467" lon="10.81805"><ele>740.5999999999999</ele><time>2026-04-26T14:27:34.344Z</time></trkpt><trkpt lat="44.3626483" lon="10.8181017"><ele>740.8</ele><time>2026-04-26T14:27:35.344Z</time></trkpt><trkpt lat="44.3627533" lon="10.8181483"><ele>741.0</ele><time>2026-04-26T14:27:36.344Z</time></trkpt><trkpt lat="44.36287" lon="10.8181967"><ele>741.0</ele><time>2026-04-26T14:27:37.344Z</time></trkpt><trkpt lat="44.36301" lon="10.81823"><ele>741.0</ele><time>2026-04-26T14:27:38.344Z</time></trkpt><trkpt lat="44.36317" lon="10.818265"><ele>741.0</ele><time>2026-04-26T14:27:39.344Z</time></trkpt><trkpt lat="44.3633533" lon="10.8183233"><ele>741.3333333333334</ele><time>2026-04-26T14:27:40.345Z</time></trkpt><trkpt lat="44.3635567" lon="10.8183883"><ele>741.6666666666667</ele><time>2026-04-26T14:27:41.344Z</time></trkpt><trkpt lat="44.3637683" lon="10.8184433"><ele>742.0</ele><time>2026-04-26T14:27:42.344Z</time></trkpt><trkpt lat="44.3639583" lon="10.8185067"><ele>742.6666666666667</ele><time>2026-04-26T14:27:43.344Z</time></trkpt><trkpt lat="44.3641283" lon="10.8185667"><ele>743.3333333333334</ele><time>2026-04-26T14:27:44.344Z</time></trkpt><trkpt lat="44.3642967" lon="10.8186283"><ele>744.0</ele><time>2026-04-26T14:27:45.344Z</time></trkpt><trkpt lat="44.364455" lon="10.8186833"><ele>744.0</ele><time>2026-04-26T14:27:46.344Z</time></trkpt><trkpt lat="44.3646017" lon="10.8187667"><ele>744.0</ele><time>2026-04-26T14:27:47.344Z</time></trkpt><trkpt lat="44.3647417" lon="10.8188533"><ele>744.0</ele><time>2026-04-26T14:27:48.344Z</time></trkpt><trkpt lat="44.3648667" lon="10.8189267"><ele>744.0</ele><time>2026-04-26T14:27:49.344Z</time></trkpt><trkpt lat="44.3649883" lon="10.81899"><ele>744.25</ele><time>2026-04-26T14:27:50.344Z</time></trkpt><trkpt lat="44.3651067" lon="10.819075"><ele>744.5</ele><time>2026-04-26T14:27:51.344Z</time></trkpt><trkpt lat="44.3652217" lon="10.8191867"><ele>744.75</ele><time>2026-04-26T14:27:52.344Z</time></trkpt><trkpt lat="44.3653167" lon="10.8193033"><ele>745.0</ele><time>2026-04-26T14:27:53.344Z</time></trkpt><trkpt lat="44.3653983" lon="10.8194417"><ele>745.0</ele><time>2026-04-26T14:27:54.344Z</time></trkpt><trkpt lat="44.3654933" lon="10.8195817"><ele>745.0</ele><time>2026-04-26T14:27:55.344Z</time></trkpt><trkpt lat="44.3656167" lon="10.8197117"><ele>745.0</ele><time>2026-04-26T14:27:56.344Z</time></trkpt><trkpt lat="44.3657283" lon="10.819825"><ele>745.0</ele><time>2026-04-26T14:27:57.345Z</time></trkpt><trkpt lat="44.3658383" lon="10.8199283"><ele>745.2</ele><time>2026-04-26T14:27:58.344Z</time></trkpt><trkpt lat="44.3659367" lon="10.82002"><ele>745.4</ele><time>2026-04-26T14:27:59.344Z</time></trkpt><trkpt lat="44.3660267" lon="10.820085"><ele>745.5999999999999</ele><time>2026-04-26T14:28:00.344Z</time></trkpt><trkpt lat="44.3661183" lon="10.8201367"><ele>745.8</ele><time>2026-04-26T14:28:01.344Z</time></trkpt><trkpt lat="44.3661917" lon="10.820155"><ele>746.0</ele><time>2026-04-26T14:28:02.344Z</time></trkpt><trkpt lat="44.3662583" lon="10.82015"><ele>746.5</ele><time>2026-04-26T14:28:03.344Z</time></trkpt><trkpt lat="44.3663183" lon="10.820105"><ele>747.0</ele><time>2026-04-26T14:28:04.344Z</time></trkpt><trkpt lat="44.366375" lon="10.8200233"><ele>747.5</ele><time>2026-04-26T14:28:05.344Z</time></trkpt><trkpt lat="44.3664517" lon="10.8198967"><ele>748.0</ele><time>2026-04-26T14:28:06.344Z</time></trkpt><trkpt lat="44.3665867" lon="10.8196983"><ele>748.0</ele><time>2026-04-26T14:28:07.344Z</time></trkpt><trkpt lat="44.36673" lon="10.8195817"><ele>748.0</ele><time>2026-04-26T14:28:08.344Z</time></trkpt><trkpt lat="44.3668883" lon="10.8194933"><ele>748.0</ele><time>2026-04-26T14:28:09.344Z</time></trkpt><trkpt lat="44.3670567" lon="10.8194283"><ele>744.3333333333334</ele><time>2026-04-26T14:28:10.344Z</time></trkpt><trkpt lat="44.3672333" lon="10.8194"><ele>740.6666666666666</ele><time>2026-04-26T14:28:11.344Z</time></trkpt><trkpt lat="44.3674117" lon="10.81941"><ele>737.0</ele><time>2026-04-26T14:28:12.344Z</time></trkpt><trkpt lat="44.36759" lon="10.8194833"><ele>737.0</ele><time>2026-04-26T14:28:13.344Z</time></trkpt><trkpt lat="44.3677633" lon="10.8195967"><ele>737.0</ele><time>2026-04-26T14:28:14.344Z</time></trkpt><trkpt lat="44.3679483" lon="10.8197367"><ele>737.0</ele><time>2026-04-26T14:28:15.344Z</time></trkpt><trkpt lat="44.3681183" lon="10.8198867"><ele>737.6666666666666</ele><time>2026-04-26T14:28:16.345Z</time></trkpt><trkpt lat="44.3682683" lon="10.820045"><ele>738.3333333333334</ele><time>2026-04-26T14:28:17.344Z</time></trkpt><trkpt lat="44.368405" lon="10.8201833"><ele>739.0</ele><time>2026-04-26T14:28:18.344Z</time></trkpt><trkpt lat="44.3685383" lon="10.8203217"><ele>737.6666666666667</ele><time>2026-04-26T14:28:19.344Z</time></trkpt><trkpt lat="44.3686767" lon="10.82046"><ele>736.3333333333334</ele><time>2026-04-26T14:28:20.344Z</time></trkpt><trkpt lat="44.368835" lon="10.8205917"><ele>735.0</ele><time>2026-04-26T14:28:21.344Z</time></trkpt><trkpt lat="44.3690133" lon="10.8207"><ele>735.0</ele><time>2026-04-26T14:28:22.344Z</time></trkpt><trkpt lat="44.3692167" lon="10.8208067"><ele>735.0</ele><time>2026-04-26T14:28:23.344Z</time></trkpt><trkpt lat="44.3694317" lon="10.8209033"><ele>735.0</ele><time>2026-04-26T14:28:24.344Z</time></trkpt><trkpt lat="44.369655" lon="10.821005"><ele>733.3333333333334</ele><time>2026-04-26T14:28:25.344Z</time></trkpt><trkpt lat="44.3698567" lon="10.8210733"><ele>731.6666666666667</ele><time>2026-04-26T14:28:26.344Z</time></trkpt><trkpt lat="44.3700417" lon="10.82117"><ele>730.0</ele><time>2026-04-26T14:28:27.344Z</time></trkpt><trkpt lat="44.3702167" lon="10.8212783"><ele>730.0</ele><time>2026-04-26T14:28:28.344Z</time></trkpt><trkpt lat="44.3703783" lon="10.8214067"><ele>730.0</ele><time>2026-04-26T14:28:29.344Z</time></trkpt><trkpt lat="44.3705233" lon="10.8215367"><ele>730.0</ele><time>2026-04-26T14:28:30.344Z</time></trkpt><trkpt lat="44.370655" lon="10.821645"><ele>729.6666666666667</ele><time>2026-04-26T14:28:31.344Z</time></trkpt><trkpt lat="44.3707917" lon="10.821765"><ele>729.3333333333334</ele><time>2026-04-26T14:28:32.345Z</time></trkpt><trkpt lat="44.3709283" lon="10.8218833"><ele>729.0</ele><time>2026-04-26T14:28:33.344Z</time></trkpt><trkpt lat="44.371055" lon="10.8220133"><ele>728.6666666666666</ele><time>2026-04-26T14:28:34.344Z</time></trkpt><trkpt lat="44.3711767" lon="10.82214"><ele>728.3333333333333</ele><time>2026-04-26T14:28:35.344Z</time></trkpt><trkpt lat="44.3712983" lon="10.8222783"><ele>728.0</ele><time>2026-04-26T14:28:36.344Z</time></trkpt><trkpt lat="44.3714183" lon="10.8224233"><ele>728.0</ele><time>2026-04-26T14:28:37.344Z</time></trkpt><trkpt lat="44.3715333" lon="10.82256"><ele>728.0</ele><time>2026-04-26T14:28:38.344Z</time></trkpt><trkpt lat="44.3716433" lon="10.8226883"><ele>728.0</ele><time>2026-04-26T14:28:39.344Z</time></trkpt><trkpt lat="44.3717467" lon="10.82282"><ele>728.0</ele><time>2026-04-26T14:28:40.344Z</time></trkpt><trkpt lat="44.3718433" lon="10.822955"><ele>728.3333333333333</ele><time>2026-04-26T14:28:41.344Z</time></trkpt><trkpt lat="44.3719383" lon="10.823105"><ele>728.6666666666666</ele><time>2026-04-26T14:28:42.345Z</time></trkpt><trkpt lat="44.3720333" lon="10.8232667"><ele>729.0</ele><time>2026-04-26T14:28:43.344Z</time></trkpt><trkpt lat="44.3721333" lon="10.8234417"><ele>728.0</ele><time>2026-04-26T14:28:44.344Z</time></trkpt><trkpt lat="44.37223" lon="10.8236267"><ele>727.0</ele><time>2026-04-26T14:28:45.343Z</time></trkpt><trkpt lat="44.3723283" lon="10.8238067"><ele>726.0</ele><time>2026-04-26T14:28:46.343Z</time></trkpt><trkpt lat="44.372415" lon="10.8239817"><ele>726.0</ele><time>2026-04-26T14:28:47.343Z</time></trkpt><trkpt lat="44.3724933" lon="10.8241467"><ele>726.0</ele><time>2026-04-26T14:28:48.343Z</time></trkpt><trkpt lat="44.37255" lon="10.8243167"><ele>726.0</ele><time>2026-04-26T14:28:49.343Z</time></trkpt><trkpt lat="44.3725883" lon="10.8244817"><ele>726.0</ele><time>2026-04-26T14:28:50.343Z</time></trkpt><trkpt lat="44.37261" lon="10.824665"><ele>725.6666666666666</ele><time>2026-04-26T14:28:51.343Z</time></trkpt><trkpt lat="44.3725933" lon="10.8248833"><ele>725.3333333333333</ele><time>2026-04-26T14:28:52.344Z</time></trkpt><trkpt lat="44.3725617" lon="10.8251083"><ele>725.0</ele><time>2026-04-26T14:28:53.343Z</time></trkpt><trkpt lat="44.3725183" lon="10.8253317"><ele>724.0</ele><time>2026-04-26T14:28:54.343Z</time></trkpt><trkpt lat="44.37248" lon="10.8255683"><ele>723.0</ele><time>2026-04-26T14:28:55.343Z</time></trkpt><trkpt lat="44.3724367" lon="10.8258"><ele>722.0</ele><time>2026-04-26T14:28:56.343Z</time></trkpt><trkpt lat="44.3724" lon="10.8260367"><ele>720.3333333333333</ele><time>2026-04-26T14:28:57.343Z</time></trkpt><trkpt lat="44.372345" lon="10.82627"><ele>718.6666666666666</ele><time>2026-04-26T14:28:58.343Z</time></trkpt><trkpt lat="44.372295" lon="10.8264817"><ele>717.0</ele><time>2026-04-26T14:28:59.343Z</time></trkpt><trkpt lat="44.3722567" lon="10.8266683"><ele>715.5</ele><time>2026-04-26T14:29:00.343Z</time></trkpt><trkpt lat="44.372235" lon="10.8268517"><ele>714.0</ele><time>2026-04-26T14:29:01.343Z</time></trkpt><trkpt lat="44.3722483" lon="10.82702"><ele>712.5</ele><time>2026-04-26T14:29:02.343Z</time></trkpt><trkpt lat="44.3723033" lon="10.8271733"><ele>711.0</ele><time>2026-04-26T14:29:03.343Z</time></trkpt><trkpt lat="44.3723767" lon="10.82731"><ele>711.0</ele><time>2026-04-26T14:29:04.343Z</time></trkpt><trkpt lat="44.3724783" lon="10.8274117"><ele>711.0</ele><time>2026-04-26T14:29:05.343Z</time></trkpt><trkpt lat="44.3726117" lon="10.82747"><ele>711.0</ele><time>2026-04-26T14:29:06.343Z</time></trkpt><trkpt lat="44.3727567" lon="10.8275133"><ele>711.0</ele><time>2026-04-26T14:29:07.343Z</time></trkpt><trkpt lat="44.3729117" lon="10.827555"><ele>709.6666666666666</ele><time>2026-04-26T14:29:08.343Z</time></trkpt><trkpt lat="44.3730717" lon="10.827595"><ele>708.3333333333333</ele><time>2026-04-26T14:29:09.343Z</time></trkpt><trkpt lat="44.373225" lon="10.8276383"><ele>707.0</ele><time>2026-04-26T14:29:10.343Z</time></trkpt><trkpt lat="44.3733783" lon="10.8276833"><ele>707.0</ele><time>2026-04-26T14:29:11.343Z</time></trkpt><trkpt lat="44.3735267" lon="10.82774"><ele>707.0</ele><time>2026-04-26T14:29:12.343Z</time></trkpt><trkpt lat="44.3736767" lon="10.827805"><ele>707.0</ele><time>2026-04-26T14:29:13.343Z</time></trkpt><trkpt lat="44.3738217" lon="10.8278733"><ele>708.5</ele><time>2026-04-26T14:29:14.343Z</time></trkpt><trkpt lat="44.3739517" lon="10.8279467"><ele>710.0</ele><time>2026-04-26T14:29:15.343Z</time></trkpt><trkpt lat="44.37408" lon="10.8280117"><ele>711.5</ele><time>2026-04-26T14:29:16.343Z</time></trkpt><trkpt lat="44.3741967" lon="10.8280767"><ele>713.0</ele><time>2026-04-26T14:29:17.343Z</time></trkpt><trkpt lat="44.3742767" lon="10.8281217"><ele>713.0</ele><time>2026-04-26T14:29:18.343Z</time></trkpt><trkpt lat="44.37434" lon="10.8281583"><ele>713.0</ele><time>2026-04-26T14:29:19.343Z</time></trkpt><trkpt lat="44.374405" lon="10.8282267"><ele>713.0</ele><time>2026-04-26T14:29:21.343Z</time></trkpt><trkpt lat="44.374465" lon="10.8282717"><ele>713.0</ele><time>2026-04-26T14:31:00.343Z</time></trkpt><trkpt lat="44.3745483" lon="10.8283"><ele>713.0</ele><time>2026-04-26T14:31:02.343Z</time></trkpt><trkpt lat="44.3746667" lon="10.8283467"><ele>713.0</ele><time>2026-04-26T14:31:04.343Z</time></trkpt><trkpt lat="44.3747583" lon="10.8284167"><ele>713.0</ele><time>2026-04-26T14:31:06.343Z</time></trkpt><trkpt lat="44.3748217" lon="10.82846"><ele>713.0</ele><time>2026-04-26T14:31:08.343Z</time></trkpt><trkpt lat="44.3748883" lon="10.8285317"><ele>713.0</ele><time>2026-04-26T14:31:11.344Z</time></trkpt><trkpt lat="44.3749233" lon="10.828605"><ele>713.0</ele><time>2026-04-26T14:31:13.343Z</time></trkpt><trkpt lat="44.3749233" lon="10.8287267"><ele>713.0</ele><time>2026-04-26T14:31:15.343Z</time></trkpt><trkpt lat="44.3749267" lon="10.8288267"><ele>713.0</ele><time>2026-04-26T14:31:16.344Z</time></trkpt><trkpt lat="44.3749333" lon="10.8289233"><ele>713.0</ele><time>2026-04-26T14:31:17.343Z</time></trkpt><trkpt lat="44.37496" lon="10.829015"><ele>713.0</ele><time>2026-04-26T14:31:18.343Z</time></trkpt><trkpt lat="44.3750083" lon="10.8290933"><ele>713.0</ele><time>2026-04-26T14:31:19.343Z</time></trkpt><trkpt lat="44.3750683" lon="10.8291233"><ele>713.0</ele><time>2026-04-26T14:31:20.343Z</time></trkpt><trkpt lat="44.3751383" lon="10.829135"><ele>713.0</ele><time>2026-04-26T14:31:21.343Z</time></trkpt><trkpt lat="44.3752133" lon="10.8291017"><ele>713.0</ele><time>2026-04-26T14:31:22.343Z</time></trkpt><trkpt lat="44.3752633" lon="10.82903"><ele>713.0</ele><time>2026-04-26T14:31:23.343Z</time></trkpt><trkpt lat="44.3752917" lon="10.8289183"><ele>713.0</ele><time>2026-04-26T14:31:24.343Z</time></trkpt><trkpt lat="44.3752983" lon="10.8287767"><ele>713.0</ele><time>2026-04-26T14:31:25.343Z</time></trkpt><trkpt lat="44.3753033" lon="10.8286117"><ele>713.0</ele><time>2026-04-26T14:31:26.343Z</time></trkpt><trkpt lat="44.3753317" lon="10.8284467"><ele>713.0</ele><time>2026-04-26T14:31:27.343Z</time></trkpt><trkpt lat="44.37538" lon="10.82829"><ele>713.0</ele><time>2026-04-26T14:31:28.343Z</time></trkpt><trkpt lat="44.3754317" lon="10.8281467"><ele>712.75</ele><time>2026-04-26T14:31:29.343Z</time></trkpt><trkpt lat="44.3754867" lon="10.8279933"><ele>712.5</ele><time>2026-04-26T14:31:30.343Z</time></trkpt><trkpt lat="44.37554" lon="10.8278317"><ele>712.25</ele><time>2026-04-26T14:31:31.343Z</time></trkpt><trkpt lat="44.3755967" lon="10.8276667"><ele>712.0</ele><time>2026-04-26T14:31:32.343Z</time></trkpt><trkpt lat="44.375665" lon="10.8275033"><ele>713.75</ele><time>2026-04-26T14:31:33.343Z</time></trkpt><trkpt lat="44.3757283" lon="10.8273383"><ele>715.5</ele><time>2026-04-26T14:31:34.343Z</time></trkpt><trkpt lat="44.3758" lon="10.8271767"><ele>717.25</ele><time>2026-04-26T14:31:35.343Z</time></trkpt><trkpt lat="44.3758783" lon="10.8270083"><ele>719.0</ele><time>2026-04-26T14:31:36.343Z</time></trkpt><trkpt lat="44.3759683" lon="10.8268583"><ele>720.5</ele><time>2026-04-26T14:31:37.343Z</time></trkpt><trkpt lat="44.3760583" lon="10.82672"><ele>722.0</ele><time>2026-04-26T14:31:38.343Z</time></trkpt><trkpt lat="44.376145" lon="10.8265917"><ele>723.5</ele><time>2026-04-26T14:31:39.343Z</time></trkpt><trkpt lat="44.3762383" lon="10.826465"><ele>725.0</ele><time>2026-04-26T14:31:40.343Z</time></trkpt><trkpt lat="44.37632" lon="10.8263283"><ele>724.75</ele><time>2026-04-26T14:31:41.343Z</time></trkpt><trkpt lat="44.3764217" lon="10.8262067"><ele>724.5</ele><time>2026-04-26T14:31:42.343Z</time></trkpt><trkpt lat="44.3765117" lon="10.8260733"><ele>724.25</ele><time>2026-04-26T14:31:43.343Z</time></trkpt><trkpt lat="44.3766167" lon="10.8259433"><ele>724.0</ele><time>2026-04-26T14:31:44.342Z</time></trkpt><trkpt lat="44.376715" lon="10.8258"><ele>724.75</ele><time>2026-04-26T14:31:45.342Z</time></trkpt><trkpt lat="44.3768167" lon="10.8256583"><ele>725.5</ele><time>2026-04-26T14:31:46.342Z</time></trkpt><trkpt lat="44.37692" lon="10.8255117"><ele>726.25</ele><time>2026-04-26T14:31:47.342Z</time></trkpt><trkpt lat="44.3770367" lon="10.8253667"><ele>727.0</ele><time>2026-04-26T14:31:48.342Z</time></trkpt><trkpt lat="44.3771567" lon="10.8252067"><ele>727.0</ele><time>2026-04-26T14:31:49.342Z</time></trkpt><trkpt lat="44.3772917" lon="10.8250383"><ele>727.0</ele><time>2026-04-26T14:31:50.342Z</time></trkpt><trkpt lat="44.3774333" lon="10.82485"><ele>727.0</ele><time>2026-04-26T14:31:51.342Z</time></trkpt><trkpt lat="44.3775883" lon="10.8246533"><ele>727.0</ele><time>2026-04-26T14:31:52.342Z</time></trkpt><trkpt lat="44.3777633" lon="10.8244583"><ele>727.0</ele><time>2026-04-26T14:31:53.342Z</time></trkpt><trkpt lat="44.3779617" lon="10.824275"><ele>730.0</ele><time>2026-04-26T14:31:54.342Z</time></trkpt><trkpt lat="44.3781733" lon="10.8240833"><ele>733.0</ele><time>2026-04-26T14:31:55.342Z</time></trkpt><trkpt lat="44.378375" lon="10.823885"><ele>733.0</ele><time>2026-04-26T14:31:56.342Z</time></trkpt><trkpt lat="44.378565" lon="10.8236967"><ele>733.0</ele><time>2026-04-26T14:31:57.343Z</time></trkpt><trkpt lat="44.3787417" lon="10.8235167"><ele>736.0</ele><time>2026-04-26T14:31:58.342Z</time></trkpt><trkpt lat="44.3789167" lon="10.8233483"><ele>739.0</ele><time>2026-04-26T14:31:59.342Z</time></trkpt><trkpt lat="44.37909" lon="10.82317"><ele>742.0</ele><time>2026-04-26T14:32:00.342Z</time></trkpt><trkpt lat="44.3792733" lon="10.822985"><ele>742.0</ele><time>2026-04-26T14:32:01.342Z</time></trkpt><trkpt lat="44.3794583" lon="10.8228017"><ele>742.0</ele><time>2026-04-26T14:32:02.342Z</time></trkpt><trkpt lat="44.3796383" lon="10.8226233"><ele>742.0</ele><time>2026-04-26T14:32:03.342Z</time></trkpt><trkpt lat="44.3798217" lon="10.82244"><ele>744.0</ele><time>2026-04-26T14:32:04.342Z</time></trkpt><trkpt lat="44.37998" lon="10.8222683"><ele>746.0</ele><time>2026-04-26T14:32:05.342Z</time></trkpt><trkpt lat="44.380125" lon="10.8221217"><ele>748.0</ele><time>2026-04-26T14:32:06.342Z</time></trkpt><trkpt lat="44.3802633" lon="10.8219933"><ele>748.0</ele><time>2026-04-26T14:32:07.342Z</time></trkpt><trkpt lat="44.3803767" lon="10.82186"><ele>748.0</ele><time>2026-04-26T14:32:08.343Z</time></trkpt><trkpt lat="44.3805017" lon="10.8217467"><ele>748.0</ele><time>2026-04-26T14:32:09.342Z</time></trkpt><trkpt lat="44.3806183" lon="10.821625"><ele>748.0</ele><time>2026-04-26T14:32:10.342Z</time></trkpt><trkpt lat="44.3807433" lon="10.8214917"><ele>747.6666666666667</ele><time>2026-04-26T14:32:11.342Z</time></trkpt><trkpt lat="44.380875" lon="10.821365"><ele>747.3333333333334</ele><time>2026-04-26T14:32:12.342Z</time></trkpt><trkpt lat="44.3810133" lon="10.821235"><ele>747.0</ele><time>2026-04-26T14:32:13.342Z</time></trkpt><trkpt lat="44.3811583" lon="10.8210967"><ele>747.3333333333334</ele><time>2026-04-26T14:32:14.342Z</time></trkpt><trkpt lat="44.3813283" lon="10.820955"><ele>747.6666666666667</ele><time>2026-04-26T14:32:15.342Z</time></trkpt><trkpt lat="44.3815233" lon="10.82083"><ele>748.0</ele><time>2026-04-26T14:32:16.342Z</time></trkpt><trkpt lat="44.3817383" lon="10.8207167"><ele>748.0</ele><time>2026-04-26T14:32:17.342Z</time></trkpt><trkpt lat="44.3819617" lon="10.8206083"><ele>748.0</ele><time>2026-04-26T14:32:18.342Z</time></trkpt><trkpt lat="44.382185" lon="10.8204933"><ele>745.5</ele><time>2026-04-26T14:32:19.342Z</time></trkpt><trkpt lat="44.382405" lon="10.820385"><ele>743.0</ele><time>2026-04-26T14:32:20.342Z</time></trkpt><trkpt lat="44.3826117" lon="10.820265"><ele>743.0</ele><time>2026-04-26T14:32:21.342Z</time></trkpt><trkpt lat="44.3828167" lon="10.8201567"><ele>743.0</ele><time>2026-04-26T14:32:22.342Z</time></trkpt><trkpt lat="44.38301" lon="10.8200567"><ele>743.0</ele><time>2026-04-26T14:32:23.342Z</time></trkpt><trkpt lat="44.3831983" lon="10.8199467"><ele>744.3333333333333</ele><time>2026-04-26T14:32:24.342Z</time></trkpt><trkpt lat="44.3833867" lon="10.8198383"><ele>745.6666666666666</ele><time>2026-04-26T14:32:25.342Z</time></trkpt><trkpt lat="44.3835717" lon="10.8197433"><ele>747.0</ele><time>2026-04-26T14:32:26.342Z</time></trkpt><trkpt lat="44.3837433" lon="10.8196517"><ele>747.6666666666666</ele><time>2026-04-26T14:32:27.342Z</time></trkpt><trkpt lat="44.383905" lon="10.8195617"><ele>748.3333333333333</ele><time>2026-04-26T14:32:28.342Z</time></trkpt><trkpt lat="44.3840483" lon="10.81948"><ele>749.0</ele><time>2026-04-26T14:32:29.342Z</time></trkpt><trkpt lat="44.3841717" lon="10.8194267"><ele>749.0</ele><time>2026-04-26T14:32:30.342Z</time></trkpt><trkpt lat="44.3842783" lon="10.819385"><ele>749.0</ele><time>2026-04-26T14:32:31.342Z</time></trkpt><trkpt lat="44.3843683" lon="10.8193317"><ele>749.0</ele><time>2026-04-26T14:32:32.342Z</time></trkpt><trkpt lat="44.38445" lon="10.8193"><ele>749.0</ele><time>2026-04-26T14:32:33.342Z</time></trkpt><trkpt lat="44.38455" lon="10.8192683"><ele>749.0</ele><time>2026-04-26T14:32:35.342Z</time></trkpt><trkpt lat="44.384625" lon="10.819205"><ele>749.2</ele><time>2026-04-26T14:32:39.342Z</time></trkpt><trkpt lat="44.384685" lon="10.81908"><ele>749.4000000000001</ele><time>2026-04-26T14:32:41.343Z</time></trkpt><trkpt lat="44.3847067" lon="10.8189683"><ele>749.6</ele><time>2026-04-26T14:32:42.342Z</time></trkpt><trkpt lat="44.3847183" lon="10.8188467"><ele>749.8</ele><time>2026-04-26T14:32:43.342Z</time></trkpt><trkpt lat="44.3847283" lon="10.8187183"><ele>750.0</ele><time>2026-04-26T14:32:44.342Z</time></trkpt><trkpt lat="44.3847467" lon="10.8185733"><ele>751.0</ele><time>2026-04-26T14:32:45.342Z</time></trkpt><trkpt lat="44.3847783" lon="10.8184283"><ele>752.0</ele><time>2026-04-26T14:32:46.342Z</time></trkpt><trkpt lat="44.3848217" lon="10.81828"><ele>753.0</ele><time>2026-04-26T14:32:47.342Z</time></trkpt><trkpt lat="44.3848867" lon="10.8181317"><ele>754.0</ele><time>2026-04-26T14:32:48.342Z</time></trkpt><trkpt lat="44.3849683" lon="10.81799"><ele>754.0</ele><time>2026-04-26T14:32:49.342Z</time></trkpt><trkpt lat="44.38505" lon="10.8178417"><ele>754.0</ele><time>2026-04-26T14:32:50.342Z</time></trkpt><trkpt lat="44.38514" lon="10.8176717"><ele>754.0</ele><time>2026-04-26T14:32:51.342Z</time></trkpt><trkpt lat="44.3852317" lon="10.817505"><ele>754.0</ele><time>2026-04-26T14:32:52.342Z</time></trkpt><trkpt lat="44.3853267" lon="10.8173333"><ele>754.6666666666667</ele><time>2026-04-26T14:32:53.342Z</time></trkpt><trkpt lat="44.3854217" lon="10.8171583"><ele>755.3333333333334</ele><time>2026-04-26T14:32:54.342Z</time></trkpt><trkpt lat="44.3855183" lon="10.8169783"><ele>756.0</ele><time>2026-04-26T14:32:55.342Z</time></trkpt><trkpt lat="44.3856167" lon="10.8167917"><ele>758.3333333333334</ele><time>2026-04-26T14:32:56.342Z</time></trkpt><trkpt lat="44.3857167" lon="10.8166167"><ele>760.6666666666667</ele><time>2026-04-26T14:32:57.343Z</time></trkpt><trkpt lat="44.38582" lon="10.816425"><ele>763.0</ele><time>2026-04-26T14:32:58.342Z</time></trkpt><trkpt lat="44.38592" lon="10.8162317"><ele>763.0</ele><time>2026-04-26T14:32:59.342Z</time></trkpt><trkpt lat="44.386025" lon="10.8160467"><ele>763.0</ele><time>2026-04-26T14:33:00.342Z</time></trkpt><trkpt lat="44.3861233" lon="10.8158683"><ele>763.0</ele><time>2026-04-26T14:33:01.342Z</time></trkpt><trkpt lat="44.3862333" lon="10.8156983"><ele>764.6666666666667</ele><time>2026-04-26T14:33:02.342Z</time></trkpt><trkpt lat="44.38636" lon="10.8155367"><ele>766.3333333333334</ele><time>2026-04-26T14:33:03.342Z</time></trkpt><trkpt lat="44.3865133" lon="10.815385"><ele>768.0</ele><time>2026-04-26T14:33:04.342Z</time></trkpt><trkpt lat="44.38667" lon="10.8152267"><ele>766.0</ele><time>2026-04-26T14:33:05.342Z</time></trkpt><trkpt lat="44.3868383" lon="10.8150583"><ele>764.0</ele><time>2026-04-26T14:33:06.342Z</time></trkpt><trkpt lat="44.3870017" lon="10.8149017"><ele>762.0</ele><time>2026-04-26T14:33:07.342Z</time></trkpt><trkpt lat="44.3871533" lon="10.8147617"><ele>764.0</ele><time>2026-04-26T14:33:08.342Z</time></trkpt><trkpt lat="44.3873017" lon="10.814635"><ele>766.0</ele><time>2026-04-26T14:33:09.342Z</time></trkpt><trkpt lat="44.38745" lon="10.8145083"><ele>768.0</ele><time>2026-04-26T14:33:10.342Z</time></trkpt><trkpt lat="44.3875983" lon="10.8143717"><ele>767.0</ele><time>2026-04-26T14:33:11.342Z</time></trkpt><trkpt lat="44.3877633" lon="10.8142383"><ele>766.0</ele><time>2026-04-26T14:33:12.342Z</time></trkpt><trkpt lat="44.3879133" lon="10.81408"><ele>765.0</ele><time>2026-04-26T14:33:13.342Z</time></trkpt><trkpt lat="44.3880767" lon="10.813935"><ele>764.0</ele><time>2026-04-26T14:33:14.342Z</time></trkpt><trkpt lat="44.3882367" lon="10.81379"><ele>763.0</ele><time>2026-04-26T14:33:15.342Z</time></trkpt><trkpt lat="44.3883983" lon="10.8136383"><ele>762.0</ele><time>2026-04-26T14:33:16.342Z</time></trkpt><trkpt lat="44.3885733" lon="10.8134817"><ele>761.0</ele><time>2026-04-26T14:33:17.342Z</time></trkpt><trkpt lat="44.3887333" lon="10.8133283"><ele>760.0</ele><time>2026-04-26T14:33:18.342Z</time></trkpt><trkpt lat="44.38888" lon="10.8131733"><ele>759.0</ele><time>2026-04-26T14:33:19.342Z</time></trkpt><trkpt lat="44.38902" lon="10.813035"><ele>761.3333333333334</ele><time>2026-04-26T14:33:20.342Z</time></trkpt><trkpt lat="44.389165" lon="10.8128983"><ele>763.6666666666667</ele><time>2026-04-26T14:33:21.342Z</time></trkpt><trkpt lat="44.3892917" lon="10.8127733"><ele>766.0</ele><time>2026-04-26T14:33:22.342Z</time></trkpt><trkpt lat="44.389405" lon="10.81266"><ele>766.0</ele><time>2026-04-26T14:33:23.342Z</time></trkpt><trkpt lat="44.389495" lon="10.81255"><ele>766.0</ele><time>2026-04-26T14:33:24.343Z</time></trkpt><trkpt lat="44.3895617" lon="10.812465"><ele>766.0</ele><time>2026-04-26T14:33:25.342Z</time></trkpt><trkpt lat="44.3896167" lon="10.8123983"><ele>766.0</ele><time>2026-04-26T14:33:26.342Z</time></trkpt><trkpt lat="44.3897267" lon="10.8123267"><ele>766.0</ele><time>2026-04-26T14:33:28.342Z</time></trkpt><trkpt lat="44.38985" lon="10.8123783"><ele>766.0</ele><time>2026-04-26T14:33:30.342Z</time></trkpt><trkpt lat="44.3899133" lon="10.8124183"><ele>766.0</ele><time>2026-04-26T14:33:31.342Z</time></trkpt><trkpt lat="44.3899783" lon="10.8124483"><ele>766.0</ele><time>2026-04-26T14:33:32.342Z</time></trkpt><trkpt lat="44.3900417" lon="10.8124533"><ele>766.0</ele><time>2026-04-26T14:33:33.342Z</time></trkpt><trkpt lat="44.390105" lon="10.8124317"><ele>766.0</ele><time>2026-04-26T14:33:34.342Z</time></trkpt><trkpt lat="44.3901767" lon="10.81238"><ele>766.0</ele><time>2026-04-26T14:33:35.342Z</time></trkpt><trkpt lat="44.3902583" lon="10.8123233"><ele>766.0</ele><time>2026-04-26T14:33:36.343Z</time></trkpt><trkpt lat="44.390345" lon="10.81227"><ele>766.0</ele><time>2026-04-26T14:33:37.342Z</time></trkpt><trkpt lat="44.39043" lon="10.81222"><ele>766.0</ele><time>2026-04-26T14:33:38.342Z</time></trkpt><trkpt lat="44.3905033" lon="10.8121783"><ele>766.0</ele><time>2026-04-26T14:33:39.342Z</time></trkpt><trkpt lat="44.390595" lon="10.8121367"><ele>766.0</ele><time>2026-04-26T14:33:41.342Z</time></trkpt><trkpt lat="44.3906633" lon="10.8121167"><ele>766.0</ele><time>2026-04-26T14:33:43.342Z</time></trkpt><trkpt lat="44.39073" lon="10.8121033"><ele>766.0</ele><time>2026-04-26T14:33:45.342Z</time></trkpt><trkpt lat="44.390805" lon="10.8120917"><ele>765.8</ele><time>2026-04-26T14:34:27.342Z</time></trkpt><trkpt lat="44.3909067" lon="10.812045"><ele>765.5999999999999</ele><time>2026-04-26T14:34:29.342Z</time></trkpt><trkpt lat="44.3909933" lon="10.8120183"><ele>765.4</ele><time>2026-04-26T14:34:30.342Z</time></trkpt><trkpt lat="44.391105" lon="10.811995"><ele>765.2</ele><time>2026-04-26T14:34:31.342Z</time></trkpt><trkpt lat="44.3912283" lon="10.8119683"><ele>765.0</ele><time>2026-04-26T14:34:32.342Z</time></trkpt><trkpt lat="44.3913683" lon="10.8119383"><ele>764.0</ele><time>2026-04-26T14:34:33.343Z</time></trkpt><trkpt lat="44.391525" lon="10.811905"><ele>763.0</ele><time>2026-04-26T14:34:34.342Z</time></trkpt><trkpt lat="44.3916833" lon="10.8118433"><ele>762.0</ele><time>2026-04-26T14:34:35.342Z</time></trkpt><trkpt lat="44.39182" lon="10.8117983"><ele>763.5</ele><time>2026-04-26T14:34:36.342Z</time></trkpt><trkpt lat="44.3919567" lon="10.8117483"><ele>765.0</ele><time>2026-04-26T14:34:37.342Z</time></trkpt><trkpt lat="44.39208" lon="10.8117167"><ele>766.5</ele><time>2026-04-26T14:34:38.342Z</time></trkpt><trkpt lat="44.3921983" lon="10.811685"><ele>768.0</ele><time>2026-04-26T14:34:39.342Z</time></trkpt><trkpt lat="44.3923017" lon="10.811655"><ele>768.0</ele><time>2026-04-26T14:34:40.342Z</time></trkpt><trkpt lat="44.3923933" lon="10.8116283"><ele>768.0</ele><time>2026-04-26T14:34:41.342Z</time></trkpt><trkpt lat="44.3924933" lon="10.8116017"><ele>768.0</ele><time>2026-04-26T14:34:42.342Z</time></trkpt><trkpt lat="44.3926117" lon="10.81157"><ele>768.0</ele><time>2026-04-26T14:34:43.342Z</time></trkpt><trkpt lat="44.3927483" lon="10.8115383"><ele>768.0</ele><time>2026-04-26T14:34:44.341Z</time></trkpt><trkpt lat="44.392895" lon="10.8114983"><ele>768.0</ele><time>2026-04-26T14:34:45.341Z</time></trkpt><trkpt lat="44.3930317" lon="10.8114567"><ele>768.0</ele><time>2026-04-26T14:34:46.341Z</time></trkpt><trkpt lat="44.3931467" lon="10.8114167"><ele>768.0</ele><time>2026-04-26T14:34:47.341Z</time></trkpt><trkpt lat="44.39325" lon="10.8113983"><ele>767.5999999999999</ele><time>2026-04-26T14:34:48.342Z</time></trkpt><trkpt lat="44.393345" lon="10.8113983"><ele>767.1999999999999</ele><time>2026-04-26T14:34:49.341Z</time></trkpt><trkpt lat="44.3934483" lon="10.81141"><ele>766.8</ele><time>2026-04-26T14:34:50.341Z</time></trkpt><trkpt lat="44.3935633" lon="10.8114383"><ele>766.4</ele><time>2026-04-26T14:34:51.341Z</time></trkpt><trkpt lat="44.3936783" lon="10.8114683"><ele>766.0</ele><time>2026-04-26T14:34:52.341Z</time></trkpt><trkpt lat="44.39379" lon="10.8114883"><ele>766.5</ele><time>2026-04-26T14:34:53.341Z</time></trkpt><trkpt lat="44.39391" lon="10.811495"><ele>767.0</ele><time>2026-04-26T14:34:54.341Z</time></trkpt><trkpt lat="44.3940433" lon="10.811485"><ele>767.5</ele><time>2026-04-26T14:34:55.341Z</time></trkpt><trkpt lat="44.39419" lon="10.8114583"><ele>768.0</ele><time>2026-04-26T14:34:56.341Z</time></trkpt><trkpt lat="44.3943383" lon="10.811445"><ele>768.0</ele><time>2026-04-26T14:34:57.342Z</time></trkpt><trkpt lat="44.394485" lon="10.811425"><ele>768.0</ele><time>2026-04-26T14:34:58.341Z</time></trkpt><trkpt lat="44.3946317" lon="10.811395"><ele>768.0</ele><time>2026-04-26T14:34:59.341Z</time></trkpt><trkpt lat="44.3947817" lon="10.8113533"><ele>768.0</ele><time>2026-04-26T14:35:00.341Z</time></trkpt><trkpt lat="44.3949083" lon="10.8112917"><ele>766.75</ele><time>2026-04-26T14:35:01.341Z</time></trkpt><trkpt lat="44.3950233" lon="10.8112433"><ele>765.5</ele><time>2026-04-26T14:35:02.341Z</time></trkpt><trkpt lat="44.3951433" lon="10.8111867"><ele>764.25</ele><time>2026-04-26T14:35:03.341Z</time></trkpt><trkpt lat="44.3952617" lon="10.8111083"><ele>763.0</ele><time>2026-04-26T14:35:04.342Z</time></trkpt><trkpt lat="44.395375" lon="10.8110233"><ele>762.5</ele><time>2026-04-26T14:35:05.341Z</time></trkpt><trkpt lat="44.3954917" lon="10.8109567"><ele>762.0</ele><time>2026-04-26T14:35:06.341Z</time></trkpt><trkpt lat="44.3955983" lon="10.81089"><ele>761.5</ele><time>2026-04-26T14:35:07.341Z</time></trkpt><trkpt lat="44.3956833" lon="10.8108017"><ele>761.0</ele><time>2026-04-26T14:35:08.341Z</time></trkpt><trkpt lat="44.3957683" lon="10.8107017"><ele>761.0</ele><time>2026-04-26T14:35:09.342Z</time></trkpt><trkpt lat="44.3958833" lon="10.8105933"><ele>761.0</ele><time>2026-04-26T14:35:10.341Z</time></trkpt><trkpt lat="44.3960017" lon="10.8105"><ele>761.0</ele><time>2026-04-26T14:35:11.341Z</time></trkpt><trkpt lat="44.396125" lon="10.81041"><ele>761.0</ele><time>2026-04-26T14:35:12.341Z</time></trkpt><trkpt lat="44.39625" lon="10.81033"><ele>760.0</ele><time>2026-04-26T14:35:13.342Z</time></trkpt><trkpt lat="44.3963717" lon="10.8102633"><ele>759.0</ele><time>2026-04-26T14:35:14.341Z</time></trkpt><trkpt lat="44.3965083" lon="10.8102"><ele>758.0</ele><time>2026-04-26T14:35:15.341Z</time></trkpt><trkpt lat="44.3966567" lon="10.81016"><ele>757.0</ele><time>2026-04-26T14:35:16.341Z</time></trkpt><trkpt lat="44.3967967" lon="10.8101033"><ele>757.0</ele><time>2026-04-26T14:35:17.341Z</time></trkpt><trkpt lat="44.3969233" lon="10.8100383"><ele>757.0</ele><time>2026-04-26T14:35:18.341Z</time></trkpt><trkpt lat="44.3970317" lon="10.809975"><ele>757.0</ele><time>2026-04-26T14:35:19.341Z</time></trkpt><trkpt lat="44.3971317" lon="10.8099133"><ele>757.0</ele><time>2026-04-26T14:35:20.341Z</time></trkpt><trkpt lat="44.3972133" lon="10.80986"><ele>756.8</ele><time>2026-04-26T14:35:21.341Z</time></trkpt><trkpt lat="44.3973" lon="10.809795"><ele>756.6</ele><time>2026-04-26T14:35:22.341Z</time></trkpt><trkpt lat="44.397385" lon="10.809705"><ele>756.4</ele><time>2026-04-26T14:35:23.341Z</time></trkpt><trkpt lat="44.3974733" lon="10.8096183"><ele>756.1999999999999</ele><time>2026-04-26T14:35:24.341Z</time></trkpt><trkpt lat="44.39756" lon="10.80954"><ele>756.0</ele><time>2026-04-26T14:35:25.341Z</time></trkpt><trkpt lat="44.397645" lon="10.8094667"><ele>756.0</ele><time>2026-04-26T14:35:26.341Z</time></trkpt><trkpt lat="44.3977233" lon="10.8093917"><ele>756.0</ele><time>2026-04-26T14:35:27.341Z</time></trkpt><trkpt lat="44.3977883" lon="10.8093217"><ele>756.0</ele><time>2026-04-26T14:35:28.341Z</time></trkpt><trkpt lat="44.3978433" lon="10.8092617"><ele>756.0</ele><time>2026-04-26T14:35:29.341Z</time></trkpt><trkpt lat="44.39792" lon="10.80914"><ele>756.0</ele><time>2026-04-26T14:35:31.341Z</time></trkpt><trkpt lat="44.3979833" lon="10.8090217"><ele>755.5</ele><time>2026-04-26T14:35:33.341Z</time></trkpt><trkpt lat="44.398035" lon="10.808915"><ele>755.0</ele><time>2026-04-26T14:35:35.341Z</time></trkpt><trkpt lat="44.3980933" lon="10.8088417"><ele>754.5</ele><time>2026-04-26T14:35:37.341Z</time></trkpt><trkpt lat="44.3981433" lon="10.8087533"><ele>754.0</ele><time>2026-04-26T14:35:40.341Z</time></trkpt><trkpt lat="44.3981883" lon="10.8086683"><ele>753.5</ele><time>2026-04-26T14:35:42.341Z</time></trkpt><trkpt lat="44.39823" lon="10.8085983"><ele>753.0</ele><time>2026-04-26T14:35:43.341Z</time></trkpt><trkpt lat="44.39828" lon="10.8085083"><ele>752.8</ele><time>2026-04-26T14:35:44.341Z</time></trkpt><trkpt lat="44.39833" lon="10.808395"><ele>752.5999999999999</ele><time>2026-04-26T14:35:45.341Z</time></trkpt><trkpt lat="44.3983917" lon="10.8082633"><ele>752.4000000000001</ele><time>2026-04-26T14:35:46.341Z</time></trkpt><trkpt lat="44.39844" lon="10.80815"><ele>752.2</ele><time>2026-04-26T14:35:47.341Z</time></trkpt><trkpt lat="44.39852" lon="10.8080167"><ele>752.0</ele><time>2026-04-26T14:35:48.341Z</time></trkpt><trkpt lat="44.3985933" lon="10.807895"><ele>752.0</ele><time>2026-04-26T14:35:49.341Z</time></trkpt><trkpt lat="44.3986817" lon="10.807785"><ele>752.0</ele><time>2026-04-26T14:35:50.341Z</time></trkpt><trkpt lat="44.39879" lon="10.8076867"><ele>752.0</ele><time>2026-04-26T14:35:51.341Z</time></trkpt><trkpt lat="44.39892" lon="10.8076117"><ele>752.0</ele><time>2026-04-26T14:35:52.341Z</time></trkpt><trkpt lat="44.399065" lon="10.807535"><ele>749.6666666666666</ele><time>2026-04-26T14:35:53.341Z</time></trkpt><trkpt lat="44.3992217" lon="10.8074617"><ele>747.3333333333334</ele><time>2026-04-26T14:35:54.341Z</time></trkpt><trkpt lat="44.3993983" lon="10.8073883"><ele>745.0</ele><time>2026-04-26T14:35:55.341Z</time></trkpt><trkpt lat="44.3995817" lon="10.8072983"><ele>742.6666666666667</ele><time>2026-04-26T14:35:56.341Z</time></trkpt><trkpt lat="44.3997633" lon="10.80721"><ele>740.3333333333334</ele><time>2026-04-26T14:35:57.341Z</time></trkpt><trkpt lat="44.3999433" lon="10.80712"><ele>738.0</ele><time>2026-04-26T14:35:58.341Z</time></trkpt><trkpt lat="44.4001233" lon="10.80704"><ele>738.0</ele><time>2026-04-26T14:35:59.341Z</time></trkpt><trkpt lat="44.4002917" lon="10.8069767"><ele>738.0</ele><time>2026-04-26T14:36:00.341Z</time></trkpt><trkpt lat="44.4004533" lon="10.8069133"><ele>738.0</ele><time>2026-04-26T14:36:01.341Z</time></trkpt><trkpt lat="44.4006033" lon="10.8068617"><ele>735.5</ele><time>2026-04-26T14:36:02.341Z</time></trkpt><trkpt lat="44.4007367" lon="10.8068233"><ele>733.0</ele><time>2026-04-26T14:36:03.341Z</time></trkpt><trkpt lat="44.4008633" lon="10.8067717"><ele>730.5</ele><time>2026-04-26T14:36:04.341Z</time></trkpt><trkpt lat="44.4009833" lon="10.8067317"><ele>728.0</ele><time>2026-04-26T14:36:05.341Z</time></trkpt><trkpt lat="44.4011067" lon="10.8067"><ele>728.0</ele><time>2026-04-26T14:36:06.341Z</time></trkpt><trkpt lat="44.4012333" lon="10.8066617"><ele>728.0</ele><time>2026-04-26T14:36:07.341Z</time></trkpt><trkpt lat="44.4013683" lon="10.8066317"><ele>728.0</ele><time>2026-04-26T14:36:08.341Z</time></trkpt><trkpt lat="44.4014983" lon="10.8066033"><ele>728.0</ele><time>2026-04-26T14:36:09.341Z</time></trkpt><trkpt lat="44.4016267" lon="10.8065717"><ele>726.75</ele><time>2026-04-26T14:36:10.341Z</time></trkpt><trkpt lat="44.401755" lon="10.8065367"><ele>725.5</ele><time>2026-04-26T14:36:11.341Z</time></trkpt><trkpt lat="44.4018817" lon="10.8064833"><ele>724.25</ele><time>2026-04-26T14:36:12.341Z</time></trkpt><trkpt lat="44.402005" lon="10.806405"><ele>723.0</ele><time>2026-04-26T14:36:13.341Z</time></trkpt><trkpt lat="44.4021367" lon="10.8063017"><ele>722.3333333333334</ele><time>2026-04-26T14:36:14.341Z</time></trkpt><trkpt lat="44.40228" lon="10.8061733"><ele>721.6666666666667</ele><time>2026-04-26T14:36:15.341Z</time></trkpt><trkpt lat="44.4024167" lon="10.8060467"><ele>721.0</ele><time>2026-04-26T14:36:16.341Z</time></trkpt><trkpt lat="44.402535" lon="10.8059317"><ele>719.5999999999999</ele><time>2026-04-26T14:36:17.341Z</time></trkpt><trkpt lat="44.40263" lon="10.805825"><ele>718.2</ele><time>2026-04-26T14:36:18.341Z</time></trkpt><trkpt lat="44.4027" lon="10.8057133"><ele>716.8</ele><time>2026-04-26T14:36:19.341Z</time></trkpt><trkpt lat="44.4027483" lon="10.8055917"><ele>715.4000000000001</ele><time>2026-04-26T14:36:20.341Z</time></trkpt><trkpt lat="44.402765" lon="10.8054683"><ele>714.0</ele><time>2026-04-26T14:36:21.341Z</time></trkpt><trkpt lat="44.402755" lon="10.8053583"><ele>714.0</ele><time>2026-04-26T14:36:22.341Z</time></trkpt><trkpt lat="44.402735" lon="10.805255"><ele>714.0</ele><time>2026-04-26T14:36:23.341Z</time></trkpt><trkpt lat="44.4027383" lon="10.8051633"><ele>714.0</ele><time>2026-04-26T14:36:24.341Z</time></trkpt><trkpt lat="44.4027633" lon="10.80508"><ele>714.0</ele><time>2026-04-26T14:36:25.341Z</time></trkpt><trkpt lat="44.402825" lon="10.8049983"><ele>714.0</ele><time>2026-04-26T14:36:26.341Z</time></trkpt><trkpt lat="44.40291" lon="10.8049267"><ele>714.0</ele><time>2026-04-26T14:36:27.341Z</time></trkpt><trkpt lat="44.403" lon="10.8048683"><ele>712.5</ele><time>2026-04-26T14:36:28.341Z</time></trkpt><trkpt lat="44.403095" lon="10.80481"><ele>711.0</ele><time>2026-04-26T14:36:29.341Z</time></trkpt><trkpt lat="44.403185" lon="10.8047583"><ele>709.5</ele><time>2026-04-26T14:36:30.341Z</time></trkpt><trkpt lat="44.403265" lon="10.8047167"><ele>708.0</ele><time>2026-04-26T14:36:31.341Z</time></trkpt><trkpt lat="44.40334" lon="10.8047"><ele>706.5</ele><time>2026-04-26T14:36:32.341Z</time></trkpt><trkpt lat="44.403415" lon="10.8047233"><ele>705.0</ele><time>2026-04-26T14:36:33.341Z</time></trkpt><trkpt lat="44.4034817" lon="10.8047717"><ele>705.0</ele><time>2026-04-26T14:36:34.341Z</time></trkpt><trkpt lat="44.403545" lon="10.80487"><ele>705.0</ele><time>2026-04-26T14:36:35.341Z</time></trkpt><trkpt lat="44.4036083" lon="10.8049933"><ele>705.0</ele><time>2026-04-26T14:36:36.341Z</time></trkpt><trkpt lat="44.4036733" lon="10.8051233"><ele>705.0</ele><time>2026-04-26T14:36:37.341Z</time></trkpt><trkpt lat="44.4037283" lon="10.805275"><ele>705.0</ele><time>2026-04-26T14:36:38.342Z</time></trkpt><trkpt lat="44.40378" lon="10.80541"><ele>703.8</ele><time>2026-04-26T14:36:39.341Z</time></trkpt><trkpt lat="44.4038333" lon="10.8055367"><ele>702.6</ele><time>2026-04-26T14:36:40.342Z</time></trkpt><trkpt lat="44.4039017" lon="10.8056533"><ele>701.4000000000001</ele><time>2026-04-26T14:36:41.341Z</time></trkpt><trkpt lat="44.40398" lon="10.80576"><ele>700.2</ele><time>2026-04-26T14:36:42.341Z</time></trkpt><trkpt lat="44.40407" lon="10.8058683"><ele>699.0</ele><time>2026-04-26T14:36:43.341Z</time></trkpt><trkpt lat="44.4041517" lon="10.8059817"><ele>698.0</ele><time>2026-04-26T14:36:44.341Z</time></trkpt><trkpt lat="44.4042167" lon="10.8061"><ele>697.0</ele><time>2026-04-26T14:36:45.341Z</time></trkpt><trkpt lat="44.40427" lon="10.8062267"><ele>696.0</ele><time>2026-04-26T14:36:46.341Z</time></trkpt><trkpt lat="44.4043133" lon="10.8063567"><ele>695.0</ele><time>2026-04-26T14:36:47.341Z</time></trkpt><trkpt lat="44.404345" lon="10.8065017"><ele>694.0</ele><time>2026-04-26T14:36:48.341Z</time></trkpt><trkpt lat="44.40438" lon="10.8066433"><ele>694.0</ele><time>2026-04-26T14:36:49.341Z</time></trkpt><trkpt lat="44.4044167" lon="10.806775"><ele>694.0</ele><time>2026-04-26T14:36:50.341Z</time></trkpt><trkpt lat="44.4044583" lon="10.8068967"><ele>694.0</ele><time>2026-04-26T14:36:51.342Z</time></trkpt><trkpt lat="44.404505" lon="10.80701"><ele>694.0</ele><time>2026-04-26T14:36:52.341Z</time></trkpt><trkpt lat="44.4045533" lon="10.80712"><ele>694.0</ele><time>2026-04-26T14:36:53.341Z</time></trkpt><trkpt lat="44.4046033" lon="10.807215"><ele>692.6</ele><time>2026-04-26T14:36:54.341Z</time></trkpt><trkpt lat="44.4046683" lon="10.8072983"><ele>691.2</ele><time>2026-04-26T14:36:55.341Z</time></trkpt><trkpt lat="44.4047533" lon="10.80738"><ele>689.8000000000001</ele><time>2026-04-26T14:36:56.341Z</time></trkpt><trkpt lat="44.404855" lon="10.8074633"><ele>688.4000000000001</ele><time>2026-04-26T14:36:57.341Z</time></trkpt><trkpt lat="44.40497" lon="10.8075417"><ele>687.0</ele><time>2026-04-26T14:36:58.341Z</time></trkpt><trkpt lat="44.405075" lon="10.807615"><ele>687.2</ele><time>2026-04-26T14:36:59.341Z</time></trkpt><trkpt lat="44.405175" lon="10.8076817"><ele>687.4000000000001</ele><time>2026-04-26T14:37:00.341Z</time></trkpt><trkpt lat="44.4052817" lon="10.8077417"><ele>687.5999999999999</ele><time>2026-04-26T14:37:01.342Z</time></trkpt><trkpt lat="44.40539" lon="10.80778"><ele>687.8</ele><time>2026-04-26T14:37:02.341Z</time></trkpt><trkpt lat="44.4054917" lon="10.8078"><ele>688.0</ele><time>2026-04-26T14:37:03.341Z</time></trkpt><trkpt lat="44.40559" lon="10.8078217"><ele>688.0</ele><time>2026-04-26T14:37:04.341Z</time></trkpt><trkpt lat="44.40568" lon="10.80785"><ele>688.0</ele><time>2026-04-26T14:37:05.341Z</time></trkpt><trkpt lat="44.40577" lon="10.8079017"><ele>688.0</ele><time>2026-04-26T14:37:06.341Z</time></trkpt><trkpt lat="44.40585" lon="10.807945"><ele>688.0</ele><time>2026-04-26T14:37:07.341Z</time></trkpt><trkpt lat="44.405925" lon="10.8080067"><ele>688.0</ele><time>2026-04-26T14:37:08.341Z</time></trkpt><trkpt lat="44.4059933" lon="10.8080883"><ele>688.0</ele><time>2026-04-26T14:37:09.341Z</time></trkpt><trkpt lat="44.4060633" lon="10.8082067"><ele>688.0</ele><time>2026-04-26T14:37:10.341Z</time></trkpt><trkpt lat="44.4061317" lon="10.8083383"><ele>688.0</ele><time>2026-04-26T14:37:11.341Z</time></trkpt><trkpt lat="44.4061983" lon="10.8084733"><ele>688.0</ele><time>2026-04-26T14:37:12.341Z</time></trkpt><trkpt lat="44.40626" lon="10.8085967"><ele>688.1666666666667</ele><time>2026-04-26T14:37:13.341Z</time></trkpt><trkpt lat="44.40632" lon="10.80871"><ele>688.3333333333334</ele><time>2026-04-26T14:37:14.341Z</time></trkpt><trkpt lat="44.4063767" lon="10.80881"><ele>688.5</ele><time>2026-04-26T14:37:15.341Z</time></trkpt><trkpt lat="44.4064283" lon="10.8088983"><ele>688.6666666666666</ele><time>2026-04-26T14:37:16.341Z</time></trkpt><trkpt lat="44.4064883" lon="10.8089667"><ele>688.8333333333333</ele><time>2026-04-26T14:37:17.341Z</time></trkpt><trkpt lat="44.4065683" lon="10.8089883"><ele>689.0</ele><time>2026-04-26T14:37:18.341Z</time></trkpt><trkpt lat="44.4066567" lon="10.8089867"><ele>686.8000000000001</ele><time>2026-04-26T14:37:19.341Z</time></trkpt><trkpt lat="44.40674" lon="10.80895"><ele>684.6</ele><time>2026-04-26T14:37:20.341Z</time></trkpt><trkpt lat="44.406825" lon="10.808885"><ele>682.4</ele><time>2026-04-26T14:37:21.341Z</time></trkpt><trkpt lat="44.406915" lon="10.8087983"><ele>680.2</ele><time>2026-04-26T14:37:22.341Z</time></trkpt><trkpt lat="44.407005" lon="10.8086733"><ele>678.0</ele><time>2026-04-26T14:37:23.341Z</time></trkpt><trkpt lat="44.4070933" lon="10.80853"><ele>678.2</ele><time>2026-04-26T14:37:24.341Z</time></trkpt><trkpt lat="44.407175" lon="10.80841"><ele>678.4</ele><time>2026-04-26T14:37:25.342Z</time></trkpt><trkpt lat="44.4072583" lon="10.80831"><ele>678.6</ele><time>2026-04-26T14:37:26.341Z</time></trkpt><trkpt lat="44.407335" lon="10.8082167"><ele>678.8000000000001</ele><time>2026-04-26T14:37:27.341Z</time></trkpt><trkpt lat="44.4074083" lon="10.80812"><ele>679.0</ele><time>2026-04-26T14:37:28.341Z</time></trkpt><trkpt lat="44.4074717" lon="10.808025"><ele>679.0</ele><time>2026-04-26T14:37:29.341Z</time></trkpt><trkpt lat="44.4075283" lon="10.8079233"><ele>679.0</ele><time>2026-04-26T14:37:30.341Z</time></trkpt><trkpt lat="44.407585" lon="10.80781"><ele>679.0</ele><time>2026-04-26T14:37:31.341Z</time></trkpt><trkpt lat="44.407635" lon="10.8076967"><ele>679.0</ele><time>2026-04-26T14:37:32.341Z</time></trkpt><trkpt lat="44.4076817" lon="10.807605"><ele>679.0</ele><time>2026-04-26T14:37:33.341Z</time></trkpt><trkpt lat="44.4077283" lon="10.807535"><ele>679.0</ele><time>2026-04-26T14:37:34.341Z</time></trkpt><trkpt lat="44.407815" lon="10.8074233"><ele>679.1666666666667</ele><time>2026-04-26T14:37:36.341Z</time></trkpt><trkpt lat="44.4078517" lon="10.807345"><ele>679.3333333333334</ele><time>2026-04-26T14:37:37.341Z</time></trkpt><trkpt lat="44.407885" lon="10.8072483"><ele>679.5</ele><time>2026-04-26T14:37:38.34Z</time></trkpt><trkpt lat="44.4079183" lon="10.8071383"><ele>679.6666666666666</ele><time>2026-04-26T14:37:39.34Z</time></trkpt><trkpt lat="44.40795" lon="10.80702"><ele>679.8333333333333</ele><time>2026-04-26T14:37:40.34Z</time></trkpt><trkpt lat="44.407985" lon="10.8068967"><ele>680.0</ele><time>2026-04-26T14:37:41.34Z</time></trkpt><trkpt lat="44.4080167" lon="10.80679"><ele>680.0</ele><time>2026-04-26T14:37:42.34Z</time></trkpt><trkpt lat="44.408045" lon="10.80671"><ele>680.0</ele><time>2026-04-26T14:37:43.34Z</time></trkpt><trkpt lat="44.4081017" lon="10.8065783"><ele>680.0</ele><time>2026-04-26T14:37:45.34Z</time></trkpt><trkpt lat="44.4081767" lon="10.8064583"><ele>680.0</ele><time>2026-04-26T14:37:47.34Z</time></trkpt><trkpt lat="44.4082667" lon="10.8063383"><ele>680.0</ele><time>2026-04-26T14:37:49.34Z</time></trkpt><trkpt lat="44.4083067" lon="10.8061917"><ele>680.0</ele><time>2026-04-26T14:37:51.34Z</time></trkpt><trkpt lat="44.4083017" lon="10.8061"><ele>680.0</ele><time>2026-04-26T14:37:52.34Z</time></trkpt><trkpt lat="44.4082917" lon="10.8059967"><ele>680.0</ele><time>2026-04-26T14:37:53.34Z</time></trkpt><trkpt lat="44.4082833" lon="10.8058883"><ele>680.0</ele><time>2026-04-26T14:37:54.34Z</time></trkpt><trkpt lat="44.4082817" lon="10.8057917"><ele>680.0</ele><time>2026-04-26T14:37:55.34Z</time></trkpt><trkpt lat="44.4083067" lon="10.8056383"><ele>680.0</ele><time>2026-04-26T14:37:57.34Z</time></trkpt><trkpt lat="44.4083517" lon="10.8055517"><ele>679.8333333333333</ele><time>2026-04-26T14:37:59.34Z</time></trkpt><trkpt lat="44.408435" lon="10.80552"><ele>679.6666666666666</ele><time>2026-04-26T14:38:01.34Z</time></trkpt><trkpt lat="44.4085017" lon="10.8055383"><ele>679.5</ele><time>2026-04-26T14:38:02.34Z</time></trkpt><trkpt lat="44.4085883" lon="10.805565"><ele>679.3333333333334</ele><time>2026-04-26T14:38:03.34Z</time></trkpt><trkpt lat="44.4086817" lon="10.8056"><ele>679.1666666666667</ele><time>2026-04-26T14:38:04.34Z</time></trkpt><trkpt lat="44.4087733" lon="10.8056417"><ele>679.0</ele><time>2026-04-26T14:38:05.34Z</time></trkpt><trkpt lat="44.40886" lon="10.8056783"><ele>680.6</ele><time>2026-04-26T14:38:06.34Z</time></trkpt><trkpt lat="44.4089517" lon="10.805705"><ele>682.2</ele><time>2026-04-26T14:38:07.34Z</time></trkpt><trkpt lat="44.40906" lon="10.8057367"><ele>683.8000000000001</ele><time>2026-04-26T14:38:08.34Z</time></trkpt><trkpt lat="44.40918" lon="10.8057633"><ele>685.4000000000001</ele><time>2026-04-26T14:38:09.34Z</time></trkpt><trkpt lat="44.4092933" lon="10.8057983"><ele>687.0</ele><time>2026-04-26T14:38:10.34Z</time></trkpt><trkpt lat="44.4093967" lon="10.8058517"><ele>687.0</ele><time>2026-04-26T14:38:11.34Z</time></trkpt><trkpt lat="44.4094733" lon="10.80589"><ele>687.0</ele><time>2026-04-26T14:38:12.34Z</time></trkpt><trkpt lat="44.409545" lon="10.8059167"><ele>687.0</ele><time>2026-04-26T14:38:13.34Z</time></trkpt><trkpt lat="44.40961" lon="10.8059317"><ele>687.0</ele><time>2026-04-26T14:38:14.34Z</time></trkpt><trkpt lat="44.409685" lon="10.8059517"><ele>687.0</ele><time>2026-04-26T14:38:16.34Z</time></trkpt><trkpt lat="44.4097483" lon="10.805925"><ele>687.0</ele><time>2026-04-26T14:38:19.34Z</time></trkpt><trkpt lat="44.4098217" lon="10.8058683"><ele>687.0</ele><time>2026-04-26T14:38:21.34Z</time></trkpt><trkpt lat="44.409885" lon="10.80584"><ele>688.0</ele><time>2026-04-26T14:38:22.34Z</time></trkpt><trkpt lat="44.4099517" lon="10.805825"><ele>689.0</ele><time>2026-04-26T14:38:23.341Z</time></trkpt><trkpt lat="44.410065" lon="10.80584"><ele>690.0</ele><time>2026-04-26T14:38:24.34Z</time></trkpt><trkpt lat="44.4101417" lon="10.805875"><ele>691.0</ele><time>2026-04-26T14:38:25.341Z</time></trkpt><trkpt lat="44.4102217" lon="10.8059"><ele>692.0</ele><time>2026-04-26T14:38:26.34Z</time></trkpt><trkpt lat="44.4102983" lon="10.8059133"><ele>693.0</ele><time>2026-04-26T14:38:27.34Z</time></trkpt><trkpt lat="44.4103733" lon="10.805915"><ele>692.5</ele><time>2026-04-26T14:38:28.34Z</time></trkpt><trkpt lat="44.4105017" lon="10.805885"><ele>692.0</ele><time>2026-04-26T14:38:30.34Z</time></trkpt><trkpt lat="44.4105683" lon="10.8058617"><ele>691.5</ele><time>2026-04-26T14:38:31.34Z</time></trkpt><trkpt lat="44.4106333" lon="10.8058367"><ele>691.0</ele><time>2026-04-26T14:38:32.34Z</time></trkpt><trkpt lat="44.4106967" lon="10.8058167"><ele>690.5</ele><time>2026-04-26T14:38:33.34Z</time></trkpt><trkpt lat="44.4108033" lon="10.8058067"><ele>690.0</ele><time>2026-04-26T14:38:35.34Z</time></trkpt><trkpt lat="44.4109" lon="10.8058067"><ele>690.0</ele><time>2026-04-26T14:38:37.34Z</time></trkpt><trkpt lat="44.4109733" lon="10.8057833"><ele>690.0</ele><time>2026-04-26T14:38:39.34Z</time></trkpt><trkpt lat="44.4110617" lon="10.8057433"><ele>690.0</ele><time>2026-04-26T14:38:41.34Z</time></trkpt><trkpt lat="44.41117" lon="10.805645"><ele>690.0</ele><time>2026-04-26T14:38:43.34Z</time></trkpt><trkpt lat="44.4112217" lon="10.8055667"><ele>690.0</ele><time>2026-04-26T14:38:44.34Z</time></trkpt><trkpt lat="44.4112767" lon="10.805465"><ele>691.0</ele><time>2026-04-26T14:38:45.34Z</time></trkpt><trkpt lat="44.4113517" lon="10.8053333"><ele>692.0</ele><time>2026-04-26T14:38:46.341Z</time></trkpt><trkpt lat="44.411425" lon="10.8052117"><ele>693.0</ele><time>2026-04-26T14:38:47.34Z</time></trkpt><trkpt lat="44.411495" lon="10.8051"><ele>694.0</ele><time>2026-04-26T14:38:48.34Z</time></trkpt><trkpt lat="44.4115517" lon="10.80501"><ele>695.0</ele><time>2026-04-26T14:38:49.34Z</time></trkpt><trkpt lat="44.4115983" lon="10.80494"><ele>695.2</ele><time>2026-04-26T14:38:50.34Z</time></trkpt><trkpt lat="44.4117" lon="10.8048717"><ele>695.4</ele><time>2026-04-26T14:38:52.34Z</time></trkpt><trkpt lat="44.4118283" lon="10.8048567"><ele>695.5999999999999</ele><time>2026-04-26T14:38:54.34Z</time></trkpt><trkpt lat="44.4119117" lon="10.8048583"><ele>695.8</ele><time>2026-04-26T14:38:55.34Z</time></trkpt><trkpt lat="44.4120083" lon="10.8048617"><ele>696.0</ele><time>2026-04-26T14:38:56.34Z</time></trkpt><trkpt lat="44.4121033" lon="10.8048683"><ele>697.6666666666666</ele><time>2026-04-26T14:38:57.34Z</time></trkpt><trkpt lat="44.412185" lon="10.8048783"><ele>699.3333333333334</ele><time>2026-04-26T14:38:58.34Z</time></trkpt><trkpt lat="44.4122683" lon="10.8048833"><ele>701.0</ele><time>2026-04-26T14:38:59.34Z</time></trkpt><trkpt lat="44.4123417" lon="10.8048667"><ele>702.6666666666667</ele><time>2026-04-26T14:39:00.34Z</time></trkpt><trkpt lat="44.4124183" lon="10.8048333"><ele>704.3333333333334</ele><time>2026-04-26T14:39:01.34Z</time></trkpt><trkpt lat="44.4125067" lon="10.8048"><ele>706.0</ele><time>2026-04-26T14:39:02.34Z</time></trkpt><trkpt lat="44.412595" lon="10.8047717"><ele>706.0</ele><time>2026-04-26T14:39:03.34Z</time></trkpt><trkpt lat="44.41268" lon="10.80476"><ele>706.0</ele><time>2026-04-26T14:39:04.34Z</time></trkpt><trkpt lat="44.4127583" lon="10.80477"><ele>706.0</ele><time>2026-04-26T14:39:05.34Z</time></trkpt><trkpt lat="44.4128417" lon="10.8048"><ele>706.0</ele><time>2026-04-26T14:39:06.34Z</time></trkpt><trkpt lat="44.4129317" lon="10.80482"><ele>706.0</ele><time>2026-04-26T14:39:07.34Z</time></trkpt><trkpt lat="44.4130217" lon="10.8048367"><ele>706.0</ele><time>2026-04-26T14:39:08.34Z</time></trkpt><trkpt lat="44.4131167" lon="10.8048417"><ele>708.0</ele><time>2026-04-26T14:39:09.34Z</time></trkpt><trkpt lat="44.4132067" lon="10.8048367"><ele>710.0</ele><time>2026-04-26T14:39:10.34Z</time></trkpt><trkpt lat="44.4132833" lon="10.8048317"><ele>712.0</ele><time>2026-04-26T14:39:11.34Z</time></trkpt><trkpt lat="44.4133483" lon="10.804815"><ele>714.0</ele><time>2026-04-26T14:39:12.34Z</time></trkpt><trkpt lat="44.41346" lon="10.804765"><ele>716.0</ele><time>2026-04-26T14:39:14.34Z</time></trkpt><trkpt lat="44.413555" lon="10.8047117"><ele>716.0</ele><time>2026-04-26T14:39:16.34Z</time></trkpt><trkpt lat="44.413645" lon="10.8046583"><ele>716.0</ele><time>2026-04-26T14:39:18.34Z</time></trkpt><trkpt lat="44.4137517" lon="10.8046183"><ele>716.0</ele><time>2026-04-26T14:39:20.34Z</time></trkpt><trkpt lat="44.4138667" lon="10.8045917"><ele>716.0</ele><time>2026-04-26T14:39:22.34Z</time></trkpt><trkpt lat="44.4139767" lon="10.8045683"><ele>716.0</ele><time>2026-04-26T14:39:24.34Z</time></trkpt><trkpt lat="44.4141" lon="10.8045367"><ele>719.8</ele><time>2026-04-26T14:39:26.34Z</time></trkpt><trkpt lat="44.414215" lon="10.804505"><ele>723.5999999999999</ele><time>2026-04-26T14:39:28.34Z</time></trkpt><trkpt lat="44.4143367" lon="10.8044717"><ele>727.4</ele><time>2026-04-26T14:39:30.34Z</time></trkpt><trkpt lat="44.4144567" lon="10.8044217"><ele>731.2</ele><time>2026-04-26T14:39:32.34Z</time></trkpt><trkpt lat="44.4145183" lon="10.8043967"><ele>735.0</ele><time>2026-04-26T14:39:33.34Z</time></trkpt><trkpt lat="44.4145833" lon="10.8043633"><ele>738.8333333333334</ele><time>2026-04-26T14:39:34.34Z</time></trkpt><trkpt lat="44.4146617" lon="10.8043167"><ele>742.6666666666666</ele><time>2026-04-26T14:39:35.34Z</time></trkpt><trkpt lat="44.4147383" lon="10.8042683"><ele>746.5</ele><time>2026-04-26T14:39:36.34Z</time></trkpt><trkpt lat="44.4148117" lon="10.80423"><ele>750.3333333333333</ele><time>2026-04-26T14:39:37.34Z</time></trkpt><trkpt lat="44.4148717" lon="10.8042033"><ele>754.1666666666666</ele><time>2026-04-26T14:39:38.34Z</time></trkpt><trkpt lat="44.4149633" lon="10.8041817"><ele>758.0</ele><time>2026-04-26T14:39:40.34Z</time></trkpt><trkpt lat="44.415035" lon="10.8041683"><ele>758.0</ele><time>2026-04-26T14:39:42.34Z</time></trkpt><trkpt lat="44.4150933" lon="10.8041117"><ele>758.0</ele><time>2026-04-26T14:39:44.34Z</time></trkpt><trkpt lat="44.4151617" lon="10.8039833"><ele>758.0</ele><time>2026-04-26T14:39:46.34Z</time></trkpt><trkpt lat="44.4151933" lon="10.8038967"><ele>758.0</ele><time>2026-04-26T14:39:47.34Z</time></trkpt><trkpt lat="44.415225" lon="10.8037883"><ele>758.0</ele><time>2026-04-26T14:39:48.34Z</time></trkpt><trkpt lat="44.415245" lon="10.8036683"><ele>758.0</ele><time>2026-04-26T14:39:49.34Z</time></trkpt><trkpt lat="44.4152567" lon="10.8035583"><ele>757.6666666666666</ele><time>2026-04-26T14:39:50.34Z</time></trkpt><trkpt lat="44.4152683" lon="10.8034583"><ele>757.3333333333333</ele><time>2026-04-26T14:39:51.34Z</time></trkpt><trkpt lat="44.4152867" lon="10.8033533"><ele>757.0</ele><time>2026-04-26T14:39:52.34Z</time></trkpt><trkpt lat="44.415315" lon="10.80325"><ele>756.6666666666666</ele><time>2026-04-26T14:39:53.34Z</time></trkpt><trkpt lat="44.4153517" lon="10.8031433"><ele>756.3333333333334</ele><time>2026-04-26T14:39:54.34Z</time></trkpt><trkpt lat="44.4153983" lon="10.803035"><ele>756.0</ele><time>2026-04-26T14:39:55.34Z</time></trkpt><trkpt lat="44.4154733" lon="10.8029067"><ele>760.25</ele><time>2026-04-26T14:39:56.34Z</time></trkpt><trkpt lat="44.41556" lon="10.802765"><ele>764.5</ele><time>2026-04-26T14:39:57.341Z</time></trkpt><trkpt lat="44.4156467" lon="10.8026417"><ele>768.75</ele><time>2026-04-26T14:39:58.34Z</time></trkpt><trkpt lat="44.4157233" lon="10.802545"><ele>773.0</ele><time>2026-04-26T14:39:59.34Z</time></trkpt><trkpt lat="44.415805" lon="10.80246"><ele>773.5999999999999</ele><time>2026-04-26T14:40:00.34Z</time></trkpt><trkpt lat="44.4158917" lon="10.802395"><ele>774.1999999999999</ele><time>2026-04-26T14:40:01.34Z</time></trkpt><trkpt lat="44.41598" lon="10.8023333"><ele>774.8</ele><time>2026-04-26T14:40:02.34Z</time></trkpt><trkpt lat="44.4160867" lon="10.8022733"><ele>775.4</ele><time>2026-04-26T14:40:03.34Z</time></trkpt><trkpt lat="44.4161967" lon="10.8022217"><ele>776.0</ele><time>2026-04-26T14:40:04.34Z</time></trkpt><trkpt lat="44.4163083" lon="10.8021817"><ele>778.4</ele><time>2026-04-26T14:40:05.341Z</time></trkpt><trkpt lat="44.4164167" lon="10.8021517"><ele>780.8</ele><time>2026-04-26T14:40:06.34Z</time></trkpt><trkpt lat="44.416525" lon="10.80214"><ele>783.1999999999999</ele><time>2026-04-26T14:40:07.34Z</time></trkpt><trkpt lat="44.4166333" lon="10.802125"><ele>785.5999999999999</ele><time>2026-04-26T14:40:08.34Z</time></trkpt><trkpt lat="44.416735" lon="10.8020983"><ele>788.0</ele><time>2026-04-26T14:40:09.34Z</time></trkpt><trkpt lat="44.41681" lon="10.8020367"><ele>788.0</ele><time>2026-04-26T14:40:10.34Z</time></trkpt><trkpt lat="44.4168767" lon="10.8019583"><ele>788.0</ele><time>2026-04-26T14:40:11.34Z</time></trkpt><trkpt lat="44.4169383" lon="10.8018533"><ele>788.0</ele><time>2026-04-26T14:40:12.34Z</time></trkpt><trkpt lat="44.4169967" lon="10.8017383"><ele>788.0</ele><time>2026-04-26T14:40:13.34Z</time></trkpt><trkpt lat="44.4170717" lon="10.8016117"><ele>788.0</ele><time>2026-04-26T14:40:14.34Z</time></trkpt><trkpt lat="44.4171467" lon="10.8014783"><ele>791.0</ele><time>2026-04-26T14:40:15.34Z</time></trkpt><trkpt lat="44.4172417" lon="10.8013283"><ele>794.0</ele><time>2026-04-26T14:40:16.34Z</time></trkpt><trkpt lat="44.417315" lon="10.80119"><ele>797.0</ele><time>2026-04-26T14:40:17.34Z</time></trkpt><trkpt lat="44.4173817" lon="10.8010617"><ele>800.0</ele><time>2026-04-26T14:40:18.34Z</time></trkpt><trkpt lat="44.4174533" lon="10.8009367"><ele>800.0000000000001</ele><time>2026-04-26T14:40:19.34Z</time></trkpt><trkpt lat="44.4175283" lon="10.8008217"><ele>800.0</ele><time>2026-04-26T14:40:20.34Z</time></trkpt><trkpt lat="44.417595" lon="10.8007433"><ele>800.0</ele><time>2026-04-26T14:40:21.34Z</time></trkpt><trkpt lat="44.4176533" lon="10.80068"><ele>800.0</ele><time>2026-04-26T14:40:22.34Z</time></trkpt><trkpt lat="44.4177067" lon="10.8006317"><ele>800.0000000000001</ele><time>2026-04-26T14:40:24.34Z</time></trkpt><trkpt lat="44.4177817" lon="10.8006517"><ele>800.0</ele><time>2026-04-26T14:40:32.339Z</time></trkpt><trkpt lat="44.4179217" lon="10.8006133"><ele>802.25</ele><time>2026-04-26T14:40:34.339Z</time></trkpt><trkpt lat="44.4180183" lon="10.800565"><ele>804.5</ele><time>2026-04-26T14:40:35.339Z</time></trkpt><trkpt lat="44.418135" lon="10.8005"><ele>806.75</ele><time>2026-04-26T14:40:36.339Z</time></trkpt><trkpt lat="44.4182733" lon="10.80043"><ele>809.0</ele><time>2026-04-26T14:40:37.339Z</time></trkpt><trkpt lat="44.4184017" lon="10.800325"><ele>809.0</ele><time>2026-04-26T14:40:38.339Z</time></trkpt><trkpt lat="44.41853" lon="10.8002083"><ele>809.0</ele><time>2026-04-26T14:40:39.339Z</time></trkpt><trkpt lat="44.418655" lon="10.8000717"><ele>809.0</ele><time>2026-04-26T14:40:40.339Z</time></trkpt><trkpt lat="44.41876" lon="10.79992"><ele>807.3333333333334</ele><time>2026-04-26T14:40:41.34Z</time></trkpt><trkpt lat="44.4188617" lon="10.7997367"><ele>805.6666666666667</ele><time>2026-04-26T14:40:42.339Z</time></trkpt><trkpt lat="44.4189483" lon="10.7995683"><ele>804.0</ele><time>2026-04-26T14:40:43.339Z</time></trkpt><trkpt lat="44.4190267" lon="10.7994033"><ele>803.6</ele><time>2026-04-26T14:40:44.339Z</time></trkpt><trkpt lat="44.41909" lon="10.799265"><ele>803.2</ele><time>2026-04-26T14:40:45.34Z</time></trkpt><trkpt lat="44.4191417" lon="10.79914"><ele>802.8000000000001</ele><time>2026-04-26T14:40:46.339Z</time></trkpt><trkpt lat="44.419195" lon="10.79901"><ele>802.4000000000001</ele><time>2026-04-26T14:40:47.339Z</time></trkpt><trkpt lat="44.41925" lon="10.7988833"><ele>802.0</ele><time>2026-04-26T14:40:48.339Z</time></trkpt><trkpt lat="44.4193017" lon="10.7987567"><ele>802.0</ele><time>2026-04-26T14:40:49.339Z</time></trkpt><trkpt lat="44.4193483" lon="10.798625"><ele>802.0</ele><time>2026-04-26T14:40:50.339Z</time></trkpt><trkpt lat="44.4193833" lon="10.7984833"><ele>802.0</ele><time>2026-04-26T14:40:51.339Z</time></trkpt><trkpt lat="44.4193967" lon="10.7983217"><ele>802.0</ele><time>2026-04-26T14:40:52.339Z</time></trkpt><trkpt lat="44.4193867" lon="10.79815"><ele>801.25</ele><time>2026-04-26T14:40:53.339Z</time></trkpt><trkpt lat="44.419345" lon="10.79799"><ele>800.5</ele><time>2026-04-26T14:40:54.339Z</time></trkpt><trkpt lat="44.4192817" lon="10.7978367"><ele>799.75</ele><time>2026-04-26T14:40:55.339Z</time></trkpt><trkpt lat="44.4192333" lon="10.7976917"><ele>799.0</ele><time>2026-04-26T14:40:56.339Z</time></trkpt><trkpt lat="44.4192067" lon="10.7975467"><ele>798.6</ele><time>2026-04-26T14:40:57.34Z</time></trkpt><trkpt lat="44.4192117" lon="10.7973983"><ele>798.2</ele><time>2026-04-26T14:40:58.339Z</time></trkpt><trkpt lat="44.41924" lon="10.7972567"><ele>797.8000000000001</ele><time>2026-04-26T14:40:59.34Z</time></trkpt><trkpt lat="44.4192967" lon="10.797115"><ele>797.4000000000001</ele><time>2026-04-26T14:41:00.339Z</time></trkpt><trkpt lat="44.419365" lon="10.7969933"><ele>797.0</ele><time>2026-04-26T14:41:01.339Z</time></trkpt><trkpt lat="44.4194433" lon="10.7968883"><ele>796.6</ele><time>2026-04-26T14:41:02.339Z</time></trkpt><trkpt lat="44.4195183" lon="10.7967983"><ele>796.2</ele><time>2026-04-26T14:41:03.339Z</time></trkpt><trkpt lat="44.4196017" lon="10.7967283"><ele>795.8</ele><time>2026-04-26T14:41:04.339Z</time></trkpt><trkpt lat="44.4197017" lon="10.796665"><ele>795.4</ele><time>2026-04-26T14:41:05.339Z</time></trkpt><trkpt lat="44.419815" lon="10.79661"><ele>795.0</ele><time>2026-04-26T14:41:06.339Z</time></trkpt><trkpt lat="44.41992" lon="10.7965567"><ele>795.0</ele><time>2026-04-26T14:41:07.339Z</time></trkpt><trkpt lat="44.4200183" lon="10.7965"><ele>795.0</ele><time>2026-04-26T14:41:08.339Z</time></trkpt><trkpt lat="44.42009" lon="10.7964183"><ele>795.0</ele><time>2026-04-26T14:41:09.339Z</time></trkpt><trkpt lat="44.42015" lon="10.796295"><ele>795.0</ele><time>2026-04-26T14:41:10.339Z</time></trkpt><trkpt lat="44.420185" lon="10.79613"><ele>795.0</ele><time>2026-04-26T14:41:11.339Z</time></trkpt><trkpt lat="44.4202083" lon="10.7959667"><ele>794.0</ele><time>2026-04-26T14:41:12.339Z</time></trkpt><trkpt lat="44.4202317" lon="10.79584"><ele>793.0</ele><time>2026-04-26T14:41:13.339Z</time></trkpt><trkpt lat="44.4202383" lon="10.79573"><ele>792.0</ele><time>2026-04-26T14:41:14.34Z</time></trkpt><trkpt lat="44.4202533" lon="10.79564"><ele>791.0</ele><time>2026-04-26T14:41:15.339Z</time></trkpt><trkpt lat="44.4202683" lon="10.79553"><ele>790.0</ele><time>2026-04-26T14:41:16.34Z</time></trkpt><trkpt lat="44.42028" lon="10.7954033"><ele>789.0</ele><time>2026-04-26T14:41:17.339Z</time></trkpt><trkpt lat="44.4203" lon="10.7952533"><ele>790.75</ele><time>2026-04-26T14:41:18.339Z</time></trkpt><trkpt lat="44.4203217" lon="10.7950883"><ele>792.5</ele><time>2026-04-26T14:41:19.339Z</time></trkpt><trkpt lat="44.4203467" lon="10.7949183"><ele>794.25</ele><time>2026-04-26T14:41:20.339Z</time></trkpt><trkpt lat="44.4203783" lon="10.794735"><ele>796.0</ele><time>2026-04-26T14:41:21.339Z</time></trkpt><trkpt lat="44.4204083" lon="10.79457"><ele>796.0</ele><time>2026-04-26T14:41:22.339Z</time></trkpt><trkpt lat="44.4204583" lon="10.7944033"><ele>796.0</ele><time>2026-04-26T14:41:23.339Z</time></trkpt><trkpt lat="44.4205067" lon="10.7942317"><ele>796.0</ele><time>2026-04-26T14:41:24.34Z</time></trkpt><trkpt lat="44.4205433" lon="10.7940583"><ele>796.0</ele><time>2026-04-26T14:41:25.339Z</time></trkpt><trkpt lat="44.4205983" lon="10.7939017"><ele>797.0</ele><time>2026-04-26T14:41:26.339Z</time></trkpt><trkpt lat="44.42066" lon="10.7937617"><ele>798.0</ele><time>2026-04-26T14:41:27.34Z</time></trkpt><trkpt lat="44.42072" lon="10.7936233"><ele>799.0</ele><time>2026-04-26T14:41:28.339Z</time></trkpt><trkpt lat="44.4207967" lon="10.7934983"><ele>800.0</ele><time>2026-04-26T14:41:29.339Z</time></trkpt><trkpt lat="44.42088" lon="10.793405"><ele>800.0</ele><time>2026-04-26T14:41:30.339Z</time></trkpt><trkpt lat="44.4209733" lon="10.79334"><ele>800.0</ele><time>2026-04-26T14:41:31.339Z</time></trkpt><trkpt lat="44.4210733" lon="10.7932517"><ele>800.0</ele><time>2026-04-26T14:41:32.339Z</time></trkpt><trkpt lat="44.4211533" lon="10.793155"><ele>800.0</ele><time>2026-04-26T14:41:33.339Z</time></trkpt><trkpt lat="44.4212117" lon="10.7930483"><ele>800.0</ele><time>2026-04-26T14:41:34.34Z</time></trkpt><trkpt lat="44.4212667" lon="10.7929383"><ele>798.0</ele><time>2026-04-26T14:41:35.339Z</time></trkpt><trkpt lat="44.4213167" lon="10.792825"><ele>796.0</ele><time>2026-04-26T14:41:36.339Z</time></trkpt><trkpt lat="44.4213717" lon="10.7927067"><ele>794.0</ele><time>2026-04-26T14:41:37.339Z</time></trkpt><trkpt lat="44.4214233" lon="10.7925983"><ele>792.0</ele><time>2026-04-26T14:41:38.339Z</time></trkpt><trkpt lat="44.421475" lon="10.7924867"><ele>790.0</ele><time>2026-04-26T14:41:39.339Z</time></trkpt><trkpt lat="44.4215283" lon="10.7923767"><ele>790.0</ele><time>2026-04-26T14:41:40.339Z</time></trkpt><trkpt lat="44.421575" lon="10.7922633"><ele>790.0</ele><time>2026-04-26T14:41:41.339Z</time></trkpt><trkpt lat="44.421615" lon="10.79214"><ele>790.0</ele><time>2026-04-26T14:41:42.339Z</time></trkpt><trkpt lat="44.4216567" lon="10.7920267"><ele>790.0</ele><time>2026-04-26T14:41:43.339Z</time></trkpt><trkpt lat="44.42169" lon="10.7918833"><ele>790.0</ele><time>2026-04-26T14:41:44.339Z</time></trkpt><trkpt lat="44.4217167" lon="10.7917367"><ele>790.9999999999999</ele><time>2026-04-26T14:41:45.339Z</time></trkpt><trkpt lat="44.4217317" lon="10.7915883"><ele>792.0</ele><time>2026-04-26T14:41:46.34Z</time></trkpt><trkpt lat="44.4217517" lon="10.7914767"><ele>793.0</ele><time>2026-04-26T14:41:47.339Z</time></trkpt><trkpt lat="44.42177" lon="10.7913683"><ele>794.0</ele><time>2026-04-26T14:41:48.339Z</time></trkpt><trkpt lat="44.4217833" lon="10.7912667"><ele>794.9999999999999</ele><time>2026-04-26T14:41:49.339Z</time></trkpt><trkpt lat="44.4217983" lon="10.7911717"><ele>796.0</ele><time>2026-04-26T14:41:50.339Z</time></trkpt><trkpt lat="44.421815" lon="10.7910783"><ele>795.9999999999999</ele><time>2026-04-26T14:41:51.339Z</time></trkpt><trkpt lat="44.4218433" lon="10.7909383"><ele>796.0</ele><time>2026-04-26T14:41:53.339Z</time></trkpt><trkpt lat="44.4218767" lon="10.7908283"><ele>796.0</ele><time>2026-04-26T14:41:55.339Z</time></trkpt><trkpt lat="44.4219083" lon="10.7907367"><ele>796.0</ele><time>2026-04-26T14:41:57.339Z</time></trkpt><trkpt lat="44.42193" lon="10.7906433"><ele>795.9999999999999</ele><time>2026-04-26T14:41:59.339Z</time></trkpt><trkpt lat="44.4219567" lon="10.79055"><ele>796.0</ele><time>2026-04-26T14:42:03.339Z</time></trkpt><trkpt lat="44.421985" lon="10.7904317"><ele>796.0</ele><time>2026-04-26T14:42:07.339Z</time></trkpt><trkpt lat="44.4220067" lon="10.7903283"><ele>796.0</ele><time>2026-04-26T14:42:09.339Z</time></trkpt><trkpt lat="44.4220533" lon="10.7901533"><ele>796.0</ele><time>2026-04-26T14:42:11.339Z</time></trkpt><trkpt lat="44.4220867" lon="10.79004"><ele>796.0</ele><time>2026-04-26T14:42:12.339Z</time></trkpt><trkpt lat="44.4221233" lon="10.7899367"><ele>796.0</ele><time>2026-04-26T14:42:13.339Z</time></trkpt><trkpt lat="44.422175" lon="10.789845"><ele>795.4999999999999</ele><time>2026-04-26T14:42:14.339Z</time></trkpt><trkpt lat="44.4222333" lon="10.7897683"><ele>795.0</ele><time>2026-04-26T14:42:15.339Z</time></trkpt><trkpt lat="44.422295" lon="10.7897133"><ele>794.5</ele><time>2026-04-26T14:42:16.339Z</time></trkpt><trkpt lat="44.4223833" lon="10.7896317"><ele>794.0</ele><time>2026-04-26T14:42:18.339Z</time></trkpt><trkpt lat="44.4224283" lon="10.78957"><ele>793.4999999999999</ele><time>2026-04-26T14:42:21.339Z</time></trkpt><trkpt lat="44.4224883" lon="10.78947"><ele>793.0</ele><time>2026-04-26T14:42:24.339Z</time></trkpt><trkpt lat="44.4225367" lon="10.7893717"><ele>792.9999999999999</ele><time>2026-04-26T14:42:25.339Z</time></trkpt><trkpt lat="44.422585" lon="10.789275"><ele>793.0</ele><time>2026-04-26T14:42:26.339Z</time></trkpt><trkpt lat="44.4226383" lon="10.7891833"><ele>793.0</ele><time>2026-04-26T14:42:27.339Z</time></trkpt><trkpt lat="44.422695" lon="10.7891"><ele>793.0</ele><time>2026-04-26T14:42:28.339Z</time></trkpt><trkpt lat="44.4227467" lon="10.7890217"><ele>792.9999999999999</ele><time>2026-04-26T14:42:29.339Z</time></trkpt><trkpt lat="44.422795" lon="10.7889583"><ele>793.0</ele><time>2026-04-26T14:42:30.339Z</time></trkpt><trkpt lat="44.4228467" lon="10.7889067"><ele>793.0</ele><time>2026-04-26T14:42:31.339Z</time></trkpt><trkpt lat="44.42296" lon="10.78887"><ele>793.0</ele><time>2026-04-26T14:42:33.339Z</time></trkpt><trkpt lat="44.4230583" lon="10.7888767"><ele>793.0</ele><time>2026-04-26T14:42:35.339Z</time></trkpt><trkpt lat="44.4231717" lon="10.7888533"><ele>793.0</ele><time>2026-04-26T14:42:37.339Z</time></trkpt><trkpt lat="44.4232783" lon="10.7888333"><ele>793.0</ele><time>2026-04-26T14:42:39.339Z</time></trkpt><trkpt lat="44.42336" lon="10.7888317"><ele>793.9999999999999</ele><time>2026-04-26T14:42:41.34Z</time></trkpt><trkpt lat="44.4233" lon="10.7888017"><ele>795.0</ele><time>2026-04-26T14:42:47.339Z</time></trkpt><trkpt lat="44.42321" lon="10.7888367"><ele>796.0</ele><time>2026-04-26T14:42:49.339Z</time></trkpt><trkpt lat="44.4232883" lon="10.7888533"><ele>797.0</ele><time>2026-04-26T14:43:04.339Z</time></trkpt><trkpt lat="44.4233617" lon="10.7888233"><ele>797.9999999999999</ele><time>2026-04-26T14:43:05.339Z</time></trkpt><trkpt lat="44.42346" lon="10.7887717"><ele>799.0</ele><time>2026-04-26T14:43:06.339Z</time></trkpt><trkpt lat="44.4235817" lon="10.7887117"><ele>799.0</ele><time>2026-04-26T14:43:07.339Z</time></trkpt><trkpt lat="44.4237167" lon="10.7886233"><ele>799.0</ele><time>2026-04-26T14:43:08.339Z</time></trkpt><trkpt lat="44.4238567" lon="10.7884967"><ele>799.0</ele><time>2026-04-26T14:43:09.339Z</time></trkpt><trkpt lat="44.4239683" lon="10.7883683"><ele>800.8000000000001</ele><time>2026-04-26T14:43:10.338Z</time></trkpt><trkpt lat="44.42409" lon="10.7882917"><ele>802.6</ele><time>2026-04-26T14:43:11.338Z</time></trkpt><trkpt lat="44.4241733" lon="10.7882033"><ele>804.4</ele><time>2026-04-26T14:43:12.338Z</time></trkpt><trkpt lat="44.4242433" lon="10.7881467"><ele>806.2</ele><time>2026-04-26T14:43:13.338Z</time></trkpt><trkpt lat="44.4243517" lon="10.7880967"><ele>808.0</ele><time>2026-04-26T14:43:15.338Z</time></trkpt><trkpt lat="44.42444" lon="10.788215"><ele>808.0</ele><time>2026-04-26T14:43:17.338Z</time></trkpt><trkpt lat="44.42448" lon="10.7883283"><ele>808.0</ele><time>2026-04-26T14:43:18.338Z</time></trkpt><trkpt lat="44.4245383" lon="10.7884617"><ele>808.0</ele><time>2026-04-26T14:43:19.338Z</time></trkpt><trkpt lat="44.4245933" lon="10.7885983"><ele>808.0</ele><time>2026-04-26T14:43:20.338Z</time></trkpt><trkpt lat="44.4246617" lon="10.7887"><ele>808.0</ele><time>2026-04-26T14:43:21.338Z</time></trkpt><trkpt lat="44.42473" lon="10.7887967"><ele>807.5999999999999</ele><time>2026-04-26T14:43:22.338Z</time></trkpt><trkpt lat="44.4248033" lon="10.7888617"><ele>807.1999999999999</ele><time>2026-04-26T14:43:23.338Z</time></trkpt><trkpt lat="44.4249067" lon="10.788885"><ele>806.8</ele><time>2026-04-26T14:43:24.338Z</time></trkpt><trkpt lat="44.42503" lon="10.78889"><ele>806.4</ele><time>2026-04-26T14:43:25.338Z</time></trkpt><trkpt lat="44.42516" lon="10.7888767"><ele>806.0</ele><time>2026-04-26T14:43:26.338Z</time></trkpt><trkpt lat="44.4252933" lon="10.7888467"><ele>806.0</ele><time>2026-04-26T14:43:27.338Z</time></trkpt><trkpt lat="44.425425" lon="10.7888067"><ele>806.0</ele><time>2026-04-26T14:43:28.338Z</time></trkpt><trkpt lat="44.42556" lon="10.788765"><ele>806.0</ele><time>2026-04-26T14:43:29.338Z</time></trkpt><trkpt lat="44.425705" lon="10.7887167"><ele>806.0</ele><time>2026-04-26T14:43:30.338Z</time></trkpt><trkpt lat="44.4258467" lon="10.7886933"><ele>804.5</ele><time>2026-04-26T14:43:31.338Z</time></trkpt><trkpt lat="44.4259833" lon="10.7887017"><ele>803.0</ele><time>2026-04-26T14:43:32.338Z</time></trkpt><trkpt lat="44.426125" lon="10.7887383"><ele>801.5</ele><time>2026-04-26T14:43:33.338Z</time></trkpt><trkpt lat="44.4262883" lon="10.7887717"><ele>800.0</ele><time>2026-04-26T14:43:34.338Z</time></trkpt><trkpt lat="44.4264567" lon="10.7887983"><ele>798.6666666666667</ele><time>2026-04-26T14:43:35.338Z</time></trkpt><trkpt lat="44.42663" lon="10.78882"><ele>797.3333333333333</ele><time>2026-04-26T14:43:36.338Z</time></trkpt><trkpt lat="44.4268" lon="10.7888317"><ele>796.0</ele><time>2026-04-26T14:43:37.338Z</time></trkpt><trkpt lat="44.4269683" lon="10.7888333"><ele>796.0</ele><time>2026-04-26T14:43:38.338Z</time></trkpt><trkpt lat="44.4271283" lon="10.788855"><ele>796.0</ele><time>2026-04-26T14:43:39.338Z</time></trkpt><trkpt lat="44.42729" lon="10.7889067"><ele>796.0</ele><time>2026-04-26T14:43:40.338Z</time></trkpt><trkpt lat="44.4274517" lon="10.788955"><ele>796.5</ele><time>2026-04-26T14:43:41.338Z</time></trkpt><trkpt lat="44.4276083" lon="10.78899"><ele>797.0</ele><time>2026-04-26T14:43:42.338Z</time></trkpt><trkpt lat="44.4277517" lon="10.7889983"><ele>797.5</ele><time>2026-04-26T14:43:43.338Z</time></trkpt><trkpt lat="44.4278817" lon="10.789005"><ele>798.0</ele><time>2026-04-26T14:43:44.338Z</time></trkpt><trkpt lat="44.4280117" lon="10.7890133"><ele>799.5</ele><time>2026-04-26T14:43:45.338Z</time></trkpt><trkpt lat="44.4281333" lon="10.789025"><ele>801.0</ele><time>2026-04-26T14:43:46.338Z</time></trkpt><trkpt lat="44.4282617" lon="10.789045"><ele>802.5</ele><time>2026-04-26T14:43:47.338Z</time></trkpt><trkpt lat="44.4283933" lon="10.7890617"><ele>804.0</ele><time>2026-04-26T14:43:48.338Z</time></trkpt><trkpt lat="44.428525" lon="10.7890783"><ele>804.0</ele><time>2026-04-26T14:43:49.338Z</time></trkpt><trkpt lat="44.4286583" lon="10.7890933"><ele>804.0</ele><time>2026-04-26T14:43:50.338Z</time></trkpt><trkpt lat="44.4287817" lon="10.789105"><ele>804.0</ele><time>2026-04-26T14:43:51.338Z</time></trkpt><trkpt lat="44.42891" lon="10.7891167"><ele>804.0</ele><time>2026-04-26T14:43:52.338Z</time></trkpt><trkpt lat="44.429025" lon="10.78911"><ele>803.75</ele><time>2026-04-26T14:43:53.338Z</time></trkpt><trkpt lat="44.429145" lon="10.789125"><ele>803.5</ele><time>2026-04-26T14:43:54.338Z</time></trkpt><trkpt lat="44.4292783" lon="10.78915"><ele>803.25</ele><time>2026-04-26T14:43:55.338Z</time></trkpt><trkpt lat="44.4293833" lon="10.7891633"><ele>803.0</ele><time>2026-04-26T14:43:56.338Z</time></trkpt><trkpt lat="44.4294917" lon="10.7891683"><ele>803.0</ele><time>2026-04-26T14:43:57.339Z</time></trkpt><trkpt lat="44.4295867" lon="10.7891683"><ele>803.0</ele><time>2026-04-26T14:43:58.338Z</time></trkpt><trkpt lat="44.4296933" lon="10.7891883"><ele>803.0</ele><time>2026-04-26T14:43:59.338Z</time></trkpt><trkpt lat="44.42979" lon="10.7891867"><ele>803.0</ele><time>2026-04-26T14:44:00.338Z</time></trkpt><trkpt lat="44.429895" lon="10.7891883"><ele>803.0</ele><time>2026-04-26T14:44:01.338Z</time></trkpt><trkpt lat="44.4299967" lon="10.789195"><ele>802.5999999999999</ele><time>2026-04-26T14:44:02.338Z</time></trkpt><trkpt lat="44.4301017" lon="10.7891967"><ele>802.1999999999999</ele><time>2026-04-26T14:44:03.338Z</time></trkpt><trkpt lat="44.4302067" lon="10.78919"><ele>801.8</ele><time>2026-04-26T14:44:04.338Z</time></trkpt><trkpt lat="44.4303117" lon="10.7891717"><ele>801.4</ele><time>2026-04-26T14:44:05.338Z</time></trkpt><trkpt lat="44.4304117" lon="10.7891267"><ele>801.0</ele><time>2026-04-26T14:44:06.338Z</time></trkpt><trkpt lat="44.4304967" lon="10.78906"><ele>798.75</ele><time>2026-04-26T14:44:07.338Z</time></trkpt><trkpt lat="44.430575" lon="10.7889617"><ele>796.5</ele><time>2026-04-26T14:44:08.339Z</time></trkpt><trkpt lat="44.4306433" lon="10.7888283"><ele>794.25</ele><time>2026-04-26T14:44:09.338Z</time></trkpt><trkpt lat="44.43071" lon="10.788695"><ele>792.0</ele><time>2026-04-26T14:44:10.338Z</time></trkpt><trkpt lat="44.43079" lon="10.7885717"><ele>794.0</ele><time>2026-04-26T14:44:11.338Z</time></trkpt><trkpt lat="44.4308783" lon="10.788465"><ele>796.0</ele><time>2026-04-26T14:44:12.338Z</time></trkpt><trkpt lat="44.4309717" lon="10.7883933"><ele>798.0</ele><time>2026-04-26T14:44:13.338Z</time></trkpt><trkpt lat="44.4310717" lon="10.7883583"><ele>800.0</ele><time>2026-04-26T14:44:14.338Z</time></trkpt><trkpt lat="44.43118" lon="10.788365"><ele>802.0</ele><time>2026-04-26T14:44:15.338Z</time></trkpt><trkpt lat="44.4312933" lon="10.7884083"><ele>801.75</ele><time>2026-04-26T14:44:16.338Z</time></trkpt><trkpt lat="44.4314067" lon="10.7884617"><ele>801.5</ele><time>2026-04-26T14:44:17.338Z</time></trkpt><trkpt lat="44.4315233" lon="10.7885217"><ele>801.25</ele><time>2026-04-26T14:44:18.338Z</time></trkpt><trkpt lat="44.43165" lon="10.78859"><ele>801.0</ele><time>2026-04-26T14:44:19.338Z</time></trkpt><trkpt lat="44.4317783" lon="10.7886517"><ele>796.5</ele><time>2026-04-26T14:44:20.338Z</time></trkpt><trkpt lat="44.431905" lon="10.7887133"><ele>792.0</ele><time>2026-04-26T14:44:21.338Z</time></trkpt><trkpt lat="44.4320433" lon="10.7887883"><ele>787.5</ele><time>2026-04-26T14:44:22.338Z</time></trkpt><trkpt lat="44.4321717" lon="10.7888533"><ele>783.0</ele><time>2026-04-26T14:44:23.338Z</time></trkpt><trkpt lat="44.4323033" lon="10.7889067"><ele>783.0</ele><time>2026-04-26T14:44:24.338Z</time></trkpt><trkpt lat="44.43243" lon="10.78896"><ele>783.0</ele><time>2026-04-26T14:44:25.338Z</time></trkpt><trkpt lat="44.4325617" lon="10.7890167"><ele>783.0</ele><time>2026-04-26T14:44:26.338Z</time></trkpt><trkpt lat="44.43268" lon="10.7890667"><ele>783.0</ele><time>2026-04-26T14:44:27.338Z</time></trkpt><trkpt lat="44.4328067" lon="10.7891"><ele>783.0</ele><time>2026-04-26T14:44:28.338Z</time></trkpt><trkpt lat="44.4329433" lon="10.78911"><ele>783.0</ele><time>2026-04-26T14:44:29.338Z</time></trkpt><trkpt lat="44.4330783" lon="10.7891167"><ele>783.0</ele><time>2026-04-26T14:44:30.338Z</time></trkpt><trkpt lat="44.4332033" lon="10.7891167"><ele>783.0</ele><time>2026-04-26T14:44:31.338Z</time></trkpt><trkpt lat="44.4333183" lon="10.789105"><ele>782.5</ele><time>2026-04-26T14:44:32.338Z</time></trkpt><trkpt lat="44.4334133" lon="10.7890417"><ele>782.0</ele><time>2026-04-26T14:44:33.338Z</time></trkpt><trkpt lat="44.4335133" lon="10.7889417"><ele>781.5</ele><time>2026-04-26T14:44:34.338Z</time></trkpt><trkpt lat="44.433615" lon="10.7888083"><ele>781.0</ele><time>2026-04-26T14:44:35.338Z</time></trkpt><trkpt lat="44.4337333" lon="10.7886733"><ele>780.0</ele><time>2026-04-26T14:44:36.338Z</time></trkpt><trkpt lat="44.43389" lon="10.7885733"><ele>779.0</ele><time>2026-04-26T14:44:37.338Z</time></trkpt><trkpt lat="44.4340583" lon="10.7884767"><ele>778.0</ele><time>2026-04-26T14:44:38.338Z</time></trkpt><trkpt lat="44.434235" lon="10.7883867"><ele>778.0</ele><time>2026-04-26T14:44:39.338Z</time></trkpt><trkpt lat="44.4344067" lon="10.7883033"><ele>778.0</ele><time>2026-04-26T14:44:40.338Z</time></trkpt><trkpt lat="44.4345717" lon="10.7882133"><ele>778.0</ele><time>2026-04-26T14:44:41.338Z</time></trkpt><trkpt lat="44.4347167" lon="10.7881317"><ele>776.5</ele><time>2026-04-26T14:44:42.338Z</time></trkpt><trkpt lat="44.4348483" lon="10.7880567"><ele>775.0</ele><time>2026-04-26T14:44:43.338Z</time></trkpt><trkpt lat="44.4349617" lon="10.7880017"><ele>773.5</ele><time>2026-04-26T14:44:44.338Z</time></trkpt><trkpt lat="44.4350783" lon="10.787965"><ele>772.0</ele><time>2026-04-26T14:44:45.338Z</time></trkpt><trkpt lat="44.4351967" lon="10.7879133"><ele>772.0</ele><time>2026-04-26T14:44:46.338Z</time></trkpt><trkpt lat="44.4353283" lon="10.7878483"><ele>772.0</ele><time>2026-04-26T14:44:47.338Z</time></trkpt><trkpt lat="44.4354667" lon="10.787785"><ele>772.0</ele><time>2026-04-26T14:44:48.338Z</time></trkpt><trkpt lat="44.43561" lon="10.78771"><ele>772.0</ele><time>2026-04-26T14:44:49.338Z</time></trkpt><trkpt lat="44.4357483" lon="10.78764"><ele>772.0</ele><time>2026-04-26T14:44:50.338Z</time></trkpt><trkpt lat="44.435895" lon="10.7875633"><ele>772.0</ele><time>2026-04-26T14:44:51.338Z</time></trkpt><trkpt lat="44.4360367" lon="10.7874933"><ele>772.0</ele><time>2026-04-26T14:44:52.338Z</time></trkpt><trkpt lat="44.4361767" lon="10.7874267"><ele>769.0</ele><time>2026-04-26T14:44:53.338Z</time></trkpt><trkpt lat="44.436305" lon="10.7873633"><ele>766.0</ele><time>2026-04-26T14:44:54.338Z</time></trkpt><trkpt lat="44.436425" lon="10.7873083"><ele>763.0</ele><time>2026-04-26T14:44:55.338Z</time></trkpt><trkpt lat="44.4365367" lon="10.787245"><ele>760.0</ele><time>2026-04-26T14:44:56.338Z</time></trkpt><trkpt lat="44.436635" lon="10.7872"><ele>760.0</ele><time>2026-04-26T14:44:57.338Z</time></trkpt><trkpt lat="44.43671" lon="10.7871567"><ele>760.0</ele><time>2026-04-26T14:44:58.338Z</time></trkpt><trkpt lat="44.4367733" lon="10.7871233"><ele>760.0</ele><time>2026-04-26T14:44:59.338Z</time></trkpt><trkpt lat="44.436885" lon="10.78705"><ele>760.0</ele><time>2026-04-26T14:45:01.338Z</time></trkpt><trkpt lat="44.4370017" lon="10.7869583"><ele>760.0</ele><time>2026-04-26T14:45:03.338Z</time></trkpt><trkpt lat="44.437085" lon="10.78693"><ele>758.8</ele><time>2026-04-26T14:45:04.338Z</time></trkpt><trkpt lat="44.4371667" lon="10.786925"><ele>757.6</ele><time>2026-04-26T14:45:05.338Z</time></trkpt><trkpt lat="44.4372517" lon="10.78693"><ele>756.4000000000001</ele><time>2026-04-26T14:45:06.338Z</time></trkpt><trkpt lat="44.437325" lon="10.78696"><ele>755.2</ele><time>2026-04-26T14:45:07.338Z</time></trkpt><trkpt lat="44.4374433" lon="10.7869833"><ele>754.0</ele><time>2026-04-26T14:45:09.338Z</time></trkpt><trkpt lat="44.4375467" lon="10.7869267"><ele>754.0</ele><time>2026-04-26T14:45:11.338Z</time></trkpt><trkpt lat="44.4376" lon="10.786875"><ele>754.0</ele><time>2026-04-26T14:45:12.338Z</time></trkpt><trkpt lat="44.4376683" lon="10.7868133"><ele>754.0</ele><time>2026-04-26T14:45:13.338Z</time></trkpt><trkpt lat="44.4377367" lon="10.78673"><ele>754.0</ele><time>2026-04-26T14:45:14.338Z</time></trkpt><trkpt lat="44.437815" lon="10.786645"><ele>754.0</ele><time>2026-04-26T14:45:15.339Z</time></trkpt><trkpt lat="44.4378933" lon="10.7865617"><ele>754.0</ele><time>2026-04-26T14:45:16.338Z</time></trkpt><trkpt lat="44.4379733" lon="10.7864783"><ele>753.0</ele><time>2026-04-26T14:45:17.339Z</time></trkpt><trkpt lat="44.4380567" lon="10.78639"><ele>752.0</ele><time>2026-04-26T14:45:18.338Z</time></trkpt><trkpt lat="44.4381383" lon="10.78628"><ele>751.0</ele><time>2026-04-26T14:45:19.338Z</time></trkpt><trkpt lat="44.438215" lon="10.7861783"><ele>750.0</ele><time>2026-04-26T14:45:20.338Z</time></trkpt><trkpt lat="44.4382883" lon="10.7860733"><ele>749.0</ele><time>2026-04-26T14:45:21.338Z</time></trkpt><trkpt lat="44.4383633" lon="10.785955"><ele>748.2</ele><time>2026-04-26T14:45:22.338Z</time></trkpt><trkpt lat="44.4384283" lon="10.785835"><ele>747.4000000000001</ele><time>2026-04-26T14:45:23.338Z</time></trkpt><trkpt lat="44.438495" lon="10.785715"><ele>746.6</ele><time>2026-04-26T14:45:24.338Z</time></trkpt><trkpt lat="44.4385567" lon="10.7856"><ele>745.8</ele><time>2026-04-26T14:45:25.338Z</time></trkpt><trkpt lat="44.438615" lon="10.7854983"><ele>745.0</ele><time>2026-04-26T14:45:26.338Z</time></trkpt><trkpt lat="44.4386617" lon="10.7853933"><ele>745.0</ele><time>2026-04-26T14:45:27.338Z</time></trkpt><trkpt lat="44.438695" lon="10.7852717"><ele>745.0</ele><time>2026-04-26T14:45:28.338Z</time></trkpt><trkpt lat="44.438735" lon="10.7851583"><ele>745.0</ele><time>2026-04-26T14:45:29.338Z</time></trkpt><trkpt lat="44.43878" lon="10.7850483"><ele>745.0</ele><time>2026-04-26T14:45:30.338Z</time></trkpt><trkpt lat="44.438835" lon="10.7849583"><ele>745.0</ele><time>2026-04-26T14:45:31.338Z</time></trkpt><trkpt lat="44.4388933" lon="10.7849017"><ele>745.0</ele><time>2026-04-26T14:45:32.338Z</time></trkpt><trkpt lat="44.4390117" lon="10.7848817"><ele>744.0</ele><time>2026-04-26T14:45:34.339Z</time></trkpt><trkpt lat="44.4390983" lon="10.7849317"><ele>743.0</ele><time>2026-04-26T14:45:36.339Z</time></trkpt><trkpt lat="44.439165" lon="10.78501"><ele>742.0</ele><time>2026-04-26T14:45:38.338Z</time></trkpt><trkpt lat="44.4392083" lon="10.78514"><ele>741.0</ele><time>2026-04-26T14:45:40.338Z</time></trkpt><trkpt lat="44.4392733" lon="10.7853067"><ele>740.0</ele><time>2026-04-26T14:45:42.338Z</time></trkpt><trkpt lat="44.439315" lon="10.7854067"><ele>740.0</ele><time>2026-04-26T14:45:43.338Z</time></trkpt><trkpt lat="44.4393517" lon="10.7855117"><ele>740.0</ele><time>2026-04-26T14:45:44.338Z</time></trkpt><trkpt lat="44.4393867" lon="10.78561"><ele>740.0</ele><time>2026-04-26T14:45:45.338Z</time></trkpt><trkpt lat="44.4394167" lon="10.7857117"><ele>740.0</ele><time>2026-04-26T14:45:46.338Z</time></trkpt><trkpt lat="44.43944" lon="10.7858283"><ele>740.0</ele><time>2026-04-26T14:45:47.338Z</time></trkpt><trkpt lat="44.439455" lon="10.7859533"><ele>740.0</ele><time>2026-04-26T14:45:48.338Z</time></trkpt><trkpt lat="44.4394867" lon="10.78611"><ele>739.8333333333333</ele><time>2026-04-26T14:45:49.338Z</time></trkpt><trkpt lat="44.4394917" lon="10.7862517"><ele>739.6666666666666</ele><time>2026-04-26T14:45:50.338Z</time></trkpt><trkpt lat="44.4394867" lon="10.7863667"><ele>739.5</ele><time>2026-04-26T14:45:51.338Z</time></trkpt><trkpt lat="44.4394817" lon="10.786465"><ele>739.3333333333334</ele><time>2026-04-26T14:45:52.338Z</time></trkpt><trkpt lat="44.4394783" lon="10.786565"><ele>739.1666666666667</ele><time>2026-04-26T14:45:53.338Z</time></trkpt><trkpt lat="44.4394417" lon="10.7867183"><ele>739.0</ele><time>2026-04-26T14:45:55.338Z</time></trkpt><trkpt lat="44.43939" lon="10.7868"><ele>737.5</ele><time>2026-04-26T14:45:56.337Z</time></trkpt><trkpt lat="44.4393317" lon="10.7868833"><ele>736.0</ele><time>2026-04-26T14:45:57.337Z</time></trkpt><trkpt lat="44.439265" lon="10.7869617"><ele>734.5</ele><time>2026-04-26T14:45:58.337Z</time></trkpt><trkpt lat="44.439195" lon="10.7870383"><ele>733.0</ele><time>2026-04-26T14:45:59.337Z</time></trkpt><trkpt lat="44.4391167" lon="10.7871167"><ele>731.5</ele><time>2026-04-26T14:46:00.337Z</time></trkpt><trkpt lat="44.43905" lon="10.7871817"><ele>730.0</ele><time>2026-04-26T14:46:01.337Z</time></trkpt><trkpt lat="44.4389933" lon="10.7872417"><ele>730.0</ele><time>2026-04-26T14:46:02.337Z</time></trkpt><trkpt lat="44.438945" lon="10.7873033"><ele>730.0</ele><time>2026-04-26T14:46:03.337Z</time></trkpt><trkpt lat="44.4389" lon="10.78738"><ele>730.0</ele><time>2026-04-26T14:46:04.337Z</time></trkpt><trkpt lat="44.4388567" lon="10.78747"><ele>730.0</ele><time>2026-04-26T14:46:05.337Z</time></trkpt><trkpt lat="44.4388183" lon="10.7875683"><ele>730.0</ele><time>2026-04-26T14:46:06.337Z</time></trkpt><trkpt lat="44.43878" lon="10.78768"><ele>730.0</ele><time>2026-04-26T14:46:07.337Z</time></trkpt><trkpt lat="44.4387467" lon="10.787795"><ele>731.3333333333334</ele><time>2026-04-26T14:46:08.337Z</time></trkpt><trkpt lat="44.4387167" lon="10.78791"><ele>732.6666666666667</ele><time>2026-04-26T14:46:09.337Z</time></trkpt><trkpt lat="44.4387" lon="10.788035"><ele>734.0</ele><time>2026-04-26T14:46:10.337Z</time></trkpt><trkpt lat="44.4386867" lon="10.7881583"><ele>735.3333333333334</ele><time>2026-04-26T14:46:11.337Z</time></trkpt><trkpt lat="44.4386833" lon="10.7882817"><ele>736.6666666666666</ele><time>2026-04-26T14:46:12.337Z</time></trkpt><trkpt lat="44.4386883" lon="10.78841"><ele>738.0</ele><time>2026-04-26T14:46:13.337Z</time></trkpt><trkpt lat="44.43869" lon="10.78854"><ele>738.0</ele><time>2026-04-26T14:46:14.337Z</time></trkpt><trkpt lat="44.4386917" lon="10.788665"><ele>738.0</ele><time>2026-04-26T14:46:15.337Z</time></trkpt><trkpt lat="44.4386867" lon="10.788795"><ele>738.0</ele><time>2026-04-26T14:46:16.337Z</time></trkpt><trkpt lat="44.438685" lon="10.7889283"><ele>738.0</ele><time>2026-04-26T14:46:17.337Z</time></trkpt><trkpt lat="44.4386783" lon="10.7890583"><ele>738.0</ele><time>2026-04-26T14:46:18.337Z</time></trkpt><trkpt lat="44.438665" lon="10.7891917"><ele>738.0</ele><time>2026-04-26T14:46:19.337Z</time></trkpt><trkpt lat="44.438645" lon="10.7893283"><ele>738.0</ele><time>2026-04-26T14:46:20.337Z</time></trkpt><trkpt lat="44.438625" lon="10.7894667"><ele>738.0</ele><time>2026-04-26T14:46:21.337Z</time></trkpt><trkpt lat="44.4386017" lon="10.7896067"><ele>738.0</ele><time>2026-04-26T14:46:22.337Z</time></trkpt><trkpt lat="44.4385767" lon="10.78975"><ele>738.0</ele><time>2026-04-26T14:46:23.337Z</time></trkpt><trkpt lat="44.438555" lon="10.7898917"><ele>737.2</ele><time>2026-04-26T14:46:24.337Z</time></trkpt><trkpt lat="44.4385333" lon="10.7900433"><ele>736.4</ele><time>2026-04-26T14:46:25.337Z</time></trkpt><trkpt lat="44.43852" lon="10.7901933"><ele>735.6</ele><time>2026-04-26T14:46:26.337Z</time></trkpt><trkpt lat="44.4385067" lon="10.7903383"><ele>734.8000000000001</ele><time>2026-04-26T14:46:27.337Z</time></trkpt><trkpt lat="44.4385033" lon="10.7904633"><ele>734.0</ele><time>2026-04-26T14:46:28.337Z</time></trkpt><trkpt lat="44.4384967" lon="10.7905867"><ele>733.0</ele><time>2026-04-26T14:46:29.338Z</time></trkpt><trkpt lat="44.43847" lon="10.79071"><ele>732.0</ele><time>2026-04-26T14:46:30.337Z</time></trkpt><trkpt lat="44.4384233" lon="10.7908367"><ele>731.0</ele><time>2026-04-26T14:46:31.337Z</time></trkpt><trkpt lat="44.4383733" lon="10.790955"><ele>730.0</ele><time>2026-04-26T14:46:32.337Z</time></trkpt><trkpt lat="44.4383217" lon="10.791075"><ele>729.0</ele><time>2026-04-26T14:46:33.337Z</time></trkpt><trkpt lat="44.4382683" lon="10.7911917"><ele>728.6666666666666</ele><time>2026-04-26T14:46:34.337Z</time></trkpt><trkpt lat="44.43822" lon="10.791315"><ele>728.3333333333334</ele><time>2026-04-26T14:46:35.337Z</time></trkpt><trkpt lat="44.4381817" lon="10.7914283"><ele>728.0</ele><time>2026-04-26T14:46:36.337Z</time></trkpt><trkpt lat="44.4381433" lon="10.7915467"><ele>727.6666666666667</ele><time>2026-04-26T14:46:37.337Z</time></trkpt><trkpt lat="44.4381233" lon="10.791645"><ele>727.3333333333334</ele><time>2026-04-26T14:46:38.337Z</time></trkpt><trkpt lat="44.4381083" lon="10.791735"><ele>727.0</ele><time>2026-04-26T14:46:39.337Z</time></trkpt><trkpt lat="44.4380533" lon="10.7918567"><ele>727.0</ele><time>2026-04-26T14:46:41.337Z</time></trkpt><trkpt lat="44.4379783" lon="10.7919267"><ele>727.0</ele><time>2026-04-26T14:46:43.337Z</time></trkpt><trkpt lat="44.43793" lon="10.7921"><ele>727.0</ele><time>2026-04-26T14:46:45.337Z</time></trkpt><trkpt lat="44.4379217" lon="10.79222"><ele>727.0</ele><time>2026-04-26T14:46:46.337Z</time></trkpt><trkpt lat="44.4379233" lon="10.79236"><ele>727.0</ele><time>2026-04-26T14:46:47.337Z</time></trkpt><trkpt lat="44.437925" lon="10.7925133"><ele>726.25</ele><time>2026-04-26T14:46:48.337Z</time></trkpt><trkpt lat="44.437935" lon="10.792685"><ele>725.5</ele><time>2026-04-26T14:46:49.337Z</time></trkpt><trkpt lat="44.4379617" lon="10.792865"><ele>724.75</ele><time>2026-04-26T14:46:50.337Z</time></trkpt><trkpt lat="44.438015" lon="10.7930633"><ele>724.0</ele><time>2026-04-26T14:46:51.337Z</time></trkpt><trkpt lat="44.438075" lon="10.7932683"><ele>722.0</ele><time>2026-04-26T14:46:52.337Z</time></trkpt><trkpt lat="44.438155" lon="10.79351"><ele>720.0</ele><time>2026-04-26T14:46:53.337Z</time></trkpt><trkpt lat="44.4382267" lon="10.7937583"><ele>718.0</ele><time>2026-04-26T14:46:54.337Z</time></trkpt><trkpt lat="44.4382983" lon="10.794"><ele>718.0</ele><time>2026-04-26T14:46:55.337Z</time></trkpt><trkpt lat="44.43837" lon="10.79423"><ele>718.0</ele><time>2026-04-26T14:46:56.337Z</time></trkpt><trkpt lat="44.4384367" lon="10.794445"><ele>718.0</ele><time>2026-04-26T14:46:57.337Z</time></trkpt><trkpt lat="44.4384917" lon="10.79464"><ele>717.0</ele><time>2026-04-26T14:46:58.337Z</time></trkpt><trkpt lat="44.4385233" lon="10.79482"><ele>716.0</ele><time>2026-04-26T14:46:59.337Z</time></trkpt><trkpt lat="44.4385367" lon="10.7950083"><ele>715.0</ele><time>2026-04-26T14:47:00.337Z</time></trkpt><trkpt lat="44.4385233" lon="10.7951767"><ele>714.0</ele><time>2026-04-26T14:47:01.337Z</time></trkpt><trkpt lat="44.4384717" lon="10.7953167"><ele>713.25</ele><time>2026-04-26T14:47:02.337Z</time></trkpt><trkpt lat="44.4383967" lon="10.7954367"><ele>712.5</ele><time>2026-04-26T14:47:03.337Z</time></trkpt><trkpt lat="44.4382917" lon="10.795535"><ele>711.75</ele><time>2026-04-26T14:47:04.337Z</time></trkpt><trkpt lat="44.438175" lon="10.7956067"><ele>711.0</ele><time>2026-04-26T14:47:05.337Z</time></trkpt><trkpt lat="44.4380583" lon="10.7956583"><ele>710.0</ele><time>2026-04-26T14:47:06.337Z</time></trkpt><trkpt lat="44.4379617" lon="10.7956933"><ele>709.0</ele><time>2026-04-26T14:47:07.337Z</time></trkpt><trkpt lat="44.43788" lon="10.7957167"><ele>708.0</ele><time>2026-04-26T14:47:08.337Z</time></trkpt><trkpt lat="44.4378117" lon="10.7957283"><ele>707.0</ele><time>2026-04-26T14:47:09.337Z</time></trkpt><trkpt lat="44.43772" lon="10.795755"><ele>706.0</ele><time>2026-04-26T14:47:11.338Z</time></trkpt><trkpt lat="44.4376683" lon="10.7958433"><ele>705.0</ele><time>2026-04-26T14:47:13.337Z</time></trkpt><trkpt lat="44.4376633" lon="10.79604"><ele>704.5</ele><time>2026-04-26T14:47:15.337Z</time></trkpt><trkpt lat="44.4376767" lon="10.79618"><ele>704.0</ele><time>2026-04-26T14:47:16.337Z</time></trkpt><trkpt lat="44.4376933" lon="10.7963433"><ele>703.5</ele><time>2026-04-26T14:47:17.337Z</time></trkpt><trkpt lat="44.4377133" lon="10.7965283"><ele>703.0</ele><time>2026-04-26T14:47:18.337Z</time></trkpt><trkpt lat="44.4377267" lon="10.7967167"><ele>701.8</ele><time>2026-04-26T14:47:19.337Z</time></trkpt><trkpt lat="44.4377333" lon="10.796875"><ele>700.5999999999999</ele><time>2026-04-26T14:47:20.337Z</time></trkpt><trkpt lat="44.43774" lon="10.7970283"><ele>699.4000000000001</ele><time>2026-04-26T14:47:21.337Z</time></trkpt><trkpt lat="44.43774" lon="10.7971767"><ele>698.2</ele><time>2026-04-26T14:47:22.337Z</time></trkpt><trkpt lat="44.43774" lon="10.797325"><ele>697.0</ele><time>2026-04-26T14:47:23.337Z</time></trkpt><trkpt lat="44.43773" lon="10.7974583"><ele>697.0</ele><time>2026-04-26T14:47:24.337Z</time></trkpt><trkpt lat="44.4377133" lon="10.79757"><ele>697.0</ele><time>2026-04-26T14:47:25.337Z</time></trkpt><trkpt lat="44.437695" lon="10.7976683"><ele>697.0</ele><time>2026-04-26T14:47:26.337Z</time></trkpt><trkpt lat="44.437675" lon="10.7977633"><ele>697.0</ele><time>2026-04-26T14:47:27.337Z</time></trkpt><trkpt lat="44.437635" lon="10.79787"><ele>697.0</ele><time>2026-04-26T14:47:28.337Z</time></trkpt><trkpt lat="44.4375917" lon="10.7979717"><ele>697.0</ele><time>2026-04-26T14:47:29.337Z</time></trkpt><trkpt lat="44.4375517" lon="10.79808"><ele>696.6666666666667</ele><time>2026-04-26T14:47:30.337Z</time></trkpt><trkpt lat="44.4375117" lon="10.798185"><ele>696.3333333333334</ele><time>2026-04-26T14:47:31.338Z</time></trkpt><trkpt lat="44.43748" lon="10.7983017"><ele>696.0</ele><time>2026-04-26T14:47:32.337Z</time></trkpt><trkpt lat="44.4374433" lon="10.7984233"><ele>695.6666666666666</ele><time>2026-04-26T14:47:33.338Z</time></trkpt><trkpt lat="44.437415" lon="10.798545"><ele>695.3333333333333</ele><time>2026-04-26T14:47:34.337Z</time></trkpt><trkpt lat="44.4373917" lon="10.7986583"><ele>695.0</ele><time>2026-04-26T14:47:35.338Z</time></trkpt><trkpt lat="44.4373667" lon="10.7987833"><ele>693.5</ele><time>2026-04-26T14:47:36.337Z</time></trkpt><trkpt lat="44.4373417" lon="10.79891"><ele>692.0</ele><time>2026-04-26T14:47:37.337Z</time></trkpt><trkpt lat="44.4373067" lon="10.7990417"><ele>690.5</ele><time>2026-04-26T14:47:38.337Z</time></trkpt><trkpt lat="44.4372733" lon="10.7991583"><ele>689.0</ele><time>2026-04-26T14:47:39.337Z</time></trkpt><trkpt lat="44.4372483" lon="10.799255"><ele>687.5</ele><time>2026-04-26T14:47:40.337Z</time></trkpt><trkpt lat="44.437235" lon="10.7993467"><ele>686.0</ele><time>2026-04-26T14:47:41.337Z</time></trkpt><trkpt lat="44.43727" lon="10.7994983"><ele>683.6666666666666</ele><time>2026-04-26T14:47:43.337Z</time></trkpt><trkpt lat="44.4373217" lon="10.799555"><ele>681.3333333333333</ele><time>2026-04-26T14:47:44.338Z</time></trkpt><trkpt lat="44.4373833" lon="10.799595"><ele>679.0</ele><time>2026-04-26T14:47:45.337Z</time></trkpt><trkpt lat="44.4374417" lon="10.7996383"><ele>676.6666666666666</ele><time>2026-04-26T14:47:46.337Z</time></trkpt><trkpt lat="44.4375233" lon="10.7997517"><ele>674.3333333333334</ele><time>2026-04-26T14:47:48.337Z</time></trkpt><trkpt lat="44.437615" lon="10.799865"><ele>672.0</ele><time>2026-04-26T14:47:50.337Z</time></trkpt><trkpt lat="44.4376683" lon="10.7999167"><ele>672.0</ele><time>2026-04-26T14:47:51.337Z</time></trkpt><trkpt lat="44.4377733" lon="10.799995"><ele>672.0</ele><time>2026-04-26T14:47:53.337Z</time></trkpt><trkpt lat="44.43786" lon="10.8000583"><ele>672.0</ele><time>2026-04-26T14:47:55.337Z</time></trkpt><trkpt lat="44.43791" lon="10.80017"><ele>672.0</ele><time>2026-04-26T14:47:57.337Z</time></trkpt><trkpt lat="44.43792" lon="10.80035"><ele>672.0</ele><time>2026-04-26T14:47:59.337Z</time></trkpt><trkpt lat="44.4379083" lon="10.8004633"><ele>669.1666666666666</ele><time>2026-04-26T14:48:00.337Z</time></trkpt><trkpt lat="44.4378917" lon="10.80058"><ele>666.3333333333334</ele><time>2026-04-26T14:48:01.337Z</time></trkpt><trkpt lat="44.4378667" lon="10.8007017"><ele>663.5</ele><time>2026-04-26T14:48:02.337Z</time></trkpt><trkpt lat="44.43784" lon="10.80082"><ele>660.6666666666667</ele><time>2026-04-26T14:48:03.337Z</time></trkpt><trkpt lat="44.4378183" lon="10.80092"><ele>657.8333333333334</ele><time>2026-04-26T14:48:04.337Z</time></trkpt><trkpt lat="44.4377917" lon="10.8010117"><ele>655.0</ele><time>2026-04-26T14:48:05.337Z</time></trkpt><trkpt lat="44.43776" lon="10.8010917"><ele>652.1428571428571</ele><time>2026-04-26T14:48:06.337Z</time></trkpt><trkpt lat="44.4377217" lon="10.8011717"><ele>649.2857142857142</ele><time>2026-04-26T14:48:07.337Z</time></trkpt><trkpt lat="44.4376783" lon="10.8012483"><ele>646.4285714285713</ele><time>2026-04-26T14:48:08.337Z</time></trkpt><trkpt lat="44.4376317" lon="10.8013333"><ele>643.5714285714286</ele><time>2026-04-26T14:48:09.337Z</time></trkpt><trkpt lat="44.4375883" lon="10.80143"><ele>640.7142857142857</ele><time>2026-04-26T14:48:10.337Z</time></trkpt><trkpt lat="44.4375533" lon="10.8015183"><ele>637.8571428571428</ele><time>2026-04-26T14:48:11.337Z</time></trkpt><trkpt lat="44.437525" lon="10.8016067"><ele>635.0</ele><time>2026-04-26T14:48:12.337Z</time></trkpt><trkpt lat="44.4374983" lon="10.80169"><ele>631.6</ele><time>2026-04-26T14:48:13.337Z</time></trkpt><trkpt lat="44.4374517" lon="10.8018483"><ele>628.2</ele><time>2026-04-26T14:48:15.337Z</time></trkpt><trkpt lat="44.43742" lon="10.801975"><ele>624.8</ele><time>2026-04-26T14:48:17.337Z</time></trkpt><trkpt lat="44.43739" lon="10.8020617"><ele>621.4</ele><time>2026-04-26T14:48:19.337Z</time></trkpt><trkpt lat="44.4374283" lon="10.8021517"><ele>618.0</ele><time>2026-04-26T14:48:26.338Z</time></trkpt><trkpt lat="44.4375433" lon="10.802115"><ele>618.0</ele><time>2026-04-26T14:48:28.337Z</time></trkpt><trkpt lat="44.4376283" lon="10.802075"><ele>618.0</ele><time>2026-04-26T14:48:29.337Z</time></trkpt><trkpt lat="44.4377233" lon="10.8020133"><ele>618.0</ele><time>2026-04-26T14:48:30.337Z</time></trkpt><trkpt lat="44.43781" lon="10.801945"><ele>618.0</ele><time>2026-04-26T14:48:31.337Z</time></trkpt><trkpt lat="44.4378967" lon="10.8018983"><ele>618.0</ele><time>2026-04-26T14:48:32.337Z</time></trkpt><trkpt lat="44.437975" lon="10.8018433"><ele>618.1666666666666</ele><time>2026-04-26T14:48:33.337Z</time></trkpt><trkpt lat="44.4380733" lon="10.8018"><ele>618.3333333333334</ele><time>2026-04-26T14:48:34.337Z</time></trkpt><trkpt lat="44.4381517" lon="10.8017383"><ele>618.5</ele><time>2026-04-26T14:48:35.337Z</time></trkpt><trkpt lat="44.4382283" lon="10.8016867"><ele>618.6666666666667</ele><time>2026-04-26T14:48:36.337Z</time></trkpt><trkpt lat="44.4383033" lon="10.8016333"><ele>618.8333333333334</ele><time>2026-04-26T14:48:37.337Z</time></trkpt><trkpt lat="44.43838" lon="10.8015833"><ele>619.0</ele><time>2026-04-26T14:48:38.337Z</time></trkpt><trkpt lat="44.4384617" lon="10.8015483"><ele>619.0</ele><time>2026-04-26T14:48:39.337Z</time></trkpt><trkpt lat="44.4385433" lon="10.80154"><ele>619.0</ele><time>2026-04-26T14:48:40.337Z</time></trkpt><trkpt lat="44.4386317" lon="10.801585"><ele>619.0</ele><time>2026-04-26T14:48:41.337Z</time></trkpt><trkpt lat="44.4387217" lon="10.8016417"><ele>619.0</ele><time>2026-04-26T14:48:42.337Z</time></trkpt><trkpt lat="44.4388083" lon="10.80169"><ele>619.0</ele><time>2026-04-26T14:48:43.337Z</time></trkpt><trkpt lat="44.4389" lon="10.80171"><ele>614.25</ele><time>2026-04-26T14:48:44.336Z</time></trkpt><trkpt lat="44.4390083" lon="10.8017033"><ele>609.5</ele><time>2026-04-26T14:48:45.336Z</time></trkpt><trkpt lat="44.4391217" lon="10.8016833"><ele>604.75</ele><time>2026-04-26T14:48:46.336Z</time></trkpt><trkpt lat="44.4392383" lon="10.8016583"><ele>600.0</ele><time>2026-04-26T14:48:47.336Z</time></trkpt><trkpt lat="44.439355" lon="10.8016167"><ele>600.0</ele><time>2026-04-26T14:48:48.336Z</time></trkpt><trkpt lat="44.4394783" lon="10.801565"><ele>600.0</ele><time>2026-04-26T14:48:49.336Z</time></trkpt><trkpt lat="44.4395917" lon="10.80151"><ele>600.0</ele><time>2026-04-26T14:48:50.336Z</time></trkpt><trkpt lat="44.439695" lon="10.8014583"><ele>600.0</ele><time>2026-04-26T14:48:51.336Z</time></trkpt><trkpt lat="44.4397833" lon="10.801405"><ele>598.2</ele><time>2026-04-26T14:48:52.336Z</time></trkpt><trkpt lat="44.4398533" lon="10.8013317"><ele>596.4</ele><time>2026-04-26T14:48:53.336Z</time></trkpt><trkpt lat="44.439935" lon="10.80126"><ele>594.6</ele><time>2026-04-26T14:48:54.336Z</time></trkpt><trkpt lat="44.44002" lon="10.8011983"><ele>592.8</ele><time>2026-04-26T14:48:55.336Z</time></trkpt><trkpt lat="44.4401" lon="10.801135"><ele>591.0</ele><time>2026-04-26T14:48:56.336Z</time></trkpt><trkpt lat="44.4401717" lon="10.8010733"><ele>591.0</ele><time>2026-04-26T14:48:57.336Z</time></trkpt><trkpt lat="44.4402383" lon="10.8010217"><ele>591.0</ele><time>2026-04-26T14:48:58.336Z</time></trkpt><trkpt lat="44.4403033" lon="10.8009483"><ele>591.0</ele><time>2026-04-26T14:48:59.336Z</time></trkpt><trkpt lat="44.4403633" lon="10.8008667"><ele>591.0</ele><time>2026-04-26T14:49:00.336Z</time></trkpt><trkpt lat="44.4404133" lon="10.8007767"><ele>591.0</ele><time>2026-04-26T14:49:01.336Z</time></trkpt><trkpt lat="44.440465" lon="10.800685"><ele>591.0</ele><time>2026-04-26T14:49:02.336Z</time></trkpt><trkpt lat="44.4405133" lon="10.80059"><ele>591.5</ele><time>2026-04-26T14:49:03.336Z</time></trkpt><trkpt lat="44.44057" lon="10.8004983"><ele>592.0</ele><time>2026-04-26T14:49:04.336Z</time></trkpt><trkpt lat="44.440635" lon="10.8004033"><ele>592.5</ele><time>2026-04-26T14:49:05.336Z</time></trkpt><trkpt lat="44.4406933" lon="10.8003183"><ele>593.0</ele><time>2026-04-26T14:49:06.336Z</time></trkpt><trkpt lat="44.4407483" lon="10.800225"><ele>593.5</ele><time>2026-04-26T14:49:07.336Z</time></trkpt><trkpt lat="44.4407933" lon="10.8001183"><ele>594.0</ele><time>2026-04-26T14:49:08.336Z</time></trkpt><trkpt lat="44.440825" lon="10.80002"><ele>594.0</ele><time>2026-04-26T14:49:09.336Z</time></trkpt><trkpt lat="44.4408567" lon="10.7999367"><ele>594.0</ele><time>2026-04-26T14:49:10.336Z</time></trkpt><trkpt lat="44.44091" lon="10.7998117"><ele>594.0</ele><time>2026-04-26T14:49:12.336Z</time></trkpt><trkpt lat="44.4409567" lon="10.7997117"><ele>594.0</ele><time>2026-04-26T14:49:14.336Z</time></trkpt><trkpt lat="44.44101" lon="10.799625"><ele>594.0</ele><time>2026-04-26T14:49:17.336Z</time></trkpt><trkpt lat="44.44104" lon="10.7995467"><ele>594.0</ele><time>2026-04-26T14:49:45.336Z</time></trkpt><trkpt lat="44.441135" lon="10.79942"><ele>594.0</ele><time>2026-04-26T14:50:31.336Z</time></trkpt><trkpt lat="44.4412133" lon="10.7991783"><ele>594.0</ele><time>2026-04-26T14:54:46.334Z</time></trkpt><trkpt lat="44.4412033" lon="10.7993367"><ele>594.0</ele><time>2026-04-26T14:55:01.334Z</time></trkpt><trkpt lat="44.44111" lon="10.7993667"><ele>594.0</ele><time>2026-04-26T14:55:03.334Z</time></trkpt><trkpt lat="44.441205" lon="10.7993267"><ele>594.0</ele><time>2026-04-26T15:09:29.329Z</time></trkpt><trkpt lat="44.441125" lon="10.7993183"><ele>594.0</ele><time>2026-04-26T15:14:30.327Z</time></trkpt><trkpt lat="44.4411233" lon="10.7994117"><ele>594.0</ele><time>2026-04-26T15:30:57.32Z</time></trkpt><trkpt lat="44.441085" lon="10.7994917"><ele>594.0</ele><time>2026-04-26T15:31:05.32Z</time></trkpt><trkpt lat="44.44109" lon="10.7994017"><ele>594.0</ele><time>2026-04-26T15:31:41.32Z</time></trkpt><trkpt lat="44.44114" lon="10.799305"><ele>594.0</ele><time>2026-04-26T15:31:43.321Z</time></trkpt><trkpt lat="44.44117" lon="10.7992217"><ele>594.0</ele><time>2026-04-26T15:31:45.32Z</time></trkpt><trkpt lat="44.4412133" lon="10.7991467"><ele>594.8333333333334</ele><time>2026-04-26T15:31:49.32Z</time></trkpt><trkpt lat="44.4412533" lon="10.7990517"><ele>595.6666666666666</ele><time>2026-04-26T15:33:19.319Z</time></trkpt><trkpt lat="44.441315" lon="10.7989933"><ele>596.5</ele><time>2026-04-26T15:33:26.32Z</time></trkpt><trkpt lat="44.441365" lon="10.7988667"><ele>597.3333333333333</ele><time>2026-04-26T15:33:29.319Z</time></trkpt><trkpt lat="44.44142" lon="10.7987483"><ele>598.1666666666666</ele><time>2026-04-26T15:33:31.319Z</time></trkpt><trkpt lat="44.441455" lon="10.7986633"><ele>599.0</ele><time>2026-04-26T15:33:33.319Z</time></trkpt><trkpt lat="44.4415133" lon="10.798565"><ele>597.25</ele><time>2026-04-26T15:33:54.319Z</time></trkpt><trkpt lat="44.4415633" lon="10.7984583"><ele>595.5</ele><time>2026-04-26T15:33:56.319Z</time></trkpt><trkpt lat="44.441665" lon="10.7982917"><ele>593.75</ele><time>2026-04-26T15:33:58.319Z</time></trkpt><trkpt lat="44.4417483" lon="10.7981967"><ele>592.0</ele><time>2026-04-26T15:33:59.319Z</time></trkpt><trkpt lat="44.4418417" lon="10.7981117"><ele>592.0</ele><time>2026-04-26T15:34:00.32Z</time></trkpt><trkpt lat="44.4419567" lon="10.7980233"><ele>592.0</ele><time>2026-04-26T15:34:01.32Z</time></trkpt><trkpt lat="44.4420683" lon="10.7979517"><ele>592.0</ele><time>2026-04-26T15:34:02.319Z</time></trkpt><trkpt lat="44.4421733" lon="10.7978733"><ele>592.0</ele><time>2026-04-26T15:34:03.319Z</time></trkpt><trkpt lat="44.4422667" lon="10.797795"><ele>592.0</ele><time>2026-04-26T15:34:04.319Z</time></trkpt><trkpt lat="44.4423483" lon="10.7977033"><ele>592.0</ele><time>2026-04-26T15:34:05.319Z</time></trkpt><trkpt lat="44.4424233" lon="10.7976"><ele>592.0</ele><time>2026-04-26T15:34:06.319Z</time></trkpt><trkpt lat="44.4425017" lon="10.7975017"><ele>592.0</ele><time>2026-04-26T15:34:07.32Z</time></trkpt><trkpt lat="44.4425817" lon="10.7974317"><ele>592.0</ele><time>2026-04-26T15:34:08.319Z</time></trkpt><trkpt lat="44.44266" lon="10.7973617"><ele>592.0</ele><time>2026-04-26T15:34:09.319Z</time></trkpt><trkpt lat="44.44273" lon="10.7973033"><ele>592.0</ele><time>2026-04-26T15:34:10.319Z</time></trkpt><trkpt lat="44.4427917" lon="10.7972417"><ele>592.0</ele><time>2026-04-26T15:34:11.319Z</time></trkpt><trkpt lat="44.4428567" lon="10.7971617"><ele>592.0</ele><time>2026-04-26T15:34:12.319Z</time></trkpt><trkpt lat="44.4429133" lon="10.7970917"><ele>592.0</ele><time>2026-04-26T15:34:13.319Z</time></trkpt><trkpt lat="44.4429733" lon="10.7970317"><ele>592.0</ele><time>2026-04-26T15:34:14.319Z</time></trkpt><trkpt lat="44.4430467" lon="10.796975"><ele>591.0</ele><time>2026-04-26T15:34:15.319Z</time></trkpt><trkpt lat="44.44314" lon="10.79693"><ele>590.0</ele><time>2026-04-26T15:34:16.319Z</time></trkpt><trkpt lat="44.443235" lon="10.7968817"><ele>589.0</ele><time>2026-04-26T15:34:17.319Z</time></trkpt><trkpt lat="44.4433133" lon="10.7968333"><ele>588.0</ele><time>2026-04-26T15:34:18.319Z</time></trkpt><trkpt lat="44.4433883" lon="10.7967567"><ele>587.0</ele><time>2026-04-26T15:34:19.319Z</time></trkpt><trkpt lat="44.4434533" lon="10.7966567"><ele>586.2</ele><time>2026-04-26T15:34:20.319Z</time></trkpt><trkpt lat="44.44351" lon="10.7965433"><ele>585.4000000000001</ele><time>2026-04-26T15:34:21.319Z</time></trkpt><trkpt lat="44.443565" lon="10.796425"><ele>584.5999999999999</ele><time>2026-04-26T15:34:22.319Z</time></trkpt><trkpt lat="44.443625" lon="10.7963"><ele>583.8</ele><time>2026-04-26T15:34:23.319Z</time></trkpt><trkpt lat="44.4436917" lon="10.79619"><ele>583.0</ele><time>2026-04-26T15:34:24.319Z</time></trkpt><trkpt lat="44.4437767" lon="10.79608"><ele>578.75</ele><time>2026-04-26T15:34:25.319Z</time></trkpt><trkpt lat="44.4438667" lon="10.79597"><ele>574.5</ele><time>2026-04-26T15:34:26.319Z</time></trkpt><trkpt lat="44.4439567" lon="10.7958667"><ele>570.25</ele><time>2026-04-26T15:34:27.319Z</time></trkpt><trkpt lat="44.4440483" lon="10.7957667"><ele>566.0</ele><time>2026-04-26T15:34:28.319Z</time></trkpt><trkpt lat="44.444135" lon="10.7956783"><ele>566.0</ele><time>2026-04-26T15:34:29.319Z</time></trkpt><trkpt lat="44.444185" lon="10.7955683"><ele>566.0</ele><time>2026-04-26T15:34:30.319Z</time></trkpt><trkpt lat="44.4442217" lon="10.7954267"><ele>566.0</ele><time>2026-04-26T15:34:31.319Z</time></trkpt><trkpt lat="44.444235" lon="10.7952717"><ele>566.0</ele><time>2026-04-26T15:34:32.319Z</time></trkpt><trkpt lat="44.444245" lon="10.79511"><ele>566.0</ele><time>2026-04-26T15:34:33.319Z</time></trkpt><trkpt lat="44.444265" lon="10.7949767"><ele>565.4</ele><time>2026-04-26T15:34:34.319Z</time></trkpt><trkpt lat="44.444295" lon="10.794845"><ele>564.8</ele><time>2026-04-26T15:34:35.319Z</time></trkpt><trkpt lat="44.4443117" lon="10.794705"><ele>564.1999999999999</ele><time>2026-04-26T15:34:36.319Z</time></trkpt><trkpt lat="44.4443133" lon="10.7945467"><ele>563.6</ele><time>2026-04-26T15:34:37.319Z</time></trkpt><trkpt lat="44.4443033" lon="10.7943783"><ele>563.0</ele><time>2026-04-26T15:34:38.319Z</time></trkpt><trkpt lat="44.4442833" lon="10.7942083"><ele>563.0</ele><time>2026-04-26T15:34:39.32Z</time></trkpt><trkpt lat="44.4442583" lon="10.7940367"><ele>563.0</ele><time>2026-04-26T15:34:40.319Z</time></trkpt><trkpt lat="44.44422" lon="10.7938917"><ele>563.0</ele><time>2026-04-26T15:34:41.319Z</time></trkpt><trkpt lat="44.4442083" lon="10.793755"><ele>563.0</ele><time>2026-04-26T15:34:42.319Z</time></trkpt><trkpt lat="44.4442117" lon="10.7936233"><ele>563.0</ele><time>2026-04-26T15:34:43.319Z</time></trkpt><trkpt lat="44.4442333" lon="10.79349"><ele>564.25</ele><time>2026-04-26T15:34:44.319Z</time></trkpt><trkpt lat="44.444265" lon="10.7933583"><ele>565.5</ele><time>2026-04-26T15:34:45.319Z</time></trkpt><trkpt lat="44.4443267" lon="10.7932217"><ele>566.75</ele><time>2026-04-26T15:34:46.32Z</time></trkpt><trkpt lat="44.4443833" lon="10.7930733"><ele>568.0</ele><time>2026-04-26T15:34:47.319Z</time></trkpt><trkpt lat="44.444445" lon="10.7929333"><ele>568.0</ele><time>2026-04-26T15:34:48.32Z</time></trkpt><trkpt lat="44.4445167" lon="10.7928217"><ele>568.0</ele><time>2026-04-26T15:34:49.32Z</time></trkpt><trkpt lat="44.4445933" lon="10.792735"><ele>568.0</ele><time>2026-04-26T15:34:50.319Z</time></trkpt><trkpt lat="44.4446683" lon="10.7926633"><ele>568.0</ele><time>2026-04-26T15:34:51.319Z</time></trkpt><trkpt lat="44.44475" lon="10.7925867"><ele>568.0</ele><time>2026-04-26T15:34:52.319Z</time></trkpt><trkpt lat="44.4448133" lon="10.7925017"><ele>566.5</ele><time>2026-04-26T15:34:53.319Z</time></trkpt><trkpt lat="44.4448533" lon="10.79242"><ele>565.0</ele><time>2026-04-26T15:34:54.319Z</time></trkpt><trkpt lat="44.4448933" lon="10.7923467"><ele>563.5</ele><time>2026-04-26T15:34:55.319Z</time></trkpt><trkpt lat="44.444995" lon="10.792245"><ele>562.0</ele><time>2026-04-26T15:34:57.319Z</time></trkpt><trkpt lat="44.4450683" lon="10.7922317"><ele>560.5</ele><time>2026-04-26T15:34:58.319Z</time></trkpt><trkpt lat="44.4451583" lon="10.792205"><ele>559.0</ele><time>2026-04-26T15:34:59.319Z</time></trkpt><trkpt lat="44.445255" lon="10.792185"><ele>559.0</ele><time>2026-04-26T15:35:00.319Z</time></trkpt><trkpt lat="44.445345" lon="10.7921783"><ele>559.0</ele><time>2026-04-26T15:35:01.319Z</time></trkpt><trkpt lat="44.4454367" lon="10.7921933"><ele>559.0</ele><time>2026-04-26T15:35:02.319Z</time></trkpt><trkpt lat="44.445535" lon="10.79222"><ele>559.0</ele><time>2026-04-26T15:35:03.32Z</time></trkpt><trkpt lat="44.44563" lon="10.792255"><ele>559.0</ele><time>2026-04-26T15:35:04.319Z</time></trkpt><trkpt lat="44.44572" lon="10.7922833"><ele>557.6666666666667</ele><time>2026-04-26T15:35:05.319Z</time></trkpt><trkpt lat="44.4458017" lon="10.7923067"><ele>556.3333333333334</ele><time>2026-04-26T15:35:06.32Z</time></trkpt><trkpt lat="44.4458767" lon="10.792345"><ele>555.0</ele><time>2026-04-26T15:35:07.319Z</time></trkpt><trkpt lat="44.4459567" lon="10.7923783"><ele>553.6666666666666</ele><time>2026-04-26T15:35:08.319Z</time></trkpt><trkpt lat="44.4460333" lon="10.7923983"><ele>552.3333333333333</ele><time>2026-04-26T15:35:09.319Z</time></trkpt><trkpt lat="44.4461117" lon="10.7923967"><ele>551.0</ele><time>2026-04-26T15:35:10.319Z</time></trkpt><trkpt lat="44.4462" lon="10.7923733"><ele>551.0</ele><time>2026-04-26T15:35:11.319Z</time></trkpt><trkpt lat="44.4462917" lon="10.7923433"><ele>551.0</ele><time>2026-04-26T15:35:12.319Z</time></trkpt><trkpt lat="44.4463833" lon="10.7923183"><ele>551.0</ele><time>2026-04-26T15:35:13.319Z</time></trkpt><trkpt lat="44.4464683" lon="10.7922883"><ele>551.0</ele><time>2026-04-26T15:35:14.319Z</time></trkpt><trkpt lat="44.4465467" lon="10.7922533"><ele>551.0</ele><time>2026-04-26T15:35:15.319Z</time></trkpt><trkpt lat="44.4466233" lon="10.7922167"><ele>551.0</ele><time>2026-04-26T15:35:16.32Z</time></trkpt><trkpt lat="44.4467033" lon="10.792205"><ele>551.0</ele><time>2026-04-26T15:35:17.319Z</time></trkpt><trkpt lat="44.4467767" lon="10.7922133"><ele>551.0</ele><time>2026-04-26T15:35:18.319Z</time></trkpt><trkpt lat="44.44684" lon="10.7922333"><ele>551.0</ele><time>2026-04-26T15:35:19.319Z</time></trkpt><trkpt lat="44.4469483" lon="10.79227"><ele>551.0</ele><time>2026-04-26T15:35:21.319Z</time></trkpt><trkpt lat="44.4470217" lon="10.7922933"><ele>551.0</ele><time>2026-04-26T15:35:22.319Z</time></trkpt><trkpt lat="44.44711" lon="10.79231"><ele>551.0</ele><time>2026-04-26T15:35:23.319Z</time></trkpt><trkpt lat="44.4472133" lon="10.7923217"><ele>551.0</ele><time>2026-04-26T15:35:24.319Z</time></trkpt><trkpt lat="44.4473233" lon="10.7923317"><ele>551.0</ele><time>2026-04-26T15:35:25.319Z</time></trkpt><trkpt lat="44.4474267" lon="10.7923383"><ele>551.0</ele><time>2026-04-26T15:35:26.319Z</time></trkpt><trkpt lat="44.447525" lon="10.792345"><ele>551.0</ele><time>2026-04-26T15:35:27.319Z</time></trkpt><trkpt lat="44.447615" lon="10.7923517"><ele>551.0</ele><time>2026-04-26T15:35:28.319Z</time></trkpt><trkpt lat="44.4477033" lon="10.792365"><ele>551.0</ele><time>2026-04-26T15:35:29.319Z</time></trkpt><trkpt lat="44.4477867" lon="10.7923733"><ele>551.0</ele><time>2026-04-26T15:35:30.319Z</time></trkpt><trkpt lat="44.4479" lon="10.7923833"><ele>551.0</ele><time>2026-04-26T15:35:32.319Z</time></trkpt><trkpt lat="44.447995" lon="10.792395"><ele>551.0</ele><time>2026-04-26T15:35:34.319Z</time></trkpt><trkpt lat="44.448095" lon="10.7924233"><ele>551.0</ele><time>2026-04-26T15:35:36.319Z</time></trkpt><trkpt lat="44.44818" lon="10.7925367"><ele>551.3333333333333</ele><time>2026-04-26T15:35:38.319Z</time></trkpt><trkpt lat="44.4482283" lon="10.792605"><ele>551.6666666666666</ele><time>2026-04-26T15:35:39.319Z</time></trkpt><trkpt lat="44.4482867" lon="10.7926667"><ele>552.0</ele><time>2026-04-26T15:35:40.319Z</time></trkpt><trkpt lat="44.4483517" lon="10.7927133"><ele>552.3333333333334</ele><time>2026-04-26T15:35:41.319Z</time></trkpt><trkpt lat="44.4484217" lon="10.79275"><ele>552.6666666666667</ele><time>2026-04-26T15:35:42.318Z</time></trkpt><trkpt lat="44.4485" lon="10.7927867"><ele>553.0</ele><time>2026-04-26T15:35:43.318Z</time></trkpt><trkpt lat="44.4485783" lon="10.79283"><ele>551.6</ele><time>2026-04-26T15:35:44.318Z</time></trkpt><trkpt lat="44.4486617" lon="10.7928717"><ele>550.1999999999999</ele><time>2026-04-26T15:35:45.318Z</time></trkpt><trkpt lat="44.4487467" lon="10.7929117"><ele>548.8</ele><time>2026-04-26T15:35:46.318Z</time></trkpt><trkpt lat="44.4488367" lon="10.7929483"><ele>547.4</ele><time>2026-04-26T15:35:47.318Z</time></trkpt><trkpt lat="44.4489283" lon="10.792995"><ele>546.0</ele><time>2026-04-26T15:35:48.318Z</time></trkpt><trkpt lat="44.4490133" lon="10.7930267"><ele>546.0</ele><time>2026-04-26T15:35:49.318Z</time></trkpt><trkpt lat="44.449095" lon="10.79305"><ele>546.0</ele><time>2026-04-26T15:35:50.318Z</time></trkpt><trkpt lat="44.4491867" lon="10.7930783"><ele>546.0</ele><time>2026-04-26T15:35:51.319Z</time></trkpt><trkpt lat="44.4492833" lon="10.7931067"><ele>546.0</ele><time>2026-04-26T15:35:52.318Z</time></trkpt><trkpt lat="44.4493567" lon="10.793135"><ele>546.0</ele><time>2026-04-26T15:35:53.318Z</time></trkpt><trkpt lat="44.4494283" lon="10.79315"><ele>546.0</ele><time>2026-04-26T15:35:54.318Z</time></trkpt><trkpt lat="44.4494933" lon="10.7931483"><ele>546.0</ele><time>2026-04-26T15:35:55.318Z</time></trkpt><trkpt lat="44.4495583" lon="10.79316"><ele>546.0</ele><time>2026-04-26T15:35:56.318Z</time></trkpt><trkpt lat="44.44967" lon="10.7931867"><ele>546.0</ele><time>2026-04-26T15:35:58.318Z</time></trkpt><trkpt lat="44.4497733" lon="10.79324"><ele>546.0</ele><time>2026-04-26T15:36:00.318Z</time></trkpt><trkpt lat="44.44987" lon="10.7932533"><ele>546.0</ele><time>2026-04-26T15:36:02.318Z</time></trkpt><trkpt lat="44.4499533" lon="10.7931667"><ele>545.6</ele><time>2026-04-26T15:36:04.318Z</time></trkpt><trkpt lat="44.4499917" lon="10.793085"><ele>545.2</ele><time>2026-04-26T15:36:05.318Z</time></trkpt><trkpt lat="44.4500317" lon="10.7930017"><ele>544.8</ele><time>2026-04-26T15:36:06.318Z</time></trkpt><trkpt lat="44.4501017" lon="10.7928967"><ele>544.4</ele><time>2026-04-26T15:36:08.318Z</time></trkpt><trkpt lat="44.4501933" lon="10.7928883"><ele>544.0</ele><time>2026-04-26T15:36:10.318Z</time></trkpt><trkpt lat="44.4503233" lon="10.7929833"><ele>544.0</ele><time>2026-04-26T15:36:12.318Z</time></trkpt><trkpt lat="44.4504283" lon="10.79307"><ele>544.0</ele><time>2026-04-26T15:36:13.318Z</time></trkpt><trkpt lat="44.4505333" lon="10.7931383"><ele>544.0</ele><time>2026-04-26T15:36:14.319Z</time></trkpt><trkpt lat="44.4506333" lon="10.7932"><ele>544.0</ele><time>2026-04-26T15:36:15.318Z</time></trkpt><trkpt lat="44.4507117" lon="10.7932367"><ele>544.0</ele><time>2026-04-26T15:36:16.318Z</time></trkpt><trkpt lat="44.450775" lon="10.7932483"><ele>545.2</ele><time>2026-04-26T15:36:17.318Z</time></trkpt><trkpt lat="44.450895" lon="10.79322"><ele>546.4</ele><time>2026-04-26T15:36:19.318Z</time></trkpt><trkpt lat="44.4509733" lon="10.7932217"><ele>547.6</ele><time>2026-04-26T15:36:20.318Z</time></trkpt><trkpt lat="44.4510517" lon="10.793245"><ele>548.8</ele><time>2026-04-26T15:36:21.318Z</time></trkpt><trkpt lat="44.4511267" lon="10.7932967"><ele>550.0</ele><time>2026-04-26T15:36:22.318Z</time></trkpt><trkpt lat="44.4511983" lon="10.79337"><ele>550.0</ele><time>2026-04-26T15:36:23.318Z</time></trkpt><trkpt lat="44.4512817" lon="10.79345"><ele>550.0</ele><time>2026-04-26T15:36:24.318Z</time></trkpt><trkpt lat="44.4513567" lon="10.793485"><ele>550.0</ele><time>2026-04-26T15:36:25.318Z</time></trkpt><trkpt lat="44.451485" lon="10.7934633"><ele>550.0</ele><time>2026-04-26T15:36:27.318Z</time></trkpt><trkpt lat="44.4515383" lon="10.793405"><ele>550.0</ele><time>2026-04-26T15:36:28.318Z</time></trkpt><trkpt lat="44.4516267" lon="10.793335"><ele>551.8</ele><time>2026-04-26T15:36:30.318Z</time></trkpt><trkpt lat="44.4517167" lon="10.7933167"><ele>553.6</ele><time>2026-04-26T15:36:32.318Z</time></trkpt><trkpt lat="44.4517817" lon="10.7933233"><ele>555.4</ele><time>2026-04-26T15:36:33.318Z</time></trkpt><trkpt lat="44.45186" lon="10.7933533"><ele>557.2</ele><time>2026-04-26T15:36:34.318Z</time></trkpt><trkpt lat="44.4519683" lon="10.793395"><ele>559.0</ele><time>2026-04-26T15:36:35.318Z</time></trkpt><trkpt lat="44.45213" lon="10.7934683"><ele>556.6666666666667</ele><time>2026-04-26T15:36:36.318Z</time></trkpt><trkpt lat="44.4523033" lon="10.79352"><ele>554.3333333333334</ele><time>2026-04-26T15:36:37.318Z</time></trkpt><trkpt lat="44.45248" lon="10.7935683"><ele>552.0</ele><time>2026-04-26T15:36:38.318Z</time></trkpt><trkpt lat="44.4526483" lon="10.7936067"><ele>552.0</ele><time>2026-04-26T15:36:39.318Z</time></trkpt><trkpt lat="44.4528117" lon="10.7936483"><ele>552.0</ele><time>2026-04-26T15:36:40.318Z</time></trkpt><trkpt lat="44.45296" lon="10.79371"><ele>552.0</ele><time>2026-04-26T15:36:41.318Z</time></trkpt><trkpt lat="44.453105" lon="10.7937883"><ele>551.25</ele><time>2026-04-26T15:36:42.318Z</time></trkpt><trkpt lat="44.4532383" lon="10.7938633"><ele>550.5</ele><time>2026-04-26T15:36:43.319Z</time></trkpt><trkpt lat="44.4533783" lon="10.793935"><ele>549.75</ele><time>2026-04-26T15:36:44.318Z</time></trkpt><trkpt lat="44.4535183" lon="10.7940033"><ele>549.0</ele><time>2026-04-26T15:36:45.318Z</time></trkpt><trkpt lat="44.4536517" lon="10.7940667"><ele>548.25</ele><time>2026-04-26T15:36:46.318Z</time></trkpt><trkpt lat="44.4538" lon="10.7941433"><ele>547.5</ele><time>2026-04-26T15:36:47.318Z</time></trkpt><trkpt lat="44.4539383" lon="10.7942017"><ele>546.75</ele><time>2026-04-26T15:36:48.318Z</time></trkpt><trkpt lat="44.4540567" lon="10.7942833"><ele>546.0</ele><time>2026-04-26T15:36:49.318Z</time></trkpt><trkpt lat="44.45419" lon="10.794375"><ele>546.75</ele><time>2026-04-26T15:36:50.318Z</time></trkpt><trkpt lat="44.4543283" lon="10.7944817"><ele>547.5</ele><time>2026-04-26T15:36:51.318Z</time></trkpt><trkpt lat="44.454455" lon="10.7945817"><ele>548.25</ele><time>2026-04-26T15:36:52.318Z</time></trkpt><trkpt lat="44.45458" lon="10.7946817"><ele>549.0</ele><time>2026-04-26T15:36:53.318Z</time></trkpt><trkpt lat="44.4546983" lon="10.7948"><ele>549.0</ele><time>2026-04-26T15:36:54.318Z</time></trkpt><trkpt lat="44.4547967" lon="10.7949267"><ele>549.0</ele><time>2026-04-26T15:36:55.318Z</time></trkpt><trkpt lat="44.4548867" lon="10.7950817"><ele>549.0</ele><time>2026-04-26T15:36:56.318Z</time></trkpt><trkpt lat="44.4549517" lon="10.7952783"><ele>549.0</ele><time>2026-04-26T15:36:57.318Z</time></trkpt><trkpt lat="44.4550017" lon="10.7955217"><ele>549.0</ele><time>2026-04-26T15:36:58.318Z</time></trkpt><trkpt lat="44.45504" lon="10.795795"><ele>549.0</ele><time>2026-04-26T15:36:59.318Z</time></trkpt><trkpt lat="44.455095" lon="10.7960833"><ele>549.0</ele><time>2026-04-26T15:37:00.318Z</time></trkpt><trkpt lat="44.4551683" lon="10.796355"><ele>547.3333333333334</ele><time>2026-04-26T15:37:01.318Z</time></trkpt><trkpt lat="44.4552683" lon="10.7966267"><ele>545.6666666666667</ele><time>2026-04-26T15:37:02.318Z</time></trkpt><trkpt lat="44.45538" lon="10.7968983"><ele>544.0</ele><time>2026-04-26T15:37:03.318Z</time></trkpt><trkpt lat="44.4555033" lon="10.7971583"><ele>547.0</ele><time>2026-04-26T15:37:04.318Z</time></trkpt><trkpt lat="44.4556" lon="10.7973783"><ele>550.0</ele><time>2026-04-26T15:37:05.318Z</time></trkpt><trkpt lat="44.4556867" lon="10.7976033"><ele>553.0</ele><time>2026-04-26T15:37:06.318Z</time></trkpt><trkpt lat="44.4557217" lon="10.797835"><ele>553.0</ele><time>2026-04-26T15:37:07.318Z</time></trkpt><trkpt lat="44.4557367" lon="10.7980533"><ele>553.0</ele><time>2026-04-26T15:37:08.318Z</time></trkpt><trkpt lat="44.455735" lon="10.798275"><ele>553.0</ele><time>2026-04-26T15:37:09.318Z</time></trkpt><trkpt lat="44.4557433" lon="10.798465"><ele>551.0</ele><time>2026-04-26T15:37:10.318Z</time></trkpt><trkpt lat="44.45578" lon="10.7986367"><ele>549.0</ele><time>2026-04-26T15:37:11.319Z</time></trkpt><trkpt lat="44.4558467" lon="10.7987883"><ele>547.0</ele><time>2026-04-26T15:37:12.318Z</time></trkpt><trkpt lat="44.4559567" lon="10.7989133"><ele>545.0</ele><time>2026-04-26T15:37:13.318Z</time></trkpt><trkpt lat="44.4560917" lon="10.7990433"><ele>545.0</ele><time>2026-04-26T15:37:14.318Z</time></trkpt><trkpt lat="44.4562117" lon="10.7991883"><ele>545.0</ele><time>2026-04-26T15:37:15.318Z</time></trkpt><trkpt lat="44.456305" lon="10.7993783"><ele>545.0</ele><time>2026-04-26T15:37:16.318Z</time></trkpt><trkpt lat="44.4563817" lon="10.7995933"><ele>545.6666666666666</ele><time>2026-04-26T15:37:17.318Z</time></trkpt><trkpt lat="44.4564433" lon="10.7998183"><ele>546.3333333333334</ele><time>2026-04-26T15:37:18.318Z</time></trkpt><trkpt lat="44.4565117" lon="10.80004"><ele>547.0</ele><time>2026-04-26T15:37:19.318Z</time></trkpt><trkpt lat="44.4565867" lon="10.8002283"><ele>545.25</ele><time>2026-04-26T15:37:20.318Z</time></trkpt><trkpt lat="44.4566583" lon="10.8004067"><ele>543.5</ele><time>2026-04-26T15:37:21.318Z</time></trkpt><trkpt lat="44.4567317" lon="10.80059"><ele>541.75</ele><time>2026-04-26T15:37:22.318Z</time></trkpt><trkpt lat="44.4568067" lon="10.8007733"><ele>540.0</ele><time>2026-04-26T15:37:23.318Z</time></trkpt><trkpt lat="44.4568833" lon="10.80095"><ele>540.25</ele><time>2026-04-26T15:37:24.318Z</time></trkpt><trkpt lat="44.4569583" lon="10.8011133"><ele>540.5</ele><time>2026-04-26T15:37:25.318Z</time></trkpt><trkpt lat="44.4570217" lon="10.8012683"><ele>540.75</ele><time>2026-04-26T15:37:26.318Z</time></trkpt><trkpt lat="44.457085" lon="10.80141"><ele>541.0</ele><time>2026-04-26T15:37:27.318Z</time></trkpt><trkpt lat="44.4571383" lon="10.8015633"><ele>541.0</ele><time>2026-04-26T15:37:28.319Z</time></trkpt><trkpt lat="44.457195" lon="10.8016883"><ele>541.0</ele><time>2026-04-26T15:37:29.318Z</time></trkpt><trkpt lat="44.457255" lon="10.8018183"><ele>541.0</ele><time>2026-04-26T15:37:30.318Z</time></trkpt><trkpt lat="44.4573267" lon="10.8019567"><ele>541.0</ele><time>2026-04-26T15:37:31.318Z</time></trkpt><trkpt lat="44.4574017" lon="10.8020767"><ele>541.5</ele><time>2026-04-26T15:37:32.318Z</time></trkpt><trkpt lat="44.4574967" lon="10.8022033"><ele>542.0</ele><time>2026-04-26T15:37:33.318Z</time></trkpt><trkpt lat="44.45761" lon="10.8023133"><ele>542.5</ele><time>2026-04-26T15:37:34.318Z</time></trkpt><trkpt lat="44.457735" lon="10.8024117"><ele>543.0</ele><time>2026-04-26T15:37:35.318Z</time></trkpt><trkpt lat="44.4578667" lon="10.8025033"><ele>541.0</ele><time>2026-04-26T15:37:36.318Z</time></trkpt><trkpt lat="44.457995" lon="10.8025817"><ele>539.0</ele><time>2026-04-26T15:37:37.318Z</time></trkpt><trkpt lat="44.4581333" lon="10.802655"><ele>537.0</ele><time>2026-04-26T15:37:38.318Z</time></trkpt><trkpt lat="44.4582633" lon="10.8027317"><ele>535.0</ele><time>2026-04-26T15:37:39.319Z</time></trkpt><trkpt lat="44.45838" lon="10.8028167"><ele>534.25</ele><time>2026-04-26T15:37:40.319Z</time></trkpt><trkpt lat="44.4584883" lon="10.8029117"><ele>533.5</ele><time>2026-04-26T15:37:41.318Z</time></trkpt><trkpt lat="44.4585717" lon="10.8030233"><ele>532.75</ele><time>2026-04-26T15:37:42.318Z</time></trkpt><trkpt lat="44.458635" lon="10.8031683"><ele>532.0</ele><time>2026-04-26T15:37:43.318Z</time></trkpt><trkpt lat="44.4586967" lon="10.8033417"><ele>532.0</ele><time>2026-04-26T15:37:44.318Z</time></trkpt><trkpt lat="44.4587683" lon="10.8034867"><ele>532.0</ele><time>2026-04-26T15:37:45.318Z</time></trkpt><trkpt lat="44.4588717" lon="10.8036067"><ele>532.0</ele><time>2026-04-26T15:37:46.318Z</time></trkpt><trkpt lat="44.45899" lon="10.8036967"><ele>532.0</ele><time>2026-04-26T15:37:47.318Z</time></trkpt><trkpt lat="44.4591233" lon="10.8037583"><ele>532.0</ele><time>2026-04-26T15:37:48.318Z</time></trkpt><trkpt lat="44.459265" lon="10.8037967"><ele>532.0</ele><time>2026-04-26T15:37:49.318Z</time></trkpt><trkpt lat="44.4593983" lon="10.8038017"><ele>532.0</ele><time>2026-04-26T15:37:50.318Z</time></trkpt><trkpt lat="44.4595283" lon="10.80381"><ele>532.0</ele><time>2026-04-26T15:37:51.318Z</time></trkpt><trkpt lat="44.45966" lon="10.8038483"><ele>530.25</ele><time>2026-04-26T15:37:52.318Z</time></trkpt><trkpt lat="44.45979" lon="10.8039167"><ele>528.5</ele><time>2026-04-26T15:37:53.318Z</time></trkpt><trkpt lat="44.45991" lon="10.8040083"><ele>526.75</ele><time>2026-04-26T15:37:54.318Z</time></trkpt><trkpt lat="44.4600317" lon="10.8041267"><ele>525.0</ele><time>2026-04-26T15:37:55.318Z</time></trkpt><trkpt lat="44.460145" lon="10.8042517"><ele>522.5</ele><time>2026-04-26T15:37:56.318Z</time></trkpt><trkpt lat="44.4602533" lon="10.80435"><ele>520.0</ele><time>2026-04-26T15:37:57.318Z</time></trkpt><trkpt lat="44.4603633" lon="10.8044317"><ele>517.5</ele><time>2026-04-26T15:37:58.318Z</time></trkpt><trkpt lat="44.4604867" lon="10.8045017"><ele>515.0</ele><time>2026-04-26T15:37:59.318Z</time></trkpt><trkpt lat="44.4606167" lon="10.8045667"><ele>515.0</ele><time>2026-04-26T15:38:00.318Z</time></trkpt><trkpt lat="44.46076" lon="10.804635"><ele>515.0</ele><time>2026-04-26T15:38:01.318Z</time></trkpt><trkpt lat="44.4609183" lon="10.8046767"><ele>515.0</ele><time>2026-04-26T15:38:02.318Z</time></trkpt><trkpt lat="44.4610883" lon="10.8046917"><ele>515.0</ele><time>2026-04-26T15:38:03.318Z</time></trkpt><trkpt lat="44.4612467" lon="10.8046817"><ele>515.0</ele><time>2026-04-26T15:38:04.318Z</time></trkpt><trkpt lat="44.461395" lon="10.804675"><ele>515.0</ele><time>2026-04-26T15:38:05.319Z</time></trkpt><trkpt lat="44.4615317" lon="10.8046717"><ele>515.0</ele><time>2026-04-26T15:38:06.318Z</time></trkpt><trkpt lat="44.4616633" lon="10.804675"><ele>514.75</ele><time>2026-04-26T15:38:07.318Z</time></trkpt><trkpt lat="44.461785" lon="10.8047133"><ele>514.5</ele><time>2026-04-26T15:38:08.318Z</time></trkpt><trkpt lat="44.4619083" lon="10.8047817"><ele>514.25</ele><time>2026-04-26T15:38:09.318Z</time></trkpt><trkpt lat="44.4620267" lon="10.8048583"><ele>514.0</ele><time>2026-04-26T15:38:10.317Z</time></trkpt><trkpt lat="44.462145" lon="10.80497"><ele>514.0</ele><time>2026-04-26T15:38:11.317Z</time></trkpt><trkpt lat="44.4622583" lon="10.8051183"><ele>514.0</ele><time>2026-04-26T15:38:12.317Z</time></trkpt><trkpt lat="44.4623733" lon="10.8052883"><ele>514.0</ele><time>2026-04-26T15:38:13.317Z</time></trkpt><trkpt lat="44.4625033" lon="10.8054717"><ele>518.0</ele><time>2026-04-26T15:38:14.317Z</time></trkpt><trkpt lat="44.4626267" lon="10.8056483"><ele>522.0</ele><time>2026-04-26T15:38:15.317Z</time></trkpt><trkpt lat="44.4627483" lon="10.8058133"><ele>526.0</ele><time>2026-04-26T15:38:16.317Z</time></trkpt><trkpt lat="44.46288" lon="10.8059767"><ele>524.0</ele><time>2026-04-26T15:38:17.318Z</time></trkpt><trkpt lat="44.46301" lon="10.8061417"><ele>522.0</ele><time>2026-04-26T15:38:18.317Z</time></trkpt><trkpt lat="44.463145" lon="10.80625"><ele>520.0</ele><time>2026-04-26T15:38:19.317Z</time></trkpt><trkpt lat="44.4632867" lon="10.806335"><ele>520.0</ele><time>2026-04-26T15:38:20.317Z</time></trkpt><trkpt lat="44.4634433" lon="10.806375"><ele>520.0</ele><time>2026-04-26T15:38:21.317Z</time></trkpt><trkpt lat="44.4636133" lon="10.8063967"><ele>520.0</ele><time>2026-04-26T15:38:22.317Z</time></trkpt><trkpt lat="44.463765" lon="10.8064017"><ele>517.6666666666667</ele><time>2026-04-26T15:38:23.317Z</time></trkpt><trkpt lat="44.4639067" lon="10.8064333"><ele>515.3333333333334</ele><time>2026-04-26T15:38:24.317Z</time></trkpt><trkpt lat="44.4640583" lon="10.80649"><ele>513.0</ele><time>2026-04-26T15:38:25.317Z</time></trkpt><trkpt lat="44.464205" lon="10.8065617"><ele>513.0</ele><time>2026-04-26T15:38:26.317Z</time></trkpt><trkpt lat="44.4643583" lon="10.8066467"><ele>513.0</ele><time>2026-04-26T15:38:27.317Z</time></trkpt><trkpt lat="44.4645317" lon="10.8067583"><ele>513.0</ele><time>2026-04-26T15:38:28.317Z</time></trkpt><trkpt lat="44.4647133" lon="10.8068967"><ele>512.6666666666666</ele><time>2026-04-26T15:38:29.317Z</time></trkpt><trkpt lat="44.4648867" lon="10.8070367"><ele>512.3333333333333</ele><time>2026-04-26T15:38:30.317Z</time></trkpt><trkpt lat="44.46505" lon="10.8071683"><ele>512.0</ele><time>2026-04-26T15:38:31.317Z</time></trkpt><trkpt lat="44.4651983" lon="10.8072683"><ele>512.0</ele><time>2026-04-26T15:38:32.317Z</time></trkpt><trkpt lat="44.4653367" lon="10.807345"><ele>512.0</ele><time>2026-04-26T15:38:33.317Z</time></trkpt><trkpt lat="44.4654717" lon="10.8073917"><ele>512.0</ele><time>2026-04-26T15:38:34.317Z</time></trkpt><trkpt lat="44.4656033" lon="10.8074317"><ele>512.0</ele><time>2026-04-26T15:38:35.317Z</time></trkpt><trkpt lat="44.4657533" lon="10.807435"><ele>510.0</ele><time>2026-04-26T15:38:36.317Z</time></trkpt><trkpt lat="44.465895" lon="10.8074217"><ele>508.0</ele><time>2026-04-26T15:38:37.317Z</time></trkpt><trkpt lat="44.4660317" lon="10.8074"><ele>506.0</ele><time>2026-04-26T15:38:38.317Z</time></trkpt><trkpt lat="44.4661683" lon="10.807355"><ele>504.0</ele><time>2026-04-26T15:38:39.317Z</time></trkpt><trkpt lat="44.4663233" lon="10.8072683"><ele>505.0</ele><time>2026-04-26T15:38:40.317Z</time></trkpt><trkpt lat="44.4664933" lon="10.8071517"><ele>506.0</ele><time>2026-04-26T15:38:41.317Z</time></trkpt><trkpt lat="44.4666617" lon="10.8069783"><ele>507.0</ele><time>2026-04-26T15:38:42.317Z</time></trkpt><trkpt lat="44.4668383" lon="10.8067833"><ele>507.0</ele><time>2026-04-26T15:38:43.317Z</time></trkpt><trkpt lat="44.4670333" lon="10.8066183"><ele>507.0</ele><time>2026-04-26T15:38:44.317Z</time></trkpt><trkpt lat="44.4672483" lon="10.8065017"><ele>504.5</ele><time>2026-04-26T15:38:45.317Z</time></trkpt><trkpt lat="44.4674917" lon="10.806435"><ele>502.0</ele><time>2026-04-26T15:38:46.317Z</time></trkpt><trkpt lat="44.4677467" lon="10.8064183"><ele>503.0</ele><time>2026-04-26T15:38:47.317Z</time></trkpt><trkpt lat="44.4679967" lon="10.8064517"><ele>504.0</ele><time>2026-04-26T15:38:48.317Z</time></trkpt><trkpt lat="44.4682433" lon="10.806535"><ele>504.0</ele><time>2026-04-26T15:38:49.317Z</time></trkpt><trkpt lat="44.4684917" lon="10.8066367"><ele>504.0</ele><time>2026-04-26T15:38:50.317Z</time></trkpt><trkpt lat="44.468725" lon="10.8067733"><ele>503.0</ele><time>2026-04-26T15:38:51.317Z</time></trkpt><trkpt lat="44.4689283" lon="10.8068933"><ele>502.0</ele><time>2026-04-26T15:38:52.317Z</time></trkpt><trkpt lat="44.4691133" lon="10.8070283"><ele>501.0</ele><time>2026-04-26T15:38:53.317Z</time></trkpt><trkpt lat="44.4692767" lon="10.807175"><ele>501.0</ele><time>2026-04-26T15:38:54.317Z</time></trkpt><trkpt lat="44.469425" lon="10.8073483"><ele>501.0</ele><time>2026-04-26T15:38:55.317Z</time></trkpt><trkpt lat="44.4695467" lon="10.8075267"><ele>501.0</ele><time>2026-04-26T15:38:56.317Z</time></trkpt><trkpt lat="44.4696583" lon="10.8077367"><ele>503.0</ele><time>2026-04-26T15:38:57.317Z</time></trkpt><trkpt lat="44.4697467" lon="10.8079567"><ele>505.0</ele><time>2026-04-26T15:38:58.317Z</time></trkpt><trkpt lat="44.46983" lon="10.8081867"><ele>507.0</ele><time>2026-04-26T15:38:59.317Z</time></trkpt><trkpt lat="44.4699083" lon="10.8084083"><ele>505.66666666666663</ele><time>2026-04-26T15:39:00.317Z</time></trkpt><trkpt lat="44.4699733" lon="10.808625"><ele>504.3333333333333</ele><time>2026-04-26T15:39:01.317Z</time></trkpt><trkpt lat="44.470025" lon="10.8088133"><ele>503.0</ele><time>2026-04-26T15:39:02.317Z</time></trkpt><trkpt lat="44.4700683" lon="10.809005"><ele>503.0</ele><time>2026-04-26T15:39:03.317Z</time></trkpt><trkpt lat="44.47011" lon="10.8091933"><ele>503.0</ele><time>2026-04-26T15:39:04.317Z</time></trkpt><trkpt lat="44.4701567" lon="10.8093633"><ele>503.0</ele><time>2026-04-26T15:39:05.317Z</time></trkpt><trkpt lat="44.4702083" lon="10.8095183"><ele>503.0</ele><time>2026-04-26T15:39:06.317Z</time></trkpt><trkpt lat="44.4702717" lon="10.80965"><ele>502.0</ele><time>2026-04-26T15:39:07.317Z</time></trkpt><trkpt lat="44.47034" lon="10.8097467"><ele>500.99999999999994</ele><time>2026-04-26T15:39:08.317Z</time></trkpt><trkpt lat="44.4704033" lon="10.8098267"><ele>499.99999999999994</ele><time>2026-04-26T15:39:09.317Z</time></trkpt><trkpt lat="44.4704917" lon="10.80993"><ele>499.0</ele><time>2026-04-26T15:39:11.317Z</time></trkpt><trkpt lat="44.47059" lon="10.8099983"><ele>498.0</ele><time>2026-04-26T15:39:20.317Z</time></trkpt><trkpt lat="44.4706617" lon="10.8099217"><ele>500.2</ele><time>2026-04-26T15:39:23.317Z</time></trkpt><trkpt lat="44.47074" lon="10.80984"><ele>502.4</ele><time>2026-04-26T15:39:25.317Z</time></trkpt><trkpt lat="44.470835" lon="10.8097933"><ele>504.59999999999997</ele><time>2026-04-26T15:39:27.317Z</time></trkpt><trkpt lat="44.4709333" lon="10.8098383"><ele>506.79999999999995</ele><time>2026-04-26T15:39:29.317Z</time></trkpt><trkpt lat="44.4709983" lon="10.8098933"><ele>509.0</ele><time>2026-04-26T15:39:30.317Z</time></trkpt><trkpt lat="44.471075" lon="10.8099367"><ele>508.99999999999994</ele><time>2026-04-26T15:39:31.317Z</time></trkpt><trkpt lat="44.4711433" lon="10.8099817"><ele>509.0</ele><time>2026-04-26T15:39:32.317Z</time></trkpt><trkpt lat="44.4712033" lon="10.8100217"><ele>508.99999999999994</ele><time>2026-04-26T15:39:33.317Z</time></trkpt><trkpt lat="44.4712667" lon="10.81006"><ele>508.99999999999994</ele><time>2026-04-26T15:39:34.317Z</time></trkpt><trkpt lat="44.471325" lon="10.8101"><ele>509.0</ele><time>2026-04-26T15:39:35.317Z</time></trkpt><trkpt lat="44.4714133" lon="10.81016"><ele>508.99999999999994</ele><time>2026-04-26T15:39:37.317Z</time></trkpt><trkpt lat="44.4714683" lon="10.8102217"><ele>508.99999999999994</ele><time>2026-04-26T15:40:09.317Z</time></trkpt><trkpt lat="44.4715633" lon="10.8103033"><ele>507.4</ele><time>2026-04-26T15:40:11.317Z</time></trkpt><trkpt lat="44.47166" lon="10.8103817"><ele>505.79999999999995</ele><time>2026-04-26T15:40:13.317Z</time></trkpt><trkpt lat="44.4717533" lon="10.81049"><ele>504.20000000000005</ele><time>2026-04-26T15:40:15.317Z</time></trkpt><trkpt lat="44.4718067" lon="10.81057"><ele>502.6</ele><time>2026-04-26T15:40:16.317Z</time></trkpt><trkpt lat="44.4718533" lon="10.8106617"><ele>501.0</ele><time>2026-04-26T15:40:17.317Z</time></trkpt><trkpt lat="44.4719083" lon="10.810765"><ele>501.0</ele><time>2026-04-26T15:40:18.317Z</time></trkpt><trkpt lat="44.471965" lon="10.8108817"><ele>501.0</ele><time>2026-04-26T15:40:19.317Z</time></trkpt><trkpt lat="44.4720267" lon="10.8109917"><ele>501.0</ele><time>2026-04-26T15:40:20.317Z</time></trkpt><trkpt lat="44.4720983" lon="10.8111017"><ele>501.0</ele><time>2026-04-26T15:40:21.317Z</time></trkpt><trkpt lat="44.472185" lon="10.811205"><ele>501.0</ele><time>2026-04-26T15:40:22.317Z</time></trkpt><trkpt lat="44.47228" lon="10.8113033"><ele>497.5</ele><time>2026-04-26T15:40:23.317Z</time></trkpt><trkpt lat="44.4723817" lon="10.8113867"><ele>494.0</ele><time>2026-04-26T15:40:24.317Z</time></trkpt><trkpt lat="44.472485" lon="10.811475"><ele>490.5</ele><time>2026-04-26T15:40:25.317Z</time></trkpt><trkpt lat="44.4725883" lon="10.8115817"><ele>487.0</ele><time>2026-04-26T15:40:26.317Z</time></trkpt><trkpt lat="44.4726817" lon="10.8116833"><ele>487.0</ele><time>2026-04-26T15:40:27.317Z</time></trkpt><trkpt lat="44.47277" lon="10.811795"><ele>487.00000000000006</ele><time>2026-04-26T15:40:28.317Z</time></trkpt><trkpt lat="44.472845" lon="10.8119083"><ele>487.00000000000006</ele><time>2026-04-26T15:40:29.317Z</time></trkpt><trkpt lat="44.4728917" lon="10.8120283"><ele>487.0</ele><time>2026-04-26T15:40:30.317Z</time></trkpt><trkpt lat="44.47292" lon="10.81215"><ele>487.0</ele><time>2026-04-26T15:40:31.317Z</time></trkpt><trkpt lat="44.472965" lon="10.8122567"><ele>485.0</ele><time>2026-04-26T15:40:32.317Z</time></trkpt><trkpt lat="44.47304" lon="10.8123567"><ele>483.0</ele><time>2026-04-26T15:40:33.317Z</time></trkpt><trkpt lat="44.4731333" lon="10.81245"><ele>481.0</ele><time>2026-04-26T15:40:34.317Z</time></trkpt><trkpt lat="44.47325" lon="10.8125317"><ele>479.0</ele><time>2026-04-26T15:40:35.318Z</time></trkpt><trkpt lat="44.47338" lon="10.8126017"><ele>479.0</ele><time>2026-04-26T15:40:36.317Z</time></trkpt><trkpt lat="44.47351" lon="10.8126483"><ele>479.0</ele><time>2026-04-26T15:40:37.318Z</time></trkpt><trkpt lat="44.473655" lon="10.8126733"><ele>479.0</ele><time>2026-04-26T15:40:38.316Z</time></trkpt><trkpt lat="44.4737967" lon="10.8127033"><ele>479.0</ele><time>2026-04-26T15:40:39.316Z</time></trkpt><trkpt lat="44.4739217" lon="10.8127617"><ele>476.75</ele><time>2026-04-26T15:40:40.316Z</time></trkpt><trkpt lat="44.4740333" lon="10.8128617"><ele>474.5</ele><time>2026-04-26T15:40:41.316Z</time></trkpt><trkpt lat="44.4741317" lon="10.812985"><ele>472.25</ele><time>2026-04-26T15:40:42.316Z</time></trkpt><trkpt lat="44.4742067" lon="10.8131167"><ele>470.0</ele><time>2026-04-26T15:40:43.316Z</time></trkpt><trkpt lat="44.4742917" lon="10.8132117"><ele>470.0</ele><time>2026-04-26T15:40:44.316Z</time></trkpt><trkpt lat="44.4743967" lon="10.813275"><ele>470.0</ele><time>2026-04-26T15:40:45.316Z</time></trkpt><trkpt lat="44.4745217" lon="10.8133133"><ele>470.0</ele><time>2026-04-26T15:40:46.316Z</time></trkpt><trkpt lat="44.4746433" lon="10.8133317"><ele>470.0</ele><time>2026-04-26T15:40:47.316Z</time></trkpt><trkpt lat="44.4747533" lon="10.813375"><ele>469.5</ele><time>2026-04-26T15:40:48.316Z</time></trkpt><trkpt lat="44.47485" lon="10.813445"><ele>469.0</ele><time>2026-04-26T15:40:49.316Z</time></trkpt><trkpt lat="44.4749383" lon="10.813535"><ele>468.5</ele><time>2026-04-26T15:40:50.316Z</time></trkpt><trkpt lat="44.4750067" lon="10.81366"><ele>468.0</ele><time>2026-04-26T15:40:51.316Z</time></trkpt><trkpt lat="44.4750733" lon="10.8138067"><ele>467.25</ele><time>2026-04-26T15:40:52.316Z</time></trkpt><trkpt lat="44.4751483" lon="10.8139683"><ele>466.5</ele><time>2026-04-26T15:40:53.316Z</time></trkpt><trkpt lat="44.47523" lon="10.8141233"><ele>465.75</ele><time>2026-04-26T15:40:54.316Z</time></trkpt><trkpt lat="44.4753133" lon="10.814285"><ele>465.0</ele><time>2026-04-26T15:40:55.316Z</time></trkpt><trkpt lat="44.475385" lon="10.8144517"><ele>464.8</ele><time>2026-04-26T15:40:56.316Z</time></trkpt><trkpt lat="44.4754533" lon="10.8145767"><ele>464.6</ele><time>2026-04-26T15:40:57.316Z</time></trkpt><trkpt lat="44.475525" lon="10.8146867"><ele>464.4</ele><time>2026-04-26T15:40:58.316Z</time></trkpt><trkpt lat="44.4756" lon="10.814785"><ele>464.2</ele><time>2026-04-26T15:40:59.316Z</time></trkpt><trkpt lat="44.4757067" lon="10.8148517"><ele>464.0</ele><time>2026-04-26T15:41:00.316Z</time></trkpt><trkpt lat="44.4758317" lon="10.8149283"><ele>464.0</ele><time>2026-04-26T15:41:01.316Z</time></trkpt><trkpt lat="44.4759717" lon="10.8149917"><ele>464.0</ele><time>2026-04-26T15:41:02.316Z</time></trkpt><trkpt lat="44.4761033" lon="10.8150467"><ele>464.0</ele><time>2026-04-26T15:41:03.316Z</time></trkpt><trkpt lat="44.4762317" lon="10.8151183"><ele>464.0</ele><time>2026-04-26T15:41:04.317Z</time></trkpt><trkpt lat="44.4763567" lon="10.8151667"><ele>463.6</ele><time>2026-04-26T15:41:05.316Z</time></trkpt><trkpt lat="44.4764767" lon="10.815205"><ele>463.2</ele><time>2026-04-26T15:41:06.316Z</time></trkpt><trkpt lat="44.4765817" lon="10.815225"><ele>462.80000000000007</ele><time>2026-04-26T15:41:07.316Z</time></trkpt><trkpt lat="44.4766767" lon="10.8152167"><ele>462.40000000000003</ele><time>2026-04-26T15:41:08.316Z</time></trkpt><trkpt lat="44.4767933" lon="10.8151783"><ele>462.0</ele><time>2026-04-26T15:41:09.317Z</time></trkpt><trkpt lat="44.4769217" lon="10.8151183"><ele>462.0</ele><time>2026-04-26T15:41:10.316Z</time></trkpt><trkpt lat="44.4770517" lon="10.81506"><ele>462.0</ele><time>2026-04-26T15:41:11.316Z</time></trkpt><trkpt lat="44.4771917" lon="10.8150367"><ele>462.0</ele><time>2026-04-26T15:41:12.316Z</time></trkpt><trkpt lat="44.4773433" lon="10.8150317"><ele>462.0</ele><time>2026-04-26T15:41:13.316Z</time></trkpt><trkpt lat="44.4775033" lon="10.8150417"><ele>459.66666666666663</ele><time>2026-04-26T15:41:14.316Z</time></trkpt><trkpt lat="44.47765" lon="10.81507"><ele>457.3333333333333</ele><time>2026-04-26T15:41:15.316Z</time></trkpt><trkpt lat="44.4778067" lon="10.8151217"><ele>455.0</ele><time>2026-04-26T15:41:16.316Z</time></trkpt><trkpt lat="44.4779533" lon="10.815195"><ele>455.0</ele><time>2026-04-26T15:41:17.316Z</time></trkpt><trkpt lat="44.4780817" lon="10.815285"><ele>455.0</ele><time>2026-04-26T15:41:18.316Z</time></trkpt><trkpt lat="44.4781983" lon="10.8153917"><ele>455.0</ele><time>2026-04-26T15:41:19.316Z</time></trkpt><trkpt lat="44.4783133" lon="10.8154933"><ele>455.0</ele><time>2026-04-26T15:41:20.316Z</time></trkpt><trkpt lat="44.4784217" lon="10.8155533"><ele>455.0</ele><time>2026-04-26T15:41:21.316Z</time></trkpt><trkpt lat="44.47855" lon="10.8155917"><ele>455.0</ele><time>2026-04-26T15:41:22.316Z</time></trkpt><trkpt lat="44.4786933" lon="10.8156533"><ele>455.0</ele><time>2026-04-26T15:41:23.316Z</time></trkpt><trkpt lat="44.4788317" lon="10.8157217"><ele>455.0</ele><time>2026-04-26T15:41:24.316Z</time></trkpt><trkpt lat="44.4789483" lon="10.81582"><ele>454.5</ele><time>2026-04-26T15:41:25.316Z</time></trkpt><trkpt lat="44.479055" lon="10.815945"><ele>454.0</ele><time>2026-04-26T15:41:26.316Z</time></trkpt><trkpt lat="44.4791533" lon="10.8160767"><ele>453.5</ele><time>2026-04-26T15:41:27.316Z</time></trkpt><trkpt lat="44.4792617" lon="10.8161967"><ele>453.0</ele><time>2026-04-26T15:41:28.316Z</time></trkpt><trkpt lat="44.479375" lon="10.8163183"><ele>453.0</ele><time>2026-04-26T15:41:29.316Z</time></trkpt><trkpt lat="44.4794983" lon="10.8164333"><ele>453.0</ele><time>2026-04-26T15:41:30.316Z</time></trkpt><trkpt lat="44.4796217" lon="10.816515"><ele>453.0</ele><time>2026-04-26T15:41:31.316Z</time></trkpt><trkpt lat="44.4797517" lon="10.8165867"><ele>453.0</ele><time>2026-04-26T15:41:32.316Z</time></trkpt><trkpt lat="44.479875" lon="10.8166583"><ele>454.25</ele><time>2026-04-26T15:41:33.316Z</time></trkpt><trkpt lat="44.4800017" lon="10.8167167"><ele>455.5</ele><time>2026-04-26T15:41:34.316Z</time></trkpt><trkpt lat="44.4801233" lon="10.8167417"><ele>456.75</ele><time>2026-04-26T15:41:35.316Z</time></trkpt><trkpt lat="44.480255" lon="10.81677"><ele>458.0</ele><time>2026-04-26T15:41:36.316Z</time></trkpt><trkpt lat="44.48039" lon="10.8167933"><ele>456.0</ele><time>2026-04-26T15:41:37.316Z</time></trkpt><trkpt lat="44.480525" lon="10.8168283"><ele>454.0</ele><time>2026-04-26T15:41:38.316Z</time></trkpt><trkpt lat="44.4806483" lon="10.8168517"><ele>452.0</ele><time>2026-04-26T15:41:39.316Z</time></trkpt><trkpt lat="44.4807533" lon="10.816835"><ele>450.0</ele><time>2026-04-26T15:41:40.316Z</time></trkpt><trkpt lat="44.4808583" lon="10.8168317"><ele>450.0</ele><time>2026-04-26T15:41:41.316Z</time></trkpt><trkpt lat="44.4809583" lon="10.8168533"><ele>450.0</ele><time>2026-04-26T15:41:42.316Z</time></trkpt><trkpt lat="44.4810483" lon="10.8169"><ele>450.0</ele><time>2026-04-26T15:41:43.316Z</time></trkpt><trkpt lat="44.4811233" lon="10.8169633"><ele>450.0</ele><time>2026-04-26T15:41:44.316Z</time></trkpt><trkpt lat="44.4812017" lon="10.8170483"><ele>450.0</ele><time>2026-04-26T15:41:45.316Z</time></trkpt><trkpt lat="44.4812817" lon="10.8171333"><ele>451.8</ele><time>2026-04-26T15:41:46.316Z</time></trkpt><trkpt lat="44.48137" lon="10.8172017"><ele>453.6</ele><time>2026-04-26T15:41:47.316Z</time></trkpt><trkpt lat="44.4814767" lon="10.8172633"><ele>455.4</ele><time>2026-04-26T15:41:48.316Z</time></trkpt><trkpt lat="44.4815883" lon="10.8173117"><ele>457.2</ele><time>2026-04-26T15:41:49.316Z</time></trkpt><trkpt lat="44.48169" lon="10.8173667"><ele>459.0</ele><time>2026-04-26T15:41:50.316Z</time></trkpt><trkpt lat="44.4817883" lon="10.8174183"><ele>459.0</ele><time>2026-04-26T15:41:51.316Z</time></trkpt><trkpt lat="44.4818817" lon="10.817445"><ele>459.0</ele><time>2026-04-26T15:41:52.316Z</time></trkpt><trkpt lat="44.4819767" lon="10.8174483"><ele>459.0</ele><time>2026-04-26T15:41:53.316Z</time></trkpt><trkpt lat="44.482085" lon="10.81744"><ele>459.0</ele><time>2026-04-26T15:41:54.316Z</time></trkpt><trkpt lat="44.48221" lon="10.81743"><ele>459.0</ele><time>2026-04-26T15:41:55.317Z</time></trkpt><trkpt lat="44.4823333" lon="10.8174233"><ele>458.25</ele><time>2026-04-26T15:41:56.316Z</time></trkpt><trkpt lat="44.4824567" lon="10.817415"><ele>457.5</ele><time>2026-04-26T15:41:57.316Z</time></trkpt><trkpt lat="44.4825733" lon="10.8174217"><ele>456.75</ele><time>2026-04-26T15:41:58.316Z</time></trkpt><trkpt lat="44.4827" lon="10.8174483"><ele>456.0</ele><time>2026-04-26T15:41:59.316Z</time></trkpt><trkpt lat="44.4828317" lon="10.8174683"><ele>456.75</ele><time>2026-04-26T15:42:00.316Z</time></trkpt><trkpt lat="44.482965" lon="10.8175"><ele>457.5</ele><time>2026-04-26T15:42:01.316Z</time></trkpt><trkpt lat="44.4830983" lon="10.817525"><ele>458.25</ele><time>2026-04-26T15:42:02.316Z</time></trkpt><trkpt lat="44.483225" lon="10.8175533"><ele>459.0</ele><time>2026-04-26T15:42:03.316Z</time></trkpt><trkpt lat="44.4833517" lon="10.8175833"><ele>459.0</ele><time>2026-04-26T15:42:04.316Z</time></trkpt><trkpt lat="44.48346" lon="10.8176133"><ele>459.0</ele><time>2026-04-26T15:42:05.316Z</time></trkpt><trkpt lat="44.4835567" lon="10.8176517"><ele>459.0</ele><time>2026-04-26T15:42:06.316Z</time></trkpt><trkpt lat="44.4836467" lon="10.8176883"><ele>459.0</ele><time>2026-04-26T15:42:07.316Z</time></trkpt><trkpt lat="44.48372" lon="10.81774"><ele>459.0</ele><time>2026-04-26T15:42:08.316Z</time></trkpt><trkpt lat="44.4837833" lon="10.8178233"><ele>459.25</ele><time>2026-04-26T15:42:09.317Z</time></trkpt><trkpt lat="44.4838517" lon="10.8179433"><ele>459.5</ele><time>2026-04-26T15:42:10.316Z</time></trkpt><trkpt lat="44.48393" lon="10.8181"><ele>459.75</ele><time>2026-04-26T15:42:11.316Z</time></trkpt><trkpt lat="44.4840083" lon="10.8182683"><ele>460.0</ele><time>2026-04-26T15:42:12.316Z</time></trkpt><trkpt lat="44.4840867" lon="10.8184567"><ele>457.5</ele><time>2026-04-26T15:42:13.316Z</time></trkpt><trkpt lat="44.4841617" lon="10.8186367"><ele>455.0</ele><time>2026-04-26T15:42:14.316Z</time></trkpt><trkpt lat="44.4842133" lon="10.8187883"><ele>452.5</ele><time>2026-04-26T15:42:15.316Z</time></trkpt><trkpt lat="44.4842667" lon="10.8189467"><ele>450.0</ele><time>2026-04-26T15:42:16.316Z</time></trkpt><trkpt lat="44.48431" lon="10.8190967"><ele>450.0</ele><time>2026-04-26T15:42:17.316Z</time></trkpt><trkpt lat="44.4843717" lon="10.81923"><ele>450.0</ele><time>2026-04-26T15:42:18.316Z</time></trkpt><trkpt lat="44.48444" lon="10.8193433"><ele>450.0</ele><time>2026-04-26T15:42:19.316Z</time></trkpt><trkpt lat="44.4845267" lon="10.819445"><ele>450.0</ele><time>2026-04-26T15:42:20.316Z</time></trkpt><trkpt lat="44.4846333" lon="10.819535"><ele>448.0</ele><time>2026-04-26T15:42:21.316Z</time></trkpt><trkpt lat="44.484745" lon="10.81963"><ele>446.0</ele><time>2026-04-26T15:42:22.316Z</time></trkpt><trkpt lat="44.4848583" lon="10.81973"><ele>444.0</ele><time>2026-04-26T15:42:23.316Z</time></trkpt><trkpt lat="44.48498" lon="10.81985"><ele>442.0</ele><time>2026-04-26T15:42:24.316Z</time></trkpt><trkpt lat="44.48509" lon="10.8199433"><ele>442.0</ele><time>2026-04-26T15:42:25.316Z</time></trkpt><trkpt lat="44.4851983" lon="10.8200167"><ele>442.0</ele><time>2026-04-26T15:42:26.316Z</time></trkpt><trkpt lat="44.4853083" lon="10.820075"><ele>442.0</ele><time>2026-04-26T15:42:27.316Z</time></trkpt><trkpt lat="44.4854233" lon="10.8201317"><ele>442.0</ele><time>2026-04-26T15:42:28.316Z</time></trkpt><trkpt lat="44.4855133" lon="10.8202"><ele>438.20000000000005</ele><time>2026-04-26T15:42:29.316Z</time></trkpt><trkpt lat="44.4855933" lon="10.8202783"><ele>434.40000000000003</ele><time>2026-04-26T15:42:30.316Z</time></trkpt><trkpt lat="44.4856683" lon="10.8203583"><ele>430.6</ele><time>2026-04-26T15:42:31.316Z</time></trkpt><trkpt lat="44.4857483" lon="10.820445"><ele>426.79999999999995</ele><time>2026-04-26T15:42:32.316Z</time></trkpt><trkpt lat="44.4858383" lon="10.8205333"><ele>423.0</ele><time>2026-04-26T15:42:33.316Z</time></trkpt><trkpt lat="44.48593" lon="10.8206083"><ele>423.0</ele><time>2026-04-26T15:42:34.316Z</time></trkpt><trkpt lat="44.486015" lon="10.8206817"><ele>423.0</ele><time>2026-04-26T15:42:35.316Z</time></trkpt><trkpt lat="44.486085" lon="10.8207667"><ele>423.0</ele><time>2026-04-26T15:42:36.316Z</time></trkpt><trkpt lat="44.4861317" lon="10.82086"><ele>423.0</ele><time>2026-04-26T15:42:37.316Z</time></trkpt><trkpt lat="44.4861567" lon="10.820965"><ele>423.0</ele><time>2026-04-26T15:42:38.316Z</time></trkpt><trkpt lat="44.486175" lon="10.8210967"><ele>423.0</ele><time>2026-04-26T15:42:39.316Z</time></trkpt><trkpt lat="44.4861533" lon="10.8212317"><ele>422.6666666666667</ele><time>2026-04-26T15:42:40.316Z</time></trkpt><trkpt lat="44.4861333" lon="10.82136"><ele>422.33333333333337</ele><time>2026-04-26T15:42:41.316Z</time></trkpt><trkpt lat="44.486135" lon="10.8214817"><ele>422.0</ele><time>2026-04-26T15:42:42.316Z</time></trkpt><trkpt lat="44.4861567" lon="10.821595"><ele>421.6666666666667</ele><time>2026-04-26T15:42:43.316Z</time></trkpt><trkpt lat="44.4862" lon="10.8217033"><ele>421.33333333333337</ele><time>2026-04-26T15:42:44.316Z</time></trkpt><trkpt lat="44.4862567" lon="10.8217967"><ele>421.0</ele><time>2026-04-26T15:42:45.316Z</time></trkpt><trkpt lat="44.4863267" lon="10.8218617"><ele>421.0</ele><time>2026-04-26T15:42:46.316Z</time></trkpt><trkpt lat="44.4863933" lon="10.8219133"><ele>421.0</ele><time>2026-04-26T15:42:47.317Z</time></trkpt><trkpt lat="44.48646" lon="10.821955"><ele>421.0</ele><time>2026-04-26T15:42:48.316Z</time></trkpt><trkpt lat="44.486525" lon="10.8219917"><ele>421.0</ele><time>2026-04-26T15:42:49.316Z</time></trkpt><trkpt lat="44.4866383" lon="10.8220583"><ele>421.0</ele><time>2026-04-26T15:42:51.316Z</time></trkpt><trkpt lat="44.4867367" lon="10.82212"><ele>421.0</ele><time>2026-04-26T15:42:53.316Z</time></trkpt><trkpt lat="44.48684" lon="10.8222217"><ele>421.0</ele><time>2026-04-26T15:42:55.316Z</time></trkpt><trkpt lat="44.4869067" lon="10.8222833"><ele>421.0</ele><time>2026-04-26T15:42:56.316Z</time></trkpt><trkpt lat="44.4869833" lon="10.82236"><ele>421.0</ele><time>2026-04-26T15:42:57.316Z</time></trkpt><trkpt lat="44.48708" lon="10.8224383"><ele>421.0</ele><time>2026-04-26T15:42:58.316Z</time></trkpt><trkpt lat="44.4871867" lon="10.822515"><ele>420.0</ele><time>2026-04-26T15:42:59.316Z</time></trkpt><trkpt lat="44.4872967" lon="10.82259"><ele>419.0</ele><time>2026-04-26T15:43:00.316Z</time></trkpt><trkpt lat="44.4873967" lon="10.8226667"><ele>418.0</ele><time>2026-04-26T15:43:01.316Z</time></trkpt><trkpt lat="44.4874767" lon="10.82276"><ele>417.0</ele><time>2026-04-26T15:43:02.316Z</time></trkpt><trkpt lat="44.4875433" lon="10.8228583"><ele>416.0</ele><time>2026-04-26T15:43:03.316Z</time></trkpt><trkpt lat="44.487595" lon="10.8229583"><ele>416.0</ele><time>2026-04-26T15:43:04.316Z</time></trkpt><trkpt lat="44.48763" lon="10.8230633"><ele>416.0</ele><time>2026-04-26T15:43:05.316Z</time></trkpt><trkpt lat="44.4876567" lon="10.823165"><ele>416.0</ele><time>2026-04-26T15:43:06.316Z</time></trkpt><trkpt lat="44.4876817" lon="10.8232583"><ele>416.0</ele><time>2026-04-26T15:43:07.316Z</time></trkpt><trkpt lat="44.4876983" lon="10.823355"><ele>416.0</ele><time>2026-04-26T15:43:08.315Z</time></trkpt><trkpt lat="44.4877283" lon="10.8234417"><ele>416.0</ele><time>2026-04-26T15:43:09.315Z</time></trkpt><trkpt lat="44.487775" lon="10.8235083"><ele>416.0</ele><time>2026-04-26T15:43:10.315Z</time></trkpt><trkpt lat="44.4878417" lon="10.823565"><ele>412.20000000000005</ele><time>2026-04-26T15:43:11.315Z</time></trkpt><trkpt lat="44.4879317" lon="10.8235917"><ele>408.40000000000003</ele><time>2026-04-26T15:43:12.315Z</time></trkpt><trkpt lat="44.4880333" lon="10.8235967"><ele>404.6</ele><time>2026-04-26T15:43:13.315Z</time></trkpt><trkpt lat="44.488125" lon="10.82362"><ele>400.8</ele><time>2026-04-26T15:43:14.315Z</time></trkpt><trkpt lat="44.4882233" lon="10.8236617"><ele>397.0</ele><time>2026-04-26T15:43:15.315Z</time></trkpt><trkpt lat="44.488325" lon="10.823715"><ele>397.0</ele><time>2026-04-26T15:43:16.315Z</time></trkpt><trkpt lat="44.4884217" lon="10.8237717"><ele>397.0</ele><time>2026-04-26T15:43:17.315Z</time></trkpt><trkpt lat="44.488515" lon="10.8238383"><ele>397.0</ele><time>2026-04-26T15:43:18.315Z</time></trkpt><trkpt lat="44.4886083" lon="10.8238917"><ele>397.0</ele><time>2026-04-26T15:43:19.315Z</time></trkpt><trkpt lat="44.4886967" lon="10.8239433"><ele>397.0</ele><time>2026-04-26T15:43:20.315Z</time></trkpt><trkpt lat="44.488785" lon="10.8239817"><ele>397.20000000000005</ele><time>2026-04-26T15:43:21.315Z</time></trkpt><trkpt lat="44.4888783" lon="10.8240017"><ele>397.4</ele><time>2026-04-26T15:43:22.315Z</time></trkpt><trkpt lat="44.4889717" lon="10.8240167"><ele>397.6</ele><time>2026-04-26T15:43:23.315Z</time></trkpt><trkpt lat="44.489065" lon="10.824025"><ele>397.79999999999995</ele><time>2026-04-26T15:43:24.315Z</time></trkpt><trkpt lat="44.48915" lon="10.8240467"><ele>398.0</ele><time>2026-04-26T15:43:25.315Z</time></trkpt><trkpt lat="44.489235" lon="10.824065"><ele>398.0</ele><time>2026-04-26T15:43:26.315Z</time></trkpt><trkpt lat="44.4893133" lon="10.8240717"><ele>398.0</ele><time>2026-04-26T15:43:27.315Z</time></trkpt><trkpt lat="44.4893933" lon="10.824055"><ele>398.0</ele><time>2026-04-26T15:43:28.315Z</time></trkpt><trkpt lat="44.48948" lon="10.8240183"><ele>398.0</ele><time>2026-04-26T15:43:29.315Z</time></trkpt><trkpt lat="44.4895617" lon="10.823945"><ele>398.0</ele><time>2026-04-26T15:43:30.315Z</time></trkpt><trkpt lat="44.4896433" lon="10.8238567"><ele>392.2</ele><time>2026-04-26T15:43:31.315Z</time></trkpt><trkpt lat="44.4897283" lon="10.8237683"><ele>386.4</ele><time>2026-04-26T15:43:32.315Z</time></trkpt><trkpt lat="44.489805" lon="10.823685"><ele>380.59999999999997</ele><time>2026-04-26T15:43:33.315Z</time></trkpt><trkpt lat="44.4898783" lon="10.8236033"><ele>374.79999999999995</ele><time>2026-04-26T15:43:34.315Z</time></trkpt><trkpt lat="44.4899483" lon="10.823555"><ele>369.0</ele><time>2026-04-26T15:43:35.315Z</time></trkpt><trkpt lat="44.4900267" lon="10.8235433"><ele>369.0</ele><time>2026-04-26T15:43:36.315Z</time></trkpt><trkpt lat="44.4901" lon="10.82354"><ele>369.0</ele><time>2026-04-26T15:43:37.315Z</time></trkpt><trkpt lat="44.4901683" lon="10.82358"><ele>369.0</ele><time>2026-04-26T15:43:38.315Z</time></trkpt><trkpt lat="44.4902417" lon="10.8236333"><ele>369.0</ele><time>2026-04-26T15:43:39.315Z</time></trkpt><trkpt lat="44.490305" lon="10.8236567"><ele>369.0</ele><time>2026-04-26T15:43:40.315Z</time></trkpt><trkpt lat="44.490385" lon="10.82365"><ele>369.0</ele><time>2026-04-26T15:43:41.315Z</time></trkpt><trkpt lat="44.4904633" lon="10.8236133"><ele>367.3333333333333</ele><time>2026-04-26T15:43:42.315Z</time></trkpt><trkpt lat="44.490535" lon="10.82357"><ele>365.6666666666667</ele><time>2026-04-26T15:43:43.315Z</time></trkpt><trkpt lat="44.4906017" lon="10.8235617"><ele>364.0</ele><time>2026-04-26T15:43:44.315Z</time></trkpt><trkpt lat="44.4906817" lon="10.82359"><ele>362.33333333333337</ele><time>2026-04-26T15:43:45.315Z</time></trkpt><trkpt lat="44.4907633" lon="10.82364"><ele>360.6666666666667</ele><time>2026-04-26T15:43:46.315Z</time></trkpt><trkpt lat="44.4908317" lon="10.8236817"><ele>359.0</ele><time>2026-04-26T15:43:47.315Z</time></trkpt><trkpt lat="44.490895" lon="10.8236933"><ele>359.0</ele><time>2026-04-26T15:43:48.315Z</time></trkpt><trkpt lat="44.4909633" lon="10.8236833"><ele>359.0</ele><time>2026-04-26T15:43:49.315Z</time></trkpt><trkpt lat="44.49109" lon="10.8236867"><ele>359.0</ele><time>2026-04-26T15:43:51.315Z</time></trkpt><trkpt lat="44.49116" lon="10.8237183"><ele>359.0</ele><time>2026-04-26T15:43:52.315Z</time></trkpt><trkpt lat="44.49124" lon="10.8237683"><ele>359.0</ele><time>2026-04-26T15:43:53.315Z</time></trkpt><trkpt lat="44.4913267" lon="10.8238267"><ele>359.0</ele><time>2026-04-26T15:43:54.315Z</time></trkpt><trkpt lat="44.4914233" lon="10.8238917"><ele>359.0</ele><time>2026-04-26T15:43:55.315Z</time></trkpt><trkpt lat="44.491515" lon="10.82394"><ele>359.0</ele><time>2026-04-26T15:43:56.315Z</time></trkpt><trkpt lat="44.4915983" lon="10.8239833"><ele>359.0</ele><time>2026-04-26T15:43:57.315Z</time></trkpt><trkpt lat="44.4916733" lon="10.8240467"><ele>359.0</ele><time>2026-04-26T15:43:58.315Z</time></trkpt><trkpt lat="44.4917433" lon="10.8241333"><ele>359.0</ele><time>2026-04-26T15:43:59.315Z</time></trkpt><trkpt lat="44.4918083" lon="10.82423"><ele>359.0</ele><time>2026-04-26T15:44:00.315Z</time></trkpt><trkpt lat="44.4918733" lon="10.8243067"><ele>359.0</ele><time>2026-04-26T15:44:01.315Z</time></trkpt><trkpt lat="44.4919383" lon="10.824335"><ele>359.0</ele><time>2026-04-26T15:44:02.315Z</time></trkpt><trkpt lat="44.49202" lon="10.824345"><ele>359.0</ele><time>2026-04-26T15:44:03.315Z</time></trkpt><trkpt lat="44.4921017" lon="10.824365"><ele>359.0</ele><time>2026-04-26T15:44:04.315Z</time></trkpt><trkpt lat="44.4921767" lon="10.8244167"><ele>360.6666666666667</ele><time>2026-04-26T15:44:05.315Z</time></trkpt><trkpt lat="44.492235" lon="10.8245033"><ele>362.33333333333337</ele><time>2026-04-26T15:44:06.315Z</time></trkpt><trkpt lat="44.4922567" lon="10.82461"><ele>364.0</ele><time>2026-04-26T15:44:07.316Z</time></trkpt><trkpt lat="44.49227" lon="10.8247267"><ele>365.6666666666667</ele><time>2026-04-26T15:44:08.315Z</time></trkpt><trkpt lat="44.4922883" lon="10.824855"><ele>367.3333333333333</ele><time>2026-04-26T15:44:09.315Z</time></trkpt><trkpt lat="44.4923317" lon="10.82497"><ele>369.0</ele><time>2026-04-26T15:44:10.316Z</time></trkpt><trkpt lat="44.4923883" lon="10.8250533"><ele>369.0</ele><time>2026-04-26T15:44:11.315Z</time></trkpt><trkpt lat="44.4924417" lon="10.8251033"><ele>369.0</ele><time>2026-04-26T15:44:12.315Z</time></trkpt><trkpt lat="44.4925083" lon="10.825125"><ele>369.0</ele><time>2026-04-26T15:44:13.315Z</time></trkpt><trkpt lat="44.4925883" lon="10.8251333"><ele>369.0</ele><time>2026-04-26T15:44:14.315Z</time></trkpt><trkpt lat="44.4926883" lon="10.8251617"><ele>369.0</ele><time>2026-04-26T15:44:15.315Z</time></trkpt><trkpt lat="44.492795" lon="10.82521"><ele>369.0</ele><time>2026-04-26T15:44:16.315Z</time></trkpt><trkpt lat="44.4928883" lon="10.8252517"><ele>368.4</ele><time>2026-04-26T15:44:17.315Z</time></trkpt><trkpt lat="44.4929667" lon="10.8253033"><ele>367.79999999999995</ele><time>2026-04-26T15:44:18.315Z</time></trkpt><trkpt lat="44.49304" lon="10.825385"><ele>367.20000000000005</ele><time>2026-04-26T15:44:19.315Z</time></trkpt><trkpt lat="44.4931067" lon="10.82548"><ele>366.6</ele><time>2026-04-26T15:44:20.315Z</time></trkpt><trkpt lat="44.493175" lon="10.8255683"><ele>366.0</ele><time>2026-04-26T15:44:21.315Z</time></trkpt><trkpt lat="44.4932417" lon="10.8256367"><ele>366.0</ele><time>2026-04-26T15:44:22.315Z</time></trkpt><trkpt lat="44.4933017" lon="10.8257067"><ele>366.0</ele><time>2026-04-26T15:44:23.315Z</time></trkpt><trkpt lat="44.49335" lon="10.8257883"><ele>366.0</ele><time>2026-04-26T15:44:24.315Z</time></trkpt><trkpt lat="44.493385" lon="10.8258983"><ele>366.0</ele><time>2026-04-26T15:44:25.315Z</time></trkpt><trkpt lat="44.4934133" lon="10.8260183"><ele>366.0</ele><time>2026-04-26T15:44:26.315Z</time></trkpt><trkpt lat="44.4934433" lon="10.8261333"><ele>366.0</ele><time>2026-04-26T15:44:27.315Z</time></trkpt><trkpt lat="44.4934883" lon="10.826245"><ele>363.8</ele><time>2026-04-26T15:44:28.315Z</time></trkpt><trkpt lat="44.49355" lon="10.82635"><ele>361.6</ele><time>2026-04-26T15:44:29.315Z</time></trkpt><trkpt lat="44.49362" lon="10.82645"><ele>359.4</ele><time>2026-04-26T15:44:30.315Z</time></trkpt><trkpt lat="44.4936967" lon="10.8265433"><ele>357.2</ele><time>2026-04-26T15:44:31.315Z</time></trkpt><trkpt lat="44.4937733" lon="10.8266367"><ele>355.0</ele><time>2026-04-26T15:44:32.315Z</time></trkpt><trkpt lat="44.493845" lon="10.8267183"><ele>355.0</ele><time>2026-04-26T15:44:33.315Z</time></trkpt><trkpt lat="44.4939183" lon="10.8267917"><ele>355.0</ele><time>2026-04-26T15:44:34.315Z</time></trkpt><trkpt lat="44.4939867" lon="10.8268767"><ele>355.0</ele><time>2026-04-26T15:44:35.315Z</time></trkpt><trkpt lat="44.4940467" lon="10.8269767"><ele>355.0</ele><time>2026-04-26T15:44:36.315Z</time></trkpt><trkpt lat="44.4941033" lon="10.8270933"><ele>355.0</ele><time>2026-04-26T15:44:37.315Z</time></trkpt><trkpt lat="44.49415" lon="10.82722"><ele>353.2</ele><time>2026-04-26T15:44:38.315Z</time></trkpt><trkpt lat="44.4942017" lon="10.8273517"><ele>351.4</ele><time>2026-04-26T15:44:39.315Z</time></trkpt><trkpt lat="44.494245" lon="10.82749"><ele>349.6</ele><time>2026-04-26T15:44:40.315Z</time></trkpt><trkpt lat="44.49429" lon="10.8276133"><ele>347.8</ele><time>2026-04-26T15:44:41.315Z</time></trkpt><trkpt lat="44.4943333" lon="10.8277183"><ele>346.0</ele><time>2026-04-26T15:44:42.315Z</time></trkpt><trkpt lat="44.4943883" lon="10.82781"><ele>343.75</ele><time>2026-04-26T15:44:43.315Z</time></trkpt><trkpt lat="44.4944617" lon="10.8279017"><ele>341.5</ele><time>2026-04-26T15:44:44.315Z</time></trkpt><trkpt lat="44.4945467" lon="10.8280083"><ele>339.25</ele><time>2026-04-26T15:44:45.315Z</time></trkpt><trkpt lat="44.4946267" lon="10.8281083"><ele>337.0</ele><time>2026-04-26T15:44:46.315Z</time></trkpt><trkpt lat="44.4947067" lon="10.8282533"><ele>336.0</ele><time>2026-04-26T15:44:47.315Z</time></trkpt><trkpt lat="44.4947717" lon="10.82843"><ele>335.0</ele><time>2026-04-26T15:44:48.315Z</time></trkpt><trkpt lat="44.4948383" lon="10.8286017"><ele>334.0</ele><time>2026-04-26T15:44:49.315Z</time></trkpt><trkpt lat="44.494905" lon="10.8287633"><ele>333.0</ele><time>2026-04-26T15:44:50.315Z</time></trkpt><trkpt lat="44.4949717" lon="10.8289183"><ele>333.0</ele><time>2026-04-26T15:44:51.315Z</time></trkpt><trkpt lat="44.4950383" lon="10.829065"><ele>333.0</ele><time>2026-04-26T15:44:52.315Z</time></trkpt><trkpt lat="44.49511" lon="10.8292033"><ele>333.0</ele><time>2026-04-26T15:44:53.315Z</time></trkpt><trkpt lat="44.4951917" lon="10.8293267"><ele>333.0</ele><time>2026-04-26T15:44:54.315Z</time></trkpt><trkpt lat="44.4952867" lon="10.8294333"><ele>331.2</ele><time>2026-04-26T15:44:55.315Z</time></trkpt><trkpt lat="44.49537" lon="10.8295283"><ele>329.4</ele><time>2026-04-26T15:44:56.315Z</time></trkpt><trkpt lat="44.495445" lon="10.8296283"><ele>327.59999999999997</ele><time>2026-04-26T15:44:57.315Z</time></trkpt><trkpt lat="44.495495" lon="10.8297233"><ele>325.79999999999995</ele><time>2026-04-26T15:44:58.315Z</time></trkpt><trkpt lat="44.4955517" lon="10.82983"><ele>324.0</ele><time>2026-04-26T15:45:00.315Z</time></trkpt><trkpt lat="44.4956017" lon="10.829895"><ele>324.0</ele><time>2026-04-26T15:45:02.315Z</time></trkpt><trkpt lat="44.4956583" lon="10.830015"><ele>324.0</ele><time>2026-04-26T15:45:04.315Z</time></trkpt><trkpt lat="44.4957167" lon="10.83014"><ele>324.0</ele><time>2026-04-26T15:45:06.315Z</time></trkpt><trkpt lat="44.4957883" lon="10.8302467"><ele>324.0</ele><time>2026-04-26T15:45:08.315Z</time></trkpt><trkpt lat="44.495885" lon="10.8302883"><ele>324.0</ele><time>2026-04-26T15:45:10.315Z</time></trkpt><trkpt lat="44.4959883" lon="10.8303233"><ele>322.59999999999997</ele><time>2026-04-26T15:45:12.316Z</time></trkpt><trkpt lat="44.49606" lon="10.8304067"><ele>321.2</ele><time>2026-04-26T15:45:14.315Z</time></trkpt><trkpt lat="44.4961283" lon="10.830515"><ele>319.79999999999995</ele><time>2026-04-26T15:45:16.315Z</time></trkpt><trkpt lat="44.4962" lon="10.830645"><ele>318.4</ele><time>2026-04-26T15:45:18.316Z</time></trkpt><trkpt lat="44.4962767" lon="10.8307367"><ele>317.0</ele><time>2026-04-26T15:45:20.315Z</time></trkpt><trkpt lat="44.4963667" lon="10.83076"><ele>315.2</ele><time>2026-04-26T15:45:22.315Z</time></trkpt><trkpt lat="44.496415" lon="10.83083"><ele>313.4</ele><time>2026-04-26T15:45:24.315Z</time></trkpt><trkpt lat="44.4964367" lon="10.8309883"><ele>311.6</ele><time>2026-04-26T15:45:26.315Z</time></trkpt><trkpt lat="44.4964233" lon="10.83116"><ele>309.8</ele><time>2026-04-26T15:45:28.315Z</time></trkpt><trkpt lat="44.496405" lon="10.831255"><ele>308.0</ele><time>2026-04-26T15:45:29.315Z</time></trkpt><trkpt lat="44.4963817" lon="10.8313533"><ele>306.83333333333337</ele><time>2026-04-26T15:45:30.315Z</time></trkpt><trkpt lat="44.4963533" lon="10.831445"><ele>305.6666666666667</ele><time>2026-04-26T15:45:31.315Z</time></trkpt><trkpt lat="44.49633" lon="10.83154"><ele>304.5</ele><time>2026-04-26T15:45:32.315Z</time></trkpt><trkpt lat="44.4962967" lon="10.8316233"><ele>303.3333333333333</ele><time>2026-04-26T15:45:33.315Z</time></trkpt><trkpt lat="44.4962483" lon="10.831755"><ele>302.16666666666663</ele><time>2026-04-26T15:45:35.315Z</time></trkpt><trkpt lat="44.4962617" lon="10.831875"><ele>301.0</ele><time>2026-04-26T15:45:37.314Z</time></trkpt><trkpt lat="44.4963917" lon="10.8318983"><ele>301.0</ele><time>2026-04-26T15:45:39.314Z</time></trkpt><trkpt lat="44.496475" lon="10.8318667"><ele>301.0</ele><time>2026-04-26T15:45:40.314Z</time></trkpt><trkpt lat="44.4965617" lon="10.831815"><ele>301.0</ele><time>2026-04-26T15:45:41.314Z</time></trkpt><trkpt lat="44.4966467" lon="10.8317667"><ele>301.0</ele><time>2026-04-26T15:45:42.314Z</time></trkpt><trkpt lat="44.4967283" lon="10.8317133"><ele>301.0</ele><time>2026-04-26T15:45:43.314Z</time></trkpt><trkpt lat="44.49681" lon="10.831655"><ele>301.0</ele><time>2026-04-26T15:45:44.314Z</time></trkpt><trkpt lat="44.496885" lon="10.8315867"><ele>301.0</ele><time>2026-04-26T15:45:45.314Z</time></trkpt><trkpt lat="44.496955" lon="10.8315267"><ele>301.0</ele><time>2026-04-26T15:45:46.314Z</time></trkpt><trkpt lat="44.4970233" lon="10.8314717"><ele>301.0</ele><time>2026-04-26T15:45:47.314Z</time></trkpt><trkpt lat="44.4970917" lon="10.8314133"><ele>301.0</ele><time>2026-04-26T15:45:48.314Z</time></trkpt><trkpt lat="44.4971583" lon="10.8313583"><ele>301.0</ele><time>2026-04-26T15:45:49.314Z</time></trkpt><trkpt lat="44.497235" lon="10.8313"><ele>298.66666666666663</ele><time>2026-04-26T15:45:50.314Z</time></trkpt><trkpt lat="44.49731" lon="10.8312317"><ele>296.3333333333333</ele><time>2026-04-26T15:45:51.314Z</time></trkpt><trkpt lat="44.49738" lon="10.831165"><ele>294.0</ele><time>2026-04-26T15:45:52.315Z</time></trkpt><trkpt lat="44.497435" lon="10.8311067"><ele>291.6666666666667</ele><time>2026-04-26T15:45:53.314Z</time></trkpt><trkpt lat="44.4975" lon="10.8310633"><ele>289.33333333333337</ele><time>2026-04-26T15:45:54.314Z</time></trkpt><trkpt lat="44.4975733" lon="10.83105"><ele>287.0</ele><time>2026-04-26T15:45:55.314Z</time></trkpt><trkpt lat="44.4976517" lon="10.8310567"><ele>287.0</ele><time>2026-04-26T15:45:56.314Z</time></trkpt><trkpt lat="44.4977267" lon="10.8310733"><ele>287.0</ele><time>2026-04-26T15:45:57.315Z</time></trkpt><trkpt lat="44.4978033" lon="10.8310983"><ele>287.0</ele><time>2026-04-26T15:45:58.314Z</time></trkpt><trkpt lat="44.4978883" lon="10.8311233"><ele>287.0</ele><time>2026-04-26T15:45:59.314Z</time></trkpt><trkpt lat="44.497995" lon="10.8311483"><ele>287.0</ele><time>2026-04-26T15:46:00.314Z</time></trkpt><trkpt lat="44.4981167" lon="10.831165"><ele>286.25</ele><time>2026-04-26T15:46:01.314Z</time></trkpt><trkpt lat="44.498255" lon="10.8311667"><ele>285.5</ele><time>2026-04-26T15:46:02.314Z</time></trkpt><trkpt lat="44.4983867" lon="10.8311683"><ele>284.75</ele><time>2026-04-26T15:46:03.314Z</time></trkpt><trkpt lat="44.4985183" lon="10.8311783"><ele>284.0</ele><time>2026-04-26T15:46:04.314Z</time></trkpt><trkpt lat="44.4986417" lon="10.831195"><ele>281.4</ele><time>2026-04-26T15:46:05.314Z</time></trkpt><trkpt lat="44.498755" lon="10.83121"><ele>278.79999999999995</ele><time>2026-04-26T15:46:06.315Z</time></trkpt><trkpt lat="44.498855" lon="10.83122"><ele>276.20000000000005</ele><time>2026-04-26T15:46:07.314Z</time></trkpt><trkpt lat="44.4989467" lon="10.83123"><ele>273.6</ele><time>2026-04-26T15:46:08.314Z</time></trkpt><trkpt lat="44.4990217" lon="10.831235"><ele>271.0</ele><time>2026-04-26T15:46:09.314Z</time></trkpt><trkpt lat="44.4991217" lon="10.8312683"><ele>271.0</ele><time>2026-04-26T15:46:11.314Z</time></trkpt><trkpt lat="44.49917" lon="10.8313883"><ele>271.0</ele><time>2026-04-26T15:46:13.314Z</time></trkpt><trkpt lat="44.4991333" lon="10.8315817"><ele>271.0</ele><time>2026-04-26T15:46:15.314Z</time></trkpt><trkpt lat="44.4990933" lon="10.8317267"><ele>271.0</ele><time>2026-04-26T15:46:16.314Z</time></trkpt><trkpt lat="44.499035" lon="10.8319117"><ele>268.0</ele><time>2026-04-26T15:46:17.314Z</time></trkpt><trkpt lat="44.4989683" lon="10.8321133"><ele>265.0</ele><time>2026-04-26T15:46:18.314Z</time></trkpt><trkpt lat="44.498895" lon="10.83233"><ele>262.0</ele><time>2026-04-26T15:46:19.315Z</time></trkpt><trkpt lat="44.498825" lon="10.8325283"><ele>263.3333333333333</ele><time>2026-04-26T15:46:20.314Z</time></trkpt><trkpt lat="44.498755" lon="10.83273"><ele>264.6666666666667</ele><time>2026-04-26T15:46:21.314Z</time></trkpt><trkpt lat="44.4986833" lon="10.8329383"><ele>266.0</ele><time>2026-04-26T15:46:22.314Z</time></trkpt><trkpt lat="44.4986267" lon="10.8331533"><ele>266.0</ele><time>2026-04-26T15:46:23.314Z</time></trkpt><trkpt lat="44.4985783" lon="10.8333433"><ele>266.0</ele><time>2026-04-26T15:46:24.314Z</time></trkpt><trkpt lat="44.4985383" lon="10.8335217"><ele>266.0</ele><time>2026-04-26T15:46:25.314Z</time></trkpt><trkpt lat="44.4984983" lon="10.833685"><ele>266.0</ele><time>2026-04-26T15:46:26.314Z</time></trkpt><trkpt lat="44.49844" lon="10.83383"><ele>264.0</ele><time>2026-04-26T15:46:27.314Z</time></trkpt><trkpt lat="44.4983683" lon="10.833955"><ele>262.0</ele><time>2026-04-26T15:46:28.314Z</time></trkpt><trkpt lat="44.49827" lon="10.834075"><ele>260.0</ele><time>2026-04-26T15:46:29.314Z</time></trkpt><trkpt lat="44.4981483" lon="10.834195"><ele>258.0</ele><time>2026-04-26T15:46:30.314Z</time></trkpt><trkpt lat="44.498015" lon="10.8343333"><ele>257.25</ele><time>2026-04-26T15:46:31.314Z</time></trkpt><trkpt lat="44.4978967" lon="10.8344683"><ele>256.5</ele><time>2026-04-26T15:46:32.314Z</time></trkpt><trkpt lat="44.4977883" lon="10.8345933"><ele>255.75</ele><time>2026-04-26T15:46:33.314Z</time></trkpt><trkpt lat="44.4977083" lon="10.83471"><ele>255.0</ele><time>2026-04-26T15:46:34.314Z</time></trkpt><trkpt lat="44.4976533" lon="10.8348233"><ele>255.0</ele><time>2026-04-26T15:46:35.314Z</time></trkpt><trkpt lat="44.497615" lon="10.834965"><ele>255.0</ele><time>2026-04-26T15:46:36.314Z</time></trkpt><trkpt lat="44.4975883" lon="10.8351283"><ele>255.0</ele><time>2026-04-26T15:46:37.314Z</time></trkpt><trkpt lat="44.4975583" lon="10.835305"><ele>255.0</ele><time>2026-04-26T15:46:38.314Z</time></trkpt><trkpt lat="44.4975583" lon="10.8354717"><ele>253.8</ele><time>2026-04-26T15:46:39.314Z</time></trkpt><trkpt lat="44.4975783" lon="10.8356183"><ele>252.6</ele><time>2026-04-26T15:46:40.314Z</time></trkpt><trkpt lat="44.497615" lon="10.8357517"><ele>251.39999999999998</ele><time>2026-04-26T15:46:41.314Z</time></trkpt><trkpt lat="44.4976817" lon="10.8358717"><ele>250.2</ele><time>2026-04-26T15:46:42.314Z</time></trkpt><trkpt lat="44.4977683" lon="10.836005"><ele>249.0</ele><time>2026-04-26T15:46:43.314Z</time></trkpt><trkpt lat="44.497865" lon="10.836165"><ele>251.0</ele><time>2026-04-26T15:46:44.314Z</time></trkpt><trkpt lat="44.4979667" lon="10.8363367"><ele>253.0</ele><time>2026-04-26T15:46:45.314Z</time></trkpt><trkpt lat="44.49807" lon="10.83653"><ele>255.0</ele><time>2026-04-26T15:46:46.314Z</time></trkpt><trkpt lat="44.4981767" lon="10.8367433"><ele>254.33333333333331</ele><time>2026-04-26T15:46:47.314Z</time></trkpt><trkpt lat="44.4982767" lon="10.836965"><ele>253.66666666666666</ele><time>2026-04-26T15:46:48.314Z</time></trkpt><trkpt lat="44.49838" lon="10.83718"><ele>253.0</ele><time>2026-04-26T15:46:49.314Z</time></trkpt><trkpt lat="44.4984783" lon="10.83734"><ele>253.0</ele><time>2026-04-26T15:46:50.314Z</time></trkpt><trkpt lat="44.4986" lon="10.8374517"><ele>253.0</ele><time>2026-04-26T15:46:51.314Z</time></trkpt><trkpt lat="44.49874" lon="10.8375167"><ele>253.0</ele><time>2026-04-26T15:46:52.314Z</time></trkpt><trkpt lat="44.4989083" lon="10.837545"><ele>256.3333333333333</ele><time>2026-04-26T15:46:53.314Z</time></trkpt><trkpt lat="44.4991017" lon="10.8375633"><ele>259.6666666666667</ele><time>2026-04-26T15:46:54.314Z</time></trkpt><trkpt lat="44.499285" lon="10.8375817"><ele>263.0</ele><time>2026-04-26T15:46:55.314Z</time></trkpt><trkpt lat="44.49944" lon="10.837605"><ele>263.0</ele><time>2026-04-26T15:46:56.314Z</time></trkpt><trkpt lat="44.4995767" lon="10.8376417"><ele>263.0</ele><time>2026-04-26T15:46:57.314Z</time></trkpt><trkpt lat="44.499685" lon="10.8376933"><ele>263.0</ele><time>2026-04-26T15:46:58.314Z</time></trkpt><trkpt lat="44.499765" lon="10.8377583"><ele>263.0</ele><time>2026-04-26T15:46:59.314Z</time></trkpt><trkpt lat="44.49981" lon="10.8378733"><ele>263.0</ele><time>2026-04-26T15:47:00.314Z</time></trkpt><trkpt lat="44.4998267" lon="10.838005"><ele>263.0</ele><time>2026-04-26T15:47:01.314Z</time></trkpt><trkpt lat="44.499815" lon="10.838155"><ele>263.0</ele><time>2026-04-26T15:47:02.314Z</time></trkpt><trkpt lat="44.4997633" lon="10.8383433"><ele>263.0</ele><time>2026-04-26T15:47:03.314Z</time></trkpt><trkpt lat="44.4996933" lon="10.8385717"><ele>263.0</ele><time>2026-04-26T15:47:04.314Z</time></trkpt><trkpt lat="44.4995983" lon="10.83881"><ele>261.0</ele><time>2026-04-26T15:47:05.314Z</time></trkpt><trkpt lat="44.4995167" lon="10.839015"><ele>259.0</ele><time>2026-04-26T15:47:06.314Z</time></trkpt><trkpt lat="44.4994583" lon="10.8391983"><ele>257.0</ele><time>2026-04-26T15:47:07.314Z</time></trkpt><trkpt lat="44.49946" lon="10.83939"><ele>255.0</ele><time>2026-04-26T15:47:08.314Z</time></trkpt><trkpt lat="44.4995083" lon="10.8395817"><ele>255.0</ele><time>2026-04-26T15:47:09.314Z</time></trkpt><trkpt lat="44.4995933" lon="10.8397817"><ele>255.0</ele><time>2026-04-26T15:47:10.314Z</time></trkpt><trkpt lat="44.4996783" lon="10.8399967"><ele>255.0</ele><time>2026-04-26T15:47:11.314Z</time></trkpt><trkpt lat="44.4997433" lon="10.8402317"><ele>255.66666666666669</ele><time>2026-04-26T15:47:12.314Z</time></trkpt><trkpt lat="44.4997817" lon="10.84049"><ele>256.33333333333337</ele><time>2026-04-26T15:47:13.314Z</time></trkpt><trkpt lat="44.4997883" lon="10.8407633"><ele>257.0</ele><time>2026-04-26T15:47:14.314Z</time></trkpt><trkpt lat="44.4998033" lon="10.8410233"><ele>258.33333333333337</ele><time>2026-04-26T15:47:15.314Z</time></trkpt><trkpt lat="44.49983" lon="10.8412633"><ele>259.6666666666667</ele><time>2026-04-26T15:47:16.315Z</time></trkpt><trkpt lat="44.4998617" lon="10.84148"><ele>261.0</ele><time>2026-04-26T15:47:17.314Z</time></trkpt><trkpt lat="44.4999117" lon="10.8416867"><ele>260.0</ele><time>2026-04-26T15:47:18.314Z</time></trkpt><trkpt lat="44.499975" lon="10.8418817"><ele>259.0</ele><time>2026-04-26T15:47:19.314Z</time></trkpt><trkpt lat="44.5000533" lon="10.8420567"><ele>258.0</ele><time>2026-04-26T15:47:20.314Z</time></trkpt><trkpt lat="44.5001183" lon="10.8422417"><ele>257.0</ele><time>2026-04-26T15:47:21.314Z</time></trkpt><trkpt lat="44.5001717" lon="10.84244"><ele>257.0</ele><time>2026-04-26T15:47:22.314Z</time></trkpt><trkpt lat="44.5002167" lon="10.8426233"><ele>257.0</ele><time>2026-04-26T15:47:23.314Z</time></trkpt><trkpt lat="44.5002783" lon="10.8427617"><ele>257.0</ele><time>2026-04-26T15:47:24.314Z</time></trkpt><trkpt lat="44.5003667" lon="10.8428583"><ele>257.0</ele><time>2026-04-26T15:47:25.314Z</time></trkpt><trkpt lat="44.5004733" lon="10.8429183"><ele>260.5</ele><time>2026-04-26T15:47:26.315Z</time></trkpt><trkpt lat="44.5006" lon="10.842955"><ele>264.0</ele><time>2026-04-26T15:47:27.314Z</time></trkpt><trkpt lat="44.5007367" lon="10.8429817"><ele>267.5</ele><time>2026-04-26T15:47:28.314Z</time></trkpt><trkpt lat="44.5008567" lon="10.8430183"><ele>271.0</ele><time>2026-04-26T15:47:29.315Z</time></trkpt><trkpt lat="44.50095" lon="10.8430817"><ele>271.0</ele><time>2026-04-26T15:47:30.314Z</time></trkpt><trkpt lat="44.5010383" lon="10.843195"><ele>271.0</ele><time>2026-04-26T15:47:31.314Z</time></trkpt><trkpt lat="44.5011267" lon="10.8433283"><ele>271.0</ele><time>2026-04-26T15:47:32.315Z</time></trkpt><trkpt lat="44.5012467" lon="10.8434817"><ele>271.0</ele><time>2026-04-26T15:47:33.314Z</time></trkpt><trkpt lat="44.501395" lon="10.8436283"><ele>273.5</ele><time>2026-04-26T15:47:34.314Z</time></trkpt><trkpt lat="44.5015833" lon="10.8437967"><ele>276.0</ele><time>2026-04-26T15:47:35.314Z</time></trkpt><trkpt lat="44.501785" lon="10.8439767"><ele>276.0</ele><time>2026-04-26T15:47:36.314Z</time></trkpt><trkpt lat="44.5019883" lon="10.8441433"><ele>276.0</ele><time>2026-04-26T15:47:37.314Z</time></trkpt><trkpt lat="44.502185" lon="10.84429"><ele>280.0</ele><time>2026-04-26T15:47:38.314Z</time></trkpt><trkpt lat="44.5023583" lon="10.844425"><ele>284.0</ele><time>2026-04-26T15:47:39.314Z</time></trkpt><trkpt lat="44.5025183" lon="10.8445417"><ele>288.0</ele><time>2026-04-26T15:47:40.314Z</time></trkpt><trkpt lat="44.5026633" lon="10.8446433"><ele>288.0</ele><time>2026-04-26T15:47:41.314Z</time></trkpt><trkpt lat="44.5028033" lon="10.84475"><ele>288.0</ele><time>2026-04-26T15:47:42.314Z</time></trkpt><trkpt lat="44.5029367" lon="10.8448467"><ele>288.0</ele><time>2026-04-26T15:47:43.314Z</time></trkpt><trkpt lat="44.5030617" lon="10.84494"><ele>287.75</ele><time>2026-04-26T15:47:44.314Z</time></trkpt><trkpt lat="44.5031917" lon="10.8450483"><ele>287.5</ele><time>2026-04-26T15:47:45.314Z</time></trkpt><trkpt lat="44.5033083" lon="10.8451467"><ele>287.25</ele><time>2026-04-26T15:47:46.314Z</time></trkpt><trkpt lat="44.5034217" lon="10.8452617"><ele>287.0</ele><time>2026-04-26T15:47:47.314Z</time></trkpt><trkpt lat="44.5035183" lon="10.8453483"><ele>287.8</ele><time>2026-04-26T15:47:48.314Z</time></trkpt><trkpt lat="44.5035967" lon="10.8454017"><ele>288.6</ele><time>2026-04-26T15:47:49.314Z</time></trkpt><trkpt lat="44.50367" lon="10.8454433"><ele>289.40000000000003</ele><time>2026-04-26T15:47:50.314Z</time></trkpt><trkpt lat="44.5037917" lon="10.845425"><ele>290.2</ele><time>2026-04-26T15:47:52.314Z</time></trkpt><trkpt lat="44.5038633" lon="10.8454083"><ele>291.0</ele><time>2026-04-26T15:47:53.314Z</time></trkpt><trkpt lat="44.5039533" lon="10.8453867"><ele>291.0</ele><time>2026-04-26T15:47:54.314Z</time></trkpt><trkpt lat="44.5040633" lon="10.845365"><ele>291.0</ele><time>2026-04-26T15:47:55.314Z</time></trkpt><trkpt lat="44.5041933" lon="10.8453383"><ele>291.0</ele><time>2026-04-26T15:47:56.314Z</time></trkpt><trkpt lat="44.5043333" lon="10.8453283"><ele>291.0</ele><time>2026-04-26T15:47:57.314Z</time></trkpt><trkpt lat="44.5044767" lon="10.8453117"><ele>290.0</ele><time>2026-04-26T15:47:58.314Z</time></trkpt><trkpt lat="44.504635" lon="10.8453117"><ele>289.0</ele><time>2026-04-26T15:47:59.314Z</time></trkpt><trkpt lat="44.50479" lon="10.8453133"><ele>288.0</ele><time>2026-04-26T15:48:00.314Z</time></trkpt><trkpt lat="44.5049383" lon="10.845325"><ele>288.0</ele><time>2026-04-26T15:48:01.314Z</time></trkpt><trkpt lat="44.5050767" lon="10.84537"><ele>288.0</ele><time>2026-04-26T15:48:02.314Z</time></trkpt><trkpt lat="44.5052033" lon="10.8454217"><ele>288.0</ele><time>2026-04-26T15:48:03.314Z</time></trkpt><trkpt lat="44.5053167" lon="10.8455133"><ele>288.0</ele><time>2026-04-26T15:48:04.314Z</time></trkpt><trkpt lat="44.5054217" lon="10.8456033"><ele>288.4</ele><time>2026-04-26T15:48:05.315Z</time></trkpt><trkpt lat="44.5055283" lon="10.84567"><ele>288.8</ele><time>2026-04-26T15:48:06.314Z</time></trkpt><trkpt lat="44.505625" lon="10.845705"><ele>289.2</ele><time>2026-04-26T15:48:07.314Z</time></trkpt><trkpt lat="44.5057033" lon="10.8456917"><ele>289.6</ele><time>2026-04-26T15:48:08.314Z</time></trkpt><trkpt lat="44.5057767" lon="10.8456467"><ele>290.0</ele><time>2026-04-26T15:48:09.314Z</time></trkpt><trkpt lat="44.50584" lon="10.8455883"><ele>290.0</ele><time>2026-04-26T15:48:10.313Z</time></trkpt><trkpt lat="44.5058933" lon="10.8454883"><ele>290.0</ele><time>2026-04-26T15:48:11.313Z</time></trkpt><trkpt lat="44.5059683" lon="10.84537"><ele>290.0</ele><time>2026-04-26T15:48:12.313Z</time></trkpt><trkpt lat="44.5060717" lon="10.8452217"><ele>290.0</ele><time>2026-04-26T15:48:13.313Z</time></trkpt><trkpt lat="44.50619" lon="10.8450617"><ele>288.5</ele><time>2026-04-26T15:48:14.313Z</time></trkpt><trkpt lat="44.5063167" lon="10.8449367"><ele>287.0</ele><time>2026-04-26T15:48:15.313Z</time></trkpt><trkpt lat="44.50643" lon="10.844815"><ele>285.5</ele><time>2026-04-26T15:48:16.313Z</time></trkpt><trkpt lat="44.5065467" lon="10.84469"><ele>284.0</ele><time>2026-04-26T15:48:17.313Z</time></trkpt><trkpt lat="44.50667" lon="10.84456"><ele>284.0</ele><time>2026-04-26T15:48:18.313Z</time></trkpt><trkpt lat="44.506775" lon="10.84446"><ele>284.0</ele><time>2026-04-26T15:48:19.313Z</time></trkpt><trkpt lat="44.5068717" lon="10.8443633"><ele>284.0</ele><time>2026-04-26T15:48:20.313Z</time></trkpt><trkpt lat="44.5069717" lon="10.8442633"><ele>284.0</ele><time>2026-04-26T15:48:21.313Z</time></trkpt><trkpt lat="44.507085" lon="10.8441833"><ele>285.5</ele><time>2026-04-26T15:48:22.313Z</time></trkpt><trkpt lat="44.5072133" lon="10.84413"><ele>287.0</ele><time>2026-04-26T15:48:23.313Z</time></trkpt><trkpt lat="44.5073317" lon="10.844125"><ele>288.5</ele><time>2026-04-26T15:48:24.313Z</time></trkpt><trkpt lat="44.5074667" lon="10.8441333"><ele>290.0</ele><time>2026-04-26T15:48:25.313Z</time></trkpt><trkpt lat="44.5076017" lon="10.8441417"><ele>290.0</ele><time>2026-04-26T15:48:26.313Z</time></trkpt><trkpt lat="44.50772" lon="10.8441567"><ele>290.0</ele><time>2026-04-26T15:48:27.313Z</time></trkpt><trkpt lat="44.5078433" lon="10.8441867"><ele>290.0</ele><time>2026-04-26T15:48:28.313Z</time></trkpt><trkpt lat="44.5079683" lon="10.844215"><ele>290.0</ele><time>2026-04-26T15:48:29.313Z</time></trkpt><trkpt lat="44.5080883" lon="10.84424"><ele>289.0</ele><time>2026-04-26T15:48:30.313Z</time></trkpt><trkpt lat="44.508205" lon="10.8442767"><ele>288.0</ele><time>2026-04-26T15:48:31.313Z</time></trkpt><trkpt lat="44.50832" lon="10.8442883"><ele>287.0</ele><time>2026-04-26T15:48:32.313Z</time></trkpt><trkpt lat="44.5084167" lon="10.84428"><ele>286.0</ele><time>2026-04-26T15:48:33.313Z</time></trkpt><trkpt lat="44.5085017" lon="10.8442233"><ele>285.0</ele><time>2026-04-26T15:48:34.313Z</time></trkpt><trkpt lat="44.50858" lon="10.84414"><ele>285.0</ele><time>2026-04-26T15:48:35.313Z</time></trkpt><trkpt lat="44.50866" lon="10.8440883"><ele>285.0</ele><time>2026-04-26T15:48:36.313Z</time></trkpt><trkpt lat="44.5087317" lon="10.84405"><ele>285.0</ele><time>2026-04-26T15:48:37.313Z</time></trkpt><trkpt lat="44.5088017" lon="10.8440517"><ele>285.0</ele><time>2026-04-26T15:48:38.313Z</time></trkpt><trkpt lat="44.50889" lon="10.8440933"><ele>285.0</ele><time>2026-04-26T15:48:39.313Z</time></trkpt><trkpt lat="44.5089867" lon="10.8441533"><ele>285.0</ele><time>2026-04-26T15:48:40.313Z</time></trkpt><trkpt lat="44.5090933" lon="10.844225"><ele>281.0</ele><time>2026-04-26T15:48:41.313Z</time></trkpt><trkpt lat="44.509215" lon="10.8443"><ele>277.0</ele><time>2026-04-26T15:48:42.313Z</time></trkpt><trkpt lat="44.5093417" lon="10.8443733"><ele>273.0</ele><time>2026-04-26T15:48:43.313Z</time></trkpt><trkpt lat="44.5094617" lon="10.8444467"><ele>269.0</ele><time>2026-04-26T15:48:44.313Z</time></trkpt><trkpt lat="44.5095817" lon="10.8445083"><ele>269.0</ele><time>2026-04-26T15:48:45.313Z</time></trkpt><trkpt lat="44.5096967" lon="10.844565"><ele>269.0</ele><time>2026-04-26T15:48:46.313Z</time></trkpt><trkpt lat="44.5098167" lon="10.8446233"><ele>269.0</ele><time>2026-04-26T15:48:47.313Z</time></trkpt><trkpt lat="44.5099333" lon="10.8446633"><ele>269.0</ele><time>2026-04-26T15:48:48.313Z</time></trkpt><trkpt lat="44.5100467" lon="10.8446867"><ele>269.0</ele><time>2026-04-26T15:48:49.313Z</time></trkpt><trkpt lat="44.5101467" lon="10.8446933"><ele>269.0</ele><time>2026-04-26T15:48:50.313Z</time></trkpt><trkpt lat="44.51025" lon="10.8446767"><ele>269.0</ele><time>2026-04-26T15:48:51.313Z</time></trkpt><trkpt lat="44.51036" lon="10.8446417"><ele>269.0</ele><time>2026-04-26T15:48:52.313Z</time></trkpt><trkpt lat="44.510475" lon="10.8446"><ele>269.0</ele><time>2026-04-26T15:48:53.313Z</time></trkpt><trkpt lat="44.5105917" lon="10.8445617"><ele>268.2</ele><time>2026-04-26T15:48:54.313Z</time></trkpt><trkpt lat="44.510705" lon="10.8445367"><ele>267.4</ele><time>2026-04-26T15:48:55.313Z</time></trkpt><trkpt lat="44.510815" lon="10.8445317"><ele>266.6</ele><time>2026-04-26T15:48:56.313Z</time></trkpt><trkpt lat="44.5109117" lon="10.84453"><ele>265.8</ele><time>2026-04-26T15:48:57.313Z</time></trkpt><trkpt lat="44.5110017" lon="10.8445383"><ele>265.0</ele><time>2026-04-26T15:48:58.313Z</time></trkpt><trkpt lat="44.5110767" lon="10.8445717"><ele>265.0</ele><time>2026-04-26T15:48:59.313Z</time></trkpt><trkpt lat="44.51114" lon="10.8446283"><ele>265.0</ele><time>2026-04-26T15:49:00.313Z</time></trkpt><trkpt lat="44.5111933" lon="10.8447217"><ele>265.0</ele><time>2026-04-26T15:49:01.313Z</time></trkpt><trkpt lat="44.5112217" lon="10.8448367"><ele>265.0</ele><time>2026-04-26T15:49:02.313Z</time></trkpt><trkpt lat="44.5112233" lon="10.8449733"><ele>265.0</ele><time>2026-04-26T15:49:03.313Z</time></trkpt><trkpt lat="44.5112067" lon="10.8451233"><ele>263.4</ele><time>2026-04-26T15:49:04.313Z</time></trkpt><trkpt lat="44.5111883" lon="10.8452717"><ele>261.8</ele><time>2026-04-26T15:49:05.313Z</time></trkpt><trkpt lat="44.51117" lon="10.8454233"><ele>260.2</ele><time>2026-04-26T15:49:06.313Z</time></trkpt><trkpt lat="44.51115" lon="10.8455583"><ele>258.6</ele><time>2026-04-26T15:49:07.313Z</time></trkpt><trkpt lat="44.5111217" lon="10.8456867"><ele>257.0</ele><time>2026-04-26T15:49:08.313Z</time></trkpt><trkpt lat="44.5110817" lon="10.84582"><ele>257.0</ele><time>2026-04-26T15:49:09.313Z</time></trkpt><trkpt lat="44.5110267" lon="10.845945"><ele>257.0</ele><time>2026-04-26T15:49:10.313Z</time></trkpt><trkpt lat="44.5109583" lon="10.8460467"><ele>257.0</ele><time>2026-04-26T15:49:11.313Z</time></trkpt><trkpt lat="44.5108733" lon="10.8461283"><ele>257.0</ele><time>2026-04-26T15:49:12.313Z</time></trkpt><trkpt lat="44.51077" lon="10.8461867"><ele>257.0</ele><time>2026-04-26T15:49:13.313Z</time></trkpt><trkpt lat="44.5106583" lon="10.8462217"><ele>253.75</ele><time>2026-04-26T15:49:14.313Z</time></trkpt><trkpt lat="44.5105283" lon="10.846205"><ele>250.5</ele><time>2026-04-26T15:49:15.313Z</time></trkpt><trkpt lat="44.51039" lon="10.8461583"><ele>247.25</ele><time>2026-04-26T15:49:16.313Z</time></trkpt><trkpt lat="44.5102617" lon="10.8461183"><ele>244.0</ele><time>2026-04-26T15:49:17.313Z</time></trkpt><trkpt lat="44.5101483" lon="10.8460883"><ele>242.79999999999998</ele><time>2026-04-26T15:49:18.313Z</time></trkpt><trkpt lat="44.5100383" lon="10.8460517"><ele>241.59999999999997</ele><time>2026-04-26T15:49:19.313Z</time></trkpt><trkpt lat="44.509935" lon="10.8460033"><ele>240.4</ele><time>2026-04-26T15:49:20.313Z</time></trkpt><trkpt lat="44.5098383" lon="10.8459567"><ele>239.2</ele><time>2026-04-26T15:49:21.313Z</time></trkpt><trkpt lat="44.509755" lon="10.8459083"><ele>238.0</ele><time>2026-04-26T15:49:22.313Z</time></trkpt><trkpt lat="44.5096817" lon="10.8458717"><ele>238.0</ele><time>2026-04-26T15:49:23.313Z</time></trkpt><trkpt lat="44.50957" lon="10.8458783"><ele>238.0</ele><time>2026-04-26T15:49:25.313Z</time></trkpt><trkpt lat="44.5095567" lon="10.8460217"><ele>238.0</ele><time>2026-04-26T15:49:27.313Z</time></trkpt><trkpt lat="44.5095933" lon="10.8460983"><ele>238.0</ele><time>2026-04-26T15:49:28.313Z</time></trkpt><trkpt lat="44.5096733" lon="10.8461817"><ele>238.0</ele><time>2026-04-26T15:49:29.313Z</time></trkpt><trkpt lat="44.5098017" lon="10.8462783"><ele>238.0</ele><time>2026-04-26T15:49:30.313Z</time></trkpt><trkpt lat="44.509965" lon="10.846415"><ele>238.0</ele><time>2026-04-26T15:49:31.313Z</time></trkpt><trkpt lat="44.5101267" lon="10.8465767"><ele>238.0</ele><time>2026-04-26T15:49:32.313Z</time></trkpt><trkpt lat="44.510275" lon="10.8467217"><ele>235.0</ele><time>2026-04-26T15:49:33.313Z</time></trkpt><trkpt lat="44.5104217" lon="10.8468483"><ele>232.0</ele><time>2026-04-26T15:49:34.313Z</time></trkpt><trkpt lat="44.510555" lon="10.8469617"><ele>229.0</ele><time>2026-04-26T15:49:35.313Z</time></trkpt><trkpt lat="44.5106733" lon="10.84707"><ele>229.0</ele><time>2026-04-26T15:49:36.313Z</time></trkpt><trkpt lat="44.5107983" lon="10.84718"><ele>229.0</ele><time>2026-04-26T15:49:37.313Z</time></trkpt><trkpt lat="44.5109133" lon="10.847285"><ele>229.0</ele><time>2026-04-26T15:49:38.313Z</time></trkpt><trkpt lat="44.5110267" lon="10.8473883"><ele>229.0</ele><time>2026-04-26T15:49:39.313Z</time></trkpt><trkpt lat="44.5111367" lon="10.8474917"><ele>229.25</ele><time>2026-04-26T15:49:40.313Z</time></trkpt><trkpt lat="44.5112417" lon="10.8475883"><ele>229.5</ele><time>2026-04-26T15:49:41.313Z</time></trkpt><trkpt lat="44.5113433" lon="10.8476917"><ele>229.75</ele><time>2026-04-26T15:49:42.313Z</time></trkpt><trkpt lat="44.5114283" lon="10.8478"><ele>230.0</ele><time>2026-04-26T15:49:43.313Z</time></trkpt><trkpt lat="44.511515" lon="10.84792"><ele>227.8</ele><time>2026-04-26T15:49:44.313Z</time></trkpt><trkpt lat="44.5115883" lon="10.8480433"><ele>225.6</ele><time>2026-04-26T15:49:45.313Z</time></trkpt><trkpt lat="44.51166" lon="10.8481633"><ele>223.39999999999998</ele><time>2026-04-26T15:49:46.313Z</time></trkpt><trkpt lat="44.5117317" lon="10.8482817"><ele>221.2</ele><time>2026-04-26T15:49:47.313Z</time></trkpt><trkpt lat="44.5117983" lon="10.8483967"><ele>219.0</ele><time>2026-04-26T15:49:48.313Z</time></trkpt><trkpt lat="44.5118683" lon="10.84851"><ele>218.39999999999998</ele><time>2026-04-26T15:49:49.313Z</time></trkpt><trkpt lat="44.5119367" lon="10.848605"><ele>217.79999999999998</ele><time>2026-04-26T15:49:50.313Z</time></trkpt><trkpt lat="44.51201" lon="10.848675"><ele>217.20000000000002</ele><time>2026-04-26T15:49:51.313Z</time></trkpt><trkpt lat="44.5120983" lon="10.84873"><ele>216.60000000000002</ele><time>2026-04-26T15:49:52.313Z</time></trkpt><trkpt lat="44.5122117" lon="10.8487783"><ele>216.0</ele><time>2026-04-26T15:49:53.313Z</time></trkpt><trkpt lat="44.5123333" lon="10.8488267"><ele>216.0</ele><time>2026-04-26T15:49:54.313Z</time></trkpt><trkpt lat="44.5124767" lon="10.84889"><ele>216.0</ele><time>2026-04-26T15:49:55.313Z</time></trkpt><trkpt lat="44.5126333" lon="10.84895"><ele>216.0</ele><time>2026-04-26T15:49:56.313Z</time></trkpt><trkpt lat="44.5128033" lon="10.84901"><ele>212.66666666666669</ele><time>2026-04-26T15:49:57.313Z</time></trkpt><trkpt lat="44.5129783" lon="10.8490633"><ele>209.33333333333334</ele><time>2026-04-26T15:49:58.313Z</time></trkpt><trkpt lat="44.5131567" lon="10.8491383"><ele>206.0</ele><time>2026-04-26T15:49:59.313Z</time></trkpt><trkpt lat="44.51333" lon="10.8492067"><ele>206.0</ele><time>2026-04-26T15:50:00.314Z</time></trkpt><trkpt lat="44.51349" lon="10.8492783"><ele>206.0</ele><time>2026-04-26T15:50:01.313Z</time></trkpt><trkpt lat="44.5136633" lon="10.8493517"><ele>206.0</ele><time>2026-04-26T15:50:02.313Z</time></trkpt><trkpt lat="44.5138533" lon="10.8494167"><ele>203.33333333333334</ele><time>2026-04-26T15:50:03.313Z</time></trkpt><trkpt lat="44.5140583" lon="10.8494983"><ele>200.66666666666669</ele><time>2026-04-26T15:50:04.313Z</time></trkpt><trkpt lat="44.5142583" lon="10.849585"><ele>198.0</ele><time>2026-04-26T15:50:05.313Z</time></trkpt><trkpt lat="44.5144517" lon="10.84966"><ele>197.33333333333331</ele><time>2026-04-26T15:50:06.313Z</time></trkpt><trkpt lat="44.51463" lon="10.8497333"><ele>196.66666666666666</ele><time>2026-04-26T15:50:07.313Z</time></trkpt><trkpt lat="44.5148183" lon="10.8498083"><ele>196.0</ele><time>2026-04-26T15:50:08.313Z</time></trkpt><trkpt lat="44.515" lon="10.8498767"><ele>196.0</ele><time>2026-04-26T15:50:09.313Z</time></trkpt><trkpt lat="44.515175" lon="10.8499467"><ele>196.0</ele><time>2026-04-26T15:50:10.313Z</time></trkpt><trkpt lat="44.51536" lon="10.8500167"><ele>196.0</ele><time>2026-04-26T15:50:11.313Z</time></trkpt><trkpt lat="44.5155383" lon="10.8500933"><ele>194.33333333333331</ele><time>2026-04-26T15:50:12.314Z</time></trkpt><trkpt lat="44.515725" lon="10.8501583"><ele>192.66666666666666</ele><time>2026-04-26T15:50:13.313Z</time></trkpt><trkpt lat="44.5159017" lon="10.8502283"><ele>191.0</ele><time>2026-04-26T15:50:14.313Z</time></trkpt><trkpt lat="44.5160767" lon="10.85031"><ele>190.33333333333331</ele><time>2026-04-26T15:50:15.313Z</time></trkpt><trkpt lat="44.5162483" lon="10.850415"><ele>189.66666666666666</ele><time>2026-04-26T15:50:16.313Z</time></trkpt><trkpt lat="44.51642" lon="10.850535"><ele>189.0</ele><time>2026-04-26T15:50:17.313Z</time></trkpt><trkpt lat="44.5165783" lon="10.8506617"><ele>189.0</ele><time>2026-04-26T15:50:18.313Z</time></trkpt><trkpt lat="44.5167317" lon="10.85079"><ele>189.0</ele><time>2026-04-26T15:50:19.313Z</time></trkpt><trkpt lat="44.5168683" lon="10.8508967"><ele>189.0</ele><time>2026-04-26T15:50:20.313Z</time></trkpt><trkpt lat="44.517" lon="10.851015"><ele>187.25</ele><time>2026-04-26T15:50:21.313Z</time></trkpt><trkpt lat="44.5170967" lon="10.8511133"><ele>185.5</ele><time>2026-04-26T15:50:22.313Z</time></trkpt><trkpt lat="44.517195" lon="10.8512617"><ele>183.75</ele><time>2026-04-26T15:50:23.313Z</time></trkpt><trkpt lat="44.517295" lon="10.8514333"><ele>182.0</ele><time>2026-04-26T15:50:24.313Z</time></trkpt><trkpt lat="44.5173833" lon="10.8515967"><ele>182.0</ele><time>2026-04-26T15:50:25.313Z</time></trkpt><trkpt lat="44.5174767" lon="10.8517417"><ele>182.0</ele><time>2026-04-26T15:50:26.313Z</time></trkpt><trkpt lat="44.5175633" lon="10.8518633"><ele>182.0</ele><time>2026-04-26T15:50:27.313Z</time></trkpt><trkpt lat="44.5176483" lon="10.851975"><ele>182.0</ele><time>2026-04-26T15:50:28.313Z</time></trkpt><trkpt lat="44.5177333" lon="10.852105"><ele>180.0</ele><time>2026-04-26T15:50:29.313Z</time></trkpt><trkpt lat="44.5178183" lon="10.8522517"><ele>178.0</ele><time>2026-04-26T15:50:30.313Z</time></trkpt><trkpt lat="44.5178983" lon="10.8523983"><ele>176.0</ele><time>2026-04-26T15:50:31.313Z</time></trkpt><trkpt lat="44.517985" lon="10.8525483"><ele>174.0</ele><time>2026-04-26T15:50:32.313Z</time></trkpt><trkpt lat="44.5180667" lon="10.8526783"><ele>171.25</ele><time>2026-04-26T15:50:33.313Z</time></trkpt><trkpt lat="44.518155" lon="10.8527833"><ele>168.5</ele><time>2026-04-26T15:50:34.313Z</time></trkpt><trkpt lat="44.51827" lon="10.852885"><ele>165.75</ele><time>2026-04-26T15:50:35.313Z</time></trkpt><trkpt lat="44.5184067" lon="10.8529833"><ele>163.0</ele><time>2026-04-26T15:50:36.314Z</time></trkpt><trkpt lat="44.5185467" lon="10.8530717"><ele>163.0</ele><time>2026-04-26T15:50:37.313Z</time></trkpt><trkpt lat="44.5186583" lon="10.853175"><ele>163.0</ele><time>2026-04-26T15:50:38.313Z</time></trkpt><trkpt lat="44.5187467" lon="10.8532833"><ele>163.0</ele><time>2026-04-26T15:50:39.314Z</time></trkpt><trkpt lat="44.5188183" lon="10.8534367"><ele>163.0</ele><time>2026-04-26T15:50:40.313Z</time></trkpt><trkpt lat="44.5188617" lon="10.85361"><ele>161.0</ele><time>2026-04-26T15:50:41.313Z</time></trkpt><trkpt lat="44.51889" lon="10.85384"><ele>159.0</ele><time>2026-04-26T15:50:42.313Z</time></trkpt><trkpt lat="44.5189117" lon="10.854085"><ele>157.0</ele><time>2026-04-26T15:50:43.312Z</time></trkpt><trkpt lat="44.5189483" lon="10.854335"><ele>155.75</ele><time>2026-04-26T15:50:44.313Z</time></trkpt><trkpt lat="44.5189717" lon="10.8545533"><ele>154.5</ele><time>2026-04-26T15:50:45.312Z</time></trkpt><trkpt lat="44.5189967" lon="10.8547367"><ele>153.25</ele><time>2026-04-26T15:50:46.312Z</time></trkpt><trkpt lat="44.519035" lon="10.8548983"><ele>152.0</ele><time>2026-04-26T15:50:47.312Z</time></trkpt><trkpt lat="44.5191067" lon="10.85507"><ele>150.33333333333331</ele><time>2026-04-26T15:50:48.312Z</time></trkpt><trkpt lat="44.5192017" lon="10.8552417"><ele>148.66666666666666</ele><time>2026-04-26T15:50:49.312Z</time></trkpt><trkpt lat="44.519325" lon="10.85541"><ele>147.0</ele><time>2026-04-26T15:50:50.312Z</time></trkpt><trkpt lat="44.519455" lon="10.8555817"><ele>147.0</ele><time>2026-04-26T15:50:51.312Z</time></trkpt><trkpt lat="44.5195783" lon="10.8557533"><ele>147.0</ele><time>2026-04-26T15:50:52.312Z</time></trkpt><trkpt lat="44.5196917" lon="10.8559133"><ele>147.0</ele><time>2026-04-26T15:50:53.312Z</time></trkpt><trkpt lat="44.51981" lon="10.856075"><ele>146.66666666666666</ele><time>2026-04-26T15:50:54.312Z</time></trkpt><trkpt lat="44.5199367" lon="10.8562033"><ele>146.33333333333331</ele><time>2026-04-26T15:50:55.312Z</time></trkpt><trkpt lat="44.52008" lon="10.8562967"><ele>146.0</ele><time>2026-04-26T15:50:56.312Z</time></trkpt><trkpt lat="44.5202333" lon="10.8563433"><ele>146.0</ele><time>2026-04-26T15:50:57.312Z</time></trkpt><trkpt lat="44.520395" lon="10.8563433"><ele>146.0</ele><time>2026-04-26T15:50:58.312Z</time></trkpt><trkpt lat="44.5205583" lon="10.85633"><ele>146.0</ele><time>2026-04-26T15:50:59.312Z</time></trkpt><trkpt lat="44.5207267" lon="10.8563183"><ele>146.0</ele><time>2026-04-26T15:51:00.312Z</time></trkpt><trkpt lat="44.5209" lon="10.8563433"><ele>146.0</ele><time>2026-04-26T15:51:01.312Z</time></trkpt><trkpt lat="44.52107" lon="10.8563883"><ele>146.0</ele><time>2026-04-26T15:51:02.312Z</time></trkpt><trkpt lat="44.52123" lon="10.856455"><ele>146.33333333333331</ele><time>2026-04-26T15:51:03.312Z</time></trkpt><trkpt lat="44.5213933" lon="10.8565483"><ele>146.66666666666666</ele><time>2026-04-26T15:51:04.312Z</time></trkpt><trkpt lat="44.521575" lon="10.8566733"><ele>147.0</ele><time>2026-04-26T15:51:05.313Z</time></trkpt><trkpt lat="44.5217583" lon="10.8568"><ele>146.33333333333334</ele><time>2026-04-26T15:51:06.312Z</time></trkpt><trkpt lat="44.5219317" lon="10.85692"><ele>145.66666666666669</ele><time>2026-04-26T15:51:07.312Z</time></trkpt><trkpt lat="44.5221017" lon="10.857035"><ele>145.0</ele><time>2026-04-26T15:51:08.312Z</time></trkpt><trkpt lat="44.5222567" lon="10.8571367"><ele>144.75</ele><time>2026-04-26T15:51:09.312Z</time></trkpt><trkpt lat="44.5223833" lon="10.8572083"><ele>144.5</ele><time>2026-04-26T15:51:10.312Z</time></trkpt><trkpt lat="44.5225067" lon="10.8572617"><ele>144.25</ele><time>2026-04-26T15:51:11.312Z</time></trkpt><trkpt lat="44.5226217" lon="10.8572933"><ele>144.0</ele><time>2026-04-26T15:51:12.313Z</time></trkpt><trkpt lat="44.522725" lon="10.8573083"><ele>144.0</ele><time>2026-04-26T15:51:13.312Z</time></trkpt><trkpt lat="44.5228283" lon="10.857315"><ele>144.0</ele><time>2026-04-26T15:51:14.312Z</time></trkpt><trkpt lat="44.5229283" lon="10.85731"><ele>144.0</ele><time>2026-04-26T15:51:15.312Z</time></trkpt><trkpt lat="44.5230217" lon="10.8573"><ele>144.0</ele><time>2026-04-26T15:51:16.312Z</time></trkpt><trkpt lat="44.5230967" lon="10.8573117"><ele>144.0</ele><time>2026-04-26T15:51:17.312Z</time></trkpt><trkpt lat="44.5231967" lon="10.8573733"><ele>143.5</ele><time>2026-04-26T15:51:19.312Z</time></trkpt><trkpt lat="44.5232417" lon="10.8575383"><ele>143.0</ele><time>2026-04-26T15:51:21.312Z</time></trkpt><trkpt lat="44.5232433" lon="10.8576783"><ele>142.5</ele><time>2026-04-26T15:51:22.312Z</time></trkpt><trkpt lat="44.523225" lon="10.8578817"><ele>142.0</ele><time>2026-04-26T15:51:23.312Z</time></trkpt><trkpt lat="44.5232117" lon="10.8581167"><ele>143.25</ele><time>2026-04-26T15:51:24.312Z</time></trkpt><trkpt lat="44.52321" lon="10.85832"><ele>144.5</ele><time>2026-04-26T15:51:25.312Z</time></trkpt><trkpt lat="44.52324" lon="10.8584883"><ele>145.75</ele><time>2026-04-26T15:51:26.312Z</time></trkpt><trkpt lat="44.5232867" lon="10.85862"><ele>147.0</ele><time>2026-04-26T15:51:27.312Z</time></trkpt><trkpt lat="44.5233517" lon="10.858735"><ele>147.2</ele><time>2026-04-26T15:51:28.312Z</time></trkpt><trkpt lat="44.5234117" lon="10.8588567"><ele>147.39999999999998</ele><time>2026-04-26T15:51:29.312Z</time></trkpt><trkpt lat="44.5234967" lon="10.85895"><ele>147.60000000000002</ele><time>2026-04-26T15:51:30.312Z</time></trkpt><trkpt lat="44.5235917" lon="10.859015"><ele>147.8</ele><time>2026-04-26T15:51:31.312Z</time></trkpt><trkpt lat="44.5237017" lon="10.8590467"><ele>148.0</ele><time>2026-04-26T15:51:32.313Z</time></trkpt><trkpt lat="44.5238033" lon="10.85907"><ele>148.0</ele><time>2026-04-26T15:51:33.312Z</time></trkpt><trkpt lat="44.5238867" lon="10.8590983"><ele>148.0</ele><time>2026-04-26T15:51:34.312Z</time></trkpt><trkpt lat="44.523965" lon="10.8591883"><ele>148.0</ele><time>2026-04-26T15:51:36.312Z</time></trkpt><trkpt lat="44.5239633" lon="10.859335"><ele>148.0</ele><time>2026-04-26T15:51:38.312Z</time></trkpt><trkpt lat="44.523915" lon="10.8594183"><ele>148.0</ele><time>2026-04-26T15:51:39.312Z</time></trkpt><trkpt lat="44.52382" lon="10.85949"><ele>150.0</ele><time>2026-04-26T15:51:40.312Z</time></trkpt><trkpt lat="44.5236833" lon="10.8595717"><ele>152.0</ele><time>2026-04-26T15:51:41.312Z</time></trkpt><trkpt lat="44.5234967" lon="10.8596867"><ele>154.0</ele><time>2026-04-26T15:51:42.313Z</time></trkpt><trkpt lat="44.5233333" lon="10.8598033"><ele>154.0</ele><time>2026-04-26T15:51:43.312Z</time></trkpt><trkpt lat="44.5231733" lon="10.859905"><ele>154.0</ele><time>2026-04-26T15:51:44.312Z</time></trkpt><trkpt lat="44.5230467" lon="10.8599917"><ele>154.0</ele><time>2026-04-26T15:51:45.312Z</time></trkpt><trkpt lat="44.5229583" lon="10.8601083"><ele>154.0</ele><time>2026-04-26T15:51:46.312Z</time></trkpt><trkpt lat="44.522885" lon="10.8602217"><ele>154.33333333333334</ele><time>2026-04-26T15:51:47.312Z</time></trkpt><trkpt lat="44.5228433" lon="10.8603217"><ele>154.66666666666669</ele><time>2026-04-26T15:51:48.312Z</time></trkpt><trkpt lat="44.52282" lon="10.8604183"><ele>155.0</ele><time>2026-04-26T15:51:49.312Z</time></trkpt><trkpt lat="44.5228067" lon="10.860525"><ele>155.33333333333334</ele><time>2026-04-26T15:51:51.312Z</time></trkpt><trkpt lat="44.5228383" lon="10.8606733"><ele>155.66666666666666</ele><time>2026-04-26T15:51:54.312Z</time></trkpt><trkpt lat="44.5228833" lon="10.8607383"><ele>156.0</ele><time>2026-04-26T15:51:55.312Z</time></trkpt><trkpt lat="44.5229533" lon="10.86082"><ele>155.75</ele><time>2026-04-26T15:51:56.312Z</time></trkpt><trkpt lat="44.52304" lon="10.860915"><ele>155.5</ele><time>2026-04-26T15:51:57.312Z</time></trkpt><trkpt lat="44.5231433" lon="10.8610533"><ele>155.25</ele><time>2026-04-26T15:51:58.312Z</time></trkpt><trkpt lat="44.5232433" lon="10.8612183"><ele>155.0</ele><time>2026-04-26T15:51:59.312Z</time></trkpt><trkpt lat="44.52334" lon="10.8613917"><ele>155.0</ele><time>2026-04-26T15:52:00.312Z</time></trkpt><trkpt lat="44.5234283" lon="10.86156"><ele>155.0</ele><time>2026-04-26T15:52:01.312Z</time></trkpt><trkpt lat="44.52351" lon="10.861725"><ele>155.0</ele><time>2026-04-26T15:52:02.312Z</time></trkpt><trkpt lat="44.5235917" lon="10.8618867"><ele>155.0</ele><time>2026-04-26T15:52:03.312Z</time></trkpt><trkpt lat="44.52367" lon="10.8620383"><ele>153.75</ele><time>2026-04-26T15:52:04.312Z</time></trkpt><trkpt lat="44.523745" lon="10.8621833"><ele>152.5</ele><time>2026-04-26T15:52:05.312Z</time></trkpt><trkpt lat="44.523815" lon="10.8623217"><ele>151.25</ele><time>2026-04-26T15:52:06.312Z</time></trkpt><trkpt lat="44.52388" lon="10.86245"><ele>150.0</ele><time>2026-04-26T15:52:07.312Z</time></trkpt><trkpt lat="44.523945" lon="10.8625733"><ele>149.6</ele><time>2026-04-26T15:52:08.312Z</time></trkpt><trkpt lat="44.52401" lon="10.8626933"><ele>149.2</ele><time>2026-04-26T15:52:09.312Z</time></trkpt><trkpt lat="44.524075" lon="10.8628117"><ele>148.8</ele><time>2026-04-26T15:52:10.312Z</time></trkpt><trkpt lat="44.52414" lon="10.862925"><ele>148.4</ele><time>2026-04-26T15:52:11.312Z</time></trkpt><trkpt lat="44.5242117" lon="10.8630433"><ele>148.0</ele><time>2026-04-26T15:52:12.312Z</time></trkpt><trkpt lat="44.5242883" lon="10.863165"><ele>148.0</ele><time>2026-04-26T15:52:13.312Z</time></trkpt><trkpt lat="44.5243633" lon="10.8632967"><ele>148.0</ele><time>2026-04-26T15:52:14.312Z</time></trkpt><trkpt lat="44.5244383" lon="10.863435"><ele>148.0</ele><time>2026-04-26T15:52:15.312Z</time></trkpt><trkpt lat="44.52451" lon="10.8635717"><ele>148.0</ele><time>2026-04-26T15:52:16.312Z</time></trkpt><trkpt lat="44.5245817" lon="10.8637133"><ele>146.25</ele><time>2026-04-26T15:52:17.312Z</time></trkpt><trkpt lat="44.5246417" lon="10.8638583"><ele>144.5</ele><time>2026-04-26T15:52:18.312Z</time></trkpt><trkpt lat="44.524685" lon="10.8640067"><ele>142.75</ele><time>2026-04-26T15:52:19.312Z</time></trkpt><trkpt lat="44.5247167" lon="10.8641633"><ele>141.0</ele><time>2026-04-26T15:52:20.312Z</time></trkpt><trkpt lat="44.5247317" lon="10.8643167"><ele>140.4</ele><time>2026-04-26T15:52:21.312Z</time></trkpt><trkpt lat="44.52474" lon="10.8644617"><ele>139.8</ele><time>2026-04-26T15:52:22.312Z</time></trkpt><trkpt lat="44.5247467" lon="10.8646"><ele>139.20000000000002</ele><time>2026-04-26T15:52:23.312Z</time></trkpt><trkpt lat="44.5247517" lon="10.8647317"><ele>138.6</ele><time>2026-04-26T15:52:24.312Z</time></trkpt><trkpt lat="44.5247517" lon="10.864855"><ele>138.0</ele><time>2026-04-26T15:52:25.312Z</time></trkpt><trkpt lat="44.5247567" lon="10.864975"><ele>138.0</ele><time>2026-04-26T15:52:26.312Z</time></trkpt><trkpt lat="44.5247617" lon="10.8650867"><ele>138.0</ele><time>2026-04-26T15:52:27.312Z</time></trkpt><trkpt lat="44.52477" lon="10.86519"><ele>138.0</ele><time>2026-04-26T15:52:28.312Z</time></trkpt><trkpt lat="44.5247767" lon="10.8652783"><ele>138.0</ele><time>2026-04-26T15:52:29.312Z</time></trkpt><trkpt lat="44.5247883" lon="10.8654483"><ele>138.0</ele><time>2026-04-26T15:52:31.312Z</time></trkpt><trkpt lat="44.5247967" lon="10.8655367"><ele>138.0</ele><time>2026-04-26T15:52:32.312Z</time></trkpt><trkpt lat="44.52481" lon="10.8656233"><ele>137.6</ele><time>2026-04-26T15:52:33.312Z</time></trkpt><trkpt lat="44.5248567" lon="10.8657733"><ele>137.20000000000002</ele><time>2026-04-26T15:52:35.312Z</time></trkpt><trkpt lat="44.524925" lon="10.8658733"><ele>136.8</ele><time>2026-04-26T15:52:37.312Z</time></trkpt><trkpt lat="44.5250283" lon="10.8659483"><ele>136.4</ele><time>2026-04-26T15:52:39.312Z</time></trkpt><trkpt lat="44.5250867" lon="10.8659883"><ele>136.0</ele><time>2026-04-26T15:52:40.312Z</time></trkpt><trkpt lat="44.525175" lon="10.86605"><ele>135.66666666666669</ele><time>2026-04-26T15:52:42.312Z</time></trkpt><trkpt lat="44.5252567" lon="10.8661133"><ele>135.33333333333334</ele><time>2026-04-26T15:52:44.312Z</time></trkpt><trkpt lat="44.5253083" lon="10.8661833"><ele>135.0</ele><time>2026-04-26T15:52:46.312Z</time></trkpt><trkpt lat="44.5253183" lon="10.866285"><ele>134.66666666666666</ele><time>2026-04-26T15:52:48.312Z</time></trkpt><trkpt lat="44.525335" lon="10.86638"><ele>134.33333333333331</ele><time>2026-04-26T15:52:50.312Z</time></trkpt><trkpt lat="44.5254017" lon="10.86644"><ele>134.0</ele><time>2026-04-26T15:52:52.312Z</time></trkpt><trkpt lat="44.5254383" lon="10.8663583"><ele>133.66666666666666</ele><time>2026-04-26T15:59:20.309Z</time></trkpt><trkpt lat="44.5254883" lon="10.86644"><ele>133.33333333333331</ele><time>2026-04-26T16:00:05.309Z</time></trkpt><trkpt lat="44.5255417" lon="10.8665233"><ele>133.0</ele><time>2026-04-26T16:02:01.308Z</time></trkpt><trkpt lat="44.5256167" lon="10.8665383"><ele>132.66666666666666</ele><time>2026-04-26T16:02:03.308Z</time></trkpt><trkpt lat="44.5257" lon="10.8665317"><ele>132.33333333333334</ele><time>2026-04-26T16:02:05.308Z</time></trkpt><trkpt lat="44.5257733" lon="10.866515"><ele>132.0</ele><time>2026-04-26T16:02:08.308Z</time></trkpt><trkpt lat="44.5258433" lon="10.8665067"><ele>132.0</ele><time>2026-04-26T16:02:12.308Z</time></trkpt><trkpt lat="44.5259467" lon="10.86655"><ele>132.0</ele><time>2026-04-26T16:02:15.308Z</time></trkpt><trkpt lat="44.5260417" lon="10.86662"><ele>132.0</ele><time>2026-04-26T16:02:17.308Z</time></trkpt><trkpt lat="44.5261167" lon="10.866665"><ele>132.0</ele><time>2026-04-26T16:02:19.308Z</time></trkpt><trkpt lat="44.5262033" lon="10.86671"><ele>132.0</ele><time>2026-04-26T16:02:22.308Z</time></trkpt><trkpt lat="44.5263067" lon="10.8667333"><ele>131.79999999999998</ele><time>2026-04-26T16:02:24.308Z</time></trkpt><trkpt lat="44.5263967" lon="10.8667117"><ele>131.6</ele><time>2026-04-26T16:02:26.308Z</time></trkpt><trkpt lat="44.5264833" lon="10.8666467"><ele>131.39999999999998</ele><time>2026-04-26T16:02:29.308Z</time></trkpt><trkpt lat="44.5266017" lon="10.866575"><ele>131.2</ele><time>2026-04-26T16:02:31.308Z</time></trkpt><trkpt lat="44.5266767" lon="10.8665333"><ele>131.0</ele><time>2026-04-26T16:02:32.308Z</time></trkpt><trkpt lat="44.5267583" lon="10.8664867"><ele>131.0</ele><time>2026-04-26T16:02:33.308Z</time></trkpt><trkpt lat="44.5268483" lon="10.86644"><ele>131.0</ele><time>2026-04-26T16:02:34.309Z</time></trkpt><trkpt lat="44.52695" lon="10.8663933"><ele>131.0</ele><time>2026-04-26T16:02:35.308Z</time></trkpt><trkpt lat="44.5270617" lon="10.8663483"><ele>131.0</ele><time>2026-04-26T16:02:36.308Z</time></trkpt><trkpt lat="44.5271767" lon="10.8663083"><ele>131.0</ele><time>2026-04-26T16:02:37.308Z</time></trkpt><trkpt lat="44.52729" lon="10.8662633"><ele>130.5</ele><time>2026-04-26T16:02:38.308Z</time></trkpt><trkpt lat="44.52741" lon="10.86621"><ele>130.0</ele><time>2026-04-26T16:02:39.308Z</time></trkpt><trkpt lat="44.5275417" lon="10.86615"><ele>129.5</ele><time>2026-04-26T16:02:40.308Z</time></trkpt><trkpt lat="44.5276817" lon="10.8660767"><ele>129.0</ele><time>2026-04-26T16:02:41.308Z</time></trkpt><trkpt lat="44.5278267" lon="10.8660183"><ele>129.0</ele><time>2026-04-26T16:02:42.308Z</time></trkpt><trkpt lat="44.527965" lon="10.86596"><ele>129.0</ele><time>2026-04-26T16:02:43.308Z</time></trkpt><trkpt lat="44.52811" lon="10.8659"><ele>129.0</ele><time>2026-04-26T16:02:44.308Z</time></trkpt><trkpt lat="44.5282433" lon="10.8658367"><ele>129.0</ele><time>2026-04-26T16:02:45.308Z</time></trkpt><trkpt lat="44.5283783" lon="10.8657683"><ele>129.0</ele><time>2026-04-26T16:02:46.308Z</time></trkpt><trkpt lat="44.5285183" lon="10.8657033"><ele>129.0</ele><time>2026-04-26T16:02:47.308Z</time></trkpt><trkpt lat="44.5286667" lon="10.8656567"><ele>129.0</ele><time>2026-04-26T16:02:48.308Z</time></trkpt><trkpt lat="44.52881" lon="10.8655883"><ele>129.0</ele><time>2026-04-26T16:02:49.308Z</time></trkpt><trkpt lat="44.5289567" lon="10.8655217"><ele>129.0</ele><time>2026-04-26T16:02:50.308Z</time></trkpt><trkpt lat="44.5291017" lon="10.8654583"><ele>129.0</ele><time>2026-04-26T16:02:51.308Z</time></trkpt><trkpt lat="44.5292383" lon="10.865415"><ele>129.0</ele><time>2026-04-26T16:02:52.308Z</time></trkpt><trkpt lat="44.52937" lon="10.8653583"><ele>129.0</ele><time>2026-04-26T16:02:53.308Z</time></trkpt><trkpt lat="44.5294867" lon="10.8653167"><ele>129.0</ele><time>2026-04-26T16:02:54.308Z</time></trkpt><trkpt lat="44.5295933" lon="10.86526"><ele>129.0</ele><time>2026-04-26T16:02:55.308Z</time></trkpt><trkpt lat="44.5296783" lon="10.8652167"><ele>129.0</ele><time>2026-04-26T16:02:56.308Z</time></trkpt><trkpt lat="44.5297617" lon="10.865185"><ele>129.0</ele><time>2026-04-26T16:02:57.308Z</time></trkpt><trkpt lat="44.5298417" lon="10.8651533"><ele>128.6</ele><time>2026-04-26T16:02:58.308Z</time></trkpt><trkpt lat="44.5299267" lon="10.8651267"><ele>128.2</ele><time>2026-04-26T16:02:59.308Z</time></trkpt><trkpt lat="44.5300283" lon="10.8650883"><ele>127.79999999999998</ele><time>2026-04-26T16:03:00.309Z</time></trkpt><trkpt lat="44.5301417" lon="10.8650467"><ele>127.39999999999999</ele><time>2026-04-26T16:03:01.308Z</time></trkpt><trkpt lat="44.5302583" lon="10.8649933"><ele>127.0</ele><time>2026-04-26T16:03:02.308Z</time></trkpt><trkpt lat="44.530395" lon="10.8649433"><ele>127.0</ele><time>2026-04-26T16:03:03.308Z</time></trkpt><trkpt lat="44.5305333" lon="10.8648817"><ele>127.0</ele><time>2026-04-26T16:03:04.308Z</time></trkpt><trkpt lat="44.5306767" lon="10.86482"><ele>127.0</ele><time>2026-04-26T16:03:05.308Z</time></trkpt><trkpt lat="44.5308117" lon="10.8647683"><ele>127.0</ele><time>2026-04-26T16:03:06.309Z</time></trkpt><trkpt lat="44.5309417" lon="10.864715"><ele>127.0</ele><time>2026-04-26T16:03:07.308Z</time></trkpt><trkpt lat="44.5310817" lon="10.8646567"><ele>127.0</ele><time>2026-04-26T16:03:08.308Z</time></trkpt><trkpt lat="44.5312167" lon="10.8645833"><ele>127.0</ele><time>2026-04-26T16:03:09.308Z</time></trkpt><trkpt lat="44.5313533" lon="10.864505"><ele>127.0</ele><time>2026-04-26T16:03:10.308Z</time></trkpt><trkpt lat="44.5315033" lon="10.8644383"><ele>127.0</ele><time>2026-04-26T16:03:11.308Z</time></trkpt><trkpt lat="44.5316583" lon="10.8643767"><ele>127.0</ele><time>2026-04-26T16:03:12.308Z</time></trkpt><trkpt lat="44.5318217" lon="10.864315"><ele>127.0</ele><time>2026-04-26T16:03:13.308Z</time></trkpt><trkpt lat="44.5319817" lon="10.864265"><ele>126.5</ele><time>2026-04-26T16:03:14.308Z</time></trkpt><trkpt lat="44.5321333" lon="10.8642183"><ele>126.0</ele><time>2026-04-26T16:03:15.308Z</time></trkpt><trkpt lat="44.532275" lon="10.864175"><ele>125.5</ele><time>2026-04-26T16:03:16.308Z</time></trkpt><trkpt lat="44.5324083" lon="10.86413"><ele>125.0</ele><time>2026-04-26T16:03:17.308Z</time></trkpt><trkpt lat="44.5325383" lon="10.8640717"><ele>124.99999999999999</ele><time>2026-04-26T16:03:18.308Z</time></trkpt><trkpt lat="44.5326517" lon="10.8640283"><ele>125.0</ele><time>2026-04-26T16:03:19.308Z</time></trkpt><trkpt lat="44.5327467" lon="10.8640117"><ele>125.0</ele><time>2026-04-26T16:03:20.308Z</time></trkpt><trkpt lat="44.5328133" lon="10.8639967"><ele>125.0</ele><time>2026-04-26T16:03:21.308Z</time></trkpt><trkpt lat="44.532875" lon="10.8639633"><ele>124.99999999999999</ele><time>2026-04-26T16:03:22.308Z</time></trkpt><trkpt lat="44.53295" lon="10.863935"><ele>125.0</ele><time>2026-04-26T16:03:23.308Z</time></trkpt><trkpt lat="44.5330417" lon="10.8639"><ele>124.5</ele><time>2026-04-26T16:03:24.307Z</time></trkpt><trkpt lat="44.5331533" lon="10.8638517"><ele>124.0</ele><time>2026-04-26T16:03:25.307Z</time></trkpt><trkpt lat="44.533275" lon="10.8637933"><ele>123.5</ele><time>2026-04-26T16:03:26.307Z</time></trkpt><trkpt lat="44.5334033" lon="10.8637367"><ele>123.0</ele><time>2026-04-26T16:03:27.307Z</time></trkpt><trkpt lat="44.5335417" lon="10.8636767"><ele>123.0</ele><time>2026-04-26T16:03:28.307Z</time></trkpt><trkpt lat="44.5336833" lon="10.863615"><ele>123.0</ele><time>2026-04-26T16:03:29.307Z</time></trkpt><trkpt lat="44.5338333" lon="10.8635417"><ele>123.0</ele><time>2026-04-26T16:03:30.307Z</time></trkpt><trkpt lat="44.5339883" lon="10.8634767"><ele>122.66666666666666</ele><time>2026-04-26T16:03:31.307Z</time></trkpt><trkpt lat="44.5341517" lon="10.8634033"><ele>122.33333333333333</ele><time>2026-04-26T16:03:32.307Z</time></trkpt><trkpt lat="44.534315" lon="10.8633467"><ele>122.0</ele><time>2026-04-26T16:03:33.307Z</time></trkpt><trkpt lat="44.5344717" lon="10.86328"><ele>122.0</ele><time>2026-04-26T16:03:34.307Z</time></trkpt><trkpt lat="44.5346333" lon="10.8632067"><ele>122.0</ele><time>2026-04-26T16:03:35.307Z</time></trkpt><trkpt lat="44.5347983" lon="10.8631383"><ele>122.0</ele><time>2026-04-26T16:03:36.307Z</time></trkpt><trkpt lat="44.5349617" lon="10.86307"><ele>122.0</ele><time>2026-04-26T16:03:37.307Z</time></trkpt><trkpt lat="44.53512" lon="10.8630133"><ele>122.0</ele><time>2026-04-26T16:03:38.307Z</time></trkpt><trkpt lat="44.53527" lon="10.8629467"><ele>122.0</ele><time>2026-04-26T16:03:39.307Z</time></trkpt><trkpt lat="44.5354133" lon="10.862885"><ele>122.33333333333333</ele><time>2026-04-26T16:03:40.308Z</time></trkpt><trkpt lat="44.5355567" lon="10.8628267"><ele>122.66666666666666</ele><time>2026-04-26T16:03:41.307Z</time></trkpt><trkpt lat="44.5356967" lon="10.8627567"><ele>123.0</ele><time>2026-04-26T16:03:42.307Z</time></trkpt><trkpt lat="44.5358583" lon="10.8627133"><ele>123.0</ele><time>2026-04-26T16:03:43.307Z</time></trkpt><trkpt lat="44.5360233" lon="10.8626367"><ele>123.0</ele><time>2026-04-26T16:03:44.307Z</time></trkpt><trkpt lat="44.5361833" lon="10.862565"><ele>123.0</ele><time>2026-04-26T16:03:45.307Z</time></trkpt><trkpt lat="44.5363483" lon="10.8625"><ele>122.0</ele><time>2026-04-26T16:03:46.307Z</time></trkpt><trkpt lat="44.536515" lon="10.862435"><ele>121.0</ele><time>2026-04-26T16:03:47.307Z</time></trkpt><trkpt lat="44.5366833" lon="10.8623767"><ele>120.0</ele><time>2026-04-26T16:03:48.307Z</time></trkpt><trkpt lat="44.53686" lon="10.8623217"><ele>120.0</ele><time>2026-04-26T16:03:49.307Z</time></trkpt><trkpt lat="44.5370383" lon="10.8622667"><ele>120.0</ele><time>2026-04-26T16:03:50.307Z</time></trkpt><trkpt lat="44.5372183" lon="10.862215"><ele>120.0</ele><time>2026-04-26T16:03:51.307Z</time></trkpt><trkpt lat="44.5374017" lon="10.8621583"><ele>119.0</ele><time>2026-04-26T16:03:52.307Z</time></trkpt><trkpt lat="44.537585" lon="10.8620967"><ele>118.0</ele><time>2026-04-26T16:03:53.307Z</time></trkpt><trkpt lat="44.537765" lon="10.8620517"><ele>117.0</ele><time>2026-04-26T16:03:54.307Z</time></trkpt><trkpt lat="44.5379433" lon="10.861975"><ele>116.66666666666666</ele><time>2026-04-26T16:03:55.308Z</time></trkpt><trkpt lat="44.5381283" lon="10.8618983"><ele>116.33333333333333</ele><time>2026-04-26T16:03:56.307Z</time></trkpt><trkpt lat="44.5383117" lon="10.8618183"><ele>116.0</ele><time>2026-04-26T16:03:57.308Z</time></trkpt><trkpt lat="44.5384767" lon="10.8617283"><ele>116.0</ele><time>2026-04-26T16:03:58.307Z</time></trkpt><trkpt lat="44.538635" lon="10.8616333"><ele>116.0</ele><time>2026-04-26T16:03:59.307Z</time></trkpt><trkpt lat="44.5387917" lon="10.861535"><ele>116.0</ele><time>2026-04-26T16:04:00.307Z</time></trkpt><trkpt lat="44.5389467" lon="10.86145"><ele>115.33333333333333</ele><time>2026-04-26T16:04:01.307Z</time></trkpt><trkpt lat="44.5391033" lon="10.8613833"><ele>114.66666666666666</ele><time>2026-04-26T16:04:02.307Z</time></trkpt><trkpt lat="44.53927" lon="10.861305"><ele>114.0</ele><time>2026-04-26T16:04:03.307Z</time></trkpt><trkpt lat="44.5394333" lon="10.8612317"><ele>113.33333333333334</ele><time>2026-04-26T16:04:04.307Z</time></trkpt><trkpt lat="44.5395933" lon="10.8611667"><ele>112.66666666666667</ele><time>2026-04-26T16:04:05.307Z</time></trkpt><trkpt lat="44.53975" lon="10.8611067"><ele>112.0</ele><time>2026-04-26T16:04:06.307Z</time></trkpt><trkpt lat="44.539905" lon="10.861045"><ele>112.0</ele><time>2026-04-26T16:04:07.307Z</time></trkpt><trkpt lat="44.5400467" lon="10.8609883"><ele>112.0</ele><time>2026-04-26T16:04:08.307Z</time></trkpt><trkpt lat="44.5401833" lon="10.8609367"><ele>112.0</ele><time>2026-04-26T16:04:09.307Z</time></trkpt><trkpt lat="44.5403183" lon="10.8608817"><ele>112.0</ele><time>2026-04-26T16:04:10.307Z</time></trkpt><trkpt lat="44.5404483" lon="10.860815"><ele>112.0</ele><time>2026-04-26T16:04:11.307Z</time></trkpt><trkpt lat="44.540575" lon="10.8607383"><ele>112.0</ele><time>2026-04-26T16:04:12.307Z</time></trkpt><trkpt lat="44.5407" lon="10.8606567"><ele>112.0</ele><time>2026-04-26T16:04:13.307Z</time></trkpt><trkpt lat="44.5408283" lon="10.860595"><ele>112.0</ele><time>2026-04-26T16:04:14.307Z</time></trkpt><trkpt lat="44.5409633" lon="10.8605467"><ele>112.0</ele><time>2026-04-26T16:04:15.307Z</time></trkpt><trkpt lat="44.5410933" lon="10.8605033"><ele>112.0</ele><time>2026-04-26T16:04:16.307Z</time></trkpt><trkpt lat="44.5412333" lon="10.86046"><ele>112.0</ele><time>2026-04-26T16:04:17.307Z</time></trkpt><trkpt lat="44.541375" lon="10.86042"><ele>112.0</ele><time>2026-04-26T16:04:18.307Z</time></trkpt><trkpt lat="44.5415217" lon="10.860375"><ele>111.33333333333334</ele><time>2026-04-26T16:04:19.307Z</time></trkpt><trkpt lat="44.5416733" lon="10.860315"><ele>110.66666666666666</ele><time>2026-04-26T16:04:20.307Z</time></trkpt><trkpt lat="44.5418167" lon="10.8602583"><ele>110.0</ele><time>2026-04-26T16:04:21.307Z</time></trkpt><trkpt lat="44.5419667" lon="10.8602083"><ele>110.33333333333333</ele><time>2026-04-26T16:04:22.307Z</time></trkpt><trkpt lat="44.5421167" lon="10.8601467"><ele>110.66666666666666</ele><time>2026-04-26T16:04:23.307Z</time></trkpt><trkpt lat="44.5422733" lon="10.8600917"><ele>111.0</ele><time>2026-04-26T16:04:24.307Z</time></trkpt><trkpt lat="44.542425" lon="10.8600333"><ele>111.0</ele><time>2026-04-26T16:04:25.307Z</time></trkpt><trkpt lat="44.542575" lon="10.8599733"><ele>111.0</ele><time>2026-04-26T16:04:26.307Z</time></trkpt><trkpt lat="44.5427233" lon="10.85992"><ele>111.0</ele><time>2026-04-26T16:04:27.307Z</time></trkpt><trkpt lat="44.5428767" lon="10.8598517"><ele>110.66666666666666</ele><time>2026-04-26T16:04:28.307Z</time></trkpt><trkpt lat="44.54304" lon="10.859775"><ele>110.33333333333333</ele><time>2026-04-26T16:04:29.307Z</time></trkpt><trkpt lat="44.543215" lon="10.8596967"><ele>110.0</ele><time>2026-04-26T16:04:30.307Z</time></trkpt><trkpt lat="44.5433967" lon="10.859615"><ele>110.0</ele><time>2026-04-26T16:04:31.307Z</time></trkpt><trkpt lat="44.5435833" lon="10.85954"><ele>110.0</ele><time>2026-04-26T16:04:32.307Z</time></trkpt><trkpt lat="44.543775" lon="10.85946"><ele>110.0</ele><time>2026-04-26T16:04:33.307Z</time></trkpt><trkpt lat="44.5439667" lon="10.8593933"><ele>110.0</ele><time>2026-04-26T16:04:34.307Z</time></trkpt><trkpt lat="44.5441533" lon="10.8593283"><ele>110.0</ele><time>2026-04-26T16:04:35.307Z</time></trkpt><trkpt lat="44.5443467" lon="10.8592667"><ele>110.0</ele><time>2026-04-26T16:04:36.307Z</time></trkpt><trkpt lat="44.5445317" lon="10.859195"><ele>110.33333333333333</ele><time>2026-04-26T16:04:37.307Z</time></trkpt><trkpt lat="44.5447183" lon="10.8591267"><ele>110.66666666666666</ele><time>2026-04-26T16:04:38.307Z</time></trkpt><trkpt lat="44.5449033" lon="10.8590667"><ele>111.0</ele><time>2026-04-26T16:04:39.307Z</time></trkpt><trkpt lat="44.54509" lon="10.8589933"><ele>111.0</ele><time>2026-04-26T16:04:40.307Z</time></trkpt><trkpt lat="44.5452683" lon="10.8589133"><ele>111.0</ele><time>2026-04-26T16:04:41.307Z</time></trkpt><trkpt lat="44.5454417" lon="10.858845"><ele>111.0</ele><time>2026-04-26T16:04:42.307Z</time></trkpt><trkpt lat="44.5456167" lon="10.8587733"><ele>110.33333333333334</ele><time>2026-04-26T16:04:43.307Z</time></trkpt><trkpt lat="44.5457867" lon="10.8586983"><ele>109.66666666666667</ele><time>2026-04-26T16:04:44.307Z</time></trkpt><trkpt lat="44.5459583" lon="10.8586217"><ele>109.0</ele><time>2026-04-26T16:04:45.307Z</time></trkpt><trkpt lat="44.5461317" lon="10.858555"><ele>109.0</ele><time>2026-04-26T16:04:46.307Z</time></trkpt><trkpt lat="44.546295" lon="10.858495"><ele>109.0</ele><time>2026-04-26T16:04:47.307Z</time></trkpt><trkpt lat="44.5464417" lon="10.858435"><ele>109.0</ele><time>2026-04-26T16:04:48.307Z</time></trkpt><trkpt lat="44.54659" lon="10.8583883"><ele>108.75</ele><time>2026-04-26T16:04:49.307Z</time></trkpt><trkpt lat="44.546735" lon="10.8583433"><ele>108.5</ele><time>2026-04-26T16:04:50.307Z</time></trkpt><trkpt lat="44.5468767" lon="10.8582883"><ele>108.25</ele><time>2026-04-26T16:04:51.307Z</time></trkpt><trkpt lat="44.5470017" lon="10.85823"><ele>108.0</ele><time>2026-04-26T16:04:52.307Z</time></trkpt><trkpt lat="44.5471283" lon="10.8581767"><ele>107.5</ele><time>2026-04-26T16:04:53.307Z</time></trkpt><trkpt lat="44.5472617" lon="10.8581267"><ele>107.0</ele><time>2026-04-26T16:04:54.307Z</time></trkpt><trkpt lat="44.54739" lon="10.8580733"><ele>106.5</ele><time>2026-04-26T16:04:55.307Z</time></trkpt><trkpt lat="44.5475283" lon="10.8580267"><ele>106.0</ele><time>2026-04-26T16:04:56.307Z</time></trkpt><trkpt lat="44.5476533" lon="10.8579767"><ele>106.0</ele><time>2026-04-26T16:04:57.307Z</time></trkpt><trkpt lat="44.5477783" lon="10.85793"><ele>106.0</ele><time>2026-04-26T16:04:58.307Z</time></trkpt><trkpt lat="44.5478917" lon="10.8578867"><ele>106.0</ele><time>2026-04-26T16:04:59.308Z</time></trkpt><trkpt lat="44.547995" lon="10.8578417"><ele>106.0</ele><time>2026-04-26T16:05:00.307Z</time></trkpt><trkpt lat="44.548085" lon="10.8578033"><ele>106.0</ele><time>2026-04-26T16:05:01.308Z</time></trkpt><trkpt lat="44.5481717" lon="10.8577783"><ele>106.00000000000001</ele><time>2026-04-26T16:05:02.307Z</time></trkpt><trkpt lat="44.5482467" lon="10.857755"><ele>106.0</ele><time>2026-04-26T16:05:03.307Z</time></trkpt><trkpt lat="44.548335" lon="10.8577283"><ele>106.0</ele><time>2026-04-26T16:05:05.307Z</time></trkpt><trkpt lat="44.54842" lon="10.857735"><ele>106.0</ele><time>2026-04-26T16:05:07.307Z</time></trkpt><trkpt lat="44.548515" lon="10.8577583"><ele>106.00000000000001</ele><time>2026-04-26T16:05:09.307Z</time></trkpt><trkpt lat="44.5485983" lon="10.8577567"><ele>106.0</ele><time>2026-04-26T16:05:11.307Z</time></trkpt><trkpt lat="44.54867" lon="10.8577167"><ele>105.66666666666667</ele><time>2026-04-26T16:05:13.307Z</time></trkpt><trkpt lat="44.5487333" lon="10.8576483"><ele>105.33333333333334</ele><time>2026-04-26T16:05:15.307Z</time></trkpt><trkpt lat="44.5487817" lon="10.85757"><ele>105.0</ele><time>2026-04-26T16:05:17.307Z</time></trkpt><trkpt lat="44.5488333" lon="10.857515"><ele>104.66666666666666</ele><time>2026-04-26T16:05:19.307Z</time></trkpt><trkpt lat="44.5489117" lon="10.857475"><ele>104.33333333333333</ele><time>2026-04-26T16:05:22.307Z</time></trkpt><trkpt lat="44.5489783" lon="10.8574533"><ele>104.0</ele><time>2026-04-26T16:05:24.307Z</time></trkpt><trkpt lat="44.54911" lon="10.8573967"><ele>104.0</ele><time>2026-04-26T16:05:26.307Z</time></trkpt><trkpt lat="44.5492017" lon="10.8573633"><ele>104.0</ele><time>2026-04-26T16:05:27.307Z</time></trkpt><trkpt lat="44.5493083" lon="10.8573167"><ele>104.0</ele><time>2026-04-26T16:05:28.307Z</time></trkpt><trkpt lat="44.5494233" lon="10.8572683"><ele>104.0</ele><time>2026-04-26T16:05:29.307Z</time></trkpt><trkpt lat="44.5495367" lon="10.8572233"><ele>104.0</ele><time>2026-04-26T16:05:30.307Z</time></trkpt><trkpt lat="44.5496567" lon="10.85718"><ele>103.25</ele><time>2026-04-26T16:05:31.307Z</time></trkpt><trkpt lat="44.5497717" lon="10.8571317"><ele>102.5</ele><time>2026-04-26T16:05:32.307Z</time></trkpt><trkpt lat="44.5498867" lon="10.857085"><ele>101.75</ele><time>2026-04-26T16:05:33.307Z</time></trkpt><trkpt lat="44.5499983" lon="10.8570417"><ele>101.0</ele><time>2026-04-26T16:05:34.307Z</time></trkpt><trkpt lat="44.550115" lon="10.856995"><ele>101.0</ele><time>2026-04-26T16:05:35.307Z</time></trkpt><trkpt lat="44.55023" lon="10.85695"><ele>101.0</ele><time>2026-04-26T16:05:36.307Z</time></trkpt><trkpt lat="44.5503517" lon="10.8569067"><ele>101.0</ele><time>2026-04-26T16:05:37.307Z</time></trkpt><trkpt lat="44.550475" lon="10.8568567"><ele>101.0</ele><time>2026-04-26T16:05:38.307Z</time></trkpt><trkpt lat="44.550605" lon="10.85681"><ele>101.0</ele><time>2026-04-26T16:05:39.307Z</time></trkpt><trkpt lat="44.550735" lon="10.8567567"><ele>101.0</ele><time>2026-04-26T16:05:40.307Z</time></trkpt><trkpt lat="44.5508717" lon="10.8567033"><ele>101.0</ele><time>2026-04-26T16:05:41.307Z</time></trkpt><trkpt lat="44.5510117" lon="10.8566467"><ele>101.0</ele><time>2026-04-26T16:05:42.307Z</time></trkpt><trkpt lat="44.5511567" lon="10.8565883"><ele>100.33333333333333</ele><time>2026-04-26T16:05:43.307Z</time></trkpt><trkpt lat="44.5513067" lon="10.85653"><ele>99.66666666666666</ele><time>2026-04-26T16:05:44.307Z</time></trkpt><trkpt lat="44.5514683" lon="10.856465"><ele>99.0</ele><time>2026-04-26T16:05:45.307Z</time></trkpt><trkpt lat="44.5516267" lon="10.8564083"><ele>99.0</ele><time>2026-04-26T16:05:46.307Z</time></trkpt><trkpt lat="44.5517767" lon="10.8563533"><ele>99.0</ele><time>2026-04-26T16:05:47.307Z</time></trkpt><trkpt lat="44.5519383" lon="10.8562933"><ele>99.0</ele><time>2026-04-26T16:05:48.307Z</time></trkpt><trkpt lat="44.5520983" lon="10.8562333"><ele>98.0</ele><time>2026-04-26T16:05:49.307Z</time></trkpt><trkpt lat="44.552255" lon="10.856165"><ele>97.0</ele><time>2026-04-26T16:05:50.307Z</time></trkpt><trkpt lat="44.5524083" lon="10.8561067"><ele>96.0</ele><time>2026-04-26T16:05:51.307Z</time></trkpt><trkpt lat="44.552565" lon="10.8560417"><ele>96.0</ele><time>2026-04-26T16:05:52.307Z</time></trkpt><trkpt lat="44.55272" lon="10.8559817"><ele>96.0</ele><time>2026-04-26T16:05:53.307Z</time></trkpt><trkpt lat="44.552875" lon="10.8559183"><ele>96.0</ele><time>2026-04-26T16:05:54.307Z</time></trkpt><trkpt lat="44.5530317" lon="10.8558533"><ele>95.33333333333333</ele><time>2026-04-26T16:05:55.306Z</time></trkpt><trkpt lat="44.5531867" lon="10.85577"><ele>94.66666666666666</ele><time>2026-04-26T16:05:56.306Z</time></trkpt><trkpt lat="44.5533567" lon="10.8557033"><ele>94.0</ele><time>2026-04-26T16:05:57.306Z</time></trkpt><trkpt lat="44.5535083" lon="10.8556367"><ele>94.0</ele><time>2026-04-26T16:05:58.307Z</time></trkpt><trkpt lat="44.5536667" lon="10.8555633"><ele>94.0</ele><time>2026-04-26T16:05:59.306Z</time></trkpt><trkpt lat="44.5538283" lon="10.855495"><ele>94.0</ele><time>2026-04-26T16:06:00.306Z</time></trkpt><trkpt lat="44.5539817" lon="10.8554183"><ele>93.66666666666666</ele><time>2026-04-26T16:06:01.306Z</time></trkpt><trkpt lat="44.5541383" lon="10.8553417"><ele>93.33333333333333</ele><time>2026-04-26T16:06:02.306Z</time></trkpt><trkpt lat="44.5542883" lon="10.855275"><ele>93.0</ele><time>2026-04-26T16:06:03.306Z</time></trkpt><trkpt lat="44.5544517" lon="10.855205"><ele>93.0</ele><time>2026-04-26T16:06:04.306Z</time></trkpt><trkpt lat="44.5546333" lon="10.8551367"><ele>93.0</ele><time>2026-04-26T16:06:05.306Z</time></trkpt><trkpt lat="44.5548083" lon="10.855065"><ele>93.0</ele><time>2026-04-26T16:06:06.306Z</time></trkpt><trkpt lat="44.5549683" lon="10.855005"><ele>93.0</ele><time>2026-04-26T16:06:07.306Z</time></trkpt><trkpt lat="44.555115" lon="10.8549433"><ele>93.0</ele><time>2026-04-26T16:06:08.306Z</time></trkpt><trkpt lat="44.55526" lon="10.8548867"><ele>93.0</ele><time>2026-04-26T16:06:09.306Z</time></trkpt><trkpt lat="44.5554117" lon="10.8548283"><ele>92.66666666666667</ele><time>2026-04-26T16:06:10.306Z</time></trkpt><trkpt lat="44.5555617" lon="10.8547633"><ele>92.33333333333334</ele><time>2026-04-26T16:06:11.306Z</time></trkpt><trkpt lat="44.5557117" lon="10.8546983"><ele>92.0</ele><time>2026-04-26T16:06:12.306Z</time></trkpt><trkpt lat="44.5558817" lon="10.85462"><ele>92.0</ele><time>2026-04-26T16:06:13.307Z</time></trkpt><trkpt lat="44.5560633" lon="10.8545467"><ele>92.0</ele><time>2026-04-26T16:06:14.306Z</time></trkpt><trkpt lat="44.55624" lon="10.8544733"><ele>92.0</ele><time>2026-04-26T16:06:15.306Z</time></trkpt><trkpt lat="44.556415" lon="10.8544"><ele>92.0</ele><time>2026-04-26T16:06:16.306Z</time></trkpt><trkpt lat="44.5565983" lon="10.8543183"><ele>92.0</ele><time>2026-04-26T16:06:17.306Z</time></trkpt><trkpt lat="44.5568017" lon="10.85424"><ele>92.0</ele><time>2026-04-26T16:06:18.306Z</time></trkpt><trkpt lat="44.5569917" lon="10.8541667"><ele>92.0</ele><time>2026-04-26T16:06:19.306Z</time></trkpt><trkpt lat="44.5571817" lon="10.8540883"><ele>92.0</ele><time>2026-04-26T16:06:20.306Z</time></trkpt><trkpt lat="44.5573617" lon="10.8540133"><ele>92.0</ele><time>2026-04-26T16:06:21.306Z</time></trkpt><trkpt lat="44.5575383" lon="10.8539367"><ele>92.0</ele><time>2026-04-26T16:06:22.306Z</time></trkpt><trkpt lat="44.55771" lon="10.853865"><ele>92.0</ele><time>2026-04-26T16:06:23.306Z</time></trkpt><trkpt lat="44.5578817" lon="10.8537983"><ele>92.0</ele><time>2026-04-26T16:06:24.306Z</time></trkpt><trkpt lat="44.55805" lon="10.8537283"><ele>92.66666666666667</ele><time>2026-04-26T16:06:25.306Z</time></trkpt><trkpt lat="44.5582217" lon="10.8536533"><ele>93.33333333333333</ele><time>2026-04-26T16:06:26.306Z</time></trkpt><trkpt lat="44.5583917" lon="10.8535833"><ele>94.0</ele><time>2026-04-26T16:06:27.306Z</time></trkpt><trkpt lat="44.55856" lon="10.85351"><ele>93.33333333333333</ele><time>2026-04-26T16:06:28.306Z</time></trkpt><trkpt lat="44.5587267" lon="10.8534433"><ele>92.66666666666667</ele><time>2026-04-26T16:06:29.306Z</time></trkpt><trkpt lat="44.5588933" lon="10.85338"><ele>92.0</ele><time>2026-04-26T16:06:30.306Z</time></trkpt><trkpt lat="44.55906" lon="10.8533083"><ele>92.0</ele><time>2026-04-26T16:06:31.306Z</time></trkpt><trkpt lat="44.55922" lon="10.853245"><ele>92.0</ele><time>2026-04-26T16:06:32.306Z</time></trkpt><trkpt lat="44.5593867" lon="10.8531817"><ele>92.0</ele><time>2026-04-26T16:06:33.306Z</time></trkpt><trkpt lat="44.559545" lon="10.85312"><ele>92.66666666666667</ele><time>2026-04-26T16:06:34.306Z</time></trkpt><trkpt lat="44.5597083" lon="10.8530583"><ele>93.33333333333333</ele><time>2026-04-26T16:06:35.306Z</time></trkpt><trkpt lat="44.5598667" lon="10.8529967"><ele>94.0</ele><time>2026-04-26T16:06:36.306Z</time></trkpt><trkpt lat="44.56003" lon="10.852935"><ele>94.0</ele><time>2026-04-26T16:06:37.306Z</time></trkpt><trkpt lat="44.5601883" lon="10.8528483"><ele>94.0</ele><time>2026-04-26T16:06:38.307Z</time></trkpt><trkpt lat="44.56033" lon="10.8527883"><ele>94.0</ele><time>2026-04-26T16:06:39.306Z</time></trkpt><trkpt lat="44.560455" lon="10.8527383"><ele>94.0</ele><time>2026-04-26T16:06:40.306Z</time></trkpt><trkpt lat="44.5605633" lon="10.8526883"><ele>93.80000000000001</ele><time>2026-04-26T16:06:41.306Z</time></trkpt><trkpt lat="44.5606717" lon="10.85264"><ele>93.60000000000001</ele><time>2026-04-26T16:06:42.307Z</time></trkpt><trkpt lat="44.5607717" lon="10.852595"><ele>93.4</ele><time>2026-04-26T16:06:43.306Z</time></trkpt><trkpt lat="44.5608667" lon="10.8525717"><ele>93.2</ele><time>2026-04-26T16:06:44.306Z</time></trkpt><trkpt lat="44.5609617" lon="10.8525583"><ele>93.0</ele><time>2026-04-26T16:06:45.306Z</time></trkpt><trkpt lat="44.5610633" lon="10.8525417"><ele>93.0</ele><time>2026-04-26T16:06:46.306Z</time></trkpt><trkpt lat="44.561155" lon="10.8524917"><ele>93.0</ele><time>2026-04-26T16:06:47.306Z</time></trkpt><trkpt lat="44.56124" lon="10.852435"><ele>93.0</ele><time>2026-04-26T16:06:48.306Z</time></trkpt><trkpt lat="44.5613367" lon="10.8523833"><ele>93.0</ele><time>2026-04-26T16:06:49.306Z</time></trkpt><trkpt lat="44.561435" lon="10.8523317"><ele>93.0</ele><time>2026-04-26T16:06:50.306Z</time></trkpt><trkpt lat="44.5615417" lon="10.8522833"><ele>92.80000000000001</ele><time>2026-04-26T16:06:51.306Z</time></trkpt><trkpt lat="44.5616433" lon="10.85224"><ele>92.6</ele><time>2026-04-26T16:06:52.306Z</time></trkpt><trkpt lat="44.5617417" lon="10.8522017"><ele>92.4</ele><time>2026-04-26T16:06:53.307Z</time></trkpt><trkpt lat="44.5618433" lon="10.8521683"><ele>92.19999999999999</ele><time>2026-04-26T16:06:54.306Z</time></trkpt><trkpt lat="44.5619467" lon="10.8521283"><ele>92.0</ele><time>2026-04-26T16:06:55.306Z</time></trkpt><trkpt lat="44.5620533" lon="10.8520883"><ele>92.0</ele><time>2026-04-26T16:06:56.306Z</time></trkpt><trkpt lat="44.562165" lon="10.8520467"><ele>92.0</ele><time>2026-04-26T16:06:57.306Z</time></trkpt><trkpt lat="44.5622683" lon="10.852005"><ele>92.0</ele><time>2026-04-26T16:06:58.306Z</time></trkpt><trkpt lat="44.5623733" lon="10.851965"><ele>92.0</ele><time>2026-04-26T16:06:59.306Z</time></trkpt><trkpt lat="44.5624783" lon="10.85192"><ele>92.0</ele><time>2026-04-26T16:07:00.306Z</time></trkpt><trkpt lat="44.562585" lon="10.8518767"><ele>92.0</ele><time>2026-04-26T16:07:01.306Z</time></trkpt><trkpt lat="44.5626883" lon="10.851835"><ele>92.0</ele><time>2026-04-26T16:07:02.306Z</time></trkpt><trkpt lat="44.5627967" lon="10.85179"><ele>92.0</ele><time>2026-04-26T16:07:03.306Z</time></trkpt><trkpt lat="44.56291" lon="10.8517433"><ele>92.0</ele><time>2026-04-26T16:07:04.306Z</time></trkpt><trkpt lat="44.5630183" lon="10.8516967"><ele>91.8</ele><time>2026-04-26T16:07:05.306Z</time></trkpt><trkpt lat="44.5631233" lon="10.8516567"><ele>91.6</ele><time>2026-04-26T16:07:06.306Z</time></trkpt><trkpt lat="44.56322" lon="10.8516167"><ele>91.39999999999999</ele><time>2026-04-26T16:07:07.306Z</time></trkpt><trkpt lat="44.5633117" lon="10.8515833"><ele>91.19999999999999</ele><time>2026-04-26T16:07:08.306Z</time></trkpt><trkpt lat="44.5634" lon="10.85155"><ele>91.0</ele><time>2026-04-26T16:07:09.306Z</time></trkpt><trkpt lat="44.563485" lon="10.851515"><ele>91.0</ele><time>2026-04-26T16:07:10.306Z</time></trkpt><trkpt lat="44.56357" lon="10.8514817"><ele>91.0</ele><time>2026-04-26T16:07:11.306Z</time></trkpt><trkpt lat="44.5636567" lon="10.8514467"><ele>91.0</ele><time>2026-04-26T16:07:12.306Z</time></trkpt><trkpt lat="44.5637433" lon="10.851415"><ele>91.0</ele><time>2026-04-26T16:07:13.306Z</time></trkpt><trkpt lat="44.5638167" lon="10.8513817"><ele>91.0</ele><time>2026-04-26T16:07:14.307Z</time></trkpt><trkpt lat="44.563885" lon="10.8513533"><ele>91.0</ele><time>2026-04-26T16:07:15.306Z</time></trkpt><trkpt lat="44.5639567" lon="10.851325"><ele>91.0</ele><time>2026-04-26T16:07:16.306Z</time></trkpt><trkpt lat="44.5640283" lon="10.8512967"><ele>91.0</ele><time>2026-04-26T16:07:17.306Z</time></trkpt><trkpt lat="44.564095" lon="10.8512633"><ele>91.0</ele><time>2026-04-26T16:07:18.306Z</time></trkpt><trkpt lat="44.5641583" lon="10.8512333"><ele>91.0</ele><time>2026-04-26T16:07:19.306Z</time></trkpt><trkpt lat="44.5642233" lon="10.8512067"><ele>91.0</ele><time>2026-04-26T16:07:20.306Z</time></trkpt><trkpt lat="44.5642917" lon="10.851185"><ele>91.0</ele><time>2026-04-26T16:07:21.306Z</time></trkpt><trkpt lat="44.5643783" lon="10.8511567"><ele>91.0</ele><time>2026-04-26T16:07:22.306Z</time></trkpt><trkpt lat="44.5644617" lon="10.8511233"><ele>90.66666666666666</ele><time>2026-04-26T16:07:23.306Z</time></trkpt><trkpt lat="44.564535" lon="10.8510933"><ele>90.33333333333333</ele><time>2026-04-26T16:07:24.306Z</time></trkpt><trkpt lat="44.5646067" lon="10.8510633"><ele>90.0</ele><time>2026-04-26T16:07:25.306Z</time></trkpt><trkpt lat="44.5646683" lon="10.851025"><ele>89.66666666666667</ele><time>2026-04-26T16:07:26.306Z</time></trkpt><trkpt lat="44.56473" lon="10.8509867"><ele>89.33333333333334</ele><time>2026-04-26T16:07:27.306Z</time></trkpt><trkpt lat="44.564805" lon="10.85095"><ele>89.0</ele><time>2026-04-26T16:07:28.306Z</time></trkpt><trkpt lat="44.5648867" lon="10.8509117"><ele>89.0</ele><time>2026-04-26T16:07:29.306Z</time></trkpt><trkpt lat="44.565" lon="10.8508717"><ele>89.0</ele><time>2026-04-26T16:07:30.306Z</time></trkpt><trkpt lat="44.5651217" lon="10.8508283"><ele>89.0</ele><time>2026-04-26T16:07:31.306Z</time></trkpt><trkpt lat="44.5652517" lon="10.8507833"><ele>89.0</ele><time>2026-04-26T16:07:32.306Z</time></trkpt><trkpt lat="44.565395" lon="10.8507317"><ele>88.66666666666667</ele><time>2026-04-26T16:07:33.307Z</time></trkpt><trkpt lat="44.56554" lon="10.8506683"><ele>88.33333333333333</ele><time>2026-04-26T16:07:34.306Z</time></trkpt><trkpt lat="44.5657" lon="10.8505933"><ele>88.0</ele><time>2026-04-26T16:07:35.306Z</time></trkpt><trkpt lat="44.5658617" lon="10.8505217"><ele>88.0</ele><time>2026-04-26T16:07:36.306Z</time></trkpt><trkpt lat="44.566025" lon="10.85045"><ele>88.0</ele><time>2026-04-26T16:07:37.306Z</time></trkpt><trkpt lat="44.5661917" lon="10.8503767"><ele>88.0</ele><time>2026-04-26T16:07:38.306Z</time></trkpt><trkpt lat="44.5663533" lon="10.8503167"><ele>88.0</ele><time>2026-04-26T16:07:39.306Z</time></trkpt><trkpt lat="44.5665067" lon="10.8502617"><ele>88.0</ele><time>2026-04-26T16:07:40.306Z</time></trkpt><trkpt lat="44.5666683" lon="10.8502067"><ele>88.0</ele><time>2026-04-26T16:07:41.306Z</time></trkpt><trkpt lat="44.5668317" lon="10.850145"><ele>88.0</ele><time>2026-04-26T16:07:42.306Z</time></trkpt><trkpt lat="44.5669883" lon="10.8500817"><ele>88.0</ele><time>2026-04-26T16:07:43.306Z</time></trkpt><trkpt lat="44.567145" lon="10.8500117"><ele>88.0</ele><time>2026-04-26T16:07:44.306Z</time></trkpt><trkpt lat="44.56729" lon="10.8499467"><ele>88.0</ele><time>2026-04-26T16:07:45.306Z</time></trkpt><trkpt lat="44.5674383" lon="10.849875"><ele>88.0</ele><time>2026-04-26T16:07:46.306Z</time></trkpt><trkpt lat="44.5675917" lon="10.8498167"><ele>88.0</ele><time>2026-04-26T16:07:47.306Z</time></trkpt><trkpt lat="44.5677417" lon="10.84976"><ele>87.33333333333333</ele><time>2026-04-26T16:07:48.306Z</time></trkpt><trkpt lat="44.5678917" lon="10.8497083"><ele>86.66666666666667</ele><time>2026-04-26T16:07:49.306Z</time></trkpt><trkpt lat="44.5680417" lon="10.8496533"><ele>86.0</ele><time>2026-04-26T16:07:50.306Z</time></trkpt><trkpt lat="44.5681867" lon="10.8495883"><ele>86.0</ele><time>2026-04-26T16:07:51.306Z</time></trkpt><trkpt lat="44.5683367" lon="10.8495267"><ele>86.0</ele><time>2026-04-26T16:07:52.306Z</time></trkpt><trkpt lat="44.56848" lon="10.849465"><ele>86.0</ele><time>2026-04-26T16:07:53.306Z</time></trkpt><trkpt lat="44.56862" lon="10.8494117"><ele>85.75</ele><time>2026-04-26T16:07:54.306Z</time></trkpt><trkpt lat="44.5687467" lon="10.84937"><ele>85.5</ele><time>2026-04-26T16:07:55.306Z</time></trkpt><trkpt lat="44.568865" lon="10.8493217"><ele>85.25</ele><time>2026-04-26T16:07:56.306Z</time></trkpt><trkpt lat="44.5689767" lon="10.84927"><ele>85.0</ele><time>2026-04-26T16:07:57.306Z</time></trkpt><trkpt lat="44.5690917" lon="10.8492217"><ele>85.0</ele><time>2026-04-26T16:07:58.306Z</time></trkpt><trkpt lat="44.5692183" lon="10.8491617"><ele>85.0</ele><time>2026-04-26T16:07:59.306Z</time></trkpt><trkpt lat="44.5693433" lon="10.8491017"><ele>85.0</ele><time>2026-04-26T16:08:00.306Z</time></trkpt><trkpt lat="44.5694883" lon="10.84905"><ele>85.0</ele><time>2026-04-26T16:08:01.307Z</time></trkpt><trkpt lat="44.5696183" lon="10.848995"><ele>84.75</ele><time>2026-04-26T16:08:02.306Z</time></trkpt><trkpt lat="44.56974" lon="10.84895"><ele>84.5</ele><time>2026-04-26T16:08:03.306Z</time></trkpt><trkpt lat="44.5698717" lon="10.848905"><ele>84.25</ele><time>2026-04-26T16:08:04.306Z</time></trkpt><trkpt lat="44.5699967" lon="10.8488617"><ele>84.0</ele><time>2026-04-26T16:08:05.306Z</time></trkpt><trkpt lat="44.570105" lon="10.8488083"><ele>84.0</ele><time>2026-04-26T16:08:06.306Z</time></trkpt><trkpt lat="44.5702333" lon="10.8487567"><ele>84.0</ele><time>2026-04-26T16:08:07.306Z</time></trkpt><trkpt lat="44.5703733" lon="10.8487067"><ele>84.0</ele><time>2026-04-26T16:08:08.306Z</time></trkpt><trkpt lat="44.570525" lon="10.8486367"><ele>84.0</ele><time>2026-04-26T16:08:09.306Z</time></trkpt><trkpt lat="44.5706733" lon="10.84858"><ele>84.0</ele><time>2026-04-26T16:08:10.306Z</time></trkpt><trkpt lat="44.5708117" lon="10.8485317"><ele>84.0</ele><time>2026-04-26T16:08:11.306Z</time></trkpt><trkpt lat="44.5709433" lon="10.848485"><ele>84.0</ele><time>2026-04-26T16:08:12.306Z</time></trkpt><trkpt lat="44.57107" lon="10.8484317"><ele>84.0</ele><time>2026-04-26T16:08:13.306Z</time></trkpt><trkpt lat="44.5711883" lon="10.8483817"><ele>83.25</ele><time>2026-04-26T16:08:14.306Z</time></trkpt><trkpt lat="44.5713067" lon="10.8483267"><ele>82.5</ele><time>2026-04-26T16:08:15.306Z</time></trkpt><trkpt lat="44.571435" lon="10.8482717"><ele>81.75</ele><time>2026-04-26T16:08:16.306Z</time></trkpt><trkpt lat="44.57156" lon="10.8482183"><ele>81.0</ele><time>2026-04-26T16:08:17.306Z</time></trkpt><trkpt lat="44.5716833" lon="10.8481683"><ele>81.0</ele><time>2026-04-26T16:08:18.306Z</time></trkpt><trkpt lat="44.5717967" lon="10.8481233"><ele>81.0</ele><time>2026-04-26T16:08:19.306Z</time></trkpt><trkpt lat="44.5719033" lon="10.8480783"><ele>81.0</ele><time>2026-04-26T16:08:20.306Z</time></trkpt><trkpt lat="44.5719933" lon="10.8480383"><ele>81.0</ele><time>2026-04-26T16:08:21.306Z</time></trkpt><trkpt lat="44.5720633" lon="10.8480083"><ele>81.0</ele><time>2026-04-26T16:08:22.306Z</time></trkpt><trkpt lat="44.5721367" lon="10.8479817"><ele>81.0</ele><time>2026-04-26T16:08:24.306Z</time></trkpt><trkpt lat="44.5722267" lon="10.8479767"><ele>81.0</ele><time>2026-04-26T16:08:50.305Z</time></trkpt><trkpt lat="44.5723" lon="10.8479267"><ele>81.0</ele><time>2026-04-26T16:08:52.305Z</time></trkpt><trkpt lat="44.5724083" lon="10.8478867"><ele>81.0</ele><time>2026-04-26T16:08:54.305Z</time></trkpt><trkpt lat="44.5724983" lon="10.8478733"><ele>81.0</ele><time>2026-04-26T16:08:56.305Z</time></trkpt><trkpt lat="44.57259" lon="10.8478917"><ele>81.0</ele><time>2026-04-26T16:08:58.305Z</time></trkpt><trkpt lat="44.57265" lon="10.8479217"><ele>81.0</ele><time>2026-04-26T16:08:59.305Z</time></trkpt><trkpt lat="44.57278" lon="10.8479217"><ele>81.0</ele><time>2026-04-26T16:09:01.305Z</time></trkpt><trkpt lat="44.5728433" lon="10.84789"><ele>81.0</ele><time>2026-04-26T16:09:02.305Z</time></trkpt><trkpt lat="44.5729033" lon="10.8478417"><ele>81.0</ele><time>2026-04-26T16:09:03.305Z</time></trkpt><trkpt lat="44.57297" lon="10.847795"><ele>81.0</ele><time>2026-04-26T16:09:04.305Z</time></trkpt><trkpt lat="44.573045" lon="10.84777"><ele>80.8</ele><time>2026-04-26T16:09:05.305Z</time></trkpt><trkpt lat="44.57312" lon="10.847775"><ele>80.6</ele><time>2026-04-26T16:09:06.305Z</time></trkpt><trkpt lat="44.5732083" lon="10.8478017"><ele>80.4</ele><time>2026-04-26T16:09:07.305Z</time></trkpt><trkpt lat="44.5733033" lon="10.84783"><ele>80.2</ele><time>2026-04-26T16:09:08.305Z</time></trkpt><trkpt lat="44.573405" lon="10.847865"><ele>80.0</ele><time>2026-04-26T16:09:09.305Z</time></trkpt><trkpt lat="44.5734983" lon="10.847905"><ele>80.0</ele><time>2026-04-26T16:09:10.305Z</time></trkpt><trkpt lat="44.5736067" lon="10.8479733"><ele>80.0</ele><time>2026-04-26T16:09:11.305Z</time></trkpt><trkpt lat="44.5737067" lon="10.8480283"><ele>80.0</ele><time>2026-04-26T16:09:12.305Z</time></trkpt><trkpt lat="44.57383" lon="10.8480883"><ele>80.0</ele><time>2026-04-26T16:09:13.305Z</time></trkpt><trkpt lat="44.5739567" lon="10.848135"><ele>80.25</ele><time>2026-04-26T16:09:14.305Z</time></trkpt><trkpt lat="44.574085" lon="10.84816"><ele>80.5</ele><time>2026-04-26T16:09:15.305Z</time></trkpt><trkpt lat="44.5742333" lon="10.8481783"><ele>80.75</ele><time>2026-04-26T16:09:16.305Z</time></trkpt><trkpt lat="44.574385" lon="10.8481883"><ele>81.0</ele><time>2026-04-26T16:09:17.305Z</time></trkpt><trkpt lat="44.5745283" lon="10.8481983"><ele>81.5</ele><time>2026-04-26T16:09:18.305Z</time></trkpt><trkpt lat="44.574655" lon="10.8481983"><ele>82.0</ele><time>2026-04-26T16:09:19.305Z</time></trkpt><trkpt lat="44.5747883" lon="10.8481967"><ele>82.5</ele><time>2026-04-26T16:09:20.305Z</time></trkpt><trkpt lat="44.5749017" lon="10.8481767"><ele>83.0</ele><time>2026-04-26T16:09:21.305Z</time></trkpt><trkpt lat="44.5750267" lon="10.8481817"><ele>83.0</ele><time>2026-04-26T16:09:22.305Z</time></trkpt><trkpt lat="44.575145" lon="10.8482033"><ele>83.0</ele><time>2026-04-26T16:09:23.305Z</time></trkpt><trkpt lat="44.575275" lon="10.8482283"><ele>83.0</ele><time>2026-04-26T16:09:24.305Z</time></trkpt><trkpt lat="44.575395" lon="10.848235"><ele>83.0</ele><time>2026-04-26T16:09:25.305Z</time></trkpt><trkpt lat="44.575495" lon="10.8482417"><ele>82.60000000000001</ele><time>2026-04-26T16:09:26.305Z</time></trkpt><trkpt lat="44.5755833" lon="10.848255"><ele>82.2</ele><time>2026-04-26T16:09:27.305Z</time></trkpt><trkpt lat="44.5756783" lon="10.848265"><ele>81.8</ele><time>2026-04-26T16:09:28.305Z</time></trkpt><trkpt lat="44.575785" lon="10.8482817"><ele>81.4</ele><time>2026-04-26T16:09:29.305Z</time></trkpt><trkpt lat="44.57591" lon="10.8483017"><ele>81.0</ele><time>2026-04-26T16:09:30.305Z</time></trkpt><trkpt lat="44.576045" lon="10.8483417"><ele>81.25</ele><time>2026-04-26T16:09:31.305Z</time></trkpt><trkpt lat="44.5761983" lon="10.8484"><ele>81.5</ele><time>2026-04-26T16:09:32.305Z</time></trkpt><trkpt lat="44.57634" lon="10.8484567"><ele>81.75</ele><time>2026-04-26T16:09:33.305Z</time></trkpt><trkpt lat="44.5764783" lon="10.848505"><ele>82.0</ele><time>2026-04-26T16:09:34.305Z</time></trkpt><trkpt lat="44.5766067" lon="10.84855"><ele>81.5</ele><time>2026-04-26T16:09:35.305Z</time></trkpt><trkpt lat="44.5767317" lon="10.8485983"><ele>81.0</ele><time>2026-04-26T16:09:36.305Z</time></trkpt><trkpt lat="44.5768467" lon="10.848645"><ele>80.5</ele><time>2026-04-26T16:09:37.305Z</time></trkpt><trkpt lat="44.5769533" lon="10.8486933"><ele>80.0</ele><time>2026-04-26T16:09:38.305Z</time></trkpt><trkpt lat="44.577045" lon="10.8487283"><ele>80.0</ele><time>2026-04-26T16:09:39.305Z</time></trkpt><trkpt lat="44.5771467" lon="10.848765"><ele>80.0</ele><time>2026-04-26T16:09:40.305Z</time></trkpt><trkpt lat="44.577255" lon="10.8487883"><ele>80.0</ele><time>2026-04-26T16:09:41.305Z</time></trkpt><trkpt lat="44.5773567" lon="10.84881"><ele>80.0</ele><time>2026-04-26T16:09:42.305Z</time></trkpt><trkpt lat="44.5774367" lon="10.8488183"><ele>80.0</ele><time>2026-04-26T16:09:43.305Z</time></trkpt><trkpt lat="44.57754" lon="10.8488267"><ele>80.0</ele><time>2026-04-26T16:09:45.305Z</time></trkpt><trkpt lat="44.5776033" lon="10.8488317"><ele>80.0</ele><time>2026-04-26T16:09:47.305Z</time></trkpt><trkpt lat="44.5776817" lon="10.848855"><ele>80.0</ele><time>2026-04-26T16:09:49.305Z</time></trkpt><trkpt lat="44.5777633" lon="10.8488717"><ele>80.0</ele><time>2026-04-26T16:09:51.305Z</time></trkpt><trkpt lat="44.5778733" lon="10.848895"><ele>80.0</ele><time>2026-04-26T16:09:53.305Z</time></trkpt><trkpt lat="44.5779417" lon="10.8489"><ele>80.0</ele><time>2026-04-26T16:09:54.305Z</time></trkpt><trkpt lat="44.5780217" lon="10.8489083"><ele>80.0</ele><time>2026-04-26T16:09:55.305Z</time></trkpt><trkpt lat="44.57811" lon="10.8489183"><ele>80.0</ele><time>2026-04-26T16:09:56.305Z</time></trkpt><trkpt lat="44.5782" lon="10.848935"><ele>80.0</ele><time>2026-04-26T16:09:57.305Z</time></trkpt><trkpt lat="44.5782933" lon="10.848955"><ele>80.0</ele><time>2026-04-26T16:09:58.305Z</time></trkpt><trkpt lat="44.578385" lon="10.8489817"><ele>80.0</ele><time>2026-04-26T16:09:59.305Z</time></trkpt><trkpt lat="44.5784817" lon="10.8490117"><ele>80.0</ele><time>2026-04-26T16:10:00.305Z</time></trkpt><trkpt lat="44.5785733" lon="10.8490383"><ele>80.0</ele><time>2026-04-26T16:10:01.305Z</time></trkpt><trkpt lat="44.5786583" lon="10.8490583"><ele>80.0</ele><time>2026-04-26T16:10:02.305Z</time></trkpt><trkpt lat="44.57873" lon="10.849075"><ele>80.0</ele><time>2026-04-26T16:10:03.305Z</time></trkpt><trkpt lat="44.57881" lon="10.84909"><ele>80.0</ele><time>2026-04-26T16:10:05.305Z</time></trkpt><trkpt lat="44.57888" lon="10.849095"><ele>80.0</ele><time>2026-04-26T16:10:08.306Z</time></trkpt><trkpt lat="44.5789917" lon="10.8491317"><ele>80.0</ele><time>2026-04-26T16:10:10.305Z</time></trkpt><trkpt lat="44.57907" lon="10.84916"><ele>80.0</ele><time>2026-04-26T16:10:11.305Z</time></trkpt><trkpt lat="44.5791567" lon="10.8491917"><ele>80.0</ele><time>2026-04-26T16:10:12.305Z</time></trkpt><trkpt lat="44.5792567" lon="10.84922"><ele>80.0</ele><time>2026-04-26T16:10:13.305Z</time></trkpt><trkpt lat="44.57937" lon="10.8492567"><ele>80.0</ele><time>2026-04-26T16:10:14.305Z</time></trkpt><trkpt lat="44.57948" lon="10.8492933"><ele>79.6</ele><time>2026-04-26T16:10:15.305Z</time></trkpt><trkpt lat="44.57959" lon="10.8493267"><ele>79.2</ele><time>2026-04-26T16:10:16.305Z</time></trkpt><trkpt lat="44.5796933" lon="10.8493617"><ele>78.8</ele><time>2026-04-26T16:10:17.305Z</time></trkpt><trkpt lat="44.5797833" lon="10.849405"><ele>78.4</ele><time>2026-04-26T16:10:18.305Z</time></trkpt><trkpt lat="44.579865" lon="10.8494567"><ele>78.0</ele><time>2026-04-26T16:10:19.305Z</time></trkpt><trkpt lat="44.579945" lon="10.84951"><ele>78.0</ele><time>2026-04-26T16:10:20.305Z</time></trkpt><trkpt lat="44.5800267" lon="10.8495533"><ele>78.0</ele><time>2026-04-26T16:10:21.305Z</time></trkpt><trkpt lat="44.5801083" lon="10.8495683"><ele>78.0</ele><time>2026-04-26T16:10:22.305Z</time></trkpt><trkpt lat="44.5802067" lon="10.8495667"><ele>78.0</ele><time>2026-04-26T16:10:23.305Z</time></trkpt><trkpt lat="44.5803167" lon="10.8495717"><ele>78.0</ele><time>2026-04-26T16:10:24.305Z</time></trkpt><trkpt lat="44.5804317" lon="10.84959"><ele>77.5</ele><time>2026-04-26T16:10:25.305Z</time></trkpt><trkpt lat="44.5805583" lon="10.8496267"><ele>77.0</ele><time>2026-04-26T16:10:26.305Z</time></trkpt><trkpt lat="44.58068" lon="10.8496683"><ele>76.5</ele><time>2026-04-26T16:10:27.305Z</time></trkpt><trkpt lat="44.58081" lon="10.849715"><ele>76.0</ele><time>2026-04-26T16:10:28.306Z</time></trkpt><trkpt lat="44.5809383" lon="10.849765"><ele>76.0</ele><time>2026-04-26T16:10:29.305Z</time></trkpt><trkpt lat="44.5810633" lon="10.849825"><ele>76.0</ele><time>2026-04-26T16:10:30.305Z</time></trkpt><trkpt lat="44.5811933" lon="10.8498917"><ele>76.0</ele><time>2026-04-26T16:10:31.305Z</time></trkpt><trkpt lat="44.581325" lon="10.84996"><ele>76.0</ele><time>2026-04-26T16:10:32.305Z</time></trkpt><trkpt lat="44.5814567" lon="10.850045"><ele>75.75</ele><time>2026-04-26T16:10:33.305Z</time></trkpt><trkpt lat="44.5815817" lon="10.8501233"><ele>75.5</ele><time>2026-04-26T16:10:34.305Z</time></trkpt><trkpt lat="44.5817117" lon="10.8501983"><ele>75.25</ele><time>2026-04-26T16:10:35.305Z</time></trkpt><trkpt lat="44.5818367" lon="10.85026"><ele>75.0</ele><time>2026-04-26T16:10:36.305Z</time></trkpt><trkpt lat="44.58197" lon="10.8503117"><ele>74.25</ele><time>2026-04-26T16:10:37.305Z</time></trkpt><trkpt lat="44.5820983" lon="10.8503833"><ele>73.5</ele><time>2026-04-26T16:10:38.305Z</time></trkpt><trkpt lat="44.58222" lon="10.8504483"><ele>72.75</ele><time>2026-04-26T16:10:39.305Z</time></trkpt><trkpt lat="44.5823383" lon="10.8505117"><ele>72.0</ele><time>2026-04-26T16:10:40.305Z</time></trkpt><trkpt lat="44.58245" lon="10.8505683"><ele>72.0</ele><time>2026-04-26T16:10:41.305Z</time></trkpt><trkpt lat="44.5825533" lon="10.8506233"><ele>72.0</ele><time>2026-04-26T16:10:42.305Z</time></trkpt><trkpt lat="44.5826483" lon="10.8506767"><ele>72.0</ele><time>2026-04-26T16:10:43.305Z</time></trkpt><trkpt lat="44.5827483" lon="10.8507283"><ele>72.0</ele><time>2026-04-26T16:10:44.306Z</time></trkpt><trkpt lat="44.5828517" lon="10.85078"><ele>72.0</ele><time>2026-04-26T16:10:45.305Z</time></trkpt><trkpt lat="44.5829583" lon="10.8508283"><ele>72.25</ele><time>2026-04-26T16:10:46.305Z</time></trkpt><trkpt lat="44.58307" lon="10.85088"><ele>72.5</ele><time>2026-04-26T16:10:47.305Z</time></trkpt><trkpt lat="44.5831883" lon="10.850935"><ele>72.75</ele><time>2026-04-26T16:10:48.305Z</time></trkpt><trkpt lat="44.5832917" lon="10.8510033"><ele>73.0</ele><time>2026-04-26T16:10:49.305Z</time></trkpt><trkpt lat="44.5834017" lon="10.851065"><ele>73.0</ele><time>2026-04-26T16:10:50.305Z</time></trkpt><trkpt lat="44.5835167" lon="10.8511233"><ele>73.0</ele><time>2026-04-26T16:10:51.305Z</time></trkpt><trkpt lat="44.5836383" lon="10.8511833"><ele>73.0</ele><time>2026-04-26T16:10:52.305Z</time></trkpt><trkpt lat="44.5837683" lon="10.8512483"><ele>73.0</ele><time>2026-04-26T16:10:53.305Z</time></trkpt><trkpt lat="44.5839117" lon="10.8513167"><ele>72.66666666666666</ele><time>2026-04-26T16:10:54.305Z</time></trkpt><trkpt lat="44.5840633" lon="10.8513817"><ele>72.33333333333333</ele><time>2026-04-26T16:10:55.305Z</time></trkpt><trkpt lat="44.5842083" lon="10.85145"><ele>72.0</ele><time>2026-04-26T16:10:56.306Z</time></trkpt><trkpt lat="44.5843733" lon="10.8515233"><ele>71.0</ele><time>2026-04-26T16:10:57.305Z</time></trkpt><trkpt lat="44.584545" lon="10.851605"><ele>70.0</ele><time>2026-04-26T16:10:58.305Z</time></trkpt><trkpt lat="44.5847267" lon="10.85169"><ele>69.0</ele><time>2026-04-26T16:10:59.305Z</time></trkpt><trkpt lat="44.584915" lon="10.8517817"><ele>69.0</ele><time>2026-04-26T16:11:00.304Z</time></trkpt><trkpt lat="44.5851" lon="10.8518817"><ele>69.0</ele><time>2026-04-26T16:11:01.304Z</time></trkpt><trkpt lat="44.5852817" lon="10.85199"><ele>69.0</ele><time>2026-04-26T16:11:02.304Z</time></trkpt><trkpt lat="44.585455" lon="10.8521033"><ele>69.0</ele><time>2026-04-26T16:11:03.304Z</time></trkpt><trkpt lat="44.58562" lon="10.8522183"><ele>69.0</ele><time>2026-04-26T16:11:04.304Z</time></trkpt><trkpt lat="44.585805" lon="10.8523433"><ele>69.0</ele><time>2026-04-26T16:11:05.304Z</time></trkpt><trkpt lat="44.5859817" lon="10.8524717"><ele>69.0</ele><time>2026-04-26T16:11:06.304Z</time></trkpt><trkpt lat="44.58616" lon="10.8525867"><ele>69.0</ele><time>2026-04-26T16:11:07.304Z</time></trkpt><trkpt lat="44.58634" lon="10.8527"><ele>69.0</ele><time>2026-04-26T16:11:08.304Z</time></trkpt><trkpt lat="44.58652" lon="10.8528117"><ele>69.33333333333333</ele><time>2026-04-26T16:11:09.304Z</time></trkpt><trkpt lat="44.5867" lon="10.8529233"><ele>69.66666666666666</ele><time>2026-04-26T16:11:10.304Z</time></trkpt><trkpt lat="44.5868833" lon="10.8530317"><ele>70.0</ele><time>2026-04-26T16:11:11.304Z</time></trkpt><trkpt lat="44.5870617" lon="10.8531317"><ele>70.0</ele><time>2026-04-26T16:11:12.304Z</time></trkpt><trkpt lat="44.58724" lon="10.853235"><ele>70.0</ele><time>2026-04-26T16:11:13.304Z</time></trkpt><trkpt lat="44.5874133" lon="10.8533267"><ele>70.0</ele><time>2026-04-26T16:11:14.304Z</time></trkpt><trkpt lat="44.5875967" lon="10.8534183"><ele>70.66666666666666</ele><time>2026-04-26T16:11:15.304Z</time></trkpt><trkpt lat="44.58777" lon="10.853515"><ele>71.33333333333333</ele><time>2026-04-26T16:11:16.304Z</time></trkpt><trkpt lat="44.5879483" lon="10.8535933"><ele>72.0</ele><time>2026-04-26T16:11:17.305Z</time></trkpt><trkpt lat="44.5881333" lon="10.8536833"><ele>72.33333333333333</ele><time>2026-04-26T16:11:18.304Z</time></trkpt><trkpt lat="44.5883083" lon="10.853775"><ele>72.66666666666666</ele><time>2026-04-26T16:11:19.304Z</time></trkpt><trkpt lat="44.5884817" lon="10.853855"><ele>73.0</ele><time>2026-04-26T16:11:20.304Z</time></trkpt><trkpt lat="44.5886567" lon="10.85393"><ele>71.33333333333333</ele><time>2026-04-26T16:11:21.304Z</time></trkpt><trkpt lat="44.5888333" lon="10.8539967"><ele>69.66666666666667</ele><time>2026-04-26T16:11:22.304Z</time></trkpt><trkpt lat="44.589005" lon="10.8540533"><ele>68.0</ele><time>2026-04-26T16:11:23.304Z</time></trkpt><trkpt lat="44.5891883" lon="10.8541133"><ele>68.0</ele><time>2026-04-26T16:11:24.304Z</time></trkpt><trkpt lat="44.5893683" lon="10.8541767"><ele>68.0</ele><time>2026-04-26T16:11:25.304Z</time></trkpt><trkpt lat="44.5895433" lon="10.8542283"><ele>68.0</ele><time>2026-04-26T16:11:26.304Z</time></trkpt><trkpt lat="44.5897033" lon="10.8542833"><ele>68.33333333333334</ele><time>2026-04-26T16:11:27.304Z</time></trkpt><trkpt lat="44.58986" lon="10.8543433"><ele>68.66666666666667</ele><time>2026-04-26T16:11:28.304Z</time></trkpt><trkpt lat="44.5900067" lon="10.854395"><ele>69.0</ele><time>2026-04-26T16:11:29.304Z</time></trkpt><trkpt lat="44.5901567" lon="10.8544583"><ele>69.0</ele><time>2026-04-26T16:11:30.304Z</time></trkpt><trkpt lat="44.59031" lon="10.8545217"><ele>69.0</ele><time>2026-04-26T16:11:31.304Z</time></trkpt><trkpt lat="44.590455" lon="10.8545783"><ele>69.0</ele><time>2026-04-26T16:11:32.304Z</time></trkpt><trkpt lat="44.5905967" lon="10.8546167"><ele>68.25</ele><time>2026-04-26T16:11:33.304Z</time></trkpt><trkpt lat="44.5907233" lon="10.854655"><ele>67.5</ele><time>2026-04-26T16:11:34.304Z</time></trkpt><trkpt lat="44.59084" lon="10.8546967"><ele>66.75</ele><time>2026-04-26T16:11:35.304Z</time></trkpt><trkpt lat="44.5909483" lon="10.8547433"><ele>66.0</ele><time>2026-04-26T16:11:36.304Z</time></trkpt><trkpt lat="44.5910383" lon="10.85479"><ele>66.0</ele><time>2026-04-26T16:11:37.304Z</time></trkpt><trkpt lat="44.59112" lon="10.854845"><ele>66.0</ele><time>2026-04-26T16:11:38.304Z</time></trkpt><trkpt lat="44.5911883" lon="10.8548967"><ele>66.0</ele><time>2026-04-26T16:11:39.304Z</time></trkpt><trkpt lat="44.59125" lon="10.8549483"><ele>66.0</ele><time>2026-04-26T16:11:40.304Z</time></trkpt><trkpt lat="44.591345" lon="10.8550333"><ele>66.0</ele><time>2026-04-26T16:11:42.304Z</time></trkpt><trkpt lat="44.5914133" lon="10.8550783"><ele>66.0</ele><time>2026-04-26T16:11:44.304Z</time></trkpt><trkpt lat="44.5914933" lon="10.8550933"><ele>66.16666666666667</ele><time>2026-04-26T16:11:46.304Z</time></trkpt><trkpt lat="44.59161" lon="10.855145"><ele>66.33333333333333</ele><time>2026-04-26T16:11:48.304Z</time></trkpt><trkpt lat="44.5916667" lon="10.8552"><ele>66.5</ele><time>2026-04-26T16:11:49.304Z</time></trkpt><trkpt lat="44.5917233" lon="10.8552617"><ele>66.66666666666666</ele><time>2026-04-26T16:11:50.304Z</time></trkpt><trkpt lat="44.5917817" lon="10.855315"><ele>66.83333333333333</ele><time>2026-04-26T16:11:51.304Z</time></trkpt><trkpt lat="44.59184" lon="10.8553683"><ele>67.0</ele><time>2026-04-26T16:11:52.304Z</time></trkpt><trkpt lat="44.5919017" lon="10.8554217"><ele>67.0</ele><time>2026-04-26T16:11:53.304Z</time></trkpt><trkpt lat="44.59197" lon="10.85548"><ele>67.0</ele><time>2026-04-26T16:11:54.304Z</time></trkpt><trkpt lat="44.5920517" lon="10.85555"><ele>67.0</ele><time>2026-04-26T16:11:55.304Z</time></trkpt><trkpt lat="44.5921417" lon="10.855625"><ele>67.0</ele><time>2026-04-26T16:11:56.304Z</time></trkpt><trkpt lat="44.59223" lon="10.8556933"><ele>67.0</ele><time>2026-04-26T16:11:57.304Z</time></trkpt><trkpt lat="44.59231" lon="10.8557567"><ele>67.0</ele><time>2026-04-26T16:11:58.304Z</time></trkpt><trkpt lat="44.5923833" lon="10.8558167"><ele>67.0</ele><time>2026-04-26T16:11:59.304Z</time></trkpt><trkpt lat="44.5924617" lon="10.8558767"><ele>67.0</ele><time>2026-04-26T16:12:00.304Z</time></trkpt><trkpt lat="44.59255" lon="10.8559467"><ele>67.0</ele><time>2026-04-26T16:12:01.304Z</time></trkpt><trkpt lat="44.5926417" lon="10.8560217"><ele>67.0</ele><time>2026-04-26T16:12:02.304Z</time></trkpt><trkpt lat="44.5927317" lon="10.856095"><ele>67.0</ele><time>2026-04-26T16:12:03.304Z</time></trkpt><trkpt lat="44.592815" lon="10.8561667"><ele>67.0</ele><time>2026-04-26T16:12:04.304Z</time></trkpt><trkpt lat="44.5928933" lon="10.8562383"><ele>67.0</ele><time>2026-04-26T16:12:05.304Z</time></trkpt><trkpt lat="44.592965" lon="10.8563067"><ele>67.0</ele><time>2026-04-26T16:12:06.304Z</time></trkpt><trkpt lat="44.5930367" lon="10.8563783"><ele>67.0</ele><time>2026-04-26T16:12:07.304Z</time></trkpt><trkpt lat="44.593105" lon="10.856455"><ele>67.0</ele><time>2026-04-26T16:12:08.305Z</time></trkpt><trkpt lat="44.5931733" lon="10.8565333"><ele>67.0</ele><time>2026-04-26T16:12:09.304Z</time></trkpt><trkpt lat="44.59324" lon="10.8566133"><ele>67.0</ele><time>2026-04-26T16:12:10.305Z</time></trkpt><trkpt lat="44.5933" lon="10.8566867"><ele>67.0</ele><time>2026-04-26T16:12:11.304Z</time></trkpt><trkpt lat="44.59335" lon="10.8567717"><ele>67.0</ele><time>2026-04-26T16:12:12.304Z</time></trkpt><trkpt lat="44.5934017" lon="10.8568633"><ele>67.0</ele><time>2026-04-26T16:12:13.304Z</time></trkpt><trkpt lat="44.5934467" lon="10.8569583"><ele>67.0</ele><time>2026-04-26T16:12:14.304Z</time></trkpt><trkpt lat="44.5934883" lon="10.8570517"><ele>67.0</ele><time>2026-04-26T16:12:15.304Z</time></trkpt><trkpt lat="44.5935267" lon="10.85714"><ele>67.0</ele><time>2026-04-26T16:12:16.304Z</time></trkpt><trkpt lat="44.5935617" lon="10.8572233"><ele>67.0</ele><time>2026-04-26T16:12:17.304Z</time></trkpt><trkpt lat="44.5935933" lon="10.8573"><ele>67.0</ele><time>2026-04-26T16:12:18.305Z</time></trkpt><trkpt lat="44.59365" lon="10.8574233"><ele>67.0</ele><time>2026-04-26T16:12:20.304Z</time></trkpt><trkpt lat="44.5936883" lon="10.8575167"><ele>67.16666666666666</ele><time>2026-04-26T16:12:22.304Z</time></trkpt><trkpt lat="44.59374" lon="10.8576117"><ele>67.33333333333333</ele><time>2026-04-26T16:12:24.305Z</time></trkpt><trkpt lat="44.593785" lon="10.857675"><ele>67.5</ele><time>2026-04-26T16:12:25.304Z</time></trkpt><trkpt lat="44.5938467" lon="10.8577517"><ele>67.66666666666667</ele><time>2026-04-26T16:12:27.304Z</time></trkpt><trkpt lat="44.5939017" lon="10.8578233"><ele>67.83333333333334</ele><time>2026-04-26T16:12:31.304Z</time></trkpt><trkpt lat="44.5939683" lon="10.8578967"><ele>68.0</ele><time>2026-04-26T16:12:33.304Z</time></trkpt><trkpt lat="44.59404" lon="10.8579967"><ele>67.66666666666667</ele><time>2026-04-26T16:12:35.304Z</time></trkpt><trkpt lat="44.5940933" lon="10.858085"><ele>67.33333333333334</ele><time>2026-04-26T16:12:37.304Z</time></trkpt><trkpt lat="44.5941417" lon="10.8581583"><ele>67.0</ele><time>2026-04-26T16:12:39.304Z</time></trkpt><trkpt lat="44.5942083" lon="10.85826"><ele>66.66666666666667</ele><time>2026-04-26T16:12:41.304Z</time></trkpt><trkpt lat="44.5942767" lon="10.8583267"><ele>66.33333333333333</ele><time>2026-04-26T16:12:42.304Z</time></trkpt><trkpt lat="44.5943583" lon="10.8584117"><ele>66.0</ele><time>2026-04-26T16:12:43.304Z</time></trkpt><trkpt lat="44.59446" lon="10.8585017"><ele>65.75</ele><time>2026-04-26T16:12:44.304Z</time></trkpt><trkpt lat="44.594575" lon="10.8586"><ele>65.5</ele><time>2026-04-26T16:12:45.304Z</time></trkpt><trkpt lat="44.5947" lon="10.8587017"><ele>65.25</ele><time>2026-04-26T16:12:46.304Z</time></trkpt><trkpt lat="44.59483" lon="10.8588067"><ele>65.0</ele><time>2026-04-26T16:12:47.304Z</time></trkpt><trkpt lat="44.5949733" lon="10.8589233"><ele>65.0</ele><time>2026-04-26T16:12:48.304Z</time></trkpt><trkpt lat="44.5951217" lon="10.8590317"><ele>65.0</ele><time>2026-04-26T16:12:49.304Z</time></trkpt><trkpt lat="44.595275" lon="10.859145"><ele>65.0</ele><time>2026-04-26T16:12:50.304Z</time></trkpt><trkpt lat="44.595435" lon="10.8592583"><ele>65.0</ele><time>2026-04-26T16:12:51.304Z</time></trkpt><trkpt lat="44.59559" lon="10.8593933"><ele>65.0</ele><time>2026-04-26T16:12:52.304Z</time></trkpt><trkpt lat="44.59575" lon="10.8595267"><ele>65.0</ele><time>2026-04-26T16:12:53.304Z</time></trkpt><trkpt lat="44.5958867" lon="10.8596417"><ele>65.0</ele><time>2026-04-26T16:12:54.304Z</time></trkpt><trkpt lat="44.5960167" lon="10.859765"><ele>65.0</ele><time>2026-04-26T16:12:55.304Z</time></trkpt><trkpt lat="44.59614" lon="10.859885"><ele>65.0</ele><time>2026-04-26T16:12:56.304Z</time></trkpt><trkpt lat="44.5962483" lon="10.8599983"><ele>65.0</ele><time>2026-04-26T16:12:57.304Z</time></trkpt><trkpt lat="44.5963383" lon="10.86011"><ele>65.0</ele><time>2026-04-26T16:12:58.304Z</time></trkpt><trkpt lat="44.59642" lon="10.8602217"><ele>65.0</ele><time>2026-04-26T16:12:59.304Z</time></trkpt><trkpt lat="44.5964867" lon="10.860335"><ele>65.0</ele><time>2026-04-26T16:13:00.304Z</time></trkpt><trkpt lat="44.59653" lon="10.8604533"><ele>65.0</ele><time>2026-04-26T16:13:01.304Z</time></trkpt><trkpt lat="44.59657" lon="10.860555"><ele>65.0</ele><time>2026-04-26T16:13:02.304Z</time></trkpt><trkpt lat="44.59662" lon="10.8606233"><ele>65.0</ele><time>2026-04-26T16:13:03.304Z</time></trkpt><trkpt lat="44.5966833" lon="10.860655"><ele>65.0</ele><time>2026-04-26T16:13:04.304Z</time></trkpt><trkpt lat="44.59678" lon="10.86065"><ele>65.0</ele><time>2026-04-26T16:13:05.304Z</time></trkpt><trkpt lat="44.5968783" lon="10.860675"><ele>65.0</ele><time>2026-04-26T16:13:06.304Z</time></trkpt><trkpt lat="44.59698" lon="10.8607383"><ele>65.0</ele><time>2026-04-26T16:13:07.304Z</time></trkpt><trkpt lat="44.5970867" lon="10.860825"><ele>64.0</ele><time>2026-04-26T16:13:08.304Z</time></trkpt><trkpt lat="44.5972" lon="10.8609233"><ele>63.0</ele><time>2026-04-26T16:13:09.304Z</time></trkpt><trkpt lat="44.5973117" lon="10.8610433"><ele>62.0</ele><time>2026-04-26T16:13:10.304Z</time></trkpt><trkpt lat="44.597425" lon="10.861175"><ele>61.0</ele><time>2026-04-26T16:13:11.304Z</time></trkpt><trkpt lat="44.59754" lon="10.861305"><ele>60.666666666666664</ele><time>2026-04-26T16:13:12.304Z</time></trkpt><trkpt lat="44.59766" lon="10.8614417"><ele>60.33333333333333</ele><time>2026-04-26T16:13:13.304Z</time></trkpt><trkpt lat="44.5977783" lon="10.8615867"><ele>60.0</ele><time>2026-04-26T16:13:14.304Z</time></trkpt><trkpt lat="44.59791" lon="10.8617367"><ele>60.33333333333333</ele><time>2026-04-26T16:13:15.304Z</time></trkpt><trkpt lat="44.59804" lon="10.8618883"><ele>60.666666666666664</ele><time>2026-04-26T16:13:16.305Z</time></trkpt><trkpt lat="44.5981617" lon="10.8620517"><ele>61.0</ele><time>2026-04-26T16:13:17.304Z</time></trkpt><trkpt lat="44.59829" lon="10.8622183"><ele>61.0</ele><time>2026-04-26T16:13:18.304Z</time></trkpt><trkpt lat="44.5984167" lon="10.8623783"><ele>61.0</ele><time>2026-04-26T16:13:19.304Z</time></trkpt><trkpt lat="44.5985517" lon="10.86254"><ele>61.0</ele><time>2026-04-26T16:13:20.304Z</time></trkpt><trkpt lat="44.5986767" lon="10.8626883"><ele>59.75</ele><time>2026-04-26T16:13:21.304Z</time></trkpt><trkpt lat="44.5988017" lon="10.8628083"><ele>58.5</ele><time>2026-04-26T16:13:22.304Z</time></trkpt><trkpt lat="44.5989233" lon="10.8629067"><ele>57.25</ele><time>2026-04-26T16:13:23.304Z</time></trkpt><trkpt lat="44.5990417" lon="10.8630117"><ele>56.0</ele><time>2026-04-26T16:13:24.304Z</time></trkpt><trkpt lat="44.5991433" lon="10.8631167"><ele>56.0</ele><time>2026-04-26T16:13:25.304Z</time></trkpt><trkpt lat="44.5992717" lon="10.8632217"><ele>56.0</ele><time>2026-04-26T16:13:26.304Z</time></trkpt><trkpt lat="44.5994083" lon="10.863325"><ele>56.0</ele><time>2026-04-26T16:13:27.304Z</time></trkpt><trkpt lat="44.599545" lon="10.8634483"><ele>57.333333333333336</ele><time>2026-04-26T16:13:28.304Z</time></trkpt><trkpt lat="44.59968" lon="10.863595"><ele>58.66666666666667</ele><time>2026-04-26T16:13:29.304Z</time></trkpt><trkpt lat="44.5998083" lon="10.8637433"><ele>60.0</ele><time>2026-04-26T16:13:30.303Z</time></trkpt><trkpt lat="44.5999383" lon="10.8639133"><ele>60.0</ele><time>2026-04-26T16:13:31.303Z</time></trkpt><trkpt lat="44.6000733" lon="10.8640817"><ele>60.0</ele><time>2026-04-26T16:13:32.303Z</time></trkpt><trkpt lat="44.60021" lon="10.86426"><ele>60.0</ele><time>2026-04-26T16:13:33.303Z</time></trkpt><trkpt lat="44.6003567" lon="10.8644217"><ele>59.0</ele><time>2026-04-26T16:13:34.303Z</time></trkpt><trkpt lat="44.6004967" lon="10.8645983"><ele>58.0</ele><time>2026-04-26T16:13:35.303Z</time></trkpt><trkpt lat="44.6006333" lon="10.864785"><ele>57.0</ele><time>2026-04-26T16:13:36.303Z</time></trkpt><trkpt lat="44.6007717" lon="10.8649667"><ele>57.33333333333333</ele><time>2026-04-26T16:13:37.303Z</time></trkpt><trkpt lat="44.6009133" lon="10.86513"><ele>57.666666666666664</ele><time>2026-04-26T16:13:38.303Z</time></trkpt><trkpt lat="44.6010583" lon="10.8653067"><ele>58.0</ele><time>2026-04-26T16:13:39.303Z</time></trkpt><trkpt lat="44.6012033" lon="10.8654567"><ele>58.0</ele><time>2026-04-26T16:13:40.303Z</time></trkpt><trkpt lat="44.6013467" lon="10.8656067"><ele>58.0</ele><time>2026-04-26T16:13:41.303Z</time></trkpt><trkpt lat="44.601495" lon="10.8657533"><ele>58.0</ele><time>2026-04-26T16:13:42.303Z</time></trkpt><trkpt lat="44.601645" lon="10.865875"><ele>57.666666666666664</ele><time>2026-04-26T16:13:43.303Z</time></trkpt><trkpt lat="44.601795" lon="10.8659933"><ele>57.33333333333333</ele><time>2026-04-26T16:13:44.303Z</time></trkpt><trkpt lat="44.6019517" lon="10.8661"><ele>57.0</ele><time>2026-04-26T16:13:45.303Z</time></trkpt><trkpt lat="44.6021117" lon="10.8662"><ele>57.66666666666667</ele><time>2026-04-26T16:13:46.303Z</time></trkpt><trkpt lat="44.6022717" lon="10.86629"><ele>58.333333333333336</ele><time>2026-04-26T16:13:47.303Z</time></trkpt><trkpt lat="44.60244" lon="10.8663833"><ele>59.0</ele><time>2026-04-26T16:13:48.304Z</time></trkpt><trkpt lat="44.6026133" lon="10.8664583"><ele>59.0</ele><time>2026-04-26T16:13:49.303Z</time></trkpt><trkpt lat="44.6027817" lon="10.8665333"><ele>59.0</ele><time>2026-04-26T16:13:50.303Z</time></trkpt><trkpt lat="44.602945" lon="10.8665983"><ele>59.0</ele><time>2026-04-26T16:13:51.303Z</time></trkpt><trkpt lat="44.6031033" lon="10.8666667"><ele>58.66666666666667</ele><time>2026-04-26T16:13:52.303Z</time></trkpt><trkpt lat="44.603245" lon="10.86673"><ele>58.33333333333333</ele><time>2026-04-26T16:13:53.304Z</time></trkpt><trkpt lat="44.603395" lon="10.8668467"><ele>58.0</ele><time>2026-04-26T16:13:54.303Z</time></trkpt><trkpt lat="44.6035083" lon="10.8669783"><ele>58.0</ele><time>2026-04-26T16:13:55.303Z</time></trkpt><trkpt lat="44.6036033" lon="10.8671233"><ele>58.0</ele><time>2026-04-26T16:13:56.303Z</time></trkpt><trkpt lat="44.60369" lon="10.8672617"><ele>58.0</ele><time>2026-04-26T16:13:57.303Z</time></trkpt><trkpt lat="44.6037633" lon="10.8673883"><ele>58.0</ele><time>2026-04-26T16:13:58.303Z</time></trkpt><trkpt lat="44.6038417" lon="10.867505"><ele>57.99999999999999</ele><time>2026-04-26T16:13:59.303Z</time></trkpt><trkpt lat="44.6038967" lon="10.8676033"><ele>58.0</ele><time>2026-04-26T16:14:00.303Z</time></trkpt><trkpt lat="44.6039433" lon="10.8677"><ele>58.0</ele><time>2026-04-26T16:14:01.303Z</time></trkpt><trkpt lat="44.604" lon="10.8677967"><ele>58.0</ele><time>2026-04-26T16:14:02.303Z</time></trkpt><trkpt lat="44.6040617" lon="10.8678833"><ele>57.99999999999999</ele><time>2026-04-26T16:14:03.303Z</time></trkpt><trkpt lat="44.6041317" lon="10.8679367"><ele>58.0</ele><time>2026-04-26T16:14:04.303Z</time></trkpt><trkpt lat="44.6041983" lon="10.8679467"><ele>57.99999999999999</ele><time>2026-04-26T16:14:05.303Z</time></trkpt><trkpt lat="44.604265" lon="10.8679317"><ele>58.0</ele><time>2026-04-26T16:14:06.303Z</time></trkpt><trkpt lat="44.6043267" lon="10.8678867"><ele>58.0</ele><time>2026-04-26T16:14:07.303Z</time></trkpt><trkpt lat="44.60439" lon="10.8678167"><ele>58.0</ele><time>2026-04-26T16:14:08.303Z</time></trkpt><trkpt lat="44.60446" lon="10.8677483"><ele>57.99999999999999</ele><time>2026-04-26T16:14:09.303Z</time></trkpt><trkpt lat="44.6045483" lon="10.8677033"><ele>58.0</ele><time>2026-04-26T16:14:10.303Z</time></trkpt><trkpt lat="44.6046583" lon="10.867675"><ele>57.75</ele><time>2026-04-26T16:14:11.304Z</time></trkpt><trkpt lat="44.6047867" lon="10.8676717"><ele>57.5</ele><time>2026-04-26T16:14:12.303Z</time></trkpt><trkpt lat="44.6049267" lon="10.86768"><ele>57.25</ele><time>2026-04-26T16:14:13.303Z</time></trkpt><trkpt lat="44.6050883" lon="10.8677"><ele>57.0</ele><time>2026-04-26T16:14:14.303Z</time></trkpt><trkpt lat="44.6052417" lon="10.86774"><ele>56.75</ele><time>2026-04-26T16:14:15.303Z</time></trkpt><trkpt lat="44.6053883" lon="10.867805"><ele>56.5</ele><time>2026-04-26T16:14:16.303Z</time></trkpt><trkpt lat="44.6055233" lon="10.8678667"><ele>56.25</ele><time>2026-04-26T16:14:17.303Z</time></trkpt><trkpt lat="44.605655" lon="10.8679233"><ele>56.0</ele><time>2026-04-26T16:14:18.303Z</time></trkpt><trkpt lat="44.6057683" lon="10.8679767"><ele>56.0</ele><time>2026-04-26T16:14:19.303Z</time></trkpt><trkpt lat="44.6058783" lon="10.86802"><ele>55.99999999999999</ele><time>2026-04-26T16:14:20.303Z</time></trkpt><trkpt lat="44.60598" lon="10.8680617"><ele>55.99999999999999</ele><time>2026-04-26T16:14:21.303Z</time></trkpt><trkpt lat="44.60608" lon="10.868105"><ele>56.0</ele><time>2026-04-26T16:14:22.303Z</time></trkpt><trkpt lat="44.6061933" lon="10.8681617"><ele>56.0</ele><time>2026-04-26T16:14:23.304Z</time></trkpt><trkpt lat="44.6063167" lon="10.8682183"><ele>56.0</ele><time>2026-04-26T16:14:24.303Z</time></trkpt><trkpt lat="44.6064517" lon="10.8682633"><ele>56.0</ele><time>2026-04-26T16:14:25.303Z</time></trkpt><trkpt lat="44.6065783" lon="10.868315"><ele>56.0</ele><time>2026-04-26T16:14:26.303Z</time></trkpt><trkpt lat="44.6067067" lon="10.8683633"><ele>56.0</ele><time>2026-04-26T16:14:27.303Z</time></trkpt><trkpt lat="44.6068217" lon="10.8684233"><ele>55.599999999999994</ele><time>2026-04-26T16:14:28.303Z</time></trkpt><trkpt lat="44.6069233" lon="10.86849"><ele>55.199999999999996</ele><time>2026-04-26T16:14:29.303Z</time></trkpt><trkpt lat="44.6070183" lon="10.8685583"><ele>54.800000000000004</ele><time>2026-04-26T16:14:30.303Z</time></trkpt><trkpt lat="44.6070983" lon="10.8686383"><ele>54.400000000000006</ele><time>2026-04-26T16:14:31.303Z</time></trkpt><trkpt lat="44.6071683" lon="10.8687267"><ele>54.0</ele><time>2026-04-26T16:14:32.303Z</time></trkpt><trkpt lat="44.60723" lon="10.868825"><ele>54.400000000000006</ele><time>2026-04-26T16:14:33.303Z</time></trkpt><trkpt lat="44.607275" lon="10.86893"><ele>54.800000000000004</ele><time>2026-04-26T16:14:34.303Z</time></trkpt><trkpt lat="44.60729" lon="10.8690533"><ele>55.199999999999996</ele><time>2026-04-26T16:14:35.303Z</time></trkpt><trkpt lat="44.6072933" lon="10.8691883"><ele>55.599999999999994</ele><time>2026-04-26T16:14:36.303Z</time></trkpt><trkpt lat="44.6073167" lon="10.8693283"><ele>56.0</ele><time>2026-04-26T16:14:37.303Z</time></trkpt><trkpt lat="44.6073683" lon="10.8694367"><ele>56.0</ele><time>2026-04-26T16:14:38.303Z</time></trkpt><trkpt lat="44.607445" lon="10.8694967"><ele>55.99999999999999</ele><time>2026-04-26T16:14:39.303Z</time></trkpt><trkpt lat="44.607545" lon="10.869505"><ele>55.99999999999999</ele><time>2026-04-26T16:14:40.303Z</time></trkpt><trkpt lat="44.6076433" lon="10.8694767"><ele>56.0</ele><time>2026-04-26T16:14:41.303Z</time></trkpt><trkpt lat="44.6077767" lon="10.869415"><ele>56.0</ele><time>2026-04-26T16:14:42.303Z</time></trkpt><trkpt lat="44.607925" lon="10.8693717"><ele>55.0</ele><time>2026-04-26T16:14:43.303Z</time></trkpt><trkpt lat="44.6080883" lon="10.8693883"><ele>54.0</ele><time>2026-04-26T16:14:44.303Z</time></trkpt><trkpt lat="44.608275" lon="10.8694383"><ele>53.0</ele><time>2026-04-26T16:14:45.303Z</time></trkpt><trkpt lat="44.6084767" lon="10.8695367"><ele>53.0</ele><time>2026-04-26T16:14:46.303Z</time></trkpt><trkpt lat="44.6086883" lon="10.8696483"><ele>53.0</ele><time>2026-04-26T16:14:47.303Z</time></trkpt><trkpt lat="44.608925" lon="10.869765"><ele>53.0</ele><time>2026-04-26T16:14:48.303Z</time></trkpt><trkpt lat="44.6091733" lon="10.8698933"><ele>53.0</ele><time>2026-04-26T16:14:49.303Z</time></trkpt><trkpt lat="44.6094317" lon="10.870015"><ele>52.5</ele><time>2026-04-26T16:14:50.303Z</time></trkpt><trkpt lat="44.6096867" lon="10.8701433"><ele>52.0</ele><time>2026-04-26T16:14:51.303Z</time></trkpt><trkpt lat="44.60993" lon="10.870265"><ele>52.0</ele><time>2026-04-26T16:14:52.303Z</time></trkpt><trkpt lat="44.6101567" lon="10.8703867"><ele>52.0</ele><time>2026-04-26T16:14:53.303Z</time></trkpt><trkpt lat="44.6103617" lon="10.870495"><ele>52.33333333333333</ele><time>2026-04-26T16:14:54.303Z</time></trkpt><trkpt lat="44.6105483" lon="10.8706067"><ele>52.66666666666667</ele><time>2026-04-26T16:14:55.303Z</time></trkpt><trkpt lat="44.6107217" lon="10.8707017"><ele>53.0</ele><time>2026-04-26T16:14:56.303Z</time></trkpt><trkpt lat="44.6108917" lon="10.8708"><ele>53.0</ele><time>2026-04-26T16:14:57.303Z</time></trkpt><trkpt lat="44.6110617" lon="10.8709017"><ele>53.0</ele><time>2026-04-26T16:14:58.303Z</time></trkpt><trkpt lat="44.6112367" lon="10.8710117"><ele>53.0</ele><time>2026-04-26T16:14:59.303Z</time></trkpt><trkpt lat="44.611385" lon="10.87113"><ele>53.0</ele><time>2026-04-26T16:15:00.303Z</time></trkpt><trkpt lat="44.6115167" lon="10.8712417"><ele>53.0</ele><time>2026-04-26T16:15:01.303Z</time></trkpt><trkpt lat="44.6116333" lon="10.8713533"><ele>53.0</ele><time>2026-04-26T16:15:02.303Z</time></trkpt><trkpt lat="44.6117567" lon="10.8714683"><ele>53.0</ele><time>2026-04-26T16:15:03.303Z</time></trkpt><trkpt lat="44.6118733" lon="10.8716117"><ele>53.0</ele><time>2026-04-26T16:15:04.303Z</time></trkpt><trkpt lat="44.611975" lon="10.87177"><ele>53.0</ele><time>2026-04-26T16:15:05.303Z</time></trkpt><trkpt lat="44.6120683" lon="10.8719533"><ele>53.0</ele><time>2026-04-26T16:15:06.303Z</time></trkpt><trkpt lat="44.6121533" lon="10.8721517"><ele>52.66666666666667</ele><time>2026-04-26T16:15:07.303Z</time></trkpt><trkpt lat="44.6122267" lon="10.8723517"><ele>52.33333333333333</ele><time>2026-04-26T16:15:08.303Z</time></trkpt><trkpt lat="44.6122917" lon="10.872565"><ele>52.0</ele><time>2026-04-26T16:15:09.303Z</time></trkpt><trkpt lat="44.6123667" lon="10.8727717"><ele>51.666666666666664</ele><time>2026-04-26T16:15:10.303Z</time></trkpt><trkpt lat="44.6124433" lon="10.8730033"><ele>51.33333333333333</ele><time>2026-04-26T16:15:11.303Z</time></trkpt><trkpt lat="44.6125217" lon="10.873235"><ele>51.0</ele><time>2026-04-26T16:15:12.303Z</time></trkpt><trkpt lat="44.612595" lon="10.8734717"><ele>50.66666666666667</ele><time>2026-04-26T16:15:13.303Z</time></trkpt><trkpt lat="44.6126783" lon="10.8737067"><ele>50.333333333333336</ele><time>2026-04-26T16:15:14.303Z</time></trkpt><trkpt lat="44.6127567" lon="10.87395"><ele>50.0</ele><time>2026-04-26T16:15:15.303Z</time></trkpt><trkpt lat="44.6128417" lon="10.8741967"><ele>50.0</ele><time>2026-04-26T16:15:16.303Z</time></trkpt><trkpt lat="44.61293" lon="10.8744417"><ele>50.0</ele><time>2026-04-26T16:15:17.303Z</time></trkpt><trkpt lat="44.6130167" lon="10.8746983"><ele>50.0</ele><time>2026-04-26T16:15:18.303Z</time></trkpt><trkpt lat="44.6131033" lon="10.8749533"><ele>50.333333333333336</ele><time>2026-04-26T16:15:19.303Z</time></trkpt><trkpt lat="44.613195" lon="10.87521"><ele>50.66666666666667</ele><time>2026-04-26T16:15:20.303Z</time></trkpt><trkpt lat="44.613285" lon="10.8754633"><ele>51.0</ele><time>2026-04-26T16:15:21.303Z</time></trkpt><trkpt lat="44.61337" lon="10.87571"><ele>51.0</ele><time>2026-04-26T16:15:22.303Z</time></trkpt><trkpt lat="44.61345" lon="10.8759617"><ele>51.0</ele><time>2026-04-26T16:15:23.303Z</time></trkpt><trkpt lat="44.613535" lon="10.8762133"><ele>51.0</ele><time>2026-04-26T16:15:24.303Z</time></trkpt><trkpt lat="44.61363" lon="10.876455"><ele>51.0</ele><time>2026-04-26T16:15:25.303Z</time></trkpt><trkpt lat="44.6137117" lon="10.8767"><ele>51.0</ele><time>2026-04-26T16:15:26.303Z</time></trkpt><trkpt lat="44.6137833" lon="10.8769317"><ele>51.0</ele><time>2026-04-26T16:15:27.303Z</time></trkpt><trkpt lat="44.6138617" lon="10.8771717"><ele>50.33333333333333</ele><time>2026-04-26T16:15:28.303Z</time></trkpt><trkpt lat="44.6139367" lon="10.8774117"><ele>49.666666666666664</ele><time>2026-04-26T16:15:29.303Z</time></trkpt><trkpt lat="44.61401" lon="10.8776433"><ele>49.0</ele><time>2026-04-26T16:15:30.303Z</time></trkpt><trkpt lat="44.6140833" lon="10.8778667"><ele>48.33333333333333</ele><time>2026-04-26T16:15:31.304Z</time></trkpt><trkpt lat="44.614155" lon="10.878085"><ele>47.666666666666664</ele><time>2026-04-26T16:15:32.303Z</time></trkpt><trkpt lat="44.6142283" lon="10.8783067"><ele>47.0</ele><time>2026-04-26T16:15:33.303Z</time></trkpt><trkpt lat="44.6142983" lon="10.8785367"><ele>47.0</ele><time>2026-04-26T16:15:34.303Z</time></trkpt><trkpt lat="44.6143783" lon="10.8787667"><ele>47.0</ele><time>2026-04-26T16:15:35.303Z</time></trkpt><trkpt lat="44.6144667" lon="10.8789967"><ele>47.0</ele><time>2026-04-26T16:15:36.303Z</time></trkpt><trkpt lat="44.614555" lon="10.879235"><ele>47.33333333333333</ele><time>2026-04-26T16:15:37.303Z</time></trkpt><trkpt lat="44.6146517" lon="10.8794833"><ele>47.666666666666664</ele><time>2026-04-26T16:15:38.303Z</time></trkpt><trkpt lat="44.6147467" lon="10.879735"><ele>48.0</ele><time>2026-04-26T16:15:39.303Z</time></trkpt><trkpt lat="44.6148517" lon="10.8799967"><ele>47.666666666666664</ele><time>2026-04-26T16:15:40.303Z</time></trkpt><trkpt lat="44.6149467" lon="10.8802517"><ele>47.33333333333333</ele><time>2026-04-26T16:15:41.303Z</time></trkpt><trkpt lat="44.6150467" lon="10.8805017"><ele>47.0</ele><time>2026-04-26T16:15:42.303Z</time></trkpt><trkpt lat="44.615145" lon="10.8807467"><ele>47.0</ele><time>2026-04-26T16:15:43.303Z</time></trkpt><trkpt lat="44.6152417" lon="10.8809983"><ele>47.0</ele><time>2026-04-26T16:15:44.304Z</time></trkpt><trkpt lat="44.6153383" lon="10.881245"><ele>47.0</ele><time>2026-04-26T16:15:45.303Z</time></trkpt><trkpt lat="44.6154433" lon="10.8814967"><ele>47.0</ele><time>2026-04-26T16:15:46.303Z</time></trkpt><trkpt lat="44.6155517" lon="10.881735"><ele>47.0</ele><time>2026-04-26T16:15:47.303Z</time></trkpt><trkpt lat="44.6156583" lon="10.8819717"><ele>47.0</ele><time>2026-04-26T16:15:48.303Z</time></trkpt><trkpt lat="44.615775" lon="10.882215"><ele>47.0</ele><time>2026-04-26T16:15:49.303Z</time></trkpt><trkpt lat="44.6158733" lon="10.8824383"><ele>47.0</ele><time>2026-04-26T16:15:50.303Z</time></trkpt><trkpt lat="44.6159767" lon="10.882665"><ele>47.0</ele><time>2026-04-26T16:15:51.303Z</time></trkpt><trkpt lat="44.6160767" lon="10.88289"><ele>46.666666666666664</ele><time>2026-04-26T16:15:52.303Z</time></trkpt><trkpt lat="44.61618" lon="10.8831117"><ele>46.333333333333336</ele><time>2026-04-26T16:15:53.303Z</time></trkpt><trkpt lat="44.6162783" lon="10.8833367"><ele>46.0</ele><time>2026-04-26T16:15:54.303Z</time></trkpt><trkpt lat="44.6163683" lon="10.8835567"><ele>46.0</ele><time>2026-04-26T16:15:55.303Z</time></trkpt><trkpt lat="44.6164633" lon="10.883775"><ele>46.0</ele><time>2026-04-26T16:15:56.303Z</time></trkpt><trkpt lat="44.6165617" lon="10.88398"><ele>46.0</ele><time>2026-04-26T16:15:57.303Z</time></trkpt><trkpt lat="44.6166583" lon="10.88419"><ele>45.333333333333336</ele><time>2026-04-26T16:15:58.303Z</time></trkpt><trkpt lat="44.61676" lon="10.8843917"><ele>44.666666666666664</ele><time>2026-04-26T16:15:59.303Z</time></trkpt><trkpt lat="44.6168533" lon="10.884605"><ele>44.0</ele><time>2026-04-26T16:16:00.303Z</time></trkpt><trkpt lat="44.6169617" lon="10.88482"><ele>44.666666666666664</ele><time>2026-04-26T16:16:01.302Z</time></trkpt><trkpt lat="44.6170683" lon="10.88504"><ele>45.333333333333336</ele><time>2026-04-26T16:16:02.302Z</time></trkpt><trkpt lat="44.61717" lon="10.8852583"><ele>46.0</ele><time>2026-04-26T16:16:03.302Z</time></trkpt><trkpt lat="44.61727" lon="10.88547"><ele>46.0</ele><time>2026-04-26T16:16:04.302Z</time></trkpt><trkpt lat="44.617375" lon="10.8856833"><ele>46.0</ele><time>2026-04-26T16:16:05.302Z</time></trkpt><trkpt lat="44.6174717" lon="10.885895"><ele>46.0</ele><time>2026-04-26T16:16:06.302Z</time></trkpt><trkpt lat="44.6175717" lon="10.88612"><ele>46.0</ele><time>2026-04-26T16:16:07.302Z</time></trkpt><trkpt lat="44.6176717" lon="10.8863217"><ele>46.0</ele><time>2026-04-26T16:16:08.302Z</time></trkpt><trkpt lat="44.6177717" lon="10.8865333"><ele>46.0</ele><time>2026-04-26T16:16:09.302Z</time></trkpt><trkpt lat="44.6178767" lon="10.88674"><ele>45.333333333333336</ele><time>2026-04-26T16:16:10.302Z</time></trkpt><trkpt lat="44.6179817" lon="10.8869517"><ele>44.666666666666664</ele><time>2026-04-26T16:16:11.302Z</time></trkpt><trkpt lat="44.61808" lon="10.887155"><ele>44.0</ele><time>2026-04-26T16:16:12.302Z</time></trkpt><trkpt lat="44.6181567" lon="10.887315"><ele>44.0</ele><time>2026-04-26T16:16:13.302Z</time></trkpt><trkpt lat="44.6182517" lon="10.8874817"><ele>44.0</ele><time>2026-04-26T16:16:14.302Z</time></trkpt><trkpt lat="44.6183383" lon="10.88766"><ele>44.0</ele><time>2026-04-26T16:16:15.302Z</time></trkpt><trkpt lat="44.61844" lon="10.8878383"><ele>44.0</ele><time>2026-04-26T16:16:16.302Z</time></trkpt><trkpt lat="44.61854" lon="10.8880283"><ele>44.0</ele><time>2026-04-26T16:16:17.302Z</time></trkpt><trkpt lat="44.618635" lon="10.8881983"><ele>44.0</ele><time>2026-04-26T16:16:18.302Z</time></trkpt><trkpt lat="44.6187383" lon="10.8883417"><ele>44.25</ele><time>2026-04-26T16:16:19.303Z</time></trkpt><trkpt lat="44.61884" lon="10.888475"><ele>44.5</ele><time>2026-04-26T16:16:20.302Z</time></trkpt><trkpt lat="44.618945" lon="10.8886017"><ele>44.75</ele><time>2026-04-26T16:16:21.302Z</time></trkpt><trkpt lat="44.6190433" lon="10.8887267"><ele>45.0</ele><time>2026-04-26T16:16:22.302Z</time></trkpt><trkpt lat="44.6191333" lon="10.8888183"><ele>45.0</ele><time>2026-04-26T16:16:23.302Z</time></trkpt><trkpt lat="44.6192167" lon="10.8889083"><ele>45.0</ele><time>2026-04-26T16:16:24.302Z</time></trkpt><trkpt lat="44.6192833" lon="10.8889933"><ele>45.0</ele><time>2026-04-26T16:16:25.302Z</time></trkpt><trkpt lat="44.6193417" lon="10.8890683"><ele>45.0</ele><time>2026-04-26T16:16:26.302Z</time></trkpt><trkpt lat="44.6193933" lon="10.88914"><ele>45.0</ele><time>2026-04-26T16:16:27.302Z</time></trkpt><trkpt lat="44.6195" lon="10.889245"><ele>45.0</ele><time>2026-04-26T16:16:29.302Z</time></trkpt><trkpt lat="44.6195567" lon="10.889295"><ele>45.0</ele><time>2026-04-26T16:16:30.302Z</time></trkpt><trkpt lat="44.6196233" lon="10.8893517"><ele>45.0</ele><time>2026-04-26T16:16:31.302Z</time></trkpt><trkpt lat="44.6196983" lon="10.88943"><ele>45.0</ele><time>2026-04-26T16:16:32.302Z</time></trkpt><trkpt lat="44.6197733" lon="10.8895067"><ele>45.0</ele><time>2026-04-26T16:16:33.302Z</time></trkpt><trkpt lat="44.6198483" lon="10.8895783"><ele>45.0</ele><time>2026-04-26T16:16:34.302Z</time></trkpt><trkpt lat="44.6199183" lon="10.889645"><ele>45.0</ele><time>2026-04-26T16:16:35.302Z</time></trkpt><trkpt lat="44.61998" lon="10.8897067"><ele>45.0</ele><time>2026-04-26T16:16:36.302Z</time></trkpt><trkpt lat="44.6200317" lon="10.8897583"><ele>45.0</ele><time>2026-04-26T16:16:37.302Z</time></trkpt><trkpt lat="44.6200917" lon="10.889805"><ele>45.0</ele><time>2026-04-26T16:16:39.302Z</time></trkpt><trkpt lat="44.6201483" lon="10.8898467"><ele>45.0</ele><time>2026-04-26T16:16:46.302Z</time></trkpt><trkpt lat="44.62025" lon="10.889945"><ele>45.0</ele><time>2026-04-26T16:16:48.302Z</time></trkpt><trkpt lat="44.6203267" lon="10.8900217"><ele>45.25</ele><time>2026-04-26T16:16:49.303Z</time></trkpt><trkpt lat="44.6204217" lon="10.8901267"><ele>45.5</ele><time>2026-04-26T16:16:50.302Z</time></trkpt><trkpt lat="44.6205267" lon="10.890245"><ele>45.75</ele><time>2026-04-26T16:16:51.302Z</time></trkpt><trkpt lat="44.6206517" lon="10.8903817"><ele>46.0</ele><time>2026-04-26T16:16:52.302Z</time></trkpt><trkpt lat="44.6207867" lon="10.8905283"><ele>46.0</ele><time>2026-04-26T16:16:53.302Z</time></trkpt><trkpt lat="44.620925" lon="10.8906783"><ele>46.0</ele><time>2026-04-26T16:16:54.302Z</time></trkpt><trkpt lat="44.621075" lon="10.8908333"><ele>46.0</ele><time>2026-04-26T16:16:55.302Z</time></trkpt><trkpt lat="44.6212317" lon="10.89099"><ele>46.0</ele><time>2026-04-26T16:16:56.302Z</time></trkpt><trkpt lat="44.6213983" lon="10.8911533"><ele>46.0</ele><time>2026-04-26T16:16:57.302Z</time></trkpt><trkpt lat="44.6215783" lon="10.8913167"><ele>46.0</ele><time>2026-04-26T16:16:58.302Z</time></trkpt><trkpt lat="44.6217567" lon="10.89146"><ele>46.0</ele><time>2026-04-26T16:16:59.302Z</time></trkpt><trkpt lat="44.6219333" lon="10.891585"><ele>46.0</ele><time>2026-04-26T16:17:00.302Z</time></trkpt><trkpt lat="44.6221033" lon="10.8917283"><ele>46.0</ele><time>2026-04-26T16:17:01.302Z</time></trkpt><trkpt lat="44.6222667" lon="10.8918667"><ele>45.333333333333336</ele><time>2026-04-26T16:17:02.302Z</time></trkpt><trkpt lat="44.6224267" lon="10.892015"><ele>44.666666666666664</ele><time>2026-04-26T16:17:03.302Z</time></trkpt><trkpt lat="44.6225833" lon="10.8921717"><ele>44.0</ele><time>2026-04-26T16:17:04.302Z</time></trkpt><trkpt lat="44.6227317" lon="10.8923267"><ele>45.0</ele><time>2026-04-26T16:17:05.302Z</time></trkpt><trkpt lat="44.6228717" lon="10.892475"><ele>46.0</ele><time>2026-04-26T16:17:06.302Z</time></trkpt><trkpt lat="44.623005" lon="10.8926183"><ele>47.0</ele><time>2026-04-26T16:17:07.302Z</time></trkpt><trkpt lat="44.6231283" lon="10.8927567"><ele>47.0</ele><time>2026-04-26T16:17:08.302Z</time></trkpt><trkpt lat="44.6232483" lon="10.8928783"><ele>47.0</ele><time>2026-04-26T16:17:09.302Z</time></trkpt><trkpt lat="44.6233417" lon="10.8929867"><ele>47.0</ele><time>2026-04-26T16:17:10.302Z</time></trkpt><trkpt lat="44.62343" lon="10.8930767"><ele>47.0</ele><time>2026-04-26T16:17:11.302Z</time></trkpt><trkpt lat="44.6234967" lon="10.8931383"><ele>47.0</ele><time>2026-04-26T16:17:12.302Z</time></trkpt><trkpt lat="44.6235517" lon="10.8931883"><ele>47.0</ele><time>2026-04-26T16:17:13.302Z</time></trkpt><trkpt lat="44.6236483" lon="10.8932733"><ele>47.0</ele><time>2026-04-26T16:17:25.302Z</time></trkpt><trkpt lat="44.6237017" lon="10.8933333"><ele>47.0</ele><time>2026-04-26T16:17:26.302Z</time></trkpt><trkpt lat="44.6237883" lon="10.893415"><ele>47.0</ele><time>2026-04-26T16:17:27.302Z</time></trkpt><trkpt lat="44.62392" lon="10.8935283"><ele>46.666666666666664</ele><time>2026-04-26T16:17:28.302Z</time></trkpt><trkpt lat="44.6240667" lon="10.8936533"><ele>46.333333333333336</ele><time>2026-04-26T16:17:29.302Z</time></trkpt><trkpt lat="44.624205" lon="10.89377"><ele>46.0</ele><time>2026-04-26T16:17:30.302Z</time></trkpt><trkpt lat="44.624345" lon="10.8938967"><ele>46.0</ele><time>2026-04-26T16:17:31.302Z</time></trkpt><trkpt lat="44.6244733" lon="10.89401"><ele>46.0</ele><time>2026-04-26T16:17:32.302Z</time></trkpt><trkpt lat="44.6246" lon="10.8941317"><ele>46.0</ele><time>2026-04-26T16:17:33.302Z</time></trkpt><trkpt lat="44.62473" lon="10.8942433"><ele>45.66666666666667</ele><time>2026-04-26T16:17:34.302Z</time></trkpt><trkpt lat="44.6248567" lon="10.8943617"><ele>45.333333333333336</ele><time>2026-04-26T16:17:35.302Z</time></trkpt><trkpt lat="44.624985" lon="10.8944733"><ele>45.0</ele><time>2026-04-26T16:17:36.302Z</time></trkpt><trkpt lat="44.6251217" lon="10.8945917"><ele>45.0</ele><time>2026-04-26T16:17:37.302Z</time></trkpt><trkpt lat="44.625255" lon="10.8947117"><ele>45.0</ele><time>2026-04-26T16:17:38.303Z</time></trkpt><trkpt lat="44.6253883" lon="10.89484"><ele>45.0</ele><time>2026-04-26T16:17:39.302Z</time></trkpt><trkpt lat="44.625525" lon="10.8949533"><ele>44.0</ele><time>2026-04-26T16:17:40.302Z</time></trkpt><trkpt lat="44.6256783" lon="10.8950733"><ele>43.0</ele><time>2026-04-26T16:17:41.302Z</time></trkpt><trkpt lat="44.6258183" lon="10.8951983"><ele>42.0</ele><time>2026-04-26T16:17:42.302Z</time></trkpt><trkpt lat="44.6259667" lon="10.8953233"><ele>41.666666666666664</ele><time>2026-04-26T16:17:43.302Z</time></trkpt><trkpt lat="44.626115" lon="10.89545"><ele>41.33333333333333</ele><time>2026-04-26T16:17:44.302Z</time></trkpt><trkpt lat="44.6262683" lon="10.8955683"><ele>41.0</ele><time>2026-04-26T16:17:45.302Z</time></trkpt><trkpt lat="44.6264183" lon="10.8957"><ele>41.666666666666664</ele><time>2026-04-26T16:17:46.302Z</time></trkpt><trkpt lat="44.6265717" lon="10.8958333"><ele>42.333333333333336</ele><time>2026-04-26T16:17:47.302Z</time></trkpt><trkpt lat="44.6267217" lon="10.89597"><ele>43.0</ele><time>2026-04-26T16:17:48.302Z</time></trkpt><trkpt lat="44.62687" lon="10.89611"><ele>43.333333333333336</ele><time>2026-04-26T16:17:49.302Z</time></trkpt><trkpt lat="44.6270267" lon="10.896245"><ele>43.666666666666664</ele><time>2026-04-26T16:17:50.302Z</time></trkpt><trkpt lat="44.6271817" lon="10.8963883"><ele>44.0</ele><time>2026-04-26T16:17:51.302Z</time></trkpt><trkpt lat="44.62734" lon="10.8965283"><ele>44.0</ele><time>2026-04-26T16:17:52.302Z</time></trkpt><trkpt lat="44.6274967" lon="10.8966667"><ele>44.0</ele><time>2026-04-26T16:17:53.302Z</time></trkpt><trkpt lat="44.6276517" lon="10.896805"><ele>44.0</ele><time>2026-04-26T16:17:54.303Z</time></trkpt><trkpt lat="44.627805" lon="10.89694"><ele>44.33333333333333</ele><time>2026-04-26T16:17:55.302Z</time></trkpt><trkpt lat="44.62796" lon="10.8970767"><ele>44.666666666666664</ele><time>2026-04-26T16:17:56.302Z</time></trkpt><trkpt lat="44.6281133" lon="10.8972083"><ele>45.0</ele><time>2026-04-26T16:17:57.302Z</time></trkpt><trkpt lat="44.62827" lon="10.8973433"><ele>45.0</ele><time>2026-04-26T16:17:58.302Z</time></trkpt><trkpt lat="44.62842" lon="10.8974833"><ele>45.0</ele><time>2026-04-26T16:17:59.302Z</time></trkpt><trkpt lat="44.62856" lon="10.8976217"><ele>45.0</ele><time>2026-04-26T16:18:00.302Z</time></trkpt><trkpt lat="44.62869" lon="10.8977567"><ele>44.5</ele><time>2026-04-26T16:18:01.302Z</time></trkpt><trkpt lat="44.6288033" lon="10.8978817"><ele>44.0</ele><time>2026-04-26T16:18:02.302Z</time></trkpt><trkpt lat="44.62891" lon="10.8979867"><ele>43.5</ele><time>2026-04-26T16:18:03.302Z</time></trkpt><trkpt lat="44.629015" lon="10.8980967"><ele>43.0</ele><time>2026-04-26T16:18:04.302Z</time></trkpt><trkpt lat="44.629125" lon="10.8982083"><ele>43.0</ele><time>2026-04-26T16:18:05.302Z</time></trkpt><trkpt lat="44.629245" lon="10.8983267"><ele>43.0</ele><time>2026-04-26T16:18:06.302Z</time></trkpt><trkpt lat="44.6293667" lon="10.8984533"><ele>43.0</ele><time>2026-04-26T16:18:07.302Z</time></trkpt><trkpt lat="44.6294883" lon="10.89858"><ele>43.0</ele><time>2026-04-26T16:18:08.302Z</time></trkpt><trkpt lat="44.6296033" lon="10.89871"><ele>42.66666666666667</ele><time>2026-04-26T16:18:09.302Z</time></trkpt><trkpt lat="44.6297317" lon="10.898825"><ele>42.333333333333336</ele><time>2026-04-26T16:18:10.302Z</time></trkpt><trkpt lat="44.6298717" lon="10.898945"><ele>42.0</ele><time>2026-04-26T16:18:11.302Z</time></trkpt><trkpt lat="44.6300167" lon="10.899055"><ele>42.0</ele><time>2026-04-26T16:18:12.302Z</time></trkpt><trkpt lat="44.6301717" lon="10.8991733"><ele>42.0</ele><time>2026-04-26T16:18:13.303Z</time></trkpt><trkpt lat="44.6303267" lon="10.8992883"><ele>42.0</ele><time>2026-04-26T16:18:14.302Z</time></trkpt><trkpt lat="44.630475" lon="10.8994083"><ele>42.0</ele><time>2026-04-26T16:18:15.302Z</time></trkpt><trkpt lat="44.6306183" lon="10.8995217"><ele>42.0</ele><time>2026-04-26T16:18:16.302Z</time></trkpt><trkpt lat="44.63075" lon="10.89962"><ele>42.0</ele><time>2026-04-26T16:18:17.302Z</time></trkpt><trkpt lat="44.630875" lon="10.8997133"><ele>42.0</ele><time>2026-04-26T16:18:18.302Z</time></trkpt><trkpt lat="44.6309917" lon="10.8998017"><ele>42.0</ele><time>2026-04-26T16:18:19.302Z</time></trkpt><trkpt lat="44.6311017" lon="10.899895"><ele>42.0</ele><time>2026-04-26T16:18:20.302Z</time></trkpt><trkpt lat="44.6312" lon="10.8999767"><ele>42.0</ele><time>2026-04-26T16:18:21.302Z</time></trkpt><trkpt lat="44.6312833" lon="10.9000483"><ele>41.833333333333336</ele><time>2026-04-26T16:18:22.302Z</time></trkpt><trkpt lat="44.631345" lon="10.9001033"><ele>41.666666666666664</ele><time>2026-04-26T16:18:23.302Z</time></trkpt><trkpt lat="44.6314183" lon="10.9001533"><ele>41.5</ele><time>2026-04-26T16:18:25.302Z</time></trkpt><trkpt lat="44.6314817" lon="10.9002133"><ele>41.33333333333333</ele><time>2026-04-26T16:18:42.301Z</time></trkpt><trkpt lat="44.6315483" lon="10.9002683"><ele>41.166666666666664</ele><time>2026-04-26T16:18:43.302Z</time></trkpt><trkpt lat="44.6316367" lon="10.9003383"><ele>41.0</ele><time>2026-04-26T16:18:44.301Z</time></trkpt><trkpt lat="44.631735" lon="10.9004217"><ele>41.0</ele><time>2026-04-26T16:18:45.301Z</time></trkpt><trkpt lat="44.6318433" lon="10.90051"><ele>41.0</ele><time>2026-04-26T16:18:46.301Z</time></trkpt><trkpt lat="44.63196" lon="10.9006083"><ele>41.0</ele><time>2026-04-26T16:18:47.301Z</time></trkpt><trkpt lat="44.63209" lon="10.900725"><ele>41.0</ele><time>2026-04-26T16:18:48.301Z</time></trkpt><trkpt lat="44.6322317" lon="10.900865"><ele>41.0</ele><time>2026-04-26T16:18:49.301Z</time></trkpt><trkpt lat="44.6323917" lon="10.9010233"><ele>41.0</ele><time>2026-04-26T16:18:50.301Z</time></trkpt><trkpt lat="44.6325583" lon="10.9011817"><ele>41.0</ele><time>2026-04-26T16:18:51.301Z</time></trkpt><trkpt lat="44.6327217" lon="10.9013367"><ele>41.33333333333333</ele><time>2026-04-26T16:18:52.302Z</time></trkpt><trkpt lat="44.6328833" lon="10.9014867"><ele>41.666666666666664</ele><time>2026-04-26T16:18:53.301Z</time></trkpt><trkpt lat="44.6330417" lon="10.9016383"><ele>42.0</ele><time>2026-04-26T16:18:54.301Z</time></trkpt><trkpt lat="44.633195" lon="10.9017933"><ele>42.0</ele><time>2026-04-26T16:18:55.301Z</time></trkpt><trkpt lat="44.6333367" lon="10.90194"><ele>42.0</ele><time>2026-04-26T16:18:56.301Z</time></trkpt><trkpt lat="44.6334717" lon="10.9020833"><ele>42.0</ele><time>2026-04-26T16:18:57.301Z</time></trkpt><trkpt lat="44.6335933" lon="10.9022233"><ele>41.75</ele><time>2026-04-26T16:18:58.301Z</time></trkpt><trkpt lat="44.6337117" lon="10.9023517"><ele>41.5</ele><time>2026-04-26T16:18:59.301Z</time></trkpt><trkpt lat="44.63382" lon="10.9024783"><ele>41.25</ele><time>2026-04-26T16:19:00.301Z</time></trkpt><trkpt lat="44.6339117" lon="10.9025783"><ele>41.0</ele><time>2026-04-26T16:19:01.301Z</time></trkpt><trkpt lat="44.6339933" lon="10.9026767"><ele>41.0</ele><time>2026-04-26T16:19:02.301Z</time></trkpt><trkpt lat="44.6340667" lon="10.9027717"><ele>41.0</ele><time>2026-04-26T16:19:03.301Z</time></trkpt><trkpt lat="44.634135" lon="10.9028667"><ele>41.0</ele><time>2026-04-26T16:19:04.301Z</time></trkpt><trkpt lat="44.6341933" lon="10.902955"><ele>41.0</ele><time>2026-04-26T16:19:05.301Z</time></trkpt><trkpt lat="44.6342367" lon="10.90305"><ele>41.0</ele><time>2026-04-26T16:19:06.301Z</time></trkpt><trkpt lat="44.634275" lon="10.9031367"><ele>41.0</ele><time>2026-04-26T16:19:07.301Z</time></trkpt><trkpt lat="44.634295" lon="10.9032233"><ele>41.0</ele><time>2026-04-26T16:19:08.301Z</time></trkpt><trkpt lat="44.6343117" lon="10.90338"><ele>41.0</ele><time>2026-04-26T16:19:10.301Z</time></trkpt><trkpt lat="44.6343117" lon="10.90352"><ele>41.0</ele><time>2026-04-26T16:19:12.301Z</time></trkpt><trkpt lat="44.6342967" lon="10.90364"><ele>41.0</ele><time>2026-04-26T16:19:14.301Z</time></trkpt><trkpt lat="44.6342733" lon="10.9037683"><ele>41.0</ele><time>2026-04-26T16:19:16.301Z</time></trkpt><trkpt lat="44.634255" lon="10.90391"><ele>41.0</ele><time>2026-04-26T16:19:18.301Z</time></trkpt><trkpt lat="44.63425" lon="10.904"><ele>41.0</ele><time>2026-04-26T16:19:20.301Z</time></trkpt><trkpt lat="44.6342417" lon="10.9041017"><ele>41.0</ele><time>2026-04-26T16:19:23.301Z</time></trkpt><trkpt lat="44.63422" lon="10.9042"><ele>41.0</ele><time>2026-04-26T16:19:26.301Z</time></trkpt><trkpt lat="44.6341917" lon="10.90434"><ele>41.0</ele><time>2026-04-26T16:19:28.301Z</time></trkpt><trkpt lat="44.6341767" lon="10.9044417"><ele>41.0</ele><time>2026-04-26T16:19:29.301Z</time></trkpt><trkpt lat="44.6341633" lon="10.904555"><ele>41.166666666666664</ele><time>2026-04-26T16:19:30.301Z</time></trkpt><trkpt lat="44.6341517" lon="10.9046683"><ele>41.33333333333333</ele><time>2026-04-26T16:19:31.301Z</time></trkpt><trkpt lat="44.6341417" lon="10.9047717"><ele>41.5</ele><time>2026-04-26T16:19:32.301Z</time></trkpt><trkpt lat="44.634135" lon="10.9048633"><ele>41.666666666666664</ele><time>2026-04-26T16:19:33.301Z</time></trkpt><trkpt lat="44.634125" lon="10.904955"><ele>41.833333333333336</ele><time>2026-04-26T16:19:34.301Z</time></trkpt><trkpt lat="44.6341167" lon="10.9050517"><ele>42.0</ele><time>2026-04-26T16:19:35.301Z</time></trkpt><trkpt lat="44.6341033" lon="10.905185"><ele>41.666666666666664</ele><time>2026-04-26T16:19:37.302Z</time></trkpt><trkpt lat="44.6340867" lon="10.9053017"><ele>41.333333333333336</ele><time>2026-04-26T16:19:39.301Z</time></trkpt><trkpt lat="44.6340783" lon="10.905395"><ele>41.0</ele><time>2026-04-26T16:19:40.301Z</time></trkpt><trkpt lat="44.6340667" lon="10.9054933"><ele>40.66666666666667</ele><time>2026-04-26T16:19:41.301Z</time></trkpt><trkpt lat="44.634045" lon="10.90558"><ele>40.333333333333336</ele><time>2026-04-26T16:19:42.301Z</time></trkpt><trkpt lat="44.6340367" lon="10.9057183"><ele>40.0</ele><time>2026-04-26T16:19:44.301Z</time></trkpt><trkpt lat="44.6340283" lon="10.9058133"><ele>40.0</ele><time>2026-04-26T16:19:46.301Z</time></trkpt><trkpt lat="44.63402" lon="10.905905"><ele>40.0</ele><time>2026-04-26T16:19:48.301Z</time></trkpt><trkpt lat="44.6340033" lon="10.906005"><ele>40.0</ele><time>2026-04-26T16:19:50.301Z</time></trkpt><trkpt lat="44.6339917" lon="10.906105"><ele>40.0</ele><time>2026-04-26T16:19:52.301Z</time></trkpt><trkpt lat="44.6339883" lon="10.906255"><ele>40.0</ele><time>2026-04-26T16:19:54.301Z</time></trkpt><trkpt lat="44.633985" lon="10.9063467"><ele>40.0</ele><time>2026-04-26T16:19:55.301Z</time></trkpt><trkpt lat="44.6339733" lon="10.9065233"><ele>40.0</ele><time>2026-04-26T16:19:57.301Z</time></trkpt><trkpt lat="44.6339533" lon="10.9066867"><ele>40.0</ele><time>2026-04-26T16:19:59.301Z</time></trkpt><trkpt lat="44.6339333" lon="10.906835"><ele>40.0</ele><time>2026-04-26T16:20:01.301Z</time></trkpt><trkpt lat="44.63391" lon="10.9069867"><ele>40.0</ele><time>2026-04-26T16:20:03.301Z</time></trkpt><trkpt lat="44.6338967" lon="10.9071033"><ele>40.0</ele><time>2026-04-26T16:20:05.301Z</time></trkpt><trkpt lat="44.633885" lon="10.90721"><ele>39.75</ele><time>2026-04-26T16:20:09.301Z</time></trkpt><trkpt lat="44.63385" lon="10.9073883"><ele>39.5</ele><time>2026-04-26T16:20:20.301Z</time></trkpt><trkpt lat="44.6338017" lon="10.9074733"><ele>39.25</ele><time>2026-04-26T16:20:28.301Z</time></trkpt><trkpt lat="44.6338033" lon="10.9076317"><ele>39.0</ele><time>2026-04-26T16:20:29.301Z</time></trkpt><trkpt lat="44.6338383" lon="10.907845"><ele>39.0</ele><time>2026-04-26T16:20:56.301Z</time></trkpt><trkpt lat="44.6338583" lon="10.9079517"><ele>39.0</ele><time>2026-04-26T16:20:59.301Z</time></trkpt><trkpt lat="44.63396" lon="10.908005"><ele>39.0</ele><time>2026-04-26T16:21:01.301Z</time></trkpt><trkpt lat="44.63406" lon="10.9080217"><ele>39.0</ele><time>2026-04-26T16:21:02.301Z</time></trkpt><trkpt lat="44.6342067" lon="10.90807"><ele>39.0</ele><time>2026-04-26T16:21:03.301Z</time></trkpt><trkpt lat="44.6343783" lon="10.9081317"><ele>39.333333333333336</ele><time>2026-04-26T16:21:04.301Z</time></trkpt><trkpt lat="44.63453" lon="10.9081717"><ele>39.66666666666667</ele><time>2026-04-26T16:21:05.3Z</time></trkpt><trkpt lat="44.6346783" lon="10.90821"><ele>40.0</ele><time>2026-04-26T16:21:06.3Z</time></trkpt><trkpt lat="44.6348183" lon="10.9082617"><ele>40.0</ele><time>2026-04-26T16:21:07.3Z</time></trkpt><trkpt lat="44.6349633" lon="10.9083233"><ele>40.0</ele><time>2026-04-26T16:21:08.3Z</time></trkpt><trkpt lat="44.63509" lon="10.9083883"><ele>40.0</ele><time>2026-04-26T16:21:09.3Z</time></trkpt><trkpt lat="44.6352267" lon="10.9084733"><ele>40.0</ele><time>2026-04-26T16:21:10.3Z</time></trkpt><trkpt lat="44.6353617" lon="10.9085817"><ele>39.333333333333336</ele><time>2026-04-26T16:21:11.301Z</time></trkpt><trkpt lat="44.635495" lon="10.9086917"><ele>38.666666666666664</ele><time>2026-04-26T16:21:12.3Z</time></trkpt><trkpt lat="44.63562" lon="10.9087883"><ele>38.0</ele><time>2026-04-26T16:21:13.3Z</time></trkpt><trkpt lat="44.63575" lon="10.9089"><ele>38.0</ele><time>2026-04-26T16:21:14.3Z</time></trkpt><trkpt lat="44.6358833" lon="10.909"><ele>38.0</ele><time>2026-04-26T16:21:15.3Z</time></trkpt><trkpt lat="44.6360117" lon="10.9091"><ele>38.0</ele><time>2026-04-26T16:21:16.3Z</time></trkpt><trkpt lat="44.6361333" lon="10.909205"><ele>38.0</ele><time>2026-04-26T16:21:17.3Z</time></trkpt><trkpt lat="44.636255" lon="10.9093117"><ele>37.75</ele><time>2026-04-26T16:21:18.3Z</time></trkpt><trkpt lat="44.6363767" lon="10.909425"><ele>37.5</ele><time>2026-04-26T16:21:19.3Z</time></trkpt><trkpt lat="44.6364967" lon="10.9095417"><ele>37.25</ele><time>2026-04-26T16:21:20.3Z</time></trkpt><trkpt lat="44.6366183" lon="10.9096483"><ele>37.0</ele><time>2026-04-26T16:21:21.3Z</time></trkpt><trkpt lat="44.6367317" lon="10.90976"><ele>37.0</ele><time>2026-04-26T16:21:22.3Z</time></trkpt><trkpt lat="44.6368417" lon="10.9098633"><ele>37.0</ele><time>2026-04-26T16:21:23.3Z</time></trkpt><trkpt lat="44.63695" lon="10.90997"><ele>37.0</ele><time>2026-04-26T16:21:24.3Z</time></trkpt><trkpt lat="44.6370517" lon="10.9101"><ele>37.0</ele><time>2026-04-26T16:21:25.3Z</time></trkpt><trkpt lat="44.63714" lon="10.9102417"><ele>37.25</ele><time>2026-04-26T16:21:26.3Z</time></trkpt><trkpt lat="44.6372133" lon="10.91039"><ele>37.5</ele><time>2026-04-26T16:21:27.3Z</time></trkpt><trkpt lat="44.637275" lon="10.9105617"><ele>37.75</ele><time>2026-04-26T16:21:28.301Z</time></trkpt><trkpt lat="44.6373317" lon="10.9107533"><ele>38.0</ele><time>2026-04-26T16:21:29.3Z</time></trkpt><trkpt lat="44.637395" lon="10.9109417"><ele>38.0</ele><time>2026-04-26T16:21:30.3Z</time></trkpt><trkpt lat="44.6374567" lon="10.9111233"><ele>38.0</ele><time>2026-04-26T16:21:31.3Z</time></trkpt><trkpt lat="44.6375183" lon="10.9113133"><ele>38.0</ele><time>2026-04-26T16:21:32.3Z</time></trkpt><trkpt lat="44.6375783" lon="10.9115117"><ele>38.0</ele><time>2026-04-26T16:21:33.3Z</time></trkpt><trkpt lat="44.637645" lon="10.911695"><ele>38.0</ele><time>2026-04-26T16:21:34.3Z</time></trkpt><trkpt lat="44.637705" lon="10.91189"><ele>38.0</ele><time>2026-04-26T16:21:35.3Z</time></trkpt><trkpt lat="44.6377667" lon="10.9120883"><ele>38.0</ele><time>2026-04-26T16:21:36.3Z</time></trkpt><trkpt lat="44.6378333" lon="10.9122983"><ele>38.0</ele><time>2026-04-26T16:21:37.3Z</time></trkpt><trkpt lat="44.637895" lon="10.9125017"><ele>38.0</ele><time>2026-04-26T16:21:38.3Z</time></trkpt><trkpt lat="44.6379533" lon="10.912695"><ele>38.0</ele><time>2026-04-26T16:21:39.3Z</time></trkpt><trkpt lat="44.638025" lon="10.9128717"><ele>38.0</ele><time>2026-04-26T16:21:40.3Z</time></trkpt><trkpt lat="44.638085" lon="10.9130467"><ele>38.0</ele><time>2026-04-26T16:21:41.3Z</time></trkpt><trkpt lat="44.6381483" lon="10.9132117"><ele>38.0</ele><time>2026-04-26T16:21:42.3Z</time></trkpt><trkpt lat="44.6382183" lon="10.9133733"><ele>38.0</ele><time>2026-04-26T16:21:43.3Z</time></trkpt><trkpt lat="44.6382867" lon="10.91352"><ele>37.8</ele><time>2026-04-26T16:21:44.301Z</time></trkpt><trkpt lat="44.6383483" lon="10.9136633"><ele>37.599999999999994</ele><time>2026-04-26T16:21:45.3Z</time></trkpt><trkpt lat="44.638405" lon="10.913795"><ele>37.400000000000006</ele><time>2026-04-26T16:21:46.3Z</time></trkpt><trkpt lat="44.6384417" lon="10.9139167"><ele>37.2</ele><time>2026-04-26T16:21:47.3Z</time></trkpt><trkpt lat="44.638475" lon="10.91402"><ele>37.0</ele><time>2026-04-26T16:21:48.3Z</time></trkpt><trkpt lat="44.6385183" lon="10.9141317"><ele>37.0</ele><time>2026-04-26T16:21:50.3Z</time></trkpt><trkpt lat="44.638595" lon="10.914205"><ele>37.0</ele><time>2026-04-26T16:22:19.3Z</time></trkpt><trkpt lat="44.6386933" lon="10.914185"><ele>37.0</ele><time>2026-04-26T16:22:21.3Z</time></trkpt><trkpt lat="44.638765" lon="10.9141533"><ele>37.0</ele><time>2026-04-26T16:22:22.3Z</time></trkpt><trkpt lat="44.638835" lon="10.9141067"><ele>37.0</ele><time>2026-04-26T16:22:23.3Z</time></trkpt><trkpt lat="44.63891" lon="10.91406"><ele>37.0</ele><time>2026-04-26T16:22:24.3Z</time></trkpt><trkpt lat="44.6389867" lon="10.9140033"><ele>37.0</ele><time>2026-04-26T16:22:25.3Z</time></trkpt><trkpt lat="44.6390667" lon="10.9139467"><ele>37.0</ele><time>2026-04-26T16:22:26.3Z</time></trkpt><trkpt lat="44.6391433" lon="10.9138867"><ele>37.0</ele><time>2026-04-26T16:22:27.3Z</time></trkpt><trkpt lat="44.639225" lon="10.9138217"><ele>37.0</ele><time>2026-04-26T16:22:28.3Z</time></trkpt><trkpt lat="44.6393133" lon="10.9137567"><ele>37.0</ele><time>2026-04-26T16:22:29.3Z</time></trkpt><trkpt lat="44.6393883" lon="10.9137167"><ele>37.0</ele><time>2026-04-26T16:22:30.3Z</time></trkpt><trkpt lat="44.6394633" lon="10.9136583"><ele>37.0</ele><time>2026-04-26T16:22:31.3Z</time></trkpt><trkpt lat="44.6395367" lon="10.9136133"><ele>37.0</ele><time>2026-04-26T16:22:32.3Z</time></trkpt><trkpt lat="44.6396033" lon="10.9135583"><ele>37.0</ele><time>2026-04-26T16:22:33.3Z</time></trkpt><trkpt lat="44.6396733" lon="10.9135083"><ele>37.0</ele><time>2026-04-26T16:22:34.3Z</time></trkpt><trkpt lat="44.6397433" lon="10.91346"><ele>37.0</ele><time>2026-04-26T16:22:35.3Z</time></trkpt><trkpt lat="44.639805" lon="10.91341"><ele>38.0</ele><time>2026-04-26T16:22:36.3Z</time></trkpt><trkpt lat="44.6399017" lon="10.9133417"><ele>39.0</ele><time>2026-04-26T16:22:38.301Z</time></trkpt><trkpt lat="44.639965" lon="10.9133183"><ele>39.0</ele><time>2026-04-26T16:22:40.3Z</time></trkpt><trkpt lat="44.6400317" lon="10.9134033"><ele>39.0</ele><time>2026-04-26T16:22:43.3Z</time></trkpt><trkpt lat="44.6400767" lon="10.913485"><ele>38.0</ele><time>2026-04-26T16:22:45.3Z</time></trkpt></trkseg></trk></gpx>